<?xml version="1.0" encoding="UTF-8" standalone="no" ?>
<gpx xmlns="http://www.topografix.com/GPX/1/1" xmlns:xsi="http://www.w3.org/2001/XMLSchema-instance" xsi:schemaLocation="http://www.topografix.com/GPX/1/1 http://www.topografix.com/GPX/1/1/gpx.xsd" version="1.1" creator="VisuGPX - https://www.visugpx.com">
  <metadata>
    <name>Marcelcave Wiencourt Cayeux Ignaucourt</name>
  </metadata>
  <trk>
    <name><![CDATA[Marcelcave Wiencourt Cayeux Ignaucourt_1]]></name>
    <trkseg>
      <trkpt lat="49.84429" lon="2.57582">
        <ele>94</ele>
        <time>2022-07-10T09:45:05Z</time>
      </trkpt>
      <trkpt lat="49.8443" lon="2.57583">
        <ele>94</ele>
        <time>2022-07-10T09:45:06Z</time>
      </trkpt>
      <trkpt lat="49.8443" lon="2.57583">
        <ele>94</ele>
        <time>2022-07-10T09:45:07Z</time>
      </trkpt>
      <trkpt lat="49.8443" lon="2.57583">
        <ele>94</ele>
        <time>2022-07-10T09:45:08Z</time>
      </trkpt>
      <trkpt lat="49.84431" lon="2.57583">
        <ele>94</ele>
        <time>2022-07-10T09:45:09Z</time>
      </trkpt>
      <trkpt lat="49.84431" lon="2.57584">
        <ele>94.1</ele>
        <time>2022-07-10T09:45:10Z</time>
      </trkpt>
      <trkpt lat="49.84432" lon="2.57584">
        <ele>94.1</ele>
        <time>2022-07-10T09:45:11Z</time>
      </trkpt>
      <trkpt lat="49.84434" lon="2.57584">
        <ele>94.1</ele>
        <time>2022-07-10T09:45:12Z</time>
      </trkpt>
      <trkpt lat="49.84435" lon="2.57583">
        <ele>94.1</ele>
        <time>2022-07-10T09:45:13Z</time>
      </trkpt>
      <trkpt lat="49.84436" lon="2.57583">
        <ele>94.1</ele>
        <time>2022-07-10T09:45:14Z</time>
      </trkpt>
      <trkpt lat="49.84437" lon="2.57583">
        <ele>94.1</ele>
        <time>2022-07-10T09:45:16Z</time>
      </trkpt>
      <trkpt lat="49.84438" lon="2.57584">
        <ele>94.1</ele>
        <time>2022-07-10T09:45:17Z</time>
      </trkpt>
      <trkpt lat="49.84439" lon="2.57584">
        <ele>94.1</ele>
        <time>2022-07-10T09:45:18Z</time>
      </trkpt>
      <trkpt lat="49.8444" lon="2.57585">
        <ele>94.1</ele>
        <time>2022-07-10T09:45:19Z</time>
      </trkpt>
      <trkpt lat="49.84441" lon="2.57586">
        <ele>94.1</ele>
        <time>2022-07-10T09:45:20Z</time>
      </trkpt>
      <trkpt lat="49.84442" lon="2.57586">
        <ele>94.1</ele>
        <time>2022-07-10T09:45:21Z</time>
      </trkpt>
      <trkpt lat="49.84443" lon="2.57587">
        <ele>94.1</ele>
        <time>2022-07-10T09:45:22Z</time>
      </trkpt>
      <trkpt lat="49.84445" lon="2.57587">
        <ele>94.1</ele>
        <time>2022-07-10T09:45:23Z</time>
      </trkpt>
      <trkpt lat="49.84446" lon="2.57587">
        <ele>94.1</ele>
        <time>2022-07-10T09:45:24Z</time>
      </trkpt>
      <trkpt lat="49.84446" lon="2.57588">
        <ele>94.1</ele>
        <time>2022-07-10T09:45:25Z</time>
      </trkpt>
      <trkpt lat="49.84447" lon="2.57588">
        <ele>94.1</ele>
        <time>2022-07-10T09:45:26Z</time>
      </trkpt>
      <trkpt lat="49.84447" lon="2.57588">
        <ele>94.1</ele>
        <time>2022-07-10T09:45:27Z</time>
      </trkpt>
      <trkpt lat="49.84448" lon="2.57588">
        <ele>94.1</ele>
        <time>2022-07-10T09:45:29Z</time>
      </trkpt>
      <trkpt lat="49.84448" lon="2.57588">
        <ele>94.1</ele>
        <time>2022-07-10T09:45:30Z</time>
      </trkpt>
      <trkpt lat="49.84449" lon="2.57588">
        <ele>94.1</ele>
        <time>2022-07-10T09:45:32Z</time>
      </trkpt>
      <trkpt lat="49.84449" lon="2.57588">
        <ele>94.1</ele>
        <time>2022-07-10T09:45:33Z</time>
      </trkpt>
      <trkpt lat="49.8445" lon="2.57589">
        <ele>94.2</ele>
        <time>2022-07-10T09:45:35Z</time>
      </trkpt>
      <trkpt lat="49.8445" lon="2.57589">
        <ele>94.2</ele>
        <time>2022-07-10T09:45:36Z</time>
      </trkpt>
      <trkpt lat="49.84451" lon="2.57589">
        <ele>94.2</ele>
        <time>2022-07-10T09:45:38Z</time>
      </trkpt>
      <trkpt lat="49.84451" lon="2.57589">
        <ele>94.2</ele>
        <time>2022-07-10T09:45:40Z</time>
      </trkpt>
      <trkpt lat="49.84452" lon="2.57589">
        <ele>94.2</ele>
        <time>2022-07-10T09:45:41Z</time>
      </trkpt>
      <trkpt lat="49.84454" lon="2.57591">
        <ele>94.2</ele>
        <time>2022-07-10T09:45:42Z</time>
      </trkpt>
      <trkpt lat="49.84455" lon="2.57591">
        <ele>94.2</ele>
        <time>2022-07-10T09:45:43Z</time>
      </trkpt>
      <trkpt lat="49.84456" lon="2.57592">
        <ele>94.2</ele>
        <time>2022-07-10T09:45:45Z</time>
      </trkpt>
      <trkpt lat="49.84457" lon="2.57593">
        <ele>94.2</ele>
        <time>2022-07-10T09:45:46Z</time>
      </trkpt>
      <trkpt lat="49.84458" lon="2.57593">
        <ele>94.2</ele>
        <time>2022-07-10T09:45:47Z</time>
      </trkpt>
      <trkpt lat="49.8446" lon="2.57595">
        <ele>94.2</ele>
        <time>2022-07-10T09:45:48Z</time>
      </trkpt>
      <trkpt lat="49.84462" lon="2.57595">
        <ele>94.2</ele>
        <time>2022-07-10T09:45:50Z</time>
      </trkpt>
      <trkpt lat="49.84463" lon="2.57595">
        <ele>94.2</ele>
        <time>2022-07-10T09:45:51Z</time>
      </trkpt>
      <trkpt lat="49.84465" lon="2.57595">
        <ele>94.2</ele>
        <time>2022-07-10T09:45:52Z</time>
      </trkpt>
      <trkpt lat="49.84467" lon="2.57594">
        <ele>94.2</ele>
        <time>2022-07-10T09:45:53Z</time>
      </trkpt>
      <trkpt lat="49.84468" lon="2.57593">
        <ele>94.3</ele>
        <time>2022-07-10T09:45:54Z</time>
      </trkpt>
      <trkpt lat="49.84469" lon="2.57593">
        <ele>94.3</ele>
        <time>2022-07-10T09:45:55Z</time>
      </trkpt>
      <trkpt lat="49.8447" lon="2.57593">
        <ele>94.3</ele>
        <time>2022-07-10T09:45:56Z</time>
      </trkpt>
      <trkpt lat="49.84471" lon="2.57593">
        <ele>94.3</ele>
        <time>2022-07-10T09:45:58Z</time>
      </trkpt>
      <trkpt lat="49.84471" lon="2.57593">
        <ele>94.3</ele>
        <time>2022-07-10T09:45:59Z</time>
      </trkpt>
      <trkpt lat="49.84472" lon="2.57593">
        <ele>94.3</ele>
        <time>2022-07-10T09:46:00Z</time>
      </trkpt>
      <trkpt lat="49.84473" lon="2.57594">
        <ele>94.3</ele>
        <time>2022-07-10T09:46:01Z</time>
      </trkpt>
      <trkpt lat="49.84474" lon="2.57595">
        <ele>94.3</ele>
        <time>2022-07-10T09:46:02Z</time>
      </trkpt>
      <trkpt lat="49.84475" lon="2.57596">
        <ele>94.3</ele>
        <time>2022-07-10T09:46:04Z</time>
      </trkpt>
      <trkpt lat="49.84475" lon="2.57597">
        <ele>94.3</ele>
        <time>2022-07-10T09:46:05Z</time>
      </trkpt>
      <trkpt lat="49.84475" lon="2.57599">
        <ele>94.3</ele>
        <time>2022-07-10T09:46:06Z</time>
      </trkpt>
      <trkpt lat="49.84476" lon="2.57601">
        <ele>94.3</ele>
        <time>2022-07-10T09:46:07Z</time>
      </trkpt>
      <trkpt lat="49.84477" lon="2.57601">
        <ele>94.3</ele>
        <time>2022-07-10T09:46:08Z</time>
      </trkpt>
      <trkpt lat="49.84478" lon="2.57602">
        <ele>94.3</ele>
        <time>2022-07-10T09:46:10Z</time>
      </trkpt>
      <trkpt lat="49.84479" lon="2.57602">
        <ele>94.3</ele>
        <time>2022-07-10T09:46:11Z</time>
      </trkpt>
      <trkpt lat="49.8448" lon="2.57603">
        <ele>94.4</ele>
        <time>2022-07-10T09:46:12Z</time>
      </trkpt>
      <trkpt lat="49.84481" lon="2.57603">
        <ele>94.4</ele>
        <time>2022-07-10T09:46:13Z</time>
      </trkpt>
      <trkpt lat="49.84483" lon="2.57605">
        <ele>94.4</ele>
        <time>2022-07-10T09:46:14Z</time>
      </trkpt>
      <trkpt lat="49.84484" lon="2.57606">
        <ele>94.4</ele>
        <time>2022-07-10T09:46:15Z</time>
      </trkpt>
      <trkpt lat="49.84484" lon="2.57607">
        <ele>94.4</ele>
        <time>2022-07-10T09:46:16Z</time>
      </trkpt>
      <trkpt lat="49.84486" lon="2.57608">
        <ele>94.4</ele>
        <time>2022-07-10T09:46:17Z</time>
      </trkpt>
      <trkpt lat="49.84487" lon="2.57608">
        <ele>94.4</ele>
        <time>2022-07-10T09:46:19Z</time>
      </trkpt>
      <trkpt lat="49.84488" lon="2.57609">
        <ele>94.4</ele>
        <time>2022-07-10T09:46:20Z</time>
      </trkpt>
      <trkpt lat="49.8449" lon="2.5761">
        <ele>94.5</ele>
        <time>2022-07-10T09:46:21Z</time>
      </trkpt>
      <trkpt lat="49.84492" lon="2.57611">
        <ele>94.5</ele>
        <time>2022-07-10T09:46:23Z</time>
      </trkpt>
      <trkpt lat="49.84493" lon="2.57613">
        <ele>94.5</ele>
        <time>2022-07-10T09:46:24Z</time>
      </trkpt>
      <trkpt lat="49.84493" lon="2.57613">
        <ele>94.5</ele>
        <time>2022-07-10T09:46:25Z</time>
      </trkpt>
      <trkpt lat="49.84494" lon="2.57614">
        <ele>94.5</ele>
        <time>2022-07-10T09:46:26Z</time>
      </trkpt>
      <trkpt lat="49.84494" lon="2.57615">
        <ele>94.5</ele>
        <time>2022-07-10T09:46:27Z</time>
      </trkpt>
      <trkpt lat="49.84494" lon="2.57615">
        <ele>94.5</ele>
        <time>2022-07-10T09:46:28Z</time>
      </trkpt>
      <trkpt lat="49.84494" lon="2.57615">
        <ele>94.5</ele>
        <time>2022-07-10T09:46:29Z</time>
      </trkpt>
      <trkpt lat="49.84493" lon="2.57614">
        <ele>94.5</ele>
        <time>2022-07-10T09:46:30Z</time>
      </trkpt>
      <trkpt lat="49.84493" lon="2.57614">
        <ele>94.5</ele>
        <time>2022-07-10T09:46:31Z</time>
      </trkpt>
      <trkpt lat="49.84494" lon="2.57614">
        <ele>94.5</ele>
        <time>2022-07-10T09:46:32Z</time>
      </trkpt>
      <trkpt lat="49.84494" lon="2.57614">
        <ele>94.5</ele>
        <time>2022-07-10T09:46:33Z</time>
      </trkpt>
      <trkpt lat="49.84494" lon="2.57614">
        <ele>94.5</ele>
        <time>2022-07-10T09:46:34Z</time>
      </trkpt>
      <trkpt lat="49.84495" lon="2.57614">
        <ele>94.5</ele>
        <time>2022-07-10T09:46:35Z</time>
      </trkpt>
      <trkpt lat="49.84496" lon="2.57615">
        <ele>94.5</ele>
        <time>2022-07-10T09:46:37Z</time>
      </trkpt>
      <trkpt lat="49.84496" lon="2.57616">
        <ele>94.5</ele>
        <time>2022-07-10T09:46:38Z</time>
      </trkpt>
      <trkpt lat="49.84497" lon="2.57616">
        <ele>94.6</ele>
        <time>2022-07-10T09:46:39Z</time>
      </trkpt>
      <trkpt lat="49.84498" lon="2.57617">
        <ele>94.6</ele>
        <time>2022-07-10T09:46:40Z</time>
      </trkpt>
      <trkpt lat="49.845" lon="2.57617">
        <ele>94.6</ele>
        <time>2022-07-10T09:46:41Z</time>
      </trkpt>
      <trkpt lat="49.84501" lon="2.57617">
        <ele>94.6</ele>
        <time>2022-07-10T09:46:42Z</time>
      </trkpt>
      <trkpt lat="49.84502" lon="2.57617">
        <ele>94.6</ele>
        <time>2022-07-10T09:46:43Z</time>
      </trkpt>
      <trkpt lat="49.84504" lon="2.57617">
        <ele>94.6</ele>
        <time>2022-07-10T09:46:45Z</time>
      </trkpt>
      <trkpt lat="49.84505" lon="2.57618">
        <ele>94.6</ele>
        <time>2022-07-10T09:46:46Z</time>
      </trkpt>
      <trkpt lat="49.84506" lon="2.57618">
        <ele>94.6</ele>
        <time>2022-07-10T09:46:47Z</time>
      </trkpt>
      <trkpt lat="49.84507" lon="2.57618">
        <ele>94.6</ele>
        <time>2022-07-10T09:46:48Z</time>
      </trkpt>
      <trkpt lat="49.84508" lon="2.57619">
        <ele>94.7</ele>
        <time>2022-07-10T09:46:49Z</time>
      </trkpt>
      <trkpt lat="49.8451" lon="2.57618">
        <ele>94.7</ele>
        <time>2022-07-10T09:46:50Z</time>
      </trkpt>
      <trkpt lat="49.84511" lon="2.57618">
        <ele>94.7</ele>
        <time>2022-07-10T09:46:51Z</time>
      </trkpt>
      <trkpt lat="49.84512" lon="2.57618">
        <ele>94.7</ele>
        <time>2022-07-10T09:46:53Z</time>
      </trkpt>
      <trkpt lat="49.84513" lon="2.57618">
        <ele>94.7</ele>
        <time>2022-07-10T09:46:54Z</time>
      </trkpt>
      <trkpt lat="49.84514" lon="2.57618">
        <ele>94.7</ele>
        <time>2022-07-10T09:46:55Z</time>
      </trkpt>
      <trkpt lat="49.84515" lon="2.57618">
        <ele>94.7</ele>
        <time>2022-07-10T09:46:56Z</time>
      </trkpt>
      <trkpt lat="49.84516" lon="2.57618">
        <ele>94.7</ele>
        <time>2022-07-10T09:46:57Z</time>
      </trkpt>
      <trkpt lat="49.84517" lon="2.57619">
        <ele>94.7</ele>
        <time>2022-07-10T09:46:58Z</time>
      </trkpt>
      <trkpt lat="49.84518" lon="2.57619">
        <ele>94.8</ele>
        <time>2022-07-10T09:46:59Z</time>
      </trkpt>
      <trkpt lat="49.8452" lon="2.5762">
        <ele>94.8</ele>
        <time>2022-07-10T09:47:00Z</time>
      </trkpt>
      <trkpt lat="49.8452" lon="2.5762">
        <ele>94.8</ele>
        <time>2022-07-10T09:47:02Z</time>
      </trkpt>
      <trkpt lat="49.8452" lon="2.5762">
        <ele>94.8</ele>
        <time>2022-07-10T09:47:03Z</time>
      </trkpt>
      <trkpt lat="49.84521" lon="2.57621">
        <ele>94.8</ele>
        <time>2022-07-10T09:47:04Z</time>
      </trkpt>
      <trkpt lat="49.84522" lon="2.57621">
        <ele>94.8</ele>
        <time>2022-07-10T09:47:05Z</time>
      </trkpt>
      <trkpt lat="49.84522" lon="2.57621">
        <ele>94.8</ele>
        <time>2022-07-10T09:47:06Z</time>
      </trkpt>
      <trkpt lat="49.84524" lon="2.57621">
        <ele>94.8</ele>
        <time>2022-07-10T09:47:07Z</time>
      </trkpt>
      <trkpt lat="49.84526" lon="2.57621">
        <ele>94.8</ele>
        <time>2022-07-10T09:47:09Z</time>
      </trkpt>
      <trkpt lat="49.84527" lon="2.57621">
        <ele>94.9</ele>
        <time>2022-07-10T09:47:10Z</time>
      </trkpt>
      <trkpt lat="49.84528" lon="2.57621">
        <ele>94.9</ele>
        <time>2022-07-10T09:47:11Z</time>
      </trkpt>
      <trkpt lat="49.84529" lon="2.57621">
        <ele>94.9</ele>
        <time>2022-07-10T09:47:12Z</time>
      </trkpt>
      <trkpt lat="49.84531" lon="2.57621">
        <ele>94.9</ele>
        <time>2022-07-10T09:47:13Z</time>
      </trkpt>
      <trkpt lat="49.84532" lon="2.57621">
        <ele>94.9</ele>
        <time>2022-07-10T09:47:15Z</time>
      </trkpt>
      <trkpt lat="49.84534" lon="2.57622">
        <ele>94.9</ele>
        <time>2022-07-10T09:47:16Z</time>
      </trkpt>
      <trkpt lat="49.84534" lon="2.57622">
        <ele>94.9</ele>
        <time>2022-07-10T09:47:17Z</time>
      </trkpt>
      <trkpt lat="49.84534" lon="2.57622">
        <ele>94.9</ele>
        <time>2022-07-10T09:47:18Z</time>
      </trkpt>
      <trkpt lat="49.84534" lon="2.57623">
        <ele>94.9</ele>
        <time>2022-07-10T09:47:19Z</time>
      </trkpt>
      <trkpt lat="49.84534" lon="2.57623">
        <ele>95</ele>
        <time>2022-07-10T09:47:20Z</time>
      </trkpt>
      <trkpt lat="49.84533" lon="2.57623">
        <ele>95</ele>
        <time>2022-07-10T09:47:21Z</time>
      </trkpt>
      <trkpt lat="49.84533" lon="2.57624">
        <ele>95</ele>
        <time>2022-07-10T09:47:22Z</time>
      </trkpt>
      <trkpt lat="49.84533" lon="2.57624">
        <ele>95</ele>
        <time>2022-07-10T09:47:23Z</time>
      </trkpt>
      <trkpt lat="49.84533" lon="2.57624">
        <ele>95</ele>
        <time>2022-07-10T09:47:24Z</time>
      </trkpt>
      <trkpt lat="49.84533" lon="2.57625">
        <ele>95</ele>
        <time>2022-07-10T09:47:25Z</time>
      </trkpt>
      <trkpt lat="49.84533" lon="2.57625">
        <ele>95</ele>
        <time>2022-07-10T09:47:26Z</time>
      </trkpt>
      <trkpt lat="49.84533" lon="2.57625">
        <ele>95</ele>
        <time>2022-07-10T09:47:27Z</time>
      </trkpt>
      <trkpt lat="49.84533" lon="2.57625">
        <ele>95</ele>
        <time>2022-07-10T09:47:28Z</time>
      </trkpt>
      <trkpt lat="49.84533" lon="2.57625">
        <ele>95</ele>
        <time>2022-07-10T09:47:29Z</time>
      </trkpt>
      <trkpt lat="49.84533" lon="2.57625">
        <ele>95</ele>
        <time>2022-07-10T09:47:30Z</time>
      </trkpt>
      <trkpt lat="49.84533" lon="2.57625">
        <ele>95</ele>
        <time>2022-07-10T09:47:31Z</time>
      </trkpt>
      <trkpt lat="49.84533" lon="2.57625">
        <ele>95</ele>
        <time>2022-07-10T09:47:32Z</time>
      </trkpt>
      <trkpt lat="49.84533" lon="2.57625">
        <ele>95</ele>
        <time>2022-07-10T09:47:33Z</time>
      </trkpt>
      <trkpt lat="49.84532" lon="2.57625">
        <ele>95</ele>
        <time>2022-07-10T09:47:34Z</time>
      </trkpt>
      <trkpt lat="49.84532" lon="2.57625">
        <ele>95</ele>
        <time>2022-07-10T09:47:35Z</time>
      </trkpt>
      <trkpt lat="49.84532" lon="2.57624">
        <ele>95</ele>
        <time>2022-07-10T09:47:36Z</time>
      </trkpt>
      <trkpt lat="49.84532" lon="2.57624">
        <ele>95</ele>
        <time>2022-07-10T09:47:37Z</time>
      </trkpt>
      <trkpt lat="49.84532" lon="2.57624">
        <ele>95</ele>
        <time>2022-07-10T09:47:38Z</time>
      </trkpt>
      <trkpt lat="49.84532" lon="2.57624">
        <ele>95</ele>
        <time>2022-07-10T09:47:39Z</time>
      </trkpt>
      <trkpt lat="49.84532" lon="2.57624">
        <ele>95</ele>
        <time>2022-07-10T09:47:40Z</time>
      </trkpt>
      <trkpt lat="49.84532" lon="2.57624">
        <ele>95</ele>
        <time>2022-07-10T09:47:41Z</time>
      </trkpt>
      <trkpt lat="49.84532" lon="2.57624">
        <ele>95</ele>
        <time>2022-07-10T09:47:42Z</time>
      </trkpt>
      <trkpt lat="49.84532" lon="2.57624">
        <ele>95</ele>
        <time>2022-07-10T09:47:43Z</time>
      </trkpt>
      <trkpt lat="49.84532" lon="2.57624">
        <ele>95</ele>
        <time>2022-07-10T09:47:44Z</time>
      </trkpt>
      <trkpt lat="49.84532" lon="2.57624">
        <ele>95</ele>
        <time>2022-07-10T09:47:45Z</time>
      </trkpt>
      <trkpt lat="49.84532" lon="2.57624">
        <ele>95</ele>
        <time>2022-07-10T09:47:46Z</time>
      </trkpt>
      <trkpt lat="49.84532" lon="2.57624">
        <ele>95</ele>
        <time>2022-07-10T09:47:47Z</time>
      </trkpt>
      <trkpt lat="49.84532" lon="2.57624">
        <ele>95</ele>
        <time>2022-07-10T09:47:48Z</time>
      </trkpt>
      <trkpt lat="49.84532" lon="2.57624">
        <ele>95</ele>
        <time>2022-07-10T09:47:49Z</time>
      </trkpt>
      <trkpt lat="49.84532" lon="2.57624">
        <ele>95</ele>
        <time>2022-07-10T09:47:50Z</time>
      </trkpt>
      <trkpt lat="49.84532" lon="2.57624">
        <ele>95</ele>
        <time>2022-07-10T09:47:51Z</time>
      </trkpt>
      <trkpt lat="49.84532" lon="2.57624">
        <ele>95</ele>
        <time>2022-07-10T09:47:52Z</time>
      </trkpt>
      <trkpt lat="49.84532" lon="2.57624">
        <ele>95</ele>
        <time>2022-07-10T09:47:53Z</time>
      </trkpt>
      <trkpt lat="49.84532" lon="2.57624">
        <ele>95</ele>
        <time>2022-07-10T09:47:54Z</time>
      </trkpt>
      <trkpt lat="49.84532" lon="2.57624">
        <ele>95</ele>
        <time>2022-07-10T09:47:55Z</time>
      </trkpt>
      <trkpt lat="49.84532" lon="2.57624">
        <ele>95</ele>
        <time>2022-07-10T09:47:56Z</time>
      </trkpt>
      <trkpt lat="49.84532" lon="2.57624">
        <ele>95</ele>
        <time>2022-07-10T09:47:57Z</time>
      </trkpt>
      <trkpt lat="49.84532" lon="2.57624">
        <ele>95</ele>
        <time>2022-07-10T09:47:58Z</time>
      </trkpt>
      <trkpt lat="49.84532" lon="2.57624">
        <ele>95</ele>
        <time>2022-07-10T09:47:59Z</time>
      </trkpt>
      <trkpt lat="49.84532" lon="2.57624">
        <ele>95</ele>
        <time>2022-07-10T09:48:00Z</time>
      </trkpt>
      <trkpt lat="49.84532" lon="2.57624">
        <ele>95</ele>
        <time>2022-07-10T09:48:01Z</time>
      </trkpt>
      <trkpt lat="49.84532" lon="2.57624">
        <ele>95</ele>
        <time>2022-07-10T09:48:02Z</time>
      </trkpt>
      <trkpt lat="49.84532" lon="2.57624">
        <ele>95</ele>
        <time>2022-07-10T09:48:03Z</time>
      </trkpt>
      <trkpt lat="49.84532" lon="2.57624">
        <ele>95</ele>
        <time>2022-07-10T09:48:04Z</time>
      </trkpt>
      <trkpt lat="49.84532" lon="2.57624">
        <ele>95</ele>
        <time>2022-07-10T09:48:05Z</time>
      </trkpt>
      <trkpt lat="49.84532" lon="2.57624">
        <ele>95</ele>
        <time>2022-07-10T09:48:06Z</time>
      </trkpt>
      <trkpt lat="49.84532" lon="2.57624">
        <ele>95</ele>
        <time>2022-07-10T09:48:07Z</time>
      </trkpt>
      <trkpt lat="49.84532" lon="2.57624">
        <ele>95</ele>
        <time>2022-07-10T09:48:08Z</time>
      </trkpt>
      <trkpt lat="49.84532" lon="2.57624">
        <ele>95</ele>
        <time>2022-07-10T09:48:09Z</time>
      </trkpt>
      <trkpt lat="49.84532" lon="2.57624">
        <ele>95</ele>
        <time>2022-07-10T09:48:10Z</time>
      </trkpt>
      <trkpt lat="49.84532" lon="2.57624">
        <ele>95</ele>
        <time>2022-07-10T09:48:11Z</time>
      </trkpt>
      <trkpt lat="49.84532" lon="2.57624">
        <ele>95</ele>
        <time>2022-07-10T09:48:12Z</time>
      </trkpt>
      <trkpt lat="49.84532" lon="2.57624">
        <ele>95</ele>
        <time>2022-07-10T09:48:13Z</time>
      </trkpt>
      <trkpt lat="49.84532" lon="2.57624">
        <ele>95</ele>
        <time>2022-07-10T09:48:14Z</time>
      </trkpt>
      <trkpt lat="49.84532" lon="2.57624">
        <ele>95</ele>
        <time>2022-07-10T09:48:15Z</time>
      </trkpt>
      <trkpt lat="49.84532" lon="2.57624">
        <ele>95</ele>
        <time>2022-07-10T09:48:16Z</time>
      </trkpt>
      <trkpt lat="49.84532" lon="2.57624">
        <ele>95</ele>
        <time>2022-07-10T09:48:17Z</time>
      </trkpt>
      <trkpt lat="49.84532" lon="2.57624">
        <ele>95</ele>
        <time>2022-07-10T09:48:18Z</time>
      </trkpt>
      <trkpt lat="49.84532" lon="2.57624">
        <ele>95</ele>
        <time>2022-07-10T09:48:19Z</time>
      </trkpt>
      <trkpt lat="49.84532" lon="2.57624">
        <ele>95</ele>
        <time>2022-07-10T09:48:20Z</time>
      </trkpt>
      <trkpt lat="49.84532" lon="2.57624">
        <ele>95</ele>
        <time>2022-07-10T09:48:21Z</time>
      </trkpt>
      <trkpt lat="49.84532" lon="2.57624">
        <ele>95</ele>
        <time>2022-07-10T09:48:22Z</time>
      </trkpt>
      <trkpt lat="49.84532" lon="2.57624">
        <ele>95</ele>
        <time>2022-07-10T09:48:23Z</time>
      </trkpt>
      <trkpt lat="49.84532" lon="2.57624">
        <ele>95</ele>
        <time>2022-07-10T09:48:24Z</time>
      </trkpt>
      <trkpt lat="49.84532" lon="2.57624">
        <ele>95</ele>
        <time>2022-07-10T09:48:25Z</time>
      </trkpt>
      <trkpt lat="49.84532" lon="2.57624">
        <ele>95</ele>
        <time>2022-07-10T09:48:26Z</time>
      </trkpt>
      <trkpt lat="49.84532" lon="2.57624">
        <ele>95</ele>
        <time>2022-07-10T09:48:27Z</time>
      </trkpt>
      <trkpt lat="49.84532" lon="2.57624">
        <ele>95</ele>
        <time>2022-07-10T09:48:28Z</time>
      </trkpt>
      <trkpt lat="49.84532" lon="2.57624">
        <ele>95</ele>
        <time>2022-07-10T09:48:29Z</time>
      </trkpt>
      <trkpt lat="49.84532" lon="2.57624">
        <ele>95</ele>
        <time>2022-07-10T09:48:30Z</time>
      </trkpt>
      <trkpt lat="49.84532" lon="2.57624">
        <ele>95</ele>
        <time>2022-07-10T09:48:31Z</time>
      </trkpt>
      <trkpt lat="49.84532" lon="2.57624">
        <ele>95</ele>
        <time>2022-07-10T09:48:32Z</time>
      </trkpt>
      <trkpt lat="49.84532" lon="2.57624">
        <ele>95</ele>
        <time>2022-07-10T09:48:33Z</time>
      </trkpt>
      <trkpt lat="49.84532" lon="2.57624">
        <ele>95</ele>
        <time>2022-07-10T09:48:34Z</time>
      </trkpt>
      <trkpt lat="49.84532" lon="2.57624">
        <ele>95</ele>
        <time>2022-07-10T09:48:35Z</time>
      </trkpt>
      <trkpt lat="49.84532" lon="2.57624">
        <ele>95</ele>
        <time>2022-07-10T09:48:36Z</time>
      </trkpt>
      <trkpt lat="49.84532" lon="2.57624">
        <ele>95</ele>
        <time>2022-07-10T09:48:37Z</time>
      </trkpt>
      <trkpt lat="49.84532" lon="2.57624">
        <ele>95</ele>
        <time>2022-07-10T09:48:38Z</time>
      </trkpt>
      <trkpt lat="49.84532" lon="2.57624">
        <ele>95</ele>
        <time>2022-07-10T09:48:39Z</time>
      </trkpt>
      <trkpt lat="49.84532" lon="2.57624">
        <ele>95</ele>
        <time>2022-07-10T09:48:40Z</time>
      </trkpt>
      <trkpt lat="49.84532" lon="2.57624">
        <ele>95</ele>
        <time>2022-07-10T09:48:41Z</time>
      </trkpt>
      <trkpt lat="49.84532" lon="2.57624">
        <ele>95</ele>
        <time>2022-07-10T09:48:42Z</time>
      </trkpt>
      <trkpt lat="49.84532" lon="2.57624">
        <ele>95</ele>
        <time>2022-07-10T09:48:43Z</time>
      </trkpt>
      <trkpt lat="49.84532" lon="2.57624">
        <ele>95</ele>
        <time>2022-07-10T09:48:44Z</time>
      </trkpt>
      <trkpt lat="49.84532" lon="2.57624">
        <ele>95</ele>
        <time>2022-07-10T09:48:45Z</time>
      </trkpt>
      <trkpt lat="49.84532" lon="2.57624">
        <ele>95</ele>
        <time>2022-07-10T09:48:46Z</time>
      </trkpt>
      <trkpt lat="49.84532" lon="2.57624">
        <ele>95</ele>
        <time>2022-07-10T09:48:47Z</time>
      </trkpt>
      <trkpt lat="49.84532" lon="2.57624">
        <ele>95</ele>
        <time>2022-07-10T09:48:48Z</time>
      </trkpt>
      <trkpt lat="49.84532" lon="2.57624">
        <ele>95</ele>
        <time>2022-07-10T09:48:49Z</time>
      </trkpt>
      <trkpt lat="49.84532" lon="2.57624">
        <ele>95</ele>
        <time>2022-07-10T09:48:50Z</time>
      </trkpt>
      <trkpt lat="49.84532" lon="2.57624">
        <ele>95</ele>
        <time>2022-07-10T09:48:51Z</time>
      </trkpt>
      <trkpt lat="49.84532" lon="2.57624">
        <ele>95</ele>
        <time>2022-07-10T09:48:52Z</time>
      </trkpt>
      <trkpt lat="49.84532" lon="2.57624">
        <ele>95</ele>
        <time>2022-07-10T09:48:53Z</time>
      </trkpt>
      <trkpt lat="49.84532" lon="2.57624">
        <ele>95</ele>
        <time>2022-07-10T09:48:54Z</time>
      </trkpt>
      <trkpt lat="49.84532" lon="2.57624">
        <ele>95</ele>
        <time>2022-07-10T09:48:55Z</time>
      </trkpt>
      <trkpt lat="49.84532" lon="2.57624">
        <ele>95</ele>
        <time>2022-07-10T09:48:56Z</time>
      </trkpt>
      <trkpt lat="49.84532" lon="2.57624">
        <ele>95</ele>
        <time>2022-07-10T09:48:57Z</time>
      </trkpt>
      <trkpt lat="49.84532" lon="2.57624">
        <ele>95</ele>
        <time>2022-07-10T09:48:58Z</time>
      </trkpt>
      <trkpt lat="49.84532" lon="2.57624">
        <ele>95</ele>
        <time>2022-07-10T09:48:59Z</time>
      </trkpt>
      <trkpt lat="49.84532" lon="2.57624">
        <ele>95</ele>
        <time>2022-07-10T09:49:00Z</time>
      </trkpt>
      <trkpt lat="49.84532" lon="2.57624">
        <ele>95</ele>
        <time>2022-07-10T09:49:01Z</time>
      </trkpt>
      <trkpt lat="49.84532" lon="2.57624">
        <ele>95</ele>
        <time>2022-07-10T09:49:02Z</time>
      </trkpt>
      <trkpt lat="49.84532" lon="2.57624">
        <ele>95</ele>
        <time>2022-07-10T09:49:03Z</time>
      </trkpt>
      <trkpt lat="49.84532" lon="2.57624">
        <ele>95</ele>
        <time>2022-07-10T09:49:04Z</time>
      </trkpt>
      <trkpt lat="49.84532" lon="2.57624">
        <ele>95</ele>
        <time>2022-07-10T09:49:05Z</time>
      </trkpt>
      <trkpt lat="49.84532" lon="2.57624">
        <ele>95</ele>
        <time>2022-07-10T09:49:06Z</time>
      </trkpt>
      <trkpt lat="49.84532" lon="2.57624">
        <ele>95</ele>
        <time>2022-07-10T09:49:07Z</time>
      </trkpt>
      <trkpt lat="49.84532" lon="2.57624">
        <ele>95</ele>
        <time>2022-07-10T09:49:08Z</time>
      </trkpt>
      <trkpt lat="49.84532" lon="2.57624">
        <ele>95</ele>
        <time>2022-07-10T09:49:09Z</time>
      </trkpt>
      <trkpt lat="49.84532" lon="2.57624">
        <ele>95</ele>
        <time>2022-07-10T09:49:10Z</time>
      </trkpt>
      <trkpt lat="49.84532" lon="2.57624">
        <ele>95</ele>
        <time>2022-07-10T09:49:11Z</time>
      </trkpt>
      <trkpt lat="49.84532" lon="2.57624">
        <ele>95</ele>
        <time>2022-07-10T09:49:12Z</time>
      </trkpt>
      <trkpt lat="49.84532" lon="2.57624">
        <ele>95</ele>
        <time>2022-07-10T09:49:13Z</time>
      </trkpt>
      <trkpt lat="49.84532" lon="2.57624">
        <ele>95</ele>
        <time>2022-07-10T09:49:14Z</time>
      </trkpt>
      <trkpt lat="49.84532" lon="2.57624">
        <ele>95</ele>
        <time>2022-07-10T09:49:15Z</time>
      </trkpt>
      <trkpt lat="49.84532" lon="2.57624">
        <ele>95</ele>
        <time>2022-07-10T09:49:16Z</time>
      </trkpt>
      <trkpt lat="49.84532" lon="2.57624">
        <ele>95</ele>
        <time>2022-07-10T09:49:17Z</time>
      </trkpt>
      <trkpt lat="49.84532" lon="2.57624">
        <ele>95</ele>
        <time>2022-07-10T09:49:18Z</time>
      </trkpt>
      <trkpt lat="49.84532" lon="2.57624">
        <ele>95</ele>
        <time>2022-07-10T09:49:19Z</time>
      </trkpt>
      <trkpt lat="49.84532" lon="2.57624">
        <ele>95</ele>
        <time>2022-07-10T09:49:20Z</time>
      </trkpt>
      <trkpt lat="49.84532" lon="2.57624">
        <ele>95</ele>
        <time>2022-07-10T09:49:21Z</time>
      </trkpt>
      <trkpt lat="49.84532" lon="2.57624">
        <ele>95</ele>
        <time>2022-07-10T09:49:22Z</time>
      </trkpt>
      <trkpt lat="49.84532" lon="2.57624">
        <ele>95</ele>
        <time>2022-07-10T09:49:23Z</time>
      </trkpt>
      <trkpt lat="49.84532" lon="2.57624">
        <ele>95</ele>
        <time>2022-07-10T09:49:24Z</time>
      </trkpt>
      <trkpt lat="49.8453" lon="2.57624">
        <ele>95</ele>
        <time>2022-07-10T09:49:25Z</time>
      </trkpt>
      <trkpt lat="49.84529" lon="2.57624">
        <ele>95</ele>
        <time>2022-07-10T09:49:26Z</time>
      </trkpt>
      <trkpt lat="49.8453" lon="2.57624">
        <ele>95</ele>
        <time>2022-07-10T09:49:27Z</time>
      </trkpt>
      <trkpt lat="49.8453" lon="2.57624">
        <ele>95</ele>
        <time>2022-07-10T09:49:28Z</time>
      </trkpt>
      <trkpt lat="49.84531" lon="2.57624">
        <ele>95.1</ele>
        <time>2022-07-10T09:49:29Z</time>
      </trkpt>
      <trkpt lat="49.84532" lon="2.57625">
        <ele>95.1</ele>
        <time>2022-07-10T09:49:30Z</time>
      </trkpt>
      <trkpt lat="49.84533" lon="2.57624">
        <ele>95.1</ele>
        <time>2022-07-10T09:49:31Z</time>
      </trkpt>
      <trkpt lat="49.84534" lon="2.57624">
        <ele>95.1</ele>
        <time>2022-07-10T09:49:32Z</time>
      </trkpt>
      <trkpt lat="49.84535" lon="2.57623">
        <ele>95.1</ele>
        <time>2022-07-10T09:49:33Z</time>
      </trkpt>
      <trkpt lat="49.84536" lon="2.57622">
        <ele>95.1</ele>
        <time>2022-07-10T09:49:34Z</time>
      </trkpt>
      <trkpt lat="49.84537" lon="2.57622">
        <ele>95.1</ele>
        <time>2022-07-10T09:49:35Z</time>
      </trkpt>
      <trkpt lat="49.84539" lon="2.57621">
        <ele>95.2</ele>
        <time>2022-07-10T09:49:37Z</time>
      </trkpt>
      <trkpt lat="49.84541" lon="2.57619">
        <ele>95.2</ele>
        <time>2022-07-10T09:49:38Z</time>
      </trkpt>
      <trkpt lat="49.84542" lon="2.57618">
        <ele>95.2</ele>
        <time>2022-07-10T09:49:39Z</time>
      </trkpt>
      <trkpt lat="49.84542" lon="2.57618">
        <ele>95.2</ele>
        <time>2022-07-10T09:49:40Z</time>
      </trkpt>
      <trkpt lat="49.84544" lon="2.57616">
        <ele>95.2</ele>
        <time>2022-07-10T09:49:41Z</time>
      </trkpt>
      <trkpt lat="49.84546" lon="2.57615">
        <ele>95.2</ele>
        <time>2022-07-10T09:49:43Z</time>
      </trkpt>
      <trkpt lat="49.84547" lon="2.57615">
        <ele>95.2</ele>
        <time>2022-07-10T09:49:44Z</time>
      </trkpt>
      <trkpt lat="49.84548" lon="2.57615">
        <ele>95.2</ele>
        <time>2022-07-10T09:49:45Z</time>
      </trkpt>
      <trkpt lat="49.84549" lon="2.57615">
        <ele>95.2</ele>
        <time>2022-07-10T09:49:46Z</time>
      </trkpt>
      <trkpt lat="49.8455" lon="2.57615">
        <ele>95.2</ele>
        <time>2022-07-10T09:49:47Z</time>
      </trkpt>
      <trkpt lat="49.84551" lon="2.57615">
        <ele>95.2</ele>
        <time>2022-07-10T09:49:48Z</time>
      </trkpt>
      <trkpt lat="49.84553" lon="2.57615">
        <ele>95.2</ele>
        <time>2022-07-10T09:49:49Z</time>
      </trkpt>
      <trkpt lat="49.84554" lon="2.57614">
        <ele>95.2</ele>
        <time>2022-07-10T09:49:51Z</time>
      </trkpt>
      <trkpt lat="49.84555" lon="2.57614">
        <ele>95.2</ele>
        <time>2022-07-10T09:49:52Z</time>
      </trkpt>
      <trkpt lat="49.84557" lon="2.57613">
        <ele>95.2</ele>
        <time>2022-07-10T09:49:53Z</time>
      </trkpt>
      <trkpt lat="49.84558" lon="2.57612">
        <ele>95.2</ele>
        <time>2022-07-10T09:49:54Z</time>
      </trkpt>
      <trkpt lat="49.84559" lon="2.57611">
        <ele>95.2</ele>
        <time>2022-07-10T09:49:55Z</time>
      </trkpt>
      <trkpt lat="49.84561" lon="2.5761">
        <ele>95.2</ele>
        <time>2022-07-10T09:49:56Z</time>
      </trkpt>
      <trkpt lat="49.84562" lon="2.57609">
        <ele>95.3</ele>
        <time>2022-07-10T09:49:57Z</time>
      </trkpt>
      <trkpt lat="49.84564" lon="2.57608">
        <ele>95.3</ele>
        <time>2022-07-10T09:49:58Z</time>
      </trkpt>
      <trkpt lat="49.84565" lon="2.57607">
        <ele>95.3</ele>
        <time>2022-07-10T09:49:59Z</time>
      </trkpt>
      <trkpt lat="49.84565" lon="2.57605">
        <ele>95.3</ele>
        <time>2022-07-10T09:50:00Z</time>
      </trkpt>
      <trkpt lat="49.84565" lon="2.57604">
        <ele>95.3</ele>
        <time>2022-07-10T09:50:01Z</time>
      </trkpt>
      <trkpt lat="49.84565" lon="2.57602">
        <ele>95.3</ele>
        <time>2022-07-10T09:50:02Z</time>
      </trkpt>
      <trkpt lat="49.84565" lon="2.576">
        <ele>95.3</ele>
        <time>2022-07-10T09:50:03Z</time>
      </trkpt>
      <trkpt lat="49.84566" lon="2.57599">
        <ele>95.3</ele>
        <time>2022-07-10T09:50:04Z</time>
      </trkpt>
      <trkpt lat="49.84567" lon="2.57598">
        <ele>95.3</ele>
        <time>2022-07-10T09:50:06Z</time>
      </trkpt>
      <trkpt lat="49.84568" lon="2.57598">
        <ele>95.3</ele>
        <time>2022-07-10T09:50:07Z</time>
      </trkpt>
      <trkpt lat="49.84569" lon="2.57597">
        <ele>95.3</ele>
        <time>2022-07-10T09:50:08Z</time>
      </trkpt>
      <trkpt lat="49.84571" lon="2.57597">
        <ele>95.3</ele>
        <time>2022-07-10T09:50:09Z</time>
      </trkpt>
      <trkpt lat="49.84572" lon="2.57596">
        <ele>95.3</ele>
        <time>2022-07-10T09:50:10Z</time>
      </trkpt>
      <trkpt lat="49.84573" lon="2.57596">
        <ele>95.3</ele>
        <time>2022-07-10T09:50:11Z</time>
      </trkpt>
      <trkpt lat="49.84575" lon="2.57596">
        <ele>95.3</ele>
        <time>2022-07-10T09:50:12Z</time>
      </trkpt>
      <trkpt lat="49.84576" lon="2.57595">
        <ele>95.4</ele>
        <time>2022-07-10T09:50:13Z</time>
      </trkpt>
      <trkpt lat="49.84576" lon="2.57595">
        <ele>95.4</ele>
        <time>2022-07-10T09:50:14Z</time>
      </trkpt>
      <trkpt lat="49.84577" lon="2.57595">
        <ele>95.4</ele>
        <time>2022-07-10T09:50:15Z</time>
      </trkpt>
      <trkpt lat="49.84578" lon="2.57595">
        <ele>95.4</ele>
        <time>2022-07-10T09:50:17Z</time>
      </trkpt>
      <trkpt lat="49.8458" lon="2.57594">
        <ele>95.4</ele>
        <time>2022-07-10T09:50:18Z</time>
      </trkpt>
      <trkpt lat="49.84581" lon="2.57594">
        <ele>95.4</ele>
        <time>2022-07-10T09:50:19Z</time>
      </trkpt>
      <trkpt lat="49.84583" lon="2.57594">
        <ele>95.4</ele>
        <time>2022-07-10T09:50:20Z</time>
      </trkpt>
      <trkpt lat="49.84584" lon="2.57593">
        <ele>95.4</ele>
        <time>2022-07-10T09:50:21Z</time>
      </trkpt>
      <trkpt lat="49.84586" lon="2.57592">
        <ele>95.4</ele>
        <time>2022-07-10T09:50:23Z</time>
      </trkpt>
      <trkpt lat="49.84588" lon="2.57591">
        <ele>95.4</ele>
        <time>2022-07-10T09:50:24Z</time>
      </trkpt>
      <trkpt lat="49.84589" lon="2.57591">
        <ele>95.4</ele>
        <time>2022-07-10T09:50:25Z</time>
      </trkpt>
      <trkpt lat="49.8459" lon="2.5759">
        <ele>95.4</ele>
        <time>2022-07-10T09:50:26Z</time>
      </trkpt>
      <trkpt lat="49.84592" lon="2.57589">
        <ele>95.5</ele>
        <time>2022-07-10T09:50:27Z</time>
      </trkpt>
      <trkpt lat="49.84593" lon="2.57588">
        <ele>95.5</ele>
        <time>2022-07-10T09:50:28Z</time>
      </trkpt>
      <trkpt lat="49.84594" lon="2.57587">
        <ele>95.5</ele>
        <time>2022-07-10T09:50:29Z</time>
      </trkpt>
      <trkpt lat="49.84597" lon="2.57586">
        <ele>95.5</ele>
        <time>2022-07-10T09:50:30Z</time>
      </trkpt>
      <trkpt lat="49.84598" lon="2.57585">
        <ele>95.5</ele>
        <time>2022-07-10T09:50:31Z</time>
      </trkpt>
      <trkpt lat="49.846" lon="2.57584">
        <ele>95.5</ele>
        <time>2022-07-10T09:50:32Z</time>
      </trkpt>
      <trkpt lat="49.84601" lon="2.57583">
        <ele>95.5</ele>
        <time>2022-07-10T09:50:33Z</time>
      </trkpt>
      <trkpt lat="49.84603" lon="2.57582">
        <ele>95.5</ele>
        <time>2022-07-10T09:50:35Z</time>
      </trkpt>
      <trkpt lat="49.84604" lon="2.57581">
        <ele>95.5</ele>
        <time>2022-07-10T09:50:36Z</time>
      </trkpt>
      <trkpt lat="49.84605" lon="2.5758">
        <ele>95.6</ele>
        <time>2022-07-10T09:50:37Z</time>
      </trkpt>
      <trkpt lat="49.84607" lon="2.57579">
        <ele>95.6</ele>
        <time>2022-07-10T09:50:38Z</time>
      </trkpt>
      <trkpt lat="49.84608" lon="2.57578">
        <ele>95.6</ele>
        <time>2022-07-10T09:50:39Z</time>
      </trkpt>
      <trkpt lat="49.84609" lon="2.57577">
        <ele>95.6</ele>
        <time>2022-07-10T09:50:40Z</time>
      </trkpt>
      <trkpt lat="49.8461" lon="2.57575">
        <ele>95.6</ele>
        <time>2022-07-10T09:50:41Z</time>
      </trkpt>
      <trkpt lat="49.84612" lon="2.57574">
        <ele>95.6</ele>
        <time>2022-07-10T09:50:42Z</time>
      </trkpt>
      <trkpt lat="49.84614" lon="2.57573">
        <ele>95.6</ele>
        <time>2022-07-10T09:50:43Z</time>
      </trkpt>
      <trkpt lat="49.84615" lon="2.57572">
        <ele>95.6</ele>
        <time>2022-07-10T09:50:44Z</time>
      </trkpt>
      <trkpt lat="49.84615" lon="2.57572">
        <ele>95.6</ele>
        <time>2022-07-10T09:50:45Z</time>
      </trkpt>
      <trkpt lat="49.84617" lon="2.57571">
        <ele>95.7</ele>
        <time>2022-07-10T09:50:46Z</time>
      </trkpt>
      <trkpt lat="49.84618" lon="2.5757">
        <ele>95.7</ele>
        <time>2022-07-10T09:50:47Z</time>
      </trkpt>
      <trkpt lat="49.84619" lon="2.57569">
        <ele>95.7</ele>
        <time>2022-07-10T09:50:49Z</time>
      </trkpt>
      <trkpt lat="49.84621" lon="2.57568">
        <ele>95.7</ele>
        <time>2022-07-10T09:50:50Z</time>
      </trkpt>
      <trkpt lat="49.84622" lon="2.57567">
        <ele>95.7</ele>
        <time>2022-07-10T09:50:51Z</time>
      </trkpt>
      <trkpt lat="49.84624" lon="2.57566">
        <ele>95.7</ele>
        <time>2022-07-10T09:50:53Z</time>
      </trkpt>
      <trkpt lat="49.84626" lon="2.57565">
        <ele>95.7</ele>
        <time>2022-07-10T09:50:54Z</time>
      </trkpt>
      <trkpt lat="49.84627" lon="2.57564">
        <ele>95.7</ele>
        <time>2022-07-10T09:50:55Z</time>
      </trkpt>
      <trkpt lat="49.84628" lon="2.57564">
        <ele>95.7</ele>
        <time>2022-07-10T09:50:56Z</time>
      </trkpt>
      <trkpt lat="49.8463" lon="2.57562">
        <ele>95.8</ele>
        <time>2022-07-10T09:50:58Z</time>
      </trkpt>
      <trkpt lat="49.84631" lon="2.57562">
        <ele>95.8</ele>
        <time>2022-07-10T09:50:59Z</time>
      </trkpt>
      <trkpt lat="49.84634" lon="2.5756">
        <ele>95.8</ele>
        <time>2022-07-10T09:51:00Z</time>
      </trkpt>
      <trkpt lat="49.84635" lon="2.57559">
        <ele>95.8</ele>
        <time>2022-07-10T09:51:01Z</time>
      </trkpt>
      <trkpt lat="49.84637" lon="2.57558">
        <ele>95.8</ele>
        <time>2022-07-10T09:51:02Z</time>
      </trkpt>
      <trkpt lat="49.84638" lon="2.57558">
        <ele>95.8</ele>
        <time>2022-07-10T09:51:03Z</time>
      </trkpt>
      <trkpt lat="49.84639" lon="2.57558">
        <ele>95.8</ele>
        <time>2022-07-10T09:51:04Z</time>
      </trkpt>
      <trkpt lat="49.8464" lon="2.57558">
        <ele>95.8</ele>
        <time>2022-07-10T09:51:06Z</time>
      </trkpt>
      <trkpt lat="49.84641" lon="2.57558">
        <ele>95.8</ele>
        <time>2022-07-10T09:51:07Z</time>
      </trkpt>
      <trkpt lat="49.84644" lon="2.57558">
        <ele>95.8</ele>
        <time>2022-07-10T09:51:08Z</time>
      </trkpt>
      <trkpt lat="49.84645" lon="2.57559">
        <ele>95.8</ele>
        <time>2022-07-10T09:51:10Z</time>
      </trkpt>
      <trkpt lat="49.84646" lon="2.5756">
        <ele>95.8</ele>
        <time>2022-07-10T09:51:11Z</time>
      </trkpt>
      <trkpt lat="49.84646" lon="2.5756">
        <ele>95.8</ele>
        <time>2022-07-10T09:51:12Z</time>
      </trkpt>
      <trkpt lat="49.84647" lon="2.57561">
        <ele>95.8</ele>
        <time>2022-07-10T09:51:13Z</time>
      </trkpt>
      <trkpt lat="49.84647" lon="2.57561">
        <ele>95.8</ele>
        <time>2022-07-10T09:51:14Z</time>
      </trkpt>
      <trkpt lat="49.84648" lon="2.57562">
        <ele>95.8</ele>
        <time>2022-07-10T09:51:15Z</time>
      </trkpt>
      <trkpt lat="49.84649" lon="2.57563">
        <ele>95.8</ele>
        <time>2022-07-10T09:51:16Z</time>
      </trkpt>
      <trkpt lat="49.8465" lon="2.57564">
        <ele>95.7</ele>
        <time>2022-07-10T09:51:17Z</time>
      </trkpt>
      <trkpt lat="49.84652" lon="2.57566">
        <ele>95.7</ele>
        <time>2022-07-10T09:51:18Z</time>
      </trkpt>
      <trkpt lat="49.84652" lon="2.57567">
        <ele>95.7</ele>
        <time>2022-07-10T09:51:19Z</time>
      </trkpt>
      <trkpt lat="49.84653" lon="2.57568">
        <ele>95.7</ele>
        <time>2022-07-10T09:51:20Z</time>
      </trkpt>
      <trkpt lat="49.84654" lon="2.5757">
        <ele>95.7</ele>
        <time>2022-07-10T09:51:21Z</time>
      </trkpt>
      <trkpt lat="49.84654" lon="2.57571">
        <ele>95.7</ele>
        <time>2022-07-10T09:51:23Z</time>
      </trkpt>
      <trkpt lat="49.84655" lon="2.57572">
        <ele>95.7</ele>
        <time>2022-07-10T09:51:24Z</time>
      </trkpt>
      <trkpt lat="49.84655" lon="2.57573">
        <ele>95.7</ele>
        <time>2022-07-10T09:51:25Z</time>
      </trkpt>
      <trkpt lat="49.84656" lon="2.57576">
        <ele>95.6</ele>
        <time>2022-07-10T09:51:26Z</time>
      </trkpt>
      <trkpt lat="49.84657" lon="2.57578">
        <ele>95.6</ele>
        <time>2022-07-10T09:51:28Z</time>
      </trkpt>
      <trkpt lat="49.84659" lon="2.5758">
        <ele>95.6</ele>
        <time>2022-07-10T09:51:29Z</time>
      </trkpt>
      <trkpt lat="49.84659" lon="2.57582">
        <ele>95.6</ele>
        <time>2022-07-10T09:51:30Z</time>
      </trkpt>
      <trkpt lat="49.8466" lon="2.57585">
        <ele>95.6</ele>
        <time>2022-07-10T09:51:31Z</time>
      </trkpt>
      <trkpt lat="49.8466" lon="2.57586">
        <ele>95.5</ele>
        <time>2022-07-10T09:51:32Z</time>
      </trkpt>
      <trkpt lat="49.84661" lon="2.57588">
        <ele>95.5</ele>
        <time>2022-07-10T09:51:33Z</time>
      </trkpt>
      <trkpt lat="49.84662" lon="2.57592">
        <ele>95.5</ele>
        <time>2022-07-10T09:51:34Z</time>
      </trkpt>
      <trkpt lat="49.84662" lon="2.57593">
        <ele>95.5</ele>
        <time>2022-07-10T09:51:35Z</time>
      </trkpt>
      <trkpt lat="49.84663" lon="2.57595">
        <ele>95.5</ele>
        <time>2022-07-10T09:51:36Z</time>
      </trkpt>
      <trkpt lat="49.84664" lon="2.57597">
        <ele>95.5</ele>
        <time>2022-07-10T09:51:37Z</time>
      </trkpt>
      <trkpt lat="49.84665" lon="2.57599">
        <ele>95.5</ele>
        <time>2022-07-10T09:51:38Z</time>
      </trkpt>
      <trkpt lat="49.84666" lon="2.57601">
        <ele>95.5</ele>
        <time>2022-07-10T09:51:39Z</time>
      </trkpt>
      <trkpt lat="49.84667" lon="2.57604">
        <ele>95.4</ele>
        <time>2022-07-10T09:51:40Z</time>
      </trkpt>
      <trkpt lat="49.84667" lon="2.57605">
        <ele>95.4</ele>
        <time>2022-07-10T09:51:41Z</time>
      </trkpt>
      <trkpt lat="49.84667" lon="2.57606">
        <ele>95.4</ele>
        <time>2022-07-10T09:51:42Z</time>
      </trkpt>
      <trkpt lat="49.84667" lon="2.5761">
        <ele>95.4</ele>
        <time>2022-07-10T09:51:43Z</time>
      </trkpt>
      <trkpt lat="49.84667" lon="2.57611">
        <ele>95.4</ele>
        <time>2022-07-10T09:51:44Z</time>
      </trkpt>
      <trkpt lat="49.84668" lon="2.57615">
        <ele>95.4</ele>
        <time>2022-07-10T09:51:46Z</time>
      </trkpt>
      <trkpt lat="49.84668" lon="2.57617">
        <ele>95.4</ele>
        <time>2022-07-10T09:51:48Z</time>
      </trkpt>
      <trkpt lat="49.84669" lon="2.57619">
        <ele>95.3</ele>
        <time>2022-07-10T09:51:49Z</time>
      </trkpt>
      <trkpt lat="49.84669" lon="2.57621">
        <ele>95.3</ele>
        <time>2022-07-10T09:51:50Z</time>
      </trkpt>
      <trkpt lat="49.8467" lon="2.57622">
        <ele>95.3</ele>
        <time>2022-07-10T09:51:51Z</time>
      </trkpt>
      <trkpt lat="49.8467" lon="2.57626">
        <ele>95.3</ele>
        <time>2022-07-10T09:51:52Z</time>
      </trkpt>
      <trkpt lat="49.84671" lon="2.57627">
        <ele>95.3</ele>
        <time>2022-07-10T09:51:53Z</time>
      </trkpt>
      <trkpt lat="49.84671" lon="2.57629">
        <ele>95.3</ele>
        <time>2022-07-10T09:51:54Z</time>
      </trkpt>
      <trkpt lat="49.84672" lon="2.57631">
        <ele>95.3</ele>
        <time>2022-07-10T09:51:55Z</time>
      </trkpt>
      <trkpt lat="49.84672" lon="2.57632">
        <ele>95.3</ele>
        <time>2022-07-10T09:51:56Z</time>
      </trkpt>
      <trkpt lat="49.84673" lon="2.57634">
        <ele>95.3</ele>
        <time>2022-07-10T09:51:58Z</time>
      </trkpt>
      <trkpt lat="49.84674" lon="2.57638">
        <ele>95.3</ele>
        <time>2022-07-10T09:52:00Z</time>
      </trkpt>
      <trkpt lat="49.84674" lon="2.57639">
        <ele>95.3</ele>
        <time>2022-07-10T09:52:01Z</time>
      </trkpt>
      <trkpt lat="49.84674" lon="2.57643">
        <ele>95.3</ele>
        <time>2022-07-10T09:52:02Z</time>
      </trkpt>
      <trkpt lat="49.84674" lon="2.57644">
        <ele>95.2</ele>
        <time>2022-07-10T09:52:03Z</time>
      </trkpt>
      <trkpt lat="49.84675" lon="2.57645">
        <ele>95.2</ele>
        <time>2022-07-10T09:52:04Z</time>
      </trkpt>
      <trkpt lat="49.84676" lon="2.57647">
        <ele>95.2</ele>
        <time>2022-07-10T09:52:06Z</time>
      </trkpt>
      <trkpt lat="49.84676" lon="2.57649">
        <ele>95.2</ele>
        <time>2022-07-10T09:52:07Z</time>
      </trkpt>
      <trkpt lat="49.84676" lon="2.5765">
        <ele>95.2</ele>
        <time>2022-07-10T09:52:08Z</time>
      </trkpt>
      <trkpt lat="49.84677" lon="2.57653">
        <ele>95.2</ele>
        <time>2022-07-10T09:52:09Z</time>
      </trkpt>
      <trkpt lat="49.84677" lon="2.57654">
        <ele>95.2</ele>
        <time>2022-07-10T09:52:10Z</time>
      </trkpt>
      <trkpt lat="49.84678" lon="2.57656">
        <ele>95.2</ele>
        <time>2022-07-10T09:52:11Z</time>
      </trkpt>
      <trkpt lat="49.84678" lon="2.57657">
        <ele>95.2</ele>
        <time>2022-07-10T09:52:12Z</time>
      </trkpt>
      <trkpt lat="49.8468" lon="2.5766">
        <ele>95.2</ele>
        <time>2022-07-10T09:52:13Z</time>
      </trkpt>
      <trkpt lat="49.84681" lon="2.57661">
        <ele>95.2</ele>
        <time>2022-07-10T09:52:14Z</time>
      </trkpt>
      <trkpt lat="49.84681" lon="2.57662">
        <ele>95.2</ele>
        <time>2022-07-10T09:52:16Z</time>
      </trkpt>
      <trkpt lat="49.84682" lon="2.57663">
        <ele>95.2</ele>
        <time>2022-07-10T09:52:17Z</time>
      </trkpt>
      <trkpt lat="49.84682" lon="2.57664">
        <ele>95.2</ele>
        <time>2022-07-10T09:52:18Z</time>
      </trkpt>
      <trkpt lat="49.84684" lon="2.57667">
        <ele>95.1</ele>
        <time>2022-07-10T09:52:19Z</time>
      </trkpt>
      <trkpt lat="49.84685" lon="2.57669">
        <ele>95.1</ele>
        <time>2022-07-10T09:52:21Z</time>
      </trkpt>
      <trkpt lat="49.84685" lon="2.5767">
        <ele>95.1</ele>
        <time>2022-07-10T09:52:22Z</time>
      </trkpt>
      <trkpt lat="49.84686" lon="2.57672">
        <ele>95.1</ele>
        <time>2022-07-10T09:52:23Z</time>
      </trkpt>
      <trkpt lat="49.84687" lon="2.57673">
        <ele>95.1</ele>
        <time>2022-07-10T09:52:24Z</time>
      </trkpt>
      <trkpt lat="49.84687" lon="2.57674">
        <ele>95.1</ele>
        <time>2022-07-10T09:52:25Z</time>
      </trkpt>
      <trkpt lat="49.84688" lon="2.57675">
        <ele>95.1</ele>
        <time>2022-07-10T09:52:26Z</time>
      </trkpt>
      <trkpt lat="49.84689" lon="2.57676">
        <ele>95.1</ele>
        <time>2022-07-10T09:52:27Z</time>
      </trkpt>
      <trkpt lat="49.8469" lon="2.57677">
        <ele>95.1</ele>
        <time>2022-07-10T09:52:28Z</time>
      </trkpt>
      <trkpt lat="49.8469" lon="2.57678">
        <ele>95.1</ele>
        <time>2022-07-10T09:52:29Z</time>
      </trkpt>
      <trkpt lat="49.84691" lon="2.57679">
        <ele>95.1</ele>
        <time>2022-07-10T09:52:30Z</time>
      </trkpt>
      <trkpt lat="49.84692" lon="2.5768">
        <ele>95.1</ele>
        <time>2022-07-10T09:52:31Z</time>
      </trkpt>
      <trkpt lat="49.84693" lon="2.57682">
        <ele>95.1</ele>
        <time>2022-07-10T09:52:32Z</time>
      </trkpt>
      <trkpt lat="49.84694" lon="2.57683">
        <ele>95.1</ele>
        <time>2022-07-10T09:52:33Z</time>
      </trkpt>
      <trkpt lat="49.84694" lon="2.57684">
        <ele>95.1</ele>
        <time>2022-07-10T09:52:34Z</time>
      </trkpt>
      <trkpt lat="49.84695" lon="2.57685">
        <ele>95.1</ele>
        <time>2022-07-10T09:52:35Z</time>
      </trkpt>
      <trkpt lat="49.84695" lon="2.57687">
        <ele>95.1</ele>
        <time>2022-07-10T09:52:37Z</time>
      </trkpt>
      <trkpt lat="49.84697" lon="2.57689">
        <ele>95.1</ele>
        <time>2022-07-10T09:52:38Z</time>
      </trkpt>
      <trkpt lat="49.84698" lon="2.5769">
        <ele>95.1</ele>
        <time>2022-07-10T09:52:39Z</time>
      </trkpt>
      <trkpt lat="49.847" lon="2.57694">
        <ele>95.1</ele>
        <time>2022-07-10T09:52:41Z</time>
      </trkpt>
      <trkpt lat="49.84701" lon="2.57695">
        <ele>95</ele>
        <time>2022-07-10T09:52:43Z</time>
      </trkpt>
      <trkpt lat="49.84702" lon="2.57697">
        <ele>95</ele>
        <time>2022-07-10T09:52:44Z</time>
      </trkpt>
      <trkpt lat="49.84704" lon="2.57699">
        <ele>95</ele>
        <time>2022-07-10T09:52:45Z</time>
      </trkpt>
      <trkpt lat="49.84705" lon="2.577">
        <ele>95</ele>
        <time>2022-07-10T09:52:46Z</time>
      </trkpt>
      <trkpt lat="49.84705" lon="2.57701">
        <ele>95</ele>
        <time>2022-07-10T09:52:47Z</time>
      </trkpt>
      <trkpt lat="49.84706" lon="2.57702">
        <ele>95</ele>
        <time>2022-07-10T09:52:48Z</time>
      </trkpt>
      <trkpt lat="49.84708" lon="2.57704">
        <ele>95</ele>
        <time>2022-07-10T09:52:49Z</time>
      </trkpt>
      <trkpt lat="49.84709" lon="2.57705">
        <ele>95</ele>
        <time>2022-07-10T09:52:50Z</time>
      </trkpt>
      <trkpt lat="49.8471" lon="2.57706">
        <ele>95</ele>
        <time>2022-07-10T09:52:51Z</time>
      </trkpt>
      <trkpt lat="49.84711" lon="2.57707">
        <ele>95</ele>
        <time>2022-07-10T09:52:52Z</time>
      </trkpt>
      <trkpt lat="49.84712" lon="2.57708">
        <ele>95</ele>
        <time>2022-07-10T09:52:54Z</time>
      </trkpt>
      <trkpt lat="49.84713" lon="2.5771">
        <ele>95</ele>
        <time>2022-07-10T09:52:55Z</time>
      </trkpt>
      <trkpt lat="49.84715" lon="2.57715">
        <ele>95</ele>
        <time>2022-07-10T09:52:57Z</time>
      </trkpt>
      <trkpt lat="49.84715" lon="2.57715">
        <ele>95</ele>
        <time>2022-07-10T09:52:58Z</time>
      </trkpt>
      <trkpt lat="49.84715" lon="2.57717">
        <ele>95</ele>
        <time>2022-07-10T09:52:59Z</time>
      </trkpt>
      <trkpt lat="49.84716" lon="2.57719">
        <ele>95</ele>
        <time>2022-07-10T09:53:00Z</time>
      </trkpt>
      <trkpt lat="49.84717" lon="2.5772">
        <ele>95</ele>
        <time>2022-07-10T09:53:01Z</time>
      </trkpt>
      <trkpt lat="49.84718" lon="2.57722">
        <ele>94.9</ele>
        <time>2022-07-10T09:53:02Z</time>
      </trkpt>
      <trkpt lat="49.84719" lon="2.57725">
        <ele>94.9</ele>
        <time>2022-07-10T09:53:03Z</time>
      </trkpt>
      <trkpt lat="49.84719" lon="2.57726">
        <ele>94.9</ele>
        <time>2022-07-10T09:53:04Z</time>
      </trkpt>
      <trkpt lat="49.8472" lon="2.57727">
        <ele>94.9</ele>
        <time>2022-07-10T09:53:05Z</time>
      </trkpt>
      <trkpt lat="49.84721" lon="2.57729">
        <ele>94.9</ele>
        <time>2022-07-10T09:53:06Z</time>
      </trkpt>
      <trkpt lat="49.84721" lon="2.57731">
        <ele>94.9</ele>
        <time>2022-07-10T09:53:07Z</time>
      </trkpt>
      <trkpt lat="49.84722" lon="2.57732">
        <ele>94.9</ele>
        <time>2022-07-10T09:53:08Z</time>
      </trkpt>
      <trkpt lat="49.84723" lon="2.57734">
        <ele>94.9</ele>
        <time>2022-07-10T09:53:09Z</time>
      </trkpt>
      <trkpt lat="49.84724" lon="2.57736">
        <ele>94.9</ele>
        <time>2022-07-10T09:53:10Z</time>
      </trkpt>
      <trkpt lat="49.84725" lon="2.57739">
        <ele>94.9</ele>
        <time>2022-07-10T09:53:11Z</time>
      </trkpt>
      <trkpt lat="49.84726" lon="2.57741">
        <ele>94.9</ele>
        <time>2022-07-10T09:53:12Z</time>
      </trkpt>
      <trkpt lat="49.84726" lon="2.57743">
        <ele>94.9</ele>
        <time>2022-07-10T09:53:13Z</time>
      </trkpt>
      <trkpt lat="49.84727" lon="2.57746">
        <ele>94.9</ele>
        <time>2022-07-10T09:53:14Z</time>
      </trkpt>
      <trkpt lat="49.84728" lon="2.57747">
        <ele>94.9</ele>
        <time>2022-07-10T09:53:16Z</time>
      </trkpt>
      <trkpt lat="49.84728" lon="2.57749">
        <ele>94.9</ele>
        <time>2022-07-10T09:53:17Z</time>
      </trkpt>
      <trkpt lat="49.84729" lon="2.57751">
        <ele>94.9</ele>
        <time>2022-07-10T09:53:18Z</time>
      </trkpt>
      <trkpt lat="49.8473" lon="2.57753">
        <ele>94.9</ele>
        <time>2022-07-10T09:53:19Z</time>
      </trkpt>
      <trkpt lat="49.8473" lon="2.57754">
        <ele>94.9</ele>
        <time>2022-07-10T09:53:20Z</time>
      </trkpt>
      <trkpt lat="49.84731" lon="2.57756">
        <ele>94.9</ele>
        <time>2022-07-10T09:53:21Z</time>
      </trkpt>
      <trkpt lat="49.84732" lon="2.57758">
        <ele>94.9</ele>
        <time>2022-07-10T09:53:23Z</time>
      </trkpt>
      <trkpt lat="49.84732" lon="2.5776">
        <ele>94.9</ele>
        <time>2022-07-10T09:53:24Z</time>
      </trkpt>
      <trkpt lat="49.84733" lon="2.57762">
        <ele>94.9</ele>
        <time>2022-07-10T09:53:25Z</time>
      </trkpt>
      <trkpt lat="49.84733" lon="2.57764">
        <ele>95</ele>
        <time>2022-07-10T09:53:26Z</time>
      </trkpt>
      <trkpt lat="49.84734" lon="2.57766">
        <ele>95</ele>
        <time>2022-07-10T09:53:27Z</time>
      </trkpt>
      <trkpt lat="49.84735" lon="2.57769">
        <ele>95</ele>
        <time>2022-07-10T09:53:28Z</time>
      </trkpt>
      <trkpt lat="49.84735" lon="2.57771">
        <ele>95</ele>
        <time>2022-07-10T09:53:29Z</time>
      </trkpt>
      <trkpt lat="49.84736" lon="2.57774">
        <ele>95</ele>
        <time>2022-07-10T09:53:30Z</time>
      </trkpt>
      <trkpt lat="49.84736" lon="2.57776">
        <ele>95</ele>
        <time>2022-07-10T09:53:31Z</time>
      </trkpt>
      <trkpt lat="49.84737" lon="2.57778">
        <ele>95</ele>
        <time>2022-07-10T09:53:32Z</time>
      </trkpt>
      <trkpt lat="49.84737" lon="2.57779">
        <ele>95</ele>
        <time>2022-07-10T09:53:33Z</time>
      </trkpt>
      <trkpt lat="49.84738" lon="2.5778">
        <ele>95</ele>
        <time>2022-07-10T09:53:34Z</time>
      </trkpt>
      <trkpt lat="49.84738" lon="2.57782">
        <ele>95</ele>
        <time>2022-07-10T09:53:35Z</time>
      </trkpt>
      <trkpt lat="49.84739" lon="2.57784">
        <ele>95</ele>
        <time>2022-07-10T09:53:36Z</time>
      </trkpt>
      <trkpt lat="49.84739" lon="2.57786">
        <ele>95</ele>
        <time>2022-07-10T09:53:37Z</time>
      </trkpt>
      <trkpt lat="49.8474" lon="2.57786">
        <ele>95</ele>
        <time>2022-07-10T09:53:38Z</time>
      </trkpt>
      <trkpt lat="49.8474" lon="2.57786">
        <ele>95</ele>
        <time>2022-07-10T09:53:40Z</time>
      </trkpt>
      <trkpt lat="49.84741" lon="2.57787">
        <ele>95</ele>
        <time>2022-07-10T09:53:41Z</time>
      </trkpt>
      <trkpt lat="49.84741" lon="2.57789">
        <ele>95</ele>
        <time>2022-07-10T09:53:42Z</time>
      </trkpt>
      <trkpt lat="49.84742" lon="2.5779">
        <ele>95</ele>
        <time>2022-07-10T09:53:43Z</time>
      </trkpt>
      <trkpt lat="49.84743" lon="2.57792">
        <ele>95</ele>
        <time>2022-07-10T09:53:44Z</time>
      </trkpt>
      <trkpt lat="49.84743" lon="2.57794">
        <ele>95</ele>
        <time>2022-07-10T09:53:45Z</time>
      </trkpt>
      <trkpt lat="49.84744" lon="2.57796">
        <ele>95</ele>
        <time>2022-07-10T09:53:46Z</time>
      </trkpt>
      <trkpt lat="49.84744" lon="2.57798">
        <ele>95</ele>
        <time>2022-07-10T09:53:47Z</time>
      </trkpt>
      <trkpt lat="49.84744" lon="2.57801">
        <ele>95</ele>
        <time>2022-07-10T09:53:48Z</time>
      </trkpt>
      <trkpt lat="49.84744" lon="2.57803">
        <ele>95.1</ele>
        <time>2022-07-10T09:53:49Z</time>
      </trkpt>
      <trkpt lat="49.84745" lon="2.57808">
        <ele>95.1</ele>
        <time>2022-07-10T09:53:51Z</time>
      </trkpt>
      <trkpt lat="49.84746" lon="2.5781">
        <ele>95.1</ele>
        <time>2022-07-10T09:53:52Z</time>
      </trkpt>
      <trkpt lat="49.84746" lon="2.5781">
        <ele>95.1</ele>
        <time>2022-07-10T09:53:53Z</time>
      </trkpt>
      <trkpt lat="49.84747" lon="2.57812">
        <ele>95.1</ele>
        <time>2022-07-10T09:53:55Z</time>
      </trkpt>
      <trkpt lat="49.84748" lon="2.57813">
        <ele>95.1</ele>
        <time>2022-07-10T09:53:56Z</time>
      </trkpt>
      <trkpt lat="49.8475" lon="2.57817">
        <ele>95.1</ele>
        <time>2022-07-10T09:53:58Z</time>
      </trkpt>
      <trkpt lat="49.8475" lon="2.57817">
        <ele>95.1</ele>
        <time>2022-07-10T09:53:59Z</time>
      </trkpt>
      <trkpt lat="49.84751" lon="2.57818">
        <ele>95.1</ele>
        <time>2022-07-10T09:54:00Z</time>
      </trkpt>
      <trkpt lat="49.84752" lon="2.5782">
        <ele>95.1</ele>
        <time>2022-07-10T09:54:01Z</time>
      </trkpt>
      <trkpt lat="49.84753" lon="2.57821">
        <ele>95.1</ele>
        <time>2022-07-10T09:54:02Z</time>
      </trkpt>
      <trkpt lat="49.84754" lon="2.57822">
        <ele>95.1</ele>
        <time>2022-07-10T09:54:03Z</time>
      </trkpt>
      <trkpt lat="49.84755" lon="2.57823">
        <ele>95.1</ele>
        <time>2022-07-10T09:54:04Z</time>
      </trkpt>
      <trkpt lat="49.84756" lon="2.57824">
        <ele>95.1</ele>
        <time>2022-07-10T09:54:05Z</time>
      </trkpt>
      <trkpt lat="49.84757" lon="2.57825">
        <ele>95.1</ele>
        <time>2022-07-10T09:54:06Z</time>
      </trkpt>
      <trkpt lat="49.84757" lon="2.57826">
        <ele>95.1</ele>
        <time>2022-07-10T09:54:07Z</time>
      </trkpt>
      <trkpt lat="49.84757" lon="2.57826">
        <ele>95.1</ele>
        <time>2022-07-10T09:54:08Z</time>
      </trkpt>
      <trkpt lat="49.84757" lon="2.57826">
        <ele>95.1</ele>
        <time>2022-07-10T09:54:10Z</time>
      </trkpt>
      <trkpt lat="49.84758" lon="2.57826">
        <ele>95.1</ele>
        <time>2022-07-10T09:54:11Z</time>
      </trkpt>
      <trkpt lat="49.84759" lon="2.57828">
        <ele>95.1</ele>
        <time>2022-07-10T09:54:12Z</time>
      </trkpt>
      <trkpt lat="49.84759" lon="2.57829">
        <ele>95.1</ele>
        <time>2022-07-10T09:54:13Z</time>
      </trkpt>
      <trkpt lat="49.84763" lon="2.57831">
        <ele>95.1</ele>
        <time>2022-07-10T09:54:14Z</time>
      </trkpt>
      <trkpt lat="49.84763" lon="2.57832">
        <ele>95.1</ele>
        <time>2022-07-10T09:54:15Z</time>
      </trkpt>
      <trkpt lat="49.84765" lon="2.57833">
        <ele>95.1</ele>
        <time>2022-07-10T09:54:16Z</time>
      </trkpt>
      <trkpt lat="49.84766" lon="2.57834">
        <ele>95.1</ele>
        <time>2022-07-10T09:54:17Z</time>
      </trkpt>
      <trkpt lat="49.84768" lon="2.57835">
        <ele>95.1</ele>
        <time>2022-07-10T09:54:19Z</time>
      </trkpt>
      <trkpt lat="49.84769" lon="2.57836">
        <ele>95.1</ele>
        <time>2022-07-10T09:54:20Z</time>
      </trkpt>
      <trkpt lat="49.84771" lon="2.57837">
        <ele>95.1</ele>
        <time>2022-07-10T09:54:21Z</time>
      </trkpt>
      <trkpt lat="49.84772" lon="2.57838">
        <ele>95.1</ele>
        <time>2022-07-10T09:54:22Z</time>
      </trkpt>
      <trkpt lat="49.84774" lon="2.5784">
        <ele>95.1</ele>
        <time>2022-07-10T09:54:23Z</time>
      </trkpt>
      <trkpt lat="49.84775" lon="2.57841">
        <ele>95.1</ele>
        <time>2022-07-10T09:54:24Z</time>
      </trkpt>
      <trkpt lat="49.84778" lon="2.57843">
        <ele>95.1</ele>
        <time>2022-07-10T09:54:25Z</time>
      </trkpt>
      <trkpt lat="49.84779" lon="2.57844">
        <ele>95.1</ele>
        <time>2022-07-10T09:54:26Z</time>
      </trkpt>
      <trkpt lat="49.8478" lon="2.57845">
        <ele>95.1</ele>
        <time>2022-07-10T09:54:27Z</time>
      </trkpt>
      <trkpt lat="49.84781" lon="2.57846">
        <ele>95.1</ele>
        <time>2022-07-10T09:54:28Z</time>
      </trkpt>
      <trkpt lat="49.84782" lon="2.57847">
        <ele>95.1</ele>
        <time>2022-07-10T09:54:29Z</time>
      </trkpt>
      <trkpt lat="49.84783" lon="2.57848">
        <ele>95.1</ele>
        <time>2022-07-10T09:54:31Z</time>
      </trkpt>
      <trkpt lat="49.84785" lon="2.5785">
        <ele>95.1</ele>
        <time>2022-07-10T09:54:32Z</time>
      </trkpt>
      <trkpt lat="49.84786" lon="2.57851">
        <ele>95.1</ele>
        <time>2022-07-10T09:54:33Z</time>
      </trkpt>
      <trkpt lat="49.84787" lon="2.57852">
        <ele>95.1</ele>
        <time>2022-07-10T09:54:35Z</time>
      </trkpt>
      <trkpt lat="49.84789" lon="2.57854">
        <ele>95.1</ele>
        <time>2022-07-10T09:54:36Z</time>
      </trkpt>
      <trkpt lat="49.8479" lon="2.57855">
        <ele>95.1</ele>
        <time>2022-07-10T09:54:37Z</time>
      </trkpt>
      <trkpt lat="49.84792" lon="2.57857">
        <ele>95.1</ele>
        <time>2022-07-10T09:54:39Z</time>
      </trkpt>
      <trkpt lat="49.84793" lon="2.57858">
        <ele>95.1</ele>
        <time>2022-07-10T09:54:40Z</time>
      </trkpt>
      <trkpt lat="49.84794" lon="2.57859">
        <ele>95.1</ele>
        <time>2022-07-10T09:54:41Z</time>
      </trkpt>
      <trkpt lat="49.84795" lon="2.5786">
        <ele>95.1</ele>
        <time>2022-07-10T09:54:42Z</time>
      </trkpt>
      <trkpt lat="49.84796" lon="2.57861">
        <ele>95.1</ele>
        <time>2022-07-10T09:54:43Z</time>
      </trkpt>
      <trkpt lat="49.84797" lon="2.57862">
        <ele>95.1</ele>
        <time>2022-07-10T09:54:44Z</time>
      </trkpt>
      <trkpt lat="49.84798" lon="2.57865">
        <ele>95.1</ele>
        <time>2022-07-10T09:54:45Z</time>
      </trkpt>
      <trkpt lat="49.84799" lon="2.57867">
        <ele>95.1</ele>
        <time>2022-07-10T09:54:46Z</time>
      </trkpt>
      <trkpt lat="49.848" lon="2.5787">
        <ele>95.1</ele>
        <time>2022-07-10T09:54:47Z</time>
      </trkpt>
      <trkpt lat="49.84801" lon="2.57871">
        <ele>95.1</ele>
        <time>2022-07-10T09:54:48Z</time>
      </trkpt>
      <trkpt lat="49.84802" lon="2.57874">
        <ele>95.1</ele>
        <time>2022-07-10T09:54:49Z</time>
      </trkpt>
      <trkpt lat="49.84803" lon="2.57875">
        <ele>95.1</ele>
        <time>2022-07-10T09:54:51Z</time>
      </trkpt>
      <trkpt lat="49.84803" lon="2.57876">
        <ele>95.1</ele>
        <time>2022-07-10T09:54:52Z</time>
      </trkpt>
      <trkpt lat="49.84804" lon="2.57877">
        <ele>95.1</ele>
        <time>2022-07-10T09:54:54Z</time>
      </trkpt>
      <trkpt lat="49.84805" lon="2.57879">
        <ele>95.1</ele>
        <time>2022-07-10T09:54:55Z</time>
      </trkpt>
      <trkpt lat="49.84806" lon="2.5788">
        <ele>95.1</ele>
        <time>2022-07-10T09:54:56Z</time>
      </trkpt>
      <trkpt lat="49.84808" lon="2.5788">
        <ele>95.1</ele>
        <time>2022-07-10T09:54:57Z</time>
      </trkpt>
      <trkpt lat="49.84809" lon="2.57881">
        <ele>95.1</ele>
        <time>2022-07-10T09:54:58Z</time>
      </trkpt>
      <trkpt lat="49.84809" lon="2.57882">
        <ele>95.1</ele>
        <time>2022-07-10T09:54:59Z</time>
      </trkpt>
      <trkpt lat="49.84809" lon="2.57885">
        <ele>95.1</ele>
        <time>2022-07-10T09:55:01Z</time>
      </trkpt>
      <trkpt lat="49.84808" lon="2.57887">
        <ele>95.1</ele>
        <time>2022-07-10T09:55:03Z</time>
      </trkpt>
      <trkpt lat="49.84807" lon="2.57888">
        <ele>95.1</ele>
        <time>2022-07-10T09:55:04Z</time>
      </trkpt>
      <trkpt lat="49.84802" lon="2.5789">
        <ele>95.1</ele>
        <time>2022-07-10T09:55:05Z</time>
      </trkpt>
      <trkpt lat="49.84801" lon="2.57892">
        <ele>95.1</ele>
        <time>2022-07-10T09:55:06Z</time>
      </trkpt>
      <trkpt lat="49.848" lon="2.57893">
        <ele>95</ele>
        <time>2022-07-10T09:55:07Z</time>
      </trkpt>
      <trkpt lat="49.84799" lon="2.57894">
        <ele>95</ele>
        <time>2022-07-10T09:55:09Z</time>
      </trkpt>
      <trkpt lat="49.84798" lon="2.57895">
        <ele>95</ele>
        <time>2022-07-10T09:55:10Z</time>
      </trkpt>
      <trkpt lat="49.84797" lon="2.57896">
        <ele>95</ele>
        <time>2022-07-10T09:55:11Z</time>
      </trkpt>
      <trkpt lat="49.84797" lon="2.57897">
        <ele>95</ele>
        <time>2022-07-10T09:55:12Z</time>
      </trkpt>
      <trkpt lat="49.84795" lon="2.57898">
        <ele>95</ele>
        <time>2022-07-10T09:55:14Z</time>
      </trkpt>
      <trkpt lat="49.84794" lon="2.57899">
        <ele>95</ele>
        <time>2022-07-10T09:55:15Z</time>
      </trkpt>
      <trkpt lat="49.84793" lon="2.57896">
        <ele>94.9</ele>
        <time>2022-07-10T09:55:17Z</time>
      </trkpt>
      <trkpt lat="49.84792" lon="2.57896">
        <ele>94.9</ele>
        <time>2022-07-10T09:55:18Z</time>
      </trkpt>
      <trkpt lat="49.84792" lon="2.57896">
        <ele>94.9</ele>
        <time>2022-07-10T09:55:19Z</time>
      </trkpt>
      <trkpt lat="49.84792" lon="2.57896">
        <ele>94.9</ele>
        <time>2022-07-10T09:55:20Z</time>
      </trkpt>
      <trkpt lat="49.84792" lon="2.57897">
        <ele>94.9</ele>
        <time>2022-07-10T09:55:21Z</time>
      </trkpt>
      <trkpt lat="49.84793" lon="2.57898">
        <ele>94.9</ele>
        <time>2022-07-10T09:55:22Z</time>
      </trkpt>
      <trkpt lat="49.84793" lon="2.57898">
        <ele>94.9</ele>
        <time>2022-07-10T09:55:23Z</time>
      </trkpt>
      <trkpt lat="49.84793" lon="2.57898">
        <ele>94.9</ele>
        <time>2022-07-10T09:55:24Z</time>
      </trkpt>
      <trkpt lat="49.84793" lon="2.57898">
        <ele>94.9</ele>
        <time>2022-07-10T09:55:25Z</time>
      </trkpt>
      <trkpt lat="49.84793" lon="2.57898">
        <ele>94.9</ele>
        <time>2022-07-10T09:55:26Z</time>
      </trkpt>
      <trkpt lat="49.84793" lon="2.57898">
        <ele>94.9</ele>
        <time>2022-07-10T09:55:27Z</time>
      </trkpt>
      <trkpt lat="49.84793" lon="2.57898">
        <ele>94.9</ele>
        <time>2022-07-10T09:55:28Z</time>
      </trkpt>
      <trkpt lat="49.84793" lon="2.57898">
        <ele>94.9</ele>
        <time>2022-07-10T09:55:29Z</time>
      </trkpt>
      <trkpt lat="49.84793" lon="2.57899">
        <ele>94.9</ele>
        <time>2022-07-10T09:55:31Z</time>
      </trkpt>
      <trkpt lat="49.84792" lon="2.57899">
        <ele>94.9</ele>
        <time>2022-07-10T09:55:32Z</time>
      </trkpt>
      <trkpt lat="49.84792" lon="2.57899">
        <ele>94.9</ele>
        <time>2022-07-10T09:55:33Z</time>
      </trkpt>
      <trkpt lat="49.84791" lon="2.57899">
        <ele>94.9</ele>
        <time>2022-07-10T09:55:34Z</time>
      </trkpt>
      <trkpt lat="49.8479" lon="2.579">
        <ele>94.9</ele>
        <time>2022-07-10T09:55:35Z</time>
      </trkpt>
      <trkpt lat="49.84789" lon="2.57902">
        <ele>94.9</ele>
        <time>2022-07-10T09:55:36Z</time>
      </trkpt>
      <trkpt lat="49.84788" lon="2.57903">
        <ele>94.9</ele>
        <time>2022-07-10T09:55:37Z</time>
      </trkpt>
      <trkpt lat="49.84787" lon="2.57904">
        <ele>94.9</ele>
        <time>2022-07-10T09:55:38Z</time>
      </trkpt>
      <trkpt lat="49.84787" lon="2.57906">
        <ele>94.9</ele>
        <time>2022-07-10T09:55:40Z</time>
      </trkpt>
      <trkpt lat="49.84786" lon="2.57907">
        <ele>94.9</ele>
        <time>2022-07-10T09:55:41Z</time>
      </trkpt>
      <trkpt lat="49.84785" lon="2.57909">
        <ele>94.9</ele>
        <time>2022-07-10T09:55:42Z</time>
      </trkpt>
      <trkpt lat="49.84785" lon="2.5791">
        <ele>94.9</ele>
        <time>2022-07-10T09:55:43Z</time>
      </trkpt>
      <trkpt lat="49.84784" lon="2.57911">
        <ele>94.9</ele>
        <time>2022-07-10T09:55:44Z</time>
      </trkpt>
      <trkpt lat="49.84784" lon="2.57913">
        <ele>94.9</ele>
        <time>2022-07-10T09:55:45Z</time>
      </trkpt>
      <trkpt lat="49.84784" lon="2.57915">
        <ele>94.8</ele>
        <time>2022-07-10T09:55:47Z</time>
      </trkpt>
      <trkpt lat="49.84784" lon="2.57916">
        <ele>94.8</ele>
        <time>2022-07-10T09:55:48Z</time>
      </trkpt>
      <trkpt lat="49.84784" lon="2.57917">
        <ele>94.8</ele>
        <time>2022-07-10T09:55:49Z</time>
      </trkpt>
      <trkpt lat="49.84784" lon="2.57919">
        <ele>94.8</ele>
        <time>2022-07-10T09:55:50Z</time>
      </trkpt>
      <trkpt lat="49.84783" lon="2.57921">
        <ele>94.8</ele>
        <time>2022-07-10T09:55:52Z</time>
      </trkpt>
      <trkpt lat="49.84783" lon="2.57922">
        <ele>94.8</ele>
        <time>2022-07-10T09:55:53Z</time>
      </trkpt>
      <trkpt lat="49.84782" lon="2.57922">
        <ele>94.8</ele>
        <time>2022-07-10T09:55:54Z</time>
      </trkpt>
      <trkpt lat="49.84781" lon="2.57923">
        <ele>94.8</ele>
        <time>2022-07-10T09:55:55Z</time>
      </trkpt>
      <trkpt lat="49.8478" lon="2.57923">
        <ele>94.8</ele>
        <time>2022-07-10T09:55:56Z</time>
      </trkpt>
      <trkpt lat="49.84779" lon="2.57924">
        <ele>94.8</ele>
        <time>2022-07-10T09:55:57Z</time>
      </trkpt>
      <trkpt lat="49.84777" lon="2.57925">
        <ele>94.8</ele>
        <time>2022-07-10T09:55:58Z</time>
      </trkpt>
      <trkpt lat="49.84776" lon="2.57926">
        <ele>94.8</ele>
        <time>2022-07-10T09:55:59Z</time>
      </trkpt>
      <trkpt lat="49.84776" lon="2.57926">
        <ele>94.8</ele>
        <time>2022-07-10T09:56:00Z</time>
      </trkpt>
      <trkpt lat="49.84775" lon="2.57927">
        <ele>94.8</ele>
        <time>2022-07-10T09:56:02Z</time>
      </trkpt>
      <trkpt lat="49.84774" lon="2.57928">
        <ele>94.8</ele>
        <time>2022-07-10T09:56:03Z</time>
      </trkpt>
      <trkpt lat="49.84773" lon="2.57929">
        <ele>94.8</ele>
        <time>2022-07-10T09:56:04Z</time>
      </trkpt>
      <trkpt lat="49.84772" lon="2.5793">
        <ele>94.8</ele>
        <time>2022-07-10T09:56:05Z</time>
      </trkpt>
      <trkpt lat="49.84771" lon="2.57931">
        <ele>94.8</ele>
        <time>2022-07-10T09:56:06Z</time>
      </trkpt>
      <trkpt lat="49.84769" lon="2.57932">
        <ele>94.8</ele>
        <time>2022-07-10T09:56:08Z</time>
      </trkpt>
      <trkpt lat="49.84767" lon="2.57934">
        <ele>94.8</ele>
        <time>2022-07-10T09:56:09Z</time>
      </trkpt>
      <trkpt lat="49.84767" lon="2.57935">
        <ele>94.8</ele>
        <time>2022-07-10T09:56:10Z</time>
      </trkpt>
      <trkpt lat="49.84766" lon="2.57936">
        <ele>94.8</ele>
        <time>2022-07-10T09:56:11Z</time>
      </trkpt>
      <trkpt lat="49.84765" lon="2.57937">
        <ele>94.8</ele>
        <time>2022-07-10T09:56:12Z</time>
      </trkpt>
      <trkpt lat="49.84764" lon="2.57939">
        <ele>94.8</ele>
        <time>2022-07-10T09:56:13Z</time>
      </trkpt>
      <trkpt lat="49.84763" lon="2.5794">
        <ele>94.8</ele>
        <time>2022-07-10T09:56:14Z</time>
      </trkpt>
      <trkpt lat="49.84762" lon="2.57942">
        <ele>94.8</ele>
        <time>2022-07-10T09:56:15Z</time>
      </trkpt>
      <trkpt lat="49.84761" lon="2.57943">
        <ele>94.8</ele>
        <time>2022-07-10T09:56:16Z</time>
      </trkpt>
      <trkpt lat="49.84759" lon="2.57945">
        <ele>94.8</ele>
        <time>2022-07-10T09:56:17Z</time>
      </trkpt>
      <trkpt lat="49.84757" lon="2.57948">
        <ele>94.8</ele>
        <time>2022-07-10T09:56:18Z</time>
      </trkpt>
      <trkpt lat="49.84757" lon="2.57949">
        <ele>94.8</ele>
        <time>2022-07-10T09:56:19Z</time>
      </trkpt>
      <trkpt lat="49.84755" lon="2.5795">
        <ele>94.8</ele>
        <time>2022-07-10T09:56:20Z</time>
      </trkpt>
      <trkpt lat="49.84754" lon="2.57952">
        <ele>94.8</ele>
        <time>2022-07-10T09:56:21Z</time>
      </trkpt>
      <trkpt lat="49.84753" lon="2.57953">
        <ele>94.8</ele>
        <time>2022-07-10T09:56:22Z</time>
      </trkpt>
      <trkpt lat="49.84752" lon="2.57954">
        <ele>94.8</ele>
        <time>2022-07-10T09:56:24Z</time>
      </trkpt>
      <trkpt lat="49.84751" lon="2.57955">
        <ele>94.8</ele>
        <time>2022-07-10T09:56:25Z</time>
      </trkpt>
      <trkpt lat="49.8475" lon="2.57956">
        <ele>94.8</ele>
        <time>2022-07-10T09:56:26Z</time>
      </trkpt>
      <trkpt lat="49.8475" lon="2.57955">
        <ele>94.8</ele>
        <time>2022-07-10T09:56:27Z</time>
      </trkpt>
      <trkpt lat="49.84749" lon="2.57955">
        <ele>94.8</ele>
        <time>2022-07-10T09:56:28Z</time>
      </trkpt>
      <trkpt lat="49.84749" lon="2.57954">
        <ele>94.9</ele>
        <time>2022-07-10T09:56:30Z</time>
      </trkpt>
      <trkpt lat="49.8475" lon="2.57954">
        <ele>94.9</ele>
        <time>2022-07-10T09:56:31Z</time>
      </trkpt>
      <trkpt lat="49.8475" lon="2.57954">
        <ele>94.9</ele>
        <time>2022-07-10T09:56:32Z</time>
      </trkpt>
      <trkpt lat="49.84751" lon="2.57953">
        <ele>94.9</ele>
        <time>2022-07-10T09:56:33Z</time>
      </trkpt>
      <trkpt lat="49.84751" lon="2.57953">
        <ele>94.9</ele>
        <time>2022-07-10T09:56:34Z</time>
      </trkpt>
      <trkpt lat="49.84751" lon="2.57953">
        <ele>94.9</ele>
        <time>2022-07-10T09:56:35Z</time>
      </trkpt>
      <trkpt lat="49.84751" lon="2.57953">
        <ele>94.9</ele>
        <time>2022-07-10T09:56:36Z</time>
      </trkpt>
      <trkpt lat="49.84751" lon="2.57953">
        <ele>94.9</ele>
        <time>2022-07-10T09:56:37Z</time>
      </trkpt>
      <trkpt lat="49.84751" lon="2.57953">
        <ele>94.9</ele>
        <time>2022-07-10T09:56:38Z</time>
      </trkpt>
      <trkpt lat="49.84751" lon="2.57953">
        <ele>94.9</ele>
        <time>2022-07-10T09:56:39Z</time>
      </trkpt>
      <trkpt lat="49.84751" lon="2.57953">
        <ele>94.9</ele>
        <time>2022-07-10T09:56:40Z</time>
      </trkpt>
      <trkpt lat="49.84751" lon="2.57953">
        <ele>94.9</ele>
        <time>2022-07-10T09:56:41Z</time>
      </trkpt>
      <trkpt lat="49.84751" lon="2.57953">
        <ele>94.9</ele>
        <time>2022-07-10T09:56:42Z</time>
      </trkpt>
      <trkpt lat="49.84751" lon="2.57953">
        <ele>94.9</ele>
        <time>2022-07-10T09:56:43Z</time>
      </trkpt>
      <trkpt lat="49.84752" lon="2.57953">
        <ele>94.9</ele>
        <time>2022-07-10T09:56:44Z</time>
      </trkpt>
      <trkpt lat="49.84752" lon="2.57953">
        <ele>94.9</ele>
        <time>2022-07-10T09:56:45Z</time>
      </trkpt>
      <trkpt lat="49.84752" lon="2.57953">
        <ele>94.9</ele>
        <time>2022-07-10T09:56:46Z</time>
      </trkpt>
      <trkpt lat="49.84752" lon="2.57954">
        <ele>94.9</ele>
        <time>2022-07-10T09:56:47Z</time>
      </trkpt>
      <trkpt lat="49.84752" lon="2.57954">
        <ele>94.9</ele>
        <time>2022-07-10T09:56:48Z</time>
      </trkpt>
      <trkpt lat="49.84752" lon="2.57954">
        <ele>94.9</ele>
        <time>2022-07-10T09:56:49Z</time>
      </trkpt>
      <trkpt lat="49.84752" lon="2.57954">
        <ele>94.9</ele>
        <time>2022-07-10T09:56:50Z</time>
      </trkpt>
      <trkpt lat="49.84752" lon="2.57954">
        <ele>94.9</ele>
        <time>2022-07-10T09:56:51Z</time>
      </trkpt>
      <trkpt lat="49.84752" lon="2.57954">
        <ele>94.9</ele>
        <time>2022-07-10T09:56:52Z</time>
      </trkpt>
      <trkpt lat="49.84752" lon="2.57954">
        <ele>94.9</ele>
        <time>2022-07-10T09:56:53Z</time>
      </trkpt>
      <trkpt lat="49.84752" lon="2.57954">
        <ele>94.9</ele>
        <time>2022-07-10T09:56:54Z</time>
      </trkpt>
      <trkpt lat="49.84752" lon="2.57954">
        <ele>94.9</ele>
        <time>2022-07-10T09:56:55Z</time>
      </trkpt>
      <trkpt lat="49.84752" lon="2.57954">
        <ele>94.9</ele>
        <time>2022-07-10T09:56:56Z</time>
      </trkpt>
      <trkpt lat="49.84752" lon="2.57954">
        <ele>94.9</ele>
        <time>2022-07-10T09:56:57Z</time>
      </trkpt>
      <trkpt lat="49.84752" lon="2.57954">
        <ele>94.9</ele>
        <time>2022-07-10T09:56:58Z</time>
      </trkpt>
      <trkpt lat="49.84752" lon="2.57954">
        <ele>94.9</ele>
        <time>2022-07-10T09:56:59Z</time>
      </trkpt>
      <trkpt lat="49.84752" lon="2.57954">
        <ele>94.9</ele>
        <time>2022-07-10T09:57:00Z</time>
      </trkpt>
      <trkpt lat="49.84752" lon="2.57954">
        <ele>94.9</ele>
        <time>2022-07-10T09:57:01Z</time>
      </trkpt>
      <trkpt lat="49.84752" lon="2.57954">
        <ele>94.9</ele>
        <time>2022-07-10T09:57:02Z</time>
      </trkpt>
      <trkpt lat="49.84752" lon="2.57954">
        <ele>94.9</ele>
        <time>2022-07-10T09:57:03Z</time>
      </trkpt>
      <trkpt lat="49.84752" lon="2.57954">
        <ele>94.9</ele>
        <time>2022-07-10T09:57:04Z</time>
      </trkpt>
      <trkpt lat="49.84752" lon="2.57954">
        <ele>94.9</ele>
        <time>2022-07-10T09:57:05Z</time>
      </trkpt>
      <trkpt lat="49.84752" lon="2.57954">
        <ele>94.9</ele>
        <time>2022-07-10T09:57:06Z</time>
      </trkpt>
      <trkpt lat="49.84752" lon="2.57954">
        <ele>94.9</ele>
        <time>2022-07-10T09:57:07Z</time>
      </trkpt>
      <trkpt lat="49.84752" lon="2.57954">
        <ele>94.9</ele>
        <time>2022-07-10T09:57:08Z</time>
      </trkpt>
      <trkpt lat="49.84752" lon="2.57954">
        <ele>94.9</ele>
        <time>2022-07-10T09:57:09Z</time>
      </trkpt>
      <trkpt lat="49.84752" lon="2.57954">
        <ele>94.9</ele>
        <time>2022-07-10T09:57:10Z</time>
      </trkpt>
      <trkpt lat="49.84752" lon="2.57954">
        <ele>94.9</ele>
        <time>2022-07-10T09:57:11Z</time>
      </trkpt>
      <trkpt lat="49.84752" lon="2.57954">
        <ele>94.9</ele>
        <time>2022-07-10T09:57:12Z</time>
      </trkpt>
      <trkpt lat="49.84752" lon="2.57954">
        <ele>94.9</ele>
        <time>2022-07-10T09:57:13Z</time>
      </trkpt>
      <trkpt lat="49.84752" lon="2.57954">
        <ele>94.9</ele>
        <time>2022-07-10T09:57:14Z</time>
      </trkpt>
      <trkpt lat="49.84752" lon="2.57954">
        <ele>94.9</ele>
        <time>2022-07-10T09:57:15Z</time>
      </trkpt>
      <trkpt lat="49.84752" lon="2.57954">
        <ele>94.9</ele>
        <time>2022-07-10T09:57:16Z</time>
      </trkpt>
      <trkpt lat="49.84752" lon="2.57954">
        <ele>94.9</ele>
        <time>2022-07-10T09:57:17Z</time>
      </trkpt>
      <trkpt lat="49.84752" lon="2.57954">
        <ele>94.9</ele>
        <time>2022-07-10T09:57:18Z</time>
      </trkpt>
      <trkpt lat="49.84752" lon="2.57954">
        <ele>94.9</ele>
        <time>2022-07-10T09:57:19Z</time>
      </trkpt>
      <trkpt lat="49.84752" lon="2.57954">
        <ele>94.9</ele>
        <time>2022-07-10T09:57:20Z</time>
      </trkpt>
      <trkpt lat="49.84752" lon="2.57954">
        <ele>94.9</ele>
        <time>2022-07-10T09:57:21Z</time>
      </trkpt>
      <trkpt lat="49.84752" lon="2.57954">
        <ele>94.9</ele>
        <time>2022-07-10T09:57:22Z</time>
      </trkpt>
      <trkpt lat="49.84752" lon="2.57954">
        <ele>94.9</ele>
        <time>2022-07-10T09:57:23Z</time>
      </trkpt>
      <trkpt lat="49.84752" lon="2.57954">
        <ele>94.9</ele>
        <time>2022-07-10T09:57:24Z</time>
      </trkpt>
      <trkpt lat="49.84752" lon="2.57954">
        <ele>94.9</ele>
        <time>2022-07-10T09:57:25Z</time>
      </trkpt>
      <trkpt lat="49.84752" lon="2.57954">
        <ele>94.9</ele>
        <time>2022-07-10T09:57:26Z</time>
      </trkpt>
      <trkpt lat="49.84752" lon="2.57954">
        <ele>94.9</ele>
        <time>2022-07-10T09:57:27Z</time>
      </trkpt>
      <trkpt lat="49.84752" lon="2.57954">
        <ele>94.9</ele>
        <time>2022-07-10T09:57:28Z</time>
      </trkpt>
      <trkpt lat="49.84752" lon="2.57954">
        <ele>94.9</ele>
        <time>2022-07-10T09:57:29Z</time>
      </trkpt>
      <trkpt lat="49.84752" lon="2.57954">
        <ele>94.9</ele>
        <time>2022-07-10T09:57:30Z</time>
      </trkpt>
      <trkpt lat="49.84752" lon="2.57954">
        <ele>94.9</ele>
        <time>2022-07-10T09:57:31Z</time>
      </trkpt>
      <trkpt lat="49.84752" lon="2.57954">
        <ele>94.9</ele>
        <time>2022-07-10T09:57:32Z</time>
      </trkpt>
      <trkpt lat="49.84752" lon="2.57954">
        <ele>94.9</ele>
        <time>2022-07-10T09:57:33Z</time>
      </trkpt>
      <trkpt lat="49.84752" lon="2.57954">
        <ele>94.9</ele>
        <time>2022-07-10T09:57:34Z</time>
      </trkpt>
      <trkpt lat="49.84752" lon="2.57954">
        <ele>94.9</ele>
        <time>2022-07-10T09:57:35Z</time>
      </trkpt>
      <trkpt lat="49.84752" lon="2.57954">
        <ele>94.9</ele>
        <time>2022-07-10T09:57:36Z</time>
      </trkpt>
      <trkpt lat="49.84752" lon="2.57954">
        <ele>94.9</ele>
        <time>2022-07-10T09:57:37Z</time>
      </trkpt>
      <trkpt lat="49.84752" lon="2.57954">
        <ele>94.9</ele>
        <time>2022-07-10T09:57:38Z</time>
      </trkpt>
      <trkpt lat="49.84752" lon="2.57954">
        <ele>94.9</ele>
        <time>2022-07-10T09:57:39Z</time>
      </trkpt>
      <trkpt lat="49.84752" lon="2.57954">
        <ele>94.9</ele>
        <time>2022-07-10T09:57:40Z</time>
      </trkpt>
      <trkpt lat="49.84752" lon="2.57954">
        <ele>94.9</ele>
        <time>2022-07-10T09:57:41Z</time>
      </trkpt>
      <trkpt lat="49.84752" lon="2.57954">
        <ele>94.9</ele>
        <time>2022-07-10T09:57:42Z</time>
      </trkpt>
      <trkpt lat="49.84752" lon="2.57954">
        <ele>94.9</ele>
        <time>2022-07-10T09:57:43Z</time>
      </trkpt>
      <trkpt lat="49.84752" lon="2.57954">
        <ele>94.9</ele>
        <time>2022-07-10T09:57:44Z</time>
      </trkpt>
      <trkpt lat="49.84752" lon="2.57954">
        <ele>94.9</ele>
        <time>2022-07-10T09:57:45Z</time>
      </trkpt>
      <trkpt lat="49.84752" lon="2.57954">
        <ele>94.9</ele>
        <time>2022-07-10T09:57:46Z</time>
      </trkpt>
      <trkpt lat="49.84752" lon="2.57954">
        <ele>94.9</ele>
        <time>2022-07-10T09:57:47Z</time>
      </trkpt>
      <trkpt lat="49.84752" lon="2.57954">
        <ele>94.9</ele>
        <time>2022-07-10T09:57:48Z</time>
      </trkpt>
      <trkpt lat="49.84752" lon="2.57954">
        <ele>94.9</ele>
        <time>2022-07-10T09:57:49Z</time>
      </trkpt>
      <trkpt lat="49.84752" lon="2.57954">
        <ele>94.9</ele>
        <time>2022-07-10T09:57:50Z</time>
      </trkpt>
      <trkpt lat="49.84752" lon="2.57954">
        <ele>94.9</ele>
        <time>2022-07-10T09:57:51Z</time>
      </trkpt>
      <trkpt lat="49.84752" lon="2.57954">
        <ele>94.9</ele>
        <time>2022-07-10T09:57:52Z</time>
      </trkpt>
      <trkpt lat="49.84752" lon="2.57954">
        <ele>94.9</ele>
        <time>2022-07-10T09:57:53Z</time>
      </trkpt>
      <trkpt lat="49.84752" lon="2.57954">
        <ele>94.9</ele>
        <time>2022-07-10T09:57:54Z</time>
      </trkpt>
      <trkpt lat="49.84752" lon="2.57954">
        <ele>94.9</ele>
        <time>2022-07-10T09:57:55Z</time>
      </trkpt>
      <trkpt lat="49.84752" lon="2.57954">
        <ele>94.9</ele>
        <time>2022-07-10T09:57:56Z</time>
      </trkpt>
      <trkpt lat="49.84752" lon="2.57954">
        <ele>94.9</ele>
        <time>2022-07-10T09:57:57Z</time>
      </trkpt>
      <trkpt lat="49.84752" lon="2.57954">
        <ele>94.9</ele>
        <time>2022-07-10T09:57:58Z</time>
      </trkpt>
      <trkpt lat="49.84752" lon="2.57954">
        <ele>94.9</ele>
        <time>2022-07-10T09:57:59Z</time>
      </trkpt>
      <trkpt lat="49.84752" lon="2.57954">
        <ele>94.9</ele>
        <time>2022-07-10T09:58:00Z</time>
      </trkpt>
      <trkpt lat="49.84752" lon="2.57954">
        <ele>94.9</ele>
        <time>2022-07-10T09:58:01Z</time>
      </trkpt>
      <trkpt lat="49.84752" lon="2.57954">
        <ele>94.9</ele>
        <time>2022-07-10T09:58:02Z</time>
      </trkpt>
      <trkpt lat="49.84752" lon="2.57954">
        <ele>94.9</ele>
        <time>2022-07-10T09:58:03Z</time>
      </trkpt>
      <trkpt lat="49.84752" lon="2.57954">
        <ele>94.9</ele>
        <time>2022-07-10T09:58:04Z</time>
      </trkpt>
      <trkpt lat="49.84752" lon="2.57954">
        <ele>94.9</ele>
        <time>2022-07-10T09:58:05Z</time>
      </trkpt>
      <trkpt lat="49.84752" lon="2.57954">
        <ele>94.9</ele>
        <time>2022-07-10T09:58:06Z</time>
      </trkpt>
      <trkpt lat="49.84752" lon="2.57954">
        <ele>94.9</ele>
        <time>2022-07-10T09:58:07Z</time>
      </trkpt>
      <trkpt lat="49.84752" lon="2.57954">
        <ele>94.9</ele>
        <time>2022-07-10T09:58:08Z</time>
      </trkpt>
      <trkpt lat="49.84752" lon="2.57954">
        <ele>94.9</ele>
        <time>2022-07-10T09:58:09Z</time>
      </trkpt>
      <trkpt lat="49.84752" lon="2.57954">
        <ele>94.9</ele>
        <time>2022-07-10T09:58:10Z</time>
      </trkpt>
      <trkpt lat="49.84752" lon="2.57954">
        <ele>94.9</ele>
        <time>2022-07-10T09:58:11Z</time>
      </trkpt>
      <trkpt lat="49.84752" lon="2.57954">
        <ele>94.9</ele>
        <time>2022-07-10T09:58:12Z</time>
      </trkpt>
      <trkpt lat="49.84752" lon="2.57954">
        <ele>94.9</ele>
        <time>2022-07-10T09:58:13Z</time>
      </trkpt>
      <trkpt lat="49.84752" lon="2.57954">
        <ele>94.9</ele>
        <time>2022-07-10T09:58:14Z</time>
      </trkpt>
      <trkpt lat="49.84752" lon="2.57954">
        <ele>94.9</ele>
        <time>2022-07-10T09:58:15Z</time>
      </trkpt>
      <trkpt lat="49.84752" lon="2.57952">
        <ele>94.9</ele>
        <time>2022-07-10T09:58:16Z</time>
      </trkpt>
      <trkpt lat="49.84752" lon="2.57951">
        <ele>94.9</ele>
        <time>2022-07-10T09:58:17Z</time>
      </trkpt>
      <trkpt lat="49.84752" lon="2.57951">
        <ele>94.9</ele>
        <time>2022-07-10T09:58:18Z</time>
      </trkpt>
      <trkpt lat="49.84751" lon="2.57952">
        <ele>94.9</ele>
        <time>2022-07-10T09:58:19Z</time>
      </trkpt>
      <trkpt lat="49.8475" lon="2.57953">
        <ele>94.9</ele>
        <time>2022-07-10T09:58:20Z</time>
      </trkpt>
      <trkpt lat="49.84749" lon="2.57953">
        <ele>94.9</ele>
        <time>2022-07-10T09:58:21Z</time>
      </trkpt>
      <trkpt lat="49.84749" lon="2.57954">
        <ele>94.9</ele>
        <time>2022-07-10T09:58:22Z</time>
      </trkpt>
      <trkpt lat="49.84748" lon="2.57954">
        <ele>94.9</ele>
        <time>2022-07-10T09:58:23Z</time>
      </trkpt>
      <trkpt lat="49.84747" lon="2.57954">
        <ele>94.9</ele>
        <time>2022-07-10T09:58:24Z</time>
      </trkpt>
      <trkpt lat="49.84746" lon="2.57955">
        <ele>94.9</ele>
        <time>2022-07-10T09:58:25Z</time>
      </trkpt>
      <trkpt lat="49.84745" lon="2.57956">
        <ele>94.9</ele>
        <time>2022-07-10T09:58:26Z</time>
      </trkpt>
      <trkpt lat="49.84744" lon="2.57957">
        <ele>94.9</ele>
        <time>2022-07-10T09:58:28Z</time>
      </trkpt>
      <trkpt lat="49.84741" lon="2.5796">
        <ele>94.9</ele>
        <time>2022-07-10T09:58:29Z</time>
      </trkpt>
      <trkpt lat="49.84739" lon="2.57961">
        <ele>94.9</ele>
        <time>2022-07-10T09:58:30Z</time>
      </trkpt>
      <trkpt lat="49.84739" lon="2.57962">
        <ele>95</ele>
        <time>2022-07-10T09:58:31Z</time>
      </trkpt>
      <trkpt lat="49.84738" lon="2.57963">
        <ele>95</ele>
        <time>2022-07-10T09:58:32Z</time>
      </trkpt>
      <trkpt lat="49.84737" lon="2.57964">
        <ele>95</ele>
        <time>2022-07-10T09:58:33Z</time>
      </trkpt>
      <trkpt lat="49.84736" lon="2.57965">
        <ele>95</ele>
        <time>2022-07-10T09:58:34Z</time>
      </trkpt>
      <trkpt lat="49.84735" lon="2.57965">
        <ele>95</ele>
        <time>2022-07-10T09:58:35Z</time>
      </trkpt>
      <trkpt lat="49.84734" lon="2.57967">
        <ele>95</ele>
        <time>2022-07-10T09:58:36Z</time>
      </trkpt>
      <trkpt lat="49.84733" lon="2.57968">
        <ele>95</ele>
        <time>2022-07-10T09:58:37Z</time>
      </trkpt>
      <trkpt lat="49.84732" lon="2.57969">
        <ele>95</ele>
        <time>2022-07-10T09:58:39Z</time>
      </trkpt>
      <trkpt lat="49.84731" lon="2.57971">
        <ele>95</ele>
        <time>2022-07-10T09:58:40Z</time>
      </trkpt>
      <trkpt lat="49.8473" lon="2.57972">
        <ele>95</ele>
        <time>2022-07-10T09:58:41Z</time>
      </trkpt>
      <trkpt lat="49.84728" lon="2.57975">
        <ele>95</ele>
        <time>2022-07-10T09:58:42Z</time>
      </trkpt>
      <trkpt lat="49.84727" lon="2.57976">
        <ele>95</ele>
        <time>2022-07-10T09:58:43Z</time>
      </trkpt>
      <trkpt lat="49.84726" lon="2.57978">
        <ele>95</ele>
        <time>2022-07-10T09:58:44Z</time>
      </trkpt>
      <trkpt lat="49.84725" lon="2.5798">
        <ele>95.1</ele>
        <time>2022-07-10T09:58:45Z</time>
      </trkpt>
      <trkpt lat="49.84723" lon="2.57981">
        <ele>95.1</ele>
        <time>2022-07-10T09:58:46Z</time>
      </trkpt>
      <trkpt lat="49.84722" lon="2.57983">
        <ele>95.1</ele>
        <time>2022-07-10T09:58:47Z</time>
      </trkpt>
      <trkpt lat="49.84721" lon="2.57984">
        <ele>95.1</ele>
        <time>2022-07-10T09:58:48Z</time>
      </trkpt>
      <trkpt lat="49.84719" lon="2.57987">
        <ele>95.1</ele>
        <time>2022-07-10T09:58:51Z</time>
      </trkpt>
      <trkpt lat="49.84718" lon="2.57988">
        <ele>95.1</ele>
        <time>2022-07-10T09:58:52Z</time>
      </trkpt>
      <trkpt lat="49.84716" lon="2.57989">
        <ele>95.1</ele>
        <time>2022-07-10T09:58:53Z</time>
      </trkpt>
      <trkpt lat="49.84715" lon="2.57989">
        <ele>95.1</ele>
        <time>2022-07-10T09:58:54Z</time>
      </trkpt>
      <trkpt lat="49.84714" lon="2.5799">
        <ele>95.1</ele>
        <time>2022-07-10T09:58:55Z</time>
      </trkpt>
      <trkpt lat="49.84713" lon="2.57991">
        <ele>95.1</ele>
        <time>2022-07-10T09:58:56Z</time>
      </trkpt>
      <trkpt lat="49.84713" lon="2.57993">
        <ele>95.1</ele>
        <time>2022-07-10T09:58:57Z</time>
      </trkpt>
      <trkpt lat="49.84712" lon="2.57994">
        <ele>95.1</ele>
        <time>2022-07-10T09:58:58Z</time>
      </trkpt>
      <trkpt lat="49.84711" lon="2.57995">
        <ele>95.2</ele>
        <time>2022-07-10T09:59:00Z</time>
      </trkpt>
      <trkpt lat="49.84711" lon="2.57995">
        <ele>95.2</ele>
        <time>2022-07-10T09:59:01Z</time>
      </trkpt>
      <trkpt lat="49.8471" lon="2.57997">
        <ele>95.2</ele>
        <time>2022-07-10T09:59:02Z</time>
      </trkpt>
      <trkpt lat="49.8471" lon="2.57998">
        <ele>95.2</ele>
        <time>2022-07-10T09:59:03Z</time>
      </trkpt>
      <trkpt lat="49.84709" lon="2.57999">
        <ele>95.2</ele>
        <time>2022-07-10T09:59:04Z</time>
      </trkpt>
      <trkpt lat="49.84709" lon="2.57999">
        <ele>95.2</ele>
        <time>2022-07-10T09:59:05Z</time>
      </trkpt>
      <trkpt lat="49.84708" lon="2.57999">
        <ele>95.2</ele>
        <time>2022-07-10T09:59:06Z</time>
      </trkpt>
      <trkpt lat="49.84708" lon="2.58">
        <ele>95.2</ele>
        <time>2022-07-10T09:59:08Z</time>
      </trkpt>
      <trkpt lat="49.84707" lon="2.58">
        <ele>95.2</ele>
        <time>2022-07-10T09:59:09Z</time>
      </trkpt>
      <trkpt lat="49.84706" lon="2.58001">
        <ele>95.2</ele>
        <time>2022-07-10T09:59:10Z</time>
      </trkpt>
      <trkpt lat="49.84704" lon="2.58002">
        <ele>95.2</ele>
        <time>2022-07-10T09:59:11Z</time>
      </trkpt>
      <trkpt lat="49.84703" lon="2.58003">
        <ele>95.2</ele>
        <time>2022-07-10T09:59:12Z</time>
      </trkpt>
      <trkpt lat="49.84702" lon="2.58003">
        <ele>95.3</ele>
        <time>2022-07-10T09:59:13Z</time>
      </trkpt>
      <trkpt lat="49.84701" lon="2.58003">
        <ele>95.3</ele>
        <time>2022-07-10T09:59:15Z</time>
      </trkpt>
      <trkpt lat="49.847" lon="2.58004">
        <ele>95.3</ele>
        <time>2022-07-10T09:59:16Z</time>
      </trkpt>
      <trkpt lat="49.84698" lon="2.58004">
        <ele>95.3</ele>
        <time>2022-07-10T09:59:17Z</time>
      </trkpt>
      <trkpt lat="49.84697" lon="2.58006">
        <ele>95.3</ele>
        <time>2022-07-10T09:59:18Z</time>
      </trkpt>
      <trkpt lat="49.84696" lon="2.58007">
        <ele>95.3</ele>
        <time>2022-07-10T09:59:19Z</time>
      </trkpt>
      <trkpt lat="49.84695" lon="2.58009">
        <ele>95.4</ele>
        <time>2022-07-10T09:59:21Z</time>
      </trkpt>
      <trkpt lat="49.84694" lon="2.5801">
        <ele>95.4</ele>
        <time>2022-07-10T09:59:22Z</time>
      </trkpt>
      <trkpt lat="49.84693" lon="2.5801">
        <ele>95.4</ele>
        <time>2022-07-10T09:59:23Z</time>
      </trkpt>
      <trkpt lat="49.84692" lon="2.58011">
        <ele>95.4</ele>
        <time>2022-07-10T09:59:24Z</time>
      </trkpt>
      <trkpt lat="49.84692" lon="2.58012">
        <ele>95.4</ele>
        <time>2022-07-10T09:59:25Z</time>
      </trkpt>
      <trkpt lat="49.84692" lon="2.58012">
        <ele>95.4</ele>
        <time>2022-07-10T09:59:26Z</time>
      </trkpt>
      <trkpt lat="49.84693" lon="2.58012">
        <ele>95.4</ele>
        <time>2022-07-10T09:59:27Z</time>
      </trkpt>
      <trkpt lat="49.84693" lon="2.58012">
        <ele>95.4</ele>
        <time>2022-07-10T09:59:28Z</time>
      </trkpt>
      <trkpt lat="49.84693" lon="2.58013">
        <ele>95.4</ele>
        <time>2022-07-10T09:59:29Z</time>
      </trkpt>
      <trkpt lat="49.84693" lon="2.58013">
        <ele>95.4</ele>
        <time>2022-07-10T09:59:30Z</time>
      </trkpt>
      <trkpt lat="49.84693" lon="2.58013">
        <ele>95.4</ele>
        <time>2022-07-10T09:59:31Z</time>
      </trkpt>
      <trkpt lat="49.84693" lon="2.58013">
        <ele>95.4</ele>
        <time>2022-07-10T09:59:32Z</time>
      </trkpt>
      <trkpt lat="49.84693" lon="2.58013">
        <ele>95.4</ele>
        <time>2022-07-10T09:59:33Z</time>
      </trkpt>
      <trkpt lat="49.84693" lon="2.58013">
        <ele>95.4</ele>
        <time>2022-07-10T09:59:34Z</time>
      </trkpt>
      <trkpt lat="49.84693" lon="2.58013">
        <ele>95.4</ele>
        <time>2022-07-10T09:59:35Z</time>
      </trkpt>
      <trkpt lat="49.84693" lon="2.58013">
        <ele>95.4</ele>
        <time>2022-07-10T09:59:36Z</time>
      </trkpt>
      <trkpt lat="49.84693" lon="2.58013">
        <ele>95.4</ele>
        <time>2022-07-10T09:59:37Z</time>
      </trkpt>
      <trkpt lat="49.84693" lon="2.58013">
        <ele>95.4</ele>
        <time>2022-07-10T09:59:38Z</time>
      </trkpt>
      <trkpt lat="49.84693" lon="2.58013">
        <ele>95.4</ele>
        <time>2022-07-10T09:59:39Z</time>
      </trkpt>
      <trkpt lat="49.84693" lon="2.58013">
        <ele>95.4</ele>
        <time>2022-07-10T09:59:40Z</time>
      </trkpt>
      <trkpt lat="49.84694" lon="2.58013">
        <ele>95.4</ele>
        <time>2022-07-10T09:59:41Z</time>
      </trkpt>
      <trkpt lat="49.84694" lon="2.58013">
        <ele>95.4</ele>
        <time>2022-07-10T09:59:42Z</time>
      </trkpt>
      <trkpt lat="49.84693" lon="2.58014">
        <ele>95.4</ele>
        <time>2022-07-10T09:59:43Z</time>
      </trkpt>
      <trkpt lat="49.84693" lon="2.58014">
        <ele>95.4</ele>
        <time>2022-07-10T09:59:44Z</time>
      </trkpt>
      <trkpt lat="49.84692" lon="2.58015">
        <ele>95.4</ele>
        <time>2022-07-10T09:59:45Z</time>
      </trkpt>
      <trkpt lat="49.84692" lon="2.58017">
        <ele>95.4</ele>
        <time>2022-07-10T09:59:46Z</time>
      </trkpt>
      <trkpt lat="49.84692" lon="2.58018">
        <ele>95.4</ele>
        <time>2022-07-10T09:59:47Z</time>
      </trkpt>
      <trkpt lat="49.84692" lon="2.58019">
        <ele>95.4</ele>
        <time>2022-07-10T09:59:48Z</time>
      </trkpt>
      <trkpt lat="49.84692" lon="2.58022">
        <ele>95.4</ele>
        <time>2022-07-10T09:59:50Z</time>
      </trkpt>
      <trkpt lat="49.84693" lon="2.58023">
        <ele>95.4</ele>
        <time>2022-07-10T09:59:51Z</time>
      </trkpt>
      <trkpt lat="49.84694" lon="2.58024">
        <ele>95.4</ele>
        <time>2022-07-10T09:59:52Z</time>
      </trkpt>
      <trkpt lat="49.84695" lon="2.58025">
        <ele>95.4</ele>
        <time>2022-07-10T09:59:53Z</time>
      </trkpt>
      <trkpt lat="49.84695" lon="2.58026">
        <ele>95.4</ele>
        <time>2022-07-10T09:59:54Z</time>
      </trkpt>
      <trkpt lat="49.84696" lon="2.58027">
        <ele>95.4</ele>
        <time>2022-07-10T09:59:55Z</time>
      </trkpt>
      <trkpt lat="49.84697" lon="2.58028">
        <ele>95.4</ele>
        <time>2022-07-10T09:59:56Z</time>
      </trkpt>
      <trkpt lat="49.84697" lon="2.58028">
        <ele>95.4</ele>
        <time>2022-07-10T09:59:57Z</time>
      </trkpt>
      <trkpt lat="49.84698" lon="2.58031">
        <ele>95.4</ele>
        <time>2022-07-10T09:59:59Z</time>
      </trkpt>
      <trkpt lat="49.84698" lon="2.58033">
        <ele>95.4</ele>
        <time>2022-07-10T10:00:00Z</time>
      </trkpt>
      <trkpt lat="49.84698" lon="2.58034">
        <ele>95.4</ele>
        <time>2022-07-10T10:00:02Z</time>
      </trkpt>
      <trkpt lat="49.84697" lon="2.58036">
        <ele>95.4</ele>
        <time>2022-07-10T10:00:03Z</time>
      </trkpt>
      <trkpt lat="49.84697" lon="2.58037">
        <ele>95.4</ele>
        <time>2022-07-10T10:00:04Z</time>
      </trkpt>
      <trkpt lat="49.84697" lon="2.58039">
        <ele>95.4</ele>
        <time>2022-07-10T10:00:05Z</time>
      </trkpt>
      <trkpt lat="49.84697" lon="2.58042">
        <ele>95.4</ele>
        <time>2022-07-10T10:00:06Z</time>
      </trkpt>
      <trkpt lat="49.84697" lon="2.58044">
        <ele>95.4</ele>
        <time>2022-07-10T10:00:07Z</time>
      </trkpt>
      <trkpt lat="49.84697" lon="2.58045">
        <ele>95.4</ele>
        <time>2022-07-10T10:00:08Z</time>
      </trkpt>
      <trkpt lat="49.84696" lon="2.58048">
        <ele>95.4</ele>
        <time>2022-07-10T10:00:09Z</time>
      </trkpt>
      <trkpt lat="49.84696" lon="2.58049">
        <ele>95.4</ele>
        <time>2022-07-10T10:00:10Z</time>
      </trkpt>
      <trkpt lat="49.84696" lon="2.58051">
        <ele>95.4</ele>
        <time>2022-07-10T10:00:11Z</time>
      </trkpt>
      <trkpt lat="49.84696" lon="2.58052">
        <ele>95.4</ele>
        <time>2022-07-10T10:00:13Z</time>
      </trkpt>
      <trkpt lat="49.84694" lon="2.58053">
        <ele>95.4</ele>
        <time>2022-07-10T10:00:14Z</time>
      </trkpt>
      <trkpt lat="49.84693" lon="2.58054">
        <ele>95.4</ele>
        <time>2022-07-10T10:00:15Z</time>
      </trkpt>
      <trkpt lat="49.84693" lon="2.58057">
        <ele>95.4</ele>
        <time>2022-07-10T10:00:16Z</time>
      </trkpt>
      <trkpt lat="49.84693" lon="2.58058">
        <ele>95.4</ele>
        <time>2022-07-10T10:00:17Z</time>
      </trkpt>
      <trkpt lat="49.84693" lon="2.58059">
        <ele>95.4</ele>
        <time>2022-07-10T10:00:18Z</time>
      </trkpt>
      <trkpt lat="49.84693" lon="2.58061">
        <ele>95.4</ele>
        <time>2022-07-10T10:00:19Z</time>
      </trkpt>
      <trkpt lat="49.84694" lon="2.58064">
        <ele>95.4</ele>
        <time>2022-07-10T10:00:20Z</time>
      </trkpt>
      <trkpt lat="49.84694" lon="2.58066">
        <ele>95.4</ele>
        <time>2022-07-10T10:00:21Z</time>
      </trkpt>
      <trkpt lat="49.84694" lon="2.58069">
        <ele>95.4</ele>
        <time>2022-07-10T10:00:22Z</time>
      </trkpt>
      <trkpt lat="49.84695" lon="2.58072">
        <ele>95.4</ele>
        <time>2022-07-10T10:00:23Z</time>
      </trkpt>
      <trkpt lat="49.84695" lon="2.58074">
        <ele>95.4</ele>
        <time>2022-07-10T10:00:24Z</time>
      </trkpt>
      <trkpt lat="49.84695" lon="2.58076">
        <ele>95.4</ele>
        <time>2022-07-10T10:00:26Z</time>
      </trkpt>
      <trkpt lat="49.84695" lon="2.58079">
        <ele>95.4</ele>
        <time>2022-07-10T10:00:27Z</time>
      </trkpt>
      <trkpt lat="49.84694" lon="2.58082">
        <ele>95.4</ele>
        <time>2022-07-10T10:00:28Z</time>
      </trkpt>
      <trkpt lat="49.84694" lon="2.58083">
        <ele>95.4</ele>
        <time>2022-07-10T10:00:29Z</time>
      </trkpt>
      <trkpt lat="49.84694" lon="2.58084">
        <ele>95.4</ele>
        <time>2022-07-10T10:00:30Z</time>
      </trkpt>
      <trkpt lat="49.84693" lon="2.58087">
        <ele>95.4</ele>
        <time>2022-07-10T10:00:31Z</time>
      </trkpt>
      <trkpt lat="49.84693" lon="2.58088">
        <ele>95.4</ele>
        <time>2022-07-10T10:00:32Z</time>
      </trkpt>
      <trkpt lat="49.84693" lon="2.5809">
        <ele>95.4</ele>
        <time>2022-07-10T10:00:33Z</time>
      </trkpt>
      <trkpt lat="49.84693" lon="2.58091">
        <ele>95.4</ele>
        <time>2022-07-10T10:00:34Z</time>
      </trkpt>
      <trkpt lat="49.84692" lon="2.58093">
        <ele>95.4</ele>
        <time>2022-07-10T10:00:36Z</time>
      </trkpt>
      <trkpt lat="49.84692" lon="2.58094">
        <ele>95.4</ele>
        <time>2022-07-10T10:00:37Z</time>
      </trkpt>
      <trkpt lat="49.84691" lon="2.58097">
        <ele>95.4</ele>
        <time>2022-07-10T10:00:38Z</time>
      </trkpt>
      <trkpt lat="49.84691" lon="2.58099">
        <ele>95.4</ele>
        <time>2022-07-10T10:00:40Z</time>
      </trkpt>
      <trkpt lat="49.84691" lon="2.58101">
        <ele>95.4</ele>
        <time>2022-07-10T10:00:41Z</time>
      </trkpt>
      <trkpt lat="49.84691" lon="2.58104">
        <ele>95.4</ele>
        <time>2022-07-10T10:00:42Z</time>
      </trkpt>
      <trkpt lat="49.8469" lon="2.58108">
        <ele>95.4</ele>
        <time>2022-07-10T10:00:43Z</time>
      </trkpt>
      <trkpt lat="49.8469" lon="2.5811">
        <ele>95.4</ele>
        <time>2022-07-10T10:00:44Z</time>
      </trkpt>
      <trkpt lat="49.84689" lon="2.58115">
        <ele>95.4</ele>
        <time>2022-07-10T10:00:45Z</time>
      </trkpt>
      <trkpt lat="49.84689" lon="2.58117">
        <ele>95.4</ele>
        <time>2022-07-10T10:00:46Z</time>
      </trkpt>
      <trkpt lat="49.84689" lon="2.5812">
        <ele>95.4</ele>
        <time>2022-07-10T10:00:47Z</time>
      </trkpt>
      <trkpt lat="49.84689" lon="2.58122">
        <ele>95.4</ele>
        <time>2022-07-10T10:00:48Z</time>
      </trkpt>
      <trkpt lat="49.84689" lon="2.58125">
        <ele>95.4</ele>
        <time>2022-07-10T10:00:49Z</time>
      </trkpt>
      <trkpt lat="49.84688" lon="2.58127">
        <ele>95.4</ele>
        <time>2022-07-10T10:00:51Z</time>
      </trkpt>
      <trkpt lat="49.84688" lon="2.5813">
        <ele>95.4</ele>
        <time>2022-07-10T10:00:52Z</time>
      </trkpt>
      <trkpt lat="49.84688" lon="2.58132">
        <ele>95.4</ele>
        <time>2022-07-10T10:00:53Z</time>
      </trkpt>
      <trkpt lat="49.84688" lon="2.58135">
        <ele>95.4</ele>
        <time>2022-07-10T10:00:54Z</time>
      </trkpt>
      <trkpt lat="49.84688" lon="2.58137">
        <ele>95.4</ele>
        <time>2022-07-10T10:00:55Z</time>
      </trkpt>
      <trkpt lat="49.84688" lon="2.58139">
        <ele>95.4</ele>
        <time>2022-07-10T10:00:56Z</time>
      </trkpt>
      <trkpt lat="49.84688" lon="2.58142">
        <ele>95.4</ele>
        <time>2022-07-10T10:00:58Z</time>
      </trkpt>
      <trkpt lat="49.84688" lon="2.58143">
        <ele>95.4</ele>
        <time>2022-07-10T10:00:59Z</time>
      </trkpt>
      <trkpt lat="49.84689" lon="2.58145">
        <ele>95.4</ele>
        <time>2022-07-10T10:01:00Z</time>
      </trkpt>
      <trkpt lat="49.84689" lon="2.58147">
        <ele>95.4</ele>
        <time>2022-07-10T10:01:01Z</time>
      </trkpt>
      <trkpt lat="49.84689" lon="2.58149">
        <ele>95.3</ele>
        <time>2022-07-10T10:01:02Z</time>
      </trkpt>
      <trkpt lat="49.84689" lon="2.58151">
        <ele>95.3</ele>
        <time>2022-07-10T10:01:03Z</time>
      </trkpt>
      <trkpt lat="49.84689" lon="2.58153">
        <ele>95.3</ele>
        <time>2022-07-10T10:01:04Z</time>
      </trkpt>
      <trkpt lat="49.84689" lon="2.58155">
        <ele>95.3</ele>
        <time>2022-07-10T10:01:05Z</time>
      </trkpt>
      <trkpt lat="49.84689" lon="2.58157">
        <ele>95.3</ele>
        <time>2022-07-10T10:01:06Z</time>
      </trkpt>
      <trkpt lat="49.84689" lon="2.5816">
        <ele>95.3</ele>
        <time>2022-07-10T10:01:07Z</time>
      </trkpt>
      <trkpt lat="49.84689" lon="2.58161">
        <ele>95.3</ele>
        <time>2022-07-10T10:01:08Z</time>
      </trkpt>
      <trkpt lat="49.8469" lon="2.58163">
        <ele>95.3</ele>
        <time>2022-07-10T10:01:10Z</time>
      </trkpt>
      <trkpt lat="49.8469" lon="2.58167">
        <ele>95.2</ele>
        <time>2022-07-10T10:01:11Z</time>
      </trkpt>
      <trkpt lat="49.8469" lon="2.58169">
        <ele>95.2</ele>
        <time>2022-07-10T10:01:13Z</time>
      </trkpt>
      <trkpt lat="49.8469" lon="2.5817">
        <ele>95.2</ele>
        <time>2022-07-10T10:01:14Z</time>
      </trkpt>
      <trkpt lat="49.8469" lon="2.58172">
        <ele>95.2</ele>
        <time>2022-07-10T10:01:15Z</time>
      </trkpt>
      <trkpt lat="49.8469" lon="2.58174">
        <ele>95.2</ele>
        <time>2022-07-10T10:01:16Z</time>
      </trkpt>
      <trkpt lat="49.8469" lon="2.58177">
        <ele>95.2</ele>
        <time>2022-07-10T10:01:17Z</time>
      </trkpt>
      <trkpt lat="49.8469" lon="2.58178">
        <ele>95.2</ele>
        <time>2022-07-10T10:01:19Z</time>
      </trkpt>
      <trkpt lat="49.8469" lon="2.58179">
        <ele>95.2</ele>
        <time>2022-07-10T10:01:20Z</time>
      </trkpt>
      <trkpt lat="49.8469" lon="2.5818">
        <ele>95.2</ele>
        <time>2022-07-10T10:01:21Z</time>
      </trkpt>
      <trkpt lat="49.8469" lon="2.58181">
        <ele>95.2</ele>
        <time>2022-07-10T10:01:22Z</time>
      </trkpt>
      <trkpt lat="49.84689" lon="2.58182">
        <ele>95.2</ele>
        <time>2022-07-10T10:01:23Z</time>
      </trkpt>
      <trkpt lat="49.84688" lon="2.58182">
        <ele>95.2</ele>
        <time>2022-07-10T10:01:24Z</time>
      </trkpt>
      <trkpt lat="49.84688" lon="2.58182">
        <ele>95.2</ele>
        <time>2022-07-10T10:01:25Z</time>
      </trkpt>
      <trkpt lat="49.84687" lon="2.58181">
        <ele>95.2</ele>
        <time>2022-07-10T10:01:26Z</time>
      </trkpt>
      <trkpt lat="49.84687" lon="2.58181">
        <ele>95.2</ele>
        <time>2022-07-10T10:01:27Z</time>
      </trkpt>
      <trkpt lat="49.84687" lon="2.58181">
        <ele>95.2</ele>
        <time>2022-07-10T10:01:28Z</time>
      </trkpt>
      <trkpt lat="49.84687" lon="2.5818">
        <ele>95.2</ele>
        <time>2022-07-10T10:01:29Z</time>
      </trkpt>
      <trkpt lat="49.84687" lon="2.5818">
        <ele>95.2</ele>
        <time>2022-07-10T10:01:30Z</time>
      </trkpt>
      <trkpt lat="49.84687" lon="2.58179">
        <ele>95.2</ele>
        <time>2022-07-10T10:01:31Z</time>
      </trkpt>
      <trkpt lat="49.84687" lon="2.58179">
        <ele>95.2</ele>
        <time>2022-07-10T10:01:32Z</time>
      </trkpt>
      <trkpt lat="49.84687" lon="2.58179">
        <ele>95.2</ele>
        <time>2022-07-10T10:01:33Z</time>
      </trkpt>
      <trkpt lat="49.84687" lon="2.58179">
        <ele>95.2</ele>
        <time>2022-07-10T10:01:34Z</time>
      </trkpt>
      <trkpt lat="49.84687" lon="2.58179">
        <ele>95.2</ele>
        <time>2022-07-10T10:01:35Z</time>
      </trkpt>
      <trkpt lat="49.84687" lon="2.58179">
        <ele>95.2</ele>
        <time>2022-07-10T10:01:36Z</time>
      </trkpt>
      <trkpt lat="49.84687" lon="2.58178">
        <ele>95.2</ele>
        <time>2022-07-10T10:01:37Z</time>
      </trkpt>
      <trkpt lat="49.84687" lon="2.58178">
        <ele>95.2</ele>
        <time>2022-07-10T10:01:38Z</time>
      </trkpt>
      <trkpt lat="49.84687" lon="2.58178">
        <ele>95.2</ele>
        <time>2022-07-10T10:01:39Z</time>
      </trkpt>
      <trkpt lat="49.84687" lon="2.58178">
        <ele>95.2</ele>
        <time>2022-07-10T10:01:40Z</time>
      </trkpt>
      <trkpt lat="49.84687" lon="2.58178">
        <ele>95.2</ele>
        <time>2022-07-10T10:01:41Z</time>
      </trkpt>
      <trkpt lat="49.84687" lon="2.58177">
        <ele>95.2</ele>
        <time>2022-07-10T10:01:42Z</time>
      </trkpt>
      <trkpt lat="49.84687" lon="2.58177">
        <ele>95.2</ele>
        <time>2022-07-10T10:01:43Z</time>
      </trkpt>
      <trkpt lat="49.84687" lon="2.58177">
        <ele>95.2</ele>
        <time>2022-07-10T10:01:44Z</time>
      </trkpt>
      <trkpt lat="49.84686" lon="2.58178">
        <ele>95.2</ele>
        <time>2022-07-10T10:01:45Z</time>
      </trkpt>
      <trkpt lat="49.84686" lon="2.5818">
        <ele>95.2</ele>
        <time>2022-07-10T10:01:47Z</time>
      </trkpt>
      <trkpt lat="49.84686" lon="2.58182">
        <ele>95.2</ele>
        <time>2022-07-10T10:01:48Z</time>
      </trkpt>
      <trkpt lat="49.84687" lon="2.58185">
        <ele>95.1</ele>
        <time>2022-07-10T10:01:50Z</time>
      </trkpt>
      <trkpt lat="49.84687" lon="2.58187">
        <ele>95.1</ele>
        <time>2022-07-10T10:01:51Z</time>
      </trkpt>
      <trkpt lat="49.84688" lon="2.58189">
        <ele>95.1</ele>
        <time>2022-07-10T10:01:52Z</time>
      </trkpt>
      <trkpt lat="49.84688" lon="2.58193">
        <ele>95.1</ele>
        <time>2022-07-10T10:01:53Z</time>
      </trkpt>
      <trkpt lat="49.84688" lon="2.58194">
        <ele>95.1</ele>
        <time>2022-07-10T10:01:55Z</time>
      </trkpt>
      <trkpt lat="49.84688" lon="2.58195">
        <ele>95.1</ele>
        <time>2022-07-10T10:01:56Z</time>
      </trkpt>
      <trkpt lat="49.84688" lon="2.58197">
        <ele>95.1</ele>
        <time>2022-07-10T10:01:57Z</time>
      </trkpt>
      <trkpt lat="49.84688" lon="2.58199">
        <ele>95.1</ele>
        <time>2022-07-10T10:01:58Z</time>
      </trkpt>
      <trkpt lat="49.84688" lon="2.582">
        <ele>95.1</ele>
        <time>2022-07-10T10:01:59Z</time>
      </trkpt>
      <trkpt lat="49.84688" lon="2.58201">
        <ele>95.1</ele>
        <time>2022-07-10T10:02:01Z</time>
      </trkpt>
      <trkpt lat="49.84687" lon="2.58202">
        <ele>95.1</ele>
        <time>2022-07-10T10:02:02Z</time>
      </trkpt>
      <trkpt lat="49.84687" lon="2.58204">
        <ele>95.1</ele>
        <time>2022-07-10T10:02:04Z</time>
      </trkpt>
      <trkpt lat="49.84687" lon="2.58204">
        <ele>95.1</ele>
        <time>2022-07-10T10:02:05Z</time>
      </trkpt>
      <trkpt lat="49.84687" lon="2.58204">
        <ele>95.1</ele>
        <time>2022-07-10T10:02:06Z</time>
      </trkpt>
      <trkpt lat="49.84687" lon="2.58204">
        <ele>95.1</ele>
        <time>2022-07-10T10:02:07Z</time>
      </trkpt>
      <trkpt lat="49.84687" lon="2.58204">
        <ele>95.1</ele>
        <time>2022-07-10T10:02:08Z</time>
      </trkpt>
      <trkpt lat="49.84687" lon="2.58203">
        <ele>95.1</ele>
        <time>2022-07-10T10:02:09Z</time>
      </trkpt>
      <trkpt lat="49.84687" lon="2.58203">
        <ele>95.1</ele>
        <time>2022-07-10T10:02:10Z</time>
      </trkpt>
      <trkpt lat="49.84687" lon="2.58203">
        <ele>95.1</ele>
        <time>2022-07-10T10:02:11Z</time>
      </trkpt>
      <trkpt lat="49.84687" lon="2.58203">
        <ele>95.1</ele>
        <time>2022-07-10T10:02:12Z</time>
      </trkpt>
      <trkpt lat="49.84687" lon="2.58202">
        <ele>95.1</ele>
        <time>2022-07-10T10:02:14Z</time>
      </trkpt>
      <trkpt lat="49.84687" lon="2.58202">
        <ele>95.1</ele>
        <time>2022-07-10T10:02:15Z</time>
      </trkpt>
      <trkpt lat="49.84687" lon="2.58202">
        <ele>95.1</ele>
        <time>2022-07-10T10:02:16Z</time>
      </trkpt>
      <trkpt lat="49.84687" lon="2.58201">
        <ele>95.1</ele>
        <time>2022-07-10T10:02:18Z</time>
      </trkpt>
      <trkpt lat="49.84687" lon="2.58201">
        <ele>95.1</ele>
        <time>2022-07-10T10:02:19Z</time>
      </trkpt>
      <trkpt lat="49.84687" lon="2.58201">
        <ele>95.1</ele>
        <time>2022-07-10T10:02:20Z</time>
      </trkpt>
      <trkpt lat="49.84687" lon="2.58201">
        <ele>95</ele>
        <time>2022-07-10T10:02:21Z</time>
      </trkpt>
      <trkpt lat="49.84687" lon="2.58203">
        <ele>95</ele>
        <time>2022-07-10T10:02:23Z</time>
      </trkpt>
      <trkpt lat="49.84687" lon="2.58204">
        <ele>95</ele>
        <time>2022-07-10T10:02:24Z</time>
      </trkpt>
      <trkpt lat="49.84687" lon="2.58206">
        <ele>95</ele>
        <time>2022-07-10T10:02:25Z</time>
      </trkpt>
      <trkpt lat="49.84686" lon="2.58209">
        <ele>95</ele>
        <time>2022-07-10T10:02:26Z</time>
      </trkpt>
      <trkpt lat="49.84686" lon="2.58211">
        <ele>95</ele>
        <time>2022-07-10T10:02:27Z</time>
      </trkpt>
      <trkpt lat="49.84685" lon="2.58214">
        <ele>95</ele>
        <time>2022-07-10T10:02:28Z</time>
      </trkpt>
      <trkpt lat="49.84685" lon="2.58216">
        <ele>95</ele>
        <time>2022-07-10T10:02:29Z</time>
      </trkpt>
      <trkpt lat="49.84685" lon="2.58218">
        <ele>95</ele>
        <time>2022-07-10T10:02:30Z</time>
      </trkpt>
      <trkpt lat="49.84684" lon="2.5822">
        <ele>95</ele>
        <time>2022-07-10T10:02:32Z</time>
      </trkpt>
      <trkpt lat="49.84684" lon="2.58223">
        <ele>95</ele>
        <time>2022-07-10T10:02:33Z</time>
      </trkpt>
      <trkpt lat="49.84684" lon="2.58225">
        <ele>94.9</ele>
        <time>2022-07-10T10:02:34Z</time>
      </trkpt>
      <trkpt lat="49.84684" lon="2.58227">
        <ele>94.9</ele>
        <time>2022-07-10T10:02:35Z</time>
      </trkpt>
      <trkpt lat="49.84684" lon="2.58229">
        <ele>94.9</ele>
        <time>2022-07-10T10:02:37Z</time>
      </trkpt>
      <trkpt lat="49.84684" lon="2.5823">
        <ele>94.9</ele>
        <time>2022-07-10T10:02:38Z</time>
      </trkpt>
      <trkpt lat="49.84684" lon="2.58233">
        <ele>94.9</ele>
        <time>2022-07-10T10:02:40Z</time>
      </trkpt>
      <trkpt lat="49.84684" lon="2.58232">
        <ele>94.9</ele>
        <time>2022-07-10T10:02:41Z</time>
      </trkpt>
      <trkpt lat="49.84684" lon="2.58234">
        <ele>94.9</ele>
        <time>2022-07-10T10:02:42Z</time>
      </trkpt>
      <trkpt lat="49.84684" lon="2.58236">
        <ele>94.9</ele>
        <time>2022-07-10T10:02:43Z</time>
      </trkpt>
      <trkpt lat="49.84684" lon="2.58237">
        <ele>94.9</ele>
        <time>2022-07-10T10:02:44Z</time>
      </trkpt>
      <trkpt lat="49.84683" lon="2.58239">
        <ele>94.9</ele>
        <time>2022-07-10T10:02:45Z</time>
      </trkpt>
      <trkpt lat="49.84683" lon="2.58239">
        <ele>94.9</ele>
        <time>2022-07-10T10:02:46Z</time>
      </trkpt>
      <trkpt lat="49.84681" lon="2.58238">
        <ele>94.9</ele>
        <time>2022-07-10T10:02:47Z</time>
      </trkpt>
      <trkpt lat="49.8468" lon="2.58237">
        <ele>94.9</ele>
        <time>2022-07-10T10:02:48Z</time>
      </trkpt>
      <trkpt lat="49.8468" lon="2.58237">
        <ele>94.9</ele>
        <time>2022-07-10T10:02:49Z</time>
      </trkpt>
      <trkpt lat="49.8468" lon="2.58238">
        <ele>94.9</ele>
        <time>2022-07-10T10:02:50Z</time>
      </trkpt>
      <trkpt lat="49.8468" lon="2.58238">
        <ele>94.9</ele>
        <time>2022-07-10T10:02:51Z</time>
      </trkpt>
      <trkpt lat="49.8468" lon="2.58239">
        <ele>94.9</ele>
        <time>2022-07-10T10:02:52Z</time>
      </trkpt>
      <trkpt lat="49.8468" lon="2.58239">
        <ele>94.9</ele>
        <time>2022-07-10T10:02:53Z</time>
      </trkpt>
      <trkpt lat="49.8468" lon="2.5824">
        <ele>94.9</ele>
        <time>2022-07-10T10:02:54Z</time>
      </trkpt>
      <trkpt lat="49.84681" lon="2.5824">
        <ele>94.8</ele>
        <time>2022-07-10T10:02:55Z</time>
      </trkpt>
      <trkpt lat="49.84681" lon="2.58241">
        <ele>94.8</ele>
        <time>2022-07-10T10:02:56Z</time>
      </trkpt>
      <trkpt lat="49.84681" lon="2.58241">
        <ele>94.8</ele>
        <time>2022-07-10T10:02:57Z</time>
      </trkpt>
      <trkpt lat="49.84681" lon="2.58242">
        <ele>94.8</ele>
        <time>2022-07-10T10:02:58Z</time>
      </trkpt>
      <trkpt lat="49.84681" lon="2.58243">
        <ele>94.8</ele>
        <time>2022-07-10T10:03:00Z</time>
      </trkpt>
      <trkpt lat="49.84681" lon="2.58243">
        <ele>94.8</ele>
        <time>2022-07-10T10:03:01Z</time>
      </trkpt>
      <trkpt lat="49.84682" lon="2.58248">
        <ele>94.8</ele>
        <time>2022-07-10T10:03:02Z</time>
      </trkpt>
      <trkpt lat="49.84682" lon="2.58251">
        <ele>94.8</ele>
        <time>2022-07-10T10:03:03Z</time>
      </trkpt>
      <trkpt lat="49.84682" lon="2.58253">
        <ele>94.8</ele>
        <time>2022-07-10T10:03:05Z</time>
      </trkpt>
      <trkpt lat="49.84682" lon="2.58256">
        <ele>94.8</ele>
        <time>2022-07-10T10:03:06Z</time>
      </trkpt>
      <trkpt lat="49.84682" lon="2.58258">
        <ele>94.7</ele>
        <time>2022-07-10T10:03:07Z</time>
      </trkpt>
      <trkpt lat="49.84682" lon="2.5826">
        <ele>94.7</ele>
        <time>2022-07-10T10:03:08Z</time>
      </trkpt>
      <trkpt lat="49.84682" lon="2.58261">
        <ele>94.7</ele>
        <time>2022-07-10T10:03:09Z</time>
      </trkpt>
      <trkpt lat="49.84682" lon="2.58261">
        <ele>94.7</ele>
        <time>2022-07-10T10:03:10Z</time>
      </trkpt>
      <trkpt lat="49.84683" lon="2.58262">
        <ele>94.7</ele>
        <time>2022-07-10T10:03:11Z</time>
      </trkpt>
      <trkpt lat="49.84683" lon="2.58262">
        <ele>94.7</ele>
        <time>2022-07-10T10:03:12Z</time>
      </trkpt>
      <trkpt lat="49.84683" lon="2.58262">
        <ele>94.7</ele>
        <time>2022-07-10T10:03:13Z</time>
      </trkpt>
      <trkpt lat="49.84683" lon="2.58262">
        <ele>94.7</ele>
        <time>2022-07-10T10:03:14Z</time>
      </trkpt>
      <trkpt lat="49.84683" lon="2.58262">
        <ele>94.7</ele>
        <time>2022-07-10T10:03:15Z</time>
      </trkpt>
      <trkpt lat="49.84683" lon="2.58262">
        <ele>94.7</ele>
        <time>2022-07-10T10:03:16Z</time>
      </trkpt>
      <trkpt lat="49.84683" lon="2.58262">
        <ele>94.7</ele>
        <time>2022-07-10T10:03:17Z</time>
      </trkpt>
      <trkpt lat="49.84683" lon="2.58262">
        <ele>94.7</ele>
        <time>2022-07-10T10:03:18Z</time>
      </trkpt>
      <trkpt lat="49.84683" lon="2.58262">
        <ele>94.7</ele>
        <time>2022-07-10T10:03:19Z</time>
      </trkpt>
      <trkpt lat="49.84683" lon="2.58262">
        <ele>94.7</ele>
        <time>2022-07-10T10:03:20Z</time>
      </trkpt>
      <trkpt lat="49.84683" lon="2.58263">
        <ele>94.7</ele>
        <time>2022-07-10T10:03:22Z</time>
      </trkpt>
      <trkpt lat="49.84683" lon="2.58264">
        <ele>94.7</ele>
        <time>2022-07-10T10:03:23Z</time>
      </trkpt>
      <trkpt lat="49.84682" lon="2.58266">
        <ele>94.7</ele>
        <time>2022-07-10T10:03:24Z</time>
      </trkpt>
      <trkpt lat="49.84682" lon="2.5827">
        <ele>94.7</ele>
        <time>2022-07-10T10:03:25Z</time>
      </trkpt>
      <trkpt lat="49.84682" lon="2.58272">
        <ele>94.7</ele>
        <time>2022-07-10T10:03:26Z</time>
      </trkpt>
      <trkpt lat="49.84682" lon="2.58273">
        <ele>94.7</ele>
        <time>2022-07-10T10:03:27Z</time>
      </trkpt>
      <trkpt lat="49.84682" lon="2.58276">
        <ele>94.6</ele>
        <time>2022-07-10T10:03:29Z</time>
      </trkpt>
      <trkpt lat="49.84682" lon="2.58278">
        <ele>94.6</ele>
        <time>2022-07-10T10:03:30Z</time>
      </trkpt>
      <trkpt lat="49.84682" lon="2.58279">
        <ele>94.6</ele>
        <time>2022-07-10T10:03:31Z</time>
      </trkpt>
      <trkpt lat="49.84681" lon="2.58281">
        <ele>94.6</ele>
        <time>2022-07-10T10:03:32Z</time>
      </trkpt>
      <trkpt lat="49.84681" lon="2.58284">
        <ele>94.6</ele>
        <time>2022-07-10T10:03:33Z</time>
      </trkpt>
      <trkpt lat="49.8468" lon="2.58286">
        <ele>94.6</ele>
        <time>2022-07-10T10:03:34Z</time>
      </trkpt>
      <trkpt lat="49.8468" lon="2.58287">
        <ele>94.6</ele>
        <time>2022-07-10T10:03:35Z</time>
      </trkpt>
      <trkpt lat="49.8468" lon="2.58289">
        <ele>94.6</ele>
        <time>2022-07-10T10:03:37Z</time>
      </trkpt>
      <trkpt lat="49.84679" lon="2.58293">
        <ele>94.6</ele>
        <time>2022-07-10T10:03:38Z</time>
      </trkpt>
      <trkpt lat="49.84679" lon="2.58294">
        <ele>94.6</ele>
        <time>2022-07-10T10:03:39Z</time>
      </trkpt>
      <trkpt lat="49.84679" lon="2.58295">
        <ele>94.6</ele>
        <time>2022-07-10T10:03:40Z</time>
      </trkpt>
      <trkpt lat="49.84679" lon="2.58297">
        <ele>94.6</ele>
        <time>2022-07-10T10:03:41Z</time>
      </trkpt>
      <trkpt lat="49.84679" lon="2.583">
        <ele>94.6</ele>
        <time>2022-07-10T10:03:42Z</time>
      </trkpt>
      <trkpt lat="49.84679" lon="2.58302">
        <ele>94.6</ele>
        <time>2022-07-10T10:03:43Z</time>
      </trkpt>
      <trkpt lat="49.84679" lon="2.58304">
        <ele>94.6</ele>
        <time>2022-07-10T10:03:44Z</time>
      </trkpt>
      <trkpt lat="49.84679" lon="2.58306">
        <ele>94.6</ele>
        <time>2022-07-10T10:03:46Z</time>
      </trkpt>
      <trkpt lat="49.84679" lon="2.58307">
        <ele>94.6</ele>
        <time>2022-07-10T10:03:47Z</time>
      </trkpt>
      <trkpt lat="49.84679" lon="2.58309">
        <ele>94.6</ele>
        <time>2022-07-10T10:03:48Z</time>
      </trkpt>
      <trkpt lat="49.84679" lon="2.58311">
        <ele>94.6</ele>
        <time>2022-07-10T10:03:49Z</time>
      </trkpt>
      <trkpt lat="49.84679" lon="2.58314">
        <ele>94.6</ele>
        <time>2022-07-10T10:03:50Z</time>
      </trkpt>
      <trkpt lat="49.84679" lon="2.58315">
        <ele>94.6</ele>
        <time>2022-07-10T10:03:51Z</time>
      </trkpt>
      <trkpt lat="49.84678" lon="2.58317">
        <ele>94.6</ele>
        <time>2022-07-10T10:03:52Z</time>
      </trkpt>
      <trkpt lat="49.84678" lon="2.5832">
        <ele>94.6</ele>
        <time>2022-07-10T10:03:53Z</time>
      </trkpt>
      <trkpt lat="49.84678" lon="2.58321">
        <ele>94.6</ele>
        <time>2022-07-10T10:03:54Z</time>
      </trkpt>
      <trkpt lat="49.84678" lon="2.58323">
        <ele>94.6</ele>
        <time>2022-07-10T10:03:56Z</time>
      </trkpt>
      <trkpt lat="49.84677" lon="2.58324">
        <ele>94.6</ele>
        <time>2022-07-10T10:03:57Z</time>
      </trkpt>
      <trkpt lat="49.84677" lon="2.58326">
        <ele>94.6</ele>
        <time>2022-07-10T10:03:58Z</time>
      </trkpt>
      <trkpt lat="49.84677" lon="2.58327">
        <ele>94.6</ele>
        <time>2022-07-10T10:03:59Z</time>
      </trkpt>
      <trkpt lat="49.84676" lon="2.58331">
        <ele>94.6</ele>
        <time>2022-07-10T10:04:00Z</time>
      </trkpt>
      <trkpt lat="49.84676" lon="2.58332">
        <ele>94.6</ele>
        <time>2022-07-10T10:04:01Z</time>
      </trkpt>
      <trkpt lat="49.84676" lon="2.58333">
        <ele>94.6</ele>
        <time>2022-07-10T10:04:02Z</time>
      </trkpt>
      <trkpt lat="49.84675" lon="2.58335">
        <ele>94.6</ele>
        <time>2022-07-10T10:04:03Z</time>
      </trkpt>
      <trkpt lat="49.84675" lon="2.58337">
        <ele>94.6</ele>
        <time>2022-07-10T10:04:04Z</time>
      </trkpt>
      <trkpt lat="49.84674" lon="2.58338">
        <ele>94.5</ele>
        <time>2022-07-10T10:04:06Z</time>
      </trkpt>
      <trkpt lat="49.84674" lon="2.5834">
        <ele>94.5</ele>
        <time>2022-07-10T10:04:07Z</time>
      </trkpt>
      <trkpt lat="49.84673" lon="2.58342">
        <ele>94.5</ele>
        <time>2022-07-10T10:04:08Z</time>
      </trkpt>
      <trkpt lat="49.84673" lon="2.58344">
        <ele>94.5</ele>
        <time>2022-07-10T10:04:09Z</time>
      </trkpt>
      <trkpt lat="49.84673" lon="2.58346">
        <ele>94.5</ele>
        <time>2022-07-10T10:04:10Z</time>
      </trkpt>
      <trkpt lat="49.84672" lon="2.58347">
        <ele>94.5</ele>
        <time>2022-07-10T10:04:11Z</time>
      </trkpt>
      <trkpt lat="49.84672" lon="2.5835">
        <ele>94.5</ele>
        <time>2022-07-10T10:04:12Z</time>
      </trkpt>
      <trkpt lat="49.84672" lon="2.58351">
        <ele>94.5</ele>
        <time>2022-07-10T10:04:13Z</time>
      </trkpt>
      <trkpt lat="49.84672" lon="2.58353">
        <ele>94.5</ele>
        <time>2022-07-10T10:04:15Z</time>
      </trkpt>
      <trkpt lat="49.84672" lon="2.58354">
        <ele>94.4</ele>
        <time>2022-07-10T10:04:16Z</time>
      </trkpt>
      <trkpt lat="49.84672" lon="2.58356">
        <ele>94.4</ele>
        <time>2022-07-10T10:04:17Z</time>
      </trkpt>
      <trkpt lat="49.84672" lon="2.58359">
        <ele>94.4</ele>
        <time>2022-07-10T10:04:19Z</time>
      </trkpt>
      <trkpt lat="49.84672" lon="2.5836">
        <ele>94.4</ele>
        <time>2022-07-10T10:04:20Z</time>
      </trkpt>
      <trkpt lat="49.84672" lon="2.58362">
        <ele>94.4</ele>
        <time>2022-07-10T10:04:21Z</time>
      </trkpt>
      <trkpt lat="49.84671" lon="2.58364">
        <ele>94.4</ele>
        <time>2022-07-10T10:04:22Z</time>
      </trkpt>
      <trkpt lat="49.84671" lon="2.58367">
        <ele>94.3</ele>
        <time>2022-07-10T10:04:23Z</time>
      </trkpt>
      <trkpt lat="49.84671" lon="2.58368">
        <ele>94.3</ele>
        <time>2022-07-10T10:04:24Z</time>
      </trkpt>
      <trkpt lat="49.84671" lon="2.58369">
        <ele>94.3</ele>
        <time>2022-07-10T10:04:25Z</time>
      </trkpt>
      <trkpt lat="49.84671" lon="2.58372">
        <ele>94.3</ele>
        <time>2022-07-10T10:04:27Z</time>
      </trkpt>
      <trkpt lat="49.8467" lon="2.58375">
        <ele>94.3</ele>
        <time>2022-07-10T10:04:28Z</time>
      </trkpt>
      <trkpt lat="49.8467" lon="2.58376">
        <ele>94.3</ele>
        <time>2022-07-10T10:04:29Z</time>
      </trkpt>
      <trkpt lat="49.84671" lon="2.58378">
        <ele>94.3</ele>
        <time>2022-07-10T10:04:31Z</time>
      </trkpt>
      <trkpt lat="49.84671" lon="2.5838">
        <ele>94.3</ele>
        <time>2022-07-10T10:04:32Z</time>
      </trkpt>
      <trkpt lat="49.84672" lon="2.58382">
        <ele>94.2</ele>
        <time>2022-07-10T10:04:33Z</time>
      </trkpt>
      <trkpt lat="49.84673" lon="2.58383">
        <ele>94.2</ele>
        <time>2022-07-10T10:04:34Z</time>
      </trkpt>
      <trkpt lat="49.84674" lon="2.58385">
        <ele>94.2</ele>
        <time>2022-07-10T10:04:36Z</time>
      </trkpt>
      <trkpt lat="49.84674" lon="2.58387">
        <ele>94.2</ele>
        <time>2022-07-10T10:04:37Z</time>
      </trkpt>
      <trkpt lat="49.84675" lon="2.58388">
        <ele>94.2</ele>
        <time>2022-07-10T10:04:38Z</time>
      </trkpt>
      <trkpt lat="49.84675" lon="2.58392">
        <ele>94.2</ele>
        <time>2022-07-10T10:04:40Z</time>
      </trkpt>
      <trkpt lat="49.84673" lon="2.58391">
        <ele>94.2</ele>
        <time>2022-07-10T10:04:41Z</time>
      </trkpt>
      <trkpt lat="49.84672" lon="2.58391">
        <ele>94.2</ele>
        <time>2022-07-10T10:04:43Z</time>
      </trkpt>
      <trkpt lat="49.84672" lon="2.5839">
        <ele>94.2</ele>
        <time>2022-07-10T10:04:44Z</time>
      </trkpt>
      <trkpt lat="49.84672" lon="2.5839">
        <ele>94.2</ele>
        <time>2022-07-10T10:04:45Z</time>
      </trkpt>
      <trkpt lat="49.84672" lon="2.5839">
        <ele>94.2</ele>
        <time>2022-07-10T10:04:46Z</time>
      </trkpt>
      <trkpt lat="49.84672" lon="2.58391">
        <ele>94.2</ele>
        <time>2022-07-10T10:04:47Z</time>
      </trkpt>
      <trkpt lat="49.84672" lon="2.58391">
        <ele>94.2</ele>
        <time>2022-07-10T10:04:48Z</time>
      </trkpt>
      <trkpt lat="49.84673" lon="2.58392">
        <ele>94.2</ele>
        <time>2022-07-10T10:04:49Z</time>
      </trkpt>
      <trkpt lat="49.84673" lon="2.58392">
        <ele>94.2</ele>
        <time>2022-07-10T10:04:50Z</time>
      </trkpt>
      <trkpt lat="49.84673" lon="2.58392">
        <ele>94.2</ele>
        <time>2022-07-10T10:04:51Z</time>
      </trkpt>
      <trkpt lat="49.84673" lon="2.58393">
        <ele>94.2</ele>
        <time>2022-07-10T10:04:52Z</time>
      </trkpt>
      <trkpt lat="49.84673" lon="2.58393">
        <ele>94.2</ele>
        <time>2022-07-10T10:04:53Z</time>
      </trkpt>
      <trkpt lat="49.84673" lon="2.58394">
        <ele>94.2</ele>
        <time>2022-07-10T10:04:54Z</time>
      </trkpt>
      <trkpt lat="49.84673" lon="2.58394">
        <ele>94.2</ele>
        <time>2022-07-10T10:04:55Z</time>
      </trkpt>
      <trkpt lat="49.84673" lon="2.58395">
        <ele>94.2</ele>
        <time>2022-07-10T10:04:56Z</time>
      </trkpt>
      <trkpt lat="49.84673" lon="2.58395">
        <ele>94.2</ele>
        <time>2022-07-10T10:04:57Z</time>
      </trkpt>
      <trkpt lat="49.84674" lon="2.58395">
        <ele>94.2</ele>
        <time>2022-07-10T10:04:58Z</time>
      </trkpt>
      <trkpt lat="49.84674" lon="2.58396">
        <ele>94.2</ele>
        <time>2022-07-10T10:04:59Z</time>
      </trkpt>
      <trkpt lat="49.84674" lon="2.58398">
        <ele>94.2</ele>
        <time>2022-07-10T10:05:00Z</time>
      </trkpt>
      <trkpt lat="49.84674" lon="2.58401">
        <ele>94.2</ele>
        <time>2022-07-10T10:05:01Z</time>
      </trkpt>
      <trkpt lat="49.84673" lon="2.58403">
        <ele>94.2</ele>
        <time>2022-07-10T10:05:03Z</time>
      </trkpt>
      <trkpt lat="49.84673" lon="2.58406">
        <ele>94.2</ele>
        <time>2022-07-10T10:05:04Z</time>
      </trkpt>
      <trkpt lat="49.84672" lon="2.58408">
        <ele>94.2</ele>
        <time>2022-07-10T10:05:05Z</time>
      </trkpt>
      <trkpt lat="49.84672" lon="2.58411">
        <ele>94.2</ele>
        <time>2022-07-10T10:05:06Z</time>
      </trkpt>
      <trkpt lat="49.84671" lon="2.58412">
        <ele>94.2</ele>
        <time>2022-07-10T10:05:07Z</time>
      </trkpt>
      <trkpt lat="49.84671" lon="2.58414">
        <ele>94.2</ele>
        <time>2022-07-10T10:05:08Z</time>
      </trkpt>
      <trkpt lat="49.84671" lon="2.58417">
        <ele>94.2</ele>
        <time>2022-07-10T10:05:10Z</time>
      </trkpt>
      <trkpt lat="49.84671" lon="2.58417">
        <ele>94.2</ele>
        <time>2022-07-10T10:05:11Z</time>
      </trkpt>
      <trkpt lat="49.8467" lon="2.58419">
        <ele>94.2</ele>
        <time>2022-07-10T10:05:12Z</time>
      </trkpt>
      <trkpt lat="49.8467" lon="2.58421">
        <ele>94.2</ele>
        <time>2022-07-10T10:05:14Z</time>
      </trkpt>
      <trkpt lat="49.8467" lon="2.58423">
        <ele>94.2</ele>
        <time>2022-07-10T10:05:15Z</time>
      </trkpt>
      <trkpt lat="49.8467" lon="2.58425">
        <ele>94.2</ele>
        <time>2022-07-10T10:05:16Z</time>
      </trkpt>
      <trkpt lat="49.8467" lon="2.58427">
        <ele>94.2</ele>
        <time>2022-07-10T10:05:17Z</time>
      </trkpt>
      <trkpt lat="49.84669" lon="2.58429">
        <ele>94.2</ele>
        <time>2022-07-10T10:05:18Z</time>
      </trkpt>
      <trkpt lat="49.84669" lon="2.58432">
        <ele>94.2</ele>
        <time>2022-07-10T10:05:19Z</time>
      </trkpt>
      <trkpt lat="49.84669" lon="2.58434">
        <ele>94.2</ele>
        <time>2022-07-10T10:05:20Z</time>
      </trkpt>
      <trkpt lat="49.84669" lon="2.58436">
        <ele>94.2</ele>
        <time>2022-07-10T10:05:21Z</time>
      </trkpt>
      <trkpt lat="49.84669" lon="2.58437">
        <ele>94.2</ele>
        <time>2022-07-10T10:05:22Z</time>
      </trkpt>
      <trkpt lat="49.84669" lon="2.58438">
        <ele>94.2</ele>
        <time>2022-07-10T10:05:23Z</time>
      </trkpt>
      <trkpt lat="49.84669" lon="2.58439">
        <ele>94.2</ele>
        <time>2022-07-10T10:05:24Z</time>
      </trkpt>
      <trkpt lat="49.84669" lon="2.58441">
        <ele>94.2</ele>
        <time>2022-07-10T10:05:25Z</time>
      </trkpt>
      <trkpt lat="49.84669" lon="2.58444">
        <ele>94.2</ele>
        <time>2022-07-10T10:05:27Z</time>
      </trkpt>
      <trkpt lat="49.84668" lon="2.58446">
        <ele>94.2</ele>
        <time>2022-07-10T10:05:28Z</time>
      </trkpt>
      <trkpt lat="49.84668" lon="2.58449">
        <ele>94.2</ele>
        <time>2022-07-10T10:05:29Z</time>
      </trkpt>
      <trkpt lat="49.84668" lon="2.58451">
        <ele>94.2</ele>
        <time>2022-07-10T10:05:30Z</time>
      </trkpt>
      <trkpt lat="49.84668" lon="2.58454">
        <ele>94.2</ele>
        <time>2022-07-10T10:05:31Z</time>
      </trkpt>
      <trkpt lat="49.84668" lon="2.58457">
        <ele>94.2</ele>
        <time>2022-07-10T10:05:32Z</time>
      </trkpt>
      <trkpt lat="49.84668" lon="2.58459">
        <ele>94.2</ele>
        <time>2022-07-10T10:05:33Z</time>
      </trkpt>
      <trkpt lat="49.84668" lon="2.58462">
        <ele>94.2</ele>
        <time>2022-07-10T10:05:34Z</time>
      </trkpt>
      <trkpt lat="49.84667" lon="2.58466">
        <ele>94.2</ele>
        <time>2022-07-10T10:05:36Z</time>
      </trkpt>
      <trkpt lat="49.84667" lon="2.58467">
        <ele>94.2</ele>
        <time>2022-07-10T10:05:37Z</time>
      </trkpt>
      <trkpt lat="49.84667" lon="2.58469">
        <ele>94.2</ele>
        <time>2022-07-10T10:05:38Z</time>
      </trkpt>
      <trkpt lat="49.84667" lon="2.5847">
        <ele>94.2</ele>
        <time>2022-07-10T10:05:39Z</time>
      </trkpt>
      <trkpt lat="49.84667" lon="2.58471">
        <ele>94.2</ele>
        <time>2022-07-10T10:05:40Z</time>
      </trkpt>
      <trkpt lat="49.84667" lon="2.58472">
        <ele>94.2</ele>
        <time>2022-07-10T10:05:42Z</time>
      </trkpt>
      <trkpt lat="49.84667" lon="2.58472">
        <ele>94.2</ele>
        <time>2022-07-10T10:05:43Z</time>
      </trkpt>
      <trkpt lat="49.84666" lon="2.58473">
        <ele>94.2</ele>
        <time>2022-07-10T10:05:44Z</time>
      </trkpt>
      <trkpt lat="49.84666" lon="2.58474">
        <ele>94.2</ele>
        <time>2022-07-10T10:05:45Z</time>
      </trkpt>
      <trkpt lat="49.84666" lon="2.58476">
        <ele>94.2</ele>
        <time>2022-07-10T10:05:46Z</time>
      </trkpt>
      <trkpt lat="49.84666" lon="2.58477">
        <ele>94.2</ele>
        <time>2022-07-10T10:05:47Z</time>
      </trkpt>
      <trkpt lat="49.84666" lon="2.58478">
        <ele>94.2</ele>
        <time>2022-07-10T10:05:49Z</time>
      </trkpt>
      <trkpt lat="49.84666" lon="2.58479">
        <ele>94.2</ele>
        <time>2022-07-10T10:05:50Z</time>
      </trkpt>
      <trkpt lat="49.84666" lon="2.58481">
        <ele>94.2</ele>
        <time>2022-07-10T10:05:51Z</time>
      </trkpt>
      <trkpt lat="49.84666" lon="2.58482">
        <ele>94.2</ele>
        <time>2022-07-10T10:05:52Z</time>
      </trkpt>
      <trkpt lat="49.84666" lon="2.58484">
        <ele>94.2</ele>
        <time>2022-07-10T10:05:53Z</time>
      </trkpt>
      <trkpt lat="49.84666" lon="2.58486">
        <ele>94.1</ele>
        <time>2022-07-10T10:05:54Z</time>
      </trkpt>
      <trkpt lat="49.84666" lon="2.58488">
        <ele>94.1</ele>
        <time>2022-07-10T10:05:55Z</time>
      </trkpt>
      <trkpt lat="49.84666" lon="2.5849">
        <ele>94.1</ele>
        <time>2022-07-10T10:05:56Z</time>
      </trkpt>
      <trkpt lat="49.84666" lon="2.58491">
        <ele>94.1</ele>
        <time>2022-07-10T10:05:57Z</time>
      </trkpt>
      <trkpt lat="49.84666" lon="2.58493">
        <ele>94.1</ele>
        <time>2022-07-10T10:05:59Z</time>
      </trkpt>
      <trkpt lat="49.84666" lon="2.58495">
        <ele>94.1</ele>
        <time>2022-07-10T10:06:00Z</time>
      </trkpt>
      <trkpt lat="49.84666" lon="2.58497">
        <ele>94.1</ele>
        <time>2022-07-10T10:06:01Z</time>
      </trkpt>
      <trkpt lat="49.84666" lon="2.58499">
        <ele>94.1</ele>
        <time>2022-07-10T10:06:02Z</time>
      </trkpt>
      <trkpt lat="49.84666" lon="2.58502">
        <ele>94.1</ele>
        <time>2022-07-10T10:06:03Z</time>
      </trkpt>
      <trkpt lat="49.84665" lon="2.58504">
        <ele>94.1</ele>
        <time>2022-07-10T10:06:04Z</time>
      </trkpt>
      <trkpt lat="49.84665" lon="2.58506">
        <ele>94.1</ele>
        <time>2022-07-10T10:06:05Z</time>
      </trkpt>
      <trkpt lat="49.84665" lon="2.58509">
        <ele>94.1</ele>
        <time>2022-07-10T10:06:06Z</time>
      </trkpt>
      <trkpt lat="49.84665" lon="2.5851">
        <ele>94.1</ele>
        <time>2022-07-10T10:06:08Z</time>
      </trkpt>
      <trkpt lat="49.84665" lon="2.58512">
        <ele>94.1</ele>
        <time>2022-07-10T10:06:09Z</time>
      </trkpt>
      <trkpt lat="49.84664" lon="2.58514">
        <ele>94</ele>
        <time>2022-07-10T10:06:10Z</time>
      </trkpt>
      <trkpt lat="49.84664" lon="2.58515">
        <ele>94</ele>
        <time>2022-07-10T10:06:12Z</time>
      </trkpt>
      <trkpt lat="49.84663" lon="2.58517">
        <ele>94</ele>
        <time>2022-07-10T10:06:13Z</time>
      </trkpt>
      <trkpt lat="49.84663" lon="2.58518">
        <ele>94</ele>
        <time>2022-07-10T10:06:14Z</time>
      </trkpt>
      <trkpt lat="49.84663" lon="2.5852">
        <ele>94</ele>
        <time>2022-07-10T10:06:15Z</time>
      </trkpt>
      <trkpt lat="49.84662" lon="2.58522">
        <ele>94</ele>
        <time>2022-07-10T10:06:16Z</time>
      </trkpt>
      <trkpt lat="49.84662" lon="2.58525">
        <ele>94</ele>
        <time>2022-07-10T10:06:18Z</time>
      </trkpt>
      <trkpt lat="49.84662" lon="2.58526">
        <ele>94</ele>
        <time>2022-07-10T10:06:19Z</time>
      </trkpt>
      <trkpt lat="49.84662" lon="2.58527">
        <ele>94</ele>
        <time>2022-07-10T10:06:20Z</time>
      </trkpt>
      <trkpt lat="49.84662" lon="2.58528">
        <ele>94</ele>
        <time>2022-07-10T10:06:21Z</time>
      </trkpt>
      <trkpt lat="49.84662" lon="2.58531">
        <ele>94</ele>
        <time>2022-07-10T10:06:22Z</time>
      </trkpt>
      <trkpt lat="49.84661" lon="2.58532">
        <ele>94</ele>
        <time>2022-07-10T10:06:24Z</time>
      </trkpt>
      <trkpt lat="49.84661" lon="2.58534">
        <ele>94</ele>
        <time>2022-07-10T10:06:25Z</time>
      </trkpt>
      <trkpt lat="49.84661" lon="2.58536">
        <ele>94</ele>
        <time>2022-07-10T10:06:26Z</time>
      </trkpt>
      <trkpt lat="49.84661" lon="2.58538">
        <ele>94</ele>
        <time>2022-07-10T10:06:27Z</time>
      </trkpt>
      <trkpt lat="49.8466" lon="2.58541">
        <ele>94</ele>
        <time>2022-07-10T10:06:28Z</time>
      </trkpt>
      <trkpt lat="49.8466" lon="2.58543">
        <ele>94</ele>
        <time>2022-07-10T10:06:29Z</time>
      </trkpt>
      <trkpt lat="49.8466" lon="2.58546">
        <ele>94</ele>
        <time>2022-07-10T10:06:31Z</time>
      </trkpt>
      <trkpt lat="49.8466" lon="2.58548">
        <ele>94</ele>
        <time>2022-07-10T10:06:32Z</time>
      </trkpt>
      <trkpt lat="49.84659" lon="2.58551">
        <ele>94</ele>
        <time>2022-07-10T10:06:33Z</time>
      </trkpt>
      <trkpt lat="49.84659" lon="2.58553">
        <ele>94</ele>
        <time>2022-07-10T10:06:34Z</time>
      </trkpt>
      <trkpt lat="49.84659" lon="2.58555">
        <ele>94</ele>
        <time>2022-07-10T10:06:35Z</time>
      </trkpt>
      <trkpt lat="49.84658" lon="2.58558">
        <ele>94</ele>
        <time>2022-07-10T10:06:36Z</time>
      </trkpt>
      <trkpt lat="49.84658" lon="2.58561">
        <ele>94</ele>
        <time>2022-07-10T10:06:37Z</time>
      </trkpt>
      <trkpt lat="49.84658" lon="2.58563">
        <ele>94</ele>
        <time>2022-07-10T10:06:38Z</time>
      </trkpt>
      <trkpt lat="49.84657" lon="2.58564">
        <ele>94</ele>
        <time>2022-07-10T10:06:40Z</time>
      </trkpt>
      <trkpt lat="49.84657" lon="2.58566">
        <ele>93.9</ele>
        <time>2022-07-10T10:06:41Z</time>
      </trkpt>
      <trkpt lat="49.84657" lon="2.58568">
        <ele>93.9</ele>
        <time>2022-07-10T10:06:42Z</time>
      </trkpt>
      <trkpt lat="49.84657" lon="2.5857">
        <ele>93.9</ele>
        <time>2022-07-10T10:06:44Z</time>
      </trkpt>
      <trkpt lat="49.84657" lon="2.58572">
        <ele>93.9</ele>
        <time>2022-07-10T10:06:45Z</time>
      </trkpt>
      <trkpt lat="49.84657" lon="2.58574">
        <ele>93.9</ele>
        <time>2022-07-10T10:06:46Z</time>
      </trkpt>
      <trkpt lat="49.84657" lon="2.58576">
        <ele>93.9</ele>
        <time>2022-07-10T10:06:47Z</time>
      </trkpt>
      <trkpt lat="49.84657" lon="2.58577">
        <ele>93.9</ele>
        <time>2022-07-10T10:06:48Z</time>
      </trkpt>
      <trkpt lat="49.84657" lon="2.58579">
        <ele>93.9</ele>
        <time>2022-07-10T10:06:49Z</time>
      </trkpt>
      <trkpt lat="49.84657" lon="2.58581">
        <ele>93.9</ele>
        <time>2022-07-10T10:06:50Z</time>
      </trkpt>
      <trkpt lat="49.84657" lon="2.58583">
        <ele>93.9</ele>
        <time>2022-07-10T10:06:52Z</time>
      </trkpt>
      <trkpt lat="49.84656" lon="2.58585">
        <ele>93.9</ele>
        <time>2022-07-10T10:06:53Z</time>
      </trkpt>
      <trkpt lat="49.84656" lon="2.58586">
        <ele>93.9</ele>
        <time>2022-07-10T10:06:54Z</time>
      </trkpt>
      <trkpt lat="49.84656" lon="2.58588">
        <ele>93.9</ele>
        <time>2022-07-10T10:06:55Z</time>
      </trkpt>
      <trkpt lat="49.84656" lon="2.58589">
        <ele>93.9</ele>
        <time>2022-07-10T10:06:56Z</time>
      </trkpt>
      <trkpt lat="49.84656" lon="2.58592">
        <ele>93.9</ele>
        <time>2022-07-10T10:06:57Z</time>
      </trkpt>
      <trkpt lat="49.84656" lon="2.58593">
        <ele>93.9</ele>
        <time>2022-07-10T10:06:58Z</time>
      </trkpt>
      <trkpt lat="49.84656" lon="2.58595">
        <ele>93.9</ele>
        <time>2022-07-10T10:06:59Z</time>
      </trkpt>
      <trkpt lat="49.84655" lon="2.58597">
        <ele>93.9</ele>
        <time>2022-07-10T10:07:00Z</time>
      </trkpt>
      <trkpt lat="49.84655" lon="2.58598">
        <ele>93.9</ele>
        <time>2022-07-10T10:07:01Z</time>
      </trkpt>
      <trkpt lat="49.84654" lon="2.58602">
        <ele>93.9</ele>
        <time>2022-07-10T10:07:02Z</time>
      </trkpt>
      <trkpt lat="49.84654" lon="2.58604">
        <ele>93.8</ele>
        <time>2022-07-10T10:07:04Z</time>
      </trkpt>
      <trkpt lat="49.84654" lon="2.58605">
        <ele>93.8</ele>
        <time>2022-07-10T10:07:05Z</time>
      </trkpt>
      <trkpt lat="49.84653" lon="2.58607">
        <ele>93.8</ele>
        <time>2022-07-10T10:07:06Z</time>
      </trkpt>
      <trkpt lat="49.84653" lon="2.58608">
        <ele>93.8</ele>
        <time>2022-07-10T10:07:07Z</time>
      </trkpt>
      <trkpt lat="49.84653" lon="2.5861">
        <ele>93.8</ele>
        <time>2022-07-10T10:07:08Z</time>
      </trkpt>
      <trkpt lat="49.84653" lon="2.58611">
        <ele>93.8</ele>
        <time>2022-07-10T10:07:09Z</time>
      </trkpt>
      <trkpt lat="49.84652" lon="2.58613">
        <ele>93.8</ele>
        <time>2022-07-10T10:07:10Z</time>
      </trkpt>
      <trkpt lat="49.84652" lon="2.58616">
        <ele>93.8</ele>
        <time>2022-07-10T10:07:12Z</time>
      </trkpt>
      <trkpt lat="49.84652" lon="2.58619">
        <ele>93.8</ele>
        <time>2022-07-10T10:07:14Z</time>
      </trkpt>
      <trkpt lat="49.84652" lon="2.58621">
        <ele>93.8</ele>
        <time>2022-07-10T10:07:15Z</time>
      </trkpt>
      <trkpt lat="49.84652" lon="2.58623">
        <ele>93.8</ele>
        <time>2022-07-10T10:07:16Z</time>
      </trkpt>
      <trkpt lat="49.84652" lon="2.58627">
        <ele>93.8</ele>
        <time>2022-07-10T10:07:17Z</time>
      </trkpt>
      <trkpt lat="49.84652" lon="2.58628">
        <ele>93.8</ele>
        <time>2022-07-10T10:07:18Z</time>
      </trkpt>
      <trkpt lat="49.84652" lon="2.58629">
        <ele>93.8</ele>
        <time>2022-07-10T10:07:19Z</time>
      </trkpt>
      <trkpt lat="49.84652" lon="2.58631">
        <ele>93.8</ele>
        <time>2022-07-10T10:07:20Z</time>
      </trkpt>
      <trkpt lat="49.84651" lon="2.58633">
        <ele>93.8</ele>
        <time>2022-07-10T10:07:21Z</time>
      </trkpt>
      <trkpt lat="49.84651" lon="2.58637">
        <ele>93.8</ele>
        <time>2022-07-10T10:07:23Z</time>
      </trkpt>
      <trkpt lat="49.84651" lon="2.58638">
        <ele>93.8</ele>
        <time>2022-07-10T10:07:24Z</time>
      </trkpt>
      <trkpt lat="49.84651" lon="2.5864">
        <ele>93.8</ele>
        <time>2022-07-10T10:07:25Z</time>
      </trkpt>
      <trkpt lat="49.8465" lon="2.58644">
        <ele>93.8</ele>
        <time>2022-07-10T10:07:26Z</time>
      </trkpt>
      <trkpt lat="49.8465" lon="2.58646">
        <ele>93.8</ele>
        <time>2022-07-10T10:07:27Z</time>
      </trkpt>
      <trkpt lat="49.8465" lon="2.58647">
        <ele>93.8</ele>
        <time>2022-07-10T10:07:28Z</time>
      </trkpt>
      <trkpt lat="49.8465" lon="2.58649">
        <ele>93.8</ele>
        <time>2022-07-10T10:07:29Z</time>
      </trkpt>
      <trkpt lat="49.84649" lon="2.58651">
        <ele>93.8</ele>
        <time>2022-07-10T10:07:30Z</time>
      </trkpt>
      <trkpt lat="49.84649" lon="2.58654">
        <ele>93.8</ele>
        <time>2022-07-10T10:07:32Z</time>
      </trkpt>
      <trkpt lat="49.84649" lon="2.58655">
        <ele>93.8</ele>
        <time>2022-07-10T10:07:33Z</time>
      </trkpt>
      <trkpt lat="49.84649" lon="2.58657">
        <ele>93.8</ele>
        <time>2022-07-10T10:07:34Z</time>
      </trkpt>
      <trkpt lat="49.84649" lon="2.5866">
        <ele>93.8</ele>
        <time>2022-07-10T10:07:35Z</time>
      </trkpt>
      <trkpt lat="49.84648" lon="2.58662">
        <ele>93.8</ele>
        <time>2022-07-10T10:07:36Z</time>
      </trkpt>
      <trkpt lat="49.84648" lon="2.58663">
        <ele>93.7</ele>
        <time>2022-07-10T10:07:37Z</time>
      </trkpt>
      <trkpt lat="49.84648" lon="2.58666">
        <ele>93.7</ele>
        <time>2022-07-10T10:07:38Z</time>
      </trkpt>
      <trkpt lat="49.84648" lon="2.58667">
        <ele>93.7</ele>
        <time>2022-07-10T10:07:39Z</time>
      </trkpt>
      <trkpt lat="49.84647" lon="2.58669">
        <ele>93.7</ele>
        <time>2022-07-10T10:07:40Z</time>
      </trkpt>
      <trkpt lat="49.84647" lon="2.58672">
        <ele>93.7</ele>
        <time>2022-07-10T10:07:41Z</time>
      </trkpt>
      <trkpt lat="49.84647" lon="2.58673">
        <ele>93.7</ele>
        <time>2022-07-10T10:07:42Z</time>
      </trkpt>
      <trkpt lat="49.84647" lon="2.58674">
        <ele>93.7</ele>
        <time>2022-07-10T10:07:43Z</time>
      </trkpt>
      <trkpt lat="49.84647" lon="2.58676">
        <ele>93.7</ele>
        <time>2022-07-10T10:07:44Z</time>
      </trkpt>
      <trkpt lat="49.84646" lon="2.58678">
        <ele>93.7</ele>
        <time>2022-07-10T10:07:45Z</time>
      </trkpt>
      <trkpt lat="49.84646" lon="2.58679">
        <ele>93.7</ele>
        <time>2022-07-10T10:07:46Z</time>
      </trkpt>
      <trkpt lat="49.84646" lon="2.58683">
        <ele>93.7</ele>
        <time>2022-07-10T10:07:48Z</time>
      </trkpt>
      <trkpt lat="49.84645" lon="2.58684">
        <ele>93.7</ele>
        <time>2022-07-10T10:07:49Z</time>
      </trkpt>
      <trkpt lat="49.84645" lon="2.58685">
        <ele>93.6</ele>
        <time>2022-07-10T10:07:50Z</time>
      </trkpt>
      <trkpt lat="49.84645" lon="2.58687">
        <ele>93.6</ele>
        <time>2022-07-10T10:07:51Z</time>
      </trkpt>
      <trkpt lat="49.84645" lon="2.5869">
        <ele>93.6</ele>
        <time>2022-07-10T10:07:52Z</time>
      </trkpt>
      <trkpt lat="49.84645" lon="2.58691">
        <ele>93.6</ele>
        <time>2022-07-10T10:07:53Z</time>
      </trkpt>
      <trkpt lat="49.84645" lon="2.58693">
        <ele>93.6</ele>
        <time>2022-07-10T10:07:54Z</time>
      </trkpt>
      <trkpt lat="49.84645" lon="2.58695">
        <ele>93.6</ele>
        <time>2022-07-10T10:07:55Z</time>
      </trkpt>
      <trkpt lat="49.84645" lon="2.58697">
        <ele>93.6</ele>
        <time>2022-07-10T10:07:57Z</time>
      </trkpt>
      <trkpt lat="49.84644" lon="2.587">
        <ele>93.6</ele>
        <time>2022-07-10T10:07:59Z</time>
      </trkpt>
      <trkpt lat="49.84644" lon="2.58702">
        <ele>93.6</ele>
        <time>2022-07-10T10:08:00Z</time>
      </trkpt>
      <trkpt lat="49.84644" lon="2.58703">
        <ele>93.6</ele>
        <time>2022-07-10T10:08:01Z</time>
      </trkpt>
      <trkpt lat="49.84644" lon="2.58704">
        <ele>93.6</ele>
        <time>2022-07-10T10:08:02Z</time>
      </trkpt>
      <trkpt lat="49.84644" lon="2.58705">
        <ele>93.6</ele>
        <time>2022-07-10T10:08:03Z</time>
      </trkpt>
      <trkpt lat="49.84644" lon="2.58705">
        <ele>93.6</ele>
        <time>2022-07-10T10:08:04Z</time>
      </trkpt>
      <trkpt lat="49.84644" lon="2.58705">
        <ele>93.6</ele>
        <time>2022-07-10T10:08:05Z</time>
      </trkpt>
      <trkpt lat="49.84644" lon="2.58706">
        <ele>93.6</ele>
        <time>2022-07-10T10:08:06Z</time>
      </trkpt>
      <trkpt lat="49.84644" lon="2.58706">
        <ele>93.6</ele>
        <time>2022-07-10T10:08:07Z</time>
      </trkpt>
      <trkpt lat="49.84644" lon="2.58706">
        <ele>93.6</ele>
        <time>2022-07-10T10:08:08Z</time>
      </trkpt>
      <trkpt lat="49.84644" lon="2.58706">
        <ele>93.6</ele>
        <time>2022-07-10T10:08:09Z</time>
      </trkpt>
      <trkpt lat="49.84644" lon="2.58706">
        <ele>93.6</ele>
        <time>2022-07-10T10:08:10Z</time>
      </trkpt>
      <trkpt lat="49.84643" lon="2.58707">
        <ele>93.6</ele>
        <time>2022-07-10T10:08:11Z</time>
      </trkpt>
      <trkpt lat="49.84643" lon="2.58707">
        <ele>93.6</ele>
        <time>2022-07-10T10:08:12Z</time>
      </trkpt>
      <trkpt lat="49.84643" lon="2.58707">
        <ele>93.6</ele>
        <time>2022-07-10T10:08:13Z</time>
      </trkpt>
      <trkpt lat="49.84643" lon="2.58707">
        <ele>93.6</ele>
        <time>2022-07-10T10:08:14Z</time>
      </trkpt>
      <trkpt lat="49.84643" lon="2.58707">
        <ele>93.6</ele>
        <time>2022-07-10T10:08:15Z</time>
      </trkpt>
      <trkpt lat="49.84643" lon="2.58708">
        <ele>93.6</ele>
        <time>2022-07-10T10:08:16Z</time>
      </trkpt>
      <trkpt lat="49.84643" lon="2.58708">
        <ele>93.6</ele>
        <time>2022-07-10T10:08:17Z</time>
      </trkpt>
      <trkpt lat="49.84643" lon="2.58708">
        <ele>93.6</ele>
        <time>2022-07-10T10:08:18Z</time>
      </trkpt>
      <trkpt lat="49.84643" lon="2.58708">
        <ele>93.6</ele>
        <time>2022-07-10T10:08:19Z</time>
      </trkpt>
      <trkpt lat="49.84643" lon="2.58708">
        <ele>93.5</ele>
        <time>2022-07-10T10:08:20Z</time>
      </trkpt>
      <trkpt lat="49.84643" lon="2.58709">
        <ele>93.5</ele>
        <time>2022-07-10T10:08:21Z</time>
      </trkpt>
      <trkpt lat="49.84643" lon="2.58709">
        <ele>93.5</ele>
        <time>2022-07-10T10:08:22Z</time>
      </trkpt>
      <trkpt lat="49.84643" lon="2.58709">
        <ele>93.5</ele>
        <time>2022-07-10T10:08:23Z</time>
      </trkpt>
      <trkpt lat="49.84643" lon="2.58709">
        <ele>93.5</ele>
        <time>2022-07-10T10:08:24Z</time>
      </trkpt>
      <trkpt lat="49.84643" lon="2.58709">
        <ele>93.5</ele>
        <time>2022-07-10T10:08:25Z</time>
      </trkpt>
      <trkpt lat="49.84643" lon="2.5871">
        <ele>93.5</ele>
        <time>2022-07-10T10:08:26Z</time>
      </trkpt>
      <trkpt lat="49.84643" lon="2.5871">
        <ele>93.5</ele>
        <time>2022-07-10T10:08:27Z</time>
      </trkpt>
      <trkpt lat="49.84643" lon="2.5871">
        <ele>93.5</ele>
        <time>2022-07-10T10:08:28Z</time>
      </trkpt>
      <trkpt lat="49.84643" lon="2.5871">
        <ele>93.5</ele>
        <time>2022-07-10T10:08:29Z</time>
      </trkpt>
      <trkpt lat="49.84643" lon="2.5871">
        <ele>93.5</ele>
        <time>2022-07-10T10:08:30Z</time>
      </trkpt>
      <trkpt lat="49.84643" lon="2.58711">
        <ele>93.5</ele>
        <time>2022-07-10T10:08:31Z</time>
      </trkpt>
      <trkpt lat="49.84643" lon="2.58714">
        <ele>93.5</ele>
        <time>2022-07-10T10:08:32Z</time>
      </trkpt>
      <trkpt lat="49.84643" lon="2.58715">
        <ele>93.5</ele>
        <time>2022-07-10T10:08:33Z</time>
      </trkpt>
      <trkpt lat="49.84642" lon="2.58719">
        <ele>93.5</ele>
        <time>2022-07-10T10:08:35Z</time>
      </trkpt>
      <trkpt lat="49.84642" lon="2.5872">
        <ele>93.5</ele>
        <time>2022-07-10T10:08:36Z</time>
      </trkpt>
      <trkpt lat="49.84642" lon="2.58721">
        <ele>93.5</ele>
        <time>2022-07-10T10:08:37Z</time>
      </trkpt>
      <trkpt lat="49.84641" lon="2.58724">
        <ele>93.5</ele>
        <time>2022-07-10T10:08:38Z</time>
      </trkpt>
      <trkpt lat="49.84641" lon="2.58726">
        <ele>93.5</ele>
        <time>2022-07-10T10:08:39Z</time>
      </trkpt>
      <trkpt lat="49.8464" lon="2.58729">
        <ele>93.5</ele>
        <time>2022-07-10T10:08:40Z</time>
      </trkpt>
      <trkpt lat="49.8464" lon="2.5873">
        <ele>93.5</ele>
        <time>2022-07-10T10:08:42Z</time>
      </trkpt>
      <trkpt lat="49.8464" lon="2.58732">
        <ele>93.5</ele>
        <time>2022-07-10T10:08:43Z</time>
      </trkpt>
      <trkpt lat="49.8464" lon="2.58733">
        <ele>93.5</ele>
        <time>2022-07-10T10:08:44Z</time>
      </trkpt>
      <trkpt lat="49.8464" lon="2.58735">
        <ele>93.5</ele>
        <time>2022-07-10T10:08:45Z</time>
      </trkpt>
      <trkpt lat="49.8464" lon="2.58737">
        <ele>93.5</ele>
        <time>2022-07-10T10:08:46Z</time>
      </trkpt>
      <trkpt lat="49.84639" lon="2.5874">
        <ele>93.5</ele>
        <time>2022-07-10T10:08:47Z</time>
      </trkpt>
      <trkpt lat="49.84639" lon="2.58743">
        <ele>93.5</ele>
        <time>2022-07-10T10:08:49Z</time>
      </trkpt>
      <trkpt lat="49.84639" lon="2.58744">
        <ele>93.5</ele>
        <time>2022-07-10T10:08:50Z</time>
      </trkpt>
      <trkpt lat="49.84639" lon="2.58746">
        <ele>93.5</ele>
        <time>2022-07-10T10:08:51Z</time>
      </trkpt>
      <trkpt lat="49.84639" lon="2.58748">
        <ele>93.5</ele>
        <time>2022-07-10T10:08:52Z</time>
      </trkpt>
      <trkpt lat="49.84638" lon="2.58751">
        <ele>93.5</ele>
        <time>2022-07-10T10:08:53Z</time>
      </trkpt>
      <trkpt lat="49.84638" lon="2.58753">
        <ele>93.5</ele>
        <time>2022-07-10T10:08:54Z</time>
      </trkpt>
      <trkpt lat="49.84638" lon="2.58755">
        <ele>93.5</ele>
        <time>2022-07-10T10:08:55Z</time>
      </trkpt>
      <trkpt lat="49.84638" lon="2.58757">
        <ele>93.5</ele>
        <time>2022-07-10T10:08:56Z</time>
      </trkpt>
      <trkpt lat="49.84638" lon="2.5876">
        <ele>93.5</ele>
        <time>2022-07-10T10:08:57Z</time>
      </trkpt>
      <trkpt lat="49.84638" lon="2.58761">
        <ele>93.5</ele>
        <time>2022-07-10T10:08:58Z</time>
      </trkpt>
      <trkpt lat="49.84638" lon="2.58762">
        <ele>93.5</ele>
        <time>2022-07-10T10:08:59Z</time>
      </trkpt>
      <trkpt lat="49.84638" lon="2.58764">
        <ele>93.5</ele>
        <time>2022-07-10T10:09:00Z</time>
      </trkpt>
      <trkpt lat="49.84639" lon="2.58766">
        <ele>93.5</ele>
        <time>2022-07-10T10:09:01Z</time>
      </trkpt>
      <trkpt lat="49.84639" lon="2.58768">
        <ele>93.5</ele>
        <time>2022-07-10T10:09:03Z</time>
      </trkpt>
      <trkpt lat="49.84639" lon="2.5877">
        <ele>93.5</ele>
        <time>2022-07-10T10:09:04Z</time>
      </trkpt>
      <trkpt lat="49.84639" lon="2.58771">
        <ele>93.5</ele>
        <time>2022-07-10T10:09:05Z</time>
      </trkpt>
      <trkpt lat="49.84639" lon="2.58773">
        <ele>93.5</ele>
        <time>2022-07-10T10:09:06Z</time>
      </trkpt>
      <trkpt lat="49.84639" lon="2.58775">
        <ele>93.5</ele>
        <time>2022-07-10T10:09:07Z</time>
      </trkpt>
      <trkpt lat="49.84638" lon="2.58778">
        <ele>93.5</ele>
        <time>2022-07-10T10:09:08Z</time>
      </trkpt>
      <trkpt lat="49.84638" lon="2.58781">
        <ele>93.5</ele>
        <time>2022-07-10T10:09:09Z</time>
      </trkpt>
      <trkpt lat="49.84638" lon="2.58782">
        <ele>93.5</ele>
        <time>2022-07-10T10:09:10Z</time>
      </trkpt>
      <trkpt lat="49.84637" lon="2.58783">
        <ele>93.5</ele>
        <time>2022-07-10T10:09:11Z</time>
      </trkpt>
      <trkpt lat="49.84637" lon="2.58787">
        <ele>93.5</ele>
        <time>2022-07-10T10:09:12Z</time>
      </trkpt>
      <trkpt lat="49.84637" lon="2.58788">
        <ele>93.5</ele>
        <time>2022-07-10T10:09:13Z</time>
      </trkpt>
      <trkpt lat="49.84636" lon="2.58789">
        <ele>93.5</ele>
        <time>2022-07-10T10:09:14Z</time>
      </trkpt>
      <trkpt lat="49.84636" lon="2.5879">
        <ele>93.5</ele>
        <time>2022-07-10T10:09:15Z</time>
      </trkpt>
      <trkpt lat="49.84636" lon="2.58792">
        <ele>93.4</ele>
        <time>2022-07-10T10:09:16Z</time>
      </trkpt>
      <trkpt lat="49.84635" lon="2.58795">
        <ele>93.4</ele>
        <time>2022-07-10T10:09:18Z</time>
      </trkpt>
      <trkpt lat="49.84634" lon="2.58798">
        <ele>93.4</ele>
        <time>2022-07-10T10:09:19Z</time>
      </trkpt>
      <trkpt lat="49.84634" lon="2.588">
        <ele>93.4</ele>
        <time>2022-07-10T10:09:20Z</time>
      </trkpt>
      <trkpt lat="49.84634" lon="2.58801">
        <ele>93.4</ele>
        <time>2022-07-10T10:09:21Z</time>
      </trkpt>
      <trkpt lat="49.84633" lon="2.58803">
        <ele>93.4</ele>
        <time>2022-07-10T10:09:22Z</time>
      </trkpt>
      <trkpt lat="49.84633" lon="2.58806">
        <ele>93.4</ele>
        <time>2022-07-10T10:09:23Z</time>
      </trkpt>
      <trkpt lat="49.84632" lon="2.58809">
        <ele>93.4</ele>
        <time>2022-07-10T10:09:25Z</time>
      </trkpt>
      <trkpt lat="49.84632" lon="2.5881">
        <ele>93.4</ele>
        <time>2022-07-10T10:09:26Z</time>
      </trkpt>
      <trkpt lat="49.84632" lon="2.58812">
        <ele>93.4</ele>
        <time>2022-07-10T10:09:27Z</time>
      </trkpt>
      <trkpt lat="49.84632" lon="2.58814">
        <ele>93.4</ele>
        <time>2022-07-10T10:09:28Z</time>
      </trkpt>
      <trkpt lat="49.84631" lon="2.58816">
        <ele>93.4</ele>
        <time>2022-07-10T10:09:29Z</time>
      </trkpt>
      <trkpt lat="49.84631" lon="2.58819">
        <ele>93.4</ele>
        <time>2022-07-10T10:09:31Z</time>
      </trkpt>
      <trkpt lat="49.8463" lon="2.5882">
        <ele>93.4</ele>
        <time>2022-07-10T10:09:32Z</time>
      </trkpt>
      <trkpt lat="49.8463" lon="2.58822">
        <ele>93.4</ele>
        <time>2022-07-10T10:09:33Z</time>
      </trkpt>
      <trkpt lat="49.8463" lon="2.58824">
        <ele>93.4</ele>
        <time>2022-07-10T10:09:34Z</time>
      </trkpt>
      <trkpt lat="49.8463" lon="2.58826">
        <ele>93.4</ele>
        <time>2022-07-10T10:09:35Z</time>
      </trkpt>
      <trkpt lat="49.84629" lon="2.58828">
        <ele>93.4</ele>
        <time>2022-07-10T10:09:36Z</time>
      </trkpt>
      <trkpt lat="49.84629" lon="2.5883">
        <ele>93.4</ele>
        <time>2022-07-10T10:09:37Z</time>
      </trkpt>
      <trkpt lat="49.84629" lon="2.58834">
        <ele>93.5</ele>
        <time>2022-07-10T10:09:38Z</time>
      </trkpt>
      <trkpt lat="49.84629" lon="2.58835">
        <ele>93.5</ele>
        <time>2022-07-10T10:09:39Z</time>
      </trkpt>
      <trkpt lat="49.84629" lon="2.58836">
        <ele>93.5</ele>
        <time>2022-07-10T10:09:40Z</time>
      </trkpt>
      <trkpt lat="49.84629" lon="2.58837">
        <ele>93.5</ele>
        <time>2022-07-10T10:09:41Z</time>
      </trkpt>
      <trkpt lat="49.84628" lon="2.58841">
        <ele>93.5</ele>
        <time>2022-07-10T10:09:43Z</time>
      </trkpt>
      <trkpt lat="49.84628" lon="2.58843">
        <ele>93.5</ele>
        <time>2022-07-10T10:09:44Z</time>
      </trkpt>
      <trkpt lat="49.84627" lon="2.58845">
        <ele>93.5</ele>
        <time>2022-07-10T10:09:45Z</time>
      </trkpt>
      <trkpt lat="49.84627" lon="2.58847">
        <ele>93.5</ele>
        <time>2022-07-10T10:09:46Z</time>
      </trkpt>
      <trkpt lat="49.84627" lon="2.5885">
        <ele>93.5</ele>
        <time>2022-07-10T10:09:48Z</time>
      </trkpt>
      <trkpt lat="49.84627" lon="2.58853">
        <ele>93.5</ele>
        <time>2022-07-10T10:09:49Z</time>
      </trkpt>
      <trkpt lat="49.84627" lon="2.58855">
        <ele>93.5</ele>
        <time>2022-07-10T10:09:50Z</time>
      </trkpt>
      <trkpt lat="49.84627" lon="2.58856">
        <ele>93.5</ele>
        <time>2022-07-10T10:09:51Z</time>
      </trkpt>
      <trkpt lat="49.84627" lon="2.58858">
        <ele>93.5</ele>
        <time>2022-07-10T10:09:52Z</time>
      </trkpt>
      <trkpt lat="49.84626" lon="2.58861">
        <ele>93.5</ele>
        <time>2022-07-10T10:09:53Z</time>
      </trkpt>
      <trkpt lat="49.84626" lon="2.58862">
        <ele>93.5</ele>
        <time>2022-07-10T10:09:54Z</time>
      </trkpt>
      <trkpt lat="49.84626" lon="2.58864">
        <ele>93.5</ele>
        <time>2022-07-10T10:09:55Z</time>
      </trkpt>
      <trkpt lat="49.84626" lon="2.58866">
        <ele>93.5</ele>
        <time>2022-07-10T10:09:56Z</time>
      </trkpt>
      <trkpt lat="49.84626" lon="2.58867">
        <ele>93.5</ele>
        <time>2022-07-10T10:09:57Z</time>
      </trkpt>
      <trkpt lat="49.84625" lon="2.58869">
        <ele>93.5</ele>
        <time>2022-07-10T10:09:58Z</time>
      </trkpt>
      <trkpt lat="49.84625" lon="2.58871">
        <ele>93.5</ele>
        <time>2022-07-10T10:09:59Z</time>
      </trkpt>
      <trkpt lat="49.84624" lon="2.58874">
        <ele>93.5</ele>
        <time>2022-07-10T10:10:00Z</time>
      </trkpt>
      <trkpt lat="49.84624" lon="2.58876">
        <ele>93.5</ele>
        <time>2022-07-10T10:10:02Z</time>
      </trkpt>
      <trkpt lat="49.84624" lon="2.58877">
        <ele>93.5</ele>
        <time>2022-07-10T10:10:03Z</time>
      </trkpt>
      <trkpt lat="49.84625" lon="2.58879">
        <ele>93.5</ele>
        <time>2022-07-10T10:10:04Z</time>
      </trkpt>
      <trkpt lat="49.84624" lon="2.58881">
        <ele>93.5</ele>
        <time>2022-07-10T10:10:05Z</time>
      </trkpt>
      <trkpt lat="49.84624" lon="2.58883">
        <ele>93.5</ele>
        <time>2022-07-10T10:10:07Z</time>
      </trkpt>
      <trkpt lat="49.84624" lon="2.58885">
        <ele>93.5</ele>
        <time>2022-07-10T10:10:08Z</time>
      </trkpt>
      <trkpt lat="49.84624" lon="2.58886">
        <ele>93.5</ele>
        <time>2022-07-10T10:10:09Z</time>
      </trkpt>
      <trkpt lat="49.84624" lon="2.58887">
        <ele>93.5</ele>
        <time>2022-07-10T10:10:10Z</time>
      </trkpt>
      <trkpt lat="49.84624" lon="2.58889">
        <ele>93.5</ele>
        <time>2022-07-10T10:10:11Z</time>
      </trkpt>
      <trkpt lat="49.84624" lon="2.58893">
        <ele>93.5</ele>
        <time>2022-07-10T10:10:13Z</time>
      </trkpt>
      <trkpt lat="49.84624" lon="2.58893">
        <ele>93.5</ele>
        <time>2022-07-10T10:10:14Z</time>
      </trkpt>
      <trkpt lat="49.84624" lon="2.58894">
        <ele>93.5</ele>
        <time>2022-07-10T10:10:15Z</time>
      </trkpt>
      <trkpt lat="49.84623" lon="2.58898">
        <ele>93.5</ele>
        <time>2022-07-10T10:10:16Z</time>
      </trkpt>
      <trkpt lat="49.84623" lon="2.58899">
        <ele>93.5</ele>
        <time>2022-07-10T10:10:17Z</time>
      </trkpt>
      <trkpt lat="49.84622" lon="2.58901">
        <ele>93.4</ele>
        <time>2022-07-10T10:10:18Z</time>
      </trkpt>
      <trkpt lat="49.84622" lon="2.58902">
        <ele>93.4</ele>
        <time>2022-07-10T10:10:19Z</time>
      </trkpt>
      <trkpt lat="49.84622" lon="2.58904">
        <ele>93.4</ele>
        <time>2022-07-10T10:10:20Z</time>
      </trkpt>
      <trkpt lat="49.84622" lon="2.58906">
        <ele>93.4</ele>
        <time>2022-07-10T10:10:21Z</time>
      </trkpt>
      <trkpt lat="49.84621" lon="2.58908">
        <ele>93.4</ele>
        <time>2022-07-10T10:10:22Z</time>
      </trkpt>
      <trkpt lat="49.84621" lon="2.5891">
        <ele>93.4</ele>
        <time>2022-07-10T10:10:23Z</time>
      </trkpt>
      <trkpt lat="49.84621" lon="2.58914">
        <ele>93.4</ele>
        <time>2022-07-10T10:10:24Z</time>
      </trkpt>
      <trkpt lat="49.8462" lon="2.58917">
        <ele>93.4</ele>
        <time>2022-07-10T10:10:26Z</time>
      </trkpt>
      <trkpt lat="49.8462" lon="2.58919">
        <ele>93.4</ele>
        <time>2022-07-10T10:10:27Z</time>
      </trkpt>
      <trkpt lat="49.8462" lon="2.58921">
        <ele>93.4</ele>
        <time>2022-07-10T10:10:28Z</time>
      </trkpt>
      <trkpt lat="49.84619" lon="2.58923">
        <ele>93.4</ele>
        <time>2022-07-10T10:10:29Z</time>
      </trkpt>
      <trkpt lat="49.84619" lon="2.58925">
        <ele>93.3</ele>
        <time>2022-07-10T10:10:30Z</time>
      </trkpt>
      <trkpt lat="49.84619" lon="2.58927">
        <ele>93.3</ele>
        <time>2022-07-10T10:10:31Z</time>
      </trkpt>
      <trkpt lat="49.84618" lon="2.5893">
        <ele>93.3</ele>
        <time>2022-07-10T10:10:32Z</time>
      </trkpt>
      <trkpt lat="49.84618" lon="2.58933">
        <ele>93.3</ele>
        <time>2022-07-10T10:10:34Z</time>
      </trkpt>
      <trkpt lat="49.84618" lon="2.58934">
        <ele>93.3</ele>
        <time>2022-07-10T10:10:36Z</time>
      </trkpt>
      <trkpt lat="49.84618" lon="2.58936">
        <ele>93.3</ele>
        <time>2022-07-10T10:10:37Z</time>
      </trkpt>
      <trkpt lat="49.84618" lon="2.58939">
        <ele>93.3</ele>
        <time>2022-07-10T10:10:38Z</time>
      </trkpt>
      <trkpt lat="49.84618" lon="2.58941">
        <ele>93.3</ele>
        <time>2022-07-10T10:10:39Z</time>
      </trkpt>
      <trkpt lat="49.84618" lon="2.58943">
        <ele>93.2</ele>
        <time>2022-07-10T10:10:40Z</time>
      </trkpt>
      <trkpt lat="49.84618" lon="2.58945">
        <ele>93.2</ele>
        <time>2022-07-10T10:10:41Z</time>
      </trkpt>
      <trkpt lat="49.84618" lon="2.58947">
        <ele>93.2</ele>
        <time>2022-07-10T10:10:42Z</time>
      </trkpt>
      <trkpt lat="49.84618" lon="2.58949">
        <ele>93.2</ele>
        <time>2022-07-10T10:10:43Z</time>
      </trkpt>
      <trkpt lat="49.84617" lon="2.58952">
        <ele>93.2</ele>
        <time>2022-07-10T10:10:44Z</time>
      </trkpt>
      <trkpt lat="49.84617" lon="2.58954">
        <ele>93.2</ele>
        <time>2022-07-10T10:10:46Z</time>
      </trkpt>
      <trkpt lat="49.84617" lon="2.58955">
        <ele>93.2</ele>
        <time>2022-07-10T10:10:47Z</time>
      </trkpt>
      <trkpt lat="49.84617" lon="2.58959">
        <ele>93.2</ele>
        <time>2022-07-10T10:10:49Z</time>
      </trkpt>
      <trkpt lat="49.84617" lon="2.5896">
        <ele>93.1</ele>
        <time>2022-07-10T10:10:50Z</time>
      </trkpt>
      <trkpt lat="49.84617" lon="2.58963">
        <ele>93.1</ele>
        <time>2022-07-10T10:10:51Z</time>
      </trkpt>
      <trkpt lat="49.84617" lon="2.58965">
        <ele>93.1</ele>
        <time>2022-07-10T10:10:52Z</time>
      </trkpt>
      <trkpt lat="49.84618" lon="2.58966">
        <ele>93.1</ele>
        <time>2022-07-10T10:10:53Z</time>
      </trkpt>
      <trkpt lat="49.84618" lon="2.58968">
        <ele>93.1</ele>
        <time>2022-07-10T10:10:54Z</time>
      </trkpt>
      <trkpt lat="49.84618" lon="2.5897">
        <ele>93.1</ele>
        <time>2022-07-10T10:10:56Z</time>
      </trkpt>
      <trkpt lat="49.84618" lon="2.58972">
        <ele>93.1</ele>
        <time>2022-07-10T10:10:57Z</time>
      </trkpt>
      <trkpt lat="49.84618" lon="2.58975">
        <ele>93.1</ele>
        <time>2022-07-10T10:10:58Z</time>
      </trkpt>
      <trkpt lat="49.84618" lon="2.58977">
        <ele>93.1</ele>
        <time>2022-07-10T10:10:59Z</time>
      </trkpt>
      <trkpt lat="49.84618" lon="2.58979">
        <ele>93.1</ele>
        <time>2022-07-10T10:11:00Z</time>
      </trkpt>
      <trkpt lat="49.84618" lon="2.58981">
        <ele>93.1</ele>
        <time>2022-07-10T10:11:01Z</time>
      </trkpt>
      <trkpt lat="49.84617" lon="2.58985">
        <ele>93.1</ele>
        <time>2022-07-10T10:11:03Z</time>
      </trkpt>
      <trkpt lat="49.84617" lon="2.58987">
        <ele>93.1</ele>
        <time>2022-07-10T10:11:05Z</time>
      </trkpt>
      <trkpt lat="49.84617" lon="2.58989">
        <ele>93.1</ele>
        <time>2022-07-10T10:11:06Z</time>
      </trkpt>
      <trkpt lat="49.84617" lon="2.58991">
        <ele>93.1</ele>
        <time>2022-07-10T10:11:07Z</time>
      </trkpt>
      <trkpt lat="49.84617" lon="2.58994">
        <ele>93.1</ele>
        <time>2022-07-10T10:11:08Z</time>
      </trkpt>
      <trkpt lat="49.84617" lon="2.58995">
        <ele>93</ele>
        <time>2022-07-10T10:11:09Z</time>
      </trkpt>
      <trkpt lat="49.84617" lon="2.58997">
        <ele>93</ele>
        <time>2022-07-10T10:11:10Z</time>
      </trkpt>
      <trkpt lat="49.84617" lon="2.58999">
        <ele>93</ele>
        <time>2022-07-10T10:11:11Z</time>
      </trkpt>
      <trkpt lat="49.84617" lon="2.59001">
        <ele>93</ele>
        <time>2022-07-10T10:11:12Z</time>
      </trkpt>
      <trkpt lat="49.84617" lon="2.59003">
        <ele>93</ele>
        <time>2022-07-10T10:11:13Z</time>
      </trkpt>
      <trkpt lat="49.84617" lon="2.59005">
        <ele>93</ele>
        <time>2022-07-10T10:11:15Z</time>
      </trkpt>
      <trkpt lat="49.84617" lon="2.59006">
        <ele>93</ele>
        <time>2022-07-10T10:11:16Z</time>
      </trkpt>
      <trkpt lat="49.84617" lon="2.59008">
        <ele>93</ele>
        <time>2022-07-10T10:11:17Z</time>
      </trkpt>
      <trkpt lat="49.84616" lon="2.59011">
        <ele>93</ele>
        <time>2022-07-10T10:11:18Z</time>
      </trkpt>
      <trkpt lat="49.84616" lon="2.59012">
        <ele>93</ele>
        <time>2022-07-10T10:11:19Z</time>
      </trkpt>
      <trkpt lat="49.84616" lon="2.59015">
        <ele>93</ele>
        <time>2022-07-10T10:11:20Z</time>
      </trkpt>
      <trkpt lat="49.84616" lon="2.59017">
        <ele>92.9</ele>
        <time>2022-07-10T10:11:21Z</time>
      </trkpt>
      <trkpt lat="49.84616" lon="2.59018">
        <ele>92.9</ele>
        <time>2022-07-10T10:11:22Z</time>
      </trkpt>
      <trkpt lat="49.84615" lon="2.5902">
        <ele>92.9</ele>
        <time>2022-07-10T10:11:23Z</time>
      </trkpt>
      <trkpt lat="49.84615" lon="2.59022">
        <ele>92.9</ele>
        <time>2022-07-10T10:11:25Z</time>
      </trkpt>
      <trkpt lat="49.84615" lon="2.59024">
        <ele>92.9</ele>
        <time>2022-07-10T10:11:26Z</time>
      </trkpt>
      <trkpt lat="49.84615" lon="2.59026">
        <ele>92.9</ele>
        <time>2022-07-10T10:11:27Z</time>
      </trkpt>
      <trkpt lat="49.84614" lon="2.59027">
        <ele>92.9</ele>
        <time>2022-07-10T10:11:28Z</time>
      </trkpt>
      <trkpt lat="49.84614" lon="2.59031">
        <ele>92.8</ele>
        <time>2022-07-10T10:11:29Z</time>
      </trkpt>
      <trkpt lat="49.84614" lon="2.59032">
        <ele>92.8</ele>
        <time>2022-07-10T10:11:30Z</time>
      </trkpt>
      <trkpt lat="49.84613" lon="2.59036">
        <ele>92.8</ele>
        <time>2022-07-10T10:11:31Z</time>
      </trkpt>
      <trkpt lat="49.84613" lon="2.59038">
        <ele>92.8</ele>
        <time>2022-07-10T10:11:33Z</time>
      </trkpt>
      <trkpt lat="49.84613" lon="2.5904">
        <ele>92.8</ele>
        <time>2022-07-10T10:11:34Z</time>
      </trkpt>
      <trkpt lat="49.84612" lon="2.59042">
        <ele>92.7</ele>
        <time>2022-07-10T10:11:35Z</time>
      </trkpt>
      <trkpt lat="49.84612" lon="2.59044">
        <ele>92.7</ele>
        <time>2022-07-10T10:11:36Z</time>
      </trkpt>
      <trkpt lat="49.84612" lon="2.59048">
        <ele>92.7</ele>
        <time>2022-07-10T10:11:37Z</time>
      </trkpt>
      <trkpt lat="49.84612" lon="2.5905">
        <ele>92.7</ele>
        <time>2022-07-10T10:11:38Z</time>
      </trkpt>
      <trkpt lat="49.84612" lon="2.59051">
        <ele>92.7</ele>
        <time>2022-07-10T10:11:39Z</time>
      </trkpt>
      <trkpt lat="49.84612" lon="2.59053">
        <ele>92.6</ele>
        <time>2022-07-10T10:11:41Z</time>
      </trkpt>
      <trkpt lat="49.84612" lon="2.59055">
        <ele>92.6</ele>
        <time>2022-07-10T10:11:42Z</time>
      </trkpt>
      <trkpt lat="49.84612" lon="2.59058">
        <ele>92.6</ele>
        <time>2022-07-10T10:11:43Z</time>
      </trkpt>
      <trkpt lat="49.84612" lon="2.5906">
        <ele>92.6</ele>
        <time>2022-07-10T10:11:44Z</time>
      </trkpt>
      <trkpt lat="49.84612" lon="2.59061">
        <ele>92.6</ele>
        <time>2022-07-10T10:11:45Z</time>
      </trkpt>
      <trkpt lat="49.84612" lon="2.59063">
        <ele>92.5</ele>
        <time>2022-07-10T10:11:46Z</time>
      </trkpt>
      <trkpt lat="49.84612" lon="2.59065">
        <ele>92.5</ele>
        <time>2022-07-10T10:11:48Z</time>
      </trkpt>
      <trkpt lat="49.84612" lon="2.59067">
        <ele>92.5</ele>
        <time>2022-07-10T10:11:49Z</time>
      </trkpt>
      <trkpt lat="49.84612" lon="2.59068">
        <ele>92.5</ele>
        <time>2022-07-10T10:11:50Z</time>
      </trkpt>
      <trkpt lat="49.84611" lon="2.5907">
        <ele>92.5</ele>
        <time>2022-07-10T10:11:51Z</time>
      </trkpt>
      <trkpt lat="49.84611" lon="2.59071">
        <ele>92.5</ele>
        <time>2022-07-10T10:11:52Z</time>
      </trkpt>
      <trkpt lat="49.84611" lon="2.59075">
        <ele>92.4</ele>
        <time>2022-07-10T10:11:53Z</time>
      </trkpt>
      <trkpt lat="49.84611" lon="2.59078">
        <ele>92.4</ele>
        <time>2022-07-10T10:11:54Z</time>
      </trkpt>
      <trkpt lat="49.84611" lon="2.5908">
        <ele>92.4</ele>
        <time>2022-07-10T10:11:56Z</time>
      </trkpt>
      <trkpt lat="49.84611" lon="2.59081">
        <ele>92.4</ele>
        <time>2022-07-10T10:11:57Z</time>
      </trkpt>
      <trkpt lat="49.84611" lon="2.59085">
        <ele>92.4</ele>
        <time>2022-07-10T10:11:59Z</time>
      </trkpt>
      <trkpt lat="49.84611" lon="2.59087">
        <ele>92.4</ele>
        <time>2022-07-10T10:12:00Z</time>
      </trkpt>
      <trkpt lat="49.84611" lon="2.59089">
        <ele>92.4</ele>
        <time>2022-07-10T10:12:01Z</time>
      </trkpt>
      <trkpt lat="49.84611" lon="2.59091">
        <ele>92.4</ele>
        <time>2022-07-10T10:12:02Z</time>
      </trkpt>
      <trkpt lat="49.84611" lon="2.59096">
        <ele>92.3</ele>
        <time>2022-07-10T10:12:04Z</time>
      </trkpt>
      <trkpt lat="49.84612" lon="2.59097">
        <ele>92.3</ele>
        <time>2022-07-10T10:12:05Z</time>
      </trkpt>
      <trkpt lat="49.84612" lon="2.59098">
        <ele>92.3</ele>
        <time>2022-07-10T10:12:06Z</time>
      </trkpt>
      <trkpt lat="49.84612" lon="2.591">
        <ele>92.3</ele>
        <time>2022-07-10T10:12:07Z</time>
      </trkpt>
      <trkpt lat="49.84611" lon="2.59102">
        <ele>92.3</ele>
        <time>2022-07-10T10:12:08Z</time>
      </trkpt>
      <trkpt lat="49.84611" lon="2.59105">
        <ele>92.3</ele>
        <time>2022-07-10T10:12:09Z</time>
      </trkpt>
      <trkpt lat="49.84611" lon="2.59107">
        <ele>92.3</ele>
        <time>2022-07-10T10:12:10Z</time>
      </trkpt>
      <trkpt lat="49.84611" lon="2.59108">
        <ele>92.3</ele>
        <time>2022-07-10T10:12:11Z</time>
      </trkpt>
      <trkpt lat="49.84611" lon="2.5911">
        <ele>92.3</ele>
        <time>2022-07-10T10:12:12Z</time>
      </trkpt>
      <trkpt lat="49.84611" lon="2.59113">
        <ele>92.3</ele>
        <time>2022-07-10T10:12:13Z</time>
      </trkpt>
      <trkpt lat="49.84611" lon="2.59115">
        <ele>92.3</ele>
        <time>2022-07-10T10:12:14Z</time>
      </trkpt>
      <trkpt lat="49.84611" lon="2.59117">
        <ele>92.2</ele>
        <time>2022-07-10T10:12:15Z</time>
      </trkpt>
      <trkpt lat="49.84611" lon="2.59119">
        <ele>92.2</ele>
        <time>2022-07-10T10:12:16Z</time>
      </trkpt>
      <trkpt lat="49.8461" lon="2.59121">
        <ele>92.2</ele>
        <time>2022-07-10T10:12:18Z</time>
      </trkpt>
      <trkpt lat="49.8461" lon="2.59124">
        <ele>92.2</ele>
        <time>2022-07-10T10:12:19Z</time>
      </trkpt>
      <trkpt lat="49.8461" lon="2.59127">
        <ele>92.2</ele>
        <time>2022-07-10T10:12:20Z</time>
      </trkpt>
      <trkpt lat="49.8461" lon="2.59128">
        <ele>92.2</ele>
        <time>2022-07-10T10:12:21Z</time>
      </trkpt>
      <trkpt lat="49.8461" lon="2.59129">
        <ele>92.2</ele>
        <time>2022-07-10T10:12:22Z</time>
      </trkpt>
      <trkpt lat="49.8461" lon="2.59132">
        <ele>92.1</ele>
        <time>2022-07-10T10:12:23Z</time>
      </trkpt>
      <trkpt lat="49.8461" lon="2.59134">
        <ele>92.1</ele>
        <time>2022-07-10T10:12:24Z</time>
      </trkpt>
      <trkpt lat="49.8461" lon="2.59135">
        <ele>92.1</ele>
        <time>2022-07-10T10:12:25Z</time>
      </trkpt>
      <trkpt lat="49.8461" lon="2.59137">
        <ele>92.1</ele>
        <time>2022-07-10T10:12:26Z</time>
      </trkpt>
      <trkpt lat="49.8461" lon="2.59139">
        <ele>92.1</ele>
        <time>2022-07-10T10:12:27Z</time>
      </trkpt>
      <trkpt lat="49.8461" lon="2.59143">
        <ele>92</ele>
        <time>2022-07-10T10:12:28Z</time>
      </trkpt>
      <trkpt lat="49.8461" lon="2.59144">
        <ele>92</ele>
        <time>2022-07-10T10:12:30Z</time>
      </trkpt>
      <trkpt lat="49.8461" lon="2.59145">
        <ele>92</ele>
        <time>2022-07-10T10:12:31Z</time>
      </trkpt>
      <trkpt lat="49.8461" lon="2.59147">
        <ele>92</ele>
        <time>2022-07-10T10:12:32Z</time>
      </trkpt>
      <trkpt lat="49.84609" lon="2.59149">
        <ele>92</ele>
        <time>2022-07-10T10:12:33Z</time>
      </trkpt>
      <trkpt lat="49.84609" lon="2.59151">
        <ele>91.9</ele>
        <time>2022-07-10T10:12:34Z</time>
      </trkpt>
      <trkpt lat="49.84609" lon="2.59153">
        <ele>91.9</ele>
        <time>2022-07-10T10:12:35Z</time>
      </trkpt>
      <trkpt lat="49.84609" lon="2.59155">
        <ele>91.9</ele>
        <time>2022-07-10T10:12:36Z</time>
      </trkpt>
      <trkpt lat="49.84609" lon="2.59157">
        <ele>91.9</ele>
        <time>2022-07-10T10:12:37Z</time>
      </trkpt>
      <trkpt lat="49.84609" lon="2.59161">
        <ele>91.9</ele>
        <time>2022-07-10T10:12:39Z</time>
      </trkpt>
      <trkpt lat="49.84609" lon="2.59162">
        <ele>91.8</ele>
        <time>2022-07-10T10:12:40Z</time>
      </trkpt>
      <trkpt lat="49.84609" lon="2.59164">
        <ele>91.8</ele>
        <time>2022-07-10T10:12:41Z</time>
      </trkpt>
      <trkpt lat="49.84609" lon="2.59166">
        <ele>91.8</ele>
        <time>2022-07-10T10:12:42Z</time>
      </trkpt>
      <trkpt lat="49.84609" lon="2.59169">
        <ele>91.8</ele>
        <time>2022-07-10T10:12:43Z</time>
      </trkpt>
      <trkpt lat="49.84608" lon="2.5917">
        <ele>91.8</ele>
        <time>2022-07-10T10:12:44Z</time>
      </trkpt>
      <trkpt lat="49.84608" lon="2.59174">
        <ele>91.8</ele>
        <time>2022-07-10T10:12:45Z</time>
      </trkpt>
      <trkpt lat="49.84608" lon="2.59175">
        <ele>91.7</ele>
        <time>2022-07-10T10:12:46Z</time>
      </trkpt>
      <trkpt lat="49.84608" lon="2.59176">
        <ele>91.7</ele>
        <time>2022-07-10T10:12:47Z</time>
      </trkpt>
      <trkpt lat="49.84608" lon="2.59179">
        <ele>91.7</ele>
        <time>2022-07-10T10:12:49Z</time>
      </trkpt>
      <trkpt lat="49.84607" lon="2.5918">
        <ele>91.7</ele>
        <time>2022-07-10T10:12:50Z</time>
      </trkpt>
      <trkpt lat="49.84607" lon="2.59183">
        <ele>91.7</ele>
        <time>2022-07-10T10:12:51Z</time>
      </trkpt>
      <trkpt lat="49.84607" lon="2.59185">
        <ele>91.7</ele>
        <time>2022-07-10T10:12:52Z</time>
      </trkpt>
      <trkpt lat="49.84607" lon="2.59187">
        <ele>91.7</ele>
        <time>2022-07-10T10:12:53Z</time>
      </trkpt>
      <trkpt lat="49.84607" lon="2.5919">
        <ele>91.7</ele>
        <time>2022-07-10T10:12:54Z</time>
      </trkpt>
      <trkpt lat="49.84607" lon="2.59192">
        <ele>91.7</ele>
        <time>2022-07-10T10:12:55Z</time>
      </trkpt>
      <trkpt lat="49.84607" lon="2.59194">
        <ele>91.7</ele>
        <time>2022-07-10T10:12:56Z</time>
      </trkpt>
      <trkpt lat="49.84607" lon="2.59195">
        <ele>91.7</ele>
        <time>2022-07-10T10:12:57Z</time>
      </trkpt>
      <trkpt lat="49.84607" lon="2.59199">
        <ele>91.6</ele>
        <time>2022-07-10T10:12:59Z</time>
      </trkpt>
      <trkpt lat="49.84607" lon="2.592">
        <ele>91.6</ele>
        <time>2022-07-10T10:13:00Z</time>
      </trkpt>
      <trkpt lat="49.84606" lon="2.59202">
        <ele>91.6</ele>
        <time>2022-07-10T10:13:01Z</time>
      </trkpt>
      <trkpt lat="49.84606" lon="2.59204">
        <ele>91.6</ele>
        <time>2022-07-10T10:13:02Z</time>
      </trkpt>
      <trkpt lat="49.84606" lon="2.59207">
        <ele>91.6</ele>
        <time>2022-07-10T10:13:04Z</time>
      </trkpt>
      <trkpt lat="49.84606" lon="2.59209">
        <ele>91.6</ele>
        <time>2022-07-10T10:13:05Z</time>
      </trkpt>
      <trkpt lat="49.84606" lon="2.59212">
        <ele>91.6</ele>
        <time>2022-07-10T10:13:06Z</time>
      </trkpt>
      <trkpt lat="49.84606" lon="2.59214">
        <ele>91.5</ele>
        <time>2022-07-10T10:13:07Z</time>
      </trkpt>
      <trkpt lat="49.84606" lon="2.59219">
        <ele>91.5</ele>
        <time>2022-07-10T10:13:09Z</time>
      </trkpt>
      <trkpt lat="49.84606" lon="2.5922">
        <ele>91.5</ele>
        <time>2022-07-10T10:13:10Z</time>
      </trkpt>
      <trkpt lat="49.84606" lon="2.59222">
        <ele>91.5</ele>
        <time>2022-07-10T10:13:11Z</time>
      </trkpt>
      <trkpt lat="49.84606" lon="2.59224">
        <ele>91.4</ele>
        <time>2022-07-10T10:13:12Z</time>
      </trkpt>
      <trkpt lat="49.84605" lon="2.59226">
        <ele>91.4</ele>
        <time>2022-07-10T10:13:13Z</time>
      </trkpt>
      <trkpt lat="49.84605" lon="2.59228">
        <ele>91.4</ele>
        <time>2022-07-10T10:13:14Z</time>
      </trkpt>
      <trkpt lat="49.84605" lon="2.59231">
        <ele>91.4</ele>
        <time>2022-07-10T10:13:15Z</time>
      </trkpt>
      <trkpt lat="49.84605" lon="2.59233">
        <ele>91.3</ele>
        <time>2022-07-10T10:13:16Z</time>
      </trkpt>
      <trkpt lat="49.84605" lon="2.59234">
        <ele>91.3</ele>
        <time>2022-07-10T10:13:17Z</time>
      </trkpt>
      <trkpt lat="49.84605" lon="2.59237">
        <ele>91.3</ele>
        <time>2022-07-10T10:13:18Z</time>
      </trkpt>
      <trkpt lat="49.84605" lon="2.59239">
        <ele>91.3</ele>
        <time>2022-07-10T10:13:20Z</time>
      </trkpt>
      <trkpt lat="49.84604" lon="2.59242">
        <ele>91.2</ele>
        <time>2022-07-10T10:13:21Z</time>
      </trkpt>
      <trkpt lat="49.84604" lon="2.59244">
        <ele>91.2</ele>
        <time>2022-07-10T10:13:23Z</time>
      </trkpt>
      <trkpt lat="49.84604" lon="2.59247">
        <ele>91.2</ele>
        <time>2022-07-10T10:13:24Z</time>
      </trkpt>
      <trkpt lat="49.84604" lon="2.59249">
        <ele>91.2</ele>
        <time>2022-07-10T10:13:25Z</time>
      </trkpt>
      <trkpt lat="49.84604" lon="2.59252">
        <ele>91.1</ele>
        <time>2022-07-10T10:13:26Z</time>
      </trkpt>
      <trkpt lat="49.84604" lon="2.59253">
        <ele>91.1</ele>
        <time>2022-07-10T10:13:27Z</time>
      </trkpt>
      <trkpt lat="49.84604" lon="2.59254">
        <ele>91.1</ele>
        <time>2022-07-10T10:13:28Z</time>
      </trkpt>
      <trkpt lat="49.84604" lon="2.59257">
        <ele>91.1</ele>
        <time>2022-07-10T10:13:29Z</time>
      </trkpt>
      <trkpt lat="49.84604" lon="2.59258">
        <ele>91</ele>
        <time>2022-07-10T10:13:30Z</time>
      </trkpt>
      <trkpt lat="49.84604" lon="2.5926">
        <ele>91</ele>
        <time>2022-07-10T10:13:31Z</time>
      </trkpt>
      <trkpt lat="49.84604" lon="2.59262">
        <ele>91</ele>
        <time>2022-07-10T10:13:33Z</time>
      </trkpt>
      <trkpt lat="49.84604" lon="2.59264">
        <ele>90.9</ele>
        <time>2022-07-10T10:13:34Z</time>
      </trkpt>
      <trkpt lat="49.84604" lon="2.59266">
        <ele>90.9</ele>
        <time>2022-07-10T10:13:35Z</time>
      </trkpt>
      <trkpt lat="49.84604" lon="2.59267">
        <ele>90.9</ele>
        <time>2022-07-10T10:13:36Z</time>
      </trkpt>
      <trkpt lat="49.84603" lon="2.59269">
        <ele>90.9</ele>
        <time>2022-07-10T10:13:37Z</time>
      </trkpt>
      <trkpt lat="49.84603" lon="2.59271">
        <ele>90.9</ele>
        <time>2022-07-10T10:13:38Z</time>
      </trkpt>
      <trkpt lat="49.84603" lon="2.59273">
        <ele>90.8</ele>
        <time>2022-07-10T10:13:39Z</time>
      </trkpt>
      <trkpt lat="49.84602" lon="2.59275">
        <ele>90.8</ele>
        <time>2022-07-10T10:13:40Z</time>
      </trkpt>
      <trkpt lat="49.84602" lon="2.59276">
        <ele>90.8</ele>
        <time>2022-07-10T10:13:41Z</time>
      </trkpt>
      <trkpt lat="49.84602" lon="2.59278">
        <ele>90.7</ele>
        <time>2022-07-10T10:13:42Z</time>
      </trkpt>
      <trkpt lat="49.84601" lon="2.59281">
        <ele>90.7</ele>
        <time>2022-07-10T10:13:44Z</time>
      </trkpt>
      <trkpt lat="49.84601" lon="2.59283">
        <ele>90.7</ele>
        <time>2022-07-10T10:13:45Z</time>
      </trkpt>
      <trkpt lat="49.84601" lon="2.59286">
        <ele>90.6</ele>
        <time>2022-07-10T10:13:46Z</time>
      </trkpt>
      <trkpt lat="49.84601" lon="2.59287">
        <ele>90.6</ele>
        <time>2022-07-10T10:13:47Z</time>
      </trkpt>
      <trkpt lat="49.84601" lon="2.59289">
        <ele>90.6</ele>
        <time>2022-07-10T10:13:48Z</time>
      </trkpt>
      <trkpt lat="49.846" lon="2.59291">
        <ele>90.5</ele>
        <time>2022-07-10T10:13:49Z</time>
      </trkpt>
      <trkpt lat="49.84601" lon="2.59292">
        <ele>90.5</ele>
        <time>2022-07-10T10:13:50Z</time>
      </trkpt>
      <trkpt lat="49.84601" lon="2.59294">
        <ele>90.5</ele>
        <time>2022-07-10T10:13:52Z</time>
      </trkpt>
      <trkpt lat="49.84601" lon="2.59295">
        <ele>90.5</ele>
        <time>2022-07-10T10:13:53Z</time>
      </trkpt>
      <trkpt lat="49.84601" lon="2.59298">
        <ele>90.4</ele>
        <time>2022-07-10T10:13:54Z</time>
      </trkpt>
      <trkpt lat="49.84601" lon="2.593">
        <ele>90.4</ele>
        <time>2022-07-10T10:13:55Z</time>
      </trkpt>
      <trkpt lat="49.84601" lon="2.59303">
        <ele>90.4</ele>
        <time>2022-07-10T10:13:57Z</time>
      </trkpt>
      <trkpt lat="49.84601" lon="2.59304">
        <ele>90.3</ele>
        <time>2022-07-10T10:13:58Z</time>
      </trkpt>
      <trkpt lat="49.846" lon="2.59308">
        <ele>90.3</ele>
        <time>2022-07-10T10:13:59Z</time>
      </trkpt>
      <trkpt lat="49.846" lon="2.59309">
        <ele>90.3</ele>
        <time>2022-07-10T10:14:00Z</time>
      </trkpt>
      <trkpt lat="49.846" lon="2.59311">
        <ele>90.3</ele>
        <time>2022-07-10T10:14:01Z</time>
      </trkpt>
      <trkpt lat="49.84599" lon="2.59313">
        <ele>90.2</ele>
        <time>2022-07-10T10:14:02Z</time>
      </trkpt>
      <trkpt lat="49.84599" lon="2.59315">
        <ele>90.2</ele>
        <time>2022-07-10T10:14:04Z</time>
      </trkpt>
      <trkpt lat="49.84599" lon="2.59316">
        <ele>90.2</ele>
        <time>2022-07-10T10:14:05Z</time>
      </trkpt>
      <trkpt lat="49.84599" lon="2.59318">
        <ele>90.1</ele>
        <time>2022-07-10T10:14:06Z</time>
      </trkpt>
      <trkpt lat="49.84598" lon="2.59321">
        <ele>90.1</ele>
        <time>2022-07-10T10:14:08Z</time>
      </trkpt>
      <trkpt lat="49.84598" lon="2.59324">
        <ele>90.1</ele>
        <time>2022-07-10T10:14:09Z</time>
      </trkpt>
      <trkpt lat="49.84598" lon="2.59326">
        <ele>90</ele>
        <time>2022-07-10T10:14:10Z</time>
      </trkpt>
      <trkpt lat="49.84597" lon="2.59329">
        <ele>90</ele>
        <time>2022-07-10T10:14:11Z</time>
      </trkpt>
      <trkpt lat="49.84597" lon="2.59331">
        <ele>90</ele>
        <time>2022-07-10T10:14:13Z</time>
      </trkpt>
      <trkpt lat="49.84597" lon="2.59332">
        <ele>89.9</ele>
        <time>2022-07-10T10:14:14Z</time>
      </trkpt>
      <trkpt lat="49.84597" lon="2.59335">
        <ele>89.9</ele>
        <time>2022-07-10T10:14:15Z</time>
      </trkpt>
      <trkpt lat="49.84596" lon="2.59336">
        <ele>89.9</ele>
        <time>2022-07-10T10:14:16Z</time>
      </trkpt>
      <trkpt lat="49.84596" lon="2.59338">
        <ele>89.9</ele>
        <time>2022-07-10T10:14:17Z</time>
      </trkpt>
      <trkpt lat="49.84595" lon="2.59341">
        <ele>89.8</ele>
        <time>2022-07-10T10:14:19Z</time>
      </trkpt>
      <trkpt lat="49.84595" lon="2.59342">
        <ele>89.8</ele>
        <time>2022-07-10T10:14:20Z</time>
      </trkpt>
      <trkpt lat="49.84595" lon="2.59345">
        <ele>89.8</ele>
        <time>2022-07-10T10:14:21Z</time>
      </trkpt>
      <trkpt lat="49.84594" lon="2.59347">
        <ele>89.7</ele>
        <time>2022-07-10T10:14:22Z</time>
      </trkpt>
      <trkpt lat="49.84594" lon="2.59349">
        <ele>89.7</ele>
        <time>2022-07-10T10:14:23Z</time>
      </trkpt>
      <trkpt lat="49.84593" lon="2.59351">
        <ele>89.7</ele>
        <time>2022-07-10T10:14:24Z</time>
      </trkpt>
      <trkpt lat="49.84593" lon="2.59354">
        <ele>89.6</ele>
        <time>2022-07-10T10:14:25Z</time>
      </trkpt>
      <trkpt lat="49.84593" lon="2.59356">
        <ele>89.6</ele>
        <time>2022-07-10T10:14:27Z</time>
      </trkpt>
      <trkpt lat="49.84593" lon="2.59357">
        <ele>89.6</ele>
        <time>2022-07-10T10:14:28Z</time>
      </trkpt>
      <trkpt lat="49.84592" lon="2.59361">
        <ele>89.6</ele>
        <time>2022-07-10T10:14:30Z</time>
      </trkpt>
      <trkpt lat="49.84592" lon="2.59363">
        <ele>89.5</ele>
        <time>2022-07-10T10:14:31Z</time>
      </trkpt>
      <trkpt lat="49.84591" lon="2.59366">
        <ele>89.5</ele>
        <time>2022-07-10T10:14:32Z</time>
      </trkpt>
      <trkpt lat="49.84591" lon="2.59367">
        <ele>89.5</ele>
        <time>2022-07-10T10:14:33Z</time>
      </trkpt>
      <trkpt lat="49.84591" lon="2.59369">
        <ele>89.4</ele>
        <time>2022-07-10T10:14:34Z</time>
      </trkpt>
      <trkpt lat="49.8459" lon="2.59371">
        <ele>89.4</ele>
        <time>2022-07-10T10:14:35Z</time>
      </trkpt>
      <trkpt lat="49.8459" lon="2.59372">
        <ele>89.4</ele>
        <time>2022-07-10T10:14:36Z</time>
      </trkpt>
      <trkpt lat="49.8459" lon="2.59374">
        <ele>89.4</ele>
        <time>2022-07-10T10:14:37Z</time>
      </trkpt>
      <trkpt lat="49.84589" lon="2.59377">
        <ele>89.3</ele>
        <time>2022-07-10T10:14:38Z</time>
      </trkpt>
      <trkpt lat="49.84589" lon="2.5938">
        <ele>89.3</ele>
        <time>2022-07-10T10:14:39Z</time>
      </trkpt>
      <trkpt lat="49.84589" lon="2.59382">
        <ele>89.3</ele>
        <time>2022-07-10T10:14:41Z</time>
      </trkpt>
      <trkpt lat="49.84588" lon="2.59384">
        <ele>89.3</ele>
        <time>2022-07-10T10:14:42Z</time>
      </trkpt>
      <trkpt lat="49.84588" lon="2.59387">
        <ele>89.2</ele>
        <time>2022-07-10T10:14:43Z</time>
      </trkpt>
      <trkpt lat="49.84588" lon="2.5939">
        <ele>89.2</ele>
        <time>2022-07-10T10:14:45Z</time>
      </trkpt>
      <trkpt lat="49.84587" lon="2.59393">
        <ele>89.1</ele>
        <time>2022-07-10T10:14:46Z</time>
      </trkpt>
      <trkpt lat="49.84587" lon="2.59395">
        <ele>89.1</ele>
        <time>2022-07-10T10:14:47Z</time>
      </trkpt>
      <trkpt lat="49.84587" lon="2.59396">
        <ele>89.1</ele>
        <time>2022-07-10T10:14:48Z</time>
      </trkpt>
      <trkpt lat="49.84586" lon="2.59399">
        <ele>89.1</ele>
        <time>2022-07-10T10:14:49Z</time>
      </trkpt>
      <trkpt lat="49.84586" lon="2.594">
        <ele>89.1</ele>
        <time>2022-07-10T10:14:50Z</time>
      </trkpt>
      <trkpt lat="49.84586" lon="2.59404">
        <ele>89</ele>
        <time>2022-07-10T10:14:51Z</time>
      </trkpt>
      <trkpt lat="49.84585" lon="2.59405">
        <ele>89</ele>
        <time>2022-07-10T10:14:53Z</time>
      </trkpt>
      <trkpt lat="49.84585" lon="2.59407">
        <ele>89</ele>
        <time>2022-07-10T10:14:54Z</time>
      </trkpt>
      <trkpt lat="49.84585" lon="2.59408">
        <ele>89</ele>
        <time>2022-07-10T10:14:55Z</time>
      </trkpt>
      <trkpt lat="49.84585" lon="2.59411">
        <ele>88.9</ele>
        <time>2022-07-10T10:14:56Z</time>
      </trkpt>
      <trkpt lat="49.84584" lon="2.59414">
        <ele>88.9</ele>
        <time>2022-07-10T10:14:58Z</time>
      </trkpt>
      <trkpt lat="49.84583" lon="2.59416">
        <ele>88.9</ele>
        <time>2022-07-10T10:14:59Z</time>
      </trkpt>
      <trkpt lat="49.84583" lon="2.59418">
        <ele>88.9</ele>
        <time>2022-07-10T10:15:00Z</time>
      </trkpt>
      <trkpt lat="49.84583" lon="2.5942">
        <ele>88.8</ele>
        <time>2022-07-10T10:15:01Z</time>
      </trkpt>
      <trkpt lat="49.84582" lon="2.59422">
        <ele>88.8</ele>
        <time>2022-07-10T10:15:02Z</time>
      </trkpt>
      <trkpt lat="49.84582" lon="2.59424">
        <ele>88.8</ele>
        <time>2022-07-10T10:15:03Z</time>
      </trkpt>
      <trkpt lat="49.84582" lon="2.59428">
        <ele>88.7</ele>
        <time>2022-07-10T10:15:04Z</time>
      </trkpt>
      <trkpt lat="49.84581" lon="2.59429">
        <ele>88.7</ele>
        <time>2022-07-10T10:15:06Z</time>
      </trkpt>
      <trkpt lat="49.84581" lon="2.5943">
        <ele>88.6</ele>
        <time>2022-07-10T10:15:07Z</time>
      </trkpt>
      <trkpt lat="49.84581" lon="2.59432">
        <ele>88.6</ele>
        <time>2022-07-10T10:15:08Z</time>
      </trkpt>
      <trkpt lat="49.8458" lon="2.59435">
        <ele>88.6</ele>
        <time>2022-07-10T10:15:09Z</time>
      </trkpt>
      <trkpt lat="49.8458" lon="2.59436">
        <ele>88.5</ele>
        <time>2022-07-10T10:15:11Z</time>
      </trkpt>
      <trkpt lat="49.84579" lon="2.59438">
        <ele>88.5</ele>
        <time>2022-07-10T10:15:12Z</time>
      </trkpt>
      <trkpt lat="49.84579" lon="2.5944">
        <ele>88.5</ele>
        <time>2022-07-10T10:15:13Z</time>
      </trkpt>
      <trkpt lat="49.84578" lon="2.59443">
        <ele>88.4</ele>
        <time>2022-07-10T10:15:14Z</time>
      </trkpt>
      <trkpt lat="49.84578" lon="2.59444">
        <ele>88.4</ele>
        <time>2022-07-10T10:15:15Z</time>
      </trkpt>
      <trkpt lat="49.84577" lon="2.59447">
        <ele>88.3</ele>
        <time>2022-07-10T10:15:16Z</time>
      </trkpt>
      <trkpt lat="49.84577" lon="2.59449">
        <ele>88.3</ele>
        <time>2022-07-10T10:15:17Z</time>
      </trkpt>
      <trkpt lat="49.84577" lon="2.5945">
        <ele>88.3</ele>
        <time>2022-07-10T10:15:18Z</time>
      </trkpt>
      <trkpt lat="49.84576" lon="2.59453">
        <ele>88.2</ele>
        <time>2022-07-10T10:15:19Z</time>
      </trkpt>
      <trkpt lat="49.84576" lon="2.59454">
        <ele>88.2</ele>
        <time>2022-07-10T10:15:20Z</time>
      </trkpt>
      <trkpt lat="49.84575" lon="2.59458">
        <ele>88.1</ele>
        <time>2022-07-10T10:15:22Z</time>
      </trkpt>
      <trkpt lat="49.84575" lon="2.59459">
        <ele>88.1</ele>
        <time>2022-07-10T10:15:23Z</time>
      </trkpt>
      <trkpt lat="49.84575" lon="2.5946">
        <ele>88</ele>
        <time>2022-07-10T10:15:24Z</time>
      </trkpt>
      <trkpt lat="49.84574" lon="2.59463">
        <ele>88</ele>
        <time>2022-07-10T10:15:25Z</time>
      </trkpt>
      <trkpt lat="49.84574" lon="2.59465">
        <ele>87.9</ele>
        <time>2022-07-10T10:15:26Z</time>
      </trkpt>
      <trkpt lat="49.84573" lon="2.59467">
        <ele>87.9</ele>
        <time>2022-07-10T10:15:27Z</time>
      </trkpt>
      <trkpt lat="49.84573" lon="2.59469">
        <ele>87.8</ele>
        <time>2022-07-10T10:15:29Z</time>
      </trkpt>
      <trkpt lat="49.84572" lon="2.59472">
        <ele>87.7</ele>
        <time>2022-07-10T10:15:30Z</time>
      </trkpt>
      <trkpt lat="49.84572" lon="2.59474">
        <ele>87.7</ele>
        <time>2022-07-10T10:15:31Z</time>
      </trkpt>
      <trkpt lat="49.84571" lon="2.59475">
        <ele>87.6</ele>
        <time>2022-07-10T10:15:32Z</time>
      </trkpt>
      <trkpt lat="49.84571" lon="2.59478">
        <ele>87.6</ele>
        <time>2022-07-10T10:15:33Z</time>
      </trkpt>
      <trkpt lat="49.8457" lon="2.59481">
        <ele>87.5</ele>
        <time>2022-07-10T10:15:34Z</time>
      </trkpt>
      <trkpt lat="49.8457" lon="2.59482">
        <ele>87.4</ele>
        <time>2022-07-10T10:15:35Z</time>
      </trkpt>
      <trkpt lat="49.84569" lon="2.59485">
        <ele>87.3</ele>
        <time>2022-07-10T10:15:37Z</time>
      </trkpt>
      <trkpt lat="49.84568" lon="2.59487">
        <ele>87.3</ele>
        <time>2022-07-10T10:15:39Z</time>
      </trkpt>
      <trkpt lat="49.84567" lon="2.59489">
        <ele>87.2</ele>
        <time>2022-07-10T10:15:40Z</time>
      </trkpt>
      <trkpt lat="49.84566" lon="2.59491">
        <ele>87.1</ele>
        <time>2022-07-10T10:15:41Z</time>
      </trkpt>
      <trkpt lat="49.84566" lon="2.59492">
        <ele>87.1</ele>
        <time>2022-07-10T10:15:42Z</time>
      </trkpt>
      <trkpt lat="49.84565" lon="2.59494">
        <ele>87</ele>
        <time>2022-07-10T10:15:43Z</time>
      </trkpt>
      <trkpt lat="49.84564" lon="2.59496">
        <ele>86.9</ele>
        <time>2022-07-10T10:15:45Z</time>
      </trkpt>
      <trkpt lat="49.84564" lon="2.59497">
        <ele>86.9</ele>
        <time>2022-07-10T10:15:46Z</time>
      </trkpt>
      <trkpt lat="49.84563" lon="2.59498">
        <ele>86.8</ele>
        <time>2022-07-10T10:15:47Z</time>
      </trkpt>
      <trkpt lat="49.84563" lon="2.595">
        <ele>86.8</ele>
        <time>2022-07-10T10:15:48Z</time>
      </trkpt>
      <trkpt lat="49.84563" lon="2.59501">
        <ele>86.7</ele>
        <time>2022-07-10T10:15:49Z</time>
      </trkpt>
      <trkpt lat="49.84562" lon="2.59503">
        <ele>86.7</ele>
        <time>2022-07-10T10:15:50Z</time>
      </trkpt>
      <trkpt lat="49.84562" lon="2.59506">
        <ele>86.6</ele>
        <time>2022-07-10T10:15:51Z</time>
      </trkpt>
      <trkpt lat="49.84561" lon="2.59509">
        <ele>86.5</ele>
        <time>2022-07-10T10:15:52Z</time>
      </trkpt>
      <trkpt lat="49.84561" lon="2.5951">
        <ele>86.4</ele>
        <time>2022-07-10T10:15:54Z</time>
      </trkpt>
      <trkpt lat="49.84561" lon="2.59512">
        <ele>86.4</ele>
        <time>2022-07-10T10:15:55Z</time>
      </trkpt>
      <trkpt lat="49.8456" lon="2.59513">
        <ele>86.3</ele>
        <time>2022-07-10T10:15:56Z</time>
      </trkpt>
      <trkpt lat="49.8456" lon="2.59515">
        <ele>86.2</ele>
        <time>2022-07-10T10:15:57Z</time>
      </trkpt>
      <trkpt lat="49.8456" lon="2.59517">
        <ele>86.2</ele>
        <time>2022-07-10T10:15:58Z</time>
      </trkpt>
      <trkpt lat="49.84559" lon="2.5952">
        <ele>86</ele>
        <time>2022-07-10T10:16:00Z</time>
      </trkpt>
      <trkpt lat="49.84559" lon="2.59521">
        <ele>86</ele>
        <time>2022-07-10T10:16:01Z</time>
      </trkpt>
      <trkpt lat="49.84559" lon="2.59523">
        <ele>85.9</ele>
        <time>2022-07-10T10:16:02Z</time>
      </trkpt>
      <trkpt lat="49.84559" lon="2.59526">
        <ele>85.8</ele>
        <time>2022-07-10T10:16:03Z</time>
      </trkpt>
      <trkpt lat="49.84559" lon="2.59528">
        <ele>85.7</ele>
        <time>2022-07-10T10:16:04Z</time>
      </trkpt>
      <trkpt lat="49.8456" lon="2.5953">
        <ele>85.7</ele>
        <time>2022-07-10T10:16:06Z</time>
      </trkpt>
      <trkpt lat="49.8456" lon="2.59531">
        <ele>85.6</ele>
        <time>2022-07-10T10:16:07Z</time>
      </trkpt>
      <trkpt lat="49.8456" lon="2.59534">
        <ele>85.5</ele>
        <time>2022-07-10T10:16:08Z</time>
      </trkpt>
      <trkpt lat="49.8456" lon="2.59538">
        <ele>85.4</ele>
        <time>2022-07-10T10:16:10Z</time>
      </trkpt>
      <trkpt lat="49.8456" lon="2.59539">
        <ele>85.4</ele>
        <time>2022-07-10T10:16:11Z</time>
      </trkpt>
      <trkpt lat="49.84561" lon="2.5954">
        <ele>85.3</ele>
        <time>2022-07-10T10:16:12Z</time>
      </trkpt>
      <trkpt lat="49.84561" lon="2.59542">
        <ele>85.3</ele>
        <time>2022-07-10T10:16:13Z</time>
      </trkpt>
      <trkpt lat="49.84561" lon="2.59544">
        <ele>85.2</ele>
        <time>2022-07-10T10:16:14Z</time>
      </trkpt>
      <trkpt lat="49.8456" lon="2.59548">
        <ele>85.1</ele>
        <time>2022-07-10T10:16:15Z</time>
      </trkpt>
      <trkpt lat="49.8456" lon="2.59549">
        <ele>85.1</ele>
        <time>2022-07-10T10:16:16Z</time>
      </trkpt>
      <trkpt lat="49.8456" lon="2.59551">
        <ele>85</ele>
        <time>2022-07-10T10:16:17Z</time>
      </trkpt>
      <trkpt lat="49.8456" lon="2.59554">
        <ele>85</ele>
        <time>2022-07-10T10:16:18Z</time>
      </trkpt>
      <trkpt lat="49.8456" lon="2.59557">
        <ele>84.8</ele>
        <time>2022-07-10T10:16:20Z</time>
      </trkpt>
      <trkpt lat="49.84559" lon="2.59558">
        <ele>84.8</ele>
        <time>2022-07-10T10:16:21Z</time>
      </trkpt>
      <trkpt lat="49.84559" lon="2.5956">
        <ele>84.7</ele>
        <time>2022-07-10T10:16:22Z</time>
      </trkpt>
      <trkpt lat="49.84559" lon="2.59562">
        <ele>84.7</ele>
        <time>2022-07-10T10:16:23Z</time>
      </trkpt>
      <trkpt lat="49.84558" lon="2.59563">
        <ele>84.6</ele>
        <time>2022-07-10T10:16:24Z</time>
      </trkpt>
      <trkpt lat="49.84558" lon="2.59566">
        <ele>84.5</ele>
        <time>2022-07-10T10:16:25Z</time>
      </trkpt>
      <trkpt lat="49.84558" lon="2.59569">
        <ele>84.4</ele>
        <time>2022-07-10T10:16:26Z</time>
      </trkpt>
      <trkpt lat="49.84558" lon="2.59571">
        <ele>84.3</ele>
        <time>2022-07-10T10:16:27Z</time>
      </trkpt>
      <trkpt lat="49.84557" lon="2.59572">
        <ele>84.3</ele>
        <time>2022-07-10T10:16:28Z</time>
      </trkpt>
      <trkpt lat="49.84557" lon="2.59575">
        <ele>84.1</ele>
        <time>2022-07-10T10:16:29Z</time>
      </trkpt>
      <trkpt lat="49.84557" lon="2.59577">
        <ele>84</ele>
        <time>2022-07-10T10:16:31Z</time>
      </trkpt>
      <trkpt lat="49.84557" lon="2.5958">
        <ele>83.9</ele>
        <time>2022-07-10T10:16:32Z</time>
      </trkpt>
      <trkpt lat="49.84557" lon="2.59582">
        <ele>83.8</ele>
        <time>2022-07-10T10:16:33Z</time>
      </trkpt>
      <trkpt lat="49.84557" lon="2.59584">
        <ele>83.7</ele>
        <time>2022-07-10T10:16:34Z</time>
      </trkpt>
      <trkpt lat="49.84556" lon="2.59587">
        <ele>83.6</ele>
        <time>2022-07-10T10:16:35Z</time>
      </trkpt>
      <trkpt lat="49.84556" lon="2.5959">
        <ele>83.4</ele>
        <time>2022-07-10T10:16:36Z</time>
      </trkpt>
      <trkpt lat="49.84556" lon="2.59591">
        <ele>83.3</ele>
        <time>2022-07-10T10:16:37Z</time>
      </trkpt>
      <trkpt lat="49.84556" lon="2.59592">
        <ele>83.3</ele>
        <time>2022-07-10T10:16:38Z</time>
      </trkpt>
      <trkpt lat="49.84555" lon="2.59594">
        <ele>83.2</ele>
        <time>2022-07-10T10:16:39Z</time>
      </trkpt>
      <trkpt lat="49.84555" lon="2.59597">
        <ele>83</ele>
        <time>2022-07-10T10:16:40Z</time>
      </trkpt>
      <trkpt lat="49.84555" lon="2.596">
        <ele>82.8</ele>
        <time>2022-07-10T10:16:41Z</time>
      </trkpt>
      <trkpt lat="49.84555" lon="2.59602">
        <ele>82.8</ele>
        <time>2022-07-10T10:16:42Z</time>
      </trkpt>
      <trkpt lat="49.84554" lon="2.59603">
        <ele>82.7</ele>
        <time>2022-07-10T10:16:43Z</time>
      </trkpt>
      <trkpt lat="49.84554" lon="2.59607">
        <ele>82.5</ele>
        <time>2022-07-10T10:16:45Z</time>
      </trkpt>
      <trkpt lat="49.84554" lon="2.59609">
        <ele>82.4</ele>
        <time>2022-07-10T10:16:46Z</time>
      </trkpt>
      <trkpt lat="49.84554" lon="2.59613">
        <ele>82.2</ele>
        <time>2022-07-10T10:16:47Z</time>
      </trkpt>
      <trkpt lat="49.84554" lon="2.59615">
        <ele>82.1</ele>
        <time>2022-07-10T10:16:49Z</time>
      </trkpt>
      <trkpt lat="49.84555" lon="2.59617">
        <ele>82</ele>
        <time>2022-07-10T10:16:50Z</time>
      </trkpt>
      <trkpt lat="49.84555" lon="2.59618">
        <ele>81.9</ele>
        <time>2022-07-10T10:16:51Z</time>
      </trkpt>
      <trkpt lat="49.84555" lon="2.5962">
        <ele>81.8</ele>
        <time>2022-07-10T10:16:52Z</time>
      </trkpt>
      <trkpt lat="49.84555" lon="2.59622">
        <ele>81.7</ele>
        <time>2022-07-10T10:16:53Z</time>
      </trkpt>
      <trkpt lat="49.84555" lon="2.59624">
        <ele>81.6</ele>
        <time>2022-07-10T10:16:54Z</time>
      </trkpt>
      <trkpt lat="49.84556" lon="2.59629">
        <ele>81.3</ele>
        <time>2022-07-10T10:16:55Z</time>
      </trkpt>
      <trkpt lat="49.84556" lon="2.5963">
        <ele>81.3</ele>
        <time>2022-07-10T10:16:56Z</time>
      </trkpt>
      <trkpt lat="49.84556" lon="2.59632">
        <ele>81.2</ele>
        <time>2022-07-10T10:16:57Z</time>
      </trkpt>
      <trkpt lat="49.84556" lon="2.59633">
        <ele>81.1</ele>
        <time>2022-07-10T10:16:58Z</time>
      </trkpt>
      <trkpt lat="49.84557" lon="2.59637">
        <ele>80.9</ele>
        <time>2022-07-10T10:16:59Z</time>
      </trkpt>
      <trkpt lat="49.84556" lon="2.59639">
        <ele>80.8</ele>
        <time>2022-07-10T10:17:01Z</time>
      </trkpt>
      <trkpt lat="49.84556" lon="2.5964">
        <ele>80.7</ele>
        <time>2022-07-10T10:17:02Z</time>
      </trkpt>
      <trkpt lat="49.84556" lon="2.59642">
        <ele>80.6</ele>
        <time>2022-07-10T10:17:03Z</time>
      </trkpt>
      <trkpt lat="49.84556" lon="2.59644">
        <ele>80.5</ele>
        <time>2022-07-10T10:17:04Z</time>
      </trkpt>
      <trkpt lat="49.84556" lon="2.59646">
        <ele>80.4</ele>
        <time>2022-07-10T10:17:05Z</time>
      </trkpt>
      <trkpt lat="49.84555" lon="2.59647">
        <ele>80.3</ele>
        <time>2022-07-10T10:17:06Z</time>
      </trkpt>
      <trkpt lat="49.84555" lon="2.59649">
        <ele>80.2</ele>
        <time>2022-07-10T10:17:07Z</time>
      </trkpt>
      <trkpt lat="49.84555" lon="2.59652">
        <ele>80</ele>
        <time>2022-07-10T10:17:08Z</time>
      </trkpt>
      <trkpt lat="49.84555" lon="2.59654">
        <ele>79.9</ele>
        <time>2022-07-10T10:17:09Z</time>
      </trkpt>
      <trkpt lat="49.84555" lon="2.59656">
        <ele>79.8</ele>
        <time>2022-07-10T10:17:10Z</time>
      </trkpt>
      <trkpt lat="49.84555" lon="2.59659">
        <ele>79.6</ele>
        <time>2022-07-10T10:17:11Z</time>
      </trkpt>
      <trkpt lat="49.84556" lon="2.59661">
        <ele>79.5</ele>
        <time>2022-07-10T10:17:12Z</time>
      </trkpt>
      <trkpt lat="49.84556" lon="2.59664">
        <ele>79.3</ele>
        <time>2022-07-10T10:17:13Z</time>
      </trkpt>
      <trkpt lat="49.84556" lon="2.59666">
        <ele>79.2</ele>
        <time>2022-07-10T10:17:14Z</time>
      </trkpt>
      <trkpt lat="49.84556" lon="2.59669">
        <ele>79</ele>
        <time>2022-07-10T10:17:16Z</time>
      </trkpt>
      <trkpt lat="49.84556" lon="2.59671">
        <ele>79</ele>
        <time>2022-07-10T10:17:17Z</time>
      </trkpt>
      <trkpt lat="49.84556" lon="2.59672">
        <ele>78.9</ele>
        <time>2022-07-10T10:17:18Z</time>
      </trkpt>
      <trkpt lat="49.84556" lon="2.59674">
        <ele>78.8</ele>
        <time>2022-07-10T10:17:19Z</time>
      </trkpt>
      <trkpt lat="49.84556" lon="2.59677">
        <ele>78.6</ele>
        <time>2022-07-10T10:17:20Z</time>
      </trkpt>
      <trkpt lat="49.84555" lon="2.5968">
        <ele>78.4</ele>
        <time>2022-07-10T10:17:21Z</time>
      </trkpt>
      <trkpt lat="49.84555" lon="2.59681">
        <ele>78.4</ele>
        <time>2022-07-10T10:17:22Z</time>
      </trkpt>
      <trkpt lat="49.84555" lon="2.59683">
        <ele>78.3</ele>
        <time>2022-07-10T10:17:23Z</time>
      </trkpt>
      <trkpt lat="49.84554" lon="2.59688">
        <ele>78</ele>
        <time>2022-07-10T10:17:24Z</time>
      </trkpt>
      <trkpt lat="49.84554" lon="2.59689">
        <ele>77.9</ele>
        <time>2022-07-10T10:17:25Z</time>
      </trkpt>
      <trkpt lat="49.84553" lon="2.59692">
        <ele>77.7</ele>
        <time>2022-07-10T10:17:26Z</time>
      </trkpt>
      <trkpt lat="49.84553" lon="2.59694">
        <ele>77.7</ele>
        <time>2022-07-10T10:17:27Z</time>
      </trkpt>
      <trkpt lat="49.84552" lon="2.59695">
        <ele>77.6</ele>
        <time>2022-07-10T10:17:28Z</time>
      </trkpt>
      <trkpt lat="49.84552" lon="2.59699">
        <ele>77.4</ele>
        <time>2022-07-10T10:17:31Z</time>
      </trkpt>
      <trkpt lat="49.84551" lon="2.59702">
        <ele>77.2</ele>
        <time>2022-07-10T10:17:32Z</time>
      </trkpt>
      <trkpt lat="49.84551" lon="2.59704">
        <ele>77.1</ele>
        <time>2022-07-10T10:17:33Z</time>
      </trkpt>
      <trkpt lat="49.8455" lon="2.59708">
        <ele>76.9</ele>
        <time>2022-07-10T10:17:34Z</time>
      </trkpt>
      <trkpt lat="49.84549" lon="2.59711">
        <ele>76.7</ele>
        <time>2022-07-10T10:17:35Z</time>
      </trkpt>
      <trkpt lat="49.84549" lon="2.59712">
        <ele>76.7</ele>
        <time>2022-07-10T10:17:36Z</time>
      </trkpt>
      <trkpt lat="49.84549" lon="2.59714">
        <ele>76.6</ele>
        <time>2022-07-10T10:17:37Z</time>
      </trkpt>
      <trkpt lat="49.84548" lon="2.59716">
        <ele>76.5</ele>
        <time>2022-07-10T10:17:38Z</time>
      </trkpt>
      <trkpt lat="49.84548" lon="2.59717">
        <ele>76.4</ele>
        <time>2022-07-10T10:17:39Z</time>
      </trkpt>
      <trkpt lat="49.84548" lon="2.5972">
        <ele>76.2</ele>
        <time>2022-07-10T10:17:40Z</time>
      </trkpt>
      <trkpt lat="49.84547" lon="2.59721">
        <ele>76.1</ele>
        <time>2022-07-10T10:17:41Z</time>
      </trkpt>
      <trkpt lat="49.84547" lon="2.59723">
        <ele>76.1</ele>
        <time>2022-07-10T10:17:43Z</time>
      </trkpt>
      <trkpt lat="49.84547" lon="2.59725">
        <ele>75.9</ele>
        <time>2022-07-10T10:17:44Z</time>
      </trkpt>
      <trkpt lat="49.84547" lon="2.59728">
        <ele>75.8</ele>
        <time>2022-07-10T10:17:45Z</time>
      </trkpt>
      <trkpt lat="49.84546" lon="2.59729">
        <ele>75.7</ele>
        <time>2022-07-10T10:17:46Z</time>
      </trkpt>
      <trkpt lat="49.84546" lon="2.59731">
        <ele>75.6</ele>
        <time>2022-07-10T10:17:47Z</time>
      </trkpt>
      <trkpt lat="49.84546" lon="2.59733">
        <ele>75.5</ele>
        <time>2022-07-10T10:17:48Z</time>
      </trkpt>
      <trkpt lat="49.84546" lon="2.59735">
        <ele>75.4</ele>
        <time>2022-07-10T10:17:49Z</time>
      </trkpt>
      <trkpt lat="49.84547" lon="2.59738">
        <ele>75.2</ele>
        <time>2022-07-10T10:17:51Z</time>
      </trkpt>
      <trkpt lat="49.84547" lon="2.59739">
        <ele>75.2</ele>
        <time>2022-07-10T10:17:52Z</time>
      </trkpt>
      <trkpt lat="49.84547" lon="2.5974">
        <ele>75.1</ele>
        <time>2022-07-10T10:17:53Z</time>
      </trkpt>
      <trkpt lat="49.84548" lon="2.59742">
        <ele>75</ele>
        <time>2022-07-10T10:17:54Z</time>
      </trkpt>
      <trkpt lat="49.84548" lon="2.59746">
        <ele>74.8</ele>
        <time>2022-07-10T10:17:56Z</time>
      </trkpt>
      <trkpt lat="49.84549" lon="2.59747">
        <ele>74.8</ele>
        <time>2022-07-10T10:17:57Z</time>
      </trkpt>
      <trkpt lat="49.84548" lon="2.59747">
        <ele>74.7</ele>
        <time>2022-07-10T10:17:58Z</time>
      </trkpt>
      <trkpt lat="49.84548" lon="2.59747">
        <ele>74.7</ele>
        <time>2022-07-10T10:17:59Z</time>
      </trkpt>
      <trkpt lat="49.84548" lon="2.59748">
        <ele>74.6</ele>
        <time>2022-07-10T10:18:00Z</time>
      </trkpt>
      <trkpt lat="49.84548" lon="2.5975">
        <ele>74.6</ele>
        <time>2022-07-10T10:18:01Z</time>
      </trkpt>
      <trkpt lat="49.84548" lon="2.59751">
        <ele>74.5</ele>
        <time>2022-07-10T10:18:02Z</time>
      </trkpt>
      <trkpt lat="49.84549" lon="2.59754">
        <ele>74.4</ele>
        <time>2022-07-10T10:18:03Z</time>
      </trkpt>
      <trkpt lat="49.84549" lon="2.59756">
        <ele>74.3</ele>
        <time>2022-07-10T10:18:04Z</time>
      </trkpt>
      <trkpt lat="49.84549" lon="2.59757">
        <ele>74.2</ele>
        <time>2022-07-10T10:18:05Z</time>
      </trkpt>
      <trkpt lat="49.8455" lon="2.59761">
        <ele>74.1</ele>
        <time>2022-07-10T10:18:06Z</time>
      </trkpt>
      <trkpt lat="49.8455" lon="2.59763">
        <ele>74.1</ele>
        <time>2022-07-10T10:18:08Z</time>
      </trkpt>
      <trkpt lat="49.84551" lon="2.59764">
        <ele>74</ele>
        <time>2022-07-10T10:18:09Z</time>
      </trkpt>
      <trkpt lat="49.84551" lon="2.59767">
        <ele>73.9</ele>
        <time>2022-07-10T10:18:10Z</time>
      </trkpt>
      <trkpt lat="49.84551" lon="2.59769">
        <ele>73.9</ele>
        <time>2022-07-10T10:18:12Z</time>
      </trkpt>
      <trkpt lat="49.84551" lon="2.5977">
        <ele>73.8</ele>
        <time>2022-07-10T10:18:13Z</time>
      </trkpt>
      <trkpt lat="49.84551" lon="2.59772">
        <ele>73.8</ele>
        <time>2022-07-10T10:18:14Z</time>
      </trkpt>
      <trkpt lat="49.84551" lon="2.59773">
        <ele>73.8</ele>
        <time>2022-07-10T10:18:15Z</time>
      </trkpt>
      <trkpt lat="49.84551" lon="2.59775">
        <ele>73.7</ele>
        <time>2022-07-10T10:18:16Z</time>
      </trkpt>
      <trkpt lat="49.84551" lon="2.59778">
        <ele>73.7</ele>
        <time>2022-07-10T10:18:17Z</time>
      </trkpt>
      <trkpt lat="49.84551" lon="2.5978">
        <ele>73.6</ele>
        <time>2022-07-10T10:18:18Z</time>
      </trkpt>
      <trkpt lat="49.8455" lon="2.59781">
        <ele>73.6</ele>
        <time>2022-07-10T10:18:19Z</time>
      </trkpt>
      <trkpt lat="49.8455" lon="2.59782">
        <ele>73.6</ele>
        <time>2022-07-10T10:18:21Z</time>
      </trkpt>
      <trkpt lat="49.8455" lon="2.59783">
        <ele>73.6</ele>
        <time>2022-07-10T10:18:22Z</time>
      </trkpt>
      <trkpt lat="49.84549" lon="2.59785">
        <ele>73.6</ele>
        <time>2022-07-10T10:18:23Z</time>
      </trkpt>
      <trkpt lat="49.84549" lon="2.59786">
        <ele>73.5</ele>
        <time>2022-07-10T10:18:24Z</time>
      </trkpt>
      <trkpt lat="49.84547" lon="2.59787">
        <ele>73.5</ele>
        <time>2022-07-10T10:18:26Z</time>
      </trkpt>
      <trkpt lat="49.84546" lon="2.59787">
        <ele>73.5</ele>
        <time>2022-07-10T10:18:27Z</time>
      </trkpt>
      <trkpt lat="49.84545" lon="2.59786">
        <ele>73.5</ele>
        <time>2022-07-10T10:18:28Z</time>
      </trkpt>
      <trkpt lat="49.84545" lon="2.59785">
        <ele>73.5</ele>
        <time>2022-07-10T10:18:29Z</time>
      </trkpt>
      <trkpt lat="49.84545" lon="2.59785">
        <ele>73.5</ele>
        <time>2022-07-10T10:18:30Z</time>
      </trkpt>
      <trkpt lat="49.84545" lon="2.59784">
        <ele>73.5</ele>
        <time>2022-07-10T10:18:31Z</time>
      </trkpt>
      <trkpt lat="49.84545" lon="2.59784">
        <ele>73.5</ele>
        <time>2022-07-10T10:18:32Z</time>
      </trkpt>
      <trkpt lat="49.84545" lon="2.59784">
        <ele>73.5</ele>
        <time>2022-07-10T10:18:33Z</time>
      </trkpt>
      <trkpt lat="49.84545" lon="2.59784">
        <ele>73.5</ele>
        <time>2022-07-10T10:18:34Z</time>
      </trkpt>
      <trkpt lat="49.84545" lon="2.59784">
        <ele>73.5</ele>
        <time>2022-07-10T10:18:35Z</time>
      </trkpt>
      <trkpt lat="49.84545" lon="2.59784">
        <ele>73.5</ele>
        <time>2022-07-10T10:18:36Z</time>
      </trkpt>
      <trkpt lat="49.84545" lon="2.59784">
        <ele>73.5</ele>
        <time>2022-07-10T10:18:37Z</time>
      </trkpt>
      <trkpt lat="49.84545" lon="2.59784">
        <ele>73.5</ele>
        <time>2022-07-10T10:18:38Z</time>
      </trkpt>
      <trkpt lat="49.84545" lon="2.59784">
        <ele>73.5</ele>
        <time>2022-07-10T10:18:40Z</time>
      </trkpt>
      <trkpt lat="49.84545" lon="2.59785">
        <ele>73.5</ele>
        <time>2022-07-10T10:18:41Z</time>
      </trkpt>
      <trkpt lat="49.84545" lon="2.59786">
        <ele>73.4</ele>
        <time>2022-07-10T10:18:42Z</time>
      </trkpt>
      <trkpt lat="49.84545" lon="2.59787">
        <ele>73.4</ele>
        <time>2022-07-10T10:18:43Z</time>
      </trkpt>
      <trkpt lat="49.84545" lon="2.59788">
        <ele>73.4</ele>
        <time>2022-07-10T10:18:44Z</time>
      </trkpt>
      <trkpt lat="49.84545" lon="2.59789">
        <ele>73.4</ele>
        <time>2022-07-10T10:18:46Z</time>
      </trkpt>
      <trkpt lat="49.84545" lon="2.59791">
        <ele>73.4</ele>
        <time>2022-07-10T10:18:47Z</time>
      </trkpt>
      <trkpt lat="49.84545" lon="2.59792">
        <ele>73.4</ele>
        <time>2022-07-10T10:18:48Z</time>
      </trkpt>
      <trkpt lat="49.84545" lon="2.59794">
        <ele>73.4</ele>
        <time>2022-07-10T10:18:49Z</time>
      </trkpt>
      <trkpt lat="49.84546" lon="2.59795">
        <ele>73.4</ele>
        <time>2022-07-10T10:18:50Z</time>
      </trkpt>
      <trkpt lat="49.84546" lon="2.59798">
        <ele>73.4</ele>
        <time>2022-07-10T10:18:52Z</time>
      </trkpt>
      <trkpt lat="49.84546" lon="2.59799">
        <ele>73.4</ele>
        <time>2022-07-10T10:18:53Z</time>
      </trkpt>
      <trkpt lat="49.84546" lon="2.59801">
        <ele>73.4</ele>
        <time>2022-07-10T10:18:54Z</time>
      </trkpt>
      <trkpt lat="49.84546" lon="2.59803">
        <ele>73.4</ele>
        <time>2022-07-10T10:18:55Z</time>
      </trkpt>
      <trkpt lat="49.84546" lon="2.59805">
        <ele>73.4</ele>
        <time>2022-07-10T10:18:56Z</time>
      </trkpt>
      <trkpt lat="49.84546" lon="2.59809">
        <ele>73.4</ele>
        <time>2022-07-10T10:18:57Z</time>
      </trkpt>
      <trkpt lat="49.84545" lon="2.59811">
        <ele>73.4</ele>
        <time>2022-07-10T10:18:59Z</time>
      </trkpt>
      <trkpt lat="49.84545" lon="2.59812">
        <ele>73.4</ele>
        <time>2022-07-10T10:19:00Z</time>
      </trkpt>
      <trkpt lat="49.84545" lon="2.59814">
        <ele>73.4</ele>
        <time>2022-07-10T10:19:01Z</time>
      </trkpt>
      <trkpt lat="49.84545" lon="2.59816">
        <ele>73.4</ele>
        <time>2022-07-10T10:19:02Z</time>
      </trkpt>
      <trkpt lat="49.84545" lon="2.59819">
        <ele>73.4</ele>
        <time>2022-07-10T10:19:03Z</time>
      </trkpt>
      <trkpt lat="49.84544" lon="2.59821">
        <ele>73.4</ele>
        <time>2022-07-10T10:19:04Z</time>
      </trkpt>
      <trkpt lat="49.84544" lon="2.59822">
        <ele>73.4</ele>
        <time>2022-07-10T10:19:05Z</time>
      </trkpt>
      <trkpt lat="49.84543" lon="2.59826">
        <ele>73.4</ele>
        <time>2022-07-10T10:19:07Z</time>
      </trkpt>
      <trkpt lat="49.84543" lon="2.59827">
        <ele>73.4</ele>
        <time>2022-07-10T10:19:08Z</time>
      </trkpt>
      <trkpt lat="49.84542" lon="2.59829">
        <ele>73.4</ele>
        <time>2022-07-10T10:19:09Z</time>
      </trkpt>
      <trkpt lat="49.8454" lon="2.59831">
        <ele>73.4</ele>
        <time>2022-07-10T10:19:10Z</time>
      </trkpt>
      <trkpt lat="49.8454" lon="2.59834">
        <ele>73.4</ele>
        <time>2022-07-10T10:19:12Z</time>
      </trkpt>
      <trkpt lat="49.8454" lon="2.59835">
        <ele>73.4</ele>
        <time>2022-07-10T10:19:13Z</time>
      </trkpt>
      <trkpt lat="49.84539" lon="2.59836">
        <ele>73.4</ele>
        <time>2022-07-10T10:19:14Z</time>
      </trkpt>
      <trkpt lat="49.84539" lon="2.59838">
        <ele>73.4</ele>
        <time>2022-07-10T10:19:15Z</time>
      </trkpt>
      <trkpt lat="49.84539" lon="2.59841">
        <ele>73.4</ele>
        <time>2022-07-10T10:19:16Z</time>
      </trkpt>
      <trkpt lat="49.84539" lon="2.59844">
        <ele>73.4</ele>
        <time>2022-07-10T10:19:17Z</time>
      </trkpt>
      <trkpt lat="49.84539" lon="2.59846">
        <ele>73.4</ele>
        <time>2022-07-10T10:19:18Z</time>
      </trkpt>
      <trkpt lat="49.84539" lon="2.59847">
        <ele>73.5</ele>
        <time>2022-07-10T10:19:19Z</time>
      </trkpt>
      <trkpt lat="49.84539" lon="2.59849">
        <ele>73.5</ele>
        <time>2022-07-10T10:19:20Z</time>
      </trkpt>
      <trkpt lat="49.84539" lon="2.59852">
        <ele>73.5</ele>
        <time>2022-07-10T10:19:22Z</time>
      </trkpt>
      <trkpt lat="49.8454" lon="2.59853">
        <ele>73.5</ele>
        <time>2022-07-10T10:19:23Z</time>
      </trkpt>
      <trkpt lat="49.8454" lon="2.59855">
        <ele>73.5</ele>
        <time>2022-07-10T10:19:24Z</time>
      </trkpt>
      <trkpt lat="49.8454" lon="2.59857">
        <ele>73.6</ele>
        <time>2022-07-10T10:19:25Z</time>
      </trkpt>
      <trkpt lat="49.8454" lon="2.59859">
        <ele>73.6</ele>
        <time>2022-07-10T10:19:26Z</time>
      </trkpt>
      <trkpt lat="49.8454" lon="2.59862">
        <ele>73.7</ele>
        <time>2022-07-10T10:19:27Z</time>
      </trkpt>
      <trkpt lat="49.8454" lon="2.59864">
        <ele>73.7</ele>
        <time>2022-07-10T10:19:29Z</time>
      </trkpt>
      <trkpt lat="49.84541" lon="2.59865">
        <ele>73.7</ele>
        <time>2022-07-10T10:19:30Z</time>
      </trkpt>
      <trkpt lat="49.84541" lon="2.59867">
        <ele>73.8</ele>
        <time>2022-07-10T10:19:31Z</time>
      </trkpt>
      <trkpt lat="49.84541" lon="2.59871">
        <ele>73.9</ele>
        <time>2022-07-10T10:19:32Z</time>
      </trkpt>
      <trkpt lat="49.84541" lon="2.59873">
        <ele>73.9</ele>
        <time>2022-07-10T10:19:34Z</time>
      </trkpt>
      <trkpt lat="49.84542" lon="2.59874">
        <ele>74</ele>
        <time>2022-07-10T10:19:35Z</time>
      </trkpt>
      <trkpt lat="49.84542" lon="2.59876">
        <ele>74</ele>
        <time>2022-07-10T10:19:36Z</time>
      </trkpt>
      <trkpt lat="49.84543" lon="2.59879">
        <ele>74.1</ele>
        <time>2022-07-10T10:19:37Z</time>
      </trkpt>
      <trkpt lat="49.84543" lon="2.5988">
        <ele>74.2</ele>
        <time>2022-07-10T10:19:38Z</time>
      </trkpt>
      <trkpt lat="49.84544" lon="2.59882">
        <ele>74.3</ele>
        <time>2022-07-10T10:19:39Z</time>
      </trkpt>
      <trkpt lat="49.84544" lon="2.59884">
        <ele>74.4</ele>
        <time>2022-07-10T10:19:40Z</time>
      </trkpt>
      <trkpt lat="49.84545" lon="2.59887">
        <ele>74.5</ele>
        <time>2022-07-10T10:19:42Z</time>
      </trkpt>
      <trkpt lat="49.84545" lon="2.59888">
        <ele>74.6</ele>
        <time>2022-07-10T10:19:43Z</time>
      </trkpt>
      <trkpt lat="49.84546" lon="2.5989">
        <ele>74.7</ele>
        <time>2022-07-10T10:19:44Z</time>
      </trkpt>
      <trkpt lat="49.84546" lon="2.59891">
        <ele>74.7</ele>
        <time>2022-07-10T10:19:46Z</time>
      </trkpt>
      <trkpt lat="49.84547" lon="2.59894">
        <ele>74.9</ele>
        <time>2022-07-10T10:19:47Z</time>
      </trkpt>
      <trkpt lat="49.84547" lon="2.59895">
        <ele>74.9</ele>
        <time>2022-07-10T10:19:48Z</time>
      </trkpt>
      <trkpt lat="49.84548" lon="2.59897">
        <ele>75</ele>
        <time>2022-07-10T10:19:49Z</time>
      </trkpt>
      <trkpt lat="49.84548" lon="2.59899">
        <ele>75.1</ele>
        <time>2022-07-10T10:19:50Z</time>
      </trkpt>
      <trkpt lat="49.84549" lon="2.599">
        <ele>75.2</ele>
        <time>2022-07-10T10:19:51Z</time>
      </trkpt>
      <trkpt lat="49.8455" lon="2.59902">
        <ele>75.3</ele>
        <time>2022-07-10T10:19:53Z</time>
      </trkpt>
      <trkpt lat="49.8455" lon="2.59902">
        <ele>75.4</ele>
        <time>2022-07-10T10:19:54Z</time>
      </trkpt>
      <trkpt lat="49.84551" lon="2.59903">
        <ele>75.4</ele>
        <time>2022-07-10T10:19:55Z</time>
      </trkpt>
      <trkpt lat="49.84551" lon="2.59903">
        <ele>75.5</ele>
        <time>2022-07-10T10:19:56Z</time>
      </trkpt>
      <trkpt lat="49.84552" lon="2.59903">
        <ele>75.6</ele>
        <time>2022-07-10T10:19:57Z</time>
      </trkpt>
      <trkpt lat="49.84553" lon="2.59904">
        <ele>75.6</ele>
        <time>2022-07-10T10:19:58Z</time>
      </trkpt>
      <trkpt lat="49.84553" lon="2.59904">
        <ele>75.7</ele>
        <time>2022-07-10T10:19:59Z</time>
      </trkpt>
      <trkpt lat="49.84553" lon="2.59905">
        <ele>75.7</ele>
        <time>2022-07-10T10:20:01Z</time>
      </trkpt>
      <trkpt lat="49.84553" lon="2.59907">
        <ele>75.8</ele>
        <time>2022-07-10T10:20:02Z</time>
      </trkpt>
      <trkpt lat="49.84554" lon="2.59907">
        <ele>75.9</ele>
        <time>2022-07-10T10:20:03Z</time>
      </trkpt>
      <trkpt lat="49.84554" lon="2.59908">
        <ele>75.9</ele>
        <time>2022-07-10T10:20:04Z</time>
      </trkpt>
      <trkpt lat="49.84554" lon="2.5991">
        <ele>76</ele>
        <time>2022-07-10T10:20:06Z</time>
      </trkpt>
      <trkpt lat="49.84555" lon="2.59911">
        <ele>76.1</ele>
        <time>2022-07-10T10:20:07Z</time>
      </trkpt>
      <trkpt lat="49.84555" lon="2.59913">
        <ele>76.2</ele>
        <time>2022-07-10T10:20:08Z</time>
      </trkpt>
      <trkpt lat="49.84556" lon="2.59914">
        <ele>76.3</ele>
        <time>2022-07-10T10:20:09Z</time>
      </trkpt>
      <trkpt lat="49.84556" lon="2.59915">
        <ele>76.4</ele>
        <time>2022-07-10T10:20:10Z</time>
      </trkpt>
      <trkpt lat="49.84557" lon="2.59918">
        <ele>76.5</ele>
        <time>2022-07-10T10:20:11Z</time>
      </trkpt>
      <trkpt lat="49.84558" lon="2.5992">
        <ele>76.7</ele>
        <time>2022-07-10T10:20:13Z</time>
      </trkpt>
      <trkpt lat="49.84558" lon="2.59922">
        <ele>76.8</ele>
        <time>2022-07-10T10:20:14Z</time>
      </trkpt>
      <trkpt lat="49.84559" lon="2.59925">
        <ele>77</ele>
        <time>2022-07-10T10:20:15Z</time>
      </trkpt>
      <trkpt lat="49.84559" lon="2.59926">
        <ele>77.2</ele>
        <time>2022-07-10T10:20:16Z</time>
      </trkpt>
      <trkpt lat="49.8456" lon="2.59928">
        <ele>77.3</ele>
        <time>2022-07-10T10:20:17Z</time>
      </trkpt>
      <trkpt lat="49.8456" lon="2.59929">
        <ele>77.3</ele>
        <time>2022-07-10T10:20:19Z</time>
      </trkpt>
      <trkpt lat="49.8456" lon="2.59931">
        <ele>77.5</ele>
        <time>2022-07-10T10:20:20Z</time>
      </trkpt>
      <trkpt lat="49.8456" lon="2.59933">
        <ele>77.6</ele>
        <time>2022-07-10T10:20:21Z</time>
      </trkpt>
      <trkpt lat="49.8456" lon="2.59934">
        <ele>77.7</ele>
        <time>2022-07-10T10:20:22Z</time>
      </trkpt>
      <trkpt lat="49.8456" lon="2.59936">
        <ele>77.8</ele>
        <time>2022-07-10T10:20:24Z</time>
      </trkpt>
      <trkpt lat="49.84561" lon="2.59937">
        <ele>77.9</ele>
        <time>2022-07-10T10:20:25Z</time>
      </trkpt>
      <trkpt lat="49.84561" lon="2.59938">
        <ele>78</ele>
        <time>2022-07-10T10:20:26Z</time>
      </trkpt>
      <trkpt lat="49.84561" lon="2.5994">
        <ele>78.1</ele>
        <time>2022-07-10T10:20:27Z</time>
      </trkpt>
      <trkpt lat="49.84561" lon="2.59941">
        <ele>78.2</ele>
        <time>2022-07-10T10:20:28Z</time>
      </trkpt>
      <trkpt lat="49.84562" lon="2.59943">
        <ele>78.3</ele>
        <time>2022-07-10T10:20:29Z</time>
      </trkpt>
      <trkpt lat="49.84562" lon="2.59944">
        <ele>78.4</ele>
        <time>2022-07-10T10:20:31Z</time>
      </trkpt>
      <trkpt lat="49.84562" lon="2.59945">
        <ele>78.5</ele>
        <time>2022-07-10T10:20:32Z</time>
      </trkpt>
      <trkpt lat="49.84562" lon="2.59947">
        <ele>78.6</ele>
        <time>2022-07-10T10:20:33Z</time>
      </trkpt>
      <trkpt lat="49.84562" lon="2.59947">
        <ele>78.7</ele>
        <time>2022-07-10T10:20:34Z</time>
      </trkpt>
      <trkpt lat="49.84562" lon="2.59948">
        <ele>78.7</ele>
        <time>2022-07-10T10:20:35Z</time>
      </trkpt>
      <trkpt lat="49.84562" lon="2.5995">
        <ele>78.8</ele>
        <time>2022-07-10T10:20:36Z</time>
      </trkpt>
      <trkpt lat="49.84562" lon="2.59951">
        <ele>78.9</ele>
        <time>2022-07-10T10:20:37Z</time>
      </trkpt>
      <trkpt lat="49.84562" lon="2.59953">
        <ele>79</ele>
        <time>2022-07-10T10:20:38Z</time>
      </trkpt>
      <trkpt lat="49.84562" lon="2.59954">
        <ele>79.1</ele>
        <time>2022-07-10T10:20:39Z</time>
      </trkpt>
      <trkpt lat="49.84562" lon="2.59956">
        <ele>79.2</ele>
        <time>2022-07-10T10:20:40Z</time>
      </trkpt>
      <trkpt lat="49.84562" lon="2.59958">
        <ele>79.3</ele>
        <time>2022-07-10T10:20:41Z</time>
      </trkpt>
      <trkpt lat="49.84562" lon="2.5996">
        <ele>79.5</ele>
        <time>2022-07-10T10:20:43Z</time>
      </trkpt>
      <trkpt lat="49.84563" lon="2.59961">
        <ele>79.6</ele>
        <time>2022-07-10T10:20:44Z</time>
      </trkpt>
      <trkpt lat="49.84563" lon="2.59963">
        <ele>79.7</ele>
        <time>2022-07-10T10:20:45Z</time>
      </trkpt>
      <trkpt lat="49.84563" lon="2.59965">
        <ele>79.8</ele>
        <time>2022-07-10T10:20:46Z</time>
      </trkpt>
      <trkpt lat="49.84563" lon="2.59966">
        <ele>79.9</ele>
        <time>2022-07-10T10:20:47Z</time>
      </trkpt>
      <trkpt lat="49.84562" lon="2.59968">
        <ele>80</ele>
        <time>2022-07-10T10:20:48Z</time>
      </trkpt>
      <trkpt lat="49.84562" lon="2.5997">
        <ele>80.1</ele>
        <time>2022-07-10T10:20:49Z</time>
      </trkpt>
      <trkpt lat="49.84562" lon="2.59972">
        <ele>80.2</ele>
        <time>2022-07-10T10:20:50Z</time>
      </trkpt>
      <trkpt lat="49.84561" lon="2.59974">
        <ele>80.3</ele>
        <time>2022-07-10T10:20:51Z</time>
      </trkpt>
      <trkpt lat="49.84561" lon="2.59975">
        <ele>80.3</ele>
        <time>2022-07-10T10:20:52Z</time>
      </trkpt>
      <trkpt lat="49.84561" lon="2.59976">
        <ele>80.4</ele>
        <time>2022-07-10T10:20:53Z</time>
      </trkpt>
      <trkpt lat="49.84561" lon="2.59978">
        <ele>80.5</ele>
        <time>2022-07-10T10:20:54Z</time>
      </trkpt>
      <trkpt lat="49.84561" lon="2.59979">
        <ele>80.6</ele>
        <time>2022-07-10T10:20:55Z</time>
      </trkpt>
      <trkpt lat="49.84561" lon="2.59981">
        <ele>80.6</ele>
        <time>2022-07-10T10:20:56Z</time>
      </trkpt>
      <trkpt lat="49.84561" lon="2.59983">
        <ele>80.7</ele>
        <time>2022-07-10T10:20:58Z</time>
      </trkpt>
      <trkpt lat="49.84561" lon="2.59984">
        <ele>80.8</ele>
        <time>2022-07-10T10:20:59Z</time>
      </trkpt>
      <trkpt lat="49.84561" lon="2.59986">
        <ele>80.8</ele>
        <time>2022-07-10T10:21:00Z</time>
      </trkpt>
      <trkpt lat="49.84561" lon="2.59987">
        <ele>80.9</ele>
        <time>2022-07-10T10:21:01Z</time>
      </trkpt>
      <trkpt lat="49.84561" lon="2.59988">
        <ele>80.9</ele>
        <time>2022-07-10T10:21:02Z</time>
      </trkpt>
      <trkpt lat="49.84562" lon="2.5999">
        <ele>81</ele>
        <time>2022-07-10T10:21:04Z</time>
      </trkpt>
      <trkpt lat="49.84561" lon="2.59991">
        <ele>81.1</ele>
        <time>2022-07-10T10:21:05Z</time>
      </trkpt>
      <trkpt lat="49.84561" lon="2.59992">
        <ele>81.1</ele>
        <time>2022-07-10T10:21:06Z</time>
      </trkpt>
      <trkpt lat="49.84561" lon="2.59994">
        <ele>81.2</ele>
        <time>2022-07-10T10:21:08Z</time>
      </trkpt>
      <trkpt lat="49.84561" lon="2.59995">
        <ele>81.3</ele>
        <time>2022-07-10T10:21:09Z</time>
      </trkpt>
      <trkpt lat="49.84561" lon="2.59996">
        <ele>81.3</ele>
        <time>2022-07-10T10:21:10Z</time>
      </trkpt>
      <trkpt lat="49.84561" lon="2.59997">
        <ele>81.4</ele>
        <time>2022-07-10T10:21:11Z</time>
      </trkpt>
      <trkpt lat="49.84561" lon="2.59999">
        <ele>81.4</ele>
        <time>2022-07-10T10:21:12Z</time>
      </trkpt>
      <trkpt lat="49.84561" lon="2.6">
        <ele>81.5</ele>
        <time>2022-07-10T10:21:13Z</time>
      </trkpt>
      <trkpt lat="49.84561" lon="2.60001">
        <ele>81.5</ele>
        <time>2022-07-10T10:21:14Z</time>
      </trkpt>
      <trkpt lat="49.84561" lon="2.60002">
        <ele>81.6</ele>
        <time>2022-07-10T10:21:16Z</time>
      </trkpt>
      <trkpt lat="49.84561" lon="2.60003">
        <ele>81.6</ele>
        <time>2022-07-10T10:21:17Z</time>
      </trkpt>
      <trkpt lat="49.84562" lon="2.60005">
        <ele>81.7</ele>
        <time>2022-07-10T10:21:18Z</time>
      </trkpt>
      <trkpt lat="49.84562" lon="2.60006">
        <ele>81.7</ele>
        <time>2022-07-10T10:21:19Z</time>
      </trkpt>
      <trkpt lat="49.84562" lon="2.60007">
        <ele>81.8</ele>
        <time>2022-07-10T10:21:20Z</time>
      </trkpt>
      <trkpt lat="49.84562" lon="2.60008">
        <ele>81.8</ele>
        <time>2022-07-10T10:21:22Z</time>
      </trkpt>
      <trkpt lat="49.84563" lon="2.60009">
        <ele>81.8</ele>
        <time>2022-07-10T10:21:23Z</time>
      </trkpt>
      <trkpt lat="49.84564" lon="2.60012">
        <ele>82</ele>
        <time>2022-07-10T10:21:24Z</time>
      </trkpt>
      <trkpt lat="49.84564" lon="2.60013">
        <ele>82</ele>
        <time>2022-07-10T10:21:25Z</time>
      </trkpt>
      <trkpt lat="49.84565" lon="2.60014">
        <ele>82.1</ele>
        <time>2022-07-10T10:21:26Z</time>
      </trkpt>
      <trkpt lat="49.84565" lon="2.60016">
        <ele>82.1</ele>
        <time>2022-07-10T10:21:27Z</time>
      </trkpt>
      <trkpt lat="49.84566" lon="2.60018">
        <ele>82.2</ele>
        <time>2022-07-10T10:21:29Z</time>
      </trkpt>
      <trkpt lat="49.84567" lon="2.60021">
        <ele>82.3</ele>
        <time>2022-07-10T10:21:30Z</time>
      </trkpt>
      <trkpt lat="49.84567" lon="2.60023">
        <ele>82.4</ele>
        <time>2022-07-10T10:21:31Z</time>
      </trkpt>
      <trkpt lat="49.84567" lon="2.60025">
        <ele>82.5</ele>
        <time>2022-07-10T10:21:32Z</time>
      </trkpt>
      <trkpt lat="49.84568" lon="2.60027">
        <ele>82.5</ele>
        <time>2022-07-10T10:21:33Z</time>
      </trkpt>
      <trkpt lat="49.84568" lon="2.6003">
        <ele>82.6</ele>
        <time>2022-07-10T10:21:34Z</time>
      </trkpt>
      <trkpt lat="49.84568" lon="2.60032">
        <ele>82.7</ele>
        <time>2022-07-10T10:21:35Z</time>
      </trkpt>
      <trkpt lat="49.84569" lon="2.60034">
        <ele>82.7</ele>
        <time>2022-07-10T10:21:37Z</time>
      </trkpt>
      <trkpt lat="49.84569" lon="2.60037">
        <ele>82.8</ele>
        <time>2022-07-10T10:21:38Z</time>
      </trkpt>
      <trkpt lat="49.84569" lon="2.60039">
        <ele>82.9</ele>
        <time>2022-07-10T10:21:39Z</time>
      </trkpt>
      <trkpt lat="49.84569" lon="2.60041">
        <ele>82.9</ele>
        <time>2022-07-10T10:21:40Z</time>
      </trkpt>
      <trkpt lat="49.84569" lon="2.60044">
        <ele>83</ele>
        <time>2022-07-10T10:21:41Z</time>
      </trkpt>
      <trkpt lat="49.84569" lon="2.60046">
        <ele>83.1</ele>
        <time>2022-07-10T10:21:42Z</time>
      </trkpt>
      <trkpt lat="49.84569" lon="2.60047">
        <ele>83.1</ele>
        <time>2022-07-10T10:21:44Z</time>
      </trkpt>
      <trkpt lat="49.84569" lon="2.60049">
        <ele>83.2</ele>
        <time>2022-07-10T10:21:45Z</time>
      </trkpt>
      <trkpt lat="49.84569" lon="2.60051">
        <ele>83.2</ele>
        <time>2022-07-10T10:21:46Z</time>
      </trkpt>
      <trkpt lat="49.84569" lon="2.60055">
        <ele>83.3</ele>
        <time>2022-07-10T10:21:48Z</time>
      </trkpt>
      <trkpt lat="49.8457" lon="2.60056">
        <ele>83.3</ele>
        <time>2022-07-10T10:21:49Z</time>
      </trkpt>
      <trkpt lat="49.8457" lon="2.6006">
        <ele>83.4</ele>
        <time>2022-07-10T10:21:50Z</time>
      </trkpt>
      <trkpt lat="49.8457" lon="2.60061">
        <ele>83.5</ele>
        <time>2022-07-10T10:21:51Z</time>
      </trkpt>
      <trkpt lat="49.8457" lon="2.60063">
        <ele>83.5</ele>
        <time>2022-07-10T10:21:52Z</time>
      </trkpt>
      <trkpt lat="49.8457" lon="2.60066">
        <ele>83.5</ele>
        <time>2022-07-10T10:21:54Z</time>
      </trkpt>
      <trkpt lat="49.8457" lon="2.60067">
        <ele>83.6</ele>
        <time>2022-07-10T10:21:55Z</time>
      </trkpt>
      <trkpt lat="49.8457" lon="2.60069">
        <ele>83.6</ele>
        <time>2022-07-10T10:21:56Z</time>
      </trkpt>
      <trkpt lat="49.8457" lon="2.60071">
        <ele>83.6</ele>
        <time>2022-07-10T10:21:57Z</time>
      </trkpt>
      <trkpt lat="49.84571" lon="2.60073">
        <ele>83.7</ele>
        <time>2022-07-10T10:21:58Z</time>
      </trkpt>
      <trkpt lat="49.84571" lon="2.60075">
        <ele>83.7</ele>
        <time>2022-07-10T10:21:59Z</time>
      </trkpt>
      <trkpt lat="49.84571" lon="2.60077">
        <ele>83.8</ele>
        <time>2022-07-10T10:22:01Z</time>
      </trkpt>
      <trkpt lat="49.84571" lon="2.60078">
        <ele>83.8</ele>
        <time>2022-07-10T10:22:02Z</time>
      </trkpt>
      <trkpt lat="49.84571" lon="2.6008">
        <ele>83.8</ele>
        <time>2022-07-10T10:22:03Z</time>
      </trkpt>
      <trkpt lat="49.84572" lon="2.60082">
        <ele>83.8</ele>
        <time>2022-07-10T10:22:04Z</time>
      </trkpt>
      <trkpt lat="49.84572" lon="2.60084">
        <ele>83.9</ele>
        <time>2022-07-10T10:22:05Z</time>
      </trkpt>
      <trkpt lat="49.84572" lon="2.60085">
        <ele>83.9</ele>
        <time>2022-07-10T10:22:06Z</time>
      </trkpt>
      <trkpt lat="49.84573" lon="2.60087">
        <ele>83.9</ele>
        <time>2022-07-10T10:22:07Z</time>
      </trkpt>
      <trkpt lat="49.84573" lon="2.60089">
        <ele>83.9</ele>
        <time>2022-07-10T10:22:08Z</time>
      </trkpt>
      <trkpt lat="49.84574" lon="2.60092">
        <ele>84</ele>
        <time>2022-07-10T10:22:10Z</time>
      </trkpt>
      <trkpt lat="49.84574" lon="2.60093">
        <ele>84</ele>
        <time>2022-07-10T10:22:11Z</time>
      </trkpt>
      <trkpt lat="49.84574" lon="2.60095">
        <ele>84</ele>
        <time>2022-07-10T10:22:12Z</time>
      </trkpt>
      <trkpt lat="49.84575" lon="2.60098">
        <ele>84</ele>
        <time>2022-07-10T10:22:13Z</time>
      </trkpt>
      <trkpt lat="49.84575" lon="2.60099">
        <ele>84</ele>
        <time>2022-07-10T10:22:14Z</time>
      </trkpt>
      <trkpt lat="49.84575" lon="2.601">
        <ele>84</ele>
        <time>2022-07-10T10:22:15Z</time>
      </trkpt>
      <trkpt lat="49.84575" lon="2.60102">
        <ele>84.1</ele>
        <time>2022-07-10T10:22:16Z</time>
      </trkpt>
      <trkpt lat="49.84575" lon="2.60104">
        <ele>84.1</ele>
        <time>2022-07-10T10:22:17Z</time>
      </trkpt>
      <trkpt lat="49.84576" lon="2.60106">
        <ele>84.1</ele>
        <time>2022-07-10T10:22:19Z</time>
      </trkpt>
      <trkpt lat="49.84576" lon="2.60107">
        <ele>84.1</ele>
        <time>2022-07-10T10:22:20Z</time>
      </trkpt>
      <trkpt lat="49.84576" lon="2.60109">
        <ele>84.1</ele>
        <time>2022-07-10T10:22:21Z</time>
      </trkpt>
      <trkpt lat="49.84576" lon="2.60111">
        <ele>84.2</ele>
        <time>2022-07-10T10:22:22Z</time>
      </trkpt>
      <trkpt lat="49.84577" lon="2.60114">
        <ele>84.2</ele>
        <time>2022-07-10T10:22:24Z</time>
      </trkpt>
      <trkpt lat="49.84577" lon="2.60115">
        <ele>84.2</ele>
        <time>2022-07-10T10:22:25Z</time>
      </trkpt>
      <trkpt lat="49.84577" lon="2.60116">
        <ele>84.2</ele>
        <time>2022-07-10T10:22:26Z</time>
      </trkpt>
      <trkpt lat="49.84577" lon="2.60118">
        <ele>84.2</ele>
        <time>2022-07-10T10:22:27Z</time>
      </trkpt>
      <trkpt lat="49.84578" lon="2.6012">
        <ele>84.2</ele>
        <time>2022-07-10T10:22:28Z</time>
      </trkpt>
      <trkpt lat="49.84578" lon="2.60122">
        <ele>84.3</ele>
        <time>2022-07-10T10:22:29Z</time>
      </trkpt>
      <trkpt lat="49.84578" lon="2.60124">
        <ele>84.3</ele>
        <time>2022-07-10T10:22:30Z</time>
      </trkpt>
      <trkpt lat="49.84579" lon="2.60126">
        <ele>84.3</ele>
        <time>2022-07-10T10:22:31Z</time>
      </trkpt>
      <trkpt lat="49.84579" lon="2.60129">
        <ele>84.3</ele>
        <time>2022-07-10T10:22:32Z</time>
      </trkpt>
      <trkpt lat="49.84579" lon="2.60131">
        <ele>84.3</ele>
        <time>2022-07-10T10:22:34Z</time>
      </trkpt>
      <trkpt lat="49.84579" lon="2.60132">
        <ele>84.4</ele>
        <time>2022-07-10T10:22:35Z</time>
      </trkpt>
      <trkpt lat="49.8458" lon="2.60135">
        <ele>84.4</ele>
        <time>2022-07-10T10:22:36Z</time>
      </trkpt>
      <trkpt lat="49.8458" lon="2.60137">
        <ele>84.4</ele>
        <time>2022-07-10T10:22:37Z</time>
      </trkpt>
      <trkpt lat="49.8458" lon="2.60138">
        <ele>84.4</ele>
        <time>2022-07-10T10:22:38Z</time>
      </trkpt>
      <trkpt lat="49.8458" lon="2.6014">
        <ele>84.4</ele>
        <time>2022-07-10T10:22:39Z</time>
      </trkpt>
      <trkpt lat="49.84581" lon="2.60143">
        <ele>84.5</ele>
        <time>2022-07-10T10:22:41Z</time>
      </trkpt>
      <trkpt lat="49.84581" lon="2.60145">
        <ele>84.5</ele>
        <time>2022-07-10T10:22:42Z</time>
      </trkpt>
      <trkpt lat="49.84581" lon="2.60147">
        <ele>84.5</ele>
        <time>2022-07-10T10:22:43Z</time>
      </trkpt>
      <trkpt lat="49.84582" lon="2.6015">
        <ele>84.5</ele>
        <time>2022-07-10T10:22:44Z</time>
      </trkpt>
      <trkpt lat="49.84582" lon="2.60151">
        <ele>84.5</ele>
        <time>2022-07-10T10:22:45Z</time>
      </trkpt>
      <trkpt lat="49.84582" lon="2.60152">
        <ele>84.5</ele>
        <time>2022-07-10T10:22:46Z</time>
      </trkpt>
      <trkpt lat="49.84582" lon="2.60154">
        <ele>84.6</ele>
        <time>2022-07-10T10:22:47Z</time>
      </trkpt>
      <trkpt lat="49.84582" lon="2.60156">
        <ele>84.6</ele>
        <time>2022-07-10T10:22:48Z</time>
      </trkpt>
      <trkpt lat="49.84583" lon="2.60158">
        <ele>84.6</ele>
        <time>2022-07-10T10:22:49Z</time>
      </trkpt>
      <trkpt lat="49.84583" lon="2.6016">
        <ele>84.6</ele>
        <time>2022-07-10T10:22:50Z</time>
      </trkpt>
      <trkpt lat="49.84583" lon="2.60162">
        <ele>84.6</ele>
        <time>2022-07-10T10:22:52Z</time>
      </trkpt>
      <trkpt lat="49.84583" lon="2.60165">
        <ele>84.6</ele>
        <time>2022-07-10T10:22:53Z</time>
      </trkpt>
      <trkpt lat="49.84583" lon="2.60167">
        <ele>84.6</ele>
        <time>2022-07-10T10:22:54Z</time>
      </trkpt>
      <trkpt lat="49.84583" lon="2.6017">
        <ele>84.7</ele>
        <time>2022-07-10T10:22:55Z</time>
      </trkpt>
      <trkpt lat="49.84583" lon="2.60172">
        <ele>84.7</ele>
        <time>2022-07-10T10:22:57Z</time>
      </trkpt>
      <trkpt lat="49.84584" lon="2.60175">
        <ele>84.7</ele>
        <time>2022-07-10T10:22:58Z</time>
      </trkpt>
      <trkpt lat="49.84584" lon="2.60177">
        <ele>84.7</ele>
        <time>2022-07-10T10:22:59Z</time>
      </trkpt>
      <trkpt lat="49.84584" lon="2.6018">
        <ele>84.7</ele>
        <time>2022-07-10T10:23:00Z</time>
      </trkpt>
      <trkpt lat="49.84585" lon="2.60182">
        <ele>84.7</ele>
        <time>2022-07-10T10:23:01Z</time>
      </trkpt>
      <trkpt lat="49.84585" lon="2.60185">
        <ele>84.7</ele>
        <time>2022-07-10T10:23:03Z</time>
      </trkpt>
      <trkpt lat="49.84585" lon="2.60187">
        <ele>84.7</ele>
        <time>2022-07-10T10:23:04Z</time>
      </trkpt>
      <trkpt lat="49.84586" lon="2.60189">
        <ele>84.7</ele>
        <time>2022-07-10T10:23:05Z</time>
      </trkpt>
      <trkpt lat="49.84586" lon="2.60191">
        <ele>84.7</ele>
        <time>2022-07-10T10:23:06Z</time>
      </trkpt>
      <trkpt lat="49.84586" lon="2.60193">
        <ele>84.7</ele>
        <time>2022-07-10T10:23:07Z</time>
      </trkpt>
      <trkpt lat="49.84587" lon="2.60195">
        <ele>84.7</ele>
        <time>2022-07-10T10:23:09Z</time>
      </trkpt>
      <trkpt lat="49.84587" lon="2.60197">
        <ele>84.7</ele>
        <time>2022-07-10T10:23:10Z</time>
      </trkpt>
      <trkpt lat="49.84587" lon="2.60198">
        <ele>84.7</ele>
        <time>2022-07-10T10:23:11Z</time>
      </trkpt>
      <trkpt lat="49.84588" lon="2.602">
        <ele>84.7</ele>
        <time>2022-07-10T10:23:12Z</time>
      </trkpt>
      <trkpt lat="49.84588" lon="2.60202">
        <ele>84.7</ele>
        <time>2022-07-10T10:23:13Z</time>
      </trkpt>
      <trkpt lat="49.84589" lon="2.60205">
        <ele>84.8</ele>
        <time>2022-07-10T10:23:14Z</time>
      </trkpt>
      <trkpt lat="49.84589" lon="2.60206">
        <ele>84.8</ele>
        <time>2022-07-10T10:23:15Z</time>
      </trkpt>
      <trkpt lat="49.84589" lon="2.60207">
        <ele>84.8</ele>
        <time>2022-07-10T10:23:16Z</time>
      </trkpt>
      <trkpt lat="49.8459" lon="2.6021">
        <ele>84.8</ele>
        <time>2022-07-10T10:23:17Z</time>
      </trkpt>
      <trkpt lat="49.8459" lon="2.60212">
        <ele>84.8</ele>
        <time>2022-07-10T10:23:19Z</time>
      </trkpt>
      <trkpt lat="49.8459" lon="2.60213">
        <ele>84.8</ele>
        <time>2022-07-10T10:23:20Z</time>
      </trkpt>
      <trkpt lat="49.8459" lon="2.60214">
        <ele>84.8</ele>
        <time>2022-07-10T10:23:21Z</time>
      </trkpt>
      <trkpt lat="49.8459" lon="2.60215">
        <ele>84.8</ele>
        <time>2022-07-10T10:23:22Z</time>
      </trkpt>
      <trkpt lat="49.84591" lon="2.60218">
        <ele>84.8</ele>
        <time>2022-07-10T10:23:23Z</time>
      </trkpt>
      <trkpt lat="49.84591" lon="2.60222">
        <ele>84.8</ele>
        <time>2022-07-10T10:23:24Z</time>
      </trkpt>
      <trkpt lat="49.84591" lon="2.60224">
        <ele>84.8</ele>
        <time>2022-07-10T10:23:26Z</time>
      </trkpt>
      <trkpt lat="49.84591" lon="2.60225">
        <ele>84.8</ele>
        <time>2022-07-10T10:23:27Z</time>
      </trkpt>
      <trkpt lat="49.84591" lon="2.60227">
        <ele>84.8</ele>
        <time>2022-07-10T10:23:28Z</time>
      </trkpt>
      <trkpt lat="49.84591" lon="2.60228">
        <ele>84.8</ele>
        <time>2022-07-10T10:23:29Z</time>
      </trkpt>
      <trkpt lat="49.84592" lon="2.60232">
        <ele>84.8</ele>
        <time>2022-07-10T10:23:30Z</time>
      </trkpt>
      <trkpt lat="49.84592" lon="2.60233">
        <ele>84.8</ele>
        <time>2022-07-10T10:23:32Z</time>
      </trkpt>
      <trkpt lat="49.84592" lon="2.60235">
        <ele>84.8</ele>
        <time>2022-07-10T10:23:33Z</time>
      </trkpt>
      <trkpt lat="49.84592" lon="2.60237">
        <ele>84.8</ele>
        <time>2022-07-10T10:23:34Z</time>
      </trkpt>
      <trkpt lat="49.84592" lon="2.60238">
        <ele>84.7</ele>
        <time>2022-07-10T10:23:35Z</time>
      </trkpt>
      <trkpt lat="49.84593" lon="2.6024">
        <ele>84.7</ele>
        <time>2022-07-10T10:23:36Z</time>
      </trkpt>
      <trkpt lat="49.84593" lon="2.60242">
        <ele>84.7</ele>
        <time>2022-07-10T10:23:37Z</time>
      </trkpt>
      <trkpt lat="49.84593" lon="2.60245">
        <ele>84.7</ele>
        <time>2022-07-10T10:23:38Z</time>
      </trkpt>
      <trkpt lat="49.84594" lon="2.60247">
        <ele>84.7</ele>
        <time>2022-07-10T10:23:40Z</time>
      </trkpt>
      <trkpt lat="49.84594" lon="2.60249">
        <ele>84.7</ele>
        <time>2022-07-10T10:23:41Z</time>
      </trkpt>
      <trkpt lat="49.84594" lon="2.6025">
        <ele>84.7</ele>
        <time>2022-07-10T10:23:42Z</time>
      </trkpt>
      <trkpt lat="49.84594" lon="2.60251">
        <ele>84.7</ele>
        <time>2022-07-10T10:23:43Z</time>
      </trkpt>
      <trkpt lat="49.84595" lon="2.60252">
        <ele>84.7</ele>
        <time>2022-07-10T10:23:44Z</time>
      </trkpt>
      <trkpt lat="49.84595" lon="2.60254">
        <ele>84.7</ele>
        <time>2022-07-10T10:23:45Z</time>
      </trkpt>
      <trkpt lat="49.84595" lon="2.60256">
        <ele>84.7</ele>
        <time>2022-07-10T10:23:46Z</time>
      </trkpt>
      <trkpt lat="49.84596" lon="2.60259">
        <ele>84.7</ele>
        <time>2022-07-10T10:23:47Z</time>
      </trkpt>
      <trkpt lat="49.84596" lon="2.60261">
        <ele>84.7</ele>
        <time>2022-07-10T10:23:48Z</time>
      </trkpt>
      <trkpt lat="49.84596" lon="2.60263">
        <ele>84.7</ele>
        <time>2022-07-10T10:23:50Z</time>
      </trkpt>
      <trkpt lat="49.84597" lon="2.60266">
        <ele>84.7</ele>
        <time>2022-07-10T10:23:51Z</time>
      </trkpt>
      <trkpt lat="49.84597" lon="2.60267">
        <ele>84.7</ele>
        <time>2022-07-10T10:23:52Z</time>
      </trkpt>
      <trkpt lat="49.84597" lon="2.60268">
        <ele>84.7</ele>
        <time>2022-07-10T10:23:53Z</time>
      </trkpt>
      <trkpt lat="49.84597" lon="2.6027">
        <ele>84.7</ele>
        <time>2022-07-10T10:23:54Z</time>
      </trkpt>
      <trkpt lat="49.84598" lon="2.60271">
        <ele>84.7</ele>
        <time>2022-07-10T10:23:55Z</time>
      </trkpt>
      <trkpt lat="49.84598" lon="2.60272">
        <ele>84.7</ele>
        <time>2022-07-10T10:23:56Z</time>
      </trkpt>
      <trkpt lat="49.84598" lon="2.60274">
        <ele>84.7</ele>
        <time>2022-07-10T10:23:57Z</time>
      </trkpt>
      <trkpt lat="49.84599" lon="2.60276">
        <ele>84.7</ele>
        <time>2022-07-10T10:23:58Z</time>
      </trkpt>
      <trkpt lat="49.84599" lon="2.60281">
        <ele>84.7</ele>
        <time>2022-07-10T10:23:59Z</time>
      </trkpt>
      <trkpt lat="49.84599" lon="2.60282">
        <ele>84.7</ele>
        <time>2022-07-10T10:24:01Z</time>
      </trkpt>
      <trkpt lat="49.84599" lon="2.60284">
        <ele>84.7</ele>
        <time>2022-07-10T10:24:02Z</time>
      </trkpt>
      <trkpt lat="49.84599" lon="2.60286">
        <ele>84.7</ele>
        <time>2022-07-10T10:24:03Z</time>
      </trkpt>
      <trkpt lat="49.846" lon="2.60287">
        <ele>84.8</ele>
        <time>2022-07-10T10:24:04Z</time>
      </trkpt>
      <trkpt lat="49.846" lon="2.60291">
        <ele>84.8</ele>
        <time>2022-07-10T10:24:05Z</time>
      </trkpt>
      <trkpt lat="49.846" lon="2.60292">
        <ele>84.8</ele>
        <time>2022-07-10T10:24:06Z</time>
      </trkpt>
      <trkpt lat="49.846" lon="2.60293">
        <ele>84.8</ele>
        <time>2022-07-10T10:24:07Z</time>
      </trkpt>
      <trkpt lat="49.84601" lon="2.60296">
        <ele>84.8</ele>
        <time>2022-07-10T10:24:08Z</time>
      </trkpt>
      <trkpt lat="49.84601" lon="2.60298">
        <ele>84.8</ele>
        <time>2022-07-10T10:24:09Z</time>
      </trkpt>
      <trkpt lat="49.84601" lon="2.60299">
        <ele>84.8</ele>
        <time>2022-07-10T10:24:10Z</time>
      </trkpt>
      <trkpt lat="49.84601" lon="2.60303">
        <ele>84.8</ele>
        <time>2022-07-10T10:24:11Z</time>
      </trkpt>
      <trkpt lat="49.84601" lon="2.60304">
        <ele>84.8</ele>
        <time>2022-07-10T10:24:13Z</time>
      </trkpt>
      <trkpt lat="49.84602" lon="2.60306">
        <ele>84.8</ele>
        <time>2022-07-10T10:24:14Z</time>
      </trkpt>
      <trkpt lat="49.84602" lon="2.60307">
        <ele>84.8</ele>
        <time>2022-07-10T10:24:15Z</time>
      </trkpt>
      <trkpt lat="49.84602" lon="2.60309">
        <ele>84.8</ele>
        <time>2022-07-10T10:24:16Z</time>
      </trkpt>
      <trkpt lat="49.84602" lon="2.60311">
        <ele>84.8</ele>
        <time>2022-07-10T10:24:17Z</time>
      </trkpt>
      <trkpt lat="49.84602" lon="2.60313">
        <ele>84.8</ele>
        <time>2022-07-10T10:24:18Z</time>
      </trkpt>
      <trkpt lat="49.84602" lon="2.60315">
        <ele>84.8</ele>
        <time>2022-07-10T10:24:19Z</time>
      </trkpt>
      <trkpt lat="49.84603" lon="2.60316">
        <ele>84.8</ele>
        <time>2022-07-10T10:24:20Z</time>
      </trkpt>
      <trkpt lat="49.84603" lon="2.60318">
        <ele>84.8</ele>
        <time>2022-07-10T10:24:21Z</time>
      </trkpt>
      <trkpt lat="49.84603" lon="2.60321">
        <ele>84.8</ele>
        <time>2022-07-10T10:24:22Z</time>
      </trkpt>
      <trkpt lat="49.84603" lon="2.60322">
        <ele>84.8</ele>
        <time>2022-07-10T10:24:24Z</time>
      </trkpt>
      <trkpt lat="49.84603" lon="2.60324">
        <ele>84.8</ele>
        <time>2022-07-10T10:24:25Z</time>
      </trkpt>
      <trkpt lat="49.84604" lon="2.60325">
        <ele>84.8</ele>
        <time>2022-07-10T10:24:26Z</time>
      </trkpt>
      <trkpt lat="49.84604" lon="2.60327">
        <ele>84.8</ele>
        <time>2022-07-10T10:24:27Z</time>
      </trkpt>
      <trkpt lat="49.84604" lon="2.60329">
        <ele>84.8</ele>
        <time>2022-07-10T10:24:28Z</time>
      </trkpt>
      <trkpt lat="49.84604" lon="2.60331">
        <ele>84.8</ele>
        <time>2022-07-10T10:24:29Z</time>
      </trkpt>
      <trkpt lat="49.84605" lon="2.60333">
        <ele>84.8</ele>
        <time>2022-07-10T10:24:31Z</time>
      </trkpt>
      <trkpt lat="49.84605" lon="2.60335">
        <ele>84.8</ele>
        <time>2022-07-10T10:24:32Z</time>
      </trkpt>
      <trkpt lat="49.84605" lon="2.60336">
        <ele>84.8</ele>
        <time>2022-07-10T10:24:33Z</time>
      </trkpt>
      <trkpt lat="49.84605" lon="2.60338">
        <ele>84.8</ele>
        <time>2022-07-10T10:24:34Z</time>
      </trkpt>
      <trkpt lat="49.84606" lon="2.60342">
        <ele>84.8</ele>
        <time>2022-07-10T10:24:35Z</time>
      </trkpt>
      <trkpt lat="49.84606" lon="2.60344">
        <ele>84.8</ele>
        <time>2022-07-10T10:24:37Z</time>
      </trkpt>
      <trkpt lat="49.84607" lon="2.60348">
        <ele>84.8</ele>
        <time>2022-07-10T10:24:38Z</time>
      </trkpt>
      <trkpt lat="49.84607" lon="2.60349">
        <ele>84.8</ele>
        <time>2022-07-10T10:24:39Z</time>
      </trkpt>
      <trkpt lat="49.84607" lon="2.6035">
        <ele>84.8</ele>
        <time>2022-07-10T10:24:40Z</time>
      </trkpt>
      <trkpt lat="49.84607" lon="2.60354">
        <ele>84.8</ele>
        <time>2022-07-10T10:24:41Z</time>
      </trkpt>
      <trkpt lat="49.84608" lon="2.60356">
        <ele>84.8</ele>
        <time>2022-07-10T10:24:42Z</time>
      </trkpt>
      <trkpt lat="49.84608" lon="2.60357">
        <ele>84.8</ele>
        <time>2022-07-10T10:24:44Z</time>
      </trkpt>
      <trkpt lat="49.84608" lon="2.60359">
        <ele>84.7</ele>
        <time>2022-07-10T10:24:45Z</time>
      </trkpt>
      <trkpt lat="49.84608" lon="2.60361">
        <ele>84.7</ele>
        <time>2022-07-10T10:24:46Z</time>
      </trkpt>
      <trkpt lat="49.84609" lon="2.60363">
        <ele>84.7</ele>
        <time>2022-07-10T10:24:47Z</time>
      </trkpt>
      <trkpt lat="49.84609" lon="2.60365">
        <ele>84.7</ele>
        <time>2022-07-10T10:24:48Z</time>
      </trkpt>
      <trkpt lat="49.84609" lon="2.60367">
        <ele>84.7</ele>
        <time>2022-07-10T10:24:49Z</time>
      </trkpt>
      <trkpt lat="49.84609" lon="2.6037">
        <ele>84.7</ele>
        <time>2022-07-10T10:24:50Z</time>
      </trkpt>
      <trkpt lat="49.84609" lon="2.60373">
        <ele>84.7</ele>
        <time>2022-07-10T10:24:51Z</time>
      </trkpt>
      <trkpt lat="49.8461" lon="2.60374">
        <ele>84.7</ele>
        <time>2022-07-10T10:24:52Z</time>
      </trkpt>
      <trkpt lat="49.8461" lon="2.60376">
        <ele>84.7</ele>
        <time>2022-07-10T10:24:53Z</time>
      </trkpt>
      <trkpt lat="49.8461" lon="2.60379">
        <ele>84.7</ele>
        <time>2022-07-10T10:24:54Z</time>
      </trkpt>
      <trkpt lat="49.8461" lon="2.6038">
        <ele>84.7</ele>
        <time>2022-07-10T10:24:56Z</time>
      </trkpt>
      <trkpt lat="49.8461" lon="2.60382">
        <ele>84.7</ele>
        <time>2022-07-10T10:24:57Z</time>
      </trkpt>
      <trkpt lat="49.84611" lon="2.60384">
        <ele>84.7</ele>
        <time>2022-07-10T10:24:58Z</time>
      </trkpt>
      <trkpt lat="49.84611" lon="2.60386">
        <ele>84.7</ele>
        <time>2022-07-10T10:24:59Z</time>
      </trkpt>
      <trkpt lat="49.84611" lon="2.60388">
        <ele>84.7</ele>
        <time>2022-07-10T10:25:00Z</time>
      </trkpt>
      <trkpt lat="49.84612" lon="2.6039">
        <ele>84.7</ele>
        <time>2022-07-10T10:25:01Z</time>
      </trkpt>
      <trkpt lat="49.84612" lon="2.60392">
        <ele>84.6</ele>
        <time>2022-07-10T10:25:02Z</time>
      </trkpt>
      <trkpt lat="49.84612" lon="2.60394">
        <ele>84.6</ele>
        <time>2022-07-10T10:25:03Z</time>
      </trkpt>
      <trkpt lat="49.84613" lon="2.60398">
        <ele>84.6</ele>
        <time>2022-07-10T10:25:04Z</time>
      </trkpt>
      <trkpt lat="49.84613" lon="2.60399">
        <ele>84.6</ele>
        <time>2022-07-10T10:25:06Z</time>
      </trkpt>
      <trkpt lat="49.84613" lon="2.60401">
        <ele>84.6</ele>
        <time>2022-07-10T10:25:07Z</time>
      </trkpt>
      <trkpt lat="49.84613" lon="2.60402">
        <ele>84.6</ele>
        <time>2022-07-10T10:25:08Z</time>
      </trkpt>
      <trkpt lat="49.84614" lon="2.60404">
        <ele>84.6</ele>
        <time>2022-07-10T10:25:09Z</time>
      </trkpt>
      <trkpt lat="49.84614" lon="2.60406">
        <ele>84.6</ele>
        <time>2022-07-10T10:25:10Z</time>
      </trkpt>
      <trkpt lat="49.84614" lon="2.60408">
        <ele>84.6</ele>
        <time>2022-07-10T10:25:11Z</time>
      </trkpt>
      <trkpt lat="49.84614" lon="2.60412">
        <ele>84.6</ele>
        <time>2022-07-10T10:25:12Z</time>
      </trkpt>
      <trkpt lat="49.84615" lon="2.60413">
        <ele>84.6</ele>
        <time>2022-07-10T10:25:14Z</time>
      </trkpt>
      <trkpt lat="49.84615" lon="2.60414">
        <ele>84.6</ele>
        <time>2022-07-10T10:25:15Z</time>
      </trkpt>
      <trkpt lat="49.84615" lon="2.60416">
        <ele>84.6</ele>
        <time>2022-07-10T10:25:16Z</time>
      </trkpt>
      <trkpt lat="49.84616" lon="2.60419">
        <ele>84.6</ele>
        <time>2022-07-10T10:25:18Z</time>
      </trkpt>
      <trkpt lat="49.84616" lon="2.6042">
        <ele>84.6</ele>
        <time>2022-07-10T10:25:19Z</time>
      </trkpt>
      <trkpt lat="49.84616" lon="2.60422">
        <ele>84.6</ele>
        <time>2022-07-10T10:25:20Z</time>
      </trkpt>
      <trkpt lat="49.84617" lon="2.60424">
        <ele>84.6</ele>
        <time>2022-07-10T10:25:21Z</time>
      </trkpt>
      <trkpt lat="49.84617" lon="2.60427">
        <ele>84.6</ele>
        <time>2022-07-10T10:25:22Z</time>
      </trkpt>
      <trkpt lat="49.84617" lon="2.60429">
        <ele>84.6</ele>
        <time>2022-07-10T10:25:23Z</time>
      </trkpt>
      <trkpt lat="49.84617" lon="2.6043">
        <ele>84.6</ele>
        <time>2022-07-10T10:25:24Z</time>
      </trkpt>
      <trkpt lat="49.84617" lon="2.60432">
        <ele>84.6</ele>
        <time>2022-07-10T10:25:25Z</time>
      </trkpt>
      <trkpt lat="49.84618" lon="2.60434">
        <ele>84.6</ele>
        <time>2022-07-10T10:25:26Z</time>
      </trkpt>
      <trkpt lat="49.84618" lon="2.60438">
        <ele>84.6</ele>
        <time>2022-07-10T10:25:27Z</time>
      </trkpt>
      <trkpt lat="49.84618" lon="2.60439">
        <ele>84.6</ele>
        <time>2022-07-10T10:25:28Z</time>
      </trkpt>
      <trkpt lat="49.84618" lon="2.60441">
        <ele>84.6</ele>
        <time>2022-07-10T10:25:29Z</time>
      </trkpt>
      <trkpt lat="49.84618" lon="2.60442">
        <ele>84.6</ele>
        <time>2022-07-10T10:25:31Z</time>
      </trkpt>
      <trkpt lat="49.84619" lon="2.60444">
        <ele>84.6</ele>
        <time>2022-07-10T10:25:32Z</time>
      </trkpt>
      <trkpt lat="49.84619" lon="2.60446">
        <ele>84.6</ele>
        <time>2022-07-10T10:25:33Z</time>
      </trkpt>
      <trkpt lat="49.84619" lon="2.60448">
        <ele>84.6</ele>
        <time>2022-07-10T10:25:35Z</time>
      </trkpt>
      <trkpt lat="49.8462" lon="2.6045">
        <ele>84.6</ele>
        <time>2022-07-10T10:25:36Z</time>
      </trkpt>
      <trkpt lat="49.8462" lon="2.60452">
        <ele>84.6</ele>
        <time>2022-07-10T10:25:37Z</time>
      </trkpt>
      <trkpt lat="49.8462" lon="2.60454">
        <ele>84.6</ele>
        <time>2022-07-10T10:25:39Z</time>
      </trkpt>
      <trkpt lat="49.8462" lon="2.60456">
        <ele>84.6</ele>
        <time>2022-07-10T10:25:40Z</time>
      </trkpt>
      <trkpt lat="49.84621" lon="2.60459">
        <ele>84.6</ele>
        <time>2022-07-10T10:25:41Z</time>
      </trkpt>
      <trkpt lat="49.84621" lon="2.60461">
        <ele>84.6</ele>
        <time>2022-07-10T10:25:43Z</time>
      </trkpt>
      <trkpt lat="49.84621" lon="2.60462">
        <ele>84.6</ele>
        <time>2022-07-10T10:25:44Z</time>
      </trkpt>
      <trkpt lat="49.84621" lon="2.60464">
        <ele>84.6</ele>
        <time>2022-07-10T10:25:45Z</time>
      </trkpt>
      <trkpt lat="49.84622" lon="2.60466">
        <ele>84.6</ele>
        <time>2022-07-10T10:25:46Z</time>
      </trkpt>
      <trkpt lat="49.84622" lon="2.60468">
        <ele>84.6</ele>
        <time>2022-07-10T10:25:47Z</time>
      </trkpt>
      <trkpt lat="49.84622" lon="2.60471">
        <ele>84.6</ele>
        <time>2022-07-10T10:25:48Z</time>
      </trkpt>
      <trkpt lat="49.84623" lon="2.60473">
        <ele>84.6</ele>
        <time>2022-07-10T10:25:49Z</time>
      </trkpt>
      <trkpt lat="49.84623" lon="2.60474">
        <ele>84.6</ele>
        <time>2022-07-10T10:25:50Z</time>
      </trkpt>
      <trkpt lat="49.84623" lon="2.60476">
        <ele>84.6</ele>
        <time>2022-07-10T10:25:51Z</time>
      </trkpt>
      <trkpt lat="49.84624" lon="2.60478">
        <ele>84.6</ele>
        <time>2022-07-10T10:25:52Z</time>
      </trkpt>
      <trkpt lat="49.84624" lon="2.6048">
        <ele>84.6</ele>
        <time>2022-07-10T10:25:54Z</time>
      </trkpt>
      <trkpt lat="49.84624" lon="2.60481">
        <ele>84.6</ele>
        <time>2022-07-10T10:25:55Z</time>
      </trkpt>
      <trkpt lat="49.84625" lon="2.60483">
        <ele>84.6</ele>
        <time>2022-07-10T10:25:56Z</time>
      </trkpt>
      <trkpt lat="49.84625" lon="2.60484">
        <ele>84.6</ele>
        <time>2022-07-10T10:25:57Z</time>
      </trkpt>
      <trkpt lat="49.84626" lon="2.60486">
        <ele>84.6</ele>
        <time>2022-07-10T10:25:58Z</time>
      </trkpt>
      <trkpt lat="49.84627" lon="2.60488">
        <ele>84.6</ele>
        <time>2022-07-10T10:25:59Z</time>
      </trkpt>
      <trkpt lat="49.84627" lon="2.6049">
        <ele>84.7</ele>
        <time>2022-07-10T10:26:00Z</time>
      </trkpt>
      <trkpt lat="49.84627" lon="2.60493">
        <ele>84.7</ele>
        <time>2022-07-10T10:26:01Z</time>
      </trkpt>
      <trkpt lat="49.84627" lon="2.60495">
        <ele>84.7</ele>
        <time>2022-07-10T10:26:02Z</time>
      </trkpt>
      <trkpt lat="49.84627" lon="2.60497">
        <ele>84.7</ele>
        <time>2022-07-10T10:26:03Z</time>
      </trkpt>
      <trkpt lat="49.84627" lon="2.60499">
        <ele>84.7</ele>
        <time>2022-07-10T10:26:04Z</time>
      </trkpt>
      <trkpt lat="49.84627" lon="2.60501">
        <ele>84.7</ele>
        <time>2022-07-10T10:26:05Z</time>
      </trkpt>
      <trkpt lat="49.84627" lon="2.60503">
        <ele>84.7</ele>
        <time>2022-07-10T10:26:07Z</time>
      </trkpt>
      <trkpt lat="49.84626" lon="2.60505">
        <ele>84.7</ele>
        <time>2022-07-10T10:26:08Z</time>
      </trkpt>
      <trkpt lat="49.84626" lon="2.60507">
        <ele>84.7</ele>
        <time>2022-07-10T10:26:09Z</time>
      </trkpt>
      <trkpt lat="49.84627" lon="2.60508">
        <ele>84.7</ele>
        <time>2022-07-10T10:26:10Z</time>
      </trkpt>
      <trkpt lat="49.84627" lon="2.6051">
        <ele>84.7</ele>
        <time>2022-07-10T10:26:11Z</time>
      </trkpt>
      <trkpt lat="49.84627" lon="2.60512">
        <ele>84.7</ele>
        <time>2022-07-10T10:26:12Z</time>
      </trkpt>
      <trkpt lat="49.84628" lon="2.60515">
        <ele>84.7</ele>
        <time>2022-07-10T10:26:13Z</time>
      </trkpt>
      <trkpt lat="49.84628" lon="2.60517">
        <ele>84.7</ele>
        <time>2022-07-10T10:26:15Z</time>
      </trkpt>
      <trkpt lat="49.84628" lon="2.60519">
        <ele>84.7</ele>
        <time>2022-07-10T10:26:16Z</time>
      </trkpt>
      <trkpt lat="49.84629" lon="2.6052">
        <ele>84.7</ele>
        <time>2022-07-10T10:26:17Z</time>
      </trkpt>
      <trkpt lat="49.84629" lon="2.60522">
        <ele>84.7</ele>
        <time>2022-07-10T10:26:18Z</time>
      </trkpt>
      <trkpt lat="49.8463" lon="2.60524">
        <ele>84.7</ele>
        <time>2022-07-10T10:26:19Z</time>
      </trkpt>
      <trkpt lat="49.8463" lon="2.60526">
        <ele>84.7</ele>
        <time>2022-07-10T10:26:20Z</time>
      </trkpt>
      <trkpt lat="49.8463" lon="2.60528">
        <ele>84.7</ele>
        <time>2022-07-10T10:26:21Z</time>
      </trkpt>
      <trkpt lat="49.84631" lon="2.6053">
        <ele>84.7</ele>
        <time>2022-07-10T10:26:22Z</time>
      </trkpt>
      <trkpt lat="49.84631" lon="2.60532">
        <ele>84.7</ele>
        <time>2022-07-10T10:26:24Z</time>
      </trkpt>
      <trkpt lat="49.84632" lon="2.60535">
        <ele>84.7</ele>
        <time>2022-07-10T10:26:25Z</time>
      </trkpt>
      <trkpt lat="49.84632" lon="2.60537">
        <ele>84.7</ele>
        <time>2022-07-10T10:26:26Z</time>
      </trkpt>
      <trkpt lat="49.84632" lon="2.60539">
        <ele>84.7</ele>
        <time>2022-07-10T10:26:27Z</time>
      </trkpt>
      <trkpt lat="49.84632" lon="2.60542">
        <ele>84.7</ele>
        <time>2022-07-10T10:26:28Z</time>
      </trkpt>
      <trkpt lat="49.84632" lon="2.60546">
        <ele>84.7</ele>
        <time>2022-07-10T10:26:29Z</time>
      </trkpt>
      <trkpt lat="49.84632" lon="2.60548">
        <ele>84.7</ele>
        <time>2022-07-10T10:26:31Z</time>
      </trkpt>
      <trkpt lat="49.84633" lon="2.6055">
        <ele>84.8</ele>
        <time>2022-07-10T10:26:32Z</time>
      </trkpt>
      <trkpt lat="49.84633" lon="2.60552">
        <ele>84.8</ele>
        <time>2022-07-10T10:26:33Z</time>
      </trkpt>
      <trkpt lat="49.84633" lon="2.60554">
        <ele>84.8</ele>
        <time>2022-07-10T10:26:34Z</time>
      </trkpt>
      <trkpt lat="49.84633" lon="2.60556">
        <ele>84.8</ele>
        <time>2022-07-10T10:26:35Z</time>
      </trkpt>
      <trkpt lat="49.84633" lon="2.60558">
        <ele>84.8</ele>
        <time>2022-07-10T10:26:36Z</time>
      </trkpt>
      <trkpt lat="49.84634" lon="2.60561">
        <ele>84.8</ele>
        <time>2022-07-10T10:26:37Z</time>
      </trkpt>
      <trkpt lat="49.84634" lon="2.60563">
        <ele>84.8</ele>
        <time>2022-07-10T10:26:39Z</time>
      </trkpt>
      <trkpt lat="49.84634" lon="2.60566">
        <ele>84.8</ele>
        <time>2022-07-10T10:26:40Z</time>
      </trkpt>
      <trkpt lat="49.84634" lon="2.60568">
        <ele>84.8</ele>
        <time>2022-07-10T10:26:41Z</time>
      </trkpt>
      <trkpt lat="49.84634" lon="2.60571">
        <ele>84.8</ele>
        <time>2022-07-10T10:26:42Z</time>
      </trkpt>
      <trkpt lat="49.84634" lon="2.60573">
        <ele>84.8</ele>
        <time>2022-07-10T10:26:43Z</time>
      </trkpt>
      <trkpt lat="49.84634" lon="2.60576">
        <ele>84.8</ele>
        <time>2022-07-10T10:26:44Z</time>
      </trkpt>
      <trkpt lat="49.84635" lon="2.60578">
        <ele>84.8</ele>
        <time>2022-07-10T10:26:45Z</time>
      </trkpt>
      <trkpt lat="49.84635" lon="2.60581">
        <ele>84.8</ele>
        <time>2022-07-10T10:26:46Z</time>
      </trkpt>
      <trkpt lat="49.84635" lon="2.60582">
        <ele>84.8</ele>
        <time>2022-07-10T10:26:47Z</time>
      </trkpt>
      <trkpt lat="49.84635" lon="2.60584">
        <ele>84.8</ele>
        <time>2022-07-10T10:26:48Z</time>
      </trkpt>
      <trkpt lat="49.84635" lon="2.60586">
        <ele>84.8</ele>
        <time>2022-07-10T10:26:49Z</time>
      </trkpt>
      <trkpt lat="49.84635" lon="2.60588">
        <ele>84.8</ele>
        <time>2022-07-10T10:26:51Z</time>
      </trkpt>
      <trkpt lat="49.84635" lon="2.6059">
        <ele>84.8</ele>
        <time>2022-07-10T10:26:52Z</time>
      </trkpt>
      <trkpt lat="49.84636" lon="2.60593">
        <ele>84.8</ele>
        <time>2022-07-10T10:26:53Z</time>
      </trkpt>
      <trkpt lat="49.84636" lon="2.60597">
        <ele>84.8</ele>
        <time>2022-07-10T10:26:54Z</time>
      </trkpt>
      <trkpt lat="49.84636" lon="2.60599">
        <ele>84.8</ele>
        <time>2022-07-10T10:26:56Z</time>
      </trkpt>
      <trkpt lat="49.84637" lon="2.606">
        <ele>84.8</ele>
        <time>2022-07-10T10:26:57Z</time>
      </trkpt>
      <trkpt lat="49.84637" lon="2.60602">
        <ele>84.8</ele>
        <time>2022-07-10T10:26:58Z</time>
      </trkpt>
      <trkpt lat="49.84637" lon="2.60603">
        <ele>84.8</ele>
        <time>2022-07-10T10:26:59Z</time>
      </trkpt>
      <trkpt lat="49.84637" lon="2.60605">
        <ele>84.8</ele>
        <time>2022-07-10T10:27:01Z</time>
      </trkpt>
      <trkpt lat="49.84637" lon="2.60607">
        <ele>84.9</ele>
        <time>2022-07-10T10:27:02Z</time>
      </trkpt>
      <trkpt lat="49.84638" lon="2.60609">
        <ele>84.9</ele>
        <time>2022-07-10T10:27:03Z</time>
      </trkpt>
      <trkpt lat="49.84638" lon="2.60612">
        <ele>84.9</ele>
        <time>2022-07-10T10:27:04Z</time>
      </trkpt>
      <trkpt lat="49.84638" lon="2.60613">
        <ele>84.9</ele>
        <time>2022-07-10T10:27:05Z</time>
      </trkpt>
      <trkpt lat="49.84638" lon="2.60615">
        <ele>84.9</ele>
        <time>2022-07-10T10:27:06Z</time>
      </trkpt>
      <trkpt lat="49.84639" lon="2.60616">
        <ele>84.9</ele>
        <time>2022-07-10T10:27:07Z</time>
      </trkpt>
      <trkpt lat="49.84639" lon="2.60618">
        <ele>84.9</ele>
        <time>2022-07-10T10:27:08Z</time>
      </trkpt>
      <trkpt lat="49.8464" lon="2.60619">
        <ele>84.9</ele>
        <time>2022-07-10T10:27:09Z</time>
      </trkpt>
      <trkpt lat="49.8464" lon="2.60621">
        <ele>84.9</ele>
        <time>2022-07-10T10:27:11Z</time>
      </trkpt>
      <trkpt lat="49.8464" lon="2.60622">
        <ele>84.9</ele>
        <time>2022-07-10T10:27:12Z</time>
      </trkpt>
      <trkpt lat="49.84641" lon="2.60624">
        <ele>85</ele>
        <time>2022-07-10T10:27:13Z</time>
      </trkpt>
      <trkpt lat="49.84642" lon="2.60627">
        <ele>85</ele>
        <time>2022-07-10T10:27:14Z</time>
      </trkpt>
      <trkpt lat="49.84643" lon="2.60629">
        <ele>85</ele>
        <time>2022-07-10T10:27:16Z</time>
      </trkpt>
      <trkpt lat="49.84643" lon="2.6063">
        <ele>85</ele>
        <time>2022-07-10T10:27:17Z</time>
      </trkpt>
      <trkpt lat="49.84644" lon="2.60632">
        <ele>85</ele>
        <time>2022-07-10T10:27:18Z</time>
      </trkpt>
      <trkpt lat="49.84645" lon="2.60633">
        <ele>85</ele>
        <time>2022-07-10T10:27:19Z</time>
      </trkpt>
      <trkpt lat="49.84646" lon="2.60636">
        <ele>85</ele>
        <time>2022-07-10T10:27:21Z</time>
      </trkpt>
      <trkpt lat="49.84646" lon="2.60637">
        <ele>85</ele>
        <time>2022-07-10T10:27:22Z</time>
      </trkpt>
      <trkpt lat="49.84646" lon="2.60638">
        <ele>85.1</ele>
        <time>2022-07-10T10:27:23Z</time>
      </trkpt>
      <trkpt lat="49.84647" lon="2.60641">
        <ele>85.1</ele>
        <time>2022-07-10T10:27:24Z</time>
      </trkpt>
      <trkpt lat="49.84648" lon="2.60642">
        <ele>85.1</ele>
        <time>2022-07-10T10:27:25Z</time>
      </trkpt>
      <trkpt lat="49.84648" lon="2.60644">
        <ele>85.1</ele>
        <time>2022-07-10T10:27:26Z</time>
      </trkpt>
      <trkpt lat="49.84649" lon="2.60645">
        <ele>85.1</ele>
        <time>2022-07-10T10:27:28Z</time>
      </trkpt>
      <trkpt lat="49.8465" lon="2.60645">
        <ele>85.1</ele>
        <time>2022-07-10T10:27:29Z</time>
      </trkpt>
      <trkpt lat="49.8465" lon="2.60645">
        <ele>85.1</ele>
        <time>2022-07-10T10:27:30Z</time>
      </trkpt>
      <trkpt lat="49.8465" lon="2.60645">
        <ele>85.1</ele>
        <time>2022-07-10T10:27:31Z</time>
      </trkpt>
      <trkpt lat="49.84651" lon="2.60645">
        <ele>85.1</ele>
        <time>2022-07-10T10:27:32Z</time>
      </trkpt>
      <trkpt lat="49.8465" lon="2.60644">
        <ele>85.1</ele>
        <time>2022-07-10T10:27:33Z</time>
      </trkpt>
      <trkpt lat="49.8465" lon="2.60644">
        <ele>85.1</ele>
        <time>2022-07-10T10:27:34Z</time>
      </trkpt>
      <trkpt lat="49.8465" lon="2.60645">
        <ele>85.1</ele>
        <time>2022-07-10T10:27:35Z</time>
      </trkpt>
      <trkpt lat="49.84649" lon="2.60645">
        <ele>85.1</ele>
        <time>2022-07-10T10:27:36Z</time>
      </trkpt>
      <trkpt lat="49.84649" lon="2.60645">
        <ele>85.1</ele>
        <time>2022-07-10T10:27:38Z</time>
      </trkpt>
      <trkpt lat="49.84649" lon="2.60645">
        <ele>85.1</ele>
        <time>2022-07-10T10:27:39Z</time>
      </trkpt>
      <trkpt lat="49.84649" lon="2.60645">
        <ele>85.1</ele>
        <time>2022-07-10T10:27:40Z</time>
      </trkpt>
      <trkpt lat="49.84649" lon="2.60645">
        <ele>85.1</ele>
        <time>2022-07-10T10:27:41Z</time>
      </trkpt>
      <trkpt lat="49.84649" lon="2.60645">
        <ele>85.1</ele>
        <time>2022-07-10T10:27:42Z</time>
      </trkpt>
      <trkpt lat="49.84649" lon="2.60645">
        <ele>85.1</ele>
        <time>2022-07-10T10:27:43Z</time>
      </trkpt>
      <trkpt lat="49.84649" lon="2.60645">
        <ele>85.2</ele>
        <time>2022-07-10T10:27:44Z</time>
      </trkpt>
      <trkpt lat="49.84649" lon="2.60645">
        <ele>85.2</ele>
        <time>2022-07-10T10:27:45Z</time>
      </trkpt>
      <trkpt lat="49.84648" lon="2.60645">
        <ele>85.2</ele>
        <time>2022-07-10T10:27:46Z</time>
      </trkpt>
      <trkpt lat="49.84648" lon="2.60645">
        <ele>85.2</ele>
        <time>2022-07-10T10:27:47Z</time>
      </trkpt>
      <trkpt lat="49.84648" lon="2.60645">
        <ele>85.2</ele>
        <time>2022-07-10T10:27:48Z</time>
      </trkpt>
      <trkpt lat="49.84647" lon="2.60644">
        <ele>85.2</ele>
        <time>2022-07-10T10:27:49Z</time>
      </trkpt>
      <trkpt lat="49.84647" lon="2.60644">
        <ele>85.2</ele>
        <time>2022-07-10T10:27:50Z</time>
      </trkpt>
      <trkpt lat="49.84647" lon="2.60644">
        <ele>85.2</ele>
        <time>2022-07-10T10:27:51Z</time>
      </trkpt>
      <trkpt lat="49.84647" lon="2.60644">
        <ele>85.2</ele>
        <time>2022-07-10T10:27:52Z</time>
      </trkpt>
      <trkpt lat="49.84647" lon="2.60644">
        <ele>85.2</ele>
        <time>2022-07-10T10:27:53Z</time>
      </trkpt>
      <trkpt lat="49.84647" lon="2.60644">
        <ele>85.2</ele>
        <time>2022-07-10T10:27:54Z</time>
      </trkpt>
      <trkpt lat="49.84648" lon="2.60645">
        <ele>85.2</ele>
        <time>2022-07-10T10:27:55Z</time>
      </trkpt>
      <trkpt lat="49.84648" lon="2.60645">
        <ele>85.2</ele>
        <time>2022-07-10T10:27:56Z</time>
      </trkpt>
      <trkpt lat="49.84648" lon="2.60646">
        <ele>85.2</ele>
        <time>2022-07-10T10:27:57Z</time>
      </trkpt>
      <trkpt lat="49.84648" lon="2.60646">
        <ele>85.2</ele>
        <time>2022-07-10T10:27:58Z</time>
      </trkpt>
      <trkpt lat="49.84648" lon="2.60647">
        <ele>85.2</ele>
        <time>2022-07-10T10:27:59Z</time>
      </trkpt>
      <trkpt lat="49.84649" lon="2.60649">
        <ele>85.2</ele>
        <time>2022-07-10T10:28:00Z</time>
      </trkpt>
      <trkpt lat="49.84649" lon="2.60651">
        <ele>85.2</ele>
        <time>2022-07-10T10:28:02Z</time>
      </trkpt>
      <trkpt lat="49.8465" lon="2.60654">
        <ele>85.3</ele>
        <time>2022-07-10T10:28:03Z</time>
      </trkpt>
      <trkpt lat="49.8465" lon="2.60657">
        <ele>85.3</ele>
        <time>2022-07-10T10:28:04Z</time>
      </trkpt>
      <trkpt lat="49.8465" lon="2.6066">
        <ele>85.3</ele>
        <time>2022-07-10T10:28:05Z</time>
      </trkpt>
      <trkpt lat="49.84651" lon="2.60663">
        <ele>85.3</ele>
        <time>2022-07-10T10:28:06Z</time>
      </trkpt>
      <trkpt lat="49.84651" lon="2.60664">
        <ele>85.3</ele>
        <time>2022-07-10T10:28:07Z</time>
      </trkpt>
      <trkpt lat="49.84652" lon="2.60665">
        <ele>85.3</ele>
        <time>2022-07-10T10:28:08Z</time>
      </trkpt>
      <trkpt lat="49.84652" lon="2.60666">
        <ele>85.4</ele>
        <time>2022-07-10T10:28:09Z</time>
      </trkpt>
      <trkpt lat="49.84652" lon="2.60668">
        <ele>85.4</ele>
        <time>2022-07-10T10:28:10Z</time>
      </trkpt>
      <trkpt lat="49.84653" lon="2.6067">
        <ele>85.4</ele>
        <time>2022-07-10T10:28:12Z</time>
      </trkpt>
      <trkpt lat="49.84653" lon="2.60672">
        <ele>85.4</ele>
        <time>2022-07-10T10:28:13Z</time>
      </trkpt>
      <trkpt lat="49.84653" lon="2.60674">
        <ele>85.4</ele>
        <time>2022-07-10T10:28:14Z</time>
      </trkpt>
      <trkpt lat="49.84654" lon="2.60675">
        <ele>85.4</ele>
        <time>2022-07-10T10:28:15Z</time>
      </trkpt>
      <trkpt lat="49.84655" lon="2.60675">
        <ele>85.4</ele>
        <time>2022-07-10T10:28:16Z</time>
      </trkpt>
      <trkpt lat="49.84655" lon="2.60676">
        <ele>85.5</ele>
        <time>2022-07-10T10:28:17Z</time>
      </trkpt>
      <trkpt lat="49.84655" lon="2.60677">
        <ele>85.5</ele>
        <time>2022-07-10T10:28:19Z</time>
      </trkpt>
      <trkpt lat="49.84654" lon="2.60678">
        <ele>85.5</ele>
        <time>2022-07-10T10:28:20Z</time>
      </trkpt>
      <trkpt lat="49.84654" lon="2.60678">
        <ele>85.5</ele>
        <time>2022-07-10T10:28:21Z</time>
      </trkpt>
      <trkpt lat="49.84654" lon="2.60678">
        <ele>85.5</ele>
        <time>2022-07-10T10:28:22Z</time>
      </trkpt>
      <trkpt lat="49.84655" lon="2.60678">
        <ele>85.5</ele>
        <time>2022-07-10T10:28:23Z</time>
      </trkpt>
      <trkpt lat="49.84655" lon="2.60678">
        <ele>85.5</ele>
        <time>2022-07-10T10:28:24Z</time>
      </trkpt>
      <trkpt lat="49.84655" lon="2.60677">
        <ele>85.5</ele>
        <time>2022-07-10T10:28:25Z</time>
      </trkpt>
      <trkpt lat="49.84655" lon="2.60677">
        <ele>85.5</ele>
        <time>2022-07-10T10:28:26Z</time>
      </trkpt>
      <trkpt lat="49.84656" lon="2.60677">
        <ele>85.5</ele>
        <time>2022-07-10T10:28:27Z</time>
      </trkpt>
      <trkpt lat="49.84656" lon="2.60678">
        <ele>85.5</ele>
        <time>2022-07-10T10:28:29Z</time>
      </trkpt>
      <trkpt lat="49.84656" lon="2.60678">
        <ele>85.5</ele>
        <time>2022-07-10T10:28:30Z</time>
      </trkpt>
      <trkpt lat="49.84656" lon="2.60678">
        <ele>85.5</ele>
        <time>2022-07-10T10:28:32Z</time>
      </trkpt>
      <trkpt lat="49.84656" lon="2.60678">
        <ele>85.5</ele>
        <time>2022-07-10T10:28:33Z</time>
      </trkpt>
      <trkpt lat="49.84656" lon="2.60678">
        <ele>85.5</ele>
        <time>2022-07-10T10:28:34Z</time>
      </trkpt>
      <trkpt lat="49.84656" lon="2.60678">
        <ele>85.5</ele>
        <time>2022-07-10T10:28:35Z</time>
      </trkpt>
      <trkpt lat="49.84656" lon="2.60678">
        <ele>85.5</ele>
        <time>2022-07-10T10:28:36Z</time>
      </trkpt>
      <trkpt lat="49.84656" lon="2.60678">
        <ele>85.5</ele>
        <time>2022-07-10T10:28:37Z</time>
      </trkpt>
      <trkpt lat="49.84657" lon="2.60678">
        <ele>85.5</ele>
        <time>2022-07-10T10:28:38Z</time>
      </trkpt>
      <trkpt lat="49.84657" lon="2.60678">
        <ele>85.5</ele>
        <time>2022-07-10T10:28:39Z</time>
      </trkpt>
      <trkpt lat="49.84657" lon="2.60678">
        <ele>85.5</ele>
        <time>2022-07-10T10:28:40Z</time>
      </trkpt>
      <trkpt lat="49.84657" lon="2.60678">
        <ele>85.5</ele>
        <time>2022-07-10T10:28:41Z</time>
      </trkpt>
      <trkpt lat="49.84657" lon="2.60678">
        <ele>85.5</ele>
        <time>2022-07-10T10:28:42Z</time>
      </trkpt>
      <trkpt lat="49.84657" lon="2.60678">
        <ele>85.5</ele>
        <time>2022-07-10T10:28:43Z</time>
      </trkpt>
      <trkpt lat="49.84657" lon="2.60678">
        <ele>85.5</ele>
        <time>2022-07-10T10:28:44Z</time>
      </trkpt>
      <trkpt lat="49.84657" lon="2.60678">
        <ele>85.5</ele>
        <time>2022-07-10T10:28:45Z</time>
      </trkpt>
      <trkpt lat="49.84657" lon="2.60678">
        <ele>85.5</ele>
        <time>2022-07-10T10:28:46Z</time>
      </trkpt>
      <trkpt lat="49.84657" lon="2.60678">
        <ele>85.5</ele>
        <time>2022-07-10T10:28:47Z</time>
      </trkpt>
      <trkpt lat="49.84657" lon="2.60677">
        <ele>85.5</ele>
        <time>2022-07-10T10:28:48Z</time>
      </trkpt>
      <trkpt lat="49.84657" lon="2.60677">
        <ele>85.5</ele>
        <time>2022-07-10T10:28:49Z</time>
      </trkpt>
      <trkpt lat="49.84657" lon="2.60677">
        <ele>85.5</ele>
        <time>2022-07-10T10:28:50Z</time>
      </trkpt>
      <trkpt lat="49.84657" lon="2.60677">
        <ele>85.5</ele>
        <time>2022-07-10T10:28:51Z</time>
      </trkpt>
      <trkpt lat="49.84657" lon="2.60677">
        <ele>85.5</ele>
        <time>2022-07-10T10:28:52Z</time>
      </trkpt>
      <trkpt lat="49.84657" lon="2.60677">
        <ele>85.5</ele>
        <time>2022-07-10T10:28:53Z</time>
      </trkpt>
      <trkpt lat="49.84657" lon="2.60677">
        <ele>85.5</ele>
        <time>2022-07-10T10:28:54Z</time>
      </trkpt>
      <trkpt lat="49.84657" lon="2.60677">
        <ele>85.5</ele>
        <time>2022-07-10T10:28:55Z</time>
      </trkpt>
      <trkpt lat="49.84657" lon="2.60677">
        <ele>85.5</ele>
        <time>2022-07-10T10:28:56Z</time>
      </trkpt>
      <trkpt lat="49.84657" lon="2.60677">
        <ele>85.5</ele>
        <time>2022-07-10T10:28:57Z</time>
      </trkpt>
      <trkpt lat="49.84657" lon="2.60677">
        <ele>85.5</ele>
        <time>2022-07-10T10:28:58Z</time>
      </trkpt>
      <trkpt lat="49.84657" lon="2.60677">
        <ele>85.5</ele>
        <time>2022-07-10T10:28:59Z</time>
      </trkpt>
      <trkpt lat="49.84657" lon="2.60677">
        <ele>85.5</ele>
        <time>2022-07-10T10:29:00Z</time>
      </trkpt>
      <trkpt lat="49.84657" lon="2.60677">
        <ele>85.5</ele>
        <time>2022-07-10T10:29:01Z</time>
      </trkpt>
      <trkpt lat="49.84657" lon="2.60677">
        <ele>85.5</ele>
        <time>2022-07-10T10:29:02Z</time>
      </trkpt>
      <trkpt lat="49.84657" lon="2.60677">
        <ele>85.5</ele>
        <time>2022-07-10T10:29:03Z</time>
      </trkpt>
      <trkpt lat="49.84657" lon="2.60677">
        <ele>85.5</ele>
        <time>2022-07-10T10:29:04Z</time>
      </trkpt>
      <trkpt lat="49.84657" lon="2.60677">
        <ele>85.5</ele>
        <time>2022-07-10T10:29:05Z</time>
      </trkpt>
      <trkpt lat="49.84657" lon="2.60677">
        <ele>85.5</ele>
        <time>2022-07-10T10:29:06Z</time>
      </trkpt>
      <trkpt lat="49.84657" lon="2.60677">
        <ele>85.5</ele>
        <time>2022-07-10T10:29:07Z</time>
      </trkpt>
      <trkpt lat="49.84657" lon="2.60677">
        <ele>85.5</ele>
        <time>2022-07-10T10:29:08Z</time>
      </trkpt>
      <trkpt lat="49.84657" lon="2.60677">
        <ele>85.5</ele>
        <time>2022-07-10T10:29:09Z</time>
      </trkpt>
      <trkpt lat="49.84657" lon="2.60677">
        <ele>85.5</ele>
        <time>2022-07-10T10:29:10Z</time>
      </trkpt>
      <trkpt lat="49.84658" lon="2.60677">
        <ele>85.5</ele>
        <time>2022-07-10T10:29:11Z</time>
      </trkpt>
      <trkpt lat="49.84658" lon="2.60678">
        <ele>85.5</ele>
        <time>2022-07-10T10:29:12Z</time>
      </trkpt>
      <trkpt lat="49.84659" lon="2.60678">
        <ele>85.5</ele>
        <time>2022-07-10T10:29:13Z</time>
      </trkpt>
      <trkpt lat="49.84659" lon="2.60678">
        <ele>85.5</ele>
        <time>2022-07-10T10:29:14Z</time>
      </trkpt>
      <trkpt lat="49.8466" lon="2.60679">
        <ele>85.5</ele>
        <time>2022-07-10T10:29:15Z</time>
      </trkpt>
      <trkpt lat="49.8466" lon="2.60679">
        <ele>85.5</ele>
        <time>2022-07-10T10:29:16Z</time>
      </trkpt>
      <trkpt lat="49.8466" lon="2.6068">
        <ele>85.6</ele>
        <time>2022-07-10T10:29:17Z</time>
      </trkpt>
      <trkpt lat="49.8466" lon="2.60682">
        <ele>85.6</ele>
        <time>2022-07-10T10:29:19Z</time>
      </trkpt>
      <trkpt lat="49.84661" lon="2.60682">
        <ele>85.6</ele>
        <time>2022-07-10T10:29:20Z</time>
      </trkpt>
      <trkpt lat="49.84661" lon="2.60683">
        <ele>85.6</ele>
        <time>2022-07-10T10:29:21Z</time>
      </trkpt>
      <trkpt lat="49.84661" lon="2.60683">
        <ele>85.6</ele>
        <time>2022-07-10T10:29:22Z</time>
      </trkpt>
      <trkpt lat="49.84661" lon="2.60683">
        <ele>85.6</ele>
        <time>2022-07-10T10:29:23Z</time>
      </trkpt>
      <trkpt lat="49.84661" lon="2.60683">
        <ele>85.6</ele>
        <time>2022-07-10T10:29:24Z</time>
      </trkpt>
      <trkpt lat="49.84661" lon="2.60683">
        <ele>85.6</ele>
        <time>2022-07-10T10:29:25Z</time>
      </trkpt>
      <trkpt lat="49.84661" lon="2.60683">
        <ele>85.6</ele>
        <time>2022-07-10T10:29:26Z</time>
      </trkpt>
      <trkpt lat="49.84661" lon="2.60683">
        <ele>85.6</ele>
        <time>2022-07-10T10:29:27Z</time>
      </trkpt>
      <trkpt lat="49.84662" lon="2.60682">
        <ele>85.6</ele>
        <time>2022-07-10T10:29:28Z</time>
      </trkpt>
      <trkpt lat="49.84662" lon="2.60683">
        <ele>85.6</ele>
        <time>2022-07-10T10:29:29Z</time>
      </trkpt>
      <trkpt lat="49.84662" lon="2.60683">
        <ele>85.6</ele>
        <time>2022-07-10T10:29:30Z</time>
      </trkpt>
      <trkpt lat="49.84662" lon="2.60684">
        <ele>85.6</ele>
        <time>2022-07-10T10:29:31Z</time>
      </trkpt>
      <trkpt lat="49.84663" lon="2.60685">
        <ele>85.6</ele>
        <time>2022-07-10T10:29:32Z</time>
      </trkpt>
      <trkpt lat="49.84663" lon="2.60687">
        <ele>85.6</ele>
        <time>2022-07-10T10:29:33Z</time>
      </trkpt>
      <trkpt lat="49.84663" lon="2.6069">
        <ele>85.6</ele>
        <time>2022-07-10T10:29:35Z</time>
      </trkpt>
      <trkpt lat="49.84664" lon="2.60691">
        <ele>85.6</ele>
        <time>2022-07-10T10:29:36Z</time>
      </trkpt>
      <trkpt lat="49.84664" lon="2.60694">
        <ele>85.6</ele>
        <time>2022-07-10T10:29:37Z</time>
      </trkpt>
      <trkpt lat="49.84664" lon="2.60697">
        <ele>85.6</ele>
        <time>2022-07-10T10:29:38Z</time>
      </trkpt>
      <trkpt lat="49.84664" lon="2.60698">
        <ele>85.6</ele>
        <time>2022-07-10T10:29:39Z</time>
      </trkpt>
      <trkpt lat="49.84663" lon="2.60699">
        <ele>85.6</ele>
        <time>2022-07-10T10:29:40Z</time>
      </trkpt>
      <trkpt lat="49.84663" lon="2.60701">
        <ele>85.5</ele>
        <time>2022-07-10T10:29:42Z</time>
      </trkpt>
      <trkpt lat="49.84662" lon="2.60701">
        <ele>85.5</ele>
        <time>2022-07-10T10:29:43Z</time>
      </trkpt>
      <trkpt lat="49.8466" lon="2.60701">
        <ele>85.5</ele>
        <time>2022-07-10T10:29:44Z</time>
      </trkpt>
      <trkpt lat="49.84659" lon="2.60702">
        <ele>85.5</ele>
        <time>2022-07-10T10:29:45Z</time>
      </trkpt>
      <trkpt lat="49.84659" lon="2.60703">
        <ele>85.5</ele>
        <time>2022-07-10T10:29:46Z</time>
      </trkpt>
      <trkpt lat="49.84658" lon="2.60705">
        <ele>85.5</ele>
        <time>2022-07-10T10:29:47Z</time>
      </trkpt>
      <trkpt lat="49.84657" lon="2.60707">
        <ele>85.5</ele>
        <time>2022-07-10T10:29:48Z</time>
      </trkpt>
      <trkpt lat="49.84656" lon="2.60708">
        <ele>85.5</ele>
        <time>2022-07-10T10:29:50Z</time>
      </trkpt>
      <trkpt lat="49.84656" lon="2.6071">
        <ele>85.5</ele>
        <time>2022-07-10T10:29:51Z</time>
      </trkpt>
      <trkpt lat="49.84656" lon="2.60714">
        <ele>85.5</ele>
        <time>2022-07-10T10:29:52Z</time>
      </trkpt>
      <trkpt lat="49.84656" lon="2.60716">
        <ele>85.5</ele>
        <time>2022-07-10T10:29:53Z</time>
      </trkpt>
      <trkpt lat="49.84656" lon="2.60717">
        <ele>85.5</ele>
        <time>2022-07-10T10:29:54Z</time>
      </trkpt>
      <trkpt lat="49.84656" lon="2.60719">
        <ele>85.4</ele>
        <time>2022-07-10T10:29:55Z</time>
      </trkpt>
      <trkpt lat="49.84657" lon="2.60721">
        <ele>85.4</ele>
        <time>2022-07-10T10:29:57Z</time>
      </trkpt>
      <trkpt lat="49.84657" lon="2.60723">
        <ele>85.4</ele>
        <time>2022-07-10T10:29:58Z</time>
      </trkpt>
      <trkpt lat="49.84656" lon="2.60725">
        <ele>85.4</ele>
        <time>2022-07-10T10:29:59Z</time>
      </trkpt>
      <trkpt lat="49.84656" lon="2.60726">
        <ele>85.4</ele>
        <time>2022-07-10T10:30:00Z</time>
      </trkpt>
      <trkpt lat="49.84655" lon="2.60728">
        <ele>85.4</ele>
        <time>2022-07-10T10:30:01Z</time>
      </trkpt>
      <trkpt lat="49.84654" lon="2.6073">
        <ele>85.4</ele>
        <time>2022-07-10T10:30:03Z</time>
      </trkpt>
      <trkpt lat="49.84654" lon="2.60731">
        <ele>85.4</ele>
        <time>2022-07-10T10:30:04Z</time>
      </trkpt>
      <trkpt lat="49.84653" lon="2.60731">
        <ele>85.4</ele>
        <time>2022-07-10T10:30:05Z</time>
      </trkpt>
      <trkpt lat="49.84653" lon="2.60732">
        <ele>85.4</ele>
        <time>2022-07-10T10:30:06Z</time>
      </trkpt>
      <trkpt lat="49.84652" lon="2.60735">
        <ele>85.4</ele>
        <time>2022-07-10T10:30:07Z</time>
      </trkpt>
      <trkpt lat="49.84652" lon="2.60737">
        <ele>85.4</ele>
        <time>2022-07-10T10:30:08Z</time>
      </trkpt>
      <trkpt lat="49.84652" lon="2.60739">
        <ele>85.4</ele>
        <time>2022-07-10T10:30:09Z</time>
      </trkpt>
      <trkpt lat="49.84651" lon="2.60741">
        <ele>85.4</ele>
        <time>2022-07-10T10:30:10Z</time>
      </trkpt>
      <trkpt lat="49.84651" lon="2.60743">
        <ele>85.4</ele>
        <time>2022-07-10T10:30:12Z</time>
      </trkpt>
      <trkpt lat="49.84651" lon="2.60745">
        <ele>85.4</ele>
        <time>2022-07-10T10:30:13Z</time>
      </trkpt>
      <trkpt lat="49.84651" lon="2.60748">
        <ele>85.4</ele>
        <time>2022-07-10T10:30:14Z</time>
      </trkpt>
      <trkpt lat="49.8465" lon="2.60751">
        <ele>85.4</ele>
        <time>2022-07-10T10:30:15Z</time>
      </trkpt>
      <trkpt lat="49.8465" lon="2.60752">
        <ele>85.4</ele>
        <time>2022-07-10T10:30:16Z</time>
      </trkpt>
      <trkpt lat="49.8465" lon="2.60754">
        <ele>85.4</ele>
        <time>2022-07-10T10:30:17Z</time>
      </trkpt>
      <trkpt lat="49.8465" lon="2.60756">
        <ele>85.4</ele>
        <time>2022-07-10T10:30:18Z</time>
      </trkpt>
      <trkpt lat="49.84649" lon="2.60759">
        <ele>85.4</ele>
        <time>2022-07-10T10:30:19Z</time>
      </trkpt>
      <trkpt lat="49.84649" lon="2.60761">
        <ele>85.4</ele>
        <time>2022-07-10T10:30:20Z</time>
      </trkpt>
      <trkpt lat="49.84649" lon="2.60763">
        <ele>85.4</ele>
        <time>2022-07-10T10:30:21Z</time>
      </trkpt>
      <trkpt lat="49.84647" lon="2.60769">
        <ele>85.4</ele>
        <time>2022-07-10T10:30:23Z</time>
      </trkpt>
      <trkpt lat="49.84647" lon="2.6077">
        <ele>85.4</ele>
        <time>2022-07-10T10:30:24Z</time>
      </trkpt>
      <trkpt lat="49.84647" lon="2.60772">
        <ele>85.4</ele>
        <time>2022-07-10T10:30:26Z</time>
      </trkpt>
      <trkpt lat="49.84646" lon="2.60773">
        <ele>85.4</ele>
        <time>2022-07-10T10:30:27Z</time>
      </trkpt>
      <trkpt lat="49.84646" lon="2.60776">
        <ele>85.4</ele>
        <time>2022-07-10T10:30:28Z</time>
      </trkpt>
      <trkpt lat="49.84646" lon="2.60778">
        <ele>85.4</ele>
        <time>2022-07-10T10:30:29Z</time>
      </trkpt>
      <trkpt lat="49.84645" lon="2.60779">
        <ele>85.5</ele>
        <time>2022-07-10T10:30:30Z</time>
      </trkpt>
      <trkpt lat="49.84645" lon="2.60782">
        <ele>85.5</ele>
        <time>2022-07-10T10:30:31Z</time>
      </trkpt>
      <trkpt lat="49.84645" lon="2.60784">
        <ele>85.5</ele>
        <time>2022-07-10T10:30:32Z</time>
      </trkpt>
      <trkpt lat="49.84645" lon="2.60786">
        <ele>85.5</ele>
        <time>2022-07-10T10:30:33Z</time>
      </trkpt>
      <trkpt lat="49.84644" lon="2.60788">
        <ele>85.5</ele>
        <time>2022-07-10T10:30:34Z</time>
      </trkpt>
      <trkpt lat="49.84644" lon="2.60791">
        <ele>85.5</ele>
        <time>2022-07-10T10:30:35Z</time>
      </trkpt>
      <trkpt lat="49.84643" lon="2.60792">
        <ele>85.5</ele>
        <time>2022-07-10T10:30:37Z</time>
      </trkpt>
      <trkpt lat="49.84643" lon="2.60794">
        <ele>85.5</ele>
        <time>2022-07-10T10:30:38Z</time>
      </trkpt>
      <trkpt lat="49.84643" lon="2.60796">
        <ele>85.6</ele>
        <time>2022-07-10T10:30:39Z</time>
      </trkpt>
      <trkpt lat="49.84642" lon="2.60798">
        <ele>85.6</ele>
        <time>2022-07-10T10:30:40Z</time>
      </trkpt>
      <trkpt lat="49.84642" lon="2.60799">
        <ele>85.6</ele>
        <time>2022-07-10T10:30:41Z</time>
      </trkpt>
      <trkpt lat="49.84642" lon="2.60801">
        <ele>85.6</ele>
        <time>2022-07-10T10:30:43Z</time>
      </trkpt>
      <trkpt lat="49.84642" lon="2.60803">
        <ele>85.6</ele>
        <time>2022-07-10T10:30:44Z</time>
      </trkpt>
      <trkpt lat="49.84641" lon="2.60804">
        <ele>85.6</ele>
        <time>2022-07-10T10:30:45Z</time>
      </trkpt>
      <trkpt lat="49.84641" lon="2.60806">
        <ele>85.6</ele>
        <time>2022-07-10T10:30:46Z</time>
      </trkpt>
      <trkpt lat="49.8464" lon="2.60808">
        <ele>85.6</ele>
        <time>2022-07-10T10:30:47Z</time>
      </trkpt>
      <trkpt lat="49.8464" lon="2.6081">
        <ele>85.7</ele>
        <time>2022-07-10T10:30:48Z</time>
      </trkpt>
      <trkpt lat="49.84639" lon="2.60812">
        <ele>85.7</ele>
        <time>2022-07-10T10:30:49Z</time>
      </trkpt>
      <trkpt lat="49.84639" lon="2.60813">
        <ele>85.7</ele>
        <time>2022-07-10T10:30:50Z</time>
      </trkpt>
      <trkpt lat="49.84638" lon="2.60815">
        <ele>85.7</ele>
        <time>2022-07-10T10:30:51Z</time>
      </trkpt>
      <trkpt lat="49.84638" lon="2.60816">
        <ele>85.7</ele>
        <time>2022-07-10T10:30:52Z</time>
      </trkpt>
      <trkpt lat="49.84637" lon="2.60818">
        <ele>85.7</ele>
        <time>2022-07-10T10:30:54Z</time>
      </trkpt>
      <trkpt lat="49.84636" lon="2.60819">
        <ele>85.7</ele>
        <time>2022-07-10T10:30:55Z</time>
      </trkpt>
      <trkpt lat="49.84636" lon="2.60821">
        <ele>85.7</ele>
        <time>2022-07-10T10:30:56Z</time>
      </trkpt>
      <trkpt lat="49.84635" lon="2.60822">
        <ele>85.8</ele>
        <time>2022-07-10T10:30:57Z</time>
      </trkpt>
      <trkpt lat="49.84634" lon="2.60822">
        <ele>85.8</ele>
        <time>2022-07-10T10:30:58Z</time>
      </trkpt>
      <trkpt lat="49.84633" lon="2.60823">
        <ele>85.7</ele>
        <time>2022-07-10T10:30:59Z</time>
      </trkpt>
      <trkpt lat="49.84632" lon="2.60824">
        <ele>85.7</ele>
        <time>2022-07-10T10:31:00Z</time>
      </trkpt>
      <trkpt lat="49.8463" lon="2.60824">
        <ele>85.7</ele>
        <time>2022-07-10T10:31:02Z</time>
      </trkpt>
      <trkpt lat="49.8463" lon="2.60823">
        <ele>85.7</ele>
        <time>2022-07-10T10:31:03Z</time>
      </trkpt>
      <trkpt lat="49.8463" lon="2.60822">
        <ele>85.7</ele>
        <time>2022-07-10T10:31:04Z</time>
      </trkpt>
      <trkpt lat="49.8463" lon="2.60822">
        <ele>85.7</ele>
        <time>2022-07-10T10:31:05Z</time>
      </trkpt>
      <trkpt lat="49.8463" lon="2.60822">
        <ele>85.7</ele>
        <time>2022-07-10T10:31:06Z</time>
      </trkpt>
      <trkpt lat="49.8463" lon="2.60822">
        <ele>85.7</ele>
        <time>2022-07-10T10:31:07Z</time>
      </trkpt>
      <trkpt lat="49.8463" lon="2.60822">
        <ele>85.7</ele>
        <time>2022-07-10T10:31:08Z</time>
      </trkpt>
      <trkpt lat="49.8463" lon="2.60822">
        <ele>85.7</ele>
        <time>2022-07-10T10:31:09Z</time>
      </trkpt>
      <trkpt lat="49.8463" lon="2.60822">
        <ele>85.7</ele>
        <time>2022-07-10T10:31:10Z</time>
      </trkpt>
      <trkpt lat="49.8463" lon="2.60822">
        <ele>85.7</ele>
        <time>2022-07-10T10:31:11Z</time>
      </trkpt>
      <trkpt lat="49.8463" lon="2.60822">
        <ele>85.6</ele>
        <time>2022-07-10T10:31:12Z</time>
      </trkpt>
      <trkpt lat="49.84631" lon="2.60821">
        <ele>85.6</ele>
        <time>2022-07-10T10:31:13Z</time>
      </trkpt>
      <trkpt lat="49.84631" lon="2.60821">
        <ele>85.6</ele>
        <time>2022-07-10T10:31:14Z</time>
      </trkpt>
      <trkpt lat="49.84631" lon="2.60821">
        <ele>85.6</ele>
        <time>2022-07-10T10:31:15Z</time>
      </trkpt>
      <trkpt lat="49.84631" lon="2.60821">
        <ele>85.6</ele>
        <time>2022-07-10T10:31:16Z</time>
      </trkpt>
      <trkpt lat="49.84631" lon="2.6082">
        <ele>85.6</ele>
        <time>2022-07-10T10:31:17Z</time>
      </trkpt>
      <trkpt lat="49.84631" lon="2.60819">
        <ele>85.6</ele>
        <time>2022-07-10T10:31:18Z</time>
      </trkpt>
      <trkpt lat="49.84631" lon="2.60817">
        <ele>85.6</ele>
        <time>2022-07-10T10:31:20Z</time>
      </trkpt>
      <trkpt lat="49.84631" lon="2.60816">
        <ele>85.6</ele>
        <time>2022-07-10T10:31:21Z</time>
      </trkpt>
      <trkpt lat="49.8463" lon="2.60814">
        <ele>85.6</ele>
        <time>2022-07-10T10:31:22Z</time>
      </trkpt>
      <trkpt lat="49.84629" lon="2.60813">
        <ele>85.5</ele>
        <time>2022-07-10T10:31:23Z</time>
      </trkpt>
      <trkpt lat="49.84626" lon="2.60813">
        <ele>85.5</ele>
        <time>2022-07-10T10:31:25Z</time>
      </trkpt>
      <trkpt lat="49.84623" lon="2.60813">
        <ele>85.4</ele>
        <time>2022-07-10T10:31:26Z</time>
      </trkpt>
      <trkpt lat="49.84622" lon="2.60813">
        <ele>85.4</ele>
        <time>2022-07-10T10:31:27Z</time>
      </trkpt>
      <trkpt lat="49.8462" lon="2.60814">
        <ele>85.4</ele>
        <time>2022-07-10T10:31:28Z</time>
      </trkpt>
      <trkpt lat="49.84619" lon="2.60813">
        <ele>85.3</ele>
        <time>2022-07-10T10:31:29Z</time>
      </trkpt>
      <trkpt lat="49.84617" lon="2.60813">
        <ele>85.3</ele>
        <time>2022-07-10T10:31:31Z</time>
      </trkpt>
      <trkpt lat="49.84616" lon="2.60813">
        <ele>85.3</ele>
        <time>2022-07-10T10:31:32Z</time>
      </trkpt>
      <trkpt lat="49.84614" lon="2.60813">
        <ele>85.3</ele>
        <time>2022-07-10T10:31:34Z</time>
      </trkpt>
      <trkpt lat="49.84613" lon="2.60813">
        <ele>85.2</ele>
        <time>2022-07-10T10:31:35Z</time>
      </trkpt>
      <trkpt lat="49.84613" lon="2.60812">
        <ele>85.2</ele>
        <time>2022-07-10T10:31:36Z</time>
      </trkpt>
      <trkpt lat="49.84612" lon="2.60812">
        <ele>85.2</ele>
        <time>2022-07-10T10:31:37Z</time>
      </trkpt>
      <trkpt lat="49.84611" lon="2.60811">
        <ele>85.2</ele>
        <time>2022-07-10T10:31:38Z</time>
      </trkpt>
      <trkpt lat="49.8461" lon="2.6081">
        <ele>85.2</ele>
        <time>2022-07-10T10:31:39Z</time>
      </trkpt>
      <trkpt lat="49.84609" lon="2.60809">
        <ele>85.2</ele>
        <time>2022-07-10T10:31:40Z</time>
      </trkpt>
      <trkpt lat="49.84607" lon="2.60808">
        <ele>85.1</ele>
        <time>2022-07-10T10:31:41Z</time>
      </trkpt>
      <trkpt lat="49.84605" lon="2.60807">
        <ele>85.1</ele>
        <time>2022-07-10T10:31:43Z</time>
      </trkpt>
      <trkpt lat="49.84604" lon="2.60806">
        <ele>85.1</ele>
        <time>2022-07-10T10:31:44Z</time>
      </trkpt>
      <trkpt lat="49.84603" lon="2.60806">
        <ele>85.1</ele>
        <time>2022-07-10T10:31:45Z</time>
      </trkpt>
      <trkpt lat="49.84601" lon="2.60805">
        <ele>85.1</ele>
        <time>2022-07-10T10:31:46Z</time>
      </trkpt>
      <trkpt lat="49.846" lon="2.60805">
        <ele>85</ele>
        <time>2022-07-10T10:31:47Z</time>
      </trkpt>
      <trkpt lat="49.84599" lon="2.60804">
        <ele>85</ele>
        <time>2022-07-10T10:31:48Z</time>
      </trkpt>
      <trkpt lat="49.84597" lon="2.60804">
        <ele>85</ele>
        <time>2022-07-10T10:31:49Z</time>
      </trkpt>
      <trkpt lat="49.84594" lon="2.60802">
        <ele>85</ele>
        <time>2022-07-10T10:31:50Z</time>
      </trkpt>
      <trkpt lat="49.84593" lon="2.60802">
        <ele>84.9</ele>
        <time>2022-07-10T10:31:51Z</time>
      </trkpt>
      <trkpt lat="49.84592" lon="2.60801">
        <ele>84.9</ele>
        <time>2022-07-10T10:31:52Z</time>
      </trkpt>
      <trkpt lat="49.84591" lon="2.60801">
        <ele>84.9</ele>
        <time>2022-07-10T10:31:53Z</time>
      </trkpt>
      <trkpt lat="49.84589" lon="2.608">
        <ele>84.9</ele>
        <time>2022-07-10T10:31:55Z</time>
      </trkpt>
      <trkpt lat="49.84588" lon="2.608">
        <ele>84.9</ele>
        <time>2022-07-10T10:31:56Z</time>
      </trkpt>
      <trkpt lat="49.84586" lon="2.60799">
        <ele>84.8</ele>
        <time>2022-07-10T10:31:57Z</time>
      </trkpt>
      <trkpt lat="49.84585" lon="2.60798">
        <ele>84.8</ele>
        <time>2022-07-10T10:31:58Z</time>
      </trkpt>
      <trkpt lat="49.84583" lon="2.60797">
        <ele>84.8</ele>
        <time>2022-07-10T10:31:59Z</time>
      </trkpt>
      <trkpt lat="49.84582" lon="2.60795">
        <ele>84.8</ele>
        <time>2022-07-10T10:32:00Z</time>
      </trkpt>
      <trkpt lat="49.84581" lon="2.60794">
        <ele>84.8</ele>
        <time>2022-07-10T10:32:01Z</time>
      </trkpt>
      <trkpt lat="49.8458" lon="2.60794">
        <ele>84.8</ele>
        <time>2022-07-10T10:32:02Z</time>
      </trkpt>
      <trkpt lat="49.84579" lon="2.60792">
        <ele>84.8</ele>
        <time>2022-07-10T10:32:04Z</time>
      </trkpt>
      <trkpt lat="49.84578" lon="2.60791">
        <ele>84.7</ele>
        <time>2022-07-10T10:32:05Z</time>
      </trkpt>
      <trkpt lat="49.84577" lon="2.6079">
        <ele>84.7</ele>
        <time>2022-07-10T10:32:06Z</time>
      </trkpt>
      <trkpt lat="49.84575" lon="2.60788">
        <ele>84.7</ele>
        <time>2022-07-10T10:32:07Z</time>
      </trkpt>
      <trkpt lat="49.84574" lon="2.60787">
        <ele>84.7</ele>
        <time>2022-07-10T10:32:08Z</time>
      </trkpt>
      <trkpt lat="49.84573" lon="2.60786">
        <ele>84.7</ele>
        <time>2022-07-10T10:32:10Z</time>
      </trkpt>
      <trkpt lat="49.84573" lon="2.60785">
        <ele>84.7</ele>
        <time>2022-07-10T10:32:11Z</time>
      </trkpt>
      <trkpt lat="49.84572" lon="2.60784">
        <ele>84.7</ele>
        <time>2022-07-10T10:32:12Z</time>
      </trkpt>
      <trkpt lat="49.84571" lon="2.60783">
        <ele>84.7</ele>
        <time>2022-07-10T10:32:13Z</time>
      </trkpt>
      <trkpt lat="49.84569" lon="2.60781">
        <ele>84.7</ele>
        <time>2022-07-10T10:32:14Z</time>
      </trkpt>
      <trkpt lat="49.84568" lon="2.6078">
        <ele>84.7</ele>
        <time>2022-07-10T10:32:15Z</time>
      </trkpt>
      <trkpt lat="49.84567" lon="2.60778">
        <ele>84.7</ele>
        <time>2022-07-10T10:32:16Z</time>
      </trkpt>
      <trkpt lat="49.84567" lon="2.60777">
        <ele>84.6</ele>
        <time>2022-07-10T10:32:18Z</time>
      </trkpt>
      <trkpt lat="49.84566" lon="2.60775">
        <ele>84.6</ele>
        <time>2022-07-10T10:32:19Z</time>
      </trkpt>
      <trkpt lat="49.84566" lon="2.60773">
        <ele>84.6</ele>
        <time>2022-07-10T10:32:20Z</time>
      </trkpt>
      <trkpt lat="49.84565" lon="2.60772">
        <ele>84.6</ele>
        <time>2022-07-10T10:32:21Z</time>
      </trkpt>
      <trkpt lat="49.84565" lon="2.6077">
        <ele>84.6</ele>
        <time>2022-07-10T10:32:22Z</time>
      </trkpt>
      <trkpt lat="49.84564" lon="2.60769">
        <ele>84.6</ele>
        <time>2022-07-10T10:32:23Z</time>
      </trkpt>
      <trkpt lat="49.84563" lon="2.60768">
        <ele>84.6</ele>
        <time>2022-07-10T10:32:24Z</time>
      </trkpt>
      <trkpt lat="49.84561" lon="2.60767">
        <ele>84.6</ele>
        <time>2022-07-10T10:32:25Z</time>
      </trkpt>
      <trkpt lat="49.8456" lon="2.60766">
        <ele>84.6</ele>
        <time>2022-07-10T10:32:26Z</time>
      </trkpt>
      <trkpt lat="49.84559" lon="2.60766">
        <ele>84.6</ele>
        <time>2022-07-10T10:32:27Z</time>
      </trkpt>
      <trkpt lat="49.84558" lon="2.60765">
        <ele>84.6</ele>
        <time>2022-07-10T10:32:28Z</time>
      </trkpt>
      <trkpt lat="49.84557" lon="2.60764">
        <ele>84.6</ele>
        <time>2022-07-10T10:32:30Z</time>
      </trkpt>
      <trkpt lat="49.84556" lon="2.60764">
        <ele>84.5</ele>
        <time>2022-07-10T10:32:31Z</time>
      </trkpt>
      <trkpt lat="49.84555" lon="2.60763">
        <ele>84.5</ele>
        <time>2022-07-10T10:32:32Z</time>
      </trkpt>
      <trkpt lat="49.84553" lon="2.60763">
        <ele>84.5</ele>
        <time>2022-07-10T10:32:33Z</time>
      </trkpt>
      <trkpt lat="49.84552" lon="2.60762">
        <ele>84.5</ele>
        <time>2022-07-10T10:32:34Z</time>
      </trkpt>
      <trkpt lat="49.84551" lon="2.60761">
        <ele>84.5</ele>
        <time>2022-07-10T10:32:35Z</time>
      </trkpt>
      <trkpt lat="49.8455" lon="2.60761">
        <ele>84.5</ele>
        <time>2022-07-10T10:32:36Z</time>
      </trkpt>
      <trkpt lat="49.84548" lon="2.6076">
        <ele>84.5</ele>
        <time>2022-07-10T10:32:37Z</time>
      </trkpt>
      <trkpt lat="49.84547" lon="2.60759">
        <ele>84.5</ele>
        <time>2022-07-10T10:32:38Z</time>
      </trkpt>
      <trkpt lat="49.84546" lon="2.60758">
        <ele>84.5</ele>
        <time>2022-07-10T10:32:39Z</time>
      </trkpt>
      <trkpt lat="49.84544" lon="2.60757">
        <ele>84.5</ele>
        <time>2022-07-10T10:32:40Z</time>
      </trkpt>
      <trkpt lat="49.84543" lon="2.60757">
        <ele>84.5</ele>
        <time>2022-07-10T10:32:41Z</time>
      </trkpt>
      <trkpt lat="49.84541" lon="2.60756">
        <ele>84.4</ele>
        <time>2022-07-10T10:32:43Z</time>
      </trkpt>
      <trkpt lat="49.8454" lon="2.60755">
        <ele>84.4</ele>
        <time>2022-07-10T10:32:44Z</time>
      </trkpt>
      <trkpt lat="49.84539" lon="2.60755">
        <ele>84.4</ele>
        <time>2022-07-10T10:32:45Z</time>
      </trkpt>
      <trkpt lat="49.84537" lon="2.60754">
        <ele>84.4</ele>
        <time>2022-07-10T10:32:46Z</time>
      </trkpt>
      <trkpt lat="49.84536" lon="2.60754">
        <ele>84.4</ele>
        <time>2022-07-10T10:32:47Z</time>
      </trkpt>
      <trkpt lat="49.84535" lon="2.60754">
        <ele>84.4</ele>
        <time>2022-07-10T10:32:48Z</time>
      </trkpt>
      <trkpt lat="49.84533" lon="2.60753">
        <ele>84.4</ele>
        <time>2022-07-10T10:32:49Z</time>
      </trkpt>
      <trkpt lat="49.84532" lon="2.60753">
        <ele>84.3</ele>
        <time>2022-07-10T10:32:50Z</time>
      </trkpt>
      <trkpt lat="49.84531" lon="2.60752">
        <ele>84.3</ele>
        <time>2022-07-10T10:32:51Z</time>
      </trkpt>
      <trkpt lat="49.84529" lon="2.60751">
        <ele>84.3</ele>
        <time>2022-07-10T10:32:52Z</time>
      </trkpt>
      <trkpt lat="49.84528" lon="2.6075">
        <ele>84.3</ele>
        <time>2022-07-10T10:32:53Z</time>
      </trkpt>
      <trkpt lat="49.84527" lon="2.60749">
        <ele>84.3</ele>
        <time>2022-07-10T10:32:54Z</time>
      </trkpt>
      <trkpt lat="49.84524" lon="2.60746">
        <ele>84.2</ele>
        <time>2022-07-10T10:32:55Z</time>
      </trkpt>
      <trkpt lat="49.84524" lon="2.60745">
        <ele>84.2</ele>
        <time>2022-07-10T10:32:56Z</time>
      </trkpt>
      <trkpt lat="49.84523" lon="2.60744">
        <ele>84.2</ele>
        <time>2022-07-10T10:32:58Z</time>
      </trkpt>
      <trkpt lat="49.84522" lon="2.60743">
        <ele>84.2</ele>
        <time>2022-07-10T10:32:59Z</time>
      </trkpt>
      <trkpt lat="49.84522" lon="2.60739">
        <ele>84.1</ele>
        <time>2022-07-10T10:33:00Z</time>
      </trkpt>
      <trkpt lat="49.84522" lon="2.60738">
        <ele>84.1</ele>
        <time>2022-07-10T10:33:01Z</time>
      </trkpt>
      <trkpt lat="49.8452" lon="2.60736">
        <ele>84</ele>
        <time>2022-07-10T10:33:03Z</time>
      </trkpt>
      <trkpt lat="49.84519" lon="2.60735">
        <ele>84</ele>
        <time>2022-07-10T10:33:04Z</time>
      </trkpt>
      <trkpt lat="49.84519" lon="2.60734">
        <ele>84</ele>
        <time>2022-07-10T10:33:05Z</time>
      </trkpt>
      <trkpt lat="49.84518" lon="2.60733">
        <ele>84</ele>
        <time>2022-07-10T10:33:06Z</time>
      </trkpt>
      <trkpt lat="49.84516" lon="2.60731">
        <ele>83.9</ele>
        <time>2022-07-10T10:33:07Z</time>
      </trkpt>
      <trkpt lat="49.84515" lon="2.60729">
        <ele>83.9</ele>
        <time>2022-07-10T10:33:08Z</time>
      </trkpt>
      <trkpt lat="49.84514" lon="2.60728">
        <ele>83.9</ele>
        <time>2022-07-10T10:33:10Z</time>
      </trkpt>
      <trkpt lat="49.84513" lon="2.60727">
        <ele>83.9</ele>
        <time>2022-07-10T10:33:11Z</time>
      </trkpt>
      <trkpt lat="49.84512" lon="2.60725">
        <ele>83.8</ele>
        <time>2022-07-10T10:33:12Z</time>
      </trkpt>
      <trkpt lat="49.84511" lon="2.60724">
        <ele>83.8</ele>
        <time>2022-07-10T10:33:13Z</time>
      </trkpt>
      <trkpt lat="49.8451" lon="2.60723">
        <ele>83.8</ele>
        <time>2022-07-10T10:33:14Z</time>
      </trkpt>
      <trkpt lat="49.84509" lon="2.60722">
        <ele>83.8</ele>
        <time>2022-07-10T10:33:15Z</time>
      </trkpt>
      <trkpt lat="49.84508" lon="2.60721">
        <ele>83.7</ele>
        <time>2022-07-10T10:33:16Z</time>
      </trkpt>
      <trkpt lat="49.84507" lon="2.6072">
        <ele>83.7</ele>
        <time>2022-07-10T10:33:17Z</time>
      </trkpt>
      <trkpt lat="49.84507" lon="2.60719">
        <ele>83.7</ele>
        <time>2022-07-10T10:33:18Z</time>
      </trkpt>
      <trkpt lat="49.84506" lon="2.60718">
        <ele>83.7</ele>
        <time>2022-07-10T10:33:19Z</time>
      </trkpt>
      <trkpt lat="49.84505" lon="2.60717">
        <ele>83.6</ele>
        <time>2022-07-10T10:33:20Z</time>
      </trkpt>
      <trkpt lat="49.84502" lon="2.60716">
        <ele>83.6</ele>
        <time>2022-07-10T10:33:21Z</time>
      </trkpt>
      <trkpt lat="49.84501" lon="2.60716">
        <ele>83.5</ele>
        <time>2022-07-10T10:33:23Z</time>
      </trkpt>
      <trkpt lat="49.845" lon="2.60715">
        <ele>83.5</ele>
        <time>2022-07-10T10:33:24Z</time>
      </trkpt>
      <trkpt lat="49.84499" lon="2.60715">
        <ele>83.5</ele>
        <time>2022-07-10T10:33:25Z</time>
      </trkpt>
      <trkpt lat="49.84498" lon="2.60714">
        <ele>83.5</ele>
        <time>2022-07-10T10:33:26Z</time>
      </trkpt>
      <trkpt lat="49.84496" lon="2.60713">
        <ele>83.4</ele>
        <time>2022-07-10T10:33:27Z</time>
      </trkpt>
      <trkpt lat="49.84495" lon="2.60713">
        <ele>83.4</ele>
        <time>2022-07-10T10:33:28Z</time>
      </trkpt>
      <trkpt lat="49.84494" lon="2.60712">
        <ele>83.4</ele>
        <time>2022-07-10T10:33:29Z</time>
      </trkpt>
      <trkpt lat="49.84492" lon="2.6071">
        <ele>83.4</ele>
        <time>2022-07-10T10:33:30Z</time>
      </trkpt>
      <trkpt lat="49.84492" lon="2.6071">
        <ele>83.3</ele>
        <time>2022-07-10T10:33:31Z</time>
      </trkpt>
      <trkpt lat="49.84491" lon="2.60709">
        <ele>83.3</ele>
        <time>2022-07-10T10:33:32Z</time>
      </trkpt>
      <trkpt lat="49.8449" lon="2.60706">
        <ele>83.3</ele>
        <time>2022-07-10T10:33:33Z</time>
      </trkpt>
      <trkpt lat="49.84489" lon="2.60704">
        <ele>83.3</ele>
        <time>2022-07-10T10:33:34Z</time>
      </trkpt>
      <trkpt lat="49.84488" lon="2.60703">
        <ele>83.2</ele>
        <time>2022-07-10T10:33:36Z</time>
      </trkpt>
      <trkpt lat="49.84487" lon="2.60702">
        <ele>83.2</ele>
        <time>2022-07-10T10:33:37Z</time>
      </trkpt>
      <trkpt lat="49.84486" lon="2.60701">
        <ele>83.2</ele>
        <time>2022-07-10T10:33:38Z</time>
      </trkpt>
      <trkpt lat="49.84485" lon="2.607">
        <ele>83.2</ele>
        <time>2022-07-10T10:33:39Z</time>
      </trkpt>
      <trkpt lat="49.84484" lon="2.607">
        <ele>83.1</ele>
        <time>2022-07-10T10:33:40Z</time>
      </trkpt>
      <trkpt lat="49.84483" lon="2.60699">
        <ele>83.1</ele>
        <time>2022-07-10T10:33:41Z</time>
      </trkpt>
      <trkpt lat="49.84482" lon="2.60698">
        <ele>83.1</ele>
        <time>2022-07-10T10:33:42Z</time>
      </trkpt>
      <trkpt lat="49.8448" lon="2.60697">
        <ele>83</ele>
        <time>2022-07-10T10:33:43Z</time>
      </trkpt>
      <trkpt lat="49.8448" lon="2.60696">
        <ele>83</ele>
        <time>2022-07-10T10:33:44Z</time>
      </trkpt>
      <trkpt lat="49.84479" lon="2.60695">
        <ele>83</ele>
        <time>2022-07-10T10:33:45Z</time>
      </trkpt>
      <trkpt lat="49.84478" lon="2.60695">
        <ele>83</ele>
        <time>2022-07-10T10:33:46Z</time>
      </trkpt>
      <trkpt lat="49.84476" lon="2.60695">
        <ele>83</ele>
        <time>2022-07-10T10:33:48Z</time>
      </trkpt>
      <trkpt lat="49.84475" lon="2.60694">
        <ele>82.9</ele>
        <time>2022-07-10T10:33:49Z</time>
      </trkpt>
      <trkpt lat="49.84474" lon="2.60694">
        <ele>82.9</ele>
        <time>2022-07-10T10:33:50Z</time>
      </trkpt>
      <trkpt lat="49.84473" lon="2.60694">
        <ele>82.9</ele>
        <time>2022-07-10T10:33:51Z</time>
      </trkpt>
      <trkpt lat="49.84472" lon="2.60693">
        <ele>82.9</ele>
        <time>2022-07-10T10:33:52Z</time>
      </trkpt>
      <trkpt lat="49.84471" lon="2.60693">
        <ele>82.8</ele>
        <time>2022-07-10T10:33:53Z</time>
      </trkpt>
      <trkpt lat="49.84468" lon="2.60692">
        <ele>82.8</ele>
        <time>2022-07-10T10:33:54Z</time>
      </trkpt>
      <trkpt lat="49.84468" lon="2.60692">
        <ele>82.8</ele>
        <time>2022-07-10T10:33:55Z</time>
      </trkpt>
      <trkpt lat="49.84467" lon="2.60691">
        <ele>82.8</ele>
        <time>2022-07-10T10:33:56Z</time>
      </trkpt>
      <trkpt lat="49.84464" lon="2.6069">
        <ele>82.7</ele>
        <time>2022-07-10T10:33:57Z</time>
      </trkpt>
      <trkpt lat="49.84463" lon="2.60689">
        <ele>82.7</ele>
        <time>2022-07-10T10:33:59Z</time>
      </trkpt>
      <trkpt lat="49.84462" lon="2.60689">
        <ele>82.7</ele>
        <time>2022-07-10T10:34:00Z</time>
      </trkpt>
      <trkpt lat="49.84461" lon="2.60688">
        <ele>82.7</ele>
        <time>2022-07-10T10:34:01Z</time>
      </trkpt>
      <trkpt lat="49.8446" lon="2.60688">
        <ele>82.6</ele>
        <time>2022-07-10T10:34:02Z</time>
      </trkpt>
      <trkpt lat="49.84459" lon="2.60687">
        <ele>82.6</ele>
        <time>2022-07-10T10:34:03Z</time>
      </trkpt>
      <trkpt lat="49.84458" lon="2.60686">
        <ele>82.6</ele>
        <time>2022-07-10T10:34:04Z</time>
      </trkpt>
      <trkpt lat="49.84457" lon="2.60685">
        <ele>82.6</ele>
        <time>2022-07-10T10:34:05Z</time>
      </trkpt>
      <trkpt lat="49.84455" lon="2.60684">
        <ele>82.5</ele>
        <time>2022-07-10T10:34:06Z</time>
      </trkpt>
      <trkpt lat="49.84453" lon="2.60682">
        <ele>82.5</ele>
        <time>2022-07-10T10:34:07Z</time>
      </trkpt>
      <trkpt lat="49.84452" lon="2.60681">
        <ele>82.5</ele>
        <time>2022-07-10T10:34:08Z</time>
      </trkpt>
      <trkpt lat="49.8445" lon="2.6068">
        <ele>82.4</ele>
        <time>2022-07-10T10:34:09Z</time>
      </trkpt>
      <trkpt lat="49.8445" lon="2.60679">
        <ele>82.4</ele>
        <time>2022-07-10T10:34:10Z</time>
      </trkpt>
      <trkpt lat="49.84449" lon="2.60678">
        <ele>82.4</ele>
        <time>2022-07-10T10:34:11Z</time>
      </trkpt>
      <trkpt lat="49.84448" lon="2.60677">
        <ele>82.3</ele>
        <time>2022-07-10T10:34:13Z</time>
      </trkpt>
      <trkpt lat="49.84447" lon="2.60676">
        <ele>82.3</ele>
        <time>2022-07-10T10:34:14Z</time>
      </trkpt>
      <trkpt lat="49.84446" lon="2.60675">
        <ele>82.3</ele>
        <time>2022-07-10T10:34:15Z</time>
      </trkpt>
      <trkpt lat="49.84445" lon="2.60674">
        <ele>82.3</ele>
        <time>2022-07-10T10:34:16Z</time>
      </trkpt>
      <trkpt lat="49.84444" lon="2.60673">
        <ele>82.2</ele>
        <time>2022-07-10T10:34:17Z</time>
      </trkpt>
      <trkpt lat="49.84443" lon="2.60672">
        <ele>82.2</ele>
        <time>2022-07-10T10:34:18Z</time>
      </trkpt>
      <trkpt lat="49.84441" lon="2.6067">
        <ele>82.2</ele>
        <time>2022-07-10T10:34:19Z</time>
      </trkpt>
      <trkpt lat="49.8444" lon="2.60669">
        <ele>82.2</ele>
        <time>2022-07-10T10:34:20Z</time>
      </trkpt>
      <trkpt lat="49.8444" lon="2.60668">
        <ele>82.1</ele>
        <time>2022-07-10T10:34:21Z</time>
      </trkpt>
      <trkpt lat="49.84439" lon="2.60667">
        <ele>82.1</ele>
        <time>2022-07-10T10:34:22Z</time>
      </trkpt>
      <trkpt lat="49.84438" lon="2.60666">
        <ele>82.1</ele>
        <time>2022-07-10T10:34:24Z</time>
      </trkpt>
      <trkpt lat="49.84437" lon="2.60665">
        <ele>82.1</ele>
        <time>2022-07-10T10:34:25Z</time>
      </trkpt>
      <trkpt lat="49.84436" lon="2.60664">
        <ele>82</ele>
        <time>2022-07-10T10:34:26Z</time>
      </trkpt>
      <trkpt lat="49.84435" lon="2.60663">
        <ele>82</ele>
        <time>2022-07-10T10:34:28Z</time>
      </trkpt>
      <trkpt lat="49.84434" lon="2.60662">
        <ele>82</ele>
        <time>2022-07-10T10:34:29Z</time>
      </trkpt>
      <trkpt lat="49.84434" lon="2.6066">
        <ele>82</ele>
        <time>2022-07-10T10:34:30Z</time>
      </trkpt>
      <trkpt lat="49.84433" lon="2.60659">
        <ele>82</ele>
        <time>2022-07-10T10:34:31Z</time>
      </trkpt>
      <trkpt lat="49.84432" lon="2.60658">
        <ele>81.9</ele>
        <time>2022-07-10T10:34:32Z</time>
      </trkpt>
      <trkpt lat="49.84431" lon="2.60657">
        <ele>81.9</ele>
        <time>2022-07-10T10:34:33Z</time>
      </trkpt>
      <trkpt lat="49.8443" lon="2.60656">
        <ele>81.9</ele>
        <time>2022-07-10T10:34:35Z</time>
      </trkpt>
      <trkpt lat="49.84429" lon="2.60656">
        <ele>81.9</ele>
        <time>2022-07-10T10:34:36Z</time>
      </trkpt>
      <trkpt lat="49.84428" lon="2.60655">
        <ele>81.9</ele>
        <time>2022-07-10T10:34:37Z</time>
      </trkpt>
      <trkpt lat="49.84427" lon="2.60655">
        <ele>81.9</ele>
        <time>2022-07-10T10:34:38Z</time>
      </trkpt>
      <trkpt lat="49.84426" lon="2.60654">
        <ele>81.8</ele>
        <time>2022-07-10T10:34:39Z</time>
      </trkpt>
      <trkpt lat="49.84425" lon="2.60654">
        <ele>81.8</ele>
        <time>2022-07-10T10:34:40Z</time>
      </trkpt>
      <trkpt lat="49.84424" lon="2.60653">
        <ele>81.8</ele>
        <time>2022-07-10T10:34:41Z</time>
      </trkpt>
      <trkpt lat="49.84423" lon="2.60652">
        <ele>81.8</ele>
        <time>2022-07-10T10:34:42Z</time>
      </trkpt>
      <trkpt lat="49.84422" lon="2.60651">
        <ele>81.8</ele>
        <time>2022-07-10T10:34:43Z</time>
      </trkpt>
      <trkpt lat="49.84421" lon="2.6065">
        <ele>81.8</ele>
        <time>2022-07-10T10:34:44Z</time>
      </trkpt>
      <trkpt lat="49.8442" lon="2.60649">
        <ele>81.8</ele>
        <time>2022-07-10T10:34:45Z</time>
      </trkpt>
      <trkpt lat="49.84419" lon="2.60648">
        <ele>81.7</ele>
        <time>2022-07-10T10:34:46Z</time>
      </trkpt>
      <trkpt lat="49.84418" lon="2.60647">
        <ele>81.7</ele>
        <time>2022-07-10T10:34:48Z</time>
      </trkpt>
      <trkpt lat="49.84417" lon="2.60646">
        <ele>81.7</ele>
        <time>2022-07-10T10:34:49Z</time>
      </trkpt>
      <trkpt lat="49.84416" lon="2.60645">
        <ele>81.7</ele>
        <time>2022-07-10T10:34:50Z</time>
      </trkpt>
      <trkpt lat="49.84415" lon="2.60644">
        <ele>81.7</ele>
        <time>2022-07-10T10:34:51Z</time>
      </trkpt>
      <trkpt lat="49.84414" lon="2.60644">
        <ele>81.7</ele>
        <time>2022-07-10T10:34:52Z</time>
      </trkpt>
      <trkpt lat="49.84413" lon="2.60643">
        <ele>81.7</ele>
        <time>2022-07-10T10:34:53Z</time>
      </trkpt>
      <trkpt lat="49.84412" lon="2.60643">
        <ele>81.7</ele>
        <time>2022-07-10T10:34:54Z</time>
      </trkpt>
      <trkpt lat="49.8441" lon="2.60642">
        <ele>81.7</ele>
        <time>2022-07-10T10:34:55Z</time>
      </trkpt>
      <trkpt lat="49.84408" lon="2.60641">
        <ele>81.7</ele>
        <time>2022-07-10T10:34:56Z</time>
      </trkpt>
      <trkpt lat="49.84406" lon="2.6064">
        <ele>81.6</ele>
        <time>2022-07-10T10:34:57Z</time>
      </trkpt>
      <trkpt lat="49.84405" lon="2.60639">
        <ele>81.6</ele>
        <time>2022-07-10T10:34:59Z</time>
      </trkpt>
      <trkpt lat="49.84404" lon="2.60638">
        <ele>81.6</ele>
        <time>2022-07-10T10:35:00Z</time>
      </trkpt>
      <trkpt lat="49.84403" lon="2.60638">
        <ele>81.6</ele>
        <time>2022-07-10T10:35:01Z</time>
      </trkpt>
      <trkpt lat="49.84402" lon="2.60637">
        <ele>81.6</ele>
        <time>2022-07-10T10:35:02Z</time>
      </trkpt>
      <trkpt lat="49.84401" lon="2.60636">
        <ele>81.6</ele>
        <time>2022-07-10T10:35:03Z</time>
      </trkpt>
      <trkpt lat="49.84399" lon="2.60635">
        <ele>81.6</ele>
        <time>2022-07-10T10:35:04Z</time>
      </trkpt>
      <trkpt lat="49.84398" lon="2.60634">
        <ele>81.6</ele>
        <time>2022-07-10T10:35:05Z</time>
      </trkpt>
      <trkpt lat="49.84397" lon="2.60633">
        <ele>81.5</ele>
        <time>2022-07-10T10:35:06Z</time>
      </trkpt>
      <trkpt lat="49.84395" lon="2.60631">
        <ele>81.5</ele>
        <time>2022-07-10T10:35:07Z</time>
      </trkpt>
      <trkpt lat="49.84394" lon="2.6063">
        <ele>81.5</ele>
        <time>2022-07-10T10:35:08Z</time>
      </trkpt>
      <trkpt lat="49.84394" lon="2.60629">
        <ele>81.5</ele>
        <time>2022-07-10T10:35:09Z</time>
      </trkpt>
      <trkpt lat="49.84393" lon="2.60629">
        <ele>81.5</ele>
        <time>2022-07-10T10:35:10Z</time>
      </trkpt>
      <trkpt lat="49.84392" lon="2.60628">
        <ele>81.5</ele>
        <time>2022-07-10T10:35:12Z</time>
      </trkpt>
      <trkpt lat="49.84391" lon="2.60627">
        <ele>81.5</ele>
        <time>2022-07-10T10:35:13Z</time>
      </trkpt>
      <trkpt lat="49.8439" lon="2.60626">
        <ele>81.5</ele>
        <time>2022-07-10T10:35:14Z</time>
      </trkpt>
      <trkpt lat="49.84389" lon="2.60625">
        <ele>81.5</ele>
        <time>2022-07-10T10:35:15Z</time>
      </trkpt>
      <trkpt lat="49.84388" lon="2.60624">
        <ele>81.4</ele>
        <time>2022-07-10T10:35:16Z</time>
      </trkpt>
      <trkpt lat="49.84387" lon="2.60623">
        <ele>81.4</ele>
        <time>2022-07-10T10:35:17Z</time>
      </trkpt>
      <trkpt lat="49.84386" lon="2.60623">
        <ele>81.4</ele>
        <time>2022-07-10T10:35:18Z</time>
      </trkpt>
      <trkpt lat="49.84385" lon="2.60622">
        <ele>81.4</ele>
        <time>2022-07-10T10:35:19Z</time>
      </trkpt>
      <trkpt lat="49.84384" lon="2.60621">
        <ele>81.4</ele>
        <time>2022-07-10T10:35:20Z</time>
      </trkpt>
      <trkpt lat="49.84383" lon="2.60621">
        <ele>81.4</ele>
        <time>2022-07-10T10:35:21Z</time>
      </trkpt>
      <trkpt lat="49.84382" lon="2.6062">
        <ele>81.4</ele>
        <time>2022-07-10T10:35:23Z</time>
      </trkpt>
      <trkpt lat="49.84381" lon="2.60619">
        <ele>81.4</ele>
        <time>2022-07-10T10:35:24Z</time>
      </trkpt>
      <trkpt lat="49.8438" lon="2.60618">
        <ele>81.4</ele>
        <time>2022-07-10T10:35:25Z</time>
      </trkpt>
      <trkpt lat="49.84379" lon="2.60617">
        <ele>81.3</ele>
        <time>2022-07-10T10:35:26Z</time>
      </trkpt>
      <trkpt lat="49.84378" lon="2.60617">
        <ele>81.3</ele>
        <time>2022-07-10T10:35:27Z</time>
      </trkpt>
      <trkpt lat="49.84377" lon="2.60617">
        <ele>81.3</ele>
        <time>2022-07-10T10:35:28Z</time>
      </trkpt>
      <trkpt lat="49.84375" lon="2.60617">
        <ele>81.3</ele>
        <time>2022-07-10T10:35:30Z</time>
      </trkpt>
      <trkpt lat="49.84374" lon="2.60616">
        <ele>81.3</ele>
        <time>2022-07-10T10:35:31Z</time>
      </trkpt>
      <trkpt lat="49.84372" lon="2.60615">
        <ele>81.3</ele>
        <time>2022-07-10T10:35:32Z</time>
      </trkpt>
      <trkpt lat="49.84369" lon="2.60614">
        <ele>81.3</ele>
        <time>2022-07-10T10:35:34Z</time>
      </trkpt>
      <trkpt lat="49.84369" lon="2.60614">
        <ele>81.3</ele>
        <time>2022-07-10T10:35:35Z</time>
      </trkpt>
      <trkpt lat="49.84368" lon="2.60613">
        <ele>81.3</ele>
        <time>2022-07-10T10:35:36Z</time>
      </trkpt>
      <trkpt lat="49.84366" lon="2.60612">
        <ele>81.2</ele>
        <time>2022-07-10T10:35:37Z</time>
      </trkpt>
      <trkpt lat="49.84365" lon="2.60611">
        <ele>81.2</ele>
        <time>2022-07-10T10:35:38Z</time>
      </trkpt>
      <trkpt lat="49.84364" lon="2.60609">
        <ele>81.2</ele>
        <time>2022-07-10T10:35:40Z</time>
      </trkpt>
      <trkpt lat="49.84364" lon="2.60608">
        <ele>81.2</ele>
        <time>2022-07-10T10:35:41Z</time>
      </trkpt>
      <trkpt lat="49.84364" lon="2.60607">
        <ele>81.2</ele>
        <time>2022-07-10T10:35:42Z</time>
      </trkpt>
      <trkpt lat="49.84363" lon="2.60606">
        <ele>81.2</ele>
        <time>2022-07-10T10:35:43Z</time>
      </trkpt>
      <trkpt lat="49.84363" lon="2.60605">
        <ele>81.2</ele>
        <time>2022-07-10T10:35:44Z</time>
      </trkpt>
      <trkpt lat="49.84364" lon="2.60604">
        <ele>81.2</ele>
        <time>2022-07-10T10:35:45Z</time>
      </trkpt>
      <trkpt lat="49.84364" lon="2.60603">
        <ele>81.2</ele>
        <time>2022-07-10T10:35:46Z</time>
      </trkpt>
      <trkpt lat="49.84364" lon="2.60602">
        <ele>81.2</ele>
        <time>2022-07-10T10:35:47Z</time>
      </trkpt>
      <trkpt lat="49.84364" lon="2.60602">
        <ele>81.2</ele>
        <time>2022-07-10T10:35:48Z</time>
      </trkpt>
      <trkpt lat="49.84364" lon="2.60602">
        <ele>81.2</ele>
        <time>2022-07-10T10:35:49Z</time>
      </trkpt>
      <trkpt lat="49.84364" lon="2.60602">
        <ele>81.2</ele>
        <time>2022-07-10T10:35:50Z</time>
      </trkpt>
      <trkpt lat="49.84364" lon="2.60602">
        <ele>81.2</ele>
        <time>2022-07-10T10:35:51Z</time>
      </trkpt>
      <trkpt lat="49.84364" lon="2.60602">
        <ele>81.2</ele>
        <time>2022-07-10T10:35:52Z</time>
      </trkpt>
      <trkpt lat="49.84364" lon="2.60603">
        <ele>81.2</ele>
        <time>2022-07-10T10:35:53Z</time>
      </trkpt>
      <trkpt lat="49.84364" lon="2.60604">
        <ele>81.2</ele>
        <time>2022-07-10T10:35:54Z</time>
      </trkpt>
      <trkpt lat="49.84365" lon="2.60604">
        <ele>81.2</ele>
        <time>2022-07-10T10:35:55Z</time>
      </trkpt>
      <trkpt lat="49.84365" lon="2.60604">
        <ele>81.2</ele>
        <time>2022-07-10T10:35:56Z</time>
      </trkpt>
      <trkpt lat="49.84365" lon="2.60604">
        <ele>81.2</ele>
        <time>2022-07-10T10:35:57Z</time>
      </trkpt>
      <trkpt lat="49.84365" lon="2.60604">
        <ele>81.2</ele>
        <time>2022-07-10T10:35:58Z</time>
      </trkpt>
      <trkpt lat="49.84364" lon="2.60605">
        <ele>81.2</ele>
        <time>2022-07-10T10:35:59Z</time>
      </trkpt>
      <trkpt lat="49.84363" lon="2.60606">
        <ele>81.2</ele>
        <time>2022-07-10T10:36:00Z</time>
      </trkpt>
      <trkpt lat="49.84363" lon="2.60606">
        <ele>81.1</ele>
        <time>2022-07-10T10:36:01Z</time>
      </trkpt>
      <trkpt lat="49.84363" lon="2.60606">
        <ele>81.1</ele>
        <time>2022-07-10T10:36:02Z</time>
      </trkpt>
      <trkpt lat="49.84363" lon="2.60606">
        <ele>81.1</ele>
        <time>2022-07-10T10:36:03Z</time>
      </trkpt>
      <trkpt lat="49.84363" lon="2.60606">
        <ele>81.1</ele>
        <time>2022-07-10T10:36:04Z</time>
      </trkpt>
      <trkpt lat="49.84363" lon="2.60606">
        <ele>81.1</ele>
        <time>2022-07-10T10:36:05Z</time>
      </trkpt>
      <trkpt lat="49.84363" lon="2.60606">
        <ele>81.1</ele>
        <time>2022-07-10T10:36:06Z</time>
      </trkpt>
      <trkpt lat="49.84363" lon="2.60606">
        <ele>81.1</ele>
        <time>2022-07-10T10:36:07Z</time>
      </trkpt>
      <trkpt lat="49.84363" lon="2.60607">
        <ele>81.1</ele>
        <time>2022-07-10T10:36:08Z</time>
      </trkpt>
      <trkpt lat="49.84363" lon="2.60607">
        <ele>81.1</ele>
        <time>2022-07-10T10:36:09Z</time>
      </trkpt>
      <trkpt lat="49.84363" lon="2.60607">
        <ele>81.1</ele>
        <time>2022-07-10T10:36:10Z</time>
      </trkpt>
      <trkpt lat="49.84363" lon="2.60607">
        <ele>81.1</ele>
        <time>2022-07-10T10:36:11Z</time>
      </trkpt>
      <trkpt lat="49.84363" lon="2.60607">
        <ele>81.1</ele>
        <time>2022-07-10T10:36:12Z</time>
      </trkpt>
      <trkpt lat="49.84363" lon="2.60607">
        <ele>81.1</ele>
        <time>2022-07-10T10:36:13Z</time>
      </trkpt>
      <trkpt lat="49.84363" lon="2.60607">
        <ele>81.1</ele>
        <time>2022-07-10T10:36:14Z</time>
      </trkpt>
      <trkpt lat="49.84363" lon="2.60607">
        <ele>81.1</ele>
        <time>2022-07-10T10:36:15Z</time>
      </trkpt>
      <trkpt lat="49.84363" lon="2.60607">
        <ele>81.1</ele>
        <time>2022-07-10T10:36:16Z</time>
      </trkpt>
      <trkpt lat="49.84363" lon="2.60607">
        <ele>81.1</ele>
        <time>2022-07-10T10:36:17Z</time>
      </trkpt>
      <trkpt lat="49.84363" lon="2.60607">
        <ele>81.1</ele>
        <time>2022-07-10T10:36:18Z</time>
      </trkpt>
      <trkpt lat="49.84363" lon="2.60607">
        <ele>81.1</ele>
        <time>2022-07-10T10:36:19Z</time>
      </trkpt>
      <trkpt lat="49.84363" lon="2.60607">
        <ele>81.1</ele>
        <time>2022-07-10T10:36:20Z</time>
      </trkpt>
      <trkpt lat="49.84363" lon="2.60607">
        <ele>81.1</ele>
        <time>2022-07-10T10:36:21Z</time>
      </trkpt>
      <trkpt lat="49.84363" lon="2.60607">
        <ele>81.1</ele>
        <time>2022-07-10T10:36:22Z</time>
      </trkpt>
      <trkpt lat="49.84363" lon="2.60607">
        <ele>81.1</ele>
        <time>2022-07-10T10:36:23Z</time>
      </trkpt>
      <trkpt lat="49.84363" lon="2.60607">
        <ele>81.1</ele>
        <time>2022-07-10T10:36:24Z</time>
      </trkpt>
      <trkpt lat="49.84363" lon="2.60607">
        <ele>81.1</ele>
        <time>2022-07-10T10:36:25Z</time>
      </trkpt>
      <trkpt lat="49.84363" lon="2.60607">
        <ele>81.1</ele>
        <time>2022-07-10T10:36:26Z</time>
      </trkpt>
      <trkpt lat="49.84363" lon="2.60607">
        <ele>81.1</ele>
        <time>2022-07-10T10:36:27Z</time>
      </trkpt>
      <trkpt lat="49.84363" lon="2.60607">
        <ele>81.1</ele>
        <time>2022-07-10T10:36:28Z</time>
      </trkpt>
      <trkpt lat="49.84363" lon="2.60607">
        <ele>81.1</ele>
        <time>2022-07-10T10:36:29Z</time>
      </trkpt>
      <trkpt lat="49.84363" lon="2.60607">
        <ele>81.1</ele>
        <time>2022-07-10T10:36:30Z</time>
      </trkpt>
      <trkpt lat="49.84363" lon="2.60607">
        <ele>81.1</ele>
        <time>2022-07-10T10:36:31Z</time>
      </trkpt>
      <trkpt lat="49.84363" lon="2.60607">
        <ele>81.1</ele>
        <time>2022-07-10T10:36:32Z</time>
      </trkpt>
      <trkpt lat="49.84363" lon="2.60607">
        <ele>81.1</ele>
        <time>2022-07-10T10:36:33Z</time>
      </trkpt>
      <trkpt lat="49.84363" lon="2.60607">
        <ele>81.1</ele>
        <time>2022-07-10T10:36:34Z</time>
      </trkpt>
      <trkpt lat="49.84363" lon="2.60607">
        <ele>81.1</ele>
        <time>2022-07-10T10:36:35Z</time>
      </trkpt>
      <trkpt lat="49.84363" lon="2.60607">
        <ele>81.1</ele>
        <time>2022-07-10T10:36:36Z</time>
      </trkpt>
      <trkpt lat="49.84363" lon="2.60607">
        <ele>81.1</ele>
        <time>2022-07-10T10:36:37Z</time>
      </trkpt>
      <trkpt lat="49.84363" lon="2.60607">
        <ele>81.1</ele>
        <time>2022-07-10T10:36:38Z</time>
      </trkpt>
      <trkpt lat="49.84363" lon="2.60607">
        <ele>81.1</ele>
        <time>2022-07-10T10:36:39Z</time>
      </trkpt>
      <trkpt lat="49.84363" lon="2.60607">
        <ele>81.1</ele>
        <time>2022-07-10T10:36:40Z</time>
      </trkpt>
      <trkpt lat="49.84363" lon="2.60607">
        <ele>81.1</ele>
        <time>2022-07-10T10:36:41Z</time>
      </trkpt>
      <trkpt lat="49.84363" lon="2.60607">
        <ele>81.1</ele>
        <time>2022-07-10T10:36:42Z</time>
      </trkpt>
      <trkpt lat="49.84363" lon="2.60607">
        <ele>81.1</ele>
        <time>2022-07-10T10:36:43Z</time>
      </trkpt>
      <trkpt lat="49.84363" lon="2.60607">
        <ele>81.1</ele>
        <time>2022-07-10T10:36:44Z</time>
      </trkpt>
      <trkpt lat="49.84363" lon="2.60607">
        <ele>81.1</ele>
        <time>2022-07-10T10:36:45Z</time>
      </trkpt>
      <trkpt lat="49.84363" lon="2.60607">
        <ele>81.1</ele>
        <time>2022-07-10T10:36:46Z</time>
      </trkpt>
      <trkpt lat="49.84363" lon="2.60607">
        <ele>81.1</ele>
        <time>2022-07-10T10:36:47Z</time>
      </trkpt>
      <trkpt lat="49.84363" lon="2.60607">
        <ele>81.1</ele>
        <time>2022-07-10T10:36:48Z</time>
      </trkpt>
      <trkpt lat="49.84363" lon="2.60607">
        <ele>81.1</ele>
        <time>2022-07-10T10:36:49Z</time>
      </trkpt>
      <trkpt lat="49.84363" lon="2.60607">
        <ele>81.1</ele>
        <time>2022-07-10T10:36:50Z</time>
      </trkpt>
      <trkpt lat="49.84363" lon="2.60607">
        <ele>81.1</ele>
        <time>2022-07-10T10:36:51Z</time>
      </trkpt>
      <trkpt lat="49.84363" lon="2.60607">
        <ele>81.1</ele>
        <time>2022-07-10T10:36:52Z</time>
      </trkpt>
      <trkpt lat="49.84363" lon="2.60607">
        <ele>81.1</ele>
        <time>2022-07-10T10:36:53Z</time>
      </trkpt>
      <trkpt lat="49.84363" lon="2.60607">
        <ele>81.1</ele>
        <time>2022-07-10T10:36:54Z</time>
      </trkpt>
      <trkpt lat="49.84362" lon="2.60606">
        <ele>81.1</ele>
        <time>2022-07-10T10:36:55Z</time>
      </trkpt>
      <trkpt lat="49.84362" lon="2.60605">
        <ele>81.1</ele>
        <time>2022-07-10T10:36:56Z</time>
      </trkpt>
      <trkpt lat="49.84361" lon="2.60605">
        <ele>81.1</ele>
        <time>2022-07-10T10:36:57Z</time>
      </trkpt>
      <trkpt lat="49.84361" lon="2.60605">
        <ele>81.1</ele>
        <time>2022-07-10T10:36:58Z</time>
      </trkpt>
      <trkpt lat="49.84361" lon="2.60604">
        <ele>81.1</ele>
        <time>2022-07-10T10:36:59Z</time>
      </trkpt>
      <trkpt lat="49.8436" lon="2.60604">
        <ele>81.1</ele>
        <time>2022-07-10T10:37:00Z</time>
      </trkpt>
      <trkpt lat="49.84359" lon="2.60604">
        <ele>81.1</ele>
        <time>2022-07-10T10:37:01Z</time>
      </trkpt>
      <trkpt lat="49.84359" lon="2.60604">
        <ele>81.1</ele>
        <time>2022-07-10T10:37:02Z</time>
      </trkpt>
      <trkpt lat="49.84359" lon="2.60604">
        <ele>81.1</ele>
        <time>2022-07-10T10:37:03Z</time>
      </trkpt>
      <trkpt lat="49.84359" lon="2.60604">
        <ele>81.1</ele>
        <time>2022-07-10T10:37:04Z</time>
      </trkpt>
      <trkpt lat="49.84358" lon="2.60604">
        <ele>81.1</ele>
        <time>2022-07-10T10:37:05Z</time>
      </trkpt>
      <trkpt lat="49.84358" lon="2.60605">
        <ele>81.1</ele>
        <time>2022-07-10T10:37:06Z</time>
      </trkpt>
      <trkpt lat="49.84358" lon="2.60606">
        <ele>81.1</ele>
        <time>2022-07-10T10:37:07Z</time>
      </trkpt>
      <trkpt lat="49.84359" lon="2.60606">
        <ele>81.1</ele>
        <time>2022-07-10T10:37:08Z</time>
      </trkpt>
      <trkpt lat="49.84359" lon="2.60606">
        <ele>81.1</ele>
        <time>2022-07-10T10:37:09Z</time>
      </trkpt>
      <trkpt lat="49.84359" lon="2.60606">
        <ele>81.1</ele>
        <time>2022-07-10T10:37:10Z</time>
      </trkpt>
      <trkpt lat="49.84358" lon="2.60606">
        <ele>81.1</ele>
        <time>2022-07-10T10:37:11Z</time>
      </trkpt>
      <trkpt lat="49.84358" lon="2.60606">
        <ele>81.1</ele>
        <time>2022-07-10T10:37:12Z</time>
      </trkpt>
      <trkpt lat="49.84358" lon="2.60605">
        <ele>81.1</ele>
        <time>2022-07-10T10:37:13Z</time>
      </trkpt>
      <trkpt lat="49.84358" lon="2.60605">
        <ele>81.1</ele>
        <time>2022-07-10T10:37:14Z</time>
      </trkpt>
      <trkpt lat="49.84357" lon="2.60605">
        <ele>81.1</ele>
        <time>2022-07-10T10:37:15Z</time>
      </trkpt>
      <trkpt lat="49.84357" lon="2.60605">
        <ele>81.1</ele>
        <time>2022-07-10T10:37:16Z</time>
      </trkpt>
      <trkpt lat="49.84357" lon="2.60604">
        <ele>81.1</ele>
        <time>2022-07-10T10:37:17Z</time>
      </trkpt>
      <trkpt lat="49.84357" lon="2.60604">
        <ele>81.1</ele>
        <time>2022-07-10T10:37:18Z</time>
      </trkpt>
      <trkpt lat="49.84357" lon="2.60604">
        <ele>81.1</ele>
        <time>2022-07-10T10:37:19Z</time>
      </trkpt>
      <trkpt lat="49.84357" lon="2.60604">
        <ele>81.1</ele>
        <time>2022-07-10T10:37:20Z</time>
      </trkpt>
      <trkpt lat="49.84357" lon="2.60603">
        <ele>81.1</ele>
        <time>2022-07-10T10:37:21Z</time>
      </trkpt>
      <trkpt lat="49.84357" lon="2.60603">
        <ele>81.1</ele>
        <time>2022-07-10T10:37:22Z</time>
      </trkpt>
      <trkpt lat="49.84356" lon="2.60602">
        <ele>81.1</ele>
        <time>2022-07-10T10:37:23Z</time>
      </trkpt>
      <trkpt lat="49.84356" lon="2.60602">
        <ele>81.1</ele>
        <time>2022-07-10T10:37:24Z</time>
      </trkpt>
      <trkpt lat="49.84356" lon="2.60601">
        <ele>81.1</ele>
        <time>2022-07-10T10:37:25Z</time>
      </trkpt>
      <trkpt lat="49.84356" lon="2.60601">
        <ele>81.1</ele>
        <time>2022-07-10T10:37:26Z</time>
      </trkpt>
      <trkpt lat="49.84356" lon="2.60601">
        <ele>81.1</ele>
        <time>2022-07-10T10:37:27Z</time>
      </trkpt>
      <trkpt lat="49.84356" lon="2.60601">
        <ele>81.1</ele>
        <time>2022-07-10T10:37:28Z</time>
      </trkpt>
      <trkpt lat="49.84357" lon="2.60601">
        <ele>81.1</ele>
        <time>2022-07-10T10:37:29Z</time>
      </trkpt>
      <trkpt lat="49.84356" lon="2.60601">
        <ele>81.1</ele>
        <time>2022-07-10T10:37:30Z</time>
      </trkpt>
      <trkpt lat="49.84356" lon="2.606">
        <ele>81.1</ele>
        <time>2022-07-10T10:37:31Z</time>
      </trkpt>
      <trkpt lat="49.84356" lon="2.606">
        <ele>81.1</ele>
        <time>2022-07-10T10:37:32Z</time>
      </trkpt>
      <trkpt lat="49.84356" lon="2.606">
        <ele>81.1</ele>
        <time>2022-07-10T10:37:33Z</time>
      </trkpt>
      <trkpt lat="49.84356" lon="2.606">
        <ele>81.1</ele>
        <time>2022-07-10T10:37:34Z</time>
      </trkpt>
      <trkpt lat="49.84356" lon="2.606">
        <ele>81.1</ele>
        <time>2022-07-10T10:37:35Z</time>
      </trkpt>
      <trkpt lat="49.84356" lon="2.606">
        <ele>81.1</ele>
        <time>2022-07-10T10:37:36Z</time>
      </trkpt>
      <trkpt lat="49.84356" lon="2.606">
        <ele>81.1</ele>
        <time>2022-07-10T10:37:37Z</time>
      </trkpt>
      <trkpt lat="49.84356" lon="2.606">
        <ele>81.1</ele>
        <time>2022-07-10T10:37:38Z</time>
      </trkpt>
      <trkpt lat="49.84356" lon="2.606">
        <ele>81</ele>
        <time>2022-07-10T10:37:39Z</time>
      </trkpt>
      <trkpt lat="49.84354" lon="2.60599">
        <ele>81</ele>
        <time>2022-07-10T10:37:40Z</time>
      </trkpt>
      <trkpt lat="49.84353" lon="2.60599">
        <ele>81</ele>
        <time>2022-07-10T10:37:41Z</time>
      </trkpt>
      <trkpt lat="49.84353" lon="2.60599">
        <ele>81</ele>
        <time>2022-07-10T10:37:43Z</time>
      </trkpt>
      <trkpt lat="49.84352" lon="2.60598">
        <ele>81</ele>
        <time>2022-07-10T10:37:44Z</time>
      </trkpt>
      <trkpt lat="49.8435" lon="2.60596">
        <ele>81</ele>
        <time>2022-07-10T10:37:45Z</time>
      </trkpt>
      <trkpt lat="49.84349" lon="2.60595">
        <ele>81</ele>
        <time>2022-07-10T10:37:46Z</time>
      </trkpt>
      <trkpt lat="49.84349" lon="2.60595">
        <ele>81</ele>
        <time>2022-07-10T10:37:47Z</time>
      </trkpt>
      <trkpt lat="49.84347" lon="2.60593">
        <ele>81</ele>
        <time>2022-07-10T10:37:48Z</time>
      </trkpt>
      <trkpt lat="49.84347" lon="2.60592">
        <ele>81</ele>
        <time>2022-07-10T10:37:49Z</time>
      </trkpt>
      <trkpt lat="49.84346" lon="2.60591">
        <ele>81</ele>
        <time>2022-07-10T10:37:51Z</time>
      </trkpt>
      <trkpt lat="49.84346" lon="2.6059">
        <ele>81</ele>
        <time>2022-07-10T10:37:52Z</time>
      </trkpt>
      <trkpt lat="49.84345" lon="2.60589">
        <ele>80.9</ele>
        <time>2022-07-10T10:37:53Z</time>
      </trkpt>
      <trkpt lat="49.84345" lon="2.60588">
        <ele>80.9</ele>
        <time>2022-07-10T10:37:54Z</time>
      </trkpt>
      <trkpt lat="49.84344" lon="2.60588">
        <ele>80.9</ele>
        <time>2022-07-10T10:37:55Z</time>
      </trkpt>
      <trkpt lat="49.84344" lon="2.60587">
        <ele>80.9</ele>
        <time>2022-07-10T10:37:56Z</time>
      </trkpt>
      <trkpt lat="49.84343" lon="2.60585">
        <ele>80.9</ele>
        <time>2022-07-10T10:37:57Z</time>
      </trkpt>
      <trkpt lat="49.84342" lon="2.60584">
        <ele>80.9</ele>
        <time>2022-07-10T10:37:58Z</time>
      </trkpt>
      <trkpt lat="49.84339" lon="2.60582">
        <ele>80.9</ele>
        <time>2022-07-10T10:38:00Z</time>
      </trkpt>
      <trkpt lat="49.84338" lon="2.60582">
        <ele>80.9</ele>
        <time>2022-07-10T10:38:01Z</time>
      </trkpt>
      <trkpt lat="49.84337" lon="2.60581">
        <ele>80.9</ele>
        <time>2022-07-10T10:38:02Z</time>
      </trkpt>
      <trkpt lat="49.84335" lon="2.6058">
        <ele>80.9</ele>
        <time>2022-07-10T10:38:03Z</time>
      </trkpt>
      <trkpt lat="49.84332" lon="2.60579">
        <ele>80.8</ele>
        <time>2022-07-10T10:38:04Z</time>
      </trkpt>
      <trkpt lat="49.84331" lon="2.60578">
        <ele>80.8</ele>
        <time>2022-07-10T10:38:05Z</time>
      </trkpt>
      <trkpt lat="49.8433" lon="2.60578">
        <ele>80.8</ele>
        <time>2022-07-10T10:38:07Z</time>
      </trkpt>
      <trkpt lat="49.84329" lon="2.60577">
        <ele>80.8</ele>
        <time>2022-07-10T10:38:08Z</time>
      </trkpt>
      <trkpt lat="49.84327" lon="2.60576">
        <ele>80.8</ele>
        <time>2022-07-10T10:38:09Z</time>
      </trkpt>
      <trkpt lat="49.84326" lon="2.60575">
        <ele>80.8</ele>
        <time>2022-07-10T10:38:11Z</time>
      </trkpt>
      <trkpt lat="49.84324" lon="2.60575">
        <ele>80.8</ele>
        <time>2022-07-10T10:38:12Z</time>
      </trkpt>
      <trkpt lat="49.84324" lon="2.60574">
        <ele>80.8</ele>
        <time>2022-07-10T10:38:13Z</time>
      </trkpt>
      <trkpt lat="49.84323" lon="2.60574">
        <ele>80.8</ele>
        <time>2022-07-10T10:38:14Z</time>
      </trkpt>
      <trkpt lat="49.84322" lon="2.60573">
        <ele>80.8</ele>
        <time>2022-07-10T10:38:16Z</time>
      </trkpt>
      <trkpt lat="49.84321" lon="2.60572">
        <ele>80.8</ele>
        <time>2022-07-10T10:38:17Z</time>
      </trkpt>
      <trkpt lat="49.8432" lon="2.60571">
        <ele>80.8</ele>
        <time>2022-07-10T10:38:18Z</time>
      </trkpt>
      <trkpt lat="49.84319" lon="2.6057">
        <ele>80.8</ele>
        <time>2022-07-10T10:38:19Z</time>
      </trkpt>
      <trkpt lat="49.84318" lon="2.60568">
        <ele>80.8</ele>
        <time>2022-07-10T10:38:20Z</time>
      </trkpt>
      <trkpt lat="49.84317" lon="2.60568">
        <ele>80.8</ele>
        <time>2022-07-10T10:38:21Z</time>
      </trkpt>
      <trkpt lat="49.84317" lon="2.60567">
        <ele>80.8</ele>
        <time>2022-07-10T10:38:23Z</time>
      </trkpt>
      <trkpt lat="49.84316" lon="2.60566">
        <ele>80.8</ele>
        <time>2022-07-10T10:38:24Z</time>
      </trkpt>
      <trkpt lat="49.84314" lon="2.60564">
        <ele>80.8</ele>
        <time>2022-07-10T10:38:25Z</time>
      </trkpt>
      <trkpt lat="49.84313" lon="2.60563">
        <ele>80.8</ele>
        <time>2022-07-10T10:38:26Z</time>
      </trkpt>
      <trkpt lat="49.84312" lon="2.60562">
        <ele>80.8</ele>
        <time>2022-07-10T10:38:28Z</time>
      </trkpt>
      <trkpt lat="49.8431" lon="2.60561">
        <ele>80.8</ele>
        <time>2022-07-10T10:38:29Z</time>
      </trkpt>
      <trkpt lat="49.84308" lon="2.60559">
        <ele>80.8</ele>
        <time>2022-07-10T10:38:30Z</time>
      </trkpt>
      <trkpt lat="49.84307" lon="2.60559">
        <ele>80.8</ele>
        <time>2022-07-10T10:38:31Z</time>
      </trkpt>
      <trkpt lat="49.84306" lon="2.60558">
        <ele>80.8</ele>
        <time>2022-07-10T10:38:32Z</time>
      </trkpt>
      <trkpt lat="49.84305" lon="2.60557">
        <ele>80.8</ele>
        <time>2022-07-10T10:38:33Z</time>
      </trkpt>
      <trkpt lat="49.84303" lon="2.60556">
        <ele>80.8</ele>
        <time>2022-07-10T10:38:34Z</time>
      </trkpt>
      <trkpt lat="49.84302" lon="2.60555">
        <ele>80.8</ele>
        <time>2022-07-10T10:38:35Z</time>
      </trkpt>
      <trkpt lat="49.843" lon="2.60554">
        <ele>80.8</ele>
        <time>2022-07-10T10:38:36Z</time>
      </trkpt>
      <trkpt lat="49.84299" lon="2.60552">
        <ele>80.8</ele>
        <time>2022-07-10T10:38:38Z</time>
      </trkpt>
      <trkpt lat="49.84298" lon="2.60551">
        <ele>80.8</ele>
        <time>2022-07-10T10:38:39Z</time>
      </trkpt>
      <trkpt lat="49.84296" lon="2.60549">
        <ele>80.8</ele>
        <time>2022-07-10T10:38:40Z</time>
      </trkpt>
      <trkpt lat="49.84295" lon="2.60548">
        <ele>80.8</ele>
        <time>2022-07-10T10:38:41Z</time>
      </trkpt>
      <trkpt lat="49.84294" lon="2.60547">
        <ele>80.8</ele>
        <time>2022-07-10T10:38:42Z</time>
      </trkpt>
      <trkpt lat="49.84293" lon="2.60545">
        <ele>80.8</ele>
        <time>2022-07-10T10:38:44Z</time>
      </trkpt>
      <trkpt lat="49.84292" lon="2.60544">
        <ele>80.8</ele>
        <time>2022-07-10T10:38:45Z</time>
      </trkpt>
      <trkpt lat="49.84291" lon="2.60543">
        <ele>80.8</ele>
        <time>2022-07-10T10:38:46Z</time>
      </trkpt>
      <trkpt lat="49.8429" lon="2.60542">
        <ele>80.8</ele>
        <time>2022-07-10T10:38:47Z</time>
      </trkpt>
      <trkpt lat="49.84289" lon="2.6054">
        <ele>80.8</ele>
        <time>2022-07-10T10:38:48Z</time>
      </trkpt>
      <trkpt lat="49.84287" lon="2.60539">
        <ele>80.8</ele>
        <time>2022-07-10T10:38:50Z</time>
      </trkpt>
      <trkpt lat="49.84286" lon="2.60537">
        <ele>80.7</ele>
        <time>2022-07-10T10:38:51Z</time>
      </trkpt>
      <trkpt lat="49.84285" lon="2.60536">
        <ele>80.7</ele>
        <time>2022-07-10T10:38:52Z</time>
      </trkpt>
      <trkpt lat="49.84284" lon="2.60533">
        <ele>80.7</ele>
        <time>2022-07-10T10:38:53Z</time>
      </trkpt>
      <trkpt lat="49.84283" lon="2.60533">
        <ele>80.7</ele>
        <time>2022-07-10T10:38:54Z</time>
      </trkpt>
      <trkpt lat="49.84283" lon="2.60532">
        <ele>80.7</ele>
        <time>2022-07-10T10:38:55Z</time>
      </trkpt>
      <trkpt lat="49.84281" lon="2.60529">
        <ele>80.7</ele>
        <time>2022-07-10T10:38:56Z</time>
      </trkpt>
      <trkpt lat="49.84281" lon="2.60528">
        <ele>80.7</ele>
        <time>2022-07-10T10:38:57Z</time>
      </trkpt>
      <trkpt lat="49.8428" lon="2.60527">
        <ele>80.7</ele>
        <time>2022-07-10T10:38:59Z</time>
      </trkpt>
      <trkpt lat="49.84279" lon="2.60526">
        <ele>80.6</ele>
        <time>2022-07-10T10:39:00Z</time>
      </trkpt>
      <trkpt lat="49.84279" lon="2.60525">
        <ele>80.6</ele>
        <time>2022-07-10T10:39:01Z</time>
      </trkpt>
      <trkpt lat="49.84278" lon="2.60523">
        <ele>80.6</ele>
        <time>2022-07-10T10:39:02Z</time>
      </trkpt>
      <trkpt lat="49.84277" lon="2.60522">
        <ele>80.6</ele>
        <time>2022-07-10T10:39:03Z</time>
      </trkpt>
      <trkpt lat="49.84276" lon="2.6052">
        <ele>80.6</ele>
        <time>2022-07-10T10:39:04Z</time>
      </trkpt>
      <trkpt lat="49.84275" lon="2.60519">
        <ele>80.5</ele>
        <time>2022-07-10T10:39:05Z</time>
      </trkpt>
      <trkpt lat="49.84273" lon="2.60518">
        <ele>80.5</ele>
        <time>2022-07-10T10:39:06Z</time>
      </trkpt>
      <trkpt lat="49.84272" lon="2.60515">
        <ele>80.4</ele>
        <time>2022-07-10T10:39:08Z</time>
      </trkpt>
      <trkpt lat="49.84271" lon="2.60515">
        <ele>80.4</ele>
        <time>2022-07-10T10:39:09Z</time>
      </trkpt>
      <trkpt lat="49.8427" lon="2.60514">
        <ele>80.4</ele>
        <time>2022-07-10T10:39:10Z</time>
      </trkpt>
      <trkpt lat="49.84269" lon="2.60512">
        <ele>80.3</ele>
        <time>2022-07-10T10:39:11Z</time>
      </trkpt>
      <trkpt lat="49.84268" lon="2.60511">
        <ele>80.3</ele>
        <time>2022-07-10T10:39:12Z</time>
      </trkpt>
      <trkpt lat="49.84267" lon="2.6051">
        <ele>80.3</ele>
        <time>2022-07-10T10:39:13Z</time>
      </trkpt>
      <trkpt lat="49.84267" lon="2.60509">
        <ele>80.3</ele>
        <time>2022-07-10T10:39:14Z</time>
      </trkpt>
      <trkpt lat="49.84266" lon="2.60507">
        <ele>80.2</ele>
        <time>2022-07-10T10:39:16Z</time>
      </trkpt>
      <trkpt lat="49.84265" lon="2.60506">
        <ele>80.2</ele>
        <time>2022-07-10T10:39:17Z</time>
      </trkpt>
      <trkpt lat="49.84264" lon="2.60505">
        <ele>80.1</ele>
        <time>2022-07-10T10:39:18Z</time>
      </trkpt>
      <trkpt lat="49.84262" lon="2.60503">
        <ele>80.1</ele>
        <time>2022-07-10T10:39:20Z</time>
      </trkpt>
      <trkpt lat="49.84261" lon="2.60502">
        <ele>80</ele>
        <time>2022-07-10T10:39:21Z</time>
      </trkpt>
      <trkpt lat="49.8426" lon="2.60501">
        <ele>79.9</ele>
        <time>2022-07-10T10:39:22Z</time>
      </trkpt>
      <trkpt lat="49.84259" lon="2.60499">
        <ele>79.9</ele>
        <time>2022-07-10T10:39:23Z</time>
      </trkpt>
      <trkpt lat="49.84257" lon="2.60498">
        <ele>79.8</ele>
        <time>2022-07-10T10:39:24Z</time>
      </trkpt>
      <trkpt lat="49.84256" lon="2.60496">
        <ele>79.8</ele>
        <time>2022-07-10T10:39:25Z</time>
      </trkpt>
      <trkpt lat="49.84255" lon="2.60495">
        <ele>79.7</ele>
        <time>2022-07-10T10:39:26Z</time>
      </trkpt>
      <trkpt lat="49.84254" lon="2.60493">
        <ele>79.6</ele>
        <time>2022-07-10T10:39:28Z</time>
      </trkpt>
      <trkpt lat="49.84254" lon="2.60491">
        <ele>79.6</ele>
        <time>2022-07-10T10:39:29Z</time>
      </trkpt>
      <trkpt lat="49.84253" lon="2.6049">
        <ele>79.6</ele>
        <time>2022-07-10T10:39:30Z</time>
      </trkpt>
      <trkpt lat="49.84253" lon="2.60489">
        <ele>79.5</ele>
        <time>2022-07-10T10:39:31Z</time>
      </trkpt>
      <trkpt lat="49.84252" lon="2.60489">
        <ele>79.5</ele>
        <time>2022-07-10T10:39:32Z</time>
      </trkpt>
      <trkpt lat="49.84252" lon="2.60488">
        <ele>79.5</ele>
        <time>2022-07-10T10:39:33Z</time>
      </trkpt>
      <trkpt lat="49.84252" lon="2.60488">
        <ele>79.5</ele>
        <time>2022-07-10T10:39:34Z</time>
      </trkpt>
      <trkpt lat="49.84252" lon="2.60488">
        <ele>79.5</ele>
        <time>2022-07-10T10:39:35Z</time>
      </trkpt>
      <trkpt lat="49.84252" lon="2.60488">
        <ele>79.5</ele>
        <time>2022-07-10T10:39:36Z</time>
      </trkpt>
      <trkpt lat="49.84252" lon="2.60488">
        <ele>79.5</ele>
        <time>2022-07-10T10:39:37Z</time>
      </trkpt>
      <trkpt lat="49.84252" lon="2.60488">
        <ele>79.5</ele>
        <time>2022-07-10T10:39:39Z</time>
      </trkpt>
      <trkpt lat="49.84252" lon="2.60488">
        <ele>79.5</ele>
        <time>2022-07-10T10:39:40Z</time>
      </trkpt>
      <trkpt lat="49.84252" lon="2.60488">
        <ele>79.5</ele>
        <time>2022-07-10T10:39:41Z</time>
      </trkpt>
      <trkpt lat="49.84252" lon="2.60489">
        <ele>79.5</ele>
        <time>2022-07-10T10:39:42Z</time>
      </trkpt>
      <trkpt lat="49.84252" lon="2.60489">
        <ele>79.5</ele>
        <time>2022-07-10T10:39:43Z</time>
      </trkpt>
      <trkpt lat="49.84252" lon="2.60489">
        <ele>79.5</ele>
        <time>2022-07-10T10:39:44Z</time>
      </trkpt>
      <trkpt lat="49.84252" lon="2.60489">
        <ele>79.5</ele>
        <time>2022-07-10T10:39:45Z</time>
      </trkpt>
      <trkpt lat="49.84252" lon="2.60489">
        <ele>79.5</ele>
        <time>2022-07-10T10:39:46Z</time>
      </trkpt>
      <trkpt lat="49.84252" lon="2.60489">
        <ele>79.5</ele>
        <time>2022-07-10T10:39:47Z</time>
      </trkpt>
      <trkpt lat="49.84252" lon="2.60489">
        <ele>79.4</ele>
        <time>2022-07-10T10:39:48Z</time>
      </trkpt>
      <trkpt lat="49.84252" lon="2.6049">
        <ele>79.4</ele>
        <time>2022-07-10T10:39:49Z</time>
      </trkpt>
      <trkpt lat="49.84252" lon="2.6049">
        <ele>79.4</ele>
        <time>2022-07-10T10:39:50Z</time>
      </trkpt>
      <trkpt lat="49.84252" lon="2.6049">
        <ele>79.4</ele>
        <time>2022-07-10T10:39:51Z</time>
      </trkpt>
      <trkpt lat="49.84253" lon="2.60491">
        <ele>79.4</ele>
        <time>2022-07-10T10:39:52Z</time>
      </trkpt>
      <trkpt lat="49.84253" lon="2.60492">
        <ele>79.4</ele>
        <time>2022-07-10T10:39:53Z</time>
      </trkpt>
      <trkpt lat="49.84253" lon="2.60492">
        <ele>79.4</ele>
        <time>2022-07-10T10:39:54Z</time>
      </trkpt>
      <trkpt lat="49.84252" lon="2.60493">
        <ele>79.4</ele>
        <time>2022-07-10T10:39:55Z</time>
      </trkpt>
      <trkpt lat="49.84252" lon="2.60493">
        <ele>79.3</ele>
        <time>2022-07-10T10:39:56Z</time>
      </trkpt>
      <trkpt lat="49.84252" lon="2.6049">
        <ele>79.3</ele>
        <time>2022-07-10T10:39:57Z</time>
      </trkpt>
      <trkpt lat="49.84251" lon="2.60489">
        <ele>79.2</ele>
        <time>2022-07-10T10:39:59Z</time>
      </trkpt>
      <trkpt lat="49.8425" lon="2.6049">
        <ele>79.2</ele>
        <time>2022-07-10T10:40:00Z</time>
      </trkpt>
      <trkpt lat="49.84249" lon="2.6049">
        <ele>79.1</ele>
        <time>2022-07-10T10:40:01Z</time>
      </trkpt>
      <trkpt lat="49.84247" lon="2.60491">
        <ele>79.1</ele>
        <time>2022-07-10T10:40:02Z</time>
      </trkpt>
      <trkpt lat="49.84246" lon="2.60491">
        <ele>79.1</ele>
        <time>2022-07-10T10:40:03Z</time>
      </trkpt>
      <trkpt lat="49.84245" lon="2.60492">
        <ele>79</ele>
        <time>2022-07-10T10:40:04Z</time>
      </trkpt>
      <trkpt lat="49.84243" lon="2.60492">
        <ele>79</ele>
        <time>2022-07-10T10:40:05Z</time>
      </trkpt>
      <trkpt lat="49.84242" lon="2.60492">
        <ele>78.9</ele>
        <time>2022-07-10T10:40:06Z</time>
      </trkpt>
      <trkpt lat="49.84239" lon="2.60492">
        <ele>78.8</ele>
        <time>2022-07-10T10:40:08Z</time>
      </trkpt>
      <trkpt lat="49.84239" lon="2.60491">
        <ele>78.8</ele>
        <time>2022-07-10T10:40:09Z</time>
      </trkpt>
      <trkpt lat="49.84238" lon="2.6049">
        <ele>78.7</ele>
        <time>2022-07-10T10:40:10Z</time>
      </trkpt>
      <trkpt lat="49.84236" lon="2.60489">
        <ele>78.7</ele>
        <time>2022-07-10T10:40:11Z</time>
      </trkpt>
      <trkpt lat="49.84235" lon="2.60488">
        <ele>78.6</ele>
        <time>2022-07-10T10:40:12Z</time>
      </trkpt>
      <trkpt lat="49.84234" lon="2.60488">
        <ele>78.6</ele>
        <time>2022-07-10T10:40:13Z</time>
      </trkpt>
      <trkpt lat="49.84234" lon="2.60486">
        <ele>78.6</ele>
        <time>2022-07-10T10:40:14Z</time>
      </trkpt>
      <trkpt lat="49.84233" lon="2.60485">
        <ele>78.5</ele>
        <time>2022-07-10T10:40:16Z</time>
      </trkpt>
      <trkpt lat="49.84232" lon="2.60484">
        <ele>78.5</ele>
        <time>2022-07-10T10:40:17Z</time>
      </trkpt>
      <trkpt lat="49.84232" lon="2.60484">
        <ele>78.5</ele>
        <time>2022-07-10T10:40:18Z</time>
      </trkpt>
      <trkpt lat="49.84233" lon="2.60483">
        <ele>78.4</ele>
        <time>2022-07-10T10:40:19Z</time>
      </trkpt>
      <trkpt lat="49.84234" lon="2.60482">
        <ele>78.4</ele>
        <time>2022-07-10T10:40:20Z</time>
      </trkpt>
      <trkpt lat="49.84234" lon="2.60482">
        <ele>78.4</ele>
        <time>2022-07-10T10:40:21Z</time>
      </trkpt>
      <trkpt lat="49.84233" lon="2.60481">
        <ele>78.3</ele>
        <time>2022-07-10T10:40:22Z</time>
      </trkpt>
      <trkpt lat="49.84232" lon="2.60481">
        <ele>78.3</ele>
        <time>2022-07-10T10:40:24Z</time>
      </trkpt>
      <trkpt lat="49.84231" lon="2.60481">
        <ele>78.3</ele>
        <time>2022-07-10T10:40:25Z</time>
      </trkpt>
      <trkpt lat="49.8423" lon="2.6048">
        <ele>78.2</ele>
        <time>2022-07-10T10:40:26Z</time>
      </trkpt>
      <trkpt lat="49.84229" lon="2.60479">
        <ele>78.2</ele>
        <time>2022-07-10T10:40:27Z</time>
      </trkpt>
      <trkpt lat="49.84227" lon="2.60478">
        <ele>78.1</ele>
        <time>2022-07-10T10:40:28Z</time>
      </trkpt>
      <trkpt lat="49.84226" lon="2.60478">
        <ele>78.1</ele>
        <time>2022-07-10T10:40:29Z</time>
      </trkpt>
      <trkpt lat="49.84225" lon="2.60477">
        <ele>78</ele>
        <time>2022-07-10T10:40:30Z</time>
      </trkpt>
      <trkpt lat="49.84223" lon="2.60476">
        <ele>78</ele>
        <time>2022-07-10T10:40:31Z</time>
      </trkpt>
      <trkpt lat="49.84222" lon="2.60476">
        <ele>77.9</ele>
        <time>2022-07-10T10:40:32Z</time>
      </trkpt>
      <trkpt lat="49.84221" lon="2.60476">
        <ele>77.9</ele>
        <time>2022-07-10T10:40:33Z</time>
      </trkpt>
      <trkpt lat="49.84219" lon="2.60475">
        <ele>77.8</ele>
        <time>2022-07-10T10:40:34Z</time>
      </trkpt>
      <trkpt lat="49.84218" lon="2.60474">
        <ele>77.8</ele>
        <time>2022-07-10T10:40:35Z</time>
      </trkpt>
      <trkpt lat="49.84217" lon="2.60474">
        <ele>77.7</ele>
        <time>2022-07-10T10:40:36Z</time>
      </trkpt>
      <trkpt lat="49.84216" lon="2.60473">
        <ele>77.7</ele>
        <time>2022-07-10T10:40:37Z</time>
      </trkpt>
      <trkpt lat="49.84215" lon="2.60473">
        <ele>77.6</ele>
        <time>2022-07-10T10:40:38Z</time>
      </trkpt>
      <trkpt lat="49.84213" lon="2.60473">
        <ele>77.6</ele>
        <time>2022-07-10T10:40:39Z</time>
      </trkpt>
      <trkpt lat="49.84212" lon="2.60473">
        <ele>77.5</ele>
        <time>2022-07-10T10:40:40Z</time>
      </trkpt>
      <trkpt lat="49.8421" lon="2.60472">
        <ele>77.5</ele>
        <time>2022-07-10T10:40:42Z</time>
      </trkpt>
      <trkpt lat="49.84207" lon="2.60471">
        <ele>77.4</ele>
        <time>2022-07-10T10:40:43Z</time>
      </trkpt>
      <trkpt lat="49.84206" lon="2.60471">
        <ele>77.4</ele>
        <time>2022-07-10T10:40:44Z</time>
      </trkpt>
      <trkpt lat="49.84205" lon="2.6047">
        <ele>77.4</ele>
        <time>2022-07-10T10:40:46Z</time>
      </trkpt>
      <trkpt lat="49.84203" lon="2.6047">
        <ele>77.3</ele>
        <time>2022-07-10T10:40:47Z</time>
      </trkpt>
      <trkpt lat="49.842" lon="2.60468">
        <ele>77.2</ele>
        <time>2022-07-10T10:40:48Z</time>
      </trkpt>
      <trkpt lat="49.84199" lon="2.60468">
        <ele>77.2</ele>
        <time>2022-07-10T10:40:49Z</time>
      </trkpt>
      <trkpt lat="49.84197" lon="2.60467">
        <ele>77.1</ele>
        <time>2022-07-10T10:40:50Z</time>
      </trkpt>
      <trkpt lat="49.84196" lon="2.60466">
        <ele>77</ele>
        <time>2022-07-10T10:40:51Z</time>
      </trkpt>
      <trkpt lat="49.84193" lon="2.60465">
        <ele>76.9</ele>
        <time>2022-07-10T10:40:52Z</time>
      </trkpt>
      <trkpt lat="49.84191" lon="2.60464">
        <ele>76.8</ele>
        <time>2022-07-10T10:40:54Z</time>
      </trkpt>
      <trkpt lat="49.8419" lon="2.60463">
        <ele>76.7</ele>
        <time>2022-07-10T10:40:55Z</time>
      </trkpt>
      <trkpt lat="49.84188" lon="2.60462">
        <ele>76.6</ele>
        <time>2022-07-10T10:40:56Z</time>
      </trkpt>
      <trkpt lat="49.84187" lon="2.60462">
        <ele>76.6</ele>
        <time>2022-07-10T10:40:57Z</time>
      </trkpt>
      <trkpt lat="49.84185" lon="2.60461">
        <ele>76.5</ele>
        <time>2022-07-10T10:40:59Z</time>
      </trkpt>
      <trkpt lat="49.84184" lon="2.60461">
        <ele>76.4</ele>
        <time>2022-07-10T10:41:00Z</time>
      </trkpt>
      <trkpt lat="49.84182" lon="2.60461">
        <ele>76.3</ele>
        <time>2022-07-10T10:41:01Z</time>
      </trkpt>
      <trkpt lat="49.84181" lon="2.60461">
        <ele>76.3</ele>
        <time>2022-07-10T10:41:02Z</time>
      </trkpt>
      <trkpt lat="49.84179" lon="2.6046">
        <ele>76.2</ele>
        <time>2022-07-10T10:41:03Z</time>
      </trkpt>
      <trkpt lat="49.84178" lon="2.6046">
        <ele>76.1</ele>
        <time>2022-07-10T10:41:04Z</time>
      </trkpt>
      <trkpt lat="49.84176" lon="2.60459">
        <ele>76</ele>
        <time>2022-07-10T10:41:05Z</time>
      </trkpt>
      <trkpt lat="49.84174" lon="2.60458">
        <ele>75.9</ele>
        <time>2022-07-10T10:41:07Z</time>
      </trkpt>
      <trkpt lat="49.84173" lon="2.60458">
        <ele>75.9</ele>
        <time>2022-07-10T10:41:09Z</time>
      </trkpt>
      <trkpt lat="49.84172" lon="2.60458">
        <ele>75.8</ele>
        <time>2022-07-10T10:41:10Z</time>
      </trkpt>
      <trkpt lat="49.8417" lon="2.60457">
        <ele>75.7</ele>
        <time>2022-07-10T10:41:11Z</time>
      </trkpt>
      <trkpt lat="49.84168" lon="2.60456">
        <ele>75.6</ele>
        <time>2022-07-10T10:41:13Z</time>
      </trkpt>
      <trkpt lat="49.84167" lon="2.60456">
        <ele>75.6</ele>
        <time>2022-07-10T10:41:14Z</time>
      </trkpt>
      <trkpt lat="49.84166" lon="2.60455">
        <ele>75.5</ele>
        <time>2022-07-10T10:41:15Z</time>
      </trkpt>
      <trkpt lat="49.84164" lon="2.60454">
        <ele>75.5</ele>
        <time>2022-07-10T10:41:16Z</time>
      </trkpt>
      <trkpt lat="49.84163" lon="2.60454">
        <ele>75.4</ele>
        <time>2022-07-10T10:41:17Z</time>
      </trkpt>
      <trkpt lat="49.84161" lon="2.60453">
        <ele>75.3</ele>
        <time>2022-07-10T10:41:18Z</time>
      </trkpt>
      <trkpt lat="49.8416" lon="2.60453">
        <ele>75.3</ele>
        <time>2022-07-10T10:41:20Z</time>
      </trkpt>
      <trkpt lat="49.8416" lon="2.60453">
        <ele>75.2</ele>
        <time>2022-07-10T10:41:21Z</time>
      </trkpt>
      <trkpt lat="49.84157" lon="2.60453">
        <ele>75.1</ele>
        <time>2022-07-10T10:41:23Z</time>
      </trkpt>
      <trkpt lat="49.84156" lon="2.60453">
        <ele>75.1</ele>
        <time>2022-07-10T10:41:24Z</time>
      </trkpt>
      <trkpt lat="49.84154" lon="2.60452">
        <ele>75</ele>
        <time>2022-07-10T10:41:25Z</time>
      </trkpt>
      <trkpt lat="49.84152" lon="2.60452">
        <ele>74.9</ele>
        <time>2022-07-10T10:41:27Z</time>
      </trkpt>
      <trkpt lat="49.84151" lon="2.60451">
        <ele>74.9</ele>
        <time>2022-07-10T10:41:28Z</time>
      </trkpt>
      <trkpt lat="49.8415" lon="2.60451">
        <ele>74.8</ele>
        <time>2022-07-10T10:41:29Z</time>
      </trkpt>
      <trkpt lat="49.84147" lon="2.6045">
        <ele>74.7</ele>
        <time>2022-07-10T10:41:30Z</time>
      </trkpt>
      <trkpt lat="49.84146" lon="2.6045">
        <ele>74.7</ele>
        <time>2022-07-10T10:41:31Z</time>
      </trkpt>
      <trkpt lat="49.84145" lon="2.60449">
        <ele>74.6</ele>
        <time>2022-07-10T10:41:32Z</time>
      </trkpt>
      <trkpt lat="49.84143" lon="2.60449">
        <ele>74.6</ele>
        <time>2022-07-10T10:41:33Z</time>
      </trkpt>
      <trkpt lat="49.84142" lon="2.60449">
        <ele>74.5</ele>
        <time>2022-07-10T10:41:34Z</time>
      </trkpt>
      <trkpt lat="49.84141" lon="2.60448">
        <ele>74.5</ele>
        <time>2022-07-10T10:41:36Z</time>
      </trkpt>
      <trkpt lat="49.8414" lon="2.60448">
        <ele>74.4</ele>
        <time>2022-07-10T10:41:37Z</time>
      </trkpt>
      <trkpt lat="49.84139" lon="2.60448">
        <ele>74.4</ele>
        <time>2022-07-10T10:41:38Z</time>
      </trkpt>
      <trkpt lat="49.84138" lon="2.60448">
        <ele>74.4</ele>
        <time>2022-07-10T10:41:39Z</time>
      </trkpt>
      <trkpt lat="49.84137" lon="2.60447">
        <ele>74.3</ele>
        <time>2022-07-10T10:41:40Z</time>
      </trkpt>
      <trkpt lat="49.84135" lon="2.60447">
        <ele>74.3</ele>
        <time>2022-07-10T10:41:41Z</time>
      </trkpt>
      <trkpt lat="49.84134" lon="2.60447">
        <ele>74.2</ele>
        <time>2022-07-10T10:41:42Z</time>
      </trkpt>
      <trkpt lat="49.84133" lon="2.60446">
        <ele>74.2</ele>
        <time>2022-07-10T10:41:43Z</time>
      </trkpt>
      <trkpt lat="49.84131" lon="2.60446">
        <ele>74.2</ele>
        <time>2022-07-10T10:41:44Z</time>
      </trkpt>
      <trkpt lat="49.8413" lon="2.60445">
        <ele>74.1</ele>
        <time>2022-07-10T10:41:45Z</time>
      </trkpt>
      <trkpt lat="49.84128" lon="2.60445">
        <ele>74.1</ele>
        <time>2022-07-10T10:41:46Z</time>
      </trkpt>
      <trkpt lat="49.84126" lon="2.60444">
        <ele>74</ele>
        <time>2022-07-10T10:41:47Z</time>
      </trkpt>
      <trkpt lat="49.84125" lon="2.60444">
        <ele>74</ele>
        <time>2022-07-10T10:41:48Z</time>
      </trkpt>
      <trkpt lat="49.84125" lon="2.60444">
        <ele>74</ele>
        <time>2022-07-10T10:41:49Z</time>
      </trkpt>
      <trkpt lat="49.84122" lon="2.60444">
        <ele>73.9</ele>
        <time>2022-07-10T10:41:51Z</time>
      </trkpt>
      <trkpt lat="49.84121" lon="2.60445">
        <ele>73.9</ele>
        <time>2022-07-10T10:41:52Z</time>
      </trkpt>
      <trkpt lat="49.84121" lon="2.60445">
        <ele>73.9</ele>
        <time>2022-07-10T10:41:53Z</time>
      </trkpt>
      <trkpt lat="49.84119" lon="2.60445">
        <ele>73.8</ele>
        <time>2022-07-10T10:41:54Z</time>
      </trkpt>
      <trkpt lat="49.84118" lon="2.60445">
        <ele>73.8</ele>
        <time>2022-07-10T10:41:55Z</time>
      </trkpt>
      <trkpt lat="49.84117" lon="2.60445">
        <ele>73.7</ele>
        <time>2022-07-10T10:41:56Z</time>
      </trkpt>
      <trkpt lat="49.84116" lon="2.60445">
        <ele>73.7</ele>
        <time>2022-07-10T10:41:57Z</time>
      </trkpt>
      <trkpt lat="49.84114" lon="2.60445">
        <ele>73.7</ele>
        <time>2022-07-10T10:41:58Z</time>
      </trkpt>
      <trkpt lat="49.84113" lon="2.60445">
        <ele>73.6</ele>
        <time>2022-07-10T10:41:59Z</time>
      </trkpt>
      <trkpt lat="49.84112" lon="2.60445">
        <ele>73.6</ele>
        <time>2022-07-10T10:42:01Z</time>
      </trkpt>
      <trkpt lat="49.84111" lon="2.60445">
        <ele>73.5</ele>
        <time>2022-07-10T10:42:02Z</time>
      </trkpt>
      <trkpt lat="49.8411" lon="2.60445">
        <ele>73.5</ele>
        <time>2022-07-10T10:42:03Z</time>
      </trkpt>
      <trkpt lat="49.84109" lon="2.60445">
        <ele>73.5</ele>
        <time>2022-07-10T10:42:04Z</time>
      </trkpt>
      <trkpt lat="49.84108" lon="2.60444">
        <ele>73.4</ele>
        <time>2022-07-10T10:42:05Z</time>
      </trkpt>
      <trkpt lat="49.84107" lon="2.60444">
        <ele>73.4</ele>
        <time>2022-07-10T10:42:06Z</time>
      </trkpt>
      <trkpt lat="49.84106" lon="2.60444">
        <ele>73.3</ele>
        <time>2022-07-10T10:42:07Z</time>
      </trkpt>
      <trkpt lat="49.84104" lon="2.60443">
        <ele>73.3</ele>
        <time>2022-07-10T10:42:08Z</time>
      </trkpt>
      <trkpt lat="49.84103" lon="2.60443">
        <ele>73.2</ele>
        <time>2022-07-10T10:42:09Z</time>
      </trkpt>
      <trkpt lat="49.84102" lon="2.60442">
        <ele>73.1</ele>
        <time>2022-07-10T10:42:11Z</time>
      </trkpt>
      <trkpt lat="49.841" lon="2.60441">
        <ele>73.1</ele>
        <time>2022-07-10T10:42:12Z</time>
      </trkpt>
      <trkpt lat="49.84099" lon="2.60441">
        <ele>73</ele>
        <time>2022-07-10T10:42:13Z</time>
      </trkpt>
      <trkpt lat="49.84097" lon="2.6044">
        <ele>72.9</ele>
        <time>2022-07-10T10:42:15Z</time>
      </trkpt>
      <trkpt lat="49.84096" lon="2.60439">
        <ele>72.9</ele>
        <time>2022-07-10T10:42:16Z</time>
      </trkpt>
      <trkpt lat="49.84095" lon="2.60439">
        <ele>72.9</ele>
        <time>2022-07-10T10:42:17Z</time>
      </trkpt>
      <trkpt lat="49.84093" lon="2.60438">
        <ele>72.8</ele>
        <time>2022-07-10T10:42:18Z</time>
      </trkpt>
      <trkpt lat="49.84092" lon="2.60437">
        <ele>72.8</ele>
        <time>2022-07-10T10:42:19Z</time>
      </trkpt>
      <trkpt lat="49.84091" lon="2.60437">
        <ele>72.7</ele>
        <time>2022-07-10T10:42:21Z</time>
      </trkpt>
      <trkpt lat="49.8409" lon="2.60437">
        <ele>72.7</ele>
        <time>2022-07-10T10:42:22Z</time>
      </trkpt>
      <trkpt lat="49.84089" lon="2.60437">
        <ele>72.7</ele>
        <time>2022-07-10T10:42:23Z</time>
      </trkpt>
      <trkpt lat="49.84087" lon="2.60436">
        <ele>72.6</ele>
        <time>2022-07-10T10:42:24Z</time>
      </trkpt>
      <trkpt lat="49.84087" lon="2.60436">
        <ele>72.6</ele>
        <time>2022-07-10T10:42:25Z</time>
      </trkpt>
      <trkpt lat="49.84086" lon="2.60435">
        <ele>72.5</ele>
        <time>2022-07-10T10:42:26Z</time>
      </trkpt>
      <trkpt lat="49.84084" lon="2.60435">
        <ele>72.5</ele>
        <time>2022-07-10T10:42:27Z</time>
      </trkpt>
      <trkpt lat="49.84083" lon="2.60435">
        <ele>72.4</ele>
        <time>2022-07-10T10:42:28Z</time>
      </trkpt>
      <trkpt lat="49.84082" lon="2.60434">
        <ele>72.4</ele>
        <time>2022-07-10T10:42:29Z</time>
      </trkpt>
      <trkpt lat="49.8408" lon="2.60433">
        <ele>72.3</ele>
        <time>2022-07-10T10:42:30Z</time>
      </trkpt>
      <trkpt lat="49.84079" lon="2.60433">
        <ele>72.3</ele>
        <time>2022-07-10T10:42:32Z</time>
      </trkpt>
      <trkpt lat="49.84078" lon="2.60433">
        <ele>72.3</ele>
        <time>2022-07-10T10:42:33Z</time>
      </trkpt>
      <trkpt lat="49.84076" lon="2.60432">
        <ele>72.2</ele>
        <time>2022-07-10T10:42:34Z</time>
      </trkpt>
      <trkpt lat="49.84075" lon="2.60432">
        <ele>72.2</ele>
        <time>2022-07-10T10:42:36Z</time>
      </trkpt>
      <trkpt lat="49.84074" lon="2.60432">
        <ele>72.1</ele>
        <time>2022-07-10T10:42:37Z</time>
      </trkpt>
      <trkpt lat="49.84072" lon="2.60432">
        <ele>72.1</ele>
        <time>2022-07-10T10:42:38Z</time>
      </trkpt>
      <trkpt lat="49.84071" lon="2.60432">
        <ele>72</ele>
        <time>2022-07-10T10:42:39Z</time>
      </trkpt>
      <trkpt lat="49.84069" lon="2.60431">
        <ele>72</ele>
        <time>2022-07-10T10:42:40Z</time>
      </trkpt>
      <trkpt lat="49.84068" lon="2.60431">
        <ele>71.9</ele>
        <time>2022-07-10T10:42:42Z</time>
      </trkpt>
      <trkpt lat="49.84066" lon="2.60431">
        <ele>71.8</ele>
        <time>2022-07-10T10:42:43Z</time>
      </trkpt>
      <trkpt lat="49.84065" lon="2.60431">
        <ele>71.8</ele>
        <time>2022-07-10T10:42:44Z</time>
      </trkpt>
      <trkpt lat="49.84065" lon="2.6043">
        <ele>71.8</ele>
        <time>2022-07-10T10:42:45Z</time>
      </trkpt>
      <trkpt lat="49.84063" lon="2.6043">
        <ele>71.7</ele>
        <time>2022-07-10T10:42:46Z</time>
      </trkpt>
      <trkpt lat="49.84062" lon="2.6043">
        <ele>71.7</ele>
        <time>2022-07-10T10:42:47Z</time>
      </trkpt>
      <trkpt lat="49.8406" lon="2.6043">
        <ele>71.6</ele>
        <time>2022-07-10T10:42:48Z</time>
      </trkpt>
      <trkpt lat="49.84059" lon="2.6043">
        <ele>71.6</ele>
        <time>2022-07-10T10:42:49Z</time>
      </trkpt>
      <trkpt lat="49.84058" lon="2.6043">
        <ele>71.5</ele>
        <time>2022-07-10T10:42:50Z</time>
      </trkpt>
      <trkpt lat="49.84056" lon="2.6043">
        <ele>71.5</ele>
        <time>2022-07-10T10:42:51Z</time>
      </trkpt>
      <trkpt lat="49.84054" lon="2.6043">
        <ele>71.4</ele>
        <time>2022-07-10T10:42:52Z</time>
      </trkpt>
      <trkpt lat="49.84053" lon="2.60429">
        <ele>71.4</ele>
        <time>2022-07-10T10:42:54Z</time>
      </trkpt>
      <trkpt lat="49.84051" lon="2.60429">
        <ele>71.3</ele>
        <time>2022-07-10T10:42:55Z</time>
      </trkpt>
      <trkpt lat="49.8405" lon="2.60429">
        <ele>71.3</ele>
        <time>2022-07-10T10:42:56Z</time>
      </trkpt>
      <trkpt lat="49.84049" lon="2.60429">
        <ele>71.3</ele>
        <time>2022-07-10T10:42:57Z</time>
      </trkpt>
      <trkpt lat="49.84047" lon="2.60428">
        <ele>71.2</ele>
        <time>2022-07-10T10:42:59Z</time>
      </trkpt>
      <trkpt lat="49.84046" lon="2.60428">
        <ele>71.2</ele>
        <time>2022-07-10T10:43:00Z</time>
      </trkpt>
      <trkpt lat="49.84045" lon="2.60428">
        <ele>71.1</ele>
        <time>2022-07-10T10:43:01Z</time>
      </trkpt>
      <trkpt lat="49.84044" lon="2.60428">
        <ele>71.1</ele>
        <time>2022-07-10T10:43:02Z</time>
      </trkpt>
      <trkpt lat="49.84042" lon="2.60427">
        <ele>71</ele>
        <time>2022-07-10T10:43:03Z</time>
      </trkpt>
      <trkpt lat="49.8404" lon="2.60427">
        <ele>71</ele>
        <time>2022-07-10T10:43:04Z</time>
      </trkpt>
      <trkpt lat="49.84039" lon="2.60426">
        <ele>70.9</ele>
        <time>2022-07-10T10:43:05Z</time>
      </trkpt>
      <trkpt lat="49.84038" lon="2.60426">
        <ele>70.9</ele>
        <time>2022-07-10T10:43:06Z</time>
      </trkpt>
      <trkpt lat="49.84036" lon="2.60426">
        <ele>70.9</ele>
        <time>2022-07-10T10:43:07Z</time>
      </trkpt>
      <trkpt lat="49.84035" lon="2.60426">
        <ele>70.8</ele>
        <time>2022-07-10T10:43:08Z</time>
      </trkpt>
      <trkpt lat="49.84035" lon="2.60426">
        <ele>70.8</ele>
        <time>2022-07-10T10:43:09Z</time>
      </trkpt>
      <trkpt lat="49.84033" lon="2.60425">
        <ele>70.8</ele>
        <time>2022-07-10T10:43:10Z</time>
      </trkpt>
      <trkpt lat="49.84032" lon="2.60425">
        <ele>70.8</ele>
        <time>2022-07-10T10:43:12Z</time>
      </trkpt>
      <trkpt lat="49.84031" lon="2.60425">
        <ele>70.8</ele>
        <time>2022-07-10T10:43:13Z</time>
      </trkpt>
      <trkpt lat="49.84029" lon="2.60424">
        <ele>70.7</ele>
        <time>2022-07-10T10:43:14Z</time>
      </trkpt>
      <trkpt lat="49.84028" lon="2.60424">
        <ele>70.7</ele>
        <time>2022-07-10T10:43:15Z</time>
      </trkpt>
      <trkpt lat="49.84027" lon="2.60424">
        <ele>70.7</ele>
        <time>2022-07-10T10:43:16Z</time>
      </trkpt>
      <trkpt lat="49.84024" lon="2.60423">
        <ele>70.6</ele>
        <time>2022-07-10T10:43:18Z</time>
      </trkpt>
      <trkpt lat="49.84024" lon="2.60423">
        <ele>70.6</ele>
        <time>2022-07-10T10:43:19Z</time>
      </trkpt>
      <trkpt lat="49.84022" lon="2.60423">
        <ele>70.6</ele>
        <time>2022-07-10T10:43:20Z</time>
      </trkpt>
      <trkpt lat="49.84021" lon="2.60422">
        <ele>70.6</ele>
        <time>2022-07-10T10:43:21Z</time>
      </trkpt>
      <trkpt lat="49.8402" lon="2.60422">
        <ele>70.6</ele>
        <time>2022-07-10T10:43:22Z</time>
      </trkpt>
      <trkpt lat="49.84019" lon="2.60422">
        <ele>70.6</ele>
        <time>2022-07-10T10:43:23Z</time>
      </trkpt>
      <trkpt lat="49.84017" lon="2.60421">
        <ele>70.6</ele>
        <time>2022-07-10T10:43:24Z</time>
      </trkpt>
      <trkpt lat="49.84016" lon="2.6042">
        <ele>70.5</ele>
        <time>2022-07-10T10:43:25Z</time>
      </trkpt>
      <trkpt lat="49.84015" lon="2.6042">
        <ele>70.5</ele>
        <time>2022-07-10T10:43:27Z</time>
      </trkpt>
      <trkpt lat="49.84014" lon="2.60419">
        <ele>70.5</ele>
        <time>2022-07-10T10:43:28Z</time>
      </trkpt>
      <trkpt lat="49.84013" lon="2.60419">
        <ele>70.5</ele>
        <time>2022-07-10T10:43:29Z</time>
      </trkpt>
      <trkpt lat="49.84012" lon="2.60418">
        <ele>70.5</ele>
        <time>2022-07-10T10:43:30Z</time>
      </trkpt>
      <trkpt lat="49.84011" lon="2.60418">
        <ele>70.5</ele>
        <time>2022-07-10T10:43:31Z</time>
      </trkpt>
      <trkpt lat="49.84009" lon="2.60417">
        <ele>70.5</ele>
        <time>2022-07-10T10:43:32Z</time>
      </trkpt>
      <trkpt lat="49.84009" lon="2.60417">
        <ele>70.5</ele>
        <time>2022-07-10T10:43:33Z</time>
      </trkpt>
      <trkpt lat="49.84008" lon="2.60416">
        <ele>70.5</ele>
        <time>2022-07-10T10:43:34Z</time>
      </trkpt>
      <trkpt lat="49.84007" lon="2.60416">
        <ele>70.4</ele>
        <time>2022-07-10T10:43:36Z</time>
      </trkpt>
      <trkpt lat="49.84006" lon="2.60415">
        <ele>70.4</ele>
        <time>2022-07-10T10:43:37Z</time>
      </trkpt>
      <trkpt lat="49.84005" lon="2.60415">
        <ele>70.4</ele>
        <time>2022-07-10T10:43:38Z</time>
      </trkpt>
      <trkpt lat="49.84003" lon="2.60415">
        <ele>70.4</ele>
        <time>2022-07-10T10:43:39Z</time>
      </trkpt>
      <trkpt lat="49.84002" lon="2.60414">
        <ele>70.4</ele>
        <time>2022-07-10T10:43:40Z</time>
      </trkpt>
      <trkpt lat="49.84001" lon="2.60414">
        <ele>70.4</ele>
        <time>2022-07-10T10:43:41Z</time>
      </trkpt>
      <trkpt lat="49.83999" lon="2.60413">
        <ele>70.4</ele>
        <time>2022-07-10T10:43:43Z</time>
      </trkpt>
      <trkpt lat="49.83999" lon="2.60413">
        <ele>70.4</ele>
        <time>2022-07-10T10:43:44Z</time>
      </trkpt>
      <trkpt lat="49.83998" lon="2.60412">
        <ele>70.3</ele>
        <time>2022-07-10T10:43:45Z</time>
      </trkpt>
      <trkpt lat="49.83997" lon="2.60412">
        <ele>70.3</ele>
        <time>2022-07-10T10:43:46Z</time>
      </trkpt>
      <trkpt lat="49.83996" lon="2.60411">
        <ele>70.3</ele>
        <time>2022-07-10T10:43:47Z</time>
      </trkpt>
      <trkpt lat="49.83995" lon="2.6041">
        <ele>70.3</ele>
        <time>2022-07-10T10:43:48Z</time>
      </trkpt>
      <trkpt lat="49.83994" lon="2.6041">
        <ele>70.3</ele>
        <time>2022-07-10T10:43:49Z</time>
      </trkpt>
      <trkpt lat="49.83993" lon="2.60409">
        <ele>70.3</ele>
        <time>2022-07-10T10:43:50Z</time>
      </trkpt>
      <trkpt lat="49.83992" lon="2.60409">
        <ele>70.3</ele>
        <time>2022-07-10T10:43:52Z</time>
      </trkpt>
      <trkpt lat="49.83992" lon="2.60408">
        <ele>70.3</ele>
        <time>2022-07-10T10:43:53Z</time>
      </trkpt>
      <trkpt lat="49.83991" lon="2.60408">
        <ele>70.3</ele>
        <time>2022-07-10T10:43:54Z</time>
      </trkpt>
      <trkpt lat="49.83989" lon="2.60407">
        <ele>70.3</ele>
        <time>2022-07-10T10:43:55Z</time>
      </trkpt>
      <trkpt lat="49.83989" lon="2.60407">
        <ele>70.3</ele>
        <time>2022-07-10T10:43:57Z</time>
      </trkpt>
      <trkpt lat="49.83988" lon="2.60407">
        <ele>70.3</ele>
        <time>2022-07-10T10:43:58Z</time>
      </trkpt>
      <trkpt lat="49.83987" lon="2.60406">
        <ele>70.3</ele>
        <time>2022-07-10T10:43:59Z</time>
      </trkpt>
      <trkpt lat="49.83985" lon="2.60405">
        <ele>70.2</ele>
        <time>2022-07-10T10:44:00Z</time>
      </trkpt>
      <trkpt lat="49.83984" lon="2.60405">
        <ele>70.2</ele>
        <time>2022-07-10T10:44:01Z</time>
      </trkpt>
      <trkpt lat="49.83983" lon="2.60405">
        <ele>70.2</ele>
        <time>2022-07-10T10:44:02Z</time>
      </trkpt>
      <trkpt lat="49.83982" lon="2.60404">
        <ele>70.2</ele>
        <time>2022-07-10T10:44:04Z</time>
      </trkpt>
      <trkpt lat="49.8398" lon="2.60402">
        <ele>70.2</ele>
        <time>2022-07-10T10:44:05Z</time>
      </trkpt>
      <trkpt lat="49.8398" lon="2.60401">
        <ele>70.2</ele>
        <time>2022-07-10T10:44:07Z</time>
      </trkpt>
      <trkpt lat="49.83979" lon="2.604">
        <ele>70.2</ele>
        <time>2022-07-10T10:44:08Z</time>
      </trkpt>
      <trkpt lat="49.83978" lon="2.604">
        <ele>70.2</ele>
        <time>2022-07-10T10:44:09Z</time>
      </trkpt>
      <trkpt lat="49.83977" lon="2.60399">
        <ele>70.2</ele>
        <time>2022-07-10T10:44:10Z</time>
      </trkpt>
      <trkpt lat="49.83977" lon="2.60398">
        <ele>70.2</ele>
        <time>2022-07-10T10:44:11Z</time>
      </trkpt>
      <trkpt lat="49.83977" lon="2.60397">
        <ele>70.2</ele>
        <time>2022-07-10T10:44:12Z</time>
      </trkpt>
      <trkpt lat="49.83977" lon="2.60397">
        <ele>70.2</ele>
        <time>2022-07-10T10:44:13Z</time>
      </trkpt>
      <trkpt lat="49.83977" lon="2.60396">
        <ele>70.2</ele>
        <time>2022-07-10T10:44:14Z</time>
      </trkpt>
      <trkpt lat="49.83977" lon="2.60396">
        <ele>70.2</ele>
        <time>2022-07-10T10:44:15Z</time>
      </trkpt>
      <trkpt lat="49.83977" lon="2.60396">
        <ele>70.2</ele>
        <time>2022-07-10T10:44:16Z</time>
      </trkpt>
      <trkpt lat="49.83977" lon="2.60397">
        <ele>70.2</ele>
        <time>2022-07-10T10:44:20Z</time>
      </trkpt>
      <trkpt lat="49.83977" lon="2.60397">
        <ele>70.2</ele>
        <time>2022-07-10T10:44:21Z</time>
      </trkpt>
      <trkpt lat="49.83977" lon="2.60397">
        <ele>70.2</ele>
        <time>2022-07-10T10:44:23Z</time>
      </trkpt>
      <trkpt lat="49.83977" lon="2.60397">
        <ele>70.2</ele>
        <time>2022-07-10T10:44:24Z</time>
      </trkpt>
      <trkpt lat="49.83977" lon="2.60397">
        <ele>70.2</ele>
        <time>2022-07-10T10:44:25Z</time>
      </trkpt>
      <trkpt lat="49.83977" lon="2.60398">
        <ele>70.2</ele>
        <time>2022-07-10T10:44:26Z</time>
      </trkpt>
      <trkpt lat="49.83977" lon="2.60399">
        <ele>70.2</ele>
        <time>2022-07-10T10:44:27Z</time>
      </trkpt>
      <trkpt lat="49.83976" lon="2.60399">
        <ele>70.2</ele>
        <time>2022-07-10T10:44:28Z</time>
      </trkpt>
      <trkpt lat="49.83976" lon="2.604">
        <ele>70.2</ele>
        <time>2022-07-10T10:44:29Z</time>
      </trkpt>
      <trkpt lat="49.83977" lon="2.60401">
        <ele>70.2</ele>
        <time>2022-07-10T10:44:30Z</time>
      </trkpt>
      <trkpt lat="49.83977" lon="2.60402">
        <ele>70.2</ele>
        <time>2022-07-10T10:44:31Z</time>
      </trkpt>
      <trkpt lat="49.83978" lon="2.60403">
        <ele>70.2</ele>
        <time>2022-07-10T10:44:33Z</time>
      </trkpt>
      <trkpt lat="49.83978" lon="2.60403">
        <ele>70.2</ele>
        <time>2022-07-10T10:44:34Z</time>
      </trkpt>
      <trkpt lat="49.83978" lon="2.60403">
        <ele>70.2</ele>
        <time>2022-07-10T10:44:35Z</time>
      </trkpt>
      <trkpt lat="49.83978" lon="2.60403">
        <ele>70.2</ele>
        <time>2022-07-10T10:44:36Z</time>
      </trkpt>
      <trkpt lat="49.83978" lon="2.60404">
        <ele>70.2</ele>
        <time>2022-07-10T10:44:37Z</time>
      </trkpt>
      <trkpt lat="49.83978" lon="2.60404">
        <ele>70.1</ele>
        <time>2022-07-10T10:44:38Z</time>
      </trkpt>
      <trkpt lat="49.83979" lon="2.60405">
        <ele>70.1</ele>
        <time>2022-07-10T10:44:39Z</time>
      </trkpt>
      <trkpt lat="49.83979" lon="2.60405">
        <ele>70.1</ele>
        <time>2022-07-10T10:44:40Z</time>
      </trkpt>
      <trkpt lat="49.83979" lon="2.60405">
        <ele>70.1</ele>
        <time>2022-07-10T10:44:41Z</time>
      </trkpt>
      <trkpt lat="49.83979" lon="2.60405">
        <ele>70.1</ele>
        <time>2022-07-10T10:44:42Z</time>
      </trkpt>
      <trkpt lat="49.83979" lon="2.60405">
        <ele>70.1</ele>
        <time>2022-07-10T10:44:43Z</time>
      </trkpt>
      <trkpt lat="49.83979" lon="2.60405">
        <ele>70.1</ele>
        <time>2022-07-10T10:44:44Z</time>
      </trkpt>
      <trkpt lat="49.83979" lon="2.60405">
        <ele>70.1</ele>
        <time>2022-07-10T10:44:45Z</time>
      </trkpt>
      <trkpt lat="49.83979" lon="2.60405">
        <ele>70.1</ele>
        <time>2022-07-10T10:44:46Z</time>
      </trkpt>
      <trkpt lat="49.83979" lon="2.60405">
        <ele>70.1</ele>
        <time>2022-07-10T10:44:47Z</time>
      </trkpt>
      <trkpt lat="49.83979" lon="2.60405">
        <ele>70.1</ele>
        <time>2022-07-10T10:44:48Z</time>
      </trkpt>
      <trkpt lat="49.83979" lon="2.60405">
        <ele>70.1</ele>
        <time>2022-07-10T10:44:49Z</time>
      </trkpt>
      <trkpt lat="49.83979" lon="2.60405">
        <ele>70.1</ele>
        <time>2022-07-10T10:44:50Z</time>
      </trkpt>
      <trkpt lat="49.83979" lon="2.60405">
        <ele>70.1</ele>
        <time>2022-07-10T10:44:51Z</time>
      </trkpt>
      <trkpt lat="49.83979" lon="2.60405">
        <ele>70.1</ele>
        <time>2022-07-10T10:44:52Z</time>
      </trkpt>
      <trkpt lat="49.83979" lon="2.60405">
        <ele>70.1</ele>
        <time>2022-07-10T10:44:53Z</time>
      </trkpt>
      <trkpt lat="49.83979" lon="2.60405">
        <ele>70.1</ele>
        <time>2022-07-10T10:44:54Z</time>
      </trkpt>
      <trkpt lat="49.83979" lon="2.60405">
        <ele>70.1</ele>
        <time>2022-07-10T10:44:55Z</time>
      </trkpt>
      <trkpt lat="49.83979" lon="2.60405">
        <ele>70.1</ele>
        <time>2022-07-10T10:44:56Z</time>
      </trkpt>
      <trkpt lat="49.83979" lon="2.60405">
        <ele>70.1</ele>
        <time>2022-07-10T10:44:57Z</time>
      </trkpt>
      <trkpt lat="49.83979" lon="2.60405">
        <ele>70.1</ele>
        <time>2022-07-10T10:44:58Z</time>
      </trkpt>
      <trkpt lat="49.83979" lon="2.60405">
        <ele>70.1</ele>
        <time>2022-07-10T10:44:59Z</time>
      </trkpt>
      <trkpt lat="49.83979" lon="2.60405">
        <ele>70.1</ele>
        <time>2022-07-10T10:45:00Z</time>
      </trkpt>
      <trkpt lat="49.83979" lon="2.60405">
        <ele>70.1</ele>
        <time>2022-07-10T10:45:01Z</time>
      </trkpt>
      <trkpt lat="49.83979" lon="2.60405">
        <ele>70.1</ele>
        <time>2022-07-10T10:45:02Z</time>
      </trkpt>
      <trkpt lat="49.83979" lon="2.60405">
        <ele>70.1</ele>
        <time>2022-07-10T10:45:03Z</time>
      </trkpt>
      <trkpt lat="49.83979" lon="2.60405">
        <ele>70.1</ele>
        <time>2022-07-10T10:45:04Z</time>
      </trkpt>
      <trkpt lat="49.8398" lon="2.60406">
        <ele>70.1</ele>
        <time>2022-07-10T10:45:05Z</time>
      </trkpt>
      <trkpt lat="49.83981" lon="2.60407">
        <ele>70.1</ele>
        <time>2022-07-10T10:45:06Z</time>
      </trkpt>
      <trkpt lat="49.83981" lon="2.60408">
        <ele>70.1</ele>
        <time>2022-07-10T10:45:07Z</time>
      </trkpt>
      <trkpt lat="49.83981" lon="2.60409">
        <ele>70.1</ele>
        <time>2022-07-10T10:45:08Z</time>
      </trkpt>
      <trkpt lat="49.83982" lon="2.60409">
        <ele>70.1</ele>
        <time>2022-07-10T10:45:09Z</time>
      </trkpt>
      <trkpt lat="49.83982" lon="2.60409">
        <ele>70.1</ele>
        <time>2022-07-10T10:45:10Z</time>
      </trkpt>
      <trkpt lat="49.83982" lon="2.60409">
        <ele>70.1</ele>
        <time>2022-07-10T10:45:11Z</time>
      </trkpt>
      <trkpt lat="49.83983" lon="2.60409">
        <ele>70.1</ele>
        <time>2022-07-10T10:45:12Z</time>
      </trkpt>
      <trkpt lat="49.83984" lon="2.60408">
        <ele>70.1</ele>
        <time>2022-07-10T10:45:14Z</time>
      </trkpt>
      <trkpt lat="49.83984" lon="2.60409">
        <ele>70.1</ele>
        <time>2022-07-10T10:45:15Z</time>
      </trkpt>
      <trkpt lat="49.83984" lon="2.60409">
        <ele>70.1</ele>
        <time>2022-07-10T10:45:16Z</time>
      </trkpt>
      <trkpt lat="49.83984" lon="2.60409">
        <ele>70.1</ele>
        <time>2022-07-10T10:45:17Z</time>
      </trkpt>
      <trkpt lat="49.83985" lon="2.60409">
        <ele>70.1</ele>
        <time>2022-07-10T10:45:18Z</time>
      </trkpt>
      <trkpt lat="49.83985" lon="2.60409">
        <ele>70.1</ele>
        <time>2022-07-10T10:45:19Z</time>
      </trkpt>
      <trkpt lat="49.83985" lon="2.60409">
        <ele>70.1</ele>
        <time>2022-07-10T10:45:20Z</time>
      </trkpt>
      <trkpt lat="49.83986" lon="2.60409">
        <ele>70.1</ele>
        <time>2022-07-10T10:45:21Z</time>
      </trkpt>
      <trkpt lat="49.83986" lon="2.60409">
        <ele>70.1</ele>
        <time>2022-07-10T10:45:22Z</time>
      </trkpt>
      <trkpt lat="49.83986" lon="2.60409">
        <ele>70.1</ele>
        <time>2022-07-10T10:45:23Z</time>
      </trkpt>
      <trkpt lat="49.83987" lon="2.60408">
        <ele>70.1</ele>
        <time>2022-07-10T10:45:24Z</time>
      </trkpt>
      <trkpt lat="49.83987" lon="2.60408">
        <ele>70.1</ele>
        <time>2022-07-10T10:45:25Z</time>
      </trkpt>
      <trkpt lat="49.83987" lon="2.60408">
        <ele>70.1</ele>
        <time>2022-07-10T10:45:26Z</time>
      </trkpt>
      <trkpt lat="49.83987" lon="2.60408">
        <ele>70.1</ele>
        <time>2022-07-10T10:45:27Z</time>
      </trkpt>
      <trkpt lat="49.83987" lon="2.60408">
        <ele>70.1</ele>
        <time>2022-07-10T10:45:28Z</time>
      </trkpt>
      <trkpt lat="49.83987" lon="2.60409">
        <ele>70.1</ele>
        <time>2022-07-10T10:45:29Z</time>
      </trkpt>
      <trkpt lat="49.83987" lon="2.60409">
        <ele>70.1</ele>
        <time>2022-07-10T10:45:30Z</time>
      </trkpt>
      <trkpt lat="49.83987" lon="2.60409">
        <ele>70.1</ele>
        <time>2022-07-10T10:45:31Z</time>
      </trkpt>
      <trkpt lat="49.83987" lon="2.60409">
        <ele>70.1</ele>
        <time>2022-07-10T10:45:32Z</time>
      </trkpt>
      <trkpt lat="49.83987" lon="2.60409">
        <ele>70.1</ele>
        <time>2022-07-10T10:45:33Z</time>
      </trkpt>
      <trkpt lat="49.83987" lon="2.60409">
        <ele>70.1</ele>
        <time>2022-07-10T10:45:34Z</time>
      </trkpt>
      <trkpt lat="49.83987" lon="2.60409">
        <ele>70.1</ele>
        <time>2022-07-10T10:45:35Z</time>
      </trkpt>
      <trkpt lat="49.83987" lon="2.60409">
        <ele>70.1</ele>
        <time>2022-07-10T10:45:36Z</time>
      </trkpt>
      <trkpt lat="49.83987" lon="2.60409">
        <ele>70.1</ele>
        <time>2022-07-10T10:45:37Z</time>
      </trkpt>
      <trkpt lat="49.83987" lon="2.60409">
        <ele>70.1</ele>
        <time>2022-07-10T10:45:38Z</time>
      </trkpt>
      <trkpt lat="49.83987" lon="2.60409">
        <ele>70.1</ele>
        <time>2022-07-10T10:45:39Z</time>
      </trkpt>
      <trkpt lat="49.83987" lon="2.60409">
        <ele>70.1</ele>
        <time>2022-07-10T10:45:40Z</time>
      </trkpt>
      <trkpt lat="49.83987" lon="2.60409">
        <ele>70.1</ele>
        <time>2022-07-10T10:45:41Z</time>
      </trkpt>
      <trkpt lat="49.83986" lon="2.60408">
        <ele>70.1</ele>
        <time>2022-07-10T10:45:42Z</time>
      </trkpt>
      <trkpt lat="49.83986" lon="2.60408">
        <ele>70.1</ele>
        <time>2022-07-10T10:45:43Z</time>
      </trkpt>
      <trkpt lat="49.83986" lon="2.60408">
        <ele>70.1</ele>
        <time>2022-07-10T10:45:44Z</time>
      </trkpt>
      <trkpt lat="49.83985" lon="2.60408">
        <ele>70.1</ele>
        <time>2022-07-10T10:45:45Z</time>
      </trkpt>
      <trkpt lat="49.83985" lon="2.60408">
        <ele>70.1</ele>
        <time>2022-07-10T10:45:46Z</time>
      </trkpt>
      <trkpt lat="49.83985" lon="2.60408">
        <ele>70.1</ele>
        <time>2022-07-10T10:45:47Z</time>
      </trkpt>
      <trkpt lat="49.83984" lon="2.60408">
        <ele>70.1</ele>
        <time>2022-07-10T10:45:49Z</time>
      </trkpt>
      <trkpt lat="49.83983" lon="2.60408">
        <ele>70.1</ele>
        <time>2022-07-10T10:45:50Z</time>
      </trkpt>
      <trkpt lat="49.83983" lon="2.60408">
        <ele>70.2</ele>
        <time>2022-07-10T10:45:51Z</time>
      </trkpt>
      <trkpt lat="49.83983" lon="2.60408">
        <ele>70.2</ele>
        <time>2022-07-10T10:45:52Z</time>
      </trkpt>
      <trkpt lat="49.83982" lon="2.60408">
        <ele>70.2</ele>
        <time>2022-07-10T10:45:53Z</time>
      </trkpt>
      <trkpt lat="49.83982" lon="2.60408">
        <ele>70.2</ele>
        <time>2022-07-10T10:45:54Z</time>
      </trkpt>
      <trkpt lat="49.83981" lon="2.60408">
        <ele>70.2</ele>
        <time>2022-07-10T10:45:55Z</time>
      </trkpt>
      <trkpt lat="49.83981" lon="2.60408">
        <ele>70.2</ele>
        <time>2022-07-10T10:45:56Z</time>
      </trkpt>
      <trkpt lat="49.8398" lon="2.60408">
        <ele>70.2</ele>
        <time>2022-07-10T10:45:57Z</time>
      </trkpt>
      <trkpt lat="49.83979" lon="2.60408">
        <ele>70.2</ele>
        <time>2022-07-10T10:45:58Z</time>
      </trkpt>
      <trkpt lat="49.83978" lon="2.60408">
        <ele>70.2</ele>
        <time>2022-07-10T10:45:59Z</time>
      </trkpt>
      <trkpt lat="49.83977" lon="2.60408">
        <ele>70.2</ele>
        <time>2022-07-10T10:46:00Z</time>
      </trkpt>
      <trkpt lat="49.83976" lon="2.60407">
        <ele>70.2</ele>
        <time>2022-07-10T10:46:01Z</time>
      </trkpt>
      <trkpt lat="49.83975" lon="2.60407">
        <ele>70.2</ele>
        <time>2022-07-10T10:46:02Z</time>
      </trkpt>
      <trkpt lat="49.83973" lon="2.60407">
        <ele>70.2</ele>
        <time>2022-07-10T10:46:04Z</time>
      </trkpt>
      <trkpt lat="49.83971" lon="2.60406">
        <ele>70.2</ele>
        <time>2022-07-10T10:46:05Z</time>
      </trkpt>
      <trkpt lat="49.83969" lon="2.60405">
        <ele>70.2</ele>
        <time>2022-07-10T10:46:06Z</time>
      </trkpt>
      <trkpt lat="49.83969" lon="2.60405">
        <ele>70.2</ele>
        <time>2022-07-10T10:46:07Z</time>
      </trkpt>
      <trkpt lat="49.83968" lon="2.60405">
        <ele>70.2</ele>
        <time>2022-07-10T10:46:08Z</time>
      </trkpt>
      <trkpt lat="49.83968" lon="2.60403">
        <ele>70.2</ele>
        <time>2022-07-10T10:46:09Z</time>
      </trkpt>
      <trkpt lat="49.83967" lon="2.60403">
        <ele>70.2</ele>
        <time>2022-07-10T10:46:10Z</time>
      </trkpt>
      <trkpt lat="49.83966" lon="2.60402">
        <ele>70.3</ele>
        <time>2022-07-10T10:46:11Z</time>
      </trkpt>
      <trkpt lat="49.83964" lon="2.60401">
        <ele>70.3</ele>
        <time>2022-07-10T10:46:13Z</time>
      </trkpt>
      <trkpt lat="49.83963" lon="2.60401">
        <ele>70.3</ele>
        <time>2022-07-10T10:46:14Z</time>
      </trkpt>
      <trkpt lat="49.83961" lon="2.60401">
        <ele>70.3</ele>
        <time>2022-07-10T10:46:15Z</time>
      </trkpt>
      <trkpt lat="49.83959" lon="2.604">
        <ele>70.3</ele>
        <time>2022-07-10T10:46:17Z</time>
      </trkpt>
      <trkpt lat="49.83958" lon="2.604">
        <ele>70.3</ele>
        <time>2022-07-10T10:46:18Z</time>
      </trkpt>
      <trkpt lat="49.83958" lon="2.60399">
        <ele>70.3</ele>
        <time>2022-07-10T10:46:19Z</time>
      </trkpt>
      <trkpt lat="49.83957" lon="2.60398">
        <ele>70.4</ele>
        <time>2022-07-10T10:46:21Z</time>
      </trkpt>
      <trkpt lat="49.83956" lon="2.60398">
        <ele>70.4</ele>
        <time>2022-07-10T10:46:22Z</time>
      </trkpt>
      <trkpt lat="49.83955" lon="2.60398">
        <ele>70.4</ele>
        <time>2022-07-10T10:46:23Z</time>
      </trkpt>
      <trkpt lat="49.83953" lon="2.60397">
        <ele>70.4</ele>
        <time>2022-07-10T10:46:24Z</time>
      </trkpt>
      <trkpt lat="49.83952" lon="2.60397">
        <ele>70.5</ele>
        <time>2022-07-10T10:46:25Z</time>
      </trkpt>
      <trkpt lat="49.83952" lon="2.60396">
        <ele>70.5</ele>
        <time>2022-07-10T10:46:26Z</time>
      </trkpt>
      <trkpt lat="49.83951" lon="2.60396">
        <ele>70.5</ele>
        <time>2022-07-10T10:46:27Z</time>
      </trkpt>
      <trkpt lat="49.8395" lon="2.60395">
        <ele>70.5</ele>
        <time>2022-07-10T10:46:28Z</time>
      </trkpt>
      <trkpt lat="49.83948" lon="2.60395">
        <ele>70.6</ele>
        <time>2022-07-10T10:46:29Z</time>
      </trkpt>
      <trkpt lat="49.83946" lon="2.60395">
        <ele>70.6</ele>
        <time>2022-07-10T10:46:31Z</time>
      </trkpt>
      <trkpt lat="49.83945" lon="2.60395">
        <ele>70.6</ele>
        <time>2022-07-10T10:46:32Z</time>
      </trkpt>
      <trkpt lat="49.83944" lon="2.60395">
        <ele>70.7</ele>
        <time>2022-07-10T10:46:33Z</time>
      </trkpt>
      <trkpt lat="49.83941" lon="2.60394">
        <ele>70.7</ele>
        <time>2022-07-10T10:46:34Z</time>
      </trkpt>
      <trkpt lat="49.83941" lon="2.60394">
        <ele>70.7</ele>
        <time>2022-07-10T10:46:35Z</time>
      </trkpt>
      <trkpt lat="49.8394" lon="2.60394">
        <ele>70.8</ele>
        <time>2022-07-10T10:46:36Z</time>
      </trkpt>
      <trkpt lat="49.83938" lon="2.60394">
        <ele>70.8</ele>
        <time>2022-07-10T10:46:37Z</time>
      </trkpt>
      <trkpt lat="49.83937" lon="2.60394">
        <ele>70.8</ele>
        <time>2022-07-10T10:46:38Z</time>
      </trkpt>
      <trkpt lat="49.83935" lon="2.60394">
        <ele>70.9</ele>
        <time>2022-07-10T10:46:40Z</time>
      </trkpt>
      <trkpt lat="49.83934" lon="2.60393">
        <ele>70.9</ele>
        <time>2022-07-10T10:46:41Z</time>
      </trkpt>
      <trkpt lat="49.83933" lon="2.60393">
        <ele>70.9</ele>
        <time>2022-07-10T10:46:42Z</time>
      </trkpt>
      <trkpt lat="49.8393" lon="2.60392">
        <ele>71</ele>
        <time>2022-07-10T10:46:43Z</time>
      </trkpt>
      <trkpt lat="49.83929" lon="2.60392">
        <ele>71.1</ele>
        <time>2022-07-10T10:46:45Z</time>
      </trkpt>
      <trkpt lat="49.83928" lon="2.60392">
        <ele>71.1</ele>
        <time>2022-07-10T10:46:46Z</time>
      </trkpt>
      <trkpt lat="49.83927" lon="2.60392">
        <ele>71.1</ele>
        <time>2022-07-10T10:46:47Z</time>
      </trkpt>
      <trkpt lat="49.83926" lon="2.60391">
        <ele>71.2</ele>
        <time>2022-07-10T10:46:48Z</time>
      </trkpt>
      <trkpt lat="49.83923" lon="2.60391">
        <ele>71.3</ele>
        <time>2022-07-10T10:46:49Z</time>
      </trkpt>
      <trkpt lat="49.83922" lon="2.6039">
        <ele>71.3</ele>
        <time>2022-07-10T10:46:51Z</time>
      </trkpt>
      <trkpt lat="49.83921" lon="2.6039">
        <ele>71.3</ele>
        <time>2022-07-10T10:46:52Z</time>
      </trkpt>
      <trkpt lat="49.8392" lon="2.6039">
        <ele>71.4</ele>
        <time>2022-07-10T10:46:53Z</time>
      </trkpt>
      <trkpt lat="49.83919" lon="2.60389">
        <ele>71.4</ele>
        <time>2022-07-10T10:46:54Z</time>
      </trkpt>
      <trkpt lat="49.83917" lon="2.60389">
        <ele>71.5</ele>
        <time>2022-07-10T10:46:55Z</time>
      </trkpt>
      <trkpt lat="49.83916" lon="2.60389">
        <ele>71.5</ele>
        <time>2022-07-10T10:46:56Z</time>
      </trkpt>
      <trkpt lat="49.83915" lon="2.60388">
        <ele>71.5</ele>
        <time>2022-07-10T10:46:57Z</time>
      </trkpt>
      <trkpt lat="49.83915" lon="2.60388">
        <ele>71.6</ele>
        <time>2022-07-10T10:46:58Z</time>
      </trkpt>
      <trkpt lat="49.83914" lon="2.60388">
        <ele>71.6</ele>
        <time>2022-07-10T10:47:00Z</time>
      </trkpt>
      <trkpt lat="49.83913" lon="2.60387">
        <ele>71.6</ele>
        <time>2022-07-10T10:47:01Z</time>
      </trkpt>
      <trkpt lat="49.83912" lon="2.60387">
        <ele>71.7</ele>
        <time>2022-07-10T10:47:02Z</time>
      </trkpt>
      <trkpt lat="49.8391" lon="2.60387">
        <ele>71.7</ele>
        <time>2022-07-10T10:47:03Z</time>
      </trkpt>
      <trkpt lat="49.83908" lon="2.60386">
        <ele>71.8</ele>
        <time>2022-07-10T10:47:04Z</time>
      </trkpt>
      <trkpt lat="49.83907" lon="2.60387">
        <ele>71.9</ele>
        <time>2022-07-10T10:47:05Z</time>
      </trkpt>
      <trkpt lat="49.83906" lon="2.60387">
        <ele>71.9</ele>
        <time>2022-07-10T10:47:06Z</time>
      </trkpt>
      <trkpt lat="49.83904" lon="2.60387">
        <ele>72</ele>
        <time>2022-07-10T10:47:07Z</time>
      </trkpt>
      <trkpt lat="49.83903" lon="2.60387">
        <ele>72</ele>
        <time>2022-07-10T10:47:08Z</time>
      </trkpt>
      <trkpt lat="49.83902" lon="2.60387">
        <ele>72</ele>
        <time>2022-07-10T10:47:10Z</time>
      </trkpt>
      <trkpt lat="49.839" lon="2.60387">
        <ele>72.1</ele>
        <time>2022-07-10T10:47:11Z</time>
      </trkpt>
      <trkpt lat="49.83899" lon="2.60387">
        <ele>72.2</ele>
        <time>2022-07-10T10:47:12Z</time>
      </trkpt>
      <trkpt lat="49.83897" lon="2.60387">
        <ele>72.2</ele>
        <time>2022-07-10T10:47:13Z</time>
      </trkpt>
      <trkpt lat="49.83895" lon="2.60387">
        <ele>72.3</ele>
        <time>2022-07-10T10:47:14Z</time>
      </trkpt>
      <trkpt lat="49.83894" lon="2.60387">
        <ele>72.4</ele>
        <time>2022-07-10T10:47:15Z</time>
      </trkpt>
      <trkpt lat="49.83893" lon="2.60387">
        <ele>72.4</ele>
        <time>2022-07-10T10:47:16Z</time>
      </trkpt>
      <trkpt lat="49.83891" lon="2.60387">
        <ele>72.5</ele>
        <time>2022-07-10T10:47:18Z</time>
      </trkpt>
      <trkpt lat="49.8389" lon="2.60387">
        <ele>72.6</ele>
        <time>2022-07-10T10:47:19Z</time>
      </trkpt>
      <trkpt lat="49.83888" lon="2.60386">
        <ele>72.6</ele>
        <time>2022-07-10T10:47:20Z</time>
      </trkpt>
      <trkpt lat="49.83887" lon="2.60386">
        <ele>72.7</ele>
        <time>2022-07-10T10:47:21Z</time>
      </trkpt>
      <trkpt lat="49.83885" lon="2.60384">
        <ele>72.8</ele>
        <time>2022-07-10T10:47:23Z</time>
      </trkpt>
      <trkpt lat="49.83884" lon="2.60383">
        <ele>72.9</ele>
        <time>2022-07-10T10:47:24Z</time>
      </trkpt>
      <trkpt lat="49.83883" lon="2.60382">
        <ele>72.9</ele>
        <time>2022-07-10T10:47:25Z</time>
      </trkpt>
      <trkpt lat="49.83882" lon="2.60381">
        <ele>73</ele>
        <time>2022-07-10T10:47:26Z</time>
      </trkpt>
      <trkpt lat="49.8388" lon="2.6038">
        <ele>73.1</ele>
        <time>2022-07-10T10:47:28Z</time>
      </trkpt>
      <trkpt lat="49.83879" lon="2.6038">
        <ele>73.2</ele>
        <time>2022-07-10T10:47:29Z</time>
      </trkpt>
      <trkpt lat="49.83878" lon="2.6038">
        <ele>73.3</ele>
        <time>2022-07-10T10:47:30Z</time>
      </trkpt>
      <trkpt lat="49.83877" lon="2.60379">
        <ele>73.3</ele>
        <time>2022-07-10T10:47:31Z</time>
      </trkpt>
      <trkpt lat="49.83875" lon="2.60379">
        <ele>73.4</ele>
        <time>2022-07-10T10:47:32Z</time>
      </trkpt>
      <trkpt lat="49.83874" lon="2.60378">
        <ele>73.5</ele>
        <time>2022-07-10T10:47:33Z</time>
      </trkpt>
      <trkpt lat="49.83872" lon="2.60377">
        <ele>73.6</ele>
        <time>2022-07-10T10:47:34Z</time>
      </trkpt>
      <trkpt lat="49.83871" lon="2.60377">
        <ele>73.7</ele>
        <time>2022-07-10T10:47:35Z</time>
      </trkpt>
      <trkpt lat="49.8387" lon="2.60376">
        <ele>73.8</ele>
        <time>2022-07-10T10:47:37Z</time>
      </trkpt>
      <trkpt lat="49.83869" lon="2.60376">
        <ele>73.8</ele>
        <time>2022-07-10T10:47:38Z</time>
      </trkpt>
      <trkpt lat="49.83868" lon="2.60375">
        <ele>73.9</ele>
        <time>2022-07-10T10:47:39Z</time>
      </trkpt>
      <trkpt lat="49.83867" lon="2.60375">
        <ele>74</ele>
        <time>2022-07-10T10:47:40Z</time>
      </trkpt>
      <trkpt lat="49.83866" lon="2.60374">
        <ele>74</ele>
        <time>2022-07-10T10:47:41Z</time>
      </trkpt>
      <trkpt lat="49.83864" lon="2.60373">
        <ele>74.2</ele>
        <time>2022-07-10T10:47:43Z</time>
      </trkpt>
      <trkpt lat="49.83863" lon="2.60373">
        <ele>74.2</ele>
        <time>2022-07-10T10:47:44Z</time>
      </trkpt>
      <trkpt lat="49.83862" lon="2.60372">
        <ele>74.3</ele>
        <time>2022-07-10T10:47:45Z</time>
      </trkpt>
      <trkpt lat="49.83861" lon="2.60371">
        <ele>74.4</ele>
        <time>2022-07-10T10:47:46Z</time>
      </trkpt>
      <trkpt lat="49.83859" lon="2.6037">
        <ele>74.5</ele>
        <time>2022-07-10T10:47:48Z</time>
      </trkpt>
      <trkpt lat="49.83859" lon="2.6037">
        <ele>74.5</ele>
        <time>2022-07-10T10:47:49Z</time>
      </trkpt>
      <trkpt lat="49.83858" lon="2.60369">
        <ele>74.7</ele>
        <time>2022-07-10T10:47:50Z</time>
      </trkpt>
      <trkpt lat="49.83857" lon="2.60368">
        <ele>74.8</ele>
        <time>2022-07-10T10:47:51Z</time>
      </trkpt>
      <trkpt lat="49.83855" lon="2.60367">
        <ele>74.9</ele>
        <time>2022-07-10T10:47:53Z</time>
      </trkpt>
      <trkpt lat="49.83855" lon="2.60366">
        <ele>75</ele>
        <time>2022-07-10T10:47:54Z</time>
      </trkpt>
      <trkpt lat="49.83854" lon="2.60365">
        <ele>75.1</ele>
        <time>2022-07-10T10:47:55Z</time>
      </trkpt>
      <trkpt lat="49.83853" lon="2.60364">
        <ele>75.1</ele>
        <time>2022-07-10T10:47:56Z</time>
      </trkpt>
      <trkpt lat="49.83851" lon="2.60363">
        <ele>75.3</ele>
        <time>2022-07-10T10:47:58Z</time>
      </trkpt>
      <trkpt lat="49.8385" lon="2.60362">
        <ele>75.4</ele>
        <time>2022-07-10T10:47:59Z</time>
      </trkpt>
      <trkpt lat="49.83849" lon="2.60362">
        <ele>75.5</ele>
        <time>2022-07-10T10:48:00Z</time>
      </trkpt>
      <trkpt lat="49.83849" lon="2.60361">
        <ele>75.6</ele>
        <time>2022-07-10T10:48:02Z</time>
      </trkpt>
      <trkpt lat="49.83847" lon="2.6036">
        <ele>75.6</ele>
        <time>2022-07-10T10:48:03Z</time>
      </trkpt>
      <trkpt lat="49.83847" lon="2.60359">
        <ele>75.7</ele>
        <time>2022-07-10T10:48:04Z</time>
      </trkpt>
      <trkpt lat="49.83846" lon="2.60359">
        <ele>75.8</ele>
        <time>2022-07-10T10:48:05Z</time>
      </trkpt>
      <trkpt lat="49.83845" lon="2.60358">
        <ele>75.9</ele>
        <time>2022-07-10T10:48:07Z</time>
      </trkpt>
      <trkpt lat="49.83843" lon="2.60358">
        <ele>76</ele>
        <time>2022-07-10T10:48:08Z</time>
      </trkpt>
      <trkpt lat="49.83843" lon="2.60357">
        <ele>76.1</ele>
        <time>2022-07-10T10:48:09Z</time>
      </trkpt>
      <trkpt lat="49.83842" lon="2.60357">
        <ele>76.1</ele>
        <time>2022-07-10T10:48:11Z</time>
      </trkpt>
      <trkpt lat="49.83842" lon="2.60356">
        <ele>76.2</ele>
        <time>2022-07-10T10:48:12Z</time>
      </trkpt>
      <trkpt lat="49.83843" lon="2.60356">
        <ele>76.2</ele>
        <time>2022-07-10T10:48:13Z</time>
      </trkpt>
      <trkpt lat="49.83844" lon="2.60356">
        <ele>76.3</ele>
        <time>2022-07-10T10:48:14Z</time>
      </trkpt>
      <trkpt lat="49.83845" lon="2.60356">
        <ele>76.4</ele>
        <time>2022-07-10T10:48:16Z</time>
      </trkpt>
      <trkpt lat="49.83846" lon="2.60355">
        <ele>76.5</ele>
        <time>2022-07-10T10:48:17Z</time>
      </trkpt>
      <trkpt lat="49.83847" lon="2.60355">
        <ele>76.6</ele>
        <time>2022-07-10T10:48:18Z</time>
      </trkpt>
      <trkpt lat="49.83848" lon="2.60354">
        <ele>76.7</ele>
        <time>2022-07-10T10:48:19Z</time>
      </trkpt>
      <trkpt lat="49.83849" lon="2.60354">
        <ele>76.7</ele>
        <time>2022-07-10T10:48:20Z</time>
      </trkpt>
      <trkpt lat="49.8385" lon="2.60354">
        <ele>76.8</ele>
        <time>2022-07-10T10:48:21Z</time>
      </trkpt>
      <trkpt lat="49.8385" lon="2.60353">
        <ele>76.8</ele>
        <time>2022-07-10T10:48:22Z</time>
      </trkpt>
      <trkpt lat="49.83851" lon="2.60353">
        <ele>76.9</ele>
        <time>2022-07-10T10:48:23Z</time>
      </trkpt>
      <trkpt lat="49.83852" lon="2.60353">
        <ele>76.9</ele>
        <time>2022-07-10T10:48:24Z</time>
      </trkpt>
      <trkpt lat="49.83852" lon="2.60352">
        <ele>77</ele>
        <time>2022-07-10T10:48:25Z</time>
      </trkpt>
      <trkpt lat="49.83853" lon="2.60351">
        <ele>77</ele>
        <time>2022-07-10T10:48:26Z</time>
      </trkpt>
      <trkpt lat="49.83853" lon="2.6035">
        <ele>77.1</ele>
        <time>2022-07-10T10:48:27Z</time>
      </trkpt>
      <trkpt lat="49.83854" lon="2.60349">
        <ele>77.2</ele>
        <time>2022-07-10T10:48:29Z</time>
      </trkpt>
      <trkpt lat="49.83853" lon="2.60348">
        <ele>77.2</ele>
        <time>2022-07-10T10:48:30Z</time>
      </trkpt>
      <trkpt lat="49.83853" lon="2.60347">
        <ele>77.3</ele>
        <time>2022-07-10T10:48:31Z</time>
      </trkpt>
      <trkpt lat="49.83852" lon="2.60345">
        <ele>77.4</ele>
        <time>2022-07-10T10:48:32Z</time>
      </trkpt>
      <trkpt lat="49.83849" lon="2.60343">
        <ele>77.5</ele>
        <time>2022-07-10T10:48:33Z</time>
      </trkpt>
      <trkpt lat="49.83848" lon="2.60343">
        <ele>77.6</ele>
        <time>2022-07-10T10:48:34Z</time>
      </trkpt>
      <trkpt lat="49.83846" lon="2.60342">
        <ele>77.7</ele>
        <time>2022-07-10T10:48:35Z</time>
      </trkpt>
      <trkpt lat="49.83844" lon="2.60342">
        <ele>77.8</ele>
        <time>2022-07-10T10:48:37Z</time>
      </trkpt>
      <trkpt lat="49.83841" lon="2.60341">
        <ele>77.9</ele>
        <time>2022-07-10T10:48:38Z</time>
      </trkpt>
      <trkpt lat="49.8384" lon="2.6034">
        <ele>78</ele>
        <time>2022-07-10T10:48:39Z</time>
      </trkpt>
      <trkpt lat="49.83839" lon="2.6034">
        <ele>78.1</ele>
        <time>2022-07-10T10:48:40Z</time>
      </trkpt>
      <trkpt lat="49.83838" lon="2.6034">
        <ele>78.1</ele>
        <time>2022-07-10T10:48:41Z</time>
      </trkpt>
      <trkpt lat="49.83837" lon="2.6034">
        <ele>78.2</ele>
        <time>2022-07-10T10:48:42Z</time>
      </trkpt>
      <trkpt lat="49.83834" lon="2.60339">
        <ele>78.3</ele>
        <time>2022-07-10T10:48:43Z</time>
      </trkpt>
      <trkpt lat="49.83833" lon="2.60338">
        <ele>78.3</ele>
        <time>2022-07-10T10:48:45Z</time>
      </trkpt>
      <trkpt lat="49.83832" lon="2.60338">
        <ele>78.4</ele>
        <time>2022-07-10T10:48:46Z</time>
      </trkpt>
      <trkpt lat="49.83831" lon="2.60338">
        <ele>78.4</ele>
        <time>2022-07-10T10:48:47Z</time>
      </trkpt>
      <trkpt lat="49.83831" lon="2.60337">
        <ele>78.5</ele>
        <time>2022-07-10T10:48:48Z</time>
      </trkpt>
      <trkpt lat="49.83829" lon="2.60336">
        <ele>78.5</ele>
        <time>2022-07-10T10:48:49Z</time>
      </trkpt>
      <trkpt lat="49.83828" lon="2.60338">
        <ele>78.6</ele>
        <time>2022-07-10T10:48:50Z</time>
      </trkpt>
      <trkpt lat="49.83828" lon="2.6034">
        <ele>78.7</ele>
        <time>2022-07-10T10:48:51Z</time>
      </trkpt>
      <trkpt lat="49.83826" lon="2.60339">
        <ele>78.8</ele>
        <time>2022-07-10T10:48:52Z</time>
      </trkpt>
      <trkpt lat="49.83825" lon="2.60338">
        <ele>78.8</ele>
        <time>2022-07-10T10:48:54Z</time>
      </trkpt>
      <trkpt lat="49.83824" lon="2.60338">
        <ele>78.8</ele>
        <time>2022-07-10T10:48:55Z</time>
      </trkpt>
      <trkpt lat="49.83822" lon="2.60336">
        <ele>78.9</ele>
        <time>2022-07-10T10:48:56Z</time>
      </trkpt>
      <trkpt lat="49.83821" lon="2.60335">
        <ele>78.9</ele>
        <time>2022-07-10T10:48:57Z</time>
      </trkpt>
      <trkpt lat="49.8382" lon="2.60334">
        <ele>79</ele>
        <time>2022-07-10T10:48:58Z</time>
      </trkpt>
      <trkpt lat="49.83818" lon="2.60333">
        <ele>79.1</ele>
        <time>2022-07-10T10:48:59Z</time>
      </trkpt>
      <trkpt lat="49.83817" lon="2.60332">
        <ele>79.2</ele>
        <time>2022-07-10T10:49:00Z</time>
      </trkpt>
      <trkpt lat="49.83815" lon="2.6033">
        <ele>79.2</ele>
        <time>2022-07-10T10:49:02Z</time>
      </trkpt>
      <trkpt lat="49.83814" lon="2.60329">
        <ele>79.3</ele>
        <time>2022-07-10T10:49:03Z</time>
      </trkpt>
      <trkpt lat="49.83812" lon="2.60328">
        <ele>79.3</ele>
        <time>2022-07-10T10:49:04Z</time>
      </trkpt>
      <trkpt lat="49.83811" lon="2.60327">
        <ele>79.4</ele>
        <time>2022-07-10T10:49:05Z</time>
      </trkpt>
      <trkpt lat="49.83809" lon="2.60325">
        <ele>79.4</ele>
        <time>2022-07-10T10:49:07Z</time>
      </trkpt>
      <trkpt lat="49.83807" lon="2.60324">
        <ele>79.6</ele>
        <time>2022-07-10T10:49:08Z</time>
      </trkpt>
      <trkpt lat="49.83806" lon="2.60323">
        <ele>79.6</ele>
        <time>2022-07-10T10:49:09Z</time>
      </trkpt>
      <trkpt lat="49.83806" lon="2.60322">
        <ele>79.6</ele>
        <time>2022-07-10T10:49:10Z</time>
      </trkpt>
      <trkpt lat="49.83804" lon="2.6032">
        <ele>79.7</ele>
        <time>2022-07-10T10:49:11Z</time>
      </trkpt>
      <trkpt lat="49.83803" lon="2.60319">
        <ele>79.7</ele>
        <time>2022-07-10T10:49:12Z</time>
      </trkpt>
      <trkpt lat="49.83802" lon="2.60318">
        <ele>79.7</ele>
        <time>2022-07-10T10:49:13Z</time>
      </trkpt>
      <trkpt lat="49.83801" lon="2.60317">
        <ele>79.8</ele>
        <time>2022-07-10T10:49:14Z</time>
      </trkpt>
      <trkpt lat="49.838" lon="2.60316">
        <ele>79.8</ele>
        <time>2022-07-10T10:49:16Z</time>
      </trkpt>
      <trkpt lat="49.83798" lon="2.60315">
        <ele>79.9</ele>
        <time>2022-07-10T10:49:17Z</time>
      </trkpt>
      <trkpt lat="49.83798" lon="2.60314">
        <ele>79.9</ele>
        <time>2022-07-10T10:49:18Z</time>
      </trkpt>
      <trkpt lat="49.83797" lon="2.60314">
        <ele>80</ele>
        <time>2022-07-10T10:49:19Z</time>
      </trkpt>
      <trkpt lat="49.83795" lon="2.60312">
        <ele>80.1</ele>
        <time>2022-07-10T10:49:20Z</time>
      </trkpt>
      <trkpt lat="49.83794" lon="2.60311">
        <ele>80.1</ele>
        <time>2022-07-10T10:49:21Z</time>
      </trkpt>
      <trkpt lat="49.83793" lon="2.6031">
        <ele>80.1</ele>
        <time>2022-07-10T10:49:22Z</time>
      </trkpt>
      <trkpt lat="49.83792" lon="2.60309">
        <ele>80.2</ele>
        <time>2022-07-10T10:49:23Z</time>
      </trkpt>
      <trkpt lat="49.83792" lon="2.60308">
        <ele>80.2</ele>
        <time>2022-07-10T10:49:24Z</time>
      </trkpt>
      <trkpt lat="49.8379" lon="2.60307">
        <ele>80.2</ele>
        <time>2022-07-10T10:49:25Z</time>
      </trkpt>
      <trkpt lat="49.83789" lon="2.60305">
        <ele>80.3</ele>
        <time>2022-07-10T10:49:26Z</time>
      </trkpt>
      <trkpt lat="49.83788" lon="2.60305">
        <ele>80.3</ele>
        <time>2022-07-10T10:49:27Z</time>
      </trkpt>
      <trkpt lat="49.83788" lon="2.60304">
        <ele>80.3</ele>
        <time>2022-07-10T10:49:29Z</time>
      </trkpt>
      <trkpt lat="49.83787" lon="2.60303">
        <ele>80.4</ele>
        <time>2022-07-10T10:49:30Z</time>
      </trkpt>
      <trkpt lat="49.83786" lon="2.60302">
        <ele>80.4</ele>
        <time>2022-07-10T10:49:31Z</time>
      </trkpt>
      <trkpt lat="49.83785" lon="2.60302">
        <ele>80.4</ele>
        <time>2022-07-10T10:49:32Z</time>
      </trkpt>
      <trkpt lat="49.83784" lon="2.60301">
        <ele>80.5</ele>
        <time>2022-07-10T10:49:33Z</time>
      </trkpt>
      <trkpt lat="49.83783" lon="2.603">
        <ele>80.6</ele>
        <time>2022-07-10T10:49:34Z</time>
      </trkpt>
      <trkpt lat="49.83782" lon="2.603">
        <ele>80.6</ele>
        <time>2022-07-10T10:49:36Z</time>
      </trkpt>
      <trkpt lat="49.83781" lon="2.60298">
        <ele>80.7</ele>
        <time>2022-07-10T10:49:37Z</time>
      </trkpt>
      <trkpt lat="49.8378" lon="2.60298">
        <ele>80.7</ele>
        <time>2022-07-10T10:49:38Z</time>
      </trkpt>
      <trkpt lat="49.8378" lon="2.60297">
        <ele>80.7</ele>
        <time>2022-07-10T10:49:39Z</time>
      </trkpt>
      <trkpt lat="49.83779" lon="2.60296">
        <ele>80.8</ele>
        <time>2022-07-10T10:49:40Z</time>
      </trkpt>
      <trkpt lat="49.83778" lon="2.60294">
        <ele>80.8</ele>
        <time>2022-07-10T10:49:41Z</time>
      </trkpt>
      <trkpt lat="49.83777" lon="2.60293">
        <ele>80.8</ele>
        <time>2022-07-10T10:49:42Z</time>
      </trkpt>
      <trkpt lat="49.83777" lon="2.60292">
        <ele>80.9</ele>
        <time>2022-07-10T10:49:43Z</time>
      </trkpt>
      <trkpt lat="49.83776" lon="2.60291">
        <ele>80.9</ele>
        <time>2022-07-10T10:49:44Z</time>
      </trkpt>
      <trkpt lat="49.83775" lon="2.6029">
        <ele>80.9</ele>
        <time>2022-07-10T10:49:45Z</time>
      </trkpt>
      <trkpt lat="49.83773" lon="2.60287">
        <ele>81</ele>
        <time>2022-07-10T10:49:47Z</time>
      </trkpt>
      <trkpt lat="49.83773" lon="2.60287">
        <ele>81</ele>
        <time>2022-07-10T10:49:48Z</time>
      </trkpt>
      <trkpt lat="49.83772" lon="2.60286">
        <ele>81</ele>
        <time>2022-07-10T10:49:49Z</time>
      </trkpt>
      <trkpt lat="49.8377" lon="2.60284">
        <ele>81.1</ele>
        <time>2022-07-10T10:49:50Z</time>
      </trkpt>
      <trkpt lat="49.83769" lon="2.60283">
        <ele>81.2</ele>
        <time>2022-07-10T10:49:52Z</time>
      </trkpt>
      <trkpt lat="49.83768" lon="2.60282">
        <ele>81.2</ele>
        <time>2022-07-10T10:49:53Z</time>
      </trkpt>
      <trkpt lat="49.83767" lon="2.60281">
        <ele>81.2</ele>
        <time>2022-07-10T10:49:54Z</time>
      </trkpt>
      <trkpt lat="49.83766" lon="2.6028">
        <ele>81.3</ele>
        <time>2022-07-10T10:49:55Z</time>
      </trkpt>
      <trkpt lat="49.83764" lon="2.60278">
        <ele>81.3</ele>
        <time>2022-07-10T10:49:57Z</time>
      </trkpt>
      <trkpt lat="49.83763" lon="2.60278">
        <ele>81.4</ele>
        <time>2022-07-10T10:49:58Z</time>
      </trkpt>
      <trkpt lat="49.83762" lon="2.60276">
        <ele>81.4</ele>
        <time>2022-07-10T10:49:59Z</time>
      </trkpt>
      <trkpt lat="49.83761" lon="2.60276">
        <ele>81.4</ele>
        <time>2022-07-10T10:50:00Z</time>
      </trkpt>
      <trkpt lat="49.8376" lon="2.60275">
        <ele>81.5</ele>
        <time>2022-07-10T10:50:01Z</time>
      </trkpt>
      <trkpt lat="49.83759" lon="2.60274">
        <ele>81.5</ele>
        <time>2022-07-10T10:50:02Z</time>
      </trkpt>
      <trkpt lat="49.83758" lon="2.60273">
        <ele>81.6</ele>
        <time>2022-07-10T10:50:03Z</time>
      </trkpt>
      <trkpt lat="49.83756" lon="2.60271">
        <ele>81.6</ele>
        <time>2022-07-10T10:50:04Z</time>
      </trkpt>
      <trkpt lat="49.83755" lon="2.60271">
        <ele>81.7</ele>
        <time>2022-07-10T10:50:06Z</time>
      </trkpt>
      <trkpt lat="49.83754" lon="2.6027">
        <ele>81.7</ele>
        <time>2022-07-10T10:50:07Z</time>
      </trkpt>
      <trkpt lat="49.83753" lon="2.6027">
        <ele>81.7</ele>
        <time>2022-07-10T10:50:08Z</time>
      </trkpt>
      <trkpt lat="49.83752" lon="2.60269">
        <ele>81.8</ele>
        <time>2022-07-10T10:50:09Z</time>
      </trkpt>
      <trkpt lat="49.83751" lon="2.60268">
        <ele>81.8</ele>
        <time>2022-07-10T10:50:10Z</time>
      </trkpt>
      <trkpt lat="49.8375" lon="2.60267">
        <ele>81.8</ele>
        <time>2022-07-10T10:50:11Z</time>
      </trkpt>
      <trkpt lat="49.83749" lon="2.60266">
        <ele>81.9</ele>
        <time>2022-07-10T10:50:13Z</time>
      </trkpt>
      <trkpt lat="49.83748" lon="2.60266">
        <ele>81.9</ele>
        <time>2022-07-10T10:50:14Z</time>
      </trkpt>
      <trkpt lat="49.83747" lon="2.60264">
        <ele>81.9</ele>
        <time>2022-07-10T10:50:15Z</time>
      </trkpt>
      <trkpt lat="49.83746" lon="2.60264">
        <ele>82</ele>
        <time>2022-07-10T10:50:16Z</time>
      </trkpt>
      <trkpt lat="49.83745" lon="2.60263">
        <ele>82</ele>
        <time>2022-07-10T10:50:17Z</time>
      </trkpt>
      <trkpt lat="49.83744" lon="2.60262">
        <ele>82</ele>
        <time>2022-07-10T10:50:18Z</time>
      </trkpt>
      <trkpt lat="49.83743" lon="2.60262">
        <ele>82</ele>
        <time>2022-07-10T10:50:19Z</time>
      </trkpt>
      <trkpt lat="49.83742" lon="2.60261">
        <ele>82.1</ele>
        <time>2022-07-10T10:50:21Z</time>
      </trkpt>
      <trkpt lat="49.8374" lon="2.60259">
        <ele>82.1</ele>
        <time>2022-07-10T10:50:23Z</time>
      </trkpt>
      <trkpt lat="49.8374" lon="2.60258">
        <ele>82.1</ele>
        <time>2022-07-10T10:50:24Z</time>
      </trkpt>
      <trkpt lat="49.83739" lon="2.60258">
        <ele>82.2</ele>
        <time>2022-07-10T10:50:25Z</time>
      </trkpt>
      <trkpt lat="49.83739" lon="2.60257">
        <ele>82.2</ele>
        <time>2022-07-10T10:50:27Z</time>
      </trkpt>
      <trkpt lat="49.83739" lon="2.60257">
        <ele>82.2</ele>
        <time>2022-07-10T10:50:28Z</time>
      </trkpt>
      <trkpt lat="49.83739" lon="2.60257">
        <ele>82.2</ele>
        <time>2022-07-10T10:50:29Z</time>
      </trkpt>
      <trkpt lat="49.83739" lon="2.60257">
        <ele>82.2</ele>
        <time>2022-07-10T10:50:30Z</time>
      </trkpt>
      <trkpt lat="49.83739" lon="2.60258">
        <ele>82.2</ele>
        <time>2022-07-10T10:50:31Z</time>
      </trkpt>
      <trkpt lat="49.83739" lon="2.60259">
        <ele>82.2</ele>
        <time>2022-07-10T10:50:32Z</time>
      </trkpt>
      <trkpt lat="49.83739" lon="2.60259">
        <ele>82.2</ele>
        <time>2022-07-10T10:50:33Z</time>
      </trkpt>
      <trkpt lat="49.83739" lon="2.6026">
        <ele>82.2</ele>
        <time>2022-07-10T10:50:34Z</time>
      </trkpt>
      <trkpt lat="49.83739" lon="2.6026">
        <ele>82.2</ele>
        <time>2022-07-10T10:50:35Z</time>
      </trkpt>
      <trkpt lat="49.83739" lon="2.6026">
        <ele>82.2</ele>
        <time>2022-07-10T10:50:36Z</time>
      </trkpt>
      <trkpt lat="49.83739" lon="2.6026">
        <ele>82.2</ele>
        <time>2022-07-10T10:50:37Z</time>
      </trkpt>
      <trkpt lat="49.83739" lon="2.6026">
        <ele>82.2</ele>
        <time>2022-07-10T10:50:38Z</time>
      </trkpt>
      <trkpt lat="49.83739" lon="2.6026">
        <ele>82.2</ele>
        <time>2022-07-10T10:50:39Z</time>
      </trkpt>
      <trkpt lat="49.83739" lon="2.6026">
        <ele>82.2</ele>
        <time>2022-07-10T10:50:40Z</time>
      </trkpt>
      <trkpt lat="49.83739" lon="2.60262">
        <ele>82.3</ele>
        <time>2022-07-10T10:50:41Z</time>
      </trkpt>
      <trkpt lat="49.83739" lon="2.60264">
        <ele>82.3</ele>
        <time>2022-07-10T10:50:42Z</time>
      </trkpt>
      <trkpt lat="49.83739" lon="2.60265">
        <ele>82.3</ele>
        <time>2022-07-10T10:50:43Z</time>
      </trkpt>
      <trkpt lat="49.83739" lon="2.60265">
        <ele>82.3</ele>
        <time>2022-07-10T10:50:44Z</time>
      </trkpt>
      <trkpt lat="49.83739" lon="2.60265">
        <ele>82.3</ele>
        <time>2022-07-10T10:50:45Z</time>
      </trkpt>
      <trkpt lat="49.83739" lon="2.60265">
        <ele>82.3</ele>
        <time>2022-07-10T10:50:46Z</time>
      </trkpt>
      <trkpt lat="49.83739" lon="2.60265">
        <ele>82.3</ele>
        <time>2022-07-10T10:50:47Z</time>
      </trkpt>
      <trkpt lat="49.83739" lon="2.60265">
        <ele>82.3</ele>
        <time>2022-07-10T10:50:48Z</time>
      </trkpt>
      <trkpt lat="49.83739" lon="2.60265">
        <ele>82.3</ele>
        <time>2022-07-10T10:50:51Z</time>
      </trkpt>
      <trkpt lat="49.83739" lon="2.60265">
        <ele>82.3</ele>
        <time>2022-07-10T10:50:52Z</time>
      </trkpt>
      <trkpt lat="49.83739" lon="2.60265">
        <ele>82.3</ele>
        <time>2022-07-10T10:50:53Z</time>
      </trkpt>
      <trkpt lat="49.83739" lon="2.60265">
        <ele>82.3</ele>
        <time>2022-07-10T10:50:54Z</time>
      </trkpt>
      <trkpt lat="49.83739" lon="2.60265">
        <ele>82.3</ele>
        <time>2022-07-10T10:50:55Z</time>
      </trkpt>
      <trkpt lat="49.83739" lon="2.60265">
        <ele>82.3</ele>
        <time>2022-07-10T10:50:56Z</time>
      </trkpt>
      <trkpt lat="49.83739" lon="2.60265">
        <ele>82.3</ele>
        <time>2022-07-10T10:50:57Z</time>
      </trkpt>
      <trkpt lat="49.83739" lon="2.60265">
        <ele>82.3</ele>
        <time>2022-07-10T10:50:58Z</time>
      </trkpt>
      <trkpt lat="49.83739" lon="2.60265">
        <ele>82.3</ele>
        <time>2022-07-10T10:50:59Z</time>
      </trkpt>
      <trkpt lat="49.83739" lon="2.60265">
        <ele>82.3</ele>
        <time>2022-07-10T10:51:00Z</time>
      </trkpt>
      <trkpt lat="49.83739" lon="2.60265">
        <ele>82.3</ele>
        <time>2022-07-10T10:51:01Z</time>
      </trkpt>
      <trkpt lat="49.83739" lon="2.60265">
        <ele>82.3</ele>
        <time>2022-07-10T10:51:02Z</time>
      </trkpt>
      <trkpt lat="49.83738" lon="2.60265">
        <ele>82.3</ele>
        <time>2022-07-10T10:51:03Z</time>
      </trkpt>
      <trkpt lat="49.83738" lon="2.60265">
        <ele>82.3</ele>
        <time>2022-07-10T10:51:04Z</time>
      </trkpt>
      <trkpt lat="49.83738" lon="2.60265">
        <ele>82.3</ele>
        <time>2022-07-10T10:51:05Z</time>
      </trkpt>
      <trkpt lat="49.83737" lon="2.60265">
        <ele>82.3</ele>
        <time>2022-07-10T10:51:06Z</time>
      </trkpt>
      <trkpt lat="49.83737" lon="2.60265">
        <ele>82.3</ele>
        <time>2022-07-10T10:51:07Z</time>
      </trkpt>
      <trkpt lat="49.83735" lon="2.60264">
        <ele>82.3</ele>
        <time>2022-07-10T10:51:08Z</time>
      </trkpt>
      <trkpt lat="49.83734" lon="2.60263">
        <ele>82.4</ele>
        <time>2022-07-10T10:51:09Z</time>
      </trkpt>
      <trkpt lat="49.83734" lon="2.60263">
        <ele>82.4</ele>
        <time>2022-07-10T10:51:10Z</time>
      </trkpt>
      <trkpt lat="49.83733" lon="2.60262">
        <ele>82.4</ele>
        <time>2022-07-10T10:51:11Z</time>
      </trkpt>
      <trkpt lat="49.83733" lon="2.60262">
        <ele>82.4</ele>
        <time>2022-07-10T10:51:12Z</time>
      </trkpt>
      <trkpt lat="49.83732" lon="2.60262">
        <ele>82.4</ele>
        <time>2022-07-10T10:51:13Z</time>
      </trkpt>
      <trkpt lat="49.83731" lon="2.60261">
        <ele>82.4</ele>
        <time>2022-07-10T10:51:14Z</time>
      </trkpt>
      <trkpt lat="49.83729" lon="2.60261">
        <ele>82.4</ele>
        <time>2022-07-10T10:51:15Z</time>
      </trkpt>
      <trkpt lat="49.83728" lon="2.60261">
        <ele>82.5</ele>
        <time>2022-07-10T10:51:16Z</time>
      </trkpt>
      <trkpt lat="49.83726" lon="2.6026">
        <ele>82.5</ele>
        <time>2022-07-10T10:51:17Z</time>
      </trkpt>
      <trkpt lat="49.83726" lon="2.60259">
        <ele>82.5</ele>
        <time>2022-07-10T10:51:18Z</time>
      </trkpt>
      <trkpt lat="49.83725" lon="2.60258">
        <ele>82.5</ele>
        <time>2022-07-10T10:51:19Z</time>
      </trkpt>
      <trkpt lat="49.83724" lon="2.60258">
        <ele>82.5</ele>
        <time>2022-07-10T10:51:21Z</time>
      </trkpt>
      <trkpt lat="49.83723" lon="2.60257">
        <ele>82.5</ele>
        <time>2022-07-10T10:51:22Z</time>
      </trkpt>
      <trkpt lat="49.83722" lon="2.60256">
        <ele>82.5</ele>
        <time>2022-07-10T10:51:23Z</time>
      </trkpt>
      <trkpt lat="49.83721" lon="2.60256">
        <ele>82.5</ele>
        <time>2022-07-10T10:51:24Z</time>
      </trkpt>
      <trkpt lat="49.8372" lon="2.60255">
        <ele>82.5</ele>
        <time>2022-07-10T10:51:25Z</time>
      </trkpt>
      <trkpt lat="49.83719" lon="2.60255">
        <ele>82.5</ele>
        <time>2022-07-10T10:51:26Z</time>
      </trkpt>
      <trkpt lat="49.83719" lon="2.60254">
        <ele>82.5</ele>
        <time>2022-07-10T10:51:27Z</time>
      </trkpt>
      <trkpt lat="49.83719" lon="2.60254">
        <ele>82.5</ele>
        <time>2022-07-10T10:51:28Z</time>
      </trkpt>
      <trkpt lat="49.83718" lon="2.60253">
        <ele>82.5</ele>
        <time>2022-07-10T10:51:30Z</time>
      </trkpt>
      <trkpt lat="49.83717" lon="2.60253">
        <ele>82.5</ele>
        <time>2022-07-10T10:51:31Z</time>
      </trkpt>
      <trkpt lat="49.83716" lon="2.60252">
        <ele>82.5</ele>
        <time>2022-07-10T10:51:32Z</time>
      </trkpt>
      <trkpt lat="49.83714" lon="2.60251">
        <ele>82.5</ele>
        <time>2022-07-10T10:51:34Z</time>
      </trkpt>
      <trkpt lat="49.83712" lon="2.6025">
        <ele>82.6</ele>
        <time>2022-07-10T10:51:35Z</time>
      </trkpt>
      <trkpt lat="49.83711" lon="2.6025">
        <ele>82.6</ele>
        <time>2022-07-10T10:51:36Z</time>
      </trkpt>
      <trkpt lat="49.8371" lon="2.60249">
        <ele>82.6</ele>
        <time>2022-07-10T10:51:37Z</time>
      </trkpt>
      <trkpt lat="49.83708" lon="2.60248">
        <ele>82.6</ele>
        <time>2022-07-10T10:51:38Z</time>
      </trkpt>
      <trkpt lat="49.83707" lon="2.60247">
        <ele>82.5</ele>
        <time>2022-07-10T10:51:39Z</time>
      </trkpt>
      <trkpt lat="49.83705" lon="2.60246">
        <ele>82.5</ele>
        <time>2022-07-10T10:51:40Z</time>
      </trkpt>
      <trkpt lat="49.83703" lon="2.60245">
        <ele>82.5</ele>
        <time>2022-07-10T10:51:42Z</time>
      </trkpt>
      <trkpt lat="49.83702" lon="2.60244">
        <ele>82.5</ele>
        <time>2022-07-10T10:51:43Z</time>
      </trkpt>
      <trkpt lat="49.83701" lon="2.60243">
        <ele>82.5</ele>
        <time>2022-07-10T10:51:44Z</time>
      </trkpt>
      <trkpt lat="49.837" lon="2.60242">
        <ele>82.5</ele>
        <time>2022-07-10T10:51:45Z</time>
      </trkpt>
      <trkpt lat="49.83698" lon="2.60241">
        <ele>82.5</ele>
        <time>2022-07-10T10:51:46Z</time>
      </trkpt>
      <trkpt lat="49.83696" lon="2.60239">
        <ele>82.5</ele>
        <time>2022-07-10T10:51:47Z</time>
      </trkpt>
      <trkpt lat="49.83695" lon="2.60238">
        <ele>82.5</ele>
        <time>2022-07-10T10:51:48Z</time>
      </trkpt>
      <trkpt lat="49.83694" lon="2.60237">
        <ele>82.5</ele>
        <time>2022-07-10T10:51:49Z</time>
      </trkpt>
      <trkpt lat="49.83693" lon="2.60236">
        <ele>82.5</ele>
        <time>2022-07-10T10:51:50Z</time>
      </trkpt>
      <trkpt lat="49.83692" lon="2.60235">
        <ele>82.5</ele>
        <time>2022-07-10T10:51:52Z</time>
      </trkpt>
      <trkpt lat="49.83691" lon="2.60234">
        <ele>82.5</ele>
        <time>2022-07-10T10:51:53Z</time>
      </trkpt>
      <trkpt lat="49.8369" lon="2.60233">
        <ele>82.5</ele>
        <time>2022-07-10T10:51:54Z</time>
      </trkpt>
      <trkpt lat="49.83689" lon="2.60232">
        <ele>82.4</ele>
        <time>2022-07-10T10:51:55Z</time>
      </trkpt>
      <trkpt lat="49.83688" lon="2.60231">
        <ele>82.4</ele>
        <time>2022-07-10T10:51:56Z</time>
      </trkpt>
      <trkpt lat="49.83687" lon="2.6023">
        <ele>82.4</ele>
        <time>2022-07-10T10:51:57Z</time>
      </trkpt>
      <trkpt lat="49.83686" lon="2.60229">
        <ele>82.4</ele>
        <time>2022-07-10T10:51:58Z</time>
      </trkpt>
      <trkpt lat="49.83686" lon="2.60228">
        <ele>82.4</ele>
        <time>2022-07-10T10:51:59Z</time>
      </trkpt>
      <trkpt lat="49.83685" lon="2.60227">
        <ele>82.4</ele>
        <time>2022-07-10T10:52:00Z</time>
      </trkpt>
      <trkpt lat="49.83684" lon="2.60226">
        <ele>82.4</ele>
        <time>2022-07-10T10:52:02Z</time>
      </trkpt>
      <trkpt lat="49.83683" lon="2.60226">
        <ele>82.4</ele>
        <time>2022-07-10T10:52:03Z</time>
      </trkpt>
      <trkpt lat="49.83682" lon="2.60224">
        <ele>82.4</ele>
        <time>2022-07-10T10:52:04Z</time>
      </trkpt>
      <trkpt lat="49.83682" lon="2.60224">
        <ele>82.4</ele>
        <time>2022-07-10T10:52:05Z</time>
      </trkpt>
      <trkpt lat="49.83681" lon="2.60223">
        <ele>82.4</ele>
        <time>2022-07-10T10:52:06Z</time>
      </trkpt>
      <trkpt lat="49.8368" lon="2.60222">
        <ele>82.4</ele>
        <time>2022-07-10T10:52:07Z</time>
      </trkpt>
      <trkpt lat="49.83679" lon="2.60221">
        <ele>82.4</ele>
        <time>2022-07-10T10:52:08Z</time>
      </trkpt>
      <trkpt lat="49.83677" lon="2.60219">
        <ele>82.4</ele>
        <time>2022-07-10T10:52:09Z</time>
      </trkpt>
      <trkpt lat="49.83677" lon="2.60218">
        <ele>82.4</ele>
        <time>2022-07-10T10:52:10Z</time>
      </trkpt>
      <trkpt lat="49.83676" lon="2.60217">
        <ele>82.4</ele>
        <time>2022-07-10T10:52:11Z</time>
      </trkpt>
      <trkpt lat="49.83675" lon="2.60216">
        <ele>82.4</ele>
        <time>2022-07-10T10:52:12Z</time>
      </trkpt>
      <trkpt lat="49.83674" lon="2.60215">
        <ele>82.4</ele>
        <time>2022-07-10T10:52:13Z</time>
      </trkpt>
      <trkpt lat="49.83673" lon="2.60214">
        <ele>82.4</ele>
        <time>2022-07-10T10:52:14Z</time>
      </trkpt>
      <trkpt lat="49.83672" lon="2.60213">
        <ele>82.4</ele>
        <time>2022-07-10T10:52:15Z</time>
      </trkpt>
      <trkpt lat="49.83671" lon="2.60212">
        <ele>82.4</ele>
        <time>2022-07-10T10:52:17Z</time>
      </trkpt>
      <trkpt lat="49.83669" lon="2.6021">
        <ele>82.5</ele>
        <time>2022-07-10T10:52:19Z</time>
      </trkpt>
      <trkpt lat="49.83668" lon="2.60209">
        <ele>82.5</ele>
        <time>2022-07-10T10:52:20Z</time>
      </trkpt>
      <trkpt lat="49.83667" lon="2.60208">
        <ele>82.5</ele>
        <time>2022-07-10T10:52:21Z</time>
      </trkpt>
      <trkpt lat="49.83666" lon="2.60207">
        <ele>82.5</ele>
        <time>2022-07-10T10:52:22Z</time>
      </trkpt>
      <trkpt lat="49.83665" lon="2.60207">
        <ele>82.5</ele>
        <time>2022-07-10T10:52:23Z</time>
      </trkpt>
      <trkpt lat="49.83663" lon="2.60205">
        <ele>82.5</ele>
        <time>2022-07-10T10:52:24Z</time>
      </trkpt>
      <trkpt lat="49.83662" lon="2.60204">
        <ele>82.5</ele>
        <time>2022-07-10T10:52:25Z</time>
      </trkpt>
      <trkpt lat="49.83662" lon="2.60204">
        <ele>82.5</ele>
        <time>2022-07-10T10:52:26Z</time>
      </trkpt>
      <trkpt lat="49.83661" lon="2.60203">
        <ele>82.5</ele>
        <time>2022-07-10T10:52:28Z</time>
      </trkpt>
      <trkpt lat="49.83659" lon="2.60201">
        <ele>82.5</ele>
        <time>2022-07-10T10:52:29Z</time>
      </trkpt>
      <trkpt lat="49.83659" lon="2.602">
        <ele>82.5</ele>
        <time>2022-07-10T10:52:30Z</time>
      </trkpt>
      <trkpt lat="49.83658" lon="2.60199">
        <ele>82.5</ele>
        <time>2022-07-10T10:52:31Z</time>
      </trkpt>
      <trkpt lat="49.83656" lon="2.60198">
        <ele>82.5</ele>
        <time>2022-07-10T10:52:32Z</time>
      </trkpt>
      <trkpt lat="49.83655" lon="2.60197">
        <ele>82.5</ele>
        <time>2022-07-10T10:52:33Z</time>
      </trkpt>
      <trkpt lat="49.83653" lon="2.60195">
        <ele>82.5</ele>
        <time>2022-07-10T10:52:34Z</time>
      </trkpt>
      <trkpt lat="49.83652" lon="2.60194">
        <ele>82.5</ele>
        <time>2022-07-10T10:52:35Z</time>
      </trkpt>
      <trkpt lat="49.83651" lon="2.60193">
        <ele>82.5</ele>
        <time>2022-07-10T10:52:37Z</time>
      </trkpt>
      <trkpt lat="49.83652" lon="2.60192">
        <ele>82.5</ele>
        <time>2022-07-10T10:52:38Z</time>
      </trkpt>
      <trkpt lat="49.83654" lon="2.60193">
        <ele>82.5</ele>
        <time>2022-07-10T10:52:39Z</time>
      </trkpt>
      <trkpt lat="49.83654" lon="2.60193">
        <ele>82.5</ele>
        <time>2022-07-10T10:52:40Z</time>
      </trkpt>
      <trkpt lat="49.83655" lon="2.60194">
        <ele>82.5</ele>
        <time>2022-07-10T10:52:41Z</time>
      </trkpt>
      <trkpt lat="49.83656" lon="2.60195">
        <ele>82.5</ele>
        <time>2022-07-10T10:52:42Z</time>
      </trkpt>
      <trkpt lat="49.83657" lon="2.60196">
        <ele>82.6</ele>
        <time>2022-07-10T10:52:43Z</time>
      </trkpt>
      <trkpt lat="49.83658" lon="2.60197">
        <ele>82.6</ele>
        <time>2022-07-10T10:52:44Z</time>
      </trkpt>
      <trkpt lat="49.83659" lon="2.60198">
        <ele>82.6</ele>
        <time>2022-07-10T10:52:45Z</time>
      </trkpt>
      <trkpt lat="49.8366" lon="2.60199">
        <ele>82.6</ele>
        <time>2022-07-10T10:52:47Z</time>
      </trkpt>
      <trkpt lat="49.83661" lon="2.60199">
        <ele>82.6</ele>
        <time>2022-07-10T10:52:48Z</time>
      </trkpt>
      <trkpt lat="49.83662" lon="2.60199">
        <ele>82.6</ele>
        <time>2022-07-10T10:52:49Z</time>
      </trkpt>
      <trkpt lat="49.83663" lon="2.602">
        <ele>82.6</ele>
        <time>2022-07-10T10:52:50Z</time>
      </trkpt>
      <trkpt lat="49.83664" lon="2.60199">
        <ele>82.6</ele>
        <time>2022-07-10T10:52:51Z</time>
      </trkpt>
      <trkpt lat="49.83664" lon="2.60199">
        <ele>82.6</ele>
        <time>2022-07-10T10:52:52Z</time>
      </trkpt>
      <trkpt lat="49.83664" lon="2.60198">
        <ele>82.6</ele>
        <time>2022-07-10T10:52:53Z</time>
      </trkpt>
      <trkpt lat="49.83663" lon="2.60197">
        <ele>82.6</ele>
        <time>2022-07-10T10:52:54Z</time>
      </trkpt>
      <trkpt lat="49.83663" lon="2.60196">
        <ele>82.6</ele>
        <time>2022-07-10T10:52:55Z</time>
      </trkpt>
      <trkpt lat="49.83662" lon="2.60196">
        <ele>82.6</ele>
        <time>2022-07-10T10:52:56Z</time>
      </trkpt>
      <trkpt lat="49.8366" lon="2.60195">
        <ele>82.6</ele>
        <time>2022-07-10T10:52:58Z</time>
      </trkpt>
      <trkpt lat="49.83659" lon="2.60195">
        <ele>82.6</ele>
        <time>2022-07-10T10:52:59Z</time>
      </trkpt>
      <trkpt lat="49.83657" lon="2.60194">
        <ele>82.6</ele>
        <time>2022-07-10T10:53:00Z</time>
      </trkpt>
      <trkpt lat="49.83656" lon="2.60194">
        <ele>82.6</ele>
        <time>2022-07-10T10:53:01Z</time>
      </trkpt>
      <trkpt lat="49.83655" lon="2.60194">
        <ele>82.6</ele>
        <time>2022-07-10T10:53:03Z</time>
      </trkpt>
      <trkpt lat="49.83653" lon="2.60193">
        <ele>82.6</ele>
        <time>2022-07-10T10:53:04Z</time>
      </trkpt>
      <trkpt lat="49.83652" lon="2.60192">
        <ele>82.6</ele>
        <time>2022-07-10T10:53:05Z</time>
      </trkpt>
      <trkpt lat="49.83651" lon="2.60192">
        <ele>82.6</ele>
        <time>2022-07-10T10:53:06Z</time>
      </trkpt>
      <trkpt lat="49.83649" lon="2.60191">
        <ele>82.6</ele>
        <time>2022-07-10T10:53:08Z</time>
      </trkpt>
      <trkpt lat="49.83648" lon="2.6019">
        <ele>82.6</ele>
        <time>2022-07-10T10:53:09Z</time>
      </trkpt>
      <trkpt lat="49.83647" lon="2.6019">
        <ele>82.6</ele>
        <time>2022-07-10T10:53:10Z</time>
      </trkpt>
      <trkpt lat="49.83647" lon="2.60189">
        <ele>82.6</ele>
        <time>2022-07-10T10:53:11Z</time>
      </trkpt>
      <trkpt lat="49.83646" lon="2.60189">
        <ele>82.6</ele>
        <time>2022-07-10T10:53:12Z</time>
      </trkpt>
      <trkpt lat="49.83646" lon="2.60189">
        <ele>82.6</ele>
        <time>2022-07-10T10:53:13Z</time>
      </trkpt>
      <trkpt lat="49.83647" lon="2.6019">
        <ele>82.6</ele>
        <time>2022-07-10T10:53:14Z</time>
      </trkpt>
      <trkpt lat="49.83647" lon="2.6019">
        <ele>82.6</ele>
        <time>2022-07-10T10:53:15Z</time>
      </trkpt>
      <trkpt lat="49.83647" lon="2.6019">
        <ele>82.6</ele>
        <time>2022-07-10T10:53:16Z</time>
      </trkpt>
      <trkpt lat="49.83647" lon="2.6019">
        <ele>82.6</ele>
        <time>2022-07-10T10:53:17Z</time>
      </trkpt>
      <trkpt lat="49.83646" lon="2.6019">
        <ele>82.6</ele>
        <time>2022-07-10T10:53:18Z</time>
      </trkpt>
      <trkpt lat="49.83645" lon="2.6019">
        <ele>82.6</ele>
        <time>2022-07-10T10:53:20Z</time>
      </trkpt>
      <trkpt lat="49.83644" lon="2.6019">
        <ele>82.5</ele>
        <time>2022-07-10T10:53:21Z</time>
      </trkpt>
      <trkpt lat="49.83643" lon="2.60189">
        <ele>82.5</ele>
        <time>2022-07-10T10:53:22Z</time>
      </trkpt>
      <trkpt lat="49.83642" lon="2.60189">
        <ele>82.5</ele>
        <time>2022-07-10T10:53:23Z</time>
      </trkpt>
      <trkpt lat="49.83641" lon="2.60188">
        <ele>82.5</ele>
        <time>2022-07-10T10:53:24Z</time>
      </trkpt>
      <trkpt lat="49.83639" lon="2.60187">
        <ele>82.5</ele>
        <time>2022-07-10T10:53:26Z</time>
      </trkpt>
      <trkpt lat="49.83638" lon="2.60185">
        <ele>82.4</ele>
        <time>2022-07-10T10:53:27Z</time>
      </trkpt>
      <trkpt lat="49.83637" lon="2.60184">
        <ele>82.4</ele>
        <time>2022-07-10T10:53:28Z</time>
      </trkpt>
      <trkpt lat="49.83635" lon="2.60182">
        <ele>82.4</ele>
        <time>2022-07-10T10:53:29Z</time>
      </trkpt>
      <trkpt lat="49.83634" lon="2.60181">
        <ele>82.3</ele>
        <time>2022-07-10T10:53:30Z</time>
      </trkpt>
      <trkpt lat="49.83632" lon="2.60179">
        <ele>82.3</ele>
        <time>2022-07-10T10:53:31Z</time>
      </trkpt>
      <trkpt lat="49.83631" lon="2.60179">
        <ele>82.3</ele>
        <time>2022-07-10T10:53:32Z</time>
      </trkpt>
      <trkpt lat="49.83631" lon="2.60178">
        <ele>82.2</ele>
        <time>2022-07-10T10:53:33Z</time>
      </trkpt>
      <trkpt lat="49.8363" lon="2.60177">
        <ele>82.2</ele>
        <time>2022-07-10T10:53:35Z</time>
      </trkpt>
      <trkpt lat="49.83629" lon="2.60176">
        <ele>82.2</ele>
        <time>2022-07-10T10:53:36Z</time>
      </trkpt>
      <trkpt lat="49.83628" lon="2.60175">
        <ele>82.2</ele>
        <time>2022-07-10T10:53:37Z</time>
      </trkpt>
      <trkpt lat="49.83627" lon="2.60174">
        <ele>82.2</ele>
        <time>2022-07-10T10:53:38Z</time>
      </trkpt>
      <trkpt lat="49.83626" lon="2.60173">
        <ele>82.1</ele>
        <time>2022-07-10T10:53:39Z</time>
      </trkpt>
      <trkpt lat="49.83625" lon="2.60172">
        <ele>82.1</ele>
        <time>2022-07-10T10:53:40Z</time>
      </trkpt>
      <trkpt lat="49.83624" lon="2.60171">
        <ele>82.1</ele>
        <time>2022-07-10T10:53:41Z</time>
      </trkpt>
      <trkpt lat="49.83623" lon="2.60171">
        <ele>82.1</ele>
        <time>2022-07-10T10:53:42Z</time>
      </trkpt>
      <trkpt lat="49.83621" lon="2.6017">
        <ele>82</ele>
        <time>2022-07-10T10:53:44Z</time>
      </trkpt>
      <trkpt lat="49.8362" lon="2.60169">
        <ele>82</ele>
        <time>2022-07-10T10:53:46Z</time>
      </trkpt>
      <trkpt lat="49.83618" lon="2.60168">
        <ele>82</ele>
        <time>2022-07-10T10:53:47Z</time>
      </trkpt>
      <trkpt lat="49.83617" lon="2.60167">
        <ele>81.9</ele>
        <time>2022-07-10T10:53:48Z</time>
      </trkpt>
      <trkpt lat="49.83616" lon="2.60166">
        <ele>81.9</ele>
        <time>2022-07-10T10:53:49Z</time>
      </trkpt>
      <trkpt lat="49.83614" lon="2.60164">
        <ele>81.9</ele>
        <time>2022-07-10T10:53:50Z</time>
      </trkpt>
      <trkpt lat="49.83613" lon="2.60164">
        <ele>81.9</ele>
        <time>2022-07-10T10:53:51Z</time>
      </trkpt>
      <trkpt lat="49.83612" lon="2.60163">
        <ele>81.8</ele>
        <time>2022-07-10T10:53:53Z</time>
      </trkpt>
      <trkpt lat="49.83611" lon="2.60163">
        <ele>81.8</ele>
        <time>2022-07-10T10:53:54Z</time>
      </trkpt>
      <trkpt lat="49.8361" lon="2.60162">
        <ele>81.8</ele>
        <time>2022-07-10T10:53:55Z</time>
      </trkpt>
      <trkpt lat="49.83609" lon="2.60161">
        <ele>81.8</ele>
        <time>2022-07-10T10:53:56Z</time>
      </trkpt>
      <trkpt lat="49.83608" lon="2.60161">
        <ele>81.8</ele>
        <time>2022-07-10T10:53:57Z</time>
      </trkpt>
      <trkpt lat="49.83606" lon="2.60159">
        <ele>81.8</ele>
        <time>2022-07-10T10:53:59Z</time>
      </trkpt>
      <trkpt lat="49.83605" lon="2.60159">
        <ele>81.7</ele>
        <time>2022-07-10T10:54:00Z</time>
      </trkpt>
      <trkpt lat="49.83604" lon="2.60158">
        <ele>81.7</ele>
        <time>2022-07-10T10:54:01Z</time>
      </trkpt>
      <trkpt lat="49.83601" lon="2.60157">
        <ele>81.7</ele>
        <time>2022-07-10T10:54:03Z</time>
      </trkpt>
      <trkpt lat="49.836" lon="2.60157">
        <ele>81.7</ele>
        <time>2022-07-10T10:54:04Z</time>
      </trkpt>
      <trkpt lat="49.83598" lon="2.60157">
        <ele>81.6</ele>
        <time>2022-07-10T10:54:05Z</time>
      </trkpt>
      <trkpt lat="49.83597" lon="2.60157">
        <ele>81.6</ele>
        <time>2022-07-10T10:54:07Z</time>
      </trkpt>
      <trkpt lat="49.83596" lon="2.60157">
        <ele>81.6</ele>
        <time>2022-07-10T10:54:08Z</time>
      </trkpt>
      <trkpt lat="49.83594" lon="2.60156">
        <ele>81.6</ele>
        <time>2022-07-10T10:54:09Z</time>
      </trkpt>
      <trkpt lat="49.83593" lon="2.60156">
        <ele>81.5</ele>
        <time>2022-07-10T10:54:10Z</time>
      </trkpt>
      <trkpt lat="49.83593" lon="2.60156">
        <ele>81.5</ele>
        <time>2022-07-10T10:54:11Z</time>
      </trkpt>
      <trkpt lat="49.83591" lon="2.60156">
        <ele>81.5</ele>
        <time>2022-07-10T10:54:12Z</time>
      </trkpt>
      <trkpt lat="49.8359" lon="2.60156">
        <ele>81.5</ele>
        <time>2022-07-10T10:54:13Z</time>
      </trkpt>
      <trkpt lat="49.83589" lon="2.60156">
        <ele>81.5</ele>
        <time>2022-07-10T10:54:14Z</time>
      </trkpt>
      <trkpt lat="49.83587" lon="2.60155">
        <ele>81.4</ele>
        <time>2022-07-10T10:54:15Z</time>
      </trkpt>
      <trkpt lat="49.83586" lon="2.60155">
        <ele>81.4</ele>
        <time>2022-07-10T10:54:16Z</time>
      </trkpt>
      <trkpt lat="49.83585" lon="2.60155">
        <ele>81.4</ele>
        <time>2022-07-10T10:54:18Z</time>
      </trkpt>
      <trkpt lat="49.83584" lon="2.60155">
        <ele>81.4</ele>
        <time>2022-07-10T10:54:19Z</time>
      </trkpt>
      <trkpt lat="49.83583" lon="2.60155">
        <ele>81.4</ele>
        <time>2022-07-10T10:54:20Z</time>
      </trkpt>
      <trkpt lat="49.83582" lon="2.60154">
        <ele>81.3</ele>
        <time>2022-07-10T10:54:21Z</time>
      </trkpt>
      <trkpt lat="49.83581" lon="2.60154">
        <ele>81.3</ele>
        <time>2022-07-10T10:54:22Z</time>
      </trkpt>
      <trkpt lat="49.83578" lon="2.60154">
        <ele>81.3</ele>
        <time>2022-07-10T10:54:23Z</time>
      </trkpt>
      <trkpt lat="49.83577" lon="2.60153">
        <ele>81.2</ele>
        <time>2022-07-10T10:54:25Z</time>
      </trkpt>
      <trkpt lat="49.83576" lon="2.60153">
        <ele>81.2</ele>
        <time>2022-07-10T10:54:26Z</time>
      </trkpt>
      <trkpt lat="49.83575" lon="2.60153">
        <ele>81.2</ele>
        <time>2022-07-10T10:54:27Z</time>
      </trkpt>
      <trkpt lat="49.83574" lon="2.60153">
        <ele>81.2</ele>
        <time>2022-07-10T10:54:28Z</time>
      </trkpt>
      <trkpt lat="49.83572" lon="2.60152">
        <ele>81.1</ele>
        <time>2022-07-10T10:54:29Z</time>
      </trkpt>
      <trkpt lat="49.83571" lon="2.60152">
        <ele>81.1</ele>
        <time>2022-07-10T10:54:30Z</time>
      </trkpt>
      <trkpt lat="49.83568" lon="2.60151">
        <ele>81.1</ele>
        <time>2022-07-10T10:54:31Z</time>
      </trkpt>
      <trkpt lat="49.83567" lon="2.60151">
        <ele>81.1</ele>
        <time>2022-07-10T10:54:32Z</time>
      </trkpt>
      <trkpt lat="49.83566" lon="2.60151">
        <ele>81.1</ele>
        <time>2022-07-10T10:54:33Z</time>
      </trkpt>
      <trkpt lat="49.83564" lon="2.6015">
        <ele>81.1</ele>
        <time>2022-07-10T10:54:35Z</time>
      </trkpt>
      <trkpt lat="49.83563" lon="2.6015">
        <ele>81</ele>
        <time>2022-07-10T10:54:36Z</time>
      </trkpt>
      <trkpt lat="49.83562" lon="2.6015">
        <ele>81</ele>
        <time>2022-07-10T10:54:37Z</time>
      </trkpt>
      <trkpt lat="49.8356" lon="2.60149">
        <ele>81</ele>
        <time>2022-07-10T10:54:38Z</time>
      </trkpt>
      <trkpt lat="49.83558" lon="2.60148">
        <ele>81</ele>
        <time>2022-07-10T10:54:39Z</time>
      </trkpt>
      <trkpt lat="49.83557" lon="2.60148">
        <ele>81</ele>
        <time>2022-07-10T10:54:41Z</time>
      </trkpt>
      <trkpt lat="49.83555" lon="2.60147">
        <ele>81</ele>
        <time>2022-07-10T10:54:42Z</time>
      </trkpt>
      <trkpt lat="49.83554" lon="2.60147">
        <ele>81</ele>
        <time>2022-07-10T10:54:43Z</time>
      </trkpt>
      <trkpt lat="49.83553" lon="2.60146">
        <ele>81</ele>
        <time>2022-07-10T10:54:44Z</time>
      </trkpt>
      <trkpt lat="49.83551" lon="2.60146">
        <ele>81</ele>
        <time>2022-07-10T10:54:45Z</time>
      </trkpt>
      <trkpt lat="49.8355" lon="2.60145">
        <ele>81</ele>
        <time>2022-07-10T10:54:46Z</time>
      </trkpt>
      <trkpt lat="49.83547" lon="2.60145">
        <ele>81</ele>
        <time>2022-07-10T10:54:47Z</time>
      </trkpt>
      <trkpt lat="49.83546" lon="2.60145">
        <ele>81</ele>
        <time>2022-07-10T10:54:48Z</time>
      </trkpt>
      <trkpt lat="49.83545" lon="2.60145">
        <ele>81</ele>
        <time>2022-07-10T10:54:49Z</time>
      </trkpt>
      <trkpt lat="49.83544" lon="2.60145">
        <ele>81</ele>
        <time>2022-07-10T10:54:51Z</time>
      </trkpt>
      <trkpt lat="49.83543" lon="2.60145">
        <ele>81</ele>
        <time>2022-07-10T10:54:52Z</time>
      </trkpt>
      <trkpt lat="49.83541" lon="2.60145">
        <ele>81</ele>
        <time>2022-07-10T10:54:53Z</time>
      </trkpt>
      <trkpt lat="49.8354" lon="2.60145">
        <ele>81</ele>
        <time>2022-07-10T10:54:54Z</time>
      </trkpt>
      <trkpt lat="49.83538" lon="2.60145">
        <ele>81</ele>
        <time>2022-07-10T10:54:55Z</time>
      </trkpt>
      <trkpt lat="49.83537" lon="2.60145">
        <ele>81.1</ele>
        <time>2022-07-10T10:54:56Z</time>
      </trkpt>
      <trkpt lat="49.83536" lon="2.60145">
        <ele>81.1</ele>
        <time>2022-07-10T10:54:57Z</time>
      </trkpt>
      <trkpt lat="49.83535" lon="2.60145">
        <ele>81.1</ele>
        <time>2022-07-10T10:54:58Z</time>
      </trkpt>
      <trkpt lat="49.83533" lon="2.60145">
        <ele>81.1</ele>
        <time>2022-07-10T10:54:59Z</time>
      </trkpt>
      <trkpt lat="49.83531" lon="2.60144">
        <ele>81.1</ele>
        <time>2022-07-10T10:55:00Z</time>
      </trkpt>
      <trkpt lat="49.8353" lon="2.60144">
        <ele>81.1</ele>
        <time>2022-07-10T10:55:01Z</time>
      </trkpt>
      <trkpt lat="49.83528" lon="2.60144">
        <ele>81.1</ele>
        <time>2022-07-10T10:55:02Z</time>
      </trkpt>
      <trkpt lat="49.83526" lon="2.60144">
        <ele>81.1</ele>
        <time>2022-07-10T10:55:03Z</time>
      </trkpt>
      <trkpt lat="49.83525" lon="2.60144">
        <ele>81.1</ele>
        <time>2022-07-10T10:55:05Z</time>
      </trkpt>
      <trkpt lat="49.83523" lon="2.60143">
        <ele>81.1</ele>
        <time>2022-07-10T10:55:06Z</time>
      </trkpt>
      <trkpt lat="49.83522" lon="2.60143">
        <ele>81.1</ele>
        <time>2022-07-10T10:55:07Z</time>
      </trkpt>
      <trkpt lat="49.83521" lon="2.60143">
        <ele>81.1</ele>
        <time>2022-07-10T10:55:08Z</time>
      </trkpt>
      <trkpt lat="49.83519" lon="2.60143">
        <ele>81.1</ele>
        <time>2022-07-10T10:55:09Z</time>
      </trkpt>
      <trkpt lat="49.83518" lon="2.60143">
        <ele>81.1</ele>
        <time>2022-07-10T10:55:10Z</time>
      </trkpt>
      <trkpt lat="49.83517" lon="2.60143">
        <ele>81.1</ele>
        <time>2022-07-10T10:55:11Z</time>
      </trkpt>
      <trkpt lat="49.83515" lon="2.60143">
        <ele>81.1</ele>
        <time>2022-07-10T10:55:13Z</time>
      </trkpt>
      <trkpt lat="49.83514" lon="2.60143">
        <ele>81.1</ele>
        <time>2022-07-10T10:55:14Z</time>
      </trkpt>
      <trkpt lat="49.83513" lon="2.60143">
        <ele>81.1</ele>
        <time>2022-07-10T10:55:15Z</time>
      </trkpt>
      <trkpt lat="49.83512" lon="2.60143">
        <ele>81.1</ele>
        <time>2022-07-10T10:55:16Z</time>
      </trkpt>
      <trkpt lat="49.8351" lon="2.60142">
        <ele>81.1</ele>
        <time>2022-07-10T10:55:17Z</time>
      </trkpt>
      <trkpt lat="49.83509" lon="2.60142">
        <ele>81.1</ele>
        <time>2022-07-10T10:55:18Z</time>
      </trkpt>
      <trkpt lat="49.83508" lon="2.60142">
        <ele>81.1</ele>
        <time>2022-07-10T10:55:19Z</time>
      </trkpt>
      <trkpt lat="49.83507" lon="2.60142">
        <ele>81.1</ele>
        <time>2022-07-10T10:55:20Z</time>
      </trkpt>
      <trkpt lat="49.83505" lon="2.60142">
        <ele>81.1</ele>
        <time>2022-07-10T10:55:21Z</time>
      </trkpt>
      <trkpt lat="49.83504" lon="2.60142">
        <ele>81.1</ele>
        <time>2022-07-10T10:55:22Z</time>
      </trkpt>
      <trkpt lat="49.83503" lon="2.60142">
        <ele>81.1</ele>
        <time>2022-07-10T10:55:24Z</time>
      </trkpt>
      <trkpt lat="49.83501" lon="2.60142">
        <ele>81.1</ele>
        <time>2022-07-10T10:55:25Z</time>
      </trkpt>
      <trkpt lat="49.835" lon="2.60141">
        <ele>81.1</ele>
        <time>2022-07-10T10:55:26Z</time>
      </trkpt>
      <trkpt lat="49.83498" lon="2.60141">
        <ele>81.1</ele>
        <time>2022-07-10T10:55:27Z</time>
      </trkpt>
      <trkpt lat="49.83497" lon="2.60141">
        <ele>81.1</ele>
        <time>2022-07-10T10:55:28Z</time>
      </trkpt>
      <trkpt lat="49.83495" lon="2.60141">
        <ele>81.1</ele>
        <time>2022-07-10T10:55:29Z</time>
      </trkpt>
      <trkpt lat="49.83494" lon="2.60141">
        <ele>81.1</ele>
        <time>2022-07-10T10:55:30Z</time>
      </trkpt>
      <trkpt lat="49.83493" lon="2.60141">
        <ele>81.1</ele>
        <time>2022-07-10T10:55:31Z</time>
      </trkpt>
      <trkpt lat="49.83491" lon="2.6014">
        <ele>81.1</ele>
        <time>2022-07-10T10:55:32Z</time>
      </trkpt>
      <trkpt lat="49.8349" lon="2.6014">
        <ele>81.1</ele>
        <time>2022-07-10T10:55:34Z</time>
      </trkpt>
      <trkpt lat="49.83489" lon="2.60139">
        <ele>81</ele>
        <time>2022-07-10T10:55:35Z</time>
      </trkpt>
      <trkpt lat="49.83488" lon="2.60139">
        <ele>81</ele>
        <time>2022-07-10T10:55:36Z</time>
      </trkpt>
      <trkpt lat="49.83486" lon="2.60139">
        <ele>81</ele>
        <time>2022-07-10T10:55:37Z</time>
      </trkpt>
      <trkpt lat="49.83486" lon="2.60139">
        <ele>81</ele>
        <time>2022-07-10T10:55:38Z</time>
      </trkpt>
      <trkpt lat="49.83484" lon="2.60138">
        <ele>81</ele>
        <time>2022-07-10T10:55:39Z</time>
      </trkpt>
      <trkpt lat="49.83483" lon="2.60138">
        <ele>81</ele>
        <time>2022-07-10T10:55:40Z</time>
      </trkpt>
      <trkpt lat="49.83482" lon="2.60137">
        <ele>81</ele>
        <time>2022-07-10T10:55:41Z</time>
      </trkpt>
      <trkpt lat="49.8348" lon="2.60136">
        <ele>80.9</ele>
        <time>2022-07-10T10:55:42Z</time>
      </trkpt>
      <trkpt lat="49.83479" lon="2.60136">
        <ele>80.9</ele>
        <time>2022-07-10T10:55:44Z</time>
      </trkpt>
      <trkpt lat="49.83479" lon="2.60135">
        <ele>80.9</ele>
        <time>2022-07-10T10:55:45Z</time>
      </trkpt>
      <trkpt lat="49.83478" lon="2.60135">
        <ele>80.9</ele>
        <time>2022-07-10T10:55:46Z</time>
      </trkpt>
      <trkpt lat="49.83476" lon="2.60134">
        <ele>80.9</ele>
        <time>2022-07-10T10:55:47Z</time>
      </trkpt>
      <trkpt lat="49.83475" lon="2.60134">
        <ele>80.9</ele>
        <time>2022-07-10T10:55:48Z</time>
      </trkpt>
      <trkpt lat="49.83474" lon="2.60134">
        <ele>80.9</ele>
        <time>2022-07-10T10:55:49Z</time>
      </trkpt>
      <trkpt lat="49.83472" lon="2.60133">
        <ele>80.9</ele>
        <time>2022-07-10T10:55:50Z</time>
      </trkpt>
      <trkpt lat="49.83472" lon="2.60133">
        <ele>80.8</ele>
        <time>2022-07-10T10:55:51Z</time>
      </trkpt>
      <trkpt lat="49.83471" lon="2.60133">
        <ele>80.8</ele>
        <time>2022-07-10T10:55:52Z</time>
      </trkpt>
      <trkpt lat="49.83469" lon="2.60132">
        <ele>80.8</ele>
        <time>2022-07-10T10:55:53Z</time>
      </trkpt>
      <trkpt lat="49.83468" lon="2.60131">
        <ele>80.8</ele>
        <time>2022-07-10T10:55:54Z</time>
      </trkpt>
      <trkpt lat="49.83467" lon="2.60131">
        <ele>80.8</ele>
        <time>2022-07-10T10:55:56Z</time>
      </trkpt>
      <trkpt lat="49.83466" lon="2.60131">
        <ele>80.8</ele>
        <time>2022-07-10T10:55:57Z</time>
      </trkpt>
      <trkpt lat="49.83465" lon="2.6013">
        <ele>80.8</ele>
        <time>2022-07-10T10:55:58Z</time>
      </trkpt>
      <trkpt lat="49.83464" lon="2.6013">
        <ele>80.8</ele>
        <time>2022-07-10T10:55:59Z</time>
      </trkpt>
      <trkpt lat="49.83463" lon="2.60129">
        <ele>80.8</ele>
        <time>2022-07-10T10:56:00Z</time>
      </trkpt>
      <trkpt lat="49.83462" lon="2.60129">
        <ele>80.7</ele>
        <time>2022-07-10T10:56:02Z</time>
      </trkpt>
      <trkpt lat="49.8346" lon="2.60128">
        <ele>80.7</ele>
        <time>2022-07-10T10:56:03Z</time>
      </trkpt>
      <trkpt lat="49.83459" lon="2.60128">
        <ele>80.7</ele>
        <time>2022-07-10T10:56:04Z</time>
      </trkpt>
      <trkpt lat="49.83458" lon="2.60127">
        <ele>80.7</ele>
        <time>2022-07-10T10:56:05Z</time>
      </trkpt>
      <trkpt lat="49.83457" lon="2.60127">
        <ele>80.7</ele>
        <time>2022-07-10T10:56:06Z</time>
      </trkpt>
      <trkpt lat="49.83455" lon="2.60127">
        <ele>80.7</ele>
        <time>2022-07-10T10:56:07Z</time>
      </trkpt>
      <trkpt lat="49.83454" lon="2.60127">
        <ele>80.7</ele>
        <time>2022-07-10T10:56:08Z</time>
      </trkpt>
      <trkpt lat="49.83453" lon="2.60127">
        <ele>80.7</ele>
        <time>2022-07-10T10:56:09Z</time>
      </trkpt>
      <trkpt lat="49.83452" lon="2.60127">
        <ele>80.7</ele>
        <time>2022-07-10T10:56:11Z</time>
      </trkpt>
      <trkpt lat="49.83451" lon="2.60127">
        <ele>80.6</ele>
        <time>2022-07-10T10:56:12Z</time>
      </trkpt>
      <trkpt lat="49.83449" lon="2.60127">
        <ele>80.6</ele>
        <time>2022-07-10T10:56:13Z</time>
      </trkpt>
      <trkpt lat="49.83447" lon="2.60126">
        <ele>80.6</ele>
        <time>2022-07-10T10:56:14Z</time>
      </trkpt>
      <trkpt lat="49.83446" lon="2.60126">
        <ele>80.6</ele>
        <time>2022-07-10T10:56:15Z</time>
      </trkpt>
      <trkpt lat="49.83443" lon="2.60125">
        <ele>80.5</ele>
        <time>2022-07-10T10:56:16Z</time>
      </trkpt>
      <trkpt lat="49.83442" lon="2.60125">
        <ele>80.5</ele>
        <time>2022-07-10T10:56:17Z</time>
      </trkpt>
      <trkpt lat="49.83441" lon="2.60125">
        <ele>80.5</ele>
        <time>2022-07-10T10:56:18Z</time>
      </trkpt>
      <trkpt lat="49.8344" lon="2.60125">
        <ele>80.5</ele>
        <time>2022-07-10T10:56:19Z</time>
      </trkpt>
      <trkpt lat="49.83439" lon="2.60124">
        <ele>80.4</ele>
        <time>2022-07-10T10:56:21Z</time>
      </trkpt>
      <trkpt lat="49.83437" lon="2.60124">
        <ele>80.4</ele>
        <time>2022-07-10T10:56:22Z</time>
      </trkpt>
      <trkpt lat="49.83436" lon="2.60123">
        <ele>80.4</ele>
        <time>2022-07-10T10:56:23Z</time>
      </trkpt>
      <trkpt lat="49.83435" lon="2.60123">
        <ele>80.4</ele>
        <time>2022-07-10T10:56:24Z</time>
      </trkpt>
      <trkpt lat="49.83432" lon="2.60122">
        <ele>80.3</ele>
        <time>2022-07-10T10:56:25Z</time>
      </trkpt>
      <trkpt lat="49.83431" lon="2.60121">
        <ele>80.3</ele>
        <time>2022-07-10T10:56:27Z</time>
      </trkpt>
      <trkpt lat="49.8343" lon="2.6012">
        <ele>80.3</ele>
        <time>2022-07-10T10:56:28Z</time>
      </trkpt>
      <trkpt lat="49.8343" lon="2.6012">
        <ele>80.3</ele>
        <time>2022-07-10T10:56:29Z</time>
      </trkpt>
      <trkpt lat="49.83428" lon="2.60119">
        <ele>80.3</ele>
        <time>2022-07-10T10:56:30Z</time>
      </trkpt>
      <trkpt lat="49.83427" lon="2.60118">
        <ele>80.2</ele>
        <time>2022-07-10T10:56:31Z</time>
      </trkpt>
      <trkpt lat="49.83426" lon="2.60117">
        <ele>80.2</ele>
        <time>2022-07-10T10:56:32Z</time>
      </trkpt>
      <trkpt lat="49.83425" lon="2.60116">
        <ele>80.2</ele>
        <time>2022-07-10T10:56:33Z</time>
      </trkpt>
      <trkpt lat="49.83424" lon="2.60116">
        <ele>80.2</ele>
        <time>2022-07-10T10:56:34Z</time>
      </trkpt>
      <trkpt lat="49.83423" lon="2.60115">
        <ele>80.2</ele>
        <time>2022-07-10T10:56:35Z</time>
      </trkpt>
      <trkpt lat="49.83422" lon="2.60114">
        <ele>80.2</ele>
        <time>2022-07-10T10:56:36Z</time>
      </trkpt>
      <trkpt lat="49.8342" lon="2.60113">
        <ele>80.1</ele>
        <time>2022-07-10T10:56:37Z</time>
      </trkpt>
      <trkpt lat="49.83419" lon="2.60113">
        <ele>80.1</ele>
        <time>2022-07-10T10:56:38Z</time>
      </trkpt>
      <trkpt lat="49.83418" lon="2.60112">
        <ele>80.1</ele>
        <time>2022-07-10T10:56:39Z</time>
      </trkpt>
      <trkpt lat="49.83416" lon="2.60111">
        <ele>80.1</ele>
        <time>2022-07-10T10:56:41Z</time>
      </trkpt>
      <trkpt lat="49.83415" lon="2.6011">
        <ele>80.1</ele>
        <time>2022-07-10T10:56:42Z</time>
      </trkpt>
      <trkpt lat="49.83414" lon="2.6011">
        <ele>80.1</ele>
        <time>2022-07-10T10:56:43Z</time>
      </trkpt>
      <trkpt lat="49.83414" lon="2.60109">
        <ele>80.1</ele>
        <time>2022-07-10T10:56:44Z</time>
      </trkpt>
      <trkpt lat="49.83412" lon="2.60109">
        <ele>80</ele>
        <time>2022-07-10T10:56:45Z</time>
      </trkpt>
      <trkpt lat="49.83411" lon="2.60108">
        <ele>80</ele>
        <time>2022-07-10T10:56:46Z</time>
      </trkpt>
      <trkpt lat="49.8341" lon="2.60108">
        <ele>80</ele>
        <time>2022-07-10T10:56:47Z</time>
      </trkpt>
      <trkpt lat="49.83408" lon="2.60106">
        <ele>80</ele>
        <time>2022-07-10T10:56:48Z</time>
      </trkpt>
      <trkpt lat="49.83407" lon="2.60106">
        <ele>80</ele>
        <time>2022-07-10T10:56:49Z</time>
      </trkpt>
      <trkpt lat="49.83405" lon="2.60105">
        <ele>80</ele>
        <time>2022-07-10T10:56:50Z</time>
      </trkpt>
      <trkpt lat="49.83404" lon="2.60104">
        <ele>80</ele>
        <time>2022-07-10T10:56:52Z</time>
      </trkpt>
      <trkpt lat="49.83402" lon="2.60103">
        <ele>79.9</ele>
        <time>2022-07-10T10:56:53Z</time>
      </trkpt>
      <trkpt lat="49.834" lon="2.60102">
        <ele>79.9</ele>
        <time>2022-07-10T10:56:54Z</time>
      </trkpt>
      <trkpt lat="49.834" lon="2.60102">
        <ele>79.9</ele>
        <time>2022-07-10T10:56:55Z</time>
      </trkpt>
      <trkpt lat="49.83399" lon="2.60101">
        <ele>79.9</ele>
        <time>2022-07-10T10:56:56Z</time>
      </trkpt>
      <trkpt lat="49.83397" lon="2.601">
        <ele>79.9</ele>
        <time>2022-07-10T10:56:58Z</time>
      </trkpt>
      <trkpt lat="49.83396" lon="2.601">
        <ele>79.9</ele>
        <time>2022-07-10T10:56:59Z</time>
      </trkpt>
      <trkpt lat="49.83394" lon="2.60099">
        <ele>79.9</ele>
        <time>2022-07-10T10:57:00Z</time>
      </trkpt>
      <trkpt lat="49.83393" lon="2.60098">
        <ele>79.8</ele>
        <time>2022-07-10T10:57:01Z</time>
      </trkpt>
      <trkpt lat="49.83392" lon="2.60097">
        <ele>79.8</ele>
        <time>2022-07-10T10:57:02Z</time>
      </trkpt>
      <trkpt lat="49.83391" lon="2.60096">
        <ele>79.8</ele>
        <time>2022-07-10T10:57:03Z</time>
      </trkpt>
      <trkpt lat="49.83389" lon="2.60095">
        <ele>79.8</ele>
        <time>2022-07-10T10:57:05Z</time>
      </trkpt>
      <trkpt lat="49.83388" lon="2.60095">
        <ele>79.8</ele>
        <time>2022-07-10T10:57:06Z</time>
      </trkpt>
      <trkpt lat="49.83387" lon="2.60094">
        <ele>79.8</ele>
        <time>2022-07-10T10:57:07Z</time>
      </trkpt>
      <trkpt lat="49.83385" lon="2.60092">
        <ele>79.7</ele>
        <time>2022-07-10T10:57:08Z</time>
      </trkpt>
      <trkpt lat="49.83384" lon="2.60092">
        <ele>79.7</ele>
        <time>2022-07-10T10:57:09Z</time>
      </trkpt>
      <trkpt lat="49.83382" lon="2.6009">
        <ele>79.9</ele>
        <time>2022-07-10T10:57:10Z</time>
      </trkpt>
      <trkpt lat="49.83381" lon="2.6009">
        <ele>79.9</ele>
        <time>2022-07-10T10:57:11Z</time>
      </trkpt>
      <trkpt lat="49.8338" lon="2.60089">
        <ele>79.9</ele>
        <time>2022-07-10T10:57:12Z</time>
      </trkpt>
      <trkpt lat="49.83379" lon="2.60088">
        <ele>79.6</ele>
        <time>2022-07-10T10:57:13Z</time>
      </trkpt>
      <trkpt lat="49.83378" lon="2.60087">
        <ele>79.6</ele>
        <time>2022-07-10T10:57:14Z</time>
      </trkpt>
      <trkpt lat="49.83376" lon="2.60085">
        <ele>79.7</ele>
        <time>2022-07-10T10:57:16Z</time>
      </trkpt>
      <trkpt lat="49.83375" lon="2.60084">
        <ele>79.7</ele>
        <time>2022-07-10T10:57:17Z</time>
      </trkpt>
      <trkpt lat="49.83374" lon="2.60083">
        <ele>79.5</ele>
        <time>2022-07-10T10:57:18Z</time>
      </trkpt>
      <trkpt lat="49.83372" lon="2.60082">
        <ele>79.5</ele>
        <time>2022-07-10T10:57:19Z</time>
      </trkpt>
      <trkpt lat="49.83372" lon="2.60081">
        <ele>79.5</ele>
        <time>2022-07-10T10:57:20Z</time>
      </trkpt>
      <trkpt lat="49.83371" lon="2.60081">
        <ele>79.5</ele>
        <time>2022-07-10T10:57:21Z</time>
      </trkpt>
      <trkpt lat="49.8337" lon="2.60079">
        <ele>79.3</ele>
        <time>2022-07-10T10:57:22Z</time>
      </trkpt>
      <trkpt lat="49.83368" lon="2.60078">
        <ele>79.4</ele>
        <time>2022-07-10T10:57:23Z</time>
      </trkpt>
      <trkpt lat="49.83368" lon="2.60076">
        <ele>79.4</ele>
        <time>2022-07-10T10:57:24Z</time>
      </trkpt>
      <trkpt lat="49.83367" lon="2.60075">
        <ele>79.1</ele>
        <time>2022-07-10T10:57:25Z</time>
      </trkpt>
      <trkpt lat="49.83367" lon="2.60074">
        <ele>79.1</ele>
        <time>2022-07-10T10:57:27Z</time>
      </trkpt>
      <trkpt lat="49.83366" lon="2.60073">
        <ele>79.2</ele>
        <time>2022-07-10T10:57:28Z</time>
      </trkpt>
      <trkpt lat="49.83364" lon="2.60071">
        <ele>79</ele>
        <time>2022-07-10T10:57:29Z</time>
      </trkpt>
      <trkpt lat="49.83364" lon="2.6007">
        <ele>79</ele>
        <time>2022-07-10T10:57:30Z</time>
      </trkpt>
      <trkpt lat="49.83363" lon="2.60069">
        <ele>79.2</ele>
        <time>2022-07-10T10:57:31Z</time>
      </trkpt>
      <trkpt lat="49.83362" lon="2.60068">
        <ele>79.2</ele>
        <time>2022-07-10T10:57:32Z</time>
      </trkpt>
      <trkpt lat="49.83361" lon="2.60066">
        <ele>79.1</ele>
        <time>2022-07-10T10:57:33Z</time>
      </trkpt>
      <trkpt lat="49.8336" lon="2.60065">
        <ele>79.1</ele>
        <time>2022-07-10T10:57:34Z</time>
      </trkpt>
      <trkpt lat="49.83359" lon="2.60065">
        <ele>79.1</ele>
        <time>2022-07-10T10:57:35Z</time>
      </trkpt>
      <trkpt lat="49.83358" lon="2.60064">
        <ele>79.3</ele>
        <time>2022-07-10T10:57:36Z</time>
      </trkpt>
      <trkpt lat="49.83357" lon="2.60064">
        <ele>79.3</ele>
        <time>2022-07-10T10:57:37Z</time>
      </trkpt>
      <trkpt lat="49.83356" lon="2.60062">
        <ele>79.2</ele>
        <time>2022-07-10T10:57:39Z</time>
      </trkpt>
      <trkpt lat="49.83355" lon="2.60061">
        <ele>79.3</ele>
        <time>2022-07-10T10:57:40Z</time>
      </trkpt>
      <trkpt lat="49.83354" lon="2.6006">
        <ele>79.3</ele>
        <time>2022-07-10T10:57:41Z</time>
      </trkpt>
      <trkpt lat="49.83353" lon="2.60059">
        <ele>79.3</ele>
        <time>2022-07-10T10:57:42Z</time>
      </trkpt>
      <trkpt lat="49.83352" lon="2.60058">
        <ele>79.4</ele>
        <time>2022-07-10T10:57:43Z</time>
      </trkpt>
      <trkpt lat="49.83352" lon="2.60056">
        <ele>79.4</ele>
        <time>2022-07-10T10:57:44Z</time>
      </trkpt>
      <trkpt lat="49.83352" lon="2.60055">
        <ele>79.4</ele>
        <time>2022-07-10T10:57:45Z</time>
      </trkpt>
      <trkpt lat="49.83353" lon="2.60054">
        <ele>79.3</ele>
        <time>2022-07-10T10:57:46Z</time>
      </trkpt>
      <trkpt lat="49.83353" lon="2.60054">
        <ele>79.3</ele>
        <time>2022-07-10T10:57:47Z</time>
      </trkpt>
      <trkpt lat="49.83354" lon="2.60054">
        <ele>79.3</ele>
        <time>2022-07-10T10:57:48Z</time>
      </trkpt>
      <trkpt lat="49.83353" lon="2.60053">
        <ele>79.3</ele>
        <time>2022-07-10T10:57:49Z</time>
      </trkpt>
      <trkpt lat="49.83353" lon="2.60053">
        <ele>79.3</ele>
        <time>2022-07-10T10:57:50Z</time>
      </trkpt>
      <trkpt lat="49.83353" lon="2.60053">
        <ele>79.4</ele>
        <time>2022-07-10T10:57:51Z</time>
      </trkpt>
      <trkpt lat="49.83352" lon="2.60052">
        <ele>79.4</ele>
        <time>2022-07-10T10:57:53Z</time>
      </trkpt>
      <trkpt lat="49.83352" lon="2.60052">
        <ele>79.4</ele>
        <time>2022-07-10T10:57:54Z</time>
      </trkpt>
      <trkpt lat="49.83351" lon="2.60052">
        <ele>79.4</ele>
        <time>2022-07-10T10:57:55Z</time>
      </trkpt>
      <trkpt lat="49.83351" lon="2.60051">
        <ele>79.4</ele>
        <time>2022-07-10T10:57:56Z</time>
      </trkpt>
      <trkpt lat="49.8335" lon="2.60051">
        <ele>79.4</ele>
        <time>2022-07-10T10:57:57Z</time>
      </trkpt>
      <trkpt lat="49.8335" lon="2.60051">
        <ele>79.6</ele>
        <time>2022-07-10T10:57:58Z</time>
      </trkpt>
      <trkpt lat="49.83349" lon="2.60051">
        <ele>79.6</ele>
        <time>2022-07-10T10:57:59Z</time>
      </trkpt>
      <trkpt lat="49.83348" lon="2.6005">
        <ele>79.6</ele>
        <time>2022-07-10T10:58:00Z</time>
      </trkpt>
      <trkpt lat="49.83347" lon="2.60049">
        <ele>79.7</ele>
        <time>2022-07-10T10:58:01Z</time>
      </trkpt>
      <trkpt lat="49.83344" lon="2.60047">
        <ele>79.8</ele>
        <time>2022-07-10T10:58:02Z</time>
      </trkpt>
      <trkpt lat="49.83343" lon="2.60047">
        <ele>79.8</ele>
        <time>2022-07-10T10:58:03Z</time>
      </trkpt>
      <trkpt lat="49.83341" lon="2.60046">
        <ele>79.9</ele>
        <time>2022-07-10T10:58:05Z</time>
      </trkpt>
      <trkpt lat="49.8334" lon="2.60046">
        <ele>79.9</ele>
        <time>2022-07-10T10:58:06Z</time>
      </trkpt>
      <trkpt lat="49.83339" lon="2.60045">
        <ele>80</ele>
        <time>2022-07-10T10:58:07Z</time>
      </trkpt>
      <trkpt lat="49.83336" lon="2.60044">
        <ele>80.1</ele>
        <time>2022-07-10T10:58:08Z</time>
      </trkpt>
      <trkpt lat="49.83335" lon="2.60044">
        <ele>80.2</ele>
        <time>2022-07-10T10:58:09Z</time>
      </trkpt>
      <trkpt lat="49.83334" lon="2.60043">
        <ele>80.2</ele>
        <time>2022-07-10T10:58:10Z</time>
      </trkpt>
      <trkpt lat="49.83332" lon="2.60042">
        <ele>80.3</ele>
        <time>2022-07-10T10:58:11Z</time>
      </trkpt>
      <trkpt lat="49.8333" lon="2.6004">
        <ele>80.6</ele>
        <time>2022-07-10T10:58:12Z</time>
      </trkpt>
      <trkpt lat="49.83329" lon="2.60039">
        <ele>80.6</ele>
        <time>2022-07-10T10:58:13Z</time>
      </trkpt>
      <trkpt lat="49.83328" lon="2.60038">
        <ele>80.6</ele>
        <time>2022-07-10T10:58:15Z</time>
      </trkpt>
      <trkpt lat="49.83328" lon="2.60037">
        <ele>80.6</ele>
        <time>2022-07-10T10:58:16Z</time>
      </trkpt>
      <trkpt lat="49.83327" lon="2.60036">
        <ele>80.8</ele>
        <time>2022-07-10T10:58:17Z</time>
      </trkpt>
      <trkpt lat="49.83325" lon="2.60034">
        <ele>80.9</ele>
        <time>2022-07-10T10:58:19Z</time>
      </trkpt>
      <trkpt lat="49.83324" lon="2.60033">
        <ele>80.9</ele>
        <time>2022-07-10T10:58:20Z</time>
      </trkpt>
      <trkpt lat="49.83323" lon="2.60032">
        <ele>81.1</ele>
        <time>2022-07-10T10:58:21Z</time>
      </trkpt>
      <trkpt lat="49.83322" lon="2.60031">
        <ele>81.1</ele>
        <time>2022-07-10T10:58:22Z</time>
      </trkpt>
      <trkpt lat="49.83321" lon="2.6003">
        <ele>81.1</ele>
        <time>2022-07-10T10:58:23Z</time>
      </trkpt>
      <trkpt lat="49.83319" lon="2.60028">
        <ele>81.4</ele>
        <time>2022-07-10T10:58:24Z</time>
      </trkpt>
      <trkpt lat="49.83319" lon="2.60027">
        <ele>81.4</ele>
        <time>2022-07-10T10:58:25Z</time>
      </trkpt>
      <trkpt lat="49.83318" lon="2.60027">
        <ele>81.4</ele>
        <time>2022-07-10T10:58:26Z</time>
      </trkpt>
      <trkpt lat="49.83316" lon="2.60025">
        <ele>81.5</ele>
        <time>2022-07-10T10:58:27Z</time>
      </trkpt>
      <trkpt lat="49.83315" lon="2.60024">
        <ele>81.5</ele>
        <time>2022-07-10T10:58:28Z</time>
      </trkpt>
      <trkpt lat="49.83315" lon="2.60024">
        <ele>81.6</ele>
        <time>2022-07-10T10:58:29Z</time>
      </trkpt>
      <trkpt lat="49.83314" lon="2.60023">
        <ele>81.7</ele>
        <time>2022-07-10T10:58:30Z</time>
      </trkpt>
      <trkpt lat="49.83313" lon="2.60022">
        <ele>81.7</ele>
        <time>2022-07-10T10:58:32Z</time>
      </trkpt>
      <trkpt lat="49.83312" lon="2.60021">
        <ele>81.7</ele>
        <time>2022-07-10T10:58:33Z</time>
      </trkpt>
      <trkpt lat="49.8331" lon="2.60019">
        <ele>81.8</ele>
        <time>2022-07-10T10:58:34Z</time>
      </trkpt>
      <trkpt lat="49.83309" lon="2.60018">
        <ele>81.8</ele>
        <time>2022-07-10T10:58:35Z</time>
      </trkpt>
      <trkpt lat="49.83309" lon="2.60018">
        <ele>81.8</ele>
        <time>2022-07-10T10:58:36Z</time>
      </trkpt>
      <trkpt lat="49.83307" lon="2.60017">
        <ele>81.9</ele>
        <time>2022-07-10T10:58:37Z</time>
      </trkpt>
      <trkpt lat="49.83306" lon="2.60016">
        <ele>81.9</ele>
        <time>2022-07-10T10:58:38Z</time>
      </trkpt>
      <trkpt lat="49.83304" lon="2.60015">
        <ele>81.9</ele>
        <time>2022-07-10T10:58:40Z</time>
      </trkpt>
      <trkpt lat="49.83303" lon="2.60014">
        <ele>81.9</ele>
        <time>2022-07-10T10:58:41Z</time>
      </trkpt>
      <trkpt lat="49.83301" lon="2.60012">
        <ele>81.9</ele>
        <time>2022-07-10T10:58:42Z</time>
      </trkpt>
      <trkpt lat="49.833" lon="2.60012">
        <ele>81.9</ele>
        <time>2022-07-10T10:58:43Z</time>
      </trkpt>
      <trkpt lat="49.83299" lon="2.60011">
        <ele>81.7</ele>
        <time>2022-07-10T10:58:44Z</time>
      </trkpt>
      <trkpt lat="49.83297" lon="2.60009">
        <ele>81.6</ele>
        <time>2022-07-10T10:58:45Z</time>
      </trkpt>
      <trkpt lat="49.83296" lon="2.60009">
        <ele>81.6</ele>
        <time>2022-07-10T10:58:46Z</time>
      </trkpt>
      <trkpt lat="49.83296" lon="2.60008">
        <ele>81.6</ele>
        <time>2022-07-10T10:58:47Z</time>
      </trkpt>
      <trkpt lat="49.83294" lon="2.60007">
        <ele>81.5</ele>
        <time>2022-07-10T10:58:48Z</time>
      </trkpt>
      <trkpt lat="49.83293" lon="2.60006">
        <ele>81.3</ele>
        <time>2022-07-10T10:58:49Z</time>
      </trkpt>
      <trkpt lat="49.83291" lon="2.60005">
        <ele>81.1</ele>
        <time>2022-07-10T10:58:50Z</time>
      </trkpt>
      <trkpt lat="49.8329" lon="2.60005">
        <ele>81.1</ele>
        <time>2022-07-10T10:58:52Z</time>
      </trkpt>
      <trkpt lat="49.83289" lon="2.60004">
        <ele>80.9</ele>
        <time>2022-07-10T10:58:53Z</time>
      </trkpt>
      <trkpt lat="49.83288" lon="2.60002">
        <ele>80.6</ele>
        <time>2022-07-10T10:58:54Z</time>
      </trkpt>
      <trkpt lat="49.83287" lon="2.60001">
        <ele>80.6</ele>
        <time>2022-07-10T10:58:55Z</time>
      </trkpt>
      <trkpt lat="49.83286" lon="2.6">
        <ele>80.4</ele>
        <time>2022-07-10T10:58:56Z</time>
      </trkpt>
      <trkpt lat="49.83285" lon="2.59999">
        <ele>80.4</ele>
        <time>2022-07-10T10:58:57Z</time>
      </trkpt>
      <trkpt lat="49.83285" lon="2.59998">
        <ele>80</ele>
        <time>2022-07-10T10:58:58Z</time>
      </trkpt>
      <trkpt lat="49.83284" lon="2.59997">
        <ele>80</ele>
        <time>2022-07-10T10:58:59Z</time>
      </trkpt>
      <trkpt lat="49.83283" lon="2.59996">
        <ele>79.8</ele>
        <time>2022-07-10T10:59:00Z</time>
      </trkpt>
      <trkpt lat="49.83281" lon="2.59993">
        <ele>79.4</ele>
        <time>2022-07-10T10:59:01Z</time>
      </trkpt>
      <trkpt lat="49.83281" lon="2.59992">
        <ele>79.4</ele>
        <time>2022-07-10T10:59:03Z</time>
      </trkpt>
      <trkpt lat="49.8328" lon="2.59991">
        <ele>79.2</ele>
        <time>2022-07-10T10:59:04Z</time>
      </trkpt>
      <trkpt lat="49.8328" lon="2.5999">
        <ele>78.9</ele>
        <time>2022-07-10T10:59:05Z</time>
      </trkpt>
      <trkpt lat="49.83279" lon="2.59989">
        <ele>78.9</ele>
        <time>2022-07-10T10:59:06Z</time>
      </trkpt>
      <trkpt lat="49.83278" lon="2.59988">
        <ele>78.9</ele>
        <time>2022-07-10T10:59:07Z</time>
      </trkpt>
      <trkpt lat="49.83276" lon="2.59986">
        <ele>78.6</ele>
        <time>2022-07-10T10:59:10Z</time>
      </trkpt>
      <trkpt lat="49.83275" lon="2.59985">
        <ele>78.3</ele>
        <time>2022-07-10T10:59:11Z</time>
      </trkpt>
      <trkpt lat="49.83275" lon="2.59985">
        <ele>78.2</ele>
        <time>2022-07-10T10:59:12Z</time>
      </trkpt>
      <trkpt lat="49.83275" lon="2.59986">
        <ele>78.4</ele>
        <time>2022-07-10T10:59:13Z</time>
      </trkpt>
      <trkpt lat="49.83275" lon="2.59986">
        <ele>78.6</ele>
        <time>2022-07-10T10:59:14Z</time>
      </trkpt>
      <trkpt lat="49.83275" lon="2.59986">
        <ele>78.6</ele>
        <time>2022-07-10T10:59:15Z</time>
      </trkpt>
      <trkpt lat="49.83276" lon="2.59986">
        <ele>78.6</ele>
        <time>2022-07-10T10:59:16Z</time>
      </trkpt>
      <trkpt lat="49.83276" lon="2.59986">
        <ele>78.6</ele>
        <time>2022-07-10T10:59:17Z</time>
      </trkpt>
      <trkpt lat="49.83276" lon="2.59987">
        <ele>78.6</ele>
        <time>2022-07-10T10:59:19Z</time>
      </trkpt>
      <trkpt lat="49.83276" lon="2.59987">
        <ele>78.6</ele>
        <time>2022-07-10T10:59:20Z</time>
      </trkpt>
      <trkpt lat="49.83277" lon="2.59987">
        <ele>78.6</ele>
        <time>2022-07-10T10:59:21Z</time>
      </trkpt>
      <trkpt lat="49.83277" lon="2.59987">
        <ele>78.6</ele>
        <time>2022-07-10T10:59:22Z</time>
      </trkpt>
      <trkpt lat="49.83277" lon="2.59988">
        <ele>78.6</ele>
        <time>2022-07-10T10:59:23Z</time>
      </trkpt>
      <trkpt lat="49.83277" lon="2.59988">
        <ele>78.6</ele>
        <time>2022-07-10T10:59:25Z</time>
      </trkpt>
      <trkpt lat="49.83278" lon="2.59988">
        <ele>78.6</ele>
        <time>2022-07-10T10:59:26Z</time>
      </trkpt>
      <trkpt lat="49.83278" lon="2.59988">
        <ele>78.6</ele>
        <time>2022-07-10T10:59:27Z</time>
      </trkpt>
      <trkpt lat="49.83278" lon="2.59989">
        <ele>78.8</ele>
        <time>2022-07-10T10:59:28Z</time>
      </trkpt>
      <trkpt lat="49.83278" lon="2.59989">
        <ele>78.8</ele>
        <time>2022-07-10T10:59:29Z</time>
      </trkpt>
      <trkpt lat="49.83278" lon="2.59989">
        <ele>78.8</ele>
        <time>2022-07-10T10:59:30Z</time>
      </trkpt>
      <trkpt lat="49.83279" lon="2.59989">
        <ele>78.8</ele>
        <time>2022-07-10T10:59:31Z</time>
      </trkpt>
      <trkpt lat="49.83279" lon="2.59989">
        <ele>78.8</ele>
        <time>2022-07-10T10:59:32Z</time>
      </trkpt>
      <trkpt lat="49.83279" lon="2.5999">
        <ele>78.8</ele>
        <time>2022-07-10T10:59:33Z</time>
      </trkpt>
      <trkpt lat="49.83279" lon="2.5999">
        <ele>79.2</ele>
        <time>2022-07-10T10:59:34Z</time>
      </trkpt>
      <trkpt lat="49.8328" lon="2.5999">
        <ele>79.2</ele>
        <time>2022-07-10T10:59:35Z</time>
      </trkpt>
      <trkpt lat="49.8328" lon="2.5999">
        <ele>79.2</ele>
        <time>2022-07-10T10:59:36Z</time>
      </trkpt>
      <trkpt lat="49.8328" lon="2.59991">
        <ele>79.2</ele>
        <time>2022-07-10T10:59:37Z</time>
      </trkpt>
      <trkpt lat="49.8328" lon="2.59991">
        <ele>79.2</ele>
        <time>2022-07-10T10:59:38Z</time>
      </trkpt>
      <trkpt lat="49.83281" lon="2.59991">
        <ele>79.2</ele>
        <time>2022-07-10T10:59:39Z</time>
      </trkpt>
      <trkpt lat="49.83281" lon="2.59991">
        <ele>79.4</ele>
        <time>2022-07-10T10:59:40Z</time>
      </trkpt>
      <trkpt lat="49.83281" lon="2.59991">
        <ele>79.4</ele>
        <time>2022-07-10T10:59:41Z</time>
      </trkpt>
      <trkpt lat="49.83281" lon="2.59992">
        <ele>79.4</ele>
        <time>2022-07-10T10:59:42Z</time>
      </trkpt>
      <trkpt lat="49.83282" lon="2.59992">
        <ele>79.4</ele>
        <time>2022-07-10T10:59:43Z</time>
      </trkpt>
      <trkpt lat="49.83282" lon="2.59992">
        <ele>79.4</ele>
        <time>2022-07-10T10:59:44Z</time>
      </trkpt>
      <trkpt lat="49.83281" lon="2.59992">
        <ele>79.4</ele>
        <time>2022-07-10T10:59:45Z</time>
      </trkpt>
      <trkpt lat="49.83281" lon="2.59991">
        <ele>79.2</ele>
        <time>2022-07-10T10:59:46Z</time>
      </trkpt>
      <trkpt lat="49.83279" lon="2.5999">
        <ele>78.8</ele>
        <time>2022-07-10T10:59:47Z</time>
      </trkpt>
      <trkpt lat="49.83279" lon="2.59988">
        <ele>78.8</ele>
        <time>2022-07-10T10:59:48Z</time>
      </trkpt>
      <trkpt lat="49.83278" lon="2.59987">
        <ele>78.6</ele>
        <time>2022-07-10T10:59:49Z</time>
      </trkpt>
      <trkpt lat="49.83276" lon="2.59986">
        <ele>78.6</ele>
        <time>2022-07-10T10:59:50Z</time>
      </trkpt>
      <trkpt lat="49.83274" lon="2.59984">
        <ele>78.1</ele>
        <time>2022-07-10T10:59:51Z</time>
      </trkpt>
      <trkpt lat="49.83273" lon="2.59984">
        <ele>78.1</ele>
        <time>2022-07-10T10:59:52Z</time>
      </trkpt>
      <trkpt lat="49.83271" lon="2.59983">
        <ele>77.9</ele>
        <time>2022-07-10T10:59:54Z</time>
      </trkpt>
      <trkpt lat="49.8327" lon="2.59983">
        <ele>77.9</ele>
        <time>2022-07-10T10:59:55Z</time>
      </trkpt>
      <trkpt lat="49.83267" lon="2.59981">
        <ele>77.6</ele>
        <time>2022-07-10T10:59:56Z</time>
      </trkpt>
      <trkpt lat="49.83266" lon="2.59981">
        <ele>77.4</ele>
        <time>2022-07-10T10:59:57Z</time>
      </trkpt>
      <trkpt lat="49.83265" lon="2.5998">
        <ele>77.4</ele>
        <time>2022-07-10T10:59:58Z</time>
      </trkpt>
      <trkpt lat="49.83263" lon="2.59979">
        <ele>77.2</ele>
        <time>2022-07-10T10:59:59Z</time>
      </trkpt>
      <trkpt lat="49.83261" lon="2.59978">
        <ele>77.1</ele>
        <time>2022-07-10T11:00:01Z</time>
      </trkpt>
      <trkpt lat="49.8326" lon="2.59978">
        <ele>77.1</ele>
        <time>2022-07-10T11:00:02Z</time>
      </trkpt>
      <trkpt lat="49.83258" lon="2.59977">
        <ele>77</ele>
        <time>2022-07-10T11:00:03Z</time>
      </trkpt>
      <trkpt lat="49.83257" lon="2.59976">
        <ele>76.8</ele>
        <time>2022-07-10T11:00:04Z</time>
      </trkpt>
      <trkpt lat="49.83255" lon="2.59975">
        <ele>76.8</ele>
        <time>2022-07-10T11:00:05Z</time>
      </trkpt>
      <trkpt lat="49.83253" lon="2.59974">
        <ele>76.8</ele>
        <time>2022-07-10T11:00:07Z</time>
      </trkpt>
      <trkpt lat="49.83252" lon="2.59974">
        <ele>76.7</ele>
        <time>2022-07-10T11:00:08Z</time>
      </trkpt>
      <trkpt lat="49.83252" lon="2.59973">
        <ele>76.7</ele>
        <time>2022-07-10T11:00:09Z</time>
      </trkpt>
      <trkpt lat="49.83251" lon="2.59973">
        <ele>76.7</ele>
        <time>2022-07-10T11:00:10Z</time>
      </trkpt>
      <trkpt lat="49.8325" lon="2.59972">
        <ele>76.5</ele>
        <time>2022-07-10T11:00:11Z</time>
      </trkpt>
      <trkpt lat="49.83249" lon="2.59972">
        <ele>76.5</ele>
        <time>2022-07-10T11:00:12Z</time>
      </trkpt>
      <trkpt lat="49.83249" lon="2.59971">
        <ele>76.5</ele>
        <time>2022-07-10T11:00:14Z</time>
      </trkpt>
      <trkpt lat="49.83248" lon="2.59971">
        <ele>76.5</ele>
        <time>2022-07-10T11:00:15Z</time>
      </trkpt>
      <trkpt lat="49.83248" lon="2.59972">
        <ele>76.5</ele>
        <time>2022-07-10T11:00:17Z</time>
      </trkpt>
      <trkpt lat="49.83248" lon="2.59972">
        <ele>76.5</ele>
        <time>2022-07-10T11:00:18Z</time>
      </trkpt>
      <trkpt lat="49.83249" lon="2.59972">
        <ele>76.5</ele>
        <time>2022-07-10T11:00:19Z</time>
      </trkpt>
      <trkpt lat="49.83249" lon="2.59972">
        <ele>76.5</ele>
        <time>2022-07-10T11:00:20Z</time>
      </trkpt>
      <trkpt lat="49.83249" lon="2.59973">
        <ele>76.5</ele>
        <time>2022-07-10T11:00:21Z</time>
      </trkpt>
      <trkpt lat="49.83249" lon="2.59973">
        <ele>76.6</ele>
        <time>2022-07-10T11:00:22Z</time>
      </trkpt>
      <trkpt lat="49.8325" lon="2.59973">
        <ele>76.6</ele>
        <time>2022-07-10T11:00:23Z</time>
      </trkpt>
      <trkpt lat="49.83251" lon="2.59974">
        <ele>76.7</ele>
        <time>2022-07-10T11:00:24Z</time>
      </trkpt>
      <trkpt lat="49.83251" lon="2.59974">
        <ele>76.7</ele>
        <time>2022-07-10T11:00:25Z</time>
      </trkpt>
      <trkpt lat="49.83251" lon="2.59974">
        <ele>76.7</ele>
        <time>2022-07-10T11:00:26Z</time>
      </trkpt>
      <trkpt lat="49.83251" lon="2.59974">
        <ele>76.7</ele>
        <time>2022-07-10T11:00:27Z</time>
      </trkpt>
      <trkpt lat="49.83251" lon="2.59974">
        <ele>76.7</ele>
        <time>2022-07-10T11:00:28Z</time>
      </trkpt>
      <trkpt lat="49.83251" lon="2.59974">
        <ele>76.7</ele>
        <time>2022-07-10T11:00:29Z</time>
      </trkpt>
      <trkpt lat="49.83251" lon="2.59974">
        <ele>76.7</ele>
        <time>2022-07-10T11:00:30Z</time>
      </trkpt>
      <trkpt lat="49.83251" lon="2.59974">
        <ele>76.7</ele>
        <time>2022-07-10T11:00:31Z</time>
      </trkpt>
      <trkpt lat="49.83251" lon="2.59974">
        <ele>76.7</ele>
        <time>2022-07-10T11:00:32Z</time>
      </trkpt>
      <trkpt lat="49.83251" lon="2.59974">
        <ele>76.7</ele>
        <time>2022-07-10T11:00:33Z</time>
      </trkpt>
      <trkpt lat="49.83251" lon="2.59974">
        <ele>76.7</ele>
        <time>2022-07-10T11:00:34Z</time>
      </trkpt>
      <trkpt lat="49.83251" lon="2.59974">
        <ele>76.7</ele>
        <time>2022-07-10T11:00:35Z</time>
      </trkpt>
      <trkpt lat="49.83251" lon="2.59974">
        <ele>76.7</ele>
        <time>2022-07-10T11:00:36Z</time>
      </trkpt>
      <trkpt lat="49.83251" lon="2.59974">
        <ele>76.7</ele>
        <time>2022-07-10T11:00:37Z</time>
      </trkpt>
      <trkpt lat="49.83251" lon="2.59974">
        <ele>76.7</ele>
        <time>2022-07-10T11:00:38Z</time>
      </trkpt>
      <trkpt lat="49.83251" lon="2.59974">
        <ele>76.7</ele>
        <time>2022-07-10T11:00:39Z</time>
      </trkpt>
      <trkpt lat="49.83251" lon="2.59974">
        <ele>76.7</ele>
        <time>2022-07-10T11:00:40Z</time>
      </trkpt>
      <trkpt lat="49.83251" lon="2.59974">
        <ele>76.7</ele>
        <time>2022-07-10T11:00:41Z</time>
      </trkpt>
      <trkpt lat="49.83251" lon="2.59974">
        <ele>76.6</ele>
        <time>2022-07-10T11:00:42Z</time>
      </trkpt>
      <trkpt lat="49.83251" lon="2.59974">
        <ele>76.6</ele>
        <time>2022-07-10T11:00:43Z</time>
      </trkpt>
      <trkpt lat="49.83251" lon="2.59974">
        <ele>76.6</ele>
        <time>2022-07-10T11:00:44Z</time>
      </trkpt>
      <trkpt lat="49.83251" lon="2.59974">
        <ele>76.6</ele>
        <time>2022-07-10T11:00:45Z</time>
      </trkpt>
      <trkpt lat="49.83251" lon="2.59974">
        <ele>76.6</ele>
        <time>2022-07-10T11:00:46Z</time>
      </trkpt>
      <trkpt lat="49.83251" lon="2.59974">
        <ele>76.6</ele>
        <time>2022-07-10T11:00:47Z</time>
      </trkpt>
      <trkpt lat="49.83251" lon="2.59974">
        <ele>76.6</ele>
        <time>2022-07-10T11:00:48Z</time>
      </trkpt>
      <trkpt lat="49.83251" lon="2.59974">
        <ele>76.6</ele>
        <time>2022-07-10T11:00:49Z</time>
      </trkpt>
      <trkpt lat="49.83251" lon="2.59974">
        <ele>76.6</ele>
        <time>2022-07-10T11:00:50Z</time>
      </trkpt>
      <trkpt lat="49.83251" lon="2.59974">
        <ele>76.6</ele>
        <time>2022-07-10T11:00:51Z</time>
      </trkpt>
      <trkpt lat="49.83251" lon="2.59974">
        <ele>76.6</ele>
        <time>2022-07-10T11:00:52Z</time>
      </trkpt>
      <trkpt lat="49.83251" lon="2.59974">
        <ele>76.6</ele>
        <time>2022-07-10T11:00:53Z</time>
      </trkpt>
      <trkpt lat="49.83252" lon="2.59975">
        <ele>76.6</ele>
        <time>2022-07-10T11:00:54Z</time>
      </trkpt>
      <trkpt lat="49.83252" lon="2.59974">
        <ele>76.6</ele>
        <time>2022-07-10T11:00:55Z</time>
      </trkpt>
      <trkpt lat="49.83252" lon="2.59974">
        <ele>76.6</ele>
        <time>2022-07-10T11:00:56Z</time>
      </trkpt>
      <trkpt lat="49.83251" lon="2.59974">
        <ele>76.6</ele>
        <time>2022-07-10T11:00:57Z</time>
      </trkpt>
      <trkpt lat="49.83251" lon="2.59974">
        <ele>76.6</ele>
        <time>2022-07-10T11:00:58Z</time>
      </trkpt>
      <trkpt lat="49.8325" lon="2.59973">
        <ele>76.6</ele>
        <time>2022-07-10T11:00:59Z</time>
      </trkpt>
      <trkpt lat="49.8325" lon="2.59973">
        <ele>76.6</ele>
        <time>2022-07-10T11:01:00Z</time>
      </trkpt>
      <trkpt lat="49.83249" lon="2.59972">
        <ele>76.4</ele>
        <time>2022-07-10T11:01:01Z</time>
      </trkpt>
      <trkpt lat="49.83247" lon="2.59971">
        <ele>76.4</ele>
        <time>2022-07-10T11:01:02Z</time>
      </trkpt>
      <trkpt lat="49.83246" lon="2.59971">
        <ele>76.4</ele>
        <time>2022-07-10T11:01:03Z</time>
      </trkpt>
      <trkpt lat="49.83245" lon="2.5997">
        <ele>76.4</ele>
        <time>2022-07-10T11:01:04Z</time>
      </trkpt>
      <trkpt lat="49.83245" lon="2.59969">
        <ele>76.4</ele>
        <time>2022-07-10T11:01:05Z</time>
      </trkpt>
      <trkpt lat="49.83244" lon="2.59968">
        <ele>76.2</ele>
        <time>2022-07-10T11:01:06Z</time>
      </trkpt>
      <trkpt lat="49.83243" lon="2.59966">
        <ele>76.2</ele>
        <time>2022-07-10T11:01:07Z</time>
      </trkpt>
      <trkpt lat="49.83241" lon="2.59965">
        <ele>76.2</ele>
        <time>2022-07-10T11:01:08Z</time>
      </trkpt>
      <trkpt lat="49.8324" lon="2.59964">
        <ele>76</ele>
        <time>2022-07-10T11:01:09Z</time>
      </trkpt>
      <trkpt lat="49.83239" lon="2.59963">
        <ele>76</ele>
        <time>2022-07-10T11:01:10Z</time>
      </trkpt>
      <trkpt lat="49.83238" lon="2.59962">
        <ele>76</ele>
        <time>2022-07-10T11:01:11Z</time>
      </trkpt>
      <trkpt lat="49.83235" lon="2.59959">
        <ele>75.8</ele>
        <time>2022-07-10T11:01:12Z</time>
      </trkpt>
      <trkpt lat="49.83234" lon="2.59958">
        <ele>75.8</ele>
        <time>2022-07-10T11:01:14Z</time>
      </trkpt>
      <trkpt lat="49.83233" lon="2.59956">
        <ele>75.9</ele>
        <time>2022-07-10T11:01:15Z</time>
      </trkpt>
      <trkpt lat="49.83232" lon="2.59955">
        <ele>75.6</ele>
        <time>2022-07-10T11:01:16Z</time>
      </trkpt>
      <trkpt lat="49.8323" lon="2.59953">
        <ele>75.7</ele>
        <time>2022-07-10T11:01:17Z</time>
      </trkpt>
      <trkpt lat="49.83229" lon="2.59952">
        <ele>75.7</ele>
        <time>2022-07-10T11:01:18Z</time>
      </trkpt>
      <trkpt lat="49.83226" lon="2.59949">
        <ele>75.5</ele>
        <time>2022-07-10T11:01:19Z</time>
      </trkpt>
      <trkpt lat="49.83225" lon="2.59948">
        <ele>75.5</ele>
        <time>2022-07-10T11:01:20Z</time>
      </trkpt>
      <trkpt lat="49.83224" lon="2.59946">
        <ele>75.4</ele>
        <time>2022-07-10T11:01:21Z</time>
      </trkpt>
      <trkpt lat="49.83223" lon="2.59946">
        <ele>75.4</ele>
        <time>2022-07-10T11:01:22Z</time>
      </trkpt>
      <trkpt lat="49.83222" lon="2.59945">
        <ele>75.4</ele>
        <time>2022-07-10T11:01:23Z</time>
      </trkpt>
      <trkpt lat="49.83221" lon="2.59944">
        <ele>75.4</ele>
        <time>2022-07-10T11:01:25Z</time>
      </trkpt>
      <trkpt lat="49.83219" lon="2.59943">
        <ele>75.5</ele>
        <time>2022-07-10T11:01:26Z</time>
      </trkpt>
      <trkpt lat="49.83218" lon="2.59943">
        <ele>75.5</ele>
        <time>2022-07-10T11:01:27Z</time>
      </trkpt>
      <trkpt lat="49.83217" lon="2.59942">
        <ele>75.2</ele>
        <time>2022-07-10T11:01:28Z</time>
      </trkpt>
      <trkpt lat="49.83216" lon="2.59941">
        <ele>75.3</ele>
        <time>2022-07-10T11:01:29Z</time>
      </trkpt>
      <trkpt lat="49.83213" lon="2.59939">
        <ele>75.4</ele>
        <time>2022-07-10T11:01:31Z</time>
      </trkpt>
      <trkpt lat="49.83213" lon="2.59939">
        <ele>75.4</ele>
        <time>2022-07-10T11:01:32Z</time>
      </trkpt>
      <trkpt lat="49.83211" lon="2.59938">
        <ele>75.1</ele>
        <time>2022-07-10T11:01:33Z</time>
      </trkpt>
      <trkpt lat="49.8321" lon="2.59938">
        <ele>75.1</ele>
        <time>2022-07-10T11:01:34Z</time>
      </trkpt>
      <trkpt lat="49.83208" lon="2.59937">
        <ele>75.2</ele>
        <time>2022-07-10T11:01:35Z</time>
      </trkpt>
      <trkpt lat="49.83208" lon="2.59937">
        <ele>75.2</ele>
        <time>2022-07-10T11:01:36Z</time>
      </trkpt>
      <trkpt lat="49.83207" lon="2.59937">
        <ele>75.2</ele>
        <time>2022-07-10T11:01:37Z</time>
      </trkpt>
      <trkpt lat="49.83205" lon="2.59937">
        <ele>75.3</ele>
        <time>2022-07-10T11:01:38Z</time>
      </trkpt>
      <trkpt lat="49.83204" lon="2.59936">
        <ele>75.3</ele>
        <time>2022-07-10T11:01:39Z</time>
      </trkpt>
      <trkpt lat="49.83203" lon="2.59935">
        <ele>75.4</ele>
        <time>2022-07-10T11:01:41Z</time>
      </trkpt>
      <trkpt lat="49.83202" lon="2.59934">
        <ele>75.4</ele>
        <time>2022-07-10T11:01:42Z</time>
      </trkpt>
      <trkpt lat="49.83201" lon="2.59933">
        <ele>75.1</ele>
        <time>2022-07-10T11:01:43Z</time>
      </trkpt>
      <trkpt lat="49.83201" lon="2.59932">
        <ele>75.1</ele>
        <time>2022-07-10T11:01:44Z</time>
      </trkpt>
      <trkpt lat="49.83199" lon="2.59931">
        <ele>75.2</ele>
        <time>2022-07-10T11:01:45Z</time>
      </trkpt>
      <trkpt lat="49.83198" lon="2.59931">
        <ele>75.2</ele>
        <time>2022-07-10T11:01:46Z</time>
      </trkpt>
      <trkpt lat="49.83198" lon="2.59931">
        <ele>75.4</ele>
        <time>2022-07-10T11:01:48Z</time>
      </trkpt>
      <trkpt lat="49.83197" lon="2.59931">
        <ele>75.3</ele>
        <time>2022-07-10T11:01:49Z</time>
      </trkpt>
      <trkpt lat="49.83195" lon="2.59931">
        <ele>75.3</ele>
        <time>2022-07-10T11:01:50Z</time>
      </trkpt>
      <trkpt lat="49.83194" lon="2.5993">
        <ele>75.5</ele>
        <time>2022-07-10T11:01:51Z</time>
      </trkpt>
      <trkpt lat="49.83193" lon="2.5993">
        <ele>75.5</ele>
        <time>2022-07-10T11:01:52Z</time>
      </trkpt>
      <trkpt lat="49.83192" lon="2.5993">
        <ele>75.5</ele>
        <time>2022-07-10T11:01:54Z</time>
      </trkpt>
      <trkpt lat="49.83191" lon="2.59929">
        <ele>75.3</ele>
        <time>2022-07-10T11:01:55Z</time>
      </trkpt>
      <trkpt lat="49.8319" lon="2.59928">
        <ele>75.3</ele>
        <time>2022-07-10T11:01:56Z</time>
      </trkpt>
      <trkpt lat="49.83189" lon="2.59927">
        <ele>75.5</ele>
        <time>2022-07-10T11:01:58Z</time>
      </trkpt>
      <trkpt lat="49.83188" lon="2.59927">
        <ele>75.5</ele>
        <time>2022-07-10T11:01:59Z</time>
      </trkpt>
      <trkpt lat="49.83187" lon="2.59926">
        <ele>75.5</ele>
        <time>2022-07-10T11:02:00Z</time>
      </trkpt>
      <trkpt lat="49.83186" lon="2.59924">
        <ele>75.4</ele>
        <time>2022-07-10T11:02:01Z</time>
      </trkpt>
      <trkpt lat="49.83185" lon="2.59924">
        <ele>75.4</ele>
        <time>2022-07-10T11:02:02Z</time>
      </trkpt>
      <trkpt lat="49.83184" lon="2.59923">
        <ele>75.5</ele>
        <time>2022-07-10T11:02:03Z</time>
      </trkpt>
      <trkpt lat="49.83183" lon="2.59922">
        <ele>75.5</ele>
        <time>2022-07-10T11:02:05Z</time>
      </trkpt>
      <trkpt lat="49.83182" lon="2.59921">
        <ele>75.5</ele>
        <time>2022-07-10T11:02:06Z</time>
      </trkpt>
      <trkpt lat="49.83181" lon="2.59921">
        <ele>75.4</ele>
        <time>2022-07-10T11:02:07Z</time>
      </trkpt>
      <trkpt lat="49.83179" lon="2.5992">
        <ele>75.4</ele>
        <time>2022-07-10T11:02:08Z</time>
      </trkpt>
      <trkpt lat="49.83178" lon="2.5992">
        <ele>75.5</ele>
        <time>2022-07-10T11:02:09Z</time>
      </trkpt>
      <trkpt lat="49.83177" lon="2.59919">
        <ele>75.5</ele>
        <time>2022-07-10T11:02:10Z</time>
      </trkpt>
      <trkpt lat="49.83176" lon="2.59919">
        <ele>75.5</ele>
        <time>2022-07-10T11:02:12Z</time>
      </trkpt>
      <trkpt lat="49.83176" lon="2.59919">
        <ele>75.5</ele>
        <time>2022-07-10T11:02:13Z</time>
      </trkpt>
      <trkpt lat="49.83175" lon="2.59919">
        <ele>75.7</ele>
        <time>2022-07-10T11:02:14Z</time>
      </trkpt>
      <trkpt lat="49.83173" lon="2.59919">
        <ele>75.7</ele>
        <time>2022-07-10T11:02:15Z</time>
      </trkpt>
      <trkpt lat="49.83172" lon="2.59918">
        <ele>75.8</ele>
        <time>2022-07-10T11:02:16Z</time>
      </trkpt>
      <trkpt lat="49.8317" lon="2.59917">
        <ele>76</ele>
        <time>2022-07-10T11:02:17Z</time>
      </trkpt>
      <trkpt lat="49.83168" lon="2.59916">
        <ele>75.7</ele>
        <time>2022-07-10T11:02:18Z</time>
      </trkpt>
      <trkpt lat="49.83166" lon="2.59916">
        <ele>75.9</ele>
        <time>2022-07-10T11:02:19Z</time>
      </trkpt>
      <trkpt lat="49.83164" lon="2.59915">
        <ele>75.9</ele>
        <time>2022-07-10T11:02:20Z</time>
      </trkpt>
      <trkpt lat="49.83162" lon="2.59914">
        <ele>76</ele>
        <time>2022-07-10T11:02:22Z</time>
      </trkpt>
      <trkpt lat="49.83159" lon="2.59913">
        <ele>76.1</ele>
        <time>2022-07-10T11:02:23Z</time>
      </trkpt>
      <trkpt lat="49.83158" lon="2.59913">
        <ele>76.2</ele>
        <time>2022-07-10T11:02:24Z</time>
      </trkpt>
      <trkpt lat="49.83157" lon="2.59912">
        <ele>76</ele>
        <time>2022-07-10T11:02:25Z</time>
      </trkpt>
      <trkpt lat="49.83155" lon="2.59912">
        <ele>76.1</ele>
        <time>2022-07-10T11:02:26Z</time>
      </trkpt>
      <trkpt lat="49.83153" lon="2.59911">
        <ele>76.1</ele>
        <time>2022-07-10T11:02:27Z</time>
      </trkpt>
      <trkpt lat="49.83152" lon="2.5991">
        <ele>76.1</ele>
        <time>2022-07-10T11:02:28Z</time>
      </trkpt>
      <trkpt lat="49.83151" lon="2.5991">
        <ele>76.1</ele>
        <time>2022-07-10T11:02:29Z</time>
      </trkpt>
      <trkpt lat="49.8315" lon="2.59909">
        <ele>76.2</ele>
        <time>2022-07-10T11:02:30Z</time>
      </trkpt>
      <trkpt lat="49.83148" lon="2.59908">
        <ele>76.2</ele>
        <time>2022-07-10T11:02:31Z</time>
      </trkpt>
      <trkpt lat="49.83147" lon="2.59907">
        <ele>76</ele>
        <time>2022-07-10T11:02:33Z</time>
      </trkpt>
      <trkpt lat="49.83145" lon="2.59907">
        <ele>76</ele>
        <time>2022-07-10T11:02:34Z</time>
      </trkpt>
      <trkpt lat="49.83145" lon="2.59906">
        <ele>76.1</ele>
        <time>2022-07-10T11:02:35Z</time>
      </trkpt>
      <trkpt lat="49.83144" lon="2.59905">
        <ele>76.1</ele>
        <time>2022-07-10T11:02:36Z</time>
      </trkpt>
      <trkpt lat="49.83143" lon="2.59904">
        <ele>76.1</ele>
        <time>2022-07-10T11:02:37Z</time>
      </trkpt>
      <trkpt lat="49.83141" lon="2.59903">
        <ele>75.9</ele>
        <time>2022-07-10T11:02:38Z</time>
      </trkpt>
      <trkpt lat="49.8314" lon="2.59902">
        <ele>75.9</ele>
        <time>2022-07-10T11:02:39Z</time>
      </trkpt>
      <trkpt lat="49.83139" lon="2.59902">
        <ele>76</ele>
        <time>2022-07-10T11:02:40Z</time>
      </trkpt>
      <trkpt lat="49.83138" lon="2.59901">
        <ele>76</ele>
        <time>2022-07-10T11:02:41Z</time>
      </trkpt>
      <trkpt lat="49.83137" lon="2.59901">
        <ele>76</ele>
        <time>2022-07-10T11:02:42Z</time>
      </trkpt>
      <trkpt lat="49.83136" lon="2.599">
        <ele>76.1</ele>
        <time>2022-07-10T11:02:44Z</time>
      </trkpt>
      <trkpt lat="49.83135" lon="2.599">
        <ele>75.8</ele>
        <time>2022-07-10T11:02:45Z</time>
      </trkpt>
      <trkpt lat="49.83134" lon="2.59899">
        <ele>75.9</ele>
        <time>2022-07-10T11:02:46Z</time>
      </trkpt>
      <trkpt lat="49.83132" lon="2.59899">
        <ele>75.9</ele>
        <time>2022-07-10T11:02:47Z</time>
      </trkpt>
      <trkpt lat="49.83131" lon="2.59898">
        <ele>75.9</ele>
        <time>2022-07-10T11:02:48Z</time>
      </trkpt>
      <trkpt lat="49.8313" lon="2.59898">
        <ele>75.9</ele>
        <time>2022-07-10T11:02:50Z</time>
      </trkpt>
      <trkpt lat="49.83129" lon="2.59898">
        <ele>75.9</ele>
        <time>2022-07-10T11:02:51Z</time>
      </trkpt>
      <trkpt lat="49.83127" lon="2.59897">
        <ele>76</ele>
        <time>2022-07-10T11:02:52Z</time>
      </trkpt>
      <trkpt lat="49.83126" lon="2.59897">
        <ele>76</ele>
        <time>2022-07-10T11:02:53Z</time>
      </trkpt>
      <trkpt lat="49.83125" lon="2.59897">
        <ele>76</ele>
        <time>2022-07-10T11:02:54Z</time>
      </trkpt>
      <trkpt lat="49.83124" lon="2.59896">
        <ele>76</ele>
        <time>2022-07-10T11:02:55Z</time>
      </trkpt>
      <trkpt lat="49.83124" lon="2.59896">
        <ele>76</ele>
        <time>2022-07-10T11:02:56Z</time>
      </trkpt>
      <trkpt lat="49.83123" lon="2.59895">
        <ele>75.8</ele>
        <time>2022-07-10T11:02:57Z</time>
      </trkpt>
      <trkpt lat="49.83121" lon="2.59894">
        <ele>75.8</ele>
        <time>2022-07-10T11:02:58Z</time>
      </trkpt>
      <trkpt lat="49.83121" lon="2.59894">
        <ele>75.8</ele>
        <time>2022-07-10T11:02:59Z</time>
      </trkpt>
      <trkpt lat="49.8312" lon="2.59893">
        <ele>75.8</ele>
        <time>2022-07-10T11:03:01Z</time>
      </trkpt>
      <trkpt lat="49.83119" lon="2.59893">
        <ele>75.8</ele>
        <time>2022-07-10T11:03:02Z</time>
      </trkpt>
      <trkpt lat="49.83118" lon="2.59893">
        <ele>75.8</ele>
        <time>2022-07-10T11:03:03Z</time>
      </trkpt>
      <trkpt lat="49.83116" lon="2.59892">
        <ele>75.7</ele>
        <time>2022-07-10T11:03:04Z</time>
      </trkpt>
      <trkpt lat="49.83115" lon="2.59892">
        <ele>75.7</ele>
        <time>2022-07-10T11:03:05Z</time>
      </trkpt>
      <trkpt lat="49.83114" lon="2.59892">
        <ele>75.7</ele>
        <time>2022-07-10T11:03:07Z</time>
      </trkpt>
      <trkpt lat="49.83113" lon="2.59891">
        <ele>75.7</ele>
        <time>2022-07-10T11:03:09Z</time>
      </trkpt>
      <trkpt lat="49.83113" lon="2.59891">
        <ele>75.5</ele>
        <time>2022-07-10T11:03:10Z</time>
      </trkpt>
      <trkpt lat="49.83113" lon="2.59891">
        <ele>75.5</ele>
        <time>2022-07-10T11:03:11Z</time>
      </trkpt>
      <trkpt lat="49.83113" lon="2.59891">
        <ele>75.5</ele>
        <time>2022-07-10T11:03:12Z</time>
      </trkpt>
      <trkpt lat="49.83113" lon="2.59891">
        <ele>75.5</ele>
        <time>2022-07-10T11:03:13Z</time>
      </trkpt>
      <trkpt lat="49.83114" lon="2.59891">
        <ele>75.7</ele>
        <time>2022-07-10T11:03:14Z</time>
      </trkpt>
      <trkpt lat="49.83114" lon="2.59891">
        <ele>75.7</ele>
        <time>2022-07-10T11:03:15Z</time>
      </trkpt>
      <trkpt lat="49.83114" lon="2.59891">
        <ele>75.7</ele>
        <time>2022-07-10T11:03:16Z</time>
      </trkpt>
      <trkpt lat="49.83114" lon="2.59891">
        <ele>75.7</ele>
        <time>2022-07-10T11:03:17Z</time>
      </trkpt>
      <trkpt lat="49.83114" lon="2.59892">
        <ele>75.7</ele>
        <time>2022-07-10T11:03:18Z</time>
      </trkpt>
      <trkpt lat="49.83114" lon="2.59892">
        <ele>75.7</ele>
        <time>2022-07-10T11:03:20Z</time>
      </trkpt>
      <trkpt lat="49.83114" lon="2.59892">
        <ele>75.7</ele>
        <time>2022-07-10T11:03:21Z</time>
      </trkpt>
      <trkpt lat="49.83114" lon="2.59892">
        <ele>75.7</ele>
        <time>2022-07-10T11:03:22Z</time>
      </trkpt>
      <trkpt lat="49.83114" lon="2.59891">
        <ele>75.7</ele>
        <time>2022-07-10T11:03:23Z</time>
      </trkpt>
      <trkpt lat="49.83115" lon="2.59892">
        <ele>75.7</ele>
        <time>2022-07-10T11:03:24Z</time>
      </trkpt>
      <trkpt lat="49.83115" lon="2.59892">
        <ele>75.7</ele>
        <time>2022-07-10T11:03:25Z</time>
      </trkpt>
      <trkpt lat="49.83115" lon="2.59892">
        <ele>75.7</ele>
        <time>2022-07-10T11:03:26Z</time>
      </trkpt>
      <trkpt lat="49.83115" lon="2.59892">
        <ele>75.7</ele>
        <time>2022-07-10T11:03:27Z</time>
      </trkpt>
      <trkpt lat="49.83115" lon="2.59892">
        <ele>75.7</ele>
        <time>2022-07-10T11:03:28Z</time>
      </trkpt>
      <trkpt lat="49.83115" lon="2.59892">
        <ele>75.7</ele>
        <time>2022-07-10T11:03:29Z</time>
      </trkpt>
      <trkpt lat="49.83115" lon="2.59892">
        <ele>75.7</ele>
        <time>2022-07-10T11:03:30Z</time>
      </trkpt>
      <trkpt lat="49.83115" lon="2.59892">
        <ele>75.7</ele>
        <time>2022-07-10T11:03:31Z</time>
      </trkpt>
      <trkpt lat="49.83115" lon="2.59892">
        <ele>75.7</ele>
        <time>2022-07-10T11:03:32Z</time>
      </trkpt>
      <trkpt lat="49.83115" lon="2.59892">
        <ele>75.7</ele>
        <time>2022-07-10T11:03:33Z</time>
      </trkpt>
      <trkpt lat="49.83115" lon="2.59892">
        <ele>75.7</ele>
        <time>2022-07-10T11:03:34Z</time>
      </trkpt>
      <trkpt lat="49.83115" lon="2.59892">
        <ele>75.7</ele>
        <time>2022-07-10T11:03:36Z</time>
      </trkpt>
      <trkpt lat="49.83115" lon="2.59892">
        <ele>75.7</ele>
        <time>2022-07-10T11:03:37Z</time>
      </trkpt>
      <trkpt lat="49.83115" lon="2.59892">
        <ele>75.7</ele>
        <time>2022-07-10T11:03:38Z</time>
      </trkpt>
      <trkpt lat="49.83115" lon="2.59892">
        <ele>75.7</ele>
        <time>2022-07-10T11:03:39Z</time>
      </trkpt>
      <trkpt lat="49.83115" lon="2.59892">
        <ele>75.7</ele>
        <time>2022-07-10T11:03:40Z</time>
      </trkpt>
      <trkpt lat="49.83115" lon="2.59892">
        <ele>75.7</ele>
        <time>2022-07-10T11:03:41Z</time>
      </trkpt>
      <trkpt lat="49.83115" lon="2.59892">
        <ele>75.7</ele>
        <time>2022-07-10T11:03:42Z</time>
      </trkpt>
      <trkpt lat="49.83115" lon="2.59892">
        <ele>75.7</ele>
        <time>2022-07-10T11:03:43Z</time>
      </trkpt>
      <trkpt lat="49.83115" lon="2.59892">
        <ele>75.7</ele>
        <time>2022-07-10T11:03:44Z</time>
      </trkpt>
      <trkpt lat="49.83115" lon="2.59892">
        <ele>75.7</ele>
        <time>2022-07-10T11:03:45Z</time>
      </trkpt>
      <trkpt lat="49.83115" lon="2.59892">
        <ele>75.7</ele>
        <time>2022-07-10T11:03:46Z</time>
      </trkpt>
      <trkpt lat="49.83115" lon="2.59892">
        <ele>75.7</ele>
        <time>2022-07-10T11:03:47Z</time>
      </trkpt>
      <trkpt lat="49.83115" lon="2.59892">
        <ele>75.7</ele>
        <time>2022-07-10T11:03:48Z</time>
      </trkpt>
      <trkpt lat="49.83115" lon="2.59892">
        <ele>75.7</ele>
        <time>2022-07-10T11:03:49Z</time>
      </trkpt>
      <trkpt lat="49.83115" lon="2.59892">
        <ele>75.7</ele>
        <time>2022-07-10T11:03:50Z</time>
      </trkpt>
      <trkpt lat="49.83115" lon="2.59892">
        <ele>75.7</ele>
        <time>2022-07-10T11:03:51Z</time>
      </trkpt>
      <trkpt lat="49.83115" lon="2.59891">
        <ele>75.7</ele>
        <time>2022-07-10T11:03:52Z</time>
      </trkpt>
      <trkpt lat="49.83115" lon="2.59891">
        <ele>75.6</ele>
        <time>2022-07-10T11:03:53Z</time>
      </trkpt>
      <trkpt lat="49.83114" lon="2.59891">
        <ele>75.4</ele>
        <time>2022-07-10T11:03:54Z</time>
      </trkpt>
      <trkpt lat="49.83113" lon="2.59891">
        <ele>75.4</ele>
        <time>2022-07-10T11:03:55Z</time>
      </trkpt>
      <trkpt lat="49.83111" lon="2.5989">
        <ele>75.4</ele>
        <time>2022-07-10T11:03:56Z</time>
      </trkpt>
      <trkpt lat="49.8311" lon="2.5989">
        <ele>75.4</ele>
        <time>2022-07-10T11:03:57Z</time>
      </trkpt>
      <trkpt lat="49.83108" lon="2.59889">
        <ele>75.3</ele>
        <time>2022-07-10T11:03:58Z</time>
      </trkpt>
      <trkpt lat="49.83108" lon="2.59889">
        <ele>75.3</ele>
        <time>2022-07-10T11:03:59Z</time>
      </trkpt>
      <trkpt lat="49.83107" lon="2.59889">
        <ele>75.3</ele>
        <time>2022-07-10T11:04:00Z</time>
      </trkpt>
      <trkpt lat="49.83106" lon="2.59889">
        <ele>75.2</ele>
        <time>2022-07-10T11:04:01Z</time>
      </trkpt>
      <trkpt lat="49.83105" lon="2.59889">
        <ele>75.2</ele>
        <time>2022-07-10T11:04:03Z</time>
      </trkpt>
      <trkpt lat="49.83104" lon="2.59889">
        <ele>75.2</ele>
        <time>2022-07-10T11:04:04Z</time>
      </trkpt>
      <trkpt lat="49.83103" lon="2.59889">
        <ele>75.1</ele>
        <time>2022-07-10T11:04:05Z</time>
      </trkpt>
      <trkpt lat="49.83102" lon="2.59888">
        <ele>75.1</ele>
        <time>2022-07-10T11:04:06Z</time>
      </trkpt>
      <trkpt lat="49.831" lon="2.59887">
        <ele>74.9</ele>
        <time>2022-07-10T11:04:08Z</time>
      </trkpt>
      <trkpt lat="49.83098" lon="2.59886">
        <ele>74.7</ele>
        <time>2022-07-10T11:04:09Z</time>
      </trkpt>
      <trkpt lat="49.83097" lon="2.59885">
        <ele>74.6</ele>
        <time>2022-07-10T11:04:10Z</time>
      </trkpt>
      <trkpt lat="49.83095" lon="2.59884">
        <ele>74.5</ele>
        <time>2022-07-10T11:04:11Z</time>
      </trkpt>
      <trkpt lat="49.83093" lon="2.59883">
        <ele>74.5</ele>
        <time>2022-07-10T11:04:13Z</time>
      </trkpt>
      <trkpt lat="49.83091" lon="2.59882">
        <ele>74.1</ele>
        <time>2022-07-10T11:04:14Z</time>
      </trkpt>
      <trkpt lat="49.83089" lon="2.59881">
        <ele>73.9</ele>
        <time>2022-07-10T11:04:15Z</time>
      </trkpt>
      <trkpt lat="49.83088" lon="2.59881">
        <ele>73.9</ele>
        <time>2022-07-10T11:04:16Z</time>
      </trkpt>
      <trkpt lat="49.83086" lon="2.5988">
        <ele>73.7</ele>
        <time>2022-07-10T11:04:18Z</time>
      </trkpt>
      <trkpt lat="49.83086" lon="2.5988">
        <ele>73.7</ele>
        <time>2022-07-10T11:04:19Z</time>
      </trkpt>
      <trkpt lat="49.83084" lon="2.59879">
        <ele>73.6</ele>
        <time>2022-07-10T11:04:20Z</time>
      </trkpt>
      <trkpt lat="49.83083" lon="2.59879">
        <ele>73.6</ele>
        <time>2022-07-10T11:04:21Z</time>
      </trkpt>
      <trkpt lat="49.83082" lon="2.59878">
        <ele>73.6</ele>
        <time>2022-07-10T11:04:22Z</time>
      </trkpt>
      <trkpt lat="49.83079" lon="2.59877">
        <ele>73.1</ele>
        <time>2022-07-10T11:04:23Z</time>
      </trkpt>
      <trkpt lat="49.83078" lon="2.59877">
        <ele>73</ele>
        <time>2022-07-10T11:04:25Z</time>
      </trkpt>
      <trkpt lat="49.83075" lon="2.59876">
        <ele>72.8</ele>
        <time>2022-07-10T11:04:26Z</time>
      </trkpt>
      <trkpt lat="49.83074" lon="2.59876">
        <ele>72.8</ele>
        <time>2022-07-10T11:04:27Z</time>
      </trkpt>
      <trkpt lat="49.83072" lon="2.59875">
        <ele>72.7</ele>
        <time>2022-07-10T11:04:28Z</time>
      </trkpt>
      <trkpt lat="49.83071" lon="2.59874">
        <ele>72.7</ele>
        <time>2022-07-10T11:04:30Z</time>
      </trkpt>
      <trkpt lat="49.83069" lon="2.59874">
        <ele>72.2</ele>
        <time>2022-07-10T11:04:31Z</time>
      </trkpt>
      <trkpt lat="49.83068" lon="2.59873">
        <ele>72.2</ele>
        <time>2022-07-10T11:04:32Z</time>
      </trkpt>
      <trkpt lat="49.83067" lon="2.59873">
        <ele>72</ele>
        <time>2022-07-10T11:04:33Z</time>
      </trkpt>
      <trkpt lat="49.83066" lon="2.59871">
        <ele>72</ele>
        <time>2022-07-10T11:04:34Z</time>
      </trkpt>
      <trkpt lat="49.83066" lon="2.5987">
        <ele>71.9</ele>
        <time>2022-07-10T11:04:35Z</time>
      </trkpt>
      <trkpt lat="49.83065" lon="2.59869">
        <ele>71.9</ele>
        <time>2022-07-10T11:04:36Z</time>
      </trkpt>
      <trkpt lat="49.83066" lon="2.59866">
        <ele>71.7</ele>
        <time>2022-07-10T11:04:38Z</time>
      </trkpt>
      <trkpt lat="49.83066" lon="2.59864">
        <ele>71.6</ele>
        <time>2022-07-10T11:04:39Z</time>
      </trkpt>
      <trkpt lat="49.83066" lon="2.59863">
        <ele>71.5</ele>
        <time>2022-07-10T11:04:40Z</time>
      </trkpt>
      <trkpt lat="49.83065" lon="2.59861">
        <ele>71.4</ele>
        <time>2022-07-10T11:04:41Z</time>
      </trkpt>
      <trkpt lat="49.83065" lon="2.59858">
        <ele>71.2</ele>
        <time>2022-07-10T11:04:43Z</time>
      </trkpt>
      <trkpt lat="49.83064" lon="2.59856">
        <ele>71.1</ele>
        <time>2022-07-10T11:04:44Z</time>
      </trkpt>
      <trkpt lat="49.83063" lon="2.59854">
        <ele>70.9</ele>
        <time>2022-07-10T11:04:45Z</time>
      </trkpt>
      <trkpt lat="49.83063" lon="2.59851">
        <ele>70.7</ele>
        <time>2022-07-10T11:04:46Z</time>
      </trkpt>
      <trkpt lat="49.83062" lon="2.5985">
        <ele>70.6</ele>
        <time>2022-07-10T11:04:47Z</time>
      </trkpt>
      <trkpt lat="49.83062" lon="2.59849">
        <ele>70.5</ele>
        <time>2022-07-10T11:04:48Z</time>
      </trkpt>
      <trkpt lat="49.8306" lon="2.59845">
        <ele>70.2</ele>
        <time>2022-07-10T11:04:50Z</time>
      </trkpt>
      <trkpt lat="49.8306" lon="2.59843">
        <ele>70.1</ele>
        <time>2022-07-10T11:04:51Z</time>
      </trkpt>
      <trkpt lat="49.83058" lon="2.59839">
        <ele>69.8</ele>
        <time>2022-07-10T11:04:53Z</time>
      </trkpt>
      <trkpt lat="49.83057" lon="2.59837">
        <ele>69.7</ele>
        <time>2022-07-10T11:04:54Z</time>
      </trkpt>
      <trkpt lat="49.83056" lon="2.59832">
        <ele>69.3</ele>
        <time>2022-07-10T11:04:55Z</time>
      </trkpt>
      <trkpt lat="49.83055" lon="2.5983">
        <ele>69.2</ele>
        <time>2022-07-10T11:04:56Z</time>
      </trkpt>
      <trkpt lat="49.83053" lon="2.59826">
        <ele>68.8</ele>
        <time>2022-07-10T11:04:57Z</time>
      </trkpt>
      <trkpt lat="49.83053" lon="2.59824">
        <ele>68.7</ele>
        <time>2022-07-10T11:04:58Z</time>
      </trkpt>
      <trkpt lat="49.83052" lon="2.59822">
        <ele>68.5</ele>
        <time>2022-07-10T11:05:00Z</time>
      </trkpt>
      <trkpt lat="49.83051" lon="2.59819">
        <ele>68.3</ele>
        <time>2022-07-10T11:05:01Z</time>
      </trkpt>
      <trkpt lat="49.83051" lon="2.59817">
        <ele>68.2</ele>
        <time>2022-07-10T11:05:02Z</time>
      </trkpt>
      <trkpt lat="49.8305" lon="2.59815">
        <ele>68</ele>
        <time>2022-07-10T11:05:03Z</time>
      </trkpt>
      <trkpt lat="49.83049" lon="2.59814">
        <ele>67.9</ele>
        <time>2022-07-10T11:05:04Z</time>
      </trkpt>
      <trkpt lat="49.83049" lon="2.59812">
        <ele>67.8</ele>
        <time>2022-07-10T11:05:05Z</time>
      </trkpt>
      <trkpt lat="49.83048" lon="2.5981">
        <ele>67.7</ele>
        <time>2022-07-10T11:05:06Z</time>
      </trkpt>
      <trkpt lat="49.83048" lon="2.59809">
        <ele>67.5</ele>
        <time>2022-07-10T11:05:07Z</time>
      </trkpt>
      <trkpt lat="49.83047" lon="2.59809">
        <ele>67.5</ele>
        <time>2022-07-10T11:05:08Z</time>
      </trkpt>
      <trkpt lat="49.83047" lon="2.59809">
        <ele>67.5</ele>
        <time>2022-07-10T11:05:10Z</time>
      </trkpt>
      <trkpt lat="49.83047" lon="2.59809">
        <ele>67.5</ele>
        <time>2022-07-10T11:05:11Z</time>
      </trkpt>
      <trkpt lat="49.83047" lon="2.59807">
        <ele>67.4</ele>
        <time>2022-07-10T11:05:12Z</time>
      </trkpt>
      <trkpt lat="49.83047" lon="2.59805">
        <ele>67.2</ele>
        <time>2022-07-10T11:05:13Z</time>
      </trkpt>
      <trkpt lat="49.83046" lon="2.59802">
        <ele>67</ele>
        <time>2022-07-10T11:05:14Z</time>
      </trkpt>
      <trkpt lat="49.83046" lon="2.59801">
        <ele>66.9</ele>
        <time>2022-07-10T11:05:15Z</time>
      </trkpt>
      <trkpt lat="49.83045" lon="2.59799">
        <ele>66.8</ele>
        <time>2022-07-10T11:05:17Z</time>
      </trkpt>
      <trkpt lat="49.83045" lon="2.59797">
        <ele>66.7</ele>
        <time>2022-07-10T11:05:18Z</time>
      </trkpt>
      <trkpt lat="49.83045" lon="2.59795">
        <ele>66.5</ele>
        <time>2022-07-10T11:05:19Z</time>
      </trkpt>
      <trkpt lat="49.83045" lon="2.59793">
        <ele>66.4</ele>
        <time>2022-07-10T11:05:20Z</time>
      </trkpt>
      <trkpt lat="49.83044" lon="2.5979">
        <ele>66.3</ele>
        <time>2022-07-10T11:05:21Z</time>
      </trkpt>
      <trkpt lat="49.83044" lon="2.59788">
        <ele>66.1</ele>
        <time>2022-07-10T11:05:22Z</time>
      </trkpt>
      <trkpt lat="49.83043" lon="2.59782">
        <ele>65.7</ele>
        <time>2022-07-10T11:05:23Z</time>
      </trkpt>
      <trkpt lat="49.83043" lon="2.59779">
        <ele>65.6</ele>
        <time>2022-07-10T11:05:24Z</time>
      </trkpt>
      <trkpt lat="49.83043" lon="2.59774">
        <ele>65.3</ele>
        <time>2022-07-10T11:05:26Z</time>
      </trkpt>
      <trkpt lat="49.83043" lon="2.59773">
        <ele>65.2</ele>
        <time>2022-07-10T11:05:27Z</time>
      </trkpt>
      <trkpt lat="49.83044" lon="2.5977">
        <ele>65</ele>
        <time>2022-07-10T11:05:28Z</time>
      </trkpt>
      <trkpt lat="49.83044" lon="2.59768">
        <ele>64.9</ele>
        <time>2022-07-10T11:05:29Z</time>
      </trkpt>
      <trkpt lat="49.83043" lon="2.59766">
        <ele>64.7</ele>
        <time>2022-07-10T11:05:30Z</time>
      </trkpt>
      <trkpt lat="49.83044" lon="2.59764">
        <ele>64.6</ele>
        <time>2022-07-10T11:05:31Z</time>
      </trkpt>
      <trkpt lat="49.83044" lon="2.59761">
        <ele>64.5</ele>
        <time>2022-07-10T11:05:32Z</time>
      </trkpt>
      <trkpt lat="49.83044" lon="2.59759">
        <ele>64.3</ele>
        <time>2022-07-10T11:05:33Z</time>
      </trkpt>
      <trkpt lat="49.83044" lon="2.59755">
        <ele>64.1</ele>
        <time>2022-07-10T11:05:34Z</time>
      </trkpt>
      <trkpt lat="49.83045" lon="2.59754">
        <ele>64</ele>
        <time>2022-07-10T11:05:36Z</time>
      </trkpt>
      <trkpt lat="49.83045" lon="2.59752">
        <ele>63.9</ele>
        <time>2022-07-10T11:05:37Z</time>
      </trkpt>
      <trkpt lat="49.83045" lon="2.5975">
        <ele>63.7</ele>
        <time>2022-07-10T11:05:38Z</time>
      </trkpt>
      <trkpt lat="49.83045" lon="2.59748">
        <ele>63.6</ele>
        <time>2022-07-10T11:05:39Z</time>
      </trkpt>
      <trkpt lat="49.83045" lon="2.59746">
        <ele>63.4</ele>
        <time>2022-07-10T11:05:40Z</time>
      </trkpt>
      <trkpt lat="49.83046" lon="2.59744">
        <ele>63.3</ele>
        <time>2022-07-10T11:05:41Z</time>
      </trkpt>
      <trkpt lat="49.83046" lon="2.59743">
        <ele>63.2</ele>
        <time>2022-07-10T11:05:42Z</time>
      </trkpt>
      <trkpt lat="49.83046" lon="2.5974">
        <ele>63</ele>
        <time>2022-07-10T11:05:43Z</time>
      </trkpt>
      <trkpt lat="49.83046" lon="2.59738">
        <ele>62.9</ele>
        <time>2022-07-10T11:05:45Z</time>
      </trkpt>
      <trkpt lat="49.83047" lon="2.59737">
        <ele>62.8</ele>
        <time>2022-07-10T11:05:46Z</time>
      </trkpt>
      <trkpt lat="49.83047" lon="2.59735">
        <ele>62.6</ele>
        <time>2022-07-10T11:05:47Z</time>
      </trkpt>
      <trkpt lat="49.83047" lon="2.59734">
        <ele>62.5</ele>
        <time>2022-07-10T11:05:48Z</time>
      </trkpt>
      <trkpt lat="49.83047" lon="2.59732">
        <ele>62.4</ele>
        <time>2022-07-10T11:05:50Z</time>
      </trkpt>
      <trkpt lat="49.83048" lon="2.59729">
        <ele>62.2</ele>
        <time>2022-07-10T11:05:51Z</time>
      </trkpt>
      <trkpt lat="49.83048" lon="2.59727">
        <ele>62</ele>
        <time>2022-07-10T11:05:52Z</time>
      </trkpt>
      <trkpt lat="49.83048" lon="2.59724">
        <ele>61.8</ele>
        <time>2022-07-10T11:05:54Z</time>
      </trkpt>
      <trkpt lat="49.83049" lon="2.59722">
        <ele>61.7</ele>
        <time>2022-07-10T11:05:55Z</time>
      </trkpt>
      <trkpt lat="49.83049" lon="2.59721">
        <ele>61.5</ele>
        <time>2022-07-10T11:05:56Z</time>
      </trkpt>
      <trkpt lat="49.8305" lon="2.5972">
        <ele>61.4</ele>
        <time>2022-07-10T11:05:57Z</time>
      </trkpt>
      <trkpt lat="49.83051" lon="2.59719">
        <ele>61.2</ele>
        <time>2022-07-10T11:05:58Z</time>
      </trkpt>
      <trkpt lat="49.83052" lon="2.59716">
        <ele>61</ele>
        <time>2022-07-10T11:05:59Z</time>
      </trkpt>
      <trkpt lat="49.83052" lon="2.59715">
        <ele>60.9</ele>
        <time>2022-07-10T11:06:00Z</time>
      </trkpt>
      <trkpt lat="49.83053" lon="2.59713">
        <ele>60.8</ele>
        <time>2022-07-10T11:06:01Z</time>
      </trkpt>
      <trkpt lat="49.83053" lon="2.59711">
        <ele>60.6</ele>
        <time>2022-07-10T11:06:02Z</time>
      </trkpt>
      <trkpt lat="49.83053" lon="2.59709">
        <ele>60.4</ele>
        <time>2022-07-10T11:06:03Z</time>
      </trkpt>
      <trkpt lat="49.83054" lon="2.59707">
        <ele>60.3</ele>
        <time>2022-07-10T11:06:05Z</time>
      </trkpt>
      <trkpt lat="49.83054" lon="2.59704">
        <ele>60.1</ele>
        <time>2022-07-10T11:06:06Z</time>
      </trkpt>
      <trkpt lat="49.83056" lon="2.59698">
        <ele>59.7</ele>
        <time>2022-07-10T11:06:08Z</time>
      </trkpt>
      <trkpt lat="49.83056" lon="2.59696">
        <ele>59.6</ele>
        <time>2022-07-10T11:06:10Z</time>
      </trkpt>
      <trkpt lat="49.83057" lon="2.59694">
        <ele>59.4</ele>
        <time>2022-07-10T11:06:11Z</time>
      </trkpt>
      <trkpt lat="49.83058" lon="2.59691">
        <ele>59.3</ele>
        <time>2022-07-10T11:06:12Z</time>
      </trkpt>
      <trkpt lat="49.83058" lon="2.59689">
        <ele>59.1</ele>
        <time>2022-07-10T11:06:13Z</time>
      </trkpt>
      <trkpt lat="49.83059" lon="2.59687">
        <ele>59</ele>
        <time>2022-07-10T11:06:14Z</time>
      </trkpt>
      <trkpt lat="49.83059" lon="2.59685">
        <ele>58.9</ele>
        <time>2022-07-10T11:06:15Z</time>
      </trkpt>
      <trkpt lat="49.8306" lon="2.59684">
        <ele>58.8</ele>
        <time>2022-07-10T11:06:16Z</time>
      </trkpt>
      <trkpt lat="49.8306" lon="2.59683">
        <ele>58.7</ele>
        <time>2022-07-10T11:06:17Z</time>
      </trkpt>
      <trkpt lat="49.83061" lon="2.59682">
        <ele>58.6</ele>
        <time>2022-07-10T11:06:18Z</time>
      </trkpt>
      <trkpt lat="49.83062" lon="2.59681">
        <ele>58.5</ele>
        <time>2022-07-10T11:06:19Z</time>
      </trkpt>
      <trkpt lat="49.83062" lon="2.59679">
        <ele>58.4</ele>
        <time>2022-07-10T11:06:20Z</time>
      </trkpt>
      <trkpt lat="49.83063" lon="2.59678">
        <ele>58.3</ele>
        <time>2022-07-10T11:06:22Z</time>
      </trkpt>
      <trkpt lat="49.83064" lon="2.59675">
        <ele>58.1</ele>
        <time>2022-07-10T11:06:23Z</time>
      </trkpt>
      <trkpt lat="49.83065" lon="2.59674">
        <ele>58</ele>
        <time>2022-07-10T11:06:24Z</time>
      </trkpt>
      <trkpt lat="49.83066" lon="2.59672">
        <ele>57.9</ele>
        <time>2022-07-10T11:06:25Z</time>
      </trkpt>
      <trkpt lat="49.83067" lon="2.5967">
        <ele>57.7</ele>
        <time>2022-07-10T11:06:27Z</time>
      </trkpt>
      <trkpt lat="49.83068" lon="2.59668">
        <ele>57.6</ele>
        <time>2022-07-10T11:06:28Z</time>
      </trkpt>
      <trkpt lat="49.83069" lon="2.59667">
        <ele>57.5</ele>
        <time>2022-07-10T11:06:29Z</time>
      </trkpt>
      <trkpt lat="49.83069" lon="2.59666">
        <ele>57.4</ele>
        <time>2022-07-10T11:06:30Z</time>
      </trkpt>
      <trkpt lat="49.8307" lon="2.59664">
        <ele>57.3</ele>
        <time>2022-07-10T11:06:31Z</time>
      </trkpt>
      <trkpt lat="49.83071" lon="2.59663">
        <ele>57.2</ele>
        <time>2022-07-10T11:06:32Z</time>
      </trkpt>
      <trkpt lat="49.83072" lon="2.59661">
        <ele>57.1</ele>
        <time>2022-07-10T11:06:33Z</time>
      </trkpt>
      <trkpt lat="49.83073" lon="2.59659">
        <ele>57</ele>
        <time>2022-07-10T11:06:34Z</time>
      </trkpt>
      <trkpt lat="49.83074" lon="2.59658">
        <ele>56.9</ele>
        <time>2022-07-10T11:06:35Z</time>
      </trkpt>
      <trkpt lat="49.83075" lon="2.59657">
        <ele>56.8</ele>
        <time>2022-07-10T11:06:37Z</time>
      </trkpt>
      <trkpt lat="49.83077" lon="2.59653">
        <ele>56.5</ele>
        <time>2022-07-10T11:06:39Z</time>
      </trkpt>
      <trkpt lat="49.83077" lon="2.59653">
        <ele>56.4</ele>
        <time>2022-07-10T11:06:40Z</time>
      </trkpt>
      <trkpt lat="49.83078" lon="2.59652">
        <ele>56.4</ele>
        <time>2022-07-10T11:06:41Z</time>
      </trkpt>
      <trkpt lat="49.8308" lon="2.59648">
        <ele>56.1</ele>
        <time>2022-07-10T11:06:43Z</time>
      </trkpt>
      <trkpt lat="49.83081" lon="2.59647">
        <ele>56</ele>
        <time>2022-07-10T11:06:44Z</time>
      </trkpt>
      <trkpt lat="49.83081" lon="2.59646">
        <ele>56</ele>
        <time>2022-07-10T11:06:45Z</time>
      </trkpt>
      <trkpt lat="49.83082" lon="2.59644">
        <ele>55.8</ele>
        <time>2022-07-10T11:06:46Z</time>
      </trkpt>
      <trkpt lat="49.83083" lon="2.59642">
        <ele>55.7</ele>
        <time>2022-07-10T11:06:48Z</time>
      </trkpt>
      <trkpt lat="49.83083" lon="2.59642">
        <ele>55.7</ele>
        <time>2022-07-10T11:06:49Z</time>
      </trkpt>
      <trkpt lat="49.83083" lon="2.59641">
        <ele>55.6</ele>
        <time>2022-07-10T11:06:50Z</time>
      </trkpt>
      <trkpt lat="49.83083" lon="2.59641">
        <ele>55.6</ele>
        <time>2022-07-10T11:06:51Z</time>
      </trkpt>
      <trkpt lat="49.83083" lon="2.59641">
        <ele>55.6</ele>
        <time>2022-07-10T11:06:52Z</time>
      </trkpt>
      <trkpt lat="49.83083" lon="2.59642">
        <ele>55.6</ele>
        <time>2022-07-10T11:06:53Z</time>
      </trkpt>
      <trkpt lat="49.83083" lon="2.59642">
        <ele>55.6</ele>
        <time>2022-07-10T11:06:54Z</time>
      </trkpt>
      <trkpt lat="49.83083" lon="2.59643">
        <ele>55.5</ele>
        <time>2022-07-10T11:06:55Z</time>
      </trkpt>
      <trkpt lat="49.83083" lon="2.59644">
        <ele>55.5</ele>
        <time>2022-07-10T11:06:56Z</time>
      </trkpt>
      <trkpt lat="49.83083" lon="2.59644">
        <ele>55.5</ele>
        <time>2022-07-10T11:06:57Z</time>
      </trkpt>
      <trkpt lat="49.83083" lon="2.59644">
        <ele>55.4</ele>
        <time>2022-07-10T11:06:58Z</time>
      </trkpt>
      <trkpt lat="49.83083" lon="2.59645">
        <ele>55.4</ele>
        <time>2022-07-10T11:06:59Z</time>
      </trkpt>
      <trkpt lat="49.83083" lon="2.59645">
        <ele>55.4</ele>
        <time>2022-07-10T11:07:00Z</time>
      </trkpt>
      <trkpt lat="49.83083" lon="2.59645">
        <ele>55.4</ele>
        <time>2022-07-10T11:07:01Z</time>
      </trkpt>
      <trkpt lat="49.83084" lon="2.59644">
        <ele>55.4</ele>
        <time>2022-07-10T11:07:03Z</time>
      </trkpt>
      <trkpt lat="49.83084" lon="2.59642">
        <ele>55.3</ele>
        <time>2022-07-10T11:07:04Z</time>
      </trkpt>
      <trkpt lat="49.83084" lon="2.59641">
        <ele>55.3</ele>
        <time>2022-07-10T11:07:06Z</time>
      </trkpt>
      <trkpt lat="49.83084" lon="2.59639">
        <ele>55.2</ele>
        <time>2022-07-10T11:07:07Z</time>
      </trkpt>
      <trkpt lat="49.83084" lon="2.59637">
        <ele>55.1</ele>
        <time>2022-07-10T11:07:09Z</time>
      </trkpt>
      <trkpt lat="49.83084" lon="2.59636">
        <ele>55</ele>
        <time>2022-07-10T11:07:10Z</time>
      </trkpt>
      <trkpt lat="49.83084" lon="2.59635">
        <ele>55</ele>
        <time>2022-07-10T11:07:11Z</time>
      </trkpt>
      <trkpt lat="49.83084" lon="2.59634">
        <ele>54.9</ele>
        <time>2022-07-10T11:07:12Z</time>
      </trkpt>
      <trkpt lat="49.83084" lon="2.59634">
        <ele>54.9</ele>
        <time>2022-07-10T11:07:13Z</time>
      </trkpt>
      <trkpt lat="49.83084" lon="2.59634">
        <ele>54.9</ele>
        <time>2022-07-10T11:07:14Z</time>
      </trkpt>
      <trkpt lat="49.83084" lon="2.59634">
        <ele>54.9</ele>
        <time>2022-07-10T11:07:15Z</time>
      </trkpt>
      <trkpt lat="49.83084" lon="2.59634">
        <ele>54.9</ele>
        <time>2022-07-10T11:07:16Z</time>
      </trkpt>
      <trkpt lat="49.83084" lon="2.59635">
        <ele>54.9</ele>
        <time>2022-07-10T11:07:17Z</time>
      </trkpt>
      <trkpt lat="49.83084" lon="2.59635">
        <ele>54.9</ele>
        <time>2022-07-10T11:07:18Z</time>
      </trkpt>
      <trkpt lat="49.83084" lon="2.59635">
        <ele>54.9</ele>
        <time>2022-07-10T11:07:19Z</time>
      </trkpt>
      <trkpt lat="49.83083" lon="2.59634">
        <ele>54.9</ele>
        <time>2022-07-10T11:07:20Z</time>
      </trkpt>
      <trkpt lat="49.83083" lon="2.59634">
        <ele>54.9</ele>
        <time>2022-07-10T11:07:21Z</time>
      </trkpt>
      <trkpt lat="49.83083" lon="2.59634">
        <ele>54.9</ele>
        <time>2022-07-10T11:07:22Z</time>
      </trkpt>
      <trkpt lat="49.83083" lon="2.59634">
        <ele>54.9</ele>
        <time>2022-07-10T11:07:23Z</time>
      </trkpt>
      <trkpt lat="49.83083" lon="2.59634">
        <ele>54.8</ele>
        <time>2022-07-10T11:07:24Z</time>
      </trkpt>
      <trkpt lat="49.83083" lon="2.59634">
        <ele>54.8</ele>
        <time>2022-07-10T11:07:25Z</time>
      </trkpt>
      <trkpt lat="49.83083" lon="2.59634">
        <ele>54.8</ele>
        <time>2022-07-10T11:07:26Z</time>
      </trkpt>
      <trkpt lat="49.83083" lon="2.59635">
        <ele>54.8</ele>
        <time>2022-07-10T11:07:27Z</time>
      </trkpt>
      <trkpt lat="49.83083" lon="2.59635">
        <ele>54.8</ele>
        <time>2022-07-10T11:07:28Z</time>
      </trkpt>
      <trkpt lat="49.83083" lon="2.59635">
        <ele>54.8</ele>
        <time>2022-07-10T11:07:29Z</time>
      </trkpt>
      <trkpt lat="49.83083" lon="2.59635">
        <ele>54.8</ele>
        <time>2022-07-10T11:07:30Z</time>
      </trkpt>
      <trkpt lat="49.83083" lon="2.59635">
        <ele>54.8</ele>
        <time>2022-07-10T11:07:31Z</time>
      </trkpt>
      <trkpt lat="49.83083" lon="2.59635">
        <ele>54.8</ele>
        <time>2022-07-10T11:07:32Z</time>
      </trkpt>
      <trkpt lat="49.83083" lon="2.59635">
        <ele>54.8</ele>
        <time>2022-07-10T11:07:33Z</time>
      </trkpt>
      <trkpt lat="49.83083" lon="2.59635">
        <ele>54.8</ele>
        <time>2022-07-10T11:07:34Z</time>
      </trkpt>
      <trkpt lat="49.83083" lon="2.59635">
        <ele>54.8</ele>
        <time>2022-07-10T11:07:35Z</time>
      </trkpt>
      <trkpt lat="49.83083" lon="2.59635">
        <ele>54.8</ele>
        <time>2022-07-10T11:07:36Z</time>
      </trkpt>
      <trkpt lat="49.83083" lon="2.59635">
        <ele>54.8</ele>
        <time>2022-07-10T11:07:37Z</time>
      </trkpt>
      <trkpt lat="49.83083" lon="2.59634">
        <ele>54.7</ele>
        <time>2022-07-10T11:07:38Z</time>
      </trkpt>
      <trkpt lat="49.83083" lon="2.59633">
        <ele>54.7</ele>
        <time>2022-07-10T11:07:39Z</time>
      </trkpt>
      <trkpt lat="49.83083" lon="2.59632">
        <ele>54.7</ele>
        <time>2022-07-10T11:07:40Z</time>
      </trkpt>
      <trkpt lat="49.83083" lon="2.59632">
        <ele>54.7</ele>
        <time>2022-07-10T11:07:41Z</time>
      </trkpt>
      <trkpt lat="49.83082" lon="2.59631">
        <ele>54.6</ele>
        <time>2022-07-10T11:07:42Z</time>
      </trkpt>
      <trkpt lat="49.83082" lon="2.59631">
        <ele>54.6</ele>
        <time>2022-07-10T11:07:43Z</time>
      </trkpt>
      <trkpt lat="49.83082" lon="2.59631">
        <ele>54.6</ele>
        <time>2022-07-10T11:07:44Z</time>
      </trkpt>
      <trkpt lat="49.83082" lon="2.59631">
        <ele>54.6</ele>
        <time>2022-07-10T11:07:45Z</time>
      </trkpt>
      <trkpt lat="49.83082" lon="2.59631">
        <ele>54.6</ele>
        <time>2022-07-10T11:07:46Z</time>
      </trkpt>
      <trkpt lat="49.83082" lon="2.59631">
        <ele>54.6</ele>
        <time>2022-07-10T11:07:47Z</time>
      </trkpt>
      <trkpt lat="49.83082" lon="2.59631">
        <ele>54.6</ele>
        <time>2022-07-10T11:07:48Z</time>
      </trkpt>
      <trkpt lat="49.83082" lon="2.59631">
        <ele>54.6</ele>
        <time>2022-07-10T11:07:49Z</time>
      </trkpt>
      <trkpt lat="49.83082" lon="2.59631">
        <ele>54.6</ele>
        <time>2022-07-10T11:07:50Z</time>
      </trkpt>
      <trkpt lat="49.83082" lon="2.59631">
        <ele>54.6</ele>
        <time>2022-07-10T11:07:51Z</time>
      </trkpt>
      <trkpt lat="49.83082" lon="2.59631">
        <ele>54.6</ele>
        <time>2022-07-10T11:07:52Z</time>
      </trkpt>
      <trkpt lat="49.83082" lon="2.59631">
        <ele>54.6</ele>
        <time>2022-07-10T11:07:53Z</time>
      </trkpt>
      <trkpt lat="49.83082" lon="2.59631">
        <ele>54.6</ele>
        <time>2022-07-10T11:07:54Z</time>
      </trkpt>
      <trkpt lat="49.83082" lon="2.59631">
        <ele>54.6</ele>
        <time>2022-07-10T11:07:55Z</time>
      </trkpt>
      <trkpt lat="49.83082" lon="2.59631">
        <ele>54.6</ele>
        <time>2022-07-10T11:07:56Z</time>
      </trkpt>
      <trkpt lat="49.83082" lon="2.59631">
        <ele>54.6</ele>
        <time>2022-07-10T11:07:57Z</time>
      </trkpt>
      <trkpt lat="49.83082" lon="2.59631">
        <ele>54.6</ele>
        <time>2022-07-10T11:07:58Z</time>
      </trkpt>
      <trkpt lat="49.83082" lon="2.59631">
        <ele>54.6</ele>
        <time>2022-07-10T11:07:59Z</time>
      </trkpt>
      <trkpt lat="49.83082" lon="2.59631">
        <ele>54.6</ele>
        <time>2022-07-10T11:08:00Z</time>
      </trkpt>
      <trkpt lat="49.83082" lon="2.59631">
        <ele>54.6</ele>
        <time>2022-07-10T11:08:01Z</time>
      </trkpt>
      <trkpt lat="49.83082" lon="2.59631">
        <ele>54.6</ele>
        <time>2022-07-10T11:08:02Z</time>
      </trkpt>
      <trkpt lat="49.83082" lon="2.59631">
        <ele>54.6</ele>
        <time>2022-07-10T11:08:03Z</time>
      </trkpt>
      <trkpt lat="49.83082" lon="2.59631">
        <ele>54.6</ele>
        <time>2022-07-10T11:08:04Z</time>
      </trkpt>
      <trkpt lat="49.83082" lon="2.59631">
        <ele>54.6</ele>
        <time>2022-07-10T11:08:05Z</time>
      </trkpt>
      <trkpt lat="49.83082" lon="2.59631">
        <ele>54.6</ele>
        <time>2022-07-10T11:08:06Z</time>
      </trkpt>
      <trkpt lat="49.83082" lon="2.59631">
        <ele>54.6</ele>
        <time>2022-07-10T11:08:07Z</time>
      </trkpt>
      <trkpt lat="49.83082" lon="2.59631">
        <ele>54.6</ele>
        <time>2022-07-10T11:08:08Z</time>
      </trkpt>
      <trkpt lat="49.83082" lon="2.5963">
        <ele>54.6</ele>
        <time>2022-07-10T11:08:09Z</time>
      </trkpt>
      <trkpt lat="49.83082" lon="2.59629">
        <ele>54.5</ele>
        <time>2022-07-10T11:08:10Z</time>
      </trkpt>
      <trkpt lat="49.83082" lon="2.59629">
        <ele>54.5</ele>
        <time>2022-07-10T11:08:11Z</time>
      </trkpt>
      <trkpt lat="49.83082" lon="2.59627">
        <ele>54.4</ele>
        <time>2022-07-10T11:08:12Z</time>
      </trkpt>
      <trkpt lat="49.83082" lon="2.59626">
        <ele>54.4</ele>
        <time>2022-07-10T11:08:13Z</time>
      </trkpt>
      <trkpt lat="49.83082" lon="2.59625">
        <ele>54.4</ele>
        <time>2022-07-10T11:08:14Z</time>
      </trkpt>
      <trkpt lat="49.83083" lon="2.59625">
        <ele>54.4</ele>
        <time>2022-07-10T11:08:15Z</time>
      </trkpt>
      <trkpt lat="49.83083" lon="2.59625">
        <ele>54.4</ele>
        <time>2022-07-10T11:08:16Z</time>
      </trkpt>
      <trkpt lat="49.83083" lon="2.59625">
        <ele>54.4</ele>
        <time>2022-07-10T11:08:17Z</time>
      </trkpt>
      <trkpt lat="49.83083" lon="2.59625">
        <ele>54.4</ele>
        <time>2022-07-10T11:08:18Z</time>
      </trkpt>
      <trkpt lat="49.83082" lon="2.59625">
        <ele>54.4</ele>
        <time>2022-07-10T11:08:19Z</time>
      </trkpt>
      <trkpt lat="49.83082" lon="2.59625">
        <ele>54.4</ele>
        <time>2022-07-10T11:08:20Z</time>
      </trkpt>
      <trkpt lat="49.83082" lon="2.59625">
        <ele>54.4</ele>
        <time>2022-07-10T11:08:21Z</time>
      </trkpt>
      <trkpt lat="49.83082" lon="2.59625">
        <ele>54.4</ele>
        <time>2022-07-10T11:08:22Z</time>
      </trkpt>
      <trkpt lat="49.83082" lon="2.59625">
        <ele>54.4</ele>
        <time>2022-07-10T11:08:23Z</time>
      </trkpt>
      <trkpt lat="49.83082" lon="2.59625">
        <ele>54.4</ele>
        <time>2022-07-10T11:08:24Z</time>
      </trkpt>
      <trkpt lat="49.83082" lon="2.59625">
        <ele>54.4</ele>
        <time>2022-07-10T11:08:25Z</time>
      </trkpt>
      <trkpt lat="49.83082" lon="2.59625">
        <ele>54.4</ele>
        <time>2022-07-10T11:08:26Z</time>
      </trkpt>
      <trkpt lat="49.83082" lon="2.59625">
        <ele>54.4</ele>
        <time>2022-07-10T11:08:27Z</time>
      </trkpt>
      <trkpt lat="49.83082" lon="2.59625">
        <ele>54.4</ele>
        <time>2022-07-10T11:08:28Z</time>
      </trkpt>
      <trkpt lat="49.83082" lon="2.59625">
        <ele>54.4</ele>
        <time>2022-07-10T11:08:29Z</time>
      </trkpt>
      <trkpt lat="49.83082" lon="2.59625">
        <ele>54.4</ele>
        <time>2022-07-10T11:08:30Z</time>
      </trkpt>
      <trkpt lat="49.83082" lon="2.59625">
        <ele>54.4</ele>
        <time>2022-07-10T11:08:31Z</time>
      </trkpt>
      <trkpt lat="49.83082" lon="2.59625">
        <ele>54.4</ele>
        <time>2022-07-10T11:08:32Z</time>
      </trkpt>
      <trkpt lat="49.83082" lon="2.59625">
        <ele>54.4</ele>
        <time>2022-07-10T11:08:33Z</time>
      </trkpt>
      <trkpt lat="49.83083" lon="2.59625">
        <ele>54.4</ele>
        <time>2022-07-10T11:08:34Z</time>
      </trkpt>
      <trkpt lat="49.83083" lon="2.59624">
        <ele>54.4</ele>
        <time>2022-07-10T11:08:35Z</time>
      </trkpt>
      <trkpt lat="49.83083" lon="2.59623">
        <ele>54.4</ele>
        <time>2022-07-10T11:08:36Z</time>
      </trkpt>
      <trkpt lat="49.83083" lon="2.59623">
        <ele>54.4</ele>
        <time>2022-07-10T11:08:37Z</time>
      </trkpt>
      <trkpt lat="49.83083" lon="2.59623">
        <ele>54.4</ele>
        <time>2022-07-10T11:08:38Z</time>
      </trkpt>
      <trkpt lat="49.83083" lon="2.59621">
        <ele>54.4</ele>
        <time>2022-07-10T11:08:39Z</time>
      </trkpt>
      <trkpt lat="49.83083" lon="2.5962">
        <ele>54.4</ele>
        <time>2022-07-10T11:08:41Z</time>
      </trkpt>
      <trkpt lat="49.83083" lon="2.59619">
        <ele>54.4</ele>
        <time>2022-07-10T11:08:42Z</time>
      </trkpt>
      <trkpt lat="49.83084" lon="2.59617">
        <ele>54.4</ele>
        <time>2022-07-10T11:08:43Z</time>
      </trkpt>
      <trkpt lat="49.83084" lon="2.59615">
        <ele>54.4</ele>
        <time>2022-07-10T11:08:44Z</time>
      </trkpt>
      <trkpt lat="49.83085" lon="2.59614">
        <ele>54.3</ele>
        <time>2022-07-10T11:08:45Z</time>
      </trkpt>
      <trkpt lat="49.83085" lon="2.59613">
        <ele>54.3</ele>
        <time>2022-07-10T11:08:46Z</time>
      </trkpt>
      <trkpt lat="49.83085" lon="2.59612">
        <ele>54.3</ele>
        <time>2022-07-10T11:08:47Z</time>
      </trkpt>
      <trkpt lat="49.83086" lon="2.59609">
        <ele>54.3</ele>
        <time>2022-07-10T11:08:49Z</time>
      </trkpt>
      <trkpt lat="49.83087" lon="2.59608">
        <ele>54.3</ele>
        <time>2022-07-10T11:08:50Z</time>
      </trkpt>
      <trkpt lat="49.83087" lon="2.59607">
        <ele>54.3</ele>
        <time>2022-07-10T11:08:51Z</time>
      </trkpt>
      <trkpt lat="49.83088" lon="2.59606">
        <ele>54.3</ele>
        <time>2022-07-10T11:08:52Z</time>
      </trkpt>
      <trkpt lat="49.83089" lon="2.59605">
        <ele>54.3</ele>
        <time>2022-07-10T11:08:53Z</time>
      </trkpt>
      <trkpt lat="49.83089" lon="2.59603">
        <ele>54.3</ele>
        <time>2022-07-10T11:08:55Z</time>
      </trkpt>
      <trkpt lat="49.8309" lon="2.59601">
        <ele>54.3</ele>
        <time>2022-07-10T11:08:56Z</time>
      </trkpt>
      <trkpt lat="49.8309" lon="2.596">
        <ele>54.3</ele>
        <time>2022-07-10T11:08:57Z</time>
      </trkpt>
      <trkpt lat="49.83091" lon="2.59598">
        <ele>54.3</ele>
        <time>2022-07-10T11:08:58Z</time>
      </trkpt>
      <trkpt lat="49.83091" lon="2.59597">
        <ele>54.3</ele>
        <time>2022-07-10T11:09:00Z</time>
      </trkpt>
      <trkpt lat="49.8309" lon="2.59598">
        <ele>54.3</ele>
        <time>2022-07-10T11:09:01Z</time>
      </trkpt>
      <trkpt lat="49.8309" lon="2.59598">
        <ele>54.3</ele>
        <time>2022-07-10T11:09:02Z</time>
      </trkpt>
      <trkpt lat="49.8309" lon="2.59597">
        <ele>54.3</ele>
        <time>2022-07-10T11:09:03Z</time>
      </trkpt>
      <trkpt lat="49.83091" lon="2.59595">
        <ele>54.3</ele>
        <time>2022-07-10T11:09:04Z</time>
      </trkpt>
      <trkpt lat="49.83091" lon="2.59593">
        <ele>54.3</ele>
        <time>2022-07-10T11:09:05Z</time>
      </trkpt>
      <trkpt lat="49.83092" lon="2.5959">
        <ele>54.3</ele>
        <time>2022-07-10T11:09:06Z</time>
      </trkpt>
      <trkpt lat="49.83093" lon="2.59588">
        <ele>54.3</ele>
        <time>2022-07-10T11:09:08Z</time>
      </trkpt>
      <trkpt lat="49.83093" lon="2.59587">
        <ele>54.3</ele>
        <time>2022-07-10T11:09:09Z</time>
      </trkpt>
      <trkpt lat="49.83094" lon="2.59585">
        <ele>54.3</ele>
        <time>2022-07-10T11:09:10Z</time>
      </trkpt>
      <trkpt lat="49.83094" lon="2.59584">
        <ele>54.3</ele>
        <time>2022-07-10T11:09:11Z</time>
      </trkpt>
      <trkpt lat="49.83095" lon="2.59581">
        <ele>54.3</ele>
        <time>2022-07-10T11:09:12Z</time>
      </trkpt>
      <trkpt lat="49.83096" lon="2.5958">
        <ele>54.4</ele>
        <time>2022-07-10T11:09:13Z</time>
      </trkpt>
      <trkpt lat="49.83096" lon="2.59579">
        <ele>54.4</ele>
        <time>2022-07-10T11:09:14Z</time>
      </trkpt>
      <trkpt lat="49.83097" lon="2.59577">
        <ele>54.4</ele>
        <time>2022-07-10T11:09:15Z</time>
      </trkpt>
      <trkpt lat="49.83097" lon="2.59575">
        <ele>54.4</ele>
        <time>2022-07-10T11:09:16Z</time>
      </trkpt>
      <trkpt lat="49.83098" lon="2.59572">
        <ele>54.4</ele>
        <time>2022-07-10T11:09:17Z</time>
      </trkpt>
      <trkpt lat="49.83099" lon="2.5957">
        <ele>54.4</ele>
        <time>2022-07-10T11:09:18Z</time>
      </trkpt>
      <trkpt lat="49.831" lon="2.59567">
        <ele>54.4</ele>
        <time>2022-07-10T11:09:20Z</time>
      </trkpt>
      <trkpt lat="49.83101" lon="2.59566">
        <ele>54.4</ele>
        <time>2022-07-10T11:09:21Z</time>
      </trkpt>
      <trkpt lat="49.83101" lon="2.59565">
        <ele>54.4</ele>
        <time>2022-07-10T11:09:22Z</time>
      </trkpt>
      <trkpt lat="49.83102" lon="2.59563">
        <ele>54.4</ele>
        <time>2022-07-10T11:09:23Z</time>
      </trkpt>
      <trkpt lat="49.83102" lon="2.5956">
        <ele>54.5</ele>
        <time>2022-07-10T11:09:24Z</time>
      </trkpt>
      <trkpt lat="49.83103" lon="2.59558">
        <ele>54.5</ele>
        <time>2022-07-10T11:09:25Z</time>
      </trkpt>
      <trkpt lat="49.83103" lon="2.59555">
        <ele>54.5</ele>
        <time>2022-07-10T11:09:26Z</time>
      </trkpt>
      <trkpt lat="49.83104" lon="2.59551">
        <ele>54.5</ele>
        <time>2022-07-10T11:09:27Z</time>
      </trkpt>
      <trkpt lat="49.83104" lon="2.59548">
        <ele>54.5</ele>
        <time>2022-07-10T11:09:28Z</time>
      </trkpt>
      <trkpt lat="49.83105" lon="2.59546">
        <ele>54.6</ele>
        <time>2022-07-10T11:09:29Z</time>
      </trkpt>
      <trkpt lat="49.83105" lon="2.59545">
        <ele>54.6</ele>
        <time>2022-07-10T11:09:30Z</time>
      </trkpt>
      <trkpt lat="49.83106" lon="2.5954">
        <ele>54.6</ele>
        <time>2022-07-10T11:09:32Z</time>
      </trkpt>
      <trkpt lat="49.83106" lon="2.59537">
        <ele>54.6</ele>
        <time>2022-07-10T11:09:33Z</time>
      </trkpt>
      <trkpt lat="49.83107" lon="2.59533">
        <ele>54.6</ele>
        <time>2022-07-10T11:09:34Z</time>
      </trkpt>
      <trkpt lat="49.83108" lon="2.59528">
        <ele>54.7</ele>
        <time>2022-07-10T11:09:35Z</time>
      </trkpt>
      <trkpt lat="49.83108" lon="2.59526">
        <ele>54.7</ele>
        <time>2022-07-10T11:09:36Z</time>
      </trkpt>
      <trkpt lat="49.83109" lon="2.59524">
        <ele>54.7</ele>
        <time>2022-07-10T11:09:37Z</time>
      </trkpt>
      <trkpt lat="49.8311" lon="2.59521">
        <ele>54.7</ele>
        <time>2022-07-10T11:09:39Z</time>
      </trkpt>
      <trkpt lat="49.8311" lon="2.59519">
        <ele>54.7</ele>
        <time>2022-07-10T11:09:40Z</time>
      </trkpt>
      <trkpt lat="49.83112" lon="2.59515">
        <ele>54.7</ele>
        <time>2022-07-10T11:09:42Z</time>
      </trkpt>
      <trkpt lat="49.83112" lon="2.59514">
        <ele>54.7</ele>
        <time>2022-07-10T11:09:43Z</time>
      </trkpt>
      <trkpt lat="49.83112" lon="2.59514">
        <ele>54.7</ele>
        <time>2022-07-10T11:09:44Z</time>
      </trkpt>
      <trkpt lat="49.83112" lon="2.59513">
        <ele>54.7</ele>
        <time>2022-07-10T11:09:45Z</time>
      </trkpt>
      <trkpt lat="49.83112" lon="2.59513">
        <ele>54.7</ele>
        <time>2022-07-10T11:09:46Z</time>
      </trkpt>
      <trkpt lat="49.83112" lon="2.59514">
        <ele>54.7</ele>
        <time>2022-07-10T11:09:47Z</time>
      </trkpt>
      <trkpt lat="49.83112" lon="2.59514">
        <ele>54.7</ele>
        <time>2022-07-10T11:09:48Z</time>
      </trkpt>
      <trkpt lat="49.83113" lon="2.59514">
        <ele>54.7</ele>
        <time>2022-07-10T11:09:49Z</time>
      </trkpt>
      <trkpt lat="49.83113" lon="2.59515">
        <ele>54.7</ele>
        <time>2022-07-10T11:09:50Z</time>
      </trkpt>
      <trkpt lat="49.83113" lon="2.59515">
        <ele>54.7</ele>
        <time>2022-07-10T11:09:51Z</time>
      </trkpt>
      <trkpt lat="49.83113" lon="2.59515">
        <ele>54.7</ele>
        <time>2022-07-10T11:09:52Z</time>
      </trkpt>
      <trkpt lat="49.83113" lon="2.59515">
        <ele>54.7</ele>
        <time>2022-07-10T11:09:54Z</time>
      </trkpt>
      <trkpt lat="49.83113" lon="2.59515">
        <ele>54.7</ele>
        <time>2022-07-10T11:09:55Z</time>
      </trkpt>
      <trkpt lat="49.83113" lon="2.59515">
        <ele>54.7</ele>
        <time>2022-07-10T11:09:56Z</time>
      </trkpt>
      <trkpt lat="49.83113" lon="2.59515">
        <ele>54.7</ele>
        <time>2022-07-10T11:09:57Z</time>
      </trkpt>
      <trkpt lat="49.83113" lon="2.59515">
        <ele>54.7</ele>
        <time>2022-07-10T11:09:58Z</time>
      </trkpt>
      <trkpt lat="49.83113" lon="2.59515">
        <ele>54.7</ele>
        <time>2022-07-10T11:09:59Z</time>
      </trkpt>
      <trkpt lat="49.83113" lon="2.59515">
        <ele>54.7</ele>
        <time>2022-07-10T11:10:00Z</time>
      </trkpt>
      <trkpt lat="49.83113" lon="2.59515">
        <ele>54.7</ele>
        <time>2022-07-10T11:10:01Z</time>
      </trkpt>
      <trkpt lat="49.83112" lon="2.59515">
        <ele>54.7</ele>
        <time>2022-07-10T11:10:02Z</time>
      </trkpt>
      <trkpt lat="49.83112" lon="2.59515">
        <ele>54.7</ele>
        <time>2022-07-10T11:10:03Z</time>
      </trkpt>
      <trkpt lat="49.83112" lon="2.59515">
        <ele>54.7</ele>
        <time>2022-07-10T11:10:04Z</time>
      </trkpt>
      <trkpt lat="49.83112" lon="2.59515">
        <ele>54.7</ele>
        <time>2022-07-10T11:10:05Z</time>
      </trkpt>
      <trkpt lat="49.83112" lon="2.59515">
        <ele>54.7</ele>
        <time>2022-07-10T11:10:06Z</time>
      </trkpt>
      <trkpt lat="49.83112" lon="2.59515">
        <ele>54.8</ele>
        <time>2022-07-10T11:10:07Z</time>
      </trkpt>
      <trkpt lat="49.83113" lon="2.59515">
        <ele>54.8</ele>
        <time>2022-07-10T11:10:09Z</time>
      </trkpt>
      <trkpt lat="49.83113" lon="2.59514">
        <ele>54.8</ele>
        <time>2022-07-10T11:10:10Z</time>
      </trkpt>
      <trkpt lat="49.83113" lon="2.59514">
        <ele>54.8</ele>
        <time>2022-07-10T11:10:11Z</time>
      </trkpt>
      <trkpt lat="49.83113" lon="2.59514">
        <ele>54.8</ele>
        <time>2022-07-10T11:10:12Z</time>
      </trkpt>
      <trkpt lat="49.83112" lon="2.59514">
        <ele>54.8</ele>
        <time>2022-07-10T11:10:13Z</time>
      </trkpt>
      <trkpt lat="49.83112" lon="2.59514">
        <ele>54.8</ele>
        <time>2022-07-10T11:10:14Z</time>
      </trkpt>
      <trkpt lat="49.83112" lon="2.59514">
        <ele>54.8</ele>
        <time>2022-07-10T11:10:15Z</time>
      </trkpt>
      <trkpt lat="49.83112" lon="2.59514">
        <ele>54.8</ele>
        <time>2022-07-10T11:10:16Z</time>
      </trkpt>
      <trkpt lat="49.83112" lon="2.59514">
        <ele>54.8</ele>
        <time>2022-07-10T11:10:17Z</time>
      </trkpt>
      <trkpt lat="49.83112" lon="2.59514">
        <ele>54.8</ele>
        <time>2022-07-10T11:10:18Z</time>
      </trkpt>
      <trkpt lat="49.83113" lon="2.59514">
        <ele>54.8</ele>
        <time>2022-07-10T11:10:19Z</time>
      </trkpt>
      <trkpt lat="49.83113" lon="2.59513">
        <ele>54.8</ele>
        <time>2022-07-10T11:10:20Z</time>
      </trkpt>
      <trkpt lat="49.83113" lon="2.59513">
        <ele>54.8</ele>
        <time>2022-07-10T11:10:21Z</time>
      </trkpt>
      <trkpt lat="49.83113" lon="2.59512">
        <ele>54.8</ele>
        <time>2022-07-10T11:10:22Z</time>
      </trkpt>
      <trkpt lat="49.83114" lon="2.59511">
        <ele>54.8</ele>
        <time>2022-07-10T11:10:23Z</time>
      </trkpt>
      <trkpt lat="49.83114" lon="2.59509">
        <ele>54.8</ele>
        <time>2022-07-10T11:10:25Z</time>
      </trkpt>
      <trkpt lat="49.83115" lon="2.59508">
        <ele>54.8</ele>
        <time>2022-07-10T11:10:26Z</time>
      </trkpt>
      <trkpt lat="49.83115" lon="2.59505">
        <ele>54.8</ele>
        <time>2022-07-10T11:10:27Z</time>
      </trkpt>
      <trkpt lat="49.83115" lon="2.59505">
        <ele>54.9</ele>
        <time>2022-07-10T11:10:29Z</time>
      </trkpt>
      <trkpt lat="49.83116" lon="2.59505">
        <ele>54.9</ele>
        <time>2022-07-10T11:10:30Z</time>
      </trkpt>
      <trkpt lat="49.83116" lon="2.59504">
        <ele>54.9</ele>
        <time>2022-07-10T11:10:31Z</time>
      </trkpt>
      <trkpt lat="49.83116" lon="2.59504">
        <ele>54.9</ele>
        <time>2022-07-10T11:10:32Z</time>
      </trkpt>
      <trkpt lat="49.83116" lon="2.59504">
        <ele>54.9</ele>
        <time>2022-07-10T11:10:33Z</time>
      </trkpt>
      <trkpt lat="49.83116" lon="2.59504">
        <ele>54.9</ele>
        <time>2022-07-10T11:10:34Z</time>
      </trkpt>
      <trkpt lat="49.83116" lon="2.59503">
        <ele>54.9</ele>
        <time>2022-07-10T11:10:35Z</time>
      </trkpt>
      <trkpt lat="49.83116" lon="2.59503">
        <ele>54.9</ele>
        <time>2022-07-10T11:10:36Z</time>
      </trkpt>
      <trkpt lat="49.83117" lon="2.59503">
        <ele>54.9</ele>
        <time>2022-07-10T11:10:37Z</time>
      </trkpt>
      <trkpt lat="49.83117" lon="2.59503">
        <ele>54.9</ele>
        <time>2022-07-10T11:10:38Z</time>
      </trkpt>
      <trkpt lat="49.83117" lon="2.59502">
        <ele>54.9</ele>
        <time>2022-07-10T11:10:39Z</time>
      </trkpt>
      <trkpt lat="49.83117" lon="2.59502">
        <ele>54.9</ele>
        <time>2022-07-10T11:10:40Z</time>
      </trkpt>
      <trkpt lat="49.83117" lon="2.59502">
        <ele>54.9</ele>
        <time>2022-07-10T11:10:41Z</time>
      </trkpt>
      <trkpt lat="49.83117" lon="2.59502">
        <ele>54.9</ele>
        <time>2022-07-10T11:10:42Z</time>
      </trkpt>
      <trkpt lat="49.83117" lon="2.59501">
        <ele>54.9</ele>
        <time>2022-07-10T11:10:43Z</time>
      </trkpt>
      <trkpt lat="49.83117" lon="2.59501">
        <ele>54.9</ele>
        <time>2022-07-10T11:10:44Z</time>
      </trkpt>
      <trkpt lat="49.83118" lon="2.59501">
        <ele>54.9</ele>
        <time>2022-07-10T11:10:45Z</time>
      </trkpt>
      <trkpt lat="49.83118" lon="2.59501">
        <ele>54.9</ele>
        <time>2022-07-10T11:10:46Z</time>
      </trkpt>
      <trkpt lat="49.83118" lon="2.595">
        <ele>54.9</ele>
        <time>2022-07-10T11:10:47Z</time>
      </trkpt>
      <trkpt lat="49.83118" lon="2.595">
        <ele>54.9</ele>
        <time>2022-07-10T11:10:48Z</time>
      </trkpt>
      <trkpt lat="49.83118" lon="2.595">
        <ele>54.9</ele>
        <time>2022-07-10T11:10:49Z</time>
      </trkpt>
      <trkpt lat="49.83118" lon="2.595">
        <ele>54.9</ele>
        <time>2022-07-10T11:10:50Z</time>
      </trkpt>
      <trkpt lat="49.83118" lon="2.595">
        <ele>54.9</ele>
        <time>2022-07-10T11:10:51Z</time>
      </trkpt>
      <trkpt lat="49.83118" lon="2.59499">
        <ele>54.9</ele>
        <time>2022-07-10T11:10:52Z</time>
      </trkpt>
      <trkpt lat="49.83119" lon="2.59498">
        <ele>54.9</ele>
        <time>2022-07-10T11:10:53Z</time>
      </trkpt>
      <trkpt lat="49.83119" lon="2.59497">
        <ele>55</ele>
        <time>2022-07-10T11:10:54Z</time>
      </trkpt>
      <trkpt lat="49.83119" lon="2.59497">
        <ele>55</ele>
        <time>2022-07-10T11:10:55Z</time>
      </trkpt>
      <trkpt lat="49.83119" lon="2.59497">
        <ele>55</ele>
        <time>2022-07-10T11:10:56Z</time>
      </trkpt>
      <trkpt lat="49.83119" lon="2.59497">
        <ele>55</ele>
        <time>2022-07-10T11:10:57Z</time>
      </trkpt>
      <trkpt lat="49.83119" lon="2.59497">
        <ele>55</ele>
        <time>2022-07-10T11:10:58Z</time>
      </trkpt>
      <trkpt lat="49.83119" lon="2.59497">
        <ele>55</ele>
        <time>2022-07-10T11:10:59Z</time>
      </trkpt>
      <trkpt lat="49.83119" lon="2.59497">
        <ele>55</ele>
        <time>2022-07-10T11:11:00Z</time>
      </trkpt>
      <trkpt lat="49.83119" lon="2.59497">
        <ele>55</ele>
        <time>2022-07-10T11:11:01Z</time>
      </trkpt>
      <trkpt lat="49.83119" lon="2.59497">
        <ele>55</ele>
        <time>2022-07-10T11:11:02Z</time>
      </trkpt>
      <trkpt lat="49.83119" lon="2.59497">
        <ele>55</ele>
        <time>2022-07-10T11:11:03Z</time>
      </trkpt>
      <trkpt lat="49.83119" lon="2.59497">
        <ele>55</ele>
        <time>2022-07-10T11:11:05Z</time>
      </trkpt>
      <trkpt lat="49.8312" lon="2.59495">
        <ele>55</ele>
        <time>2022-07-10T11:11:06Z</time>
      </trkpt>
      <trkpt lat="49.83121" lon="2.59492">
        <ele>55</ele>
        <time>2022-07-10T11:11:08Z</time>
      </trkpt>
      <trkpt lat="49.83122" lon="2.59491">
        <ele>55.1</ele>
        <time>2022-07-10T11:11:09Z</time>
      </trkpt>
      <trkpt lat="49.83122" lon="2.59489">
        <ele>55.1</ele>
        <time>2022-07-10T11:11:10Z</time>
      </trkpt>
      <trkpt lat="49.83123" lon="2.59486">
        <ele>55.1</ele>
        <time>2022-07-10T11:11:12Z</time>
      </trkpt>
      <trkpt lat="49.83123" lon="2.59484">
        <ele>55.2</ele>
        <time>2022-07-10T11:11:13Z</time>
      </trkpt>
      <trkpt lat="49.83123" lon="2.59482">
        <ele>55.2</ele>
        <time>2022-07-10T11:11:14Z</time>
      </trkpt>
      <trkpt lat="49.83124" lon="2.5948">
        <ele>55.2</ele>
        <time>2022-07-10T11:11:15Z</time>
      </trkpt>
      <trkpt lat="49.83124" lon="2.59479">
        <ele>55.2</ele>
        <time>2022-07-10T11:11:16Z</time>
      </trkpt>
      <trkpt lat="49.83124" lon="2.59477">
        <ele>55.3</ele>
        <time>2022-07-10T11:11:17Z</time>
      </trkpt>
      <trkpt lat="49.83124" lon="2.59476">
        <ele>55.3</ele>
        <time>2022-07-10T11:11:18Z</time>
      </trkpt>
      <trkpt lat="49.83124" lon="2.59474">
        <ele>55.3</ele>
        <time>2022-07-10T11:11:20Z</time>
      </trkpt>
      <trkpt lat="49.83124" lon="2.59473">
        <ele>55.3</ele>
        <time>2022-07-10T11:11:21Z</time>
      </trkpt>
      <trkpt lat="49.83124" lon="2.59471">
        <ele>55.4</ele>
        <time>2022-07-10T11:11:22Z</time>
      </trkpt>
      <trkpt lat="49.83124" lon="2.59469">
        <ele>55.4</ele>
        <time>2022-07-10T11:11:23Z</time>
      </trkpt>
      <trkpt lat="49.83125" lon="2.59466">
        <ele>55.4</ele>
        <time>2022-07-10T11:11:24Z</time>
      </trkpt>
      <trkpt lat="49.83126" lon="2.59461">
        <ele>55.5</ele>
        <time>2022-07-10T11:11:26Z</time>
      </trkpt>
      <trkpt lat="49.83126" lon="2.59459">
        <ele>55.6</ele>
        <time>2022-07-10T11:11:27Z</time>
      </trkpt>
      <trkpt lat="49.83126" lon="2.59457">
        <ele>55.6</ele>
        <time>2022-07-10T11:11:29Z</time>
      </trkpt>
      <trkpt lat="49.83126" lon="2.59455">
        <ele>55.7</ele>
        <time>2022-07-10T11:11:30Z</time>
      </trkpt>
      <trkpt lat="49.83127" lon="2.59454">
        <ele>55.7</ele>
        <time>2022-07-10T11:11:31Z</time>
      </trkpt>
      <trkpt lat="49.83127" lon="2.59454">
        <ele>55.7</ele>
        <time>2022-07-10T11:11:32Z</time>
      </trkpt>
      <trkpt lat="49.83127" lon="2.59454">
        <ele>55.7</ele>
        <time>2022-07-10T11:11:33Z</time>
      </trkpt>
      <trkpt lat="49.83127" lon="2.59453">
        <ele>55.7</ele>
        <time>2022-07-10T11:11:34Z</time>
      </trkpt>
      <trkpt lat="49.83127" lon="2.59453">
        <ele>55.7</ele>
        <time>2022-07-10T11:11:35Z</time>
      </trkpt>
      <trkpt lat="49.83127" lon="2.59453">
        <ele>55.7</ele>
        <time>2022-07-10T11:11:36Z</time>
      </trkpt>
      <trkpt lat="49.83127" lon="2.59452">
        <ele>55.7</ele>
        <time>2022-07-10T11:11:37Z</time>
      </trkpt>
      <trkpt lat="49.83127" lon="2.5945">
        <ele>55.8</ele>
        <time>2022-07-10T11:11:38Z</time>
      </trkpt>
      <trkpt lat="49.83128" lon="2.59449">
        <ele>55.8</ele>
        <time>2022-07-10T11:11:39Z</time>
      </trkpt>
      <trkpt lat="49.83129" lon="2.59446">
        <ele>55.9</ele>
        <time>2022-07-10T11:11:41Z</time>
      </trkpt>
      <trkpt lat="49.83129" lon="2.59445">
        <ele>55.9</ele>
        <time>2022-07-10T11:11:42Z</time>
      </trkpt>
      <trkpt lat="49.8313" lon="2.59444">
        <ele>55.9</ele>
        <time>2022-07-10T11:11:43Z</time>
      </trkpt>
      <trkpt lat="49.8313" lon="2.59442">
        <ele>56</ele>
        <time>2022-07-10T11:11:44Z</time>
      </trkpt>
      <trkpt lat="49.83131" lon="2.5944">
        <ele>56</ele>
        <time>2022-07-10T11:11:45Z</time>
      </trkpt>
      <trkpt lat="49.83132" lon="2.59439">
        <ele>56.1</ele>
        <time>2022-07-10T11:11:46Z</time>
      </trkpt>
      <trkpt lat="49.83133" lon="2.59436">
        <ele>56.1</ele>
        <time>2022-07-10T11:11:47Z</time>
      </trkpt>
      <trkpt lat="49.83134" lon="2.59435">
        <ele>56.2</ele>
        <time>2022-07-10T11:11:48Z</time>
      </trkpt>
      <trkpt lat="49.83134" lon="2.59433">
        <ele>56.2</ele>
        <time>2022-07-10T11:11:49Z</time>
      </trkpt>
      <trkpt lat="49.83135" lon="2.5943">
        <ele>56.3</ele>
        <time>2022-07-10T11:11:51Z</time>
      </trkpt>
      <trkpt lat="49.83136" lon="2.59429">
        <ele>56.4</ele>
        <time>2022-07-10T11:11:52Z</time>
      </trkpt>
      <trkpt lat="49.83137" lon="2.59426">
        <ele>56.5</ele>
        <time>2022-07-10T11:11:53Z</time>
      </trkpt>
      <trkpt lat="49.83137" lon="2.59424">
        <ele>56.5</ele>
        <time>2022-07-10T11:11:54Z</time>
      </trkpt>
      <trkpt lat="49.83138" lon="2.59423">
        <ele>56.5</ele>
        <time>2022-07-10T11:11:55Z</time>
      </trkpt>
      <trkpt lat="49.83139" lon="2.5942">
        <ele>56.6</ele>
        <time>2022-07-10T11:11:56Z</time>
      </trkpt>
      <trkpt lat="49.83139" lon="2.59418">
        <ele>56.7</ele>
        <time>2022-07-10T11:11:57Z</time>
      </trkpt>
      <trkpt lat="49.8314" lon="2.59417">
        <ele>56.7</ele>
        <time>2022-07-10T11:11:58Z</time>
      </trkpt>
      <trkpt lat="49.8314" lon="2.59414">
        <ele>56.8</ele>
        <time>2022-07-10T11:11:59Z</time>
      </trkpt>
      <trkpt lat="49.83141" lon="2.59412">
        <ele>56.9</ele>
        <time>2022-07-10T11:12:01Z</time>
      </trkpt>
      <trkpt lat="49.83141" lon="2.59411">
        <ele>56.9</ele>
        <time>2022-07-10T11:12:02Z</time>
      </trkpt>
      <trkpt lat="49.83142" lon="2.59409">
        <ele>57</ele>
        <time>2022-07-10T11:12:03Z</time>
      </trkpt>
      <trkpt lat="49.83142" lon="2.59407">
        <ele>57</ele>
        <time>2022-07-10T11:12:04Z</time>
      </trkpt>
      <trkpt lat="49.83143" lon="2.59405">
        <ele>57.1</ele>
        <time>2022-07-10T11:12:05Z</time>
      </trkpt>
      <trkpt lat="49.83144" lon="2.59403">
        <ele>57.2</ele>
        <time>2022-07-10T11:12:06Z</time>
      </trkpt>
      <trkpt lat="49.83144" lon="2.59402">
        <ele>57.2</ele>
        <time>2022-07-10T11:12:07Z</time>
      </trkpt>
      <trkpt lat="49.83145" lon="2.594">
        <ele>57.3</ele>
        <time>2022-07-10T11:12:08Z</time>
      </trkpt>
      <trkpt lat="49.83145" lon="2.59399">
        <ele>57.4</ele>
        <time>2022-07-10T11:12:09Z</time>
      </trkpt>
      <trkpt lat="49.83146" lon="2.59397">
        <ele>57.4</ele>
        <time>2022-07-10T11:12:11Z</time>
      </trkpt>
      <trkpt lat="49.83146" lon="2.59396">
        <ele>57.5</ele>
        <time>2022-07-10T11:12:12Z</time>
      </trkpt>
      <trkpt lat="49.83146" lon="2.59394">
        <ele>57.5</ele>
        <time>2022-07-10T11:12:13Z</time>
      </trkpt>
      <trkpt lat="49.83146" lon="2.59393">
        <ele>57.6</ele>
        <time>2022-07-10T11:12:14Z</time>
      </trkpt>
      <trkpt lat="49.83146" lon="2.5939">
        <ele>57.6</ele>
        <time>2022-07-10T11:12:15Z</time>
      </trkpt>
      <trkpt lat="49.83146" lon="2.59389">
        <ele>57.6</ele>
        <time>2022-07-10T11:12:16Z</time>
      </trkpt>
      <trkpt lat="49.83147" lon="2.59387">
        <ele>57.6</ele>
        <time>2022-07-10T11:12:17Z</time>
      </trkpt>
      <trkpt lat="49.83147" lon="2.59386">
        <ele>57.6</ele>
        <time>2022-07-10T11:12:19Z</time>
      </trkpt>
      <trkpt lat="49.83147" lon="2.59385">
        <ele>57.6</ele>
        <time>2022-07-10T11:12:20Z</time>
      </trkpt>
      <trkpt lat="49.83147" lon="2.59383">
        <ele>57.6</ele>
        <time>2022-07-10T11:12:21Z</time>
      </trkpt>
      <trkpt lat="49.83147" lon="2.59381">
        <ele>57.6</ele>
        <time>2022-07-10T11:12:22Z</time>
      </trkpt>
      <trkpt lat="49.83147" lon="2.59378">
        <ele>57.6</ele>
        <time>2022-07-10T11:12:23Z</time>
      </trkpt>
      <trkpt lat="49.83147" lon="2.59377">
        <ele>57.7</ele>
        <time>2022-07-10T11:12:24Z</time>
      </trkpt>
      <trkpt lat="49.83146" lon="2.59375">
        <ele>57.7</ele>
        <time>2022-07-10T11:12:25Z</time>
      </trkpt>
      <trkpt lat="49.83146" lon="2.59373">
        <ele>57.8</ele>
        <time>2022-07-10T11:12:26Z</time>
      </trkpt>
      <trkpt lat="49.83146" lon="2.59372">
        <ele>57.8</ele>
        <time>2022-07-10T11:12:28Z</time>
      </trkpt>
      <trkpt lat="49.83146" lon="2.59371">
        <ele>57.8</ele>
        <time>2022-07-10T11:12:29Z</time>
      </trkpt>
      <trkpt lat="49.83146" lon="2.5937">
        <ele>57.9</ele>
        <time>2022-07-10T11:12:30Z</time>
      </trkpt>
      <trkpt lat="49.83146" lon="2.59368">
        <ele>57.9</ele>
        <time>2022-07-10T11:12:31Z</time>
      </trkpt>
      <trkpt lat="49.83146" lon="2.59366">
        <ele>58</ele>
        <time>2022-07-10T11:12:32Z</time>
      </trkpt>
      <trkpt lat="49.83146" lon="2.59365">
        <ele>58</ele>
        <time>2022-07-10T11:12:33Z</time>
      </trkpt>
      <trkpt lat="49.83146" lon="2.59363">
        <ele>58</ele>
        <time>2022-07-10T11:12:34Z</time>
      </trkpt>
      <trkpt lat="49.83146" lon="2.59362">
        <ele>58.1</ele>
        <time>2022-07-10T11:12:36Z</time>
      </trkpt>
      <trkpt lat="49.83146" lon="2.5936">
        <ele>58.1</ele>
        <time>2022-07-10T11:12:37Z</time>
      </trkpt>
      <trkpt lat="49.83146" lon="2.59358">
        <ele>58.2</ele>
        <time>2022-07-10T11:12:38Z</time>
      </trkpt>
      <trkpt lat="49.83146" lon="2.59357">
        <ele>58.2</ele>
        <time>2022-07-10T11:12:40Z</time>
      </trkpt>
      <trkpt lat="49.83145" lon="2.59354">
        <ele>58.3</ele>
        <time>2022-07-10T11:12:42Z</time>
      </trkpt>
      <trkpt lat="49.83145" lon="2.59353">
        <ele>58.3</ele>
        <time>2022-07-10T11:12:43Z</time>
      </trkpt>
      <trkpt lat="49.83145" lon="2.59352">
        <ele>58.4</ele>
        <time>2022-07-10T11:12:44Z</time>
      </trkpt>
      <trkpt lat="49.83145" lon="2.59351">
        <ele>58.4</ele>
        <time>2022-07-10T11:12:45Z</time>
      </trkpt>
      <trkpt lat="49.83145" lon="2.59349">
        <ele>58.4</ele>
        <time>2022-07-10T11:12:46Z</time>
      </trkpt>
      <trkpt lat="49.83145" lon="2.59348">
        <ele>58.5</ele>
        <time>2022-07-10T11:12:47Z</time>
      </trkpt>
      <trkpt lat="49.83145" lon="2.59347">
        <ele>58.5</ele>
        <time>2022-07-10T11:12:48Z</time>
      </trkpt>
      <trkpt lat="49.83145" lon="2.59346">
        <ele>58.5</ele>
        <time>2022-07-10T11:12:50Z</time>
      </trkpt>
      <trkpt lat="49.83146" lon="2.59345">
        <ele>58.6</ele>
        <time>2022-07-10T11:12:51Z</time>
      </trkpt>
      <trkpt lat="49.83146" lon="2.59344">
        <ele>58.6</ele>
        <time>2022-07-10T11:12:52Z</time>
      </trkpt>
      <trkpt lat="49.83147" lon="2.59343">
        <ele>58.7</ele>
        <time>2022-07-10T11:12:53Z</time>
      </trkpt>
      <trkpt lat="49.83147" lon="2.59341">
        <ele>58.7</ele>
        <time>2022-07-10T11:12:55Z</time>
      </trkpt>
      <trkpt lat="49.83147" lon="2.5934">
        <ele>58.7</ele>
        <time>2022-07-10T11:12:56Z</time>
      </trkpt>
      <trkpt lat="49.83148" lon="2.59338">
        <ele>58.8</ele>
        <time>2022-07-10T11:12:58Z</time>
      </trkpt>
      <trkpt lat="49.83148" lon="2.59336">
        <ele>58.9</ele>
        <time>2022-07-10T11:12:59Z</time>
      </trkpt>
      <trkpt lat="49.83149" lon="2.59336">
        <ele>58.9</ele>
        <time>2022-07-10T11:13:00Z</time>
      </trkpt>
      <trkpt lat="49.83149" lon="2.59335">
        <ele>58.9</ele>
        <time>2022-07-10T11:13:01Z</time>
      </trkpt>
      <trkpt lat="49.83149" lon="2.59335">
        <ele>58.9</ele>
        <time>2022-07-10T11:13:02Z</time>
      </trkpt>
      <trkpt lat="49.83149" lon="2.59335">
        <ele>58.9</ele>
        <time>2022-07-10T11:13:03Z</time>
      </trkpt>
      <trkpt lat="49.83149" lon="2.59336">
        <ele>59</ele>
        <time>2022-07-10T11:13:04Z</time>
      </trkpt>
      <trkpt lat="49.83149" lon="2.59337">
        <ele>59</ele>
        <time>2022-07-10T11:13:05Z</time>
      </trkpt>
      <trkpt lat="49.83149" lon="2.59337">
        <ele>59</ele>
        <time>2022-07-10T11:13:06Z</time>
      </trkpt>
      <trkpt lat="49.83149" lon="2.59338">
        <ele>59</ele>
        <time>2022-07-10T11:13:07Z</time>
      </trkpt>
      <trkpt lat="49.83149" lon="2.59339">
        <ele>59</ele>
        <time>2022-07-10T11:13:08Z</time>
      </trkpt>
      <trkpt lat="49.83149" lon="2.59339">
        <ele>59</ele>
        <time>2022-07-10T11:13:09Z</time>
      </trkpt>
      <trkpt lat="49.83149" lon="2.59339">
        <ele>59</ele>
        <time>2022-07-10T11:13:10Z</time>
      </trkpt>
      <trkpt lat="49.8315" lon="2.59339">
        <ele>59</ele>
        <time>2022-07-10T11:13:12Z</time>
      </trkpt>
      <trkpt lat="49.8315" lon="2.59339">
        <ele>59.1</ele>
        <time>2022-07-10T11:13:13Z</time>
      </trkpt>
      <trkpt lat="49.8315" lon="2.59339">
        <ele>59.1</ele>
        <time>2022-07-10T11:13:14Z</time>
      </trkpt>
      <trkpt lat="49.8315" lon="2.59339">
        <ele>59.1</ele>
        <time>2022-07-10T11:13:15Z</time>
      </trkpt>
      <trkpt lat="49.8315" lon="2.59339">
        <ele>59.1</ele>
        <time>2022-07-10T11:13:16Z</time>
      </trkpt>
      <trkpt lat="49.8315" lon="2.5934">
        <ele>59.1</ele>
        <time>2022-07-10T11:13:17Z</time>
      </trkpt>
      <trkpt lat="49.83149" lon="2.59341">
        <ele>59.1</ele>
        <time>2022-07-10T11:13:18Z</time>
      </trkpt>
      <trkpt lat="49.83149" lon="2.59341">
        <ele>59.1</ele>
        <time>2022-07-10T11:13:19Z</time>
      </trkpt>
      <trkpt lat="49.83149" lon="2.59341">
        <ele>59.1</ele>
        <time>2022-07-10T11:13:20Z</time>
      </trkpt>
      <trkpt lat="49.83149" lon="2.59341">
        <ele>59.1</ele>
        <time>2022-07-10T11:13:21Z</time>
      </trkpt>
      <trkpt lat="49.83149" lon="2.59341">
        <ele>59.1</ele>
        <time>2022-07-10T11:13:22Z</time>
      </trkpt>
      <trkpt lat="49.83149" lon="2.59341">
        <ele>59.1</ele>
        <time>2022-07-10T11:13:23Z</time>
      </trkpt>
      <trkpt lat="49.83149" lon="2.59341">
        <ele>59.1</ele>
        <time>2022-07-10T11:13:24Z</time>
      </trkpt>
      <trkpt lat="49.8315" lon="2.59339">
        <ele>59.2</ele>
        <time>2022-07-10T11:13:25Z</time>
      </trkpt>
      <trkpt lat="49.8315" lon="2.59337">
        <ele>59.3</ele>
        <time>2022-07-10T11:13:26Z</time>
      </trkpt>
      <trkpt lat="49.8315" lon="2.59336">
        <ele>59.3</ele>
        <time>2022-07-10T11:13:27Z</time>
      </trkpt>
      <trkpt lat="49.8315" lon="2.59336">
        <ele>59.3</ele>
        <time>2022-07-10T11:13:28Z</time>
      </trkpt>
      <trkpt lat="49.8315" lon="2.59335">
        <ele>59.3</ele>
        <time>2022-07-10T11:13:29Z</time>
      </trkpt>
      <trkpt lat="49.8315" lon="2.59335">
        <ele>59.3</ele>
        <time>2022-07-10T11:13:30Z</time>
      </trkpt>
      <trkpt lat="49.83149" lon="2.59335">
        <ele>59.3</ele>
        <time>2022-07-10T11:13:31Z</time>
      </trkpt>
      <trkpt lat="49.83149" lon="2.59334">
        <ele>59.3</ele>
        <time>2022-07-10T11:13:32Z</time>
      </trkpt>
      <trkpt lat="49.83149" lon="2.59334">
        <ele>59.4</ele>
        <time>2022-07-10T11:13:33Z</time>
      </trkpt>
      <trkpt lat="49.83149" lon="2.59334">
        <ele>59.4</ele>
        <time>2022-07-10T11:13:34Z</time>
      </trkpt>
      <trkpt lat="49.83149" lon="2.59334">
        <ele>59.4</ele>
        <time>2022-07-10T11:13:35Z</time>
      </trkpt>
      <trkpt lat="49.83149" lon="2.59334">
        <ele>59.4</ele>
        <time>2022-07-10T11:13:36Z</time>
      </trkpt>
      <trkpt lat="49.83149" lon="2.59334">
        <ele>59.4</ele>
        <time>2022-07-10T11:13:37Z</time>
      </trkpt>
      <trkpt lat="49.83149" lon="2.59334">
        <ele>59.4</ele>
        <time>2022-07-10T11:13:38Z</time>
      </trkpt>
      <trkpt lat="49.83149" lon="2.59334">
        <ele>59.4</ele>
        <time>2022-07-10T11:13:39Z</time>
      </trkpt>
      <trkpt lat="49.83149" lon="2.59334">
        <ele>59.4</ele>
        <time>2022-07-10T11:13:40Z</time>
      </trkpt>
      <trkpt lat="49.83149" lon="2.59334">
        <ele>59.4</ele>
        <time>2022-07-10T11:13:41Z</time>
      </trkpt>
      <trkpt lat="49.83149" lon="2.59334">
        <ele>59.4</ele>
        <time>2022-07-10T11:13:42Z</time>
      </trkpt>
      <trkpt lat="49.83149" lon="2.59334">
        <ele>59.4</ele>
        <time>2022-07-10T11:13:43Z</time>
      </trkpt>
      <trkpt lat="49.83149" lon="2.59334">
        <ele>59.4</ele>
        <time>2022-07-10T11:13:44Z</time>
      </trkpt>
      <trkpt lat="49.83149" lon="2.59334">
        <ele>59.4</ele>
        <time>2022-07-10T11:13:45Z</time>
      </trkpt>
      <trkpt lat="49.83149" lon="2.59334">
        <ele>59.4</ele>
        <time>2022-07-10T11:13:46Z</time>
      </trkpt>
      <trkpt lat="49.83149" lon="2.59334">
        <ele>59.4</ele>
        <time>2022-07-10T11:13:47Z</time>
      </trkpt>
      <trkpt lat="49.83149" lon="2.59334">
        <ele>59.4</ele>
        <time>2022-07-10T11:13:48Z</time>
      </trkpt>
      <trkpt lat="49.83149" lon="2.59334">
        <ele>59.4</ele>
        <time>2022-07-10T11:13:49Z</time>
      </trkpt>
      <trkpt lat="49.83149" lon="2.59334">
        <ele>59.4</ele>
        <time>2022-07-10T11:13:50Z</time>
      </trkpt>
      <trkpt lat="49.83149" lon="2.59334">
        <ele>59.4</ele>
        <time>2022-07-10T11:13:51Z</time>
      </trkpt>
      <trkpt lat="49.83149" lon="2.59334">
        <ele>59.4</ele>
        <time>2022-07-10T11:13:52Z</time>
      </trkpt>
      <trkpt lat="49.83149" lon="2.59334">
        <ele>59.4</ele>
        <time>2022-07-10T11:13:53Z</time>
      </trkpt>
      <trkpt lat="49.83149" lon="2.59334">
        <ele>59.4</ele>
        <time>2022-07-10T11:13:54Z</time>
      </trkpt>
      <trkpt lat="49.83149" lon="2.59334">
        <ele>59.4</ele>
        <time>2022-07-10T11:13:55Z</time>
      </trkpt>
      <trkpt lat="49.83149" lon="2.59334">
        <ele>59.4</ele>
        <time>2022-07-10T11:13:56Z</time>
      </trkpt>
      <trkpt lat="49.83149" lon="2.59334">
        <ele>59.4</ele>
        <time>2022-07-10T11:13:57Z</time>
      </trkpt>
      <trkpt lat="49.83149" lon="2.59334">
        <ele>59.4</ele>
        <time>2022-07-10T11:13:58Z</time>
      </trkpt>
      <trkpt lat="49.83149" lon="2.59334">
        <ele>59.4</ele>
        <time>2022-07-10T11:13:59Z</time>
      </trkpt>
      <trkpt lat="49.83149" lon="2.59334">
        <ele>59.4</ele>
        <time>2022-07-10T11:14:00Z</time>
      </trkpt>
      <trkpt lat="49.83149" lon="2.59334">
        <ele>59.4</ele>
        <time>2022-07-10T11:14:01Z</time>
      </trkpt>
      <trkpt lat="49.83149" lon="2.59334">
        <ele>59.4</ele>
        <time>2022-07-10T11:14:02Z</time>
      </trkpt>
      <trkpt lat="49.83149" lon="2.59334">
        <ele>59.4</ele>
        <time>2022-07-10T11:14:03Z</time>
      </trkpt>
      <trkpt lat="49.83149" lon="2.59334">
        <ele>59.4</ele>
        <time>2022-07-10T11:14:04Z</time>
      </trkpt>
      <trkpt lat="49.83149" lon="2.59334">
        <ele>59.4</ele>
        <time>2022-07-10T11:14:05Z</time>
      </trkpt>
      <trkpt lat="49.83149" lon="2.59334">
        <ele>59.4</ele>
        <time>2022-07-10T11:14:06Z</time>
      </trkpt>
      <trkpt lat="49.83149" lon="2.59334">
        <ele>59.4</ele>
        <time>2022-07-10T11:14:07Z</time>
      </trkpt>
      <trkpt lat="49.83149" lon="2.59334">
        <ele>59.4</ele>
        <time>2022-07-10T11:14:08Z</time>
      </trkpt>
      <trkpt lat="49.83149" lon="2.59334">
        <ele>59.4</ele>
        <time>2022-07-10T11:14:09Z</time>
      </trkpt>
      <trkpt lat="49.83149" lon="2.59334">
        <ele>59.4</ele>
        <time>2022-07-10T11:14:10Z</time>
      </trkpt>
      <trkpt lat="49.83149" lon="2.59334">
        <ele>59.4</ele>
        <time>2022-07-10T11:14:11Z</time>
      </trkpt>
      <trkpt lat="49.83149" lon="2.59334">
        <ele>59.4</ele>
        <time>2022-07-10T11:14:12Z</time>
      </trkpt>
      <trkpt lat="49.83149" lon="2.59334">
        <ele>59.4</ele>
        <time>2022-07-10T11:14:13Z</time>
      </trkpt>
      <trkpt lat="49.83149" lon="2.59334">
        <ele>59.4</ele>
        <time>2022-07-10T11:14:14Z</time>
      </trkpt>
      <trkpt lat="49.83149" lon="2.59334">
        <ele>59.4</ele>
        <time>2022-07-10T11:14:15Z</time>
      </trkpt>
      <trkpt lat="49.83149" lon="2.59334">
        <ele>59.4</ele>
        <time>2022-07-10T11:14:16Z</time>
      </trkpt>
      <trkpt lat="49.83149" lon="2.59334">
        <ele>59.4</ele>
        <time>2022-07-10T11:14:17Z</time>
      </trkpt>
      <trkpt lat="49.83149" lon="2.59334">
        <ele>59.4</ele>
        <time>2022-07-10T11:14:18Z</time>
      </trkpt>
      <trkpt lat="49.83149" lon="2.59334">
        <ele>59.4</ele>
        <time>2022-07-10T11:14:19Z</time>
      </trkpt>
      <trkpt lat="49.83149" lon="2.59333">
        <ele>59.4</ele>
        <time>2022-07-10T11:14:20Z</time>
      </trkpt>
      <trkpt lat="49.83149" lon="2.59332">
        <ele>59.4</ele>
        <time>2022-07-10T11:14:21Z</time>
      </trkpt>
      <trkpt lat="49.83148" lon="2.59332">
        <ele>59.5</ele>
        <time>2022-07-10T11:14:22Z</time>
      </trkpt>
      <trkpt lat="49.83148" lon="2.59332">
        <ele>59.5</ele>
        <time>2022-07-10T11:14:23Z</time>
      </trkpt>
      <trkpt lat="49.83149" lon="2.59331">
        <ele>59.5</ele>
        <time>2022-07-10T11:14:24Z</time>
      </trkpt>
      <trkpt lat="49.83149" lon="2.5933">
        <ele>59.5</ele>
        <time>2022-07-10T11:14:25Z</time>
      </trkpt>
      <trkpt lat="49.83149" lon="2.59329">
        <ele>59.5</ele>
        <time>2022-07-10T11:14:26Z</time>
      </trkpt>
      <trkpt lat="49.83149" lon="2.59329">
        <ele>59.6</ele>
        <time>2022-07-10T11:14:27Z</time>
      </trkpt>
      <trkpt lat="49.83149" lon="2.59329">
        <ele>59.6</ele>
        <time>2022-07-10T11:14:28Z</time>
      </trkpt>
      <trkpt lat="49.83148" lon="2.59328">
        <ele>59.6</ele>
        <time>2022-07-10T11:14:29Z</time>
      </trkpt>
      <trkpt lat="49.83148" lon="2.59327">
        <ele>59.6</ele>
        <time>2022-07-10T11:14:30Z</time>
      </trkpt>
      <trkpt lat="49.83147" lon="2.59324">
        <ele>59.7</ele>
        <time>2022-07-10T11:14:32Z</time>
      </trkpt>
      <trkpt lat="49.83147" lon="2.59323">
        <ele>59.8</ele>
        <time>2022-07-10T11:14:33Z</time>
      </trkpt>
      <trkpt lat="49.83146" lon="2.59322">
        <ele>59.8</ele>
        <time>2022-07-10T11:14:34Z</time>
      </trkpt>
      <trkpt lat="49.83145" lon="2.5932">
        <ele>59.9</ele>
        <time>2022-07-10T11:14:35Z</time>
      </trkpt>
      <trkpt lat="49.83145" lon="2.59318">
        <ele>60</ele>
        <time>2022-07-10T11:14:36Z</time>
      </trkpt>
      <trkpt lat="49.83144" lon="2.59316">
        <ele>60</ele>
        <time>2022-07-10T11:14:38Z</time>
      </trkpt>
      <trkpt lat="49.83143" lon="2.59315">
        <ele>60.1</ele>
        <time>2022-07-10T11:14:39Z</time>
      </trkpt>
      <trkpt lat="49.83142" lon="2.59312">
        <ele>60.2</ele>
        <time>2022-07-10T11:14:41Z</time>
      </trkpt>
      <trkpt lat="49.83143" lon="2.59309">
        <ele>60.3</ele>
        <time>2022-07-10T11:14:42Z</time>
      </trkpt>
      <trkpt lat="49.83144" lon="2.59307">
        <ele>60.3</ele>
        <time>2022-07-10T11:14:43Z</time>
      </trkpt>
      <trkpt lat="49.83144" lon="2.59305">
        <ele>60.4</ele>
        <time>2022-07-10T11:14:44Z</time>
      </trkpt>
      <trkpt lat="49.83144" lon="2.59303">
        <ele>60.5</ele>
        <time>2022-07-10T11:14:45Z</time>
      </trkpt>
      <trkpt lat="49.83143" lon="2.59299">
        <ele>60.6</ele>
        <time>2022-07-10T11:14:47Z</time>
      </trkpt>
      <trkpt lat="49.83143" lon="2.59298">
        <ele>60.7</ele>
        <time>2022-07-10T11:14:48Z</time>
      </trkpt>
      <trkpt lat="49.83142" lon="2.59296">
        <ele>60.7</ele>
        <time>2022-07-10T11:14:49Z</time>
      </trkpt>
      <trkpt lat="49.83142" lon="2.59295">
        <ele>60.8</ele>
        <time>2022-07-10T11:14:50Z</time>
      </trkpt>
      <trkpt lat="49.83142" lon="2.59293">
        <ele>60.8</ele>
        <time>2022-07-10T11:14:51Z</time>
      </trkpt>
      <trkpt lat="49.83141" lon="2.59292">
        <ele>60.8</ele>
        <time>2022-07-10T11:14:52Z</time>
      </trkpt>
      <trkpt lat="49.83141" lon="2.5929">
        <ele>60.9</ele>
        <time>2022-07-10T11:14:53Z</time>
      </trkpt>
      <trkpt lat="49.8314" lon="2.59289">
        <ele>61</ele>
        <time>2022-07-10T11:14:54Z</time>
      </trkpt>
      <trkpt lat="49.83139" lon="2.59285">
        <ele>61.1</ele>
        <time>2022-07-10T11:14:55Z</time>
      </trkpt>
      <trkpt lat="49.83139" lon="2.59284">
        <ele>61.1</ele>
        <time>2022-07-10T11:14:57Z</time>
      </trkpt>
      <trkpt lat="49.83139" lon="2.59283">
        <ele>61.2</ele>
        <time>2022-07-10T11:14:58Z</time>
      </trkpt>
      <trkpt lat="49.83139" lon="2.59281">
        <ele>61.2</ele>
        <time>2022-07-10T11:14:59Z</time>
      </trkpt>
      <trkpt lat="49.83138" lon="2.59279">
        <ele>61.3</ele>
        <time>2022-07-10T11:15:00Z</time>
      </trkpt>
      <trkpt lat="49.83138" lon="2.59277">
        <ele>61.4</ele>
        <time>2022-07-10T11:15:01Z</time>
      </trkpt>
      <trkpt lat="49.83138" lon="2.59275">
        <ele>61.5</ele>
        <time>2022-07-10T11:15:02Z</time>
      </trkpt>
      <trkpt lat="49.83138" lon="2.59273">
        <ele>61.5</ele>
        <time>2022-07-10T11:15:03Z</time>
      </trkpt>
      <trkpt lat="49.83137" lon="2.59272">
        <ele>61.6</ele>
        <time>2022-07-10T11:15:05Z</time>
      </trkpt>
      <trkpt lat="49.83137" lon="2.5927">
        <ele>61.6</ele>
        <time>2022-07-10T11:15:06Z</time>
      </trkpt>
      <trkpt lat="49.83136" lon="2.59267">
        <ele>61.8</ele>
        <time>2022-07-10T11:15:07Z</time>
      </trkpt>
      <trkpt lat="49.83136" lon="2.59265">
        <ele>61.8</ele>
        <time>2022-07-10T11:15:08Z</time>
      </trkpt>
      <trkpt lat="49.83136" lon="2.59264">
        <ele>61.9</ele>
        <time>2022-07-10T11:15:09Z</time>
      </trkpt>
      <trkpt lat="49.83135" lon="2.59262">
        <ele>62</ele>
        <time>2022-07-10T11:15:10Z</time>
      </trkpt>
      <trkpt lat="49.83134" lon="2.59259">
        <ele>62.1</ele>
        <time>2022-07-10T11:15:11Z</time>
      </trkpt>
      <trkpt lat="49.83133" lon="2.59257">
        <ele>62.2</ele>
        <time>2022-07-10T11:15:13Z</time>
      </trkpt>
      <trkpt lat="49.83133" lon="2.59256">
        <ele>62.3</ele>
        <time>2022-07-10T11:15:14Z</time>
      </trkpt>
      <trkpt lat="49.83132" lon="2.59255">
        <ele>62.3</ele>
        <time>2022-07-10T11:15:15Z</time>
      </trkpt>
      <trkpt lat="49.83132" lon="2.59254">
        <ele>62.4</ele>
        <time>2022-07-10T11:15:16Z</time>
      </trkpt>
      <trkpt lat="49.83131" lon="2.59252">
        <ele>62.4</ele>
        <time>2022-07-10T11:15:17Z</time>
      </trkpt>
      <trkpt lat="49.83131" lon="2.5925">
        <ele>62.5</ele>
        <time>2022-07-10T11:15:18Z</time>
      </trkpt>
      <trkpt lat="49.8313" lon="2.59246">
        <ele>62.6</ele>
        <time>2022-07-10T11:15:19Z</time>
      </trkpt>
      <trkpt lat="49.8313" lon="2.59245">
        <ele>62.7</ele>
        <time>2022-07-10T11:15:20Z</time>
      </trkpt>
      <trkpt lat="49.83129" lon="2.59242">
        <ele>62.8</ele>
        <time>2022-07-10T11:15:22Z</time>
      </trkpt>
      <trkpt lat="49.83129" lon="2.5924">
        <ele>62.8</ele>
        <time>2022-07-10T11:15:23Z</time>
      </trkpt>
      <trkpt lat="49.83129" lon="2.59239">
        <ele>62.9</ele>
        <time>2022-07-10T11:15:24Z</time>
      </trkpt>
      <trkpt lat="49.83128" lon="2.59237">
        <ele>62.9</ele>
        <time>2022-07-10T11:15:25Z</time>
      </trkpt>
      <trkpt lat="49.83128" lon="2.59235">
        <ele>63</ele>
        <time>2022-07-10T11:15:26Z</time>
      </trkpt>
      <trkpt lat="49.83128" lon="2.59234">
        <ele>63</ele>
        <time>2022-07-10T11:15:27Z</time>
      </trkpt>
      <trkpt lat="49.83127" lon="2.59232">
        <ele>63.1</ele>
        <time>2022-07-10T11:15:28Z</time>
      </trkpt>
      <trkpt lat="49.83127" lon="2.5923">
        <ele>63.1</ele>
        <time>2022-07-10T11:15:30Z</time>
      </trkpt>
      <trkpt lat="49.83127" lon="2.59228">
        <ele>63.2</ele>
        <time>2022-07-10T11:15:31Z</time>
      </trkpt>
      <trkpt lat="49.83127" lon="2.59227">
        <ele>63.2</ele>
        <time>2022-07-10T11:15:32Z</time>
      </trkpt>
      <trkpt lat="49.83127" lon="2.59225">
        <ele>63.3</ele>
        <time>2022-07-10T11:15:33Z</time>
      </trkpt>
      <trkpt lat="49.83126" lon="2.59222">
        <ele>63.3</ele>
        <time>2022-07-10T11:15:34Z</time>
      </trkpt>
      <trkpt lat="49.83126" lon="2.59221">
        <ele>63.4</ele>
        <time>2022-07-10T11:15:35Z</time>
      </trkpt>
      <trkpt lat="49.83126" lon="2.59219">
        <ele>63.4</ele>
        <time>2022-07-10T11:15:36Z</time>
      </trkpt>
      <trkpt lat="49.83126" lon="2.59216">
        <ele>63.4</ele>
        <time>2022-07-10T11:15:37Z</time>
      </trkpt>
      <trkpt lat="49.83126" lon="2.59215">
        <ele>63.5</ele>
        <time>2022-07-10T11:15:39Z</time>
      </trkpt>
      <trkpt lat="49.83126" lon="2.59214">
        <ele>63.5</ele>
        <time>2022-07-10T11:15:40Z</time>
      </trkpt>
      <trkpt lat="49.83125" lon="2.59212">
        <ele>63.5</ele>
        <time>2022-07-10T11:15:41Z</time>
      </trkpt>
      <trkpt lat="49.83125" lon="2.59211">
        <ele>63.6</ele>
        <time>2022-07-10T11:15:42Z</time>
      </trkpt>
      <trkpt lat="49.83125" lon="2.59209">
        <ele>63.6</ele>
        <time>2022-07-10T11:15:43Z</time>
      </trkpt>
      <trkpt lat="49.83124" lon="2.59206">
        <ele>63.7</ele>
        <time>2022-07-10T11:15:44Z</time>
      </trkpt>
      <trkpt lat="49.83124" lon="2.59205">
        <ele>63.7</ele>
        <time>2022-07-10T11:15:45Z</time>
      </trkpt>
      <trkpt lat="49.83123" lon="2.59203">
        <ele>63.7</ele>
        <time>2022-07-10T11:15:46Z</time>
      </trkpt>
      <trkpt lat="49.83123" lon="2.59202">
        <ele>63.8</ele>
        <time>2022-07-10T11:15:47Z</time>
      </trkpt>
      <trkpt lat="49.83123" lon="2.592">
        <ele>63.8</ele>
        <time>2022-07-10T11:15:49Z</time>
      </trkpt>
      <trkpt lat="49.83123" lon="2.59198">
        <ele>63.8</ele>
        <time>2022-07-10T11:15:50Z</time>
      </trkpt>
      <trkpt lat="49.83122" lon="2.59198">
        <ele>63.9</ele>
        <time>2022-07-10T11:15:51Z</time>
      </trkpt>
      <trkpt lat="49.83122" lon="2.59196">
        <ele>63.9</ele>
        <time>2022-07-10T11:15:52Z</time>
      </trkpt>
      <trkpt lat="49.83122" lon="2.59195">
        <ele>63.9</ele>
        <time>2022-07-10T11:15:53Z</time>
      </trkpt>
      <trkpt lat="49.83121" lon="2.59193">
        <ele>64</ele>
        <time>2022-07-10T11:15:54Z</time>
      </trkpt>
      <trkpt lat="49.83121" lon="2.59191">
        <ele>64</ele>
        <time>2022-07-10T11:15:55Z</time>
      </trkpt>
      <trkpt lat="49.8312" lon="2.5919">
        <ele>64</ele>
        <time>2022-07-10T11:15:56Z</time>
      </trkpt>
      <trkpt lat="49.8312" lon="2.59189">
        <ele>64.1</ele>
        <time>2022-07-10T11:15:57Z</time>
      </trkpt>
      <trkpt lat="49.8312" lon="2.59187">
        <ele>64.1</ele>
        <time>2022-07-10T11:15:58Z</time>
      </trkpt>
      <trkpt lat="49.83119" lon="2.59184">
        <ele>64.2</ele>
        <time>2022-07-10T11:16:00Z</time>
      </trkpt>
      <trkpt lat="49.83119" lon="2.59183">
        <ele>64.2</ele>
        <time>2022-07-10T11:16:01Z</time>
      </trkpt>
      <trkpt lat="49.83118" lon="2.59181">
        <ele>64.2</ele>
        <time>2022-07-10T11:16:02Z</time>
      </trkpt>
      <trkpt lat="49.83118" lon="2.5918">
        <ele>64.3</ele>
        <time>2022-07-10T11:16:03Z</time>
      </trkpt>
      <trkpt lat="49.83118" lon="2.59178">
        <ele>64.3</ele>
        <time>2022-07-10T11:16:04Z</time>
      </trkpt>
      <trkpt lat="49.83117" lon="2.59175">
        <ele>64.4</ele>
        <time>2022-07-10T11:16:05Z</time>
      </trkpt>
      <trkpt lat="49.83117" lon="2.59174">
        <ele>64.4</ele>
        <time>2022-07-10T11:16:06Z</time>
      </trkpt>
      <trkpt lat="49.83117" lon="2.59172">
        <ele>64.5</ele>
        <time>2022-07-10T11:16:07Z</time>
      </trkpt>
      <trkpt lat="49.83117" lon="2.5917">
        <ele>64.5</ele>
        <time>2022-07-10T11:16:08Z</time>
      </trkpt>
      <trkpt lat="49.83116" lon="2.59167">
        <ele>64.6</ele>
        <time>2022-07-10T11:16:10Z</time>
      </trkpt>
      <trkpt lat="49.83116" lon="2.59166">
        <ele>64.6</ele>
        <time>2022-07-10T11:16:11Z</time>
      </trkpt>
      <trkpt lat="49.83115" lon="2.59165">
        <ele>64.7</ele>
        <time>2022-07-10T11:16:12Z</time>
      </trkpt>
      <trkpt lat="49.83115" lon="2.59163">
        <ele>64.7</ele>
        <time>2022-07-10T11:16:13Z</time>
      </trkpt>
      <trkpt lat="49.83114" lon="2.59161">
        <ele>64.8</ele>
        <time>2022-07-10T11:16:14Z</time>
      </trkpt>
      <trkpt lat="49.83114" lon="2.59158">
        <ele>64.8</ele>
        <time>2022-07-10T11:16:15Z</time>
      </trkpt>
      <trkpt lat="49.83113" lon="2.59155">
        <ele>64.9</ele>
        <time>2022-07-10T11:16:17Z</time>
      </trkpt>
      <trkpt lat="49.83113" lon="2.59154">
        <ele>65</ele>
        <time>2022-07-10T11:16:18Z</time>
      </trkpt>
      <trkpt lat="49.83113" lon="2.59153">
        <ele>65</ele>
        <time>2022-07-10T11:16:19Z</time>
      </trkpt>
      <trkpt lat="49.83112" lon="2.5915">
        <ele>65.1</ele>
        <time>2022-07-10T11:16:20Z</time>
      </trkpt>
      <trkpt lat="49.83112" lon="2.59148">
        <ele>65.1</ele>
        <time>2022-07-10T11:16:21Z</time>
      </trkpt>
      <trkpt lat="49.83112" lon="2.59145">
        <ele>65.2</ele>
        <time>2022-07-10T11:16:22Z</time>
      </trkpt>
      <trkpt lat="49.83111" lon="2.59144">
        <ele>65.2</ele>
        <time>2022-07-10T11:16:24Z</time>
      </trkpt>
      <trkpt lat="49.83111" lon="2.59142">
        <ele>65.3</ele>
        <time>2022-07-10T11:16:25Z</time>
      </trkpt>
      <trkpt lat="49.8311" lon="2.59141">
        <ele>65.3</ele>
        <time>2022-07-10T11:16:26Z</time>
      </trkpt>
      <trkpt lat="49.8311" lon="2.59139">
        <ele>65.4</ele>
        <time>2022-07-10T11:16:28Z</time>
      </trkpt>
      <trkpt lat="49.8311" lon="2.59138">
        <ele>65.4</ele>
        <time>2022-07-10T11:16:29Z</time>
      </trkpt>
      <trkpt lat="49.8311" lon="2.59134">
        <ele>65.5</ele>
        <time>2022-07-10T11:16:30Z</time>
      </trkpt>
      <trkpt lat="49.8311" lon="2.59133">
        <ele>65.6</ele>
        <time>2022-07-10T11:16:31Z</time>
      </trkpt>
      <trkpt lat="49.8311" lon="2.59132">
        <ele>65.6</ele>
        <time>2022-07-10T11:16:32Z</time>
      </trkpt>
      <trkpt lat="49.83109" lon="2.5913">
        <ele>65.6</ele>
        <time>2022-07-10T11:16:33Z</time>
      </trkpt>
      <trkpt lat="49.83109" lon="2.59128">
        <ele>65.7</ele>
        <time>2022-07-10T11:16:34Z</time>
      </trkpt>
      <trkpt lat="49.83109" lon="2.59125">
        <ele>65.8</ele>
        <time>2022-07-10T11:16:36Z</time>
      </trkpt>
      <trkpt lat="49.83109" lon="2.59123">
        <ele>65.8</ele>
        <time>2022-07-10T11:16:37Z</time>
      </trkpt>
      <trkpt lat="49.83109" lon="2.59122">
        <ele>65.9</ele>
        <time>2022-07-10T11:16:38Z</time>
      </trkpt>
      <trkpt lat="49.83108" lon="2.5912">
        <ele>65.9</ele>
        <time>2022-07-10T11:16:39Z</time>
      </trkpt>
      <trkpt lat="49.83108" lon="2.59117">
        <ele>66</ele>
        <time>2022-07-10T11:16:40Z</time>
      </trkpt>
      <trkpt lat="49.83108" lon="2.59116">
        <ele>66.1</ele>
        <time>2022-07-10T11:16:41Z</time>
      </trkpt>
      <trkpt lat="49.83108" lon="2.59114">
        <ele>66.1</ele>
        <time>2022-07-10T11:16:42Z</time>
      </trkpt>
      <trkpt lat="49.83108" lon="2.59112">
        <ele>66.2</ele>
        <time>2022-07-10T11:16:43Z</time>
      </trkpt>
      <trkpt lat="49.83108" lon="2.59108">
        <ele>66.3</ele>
        <time>2022-07-10T11:16:44Z</time>
      </trkpt>
      <trkpt lat="49.83108" lon="2.59106">
        <ele>66.3</ele>
        <time>2022-07-10T11:16:46Z</time>
      </trkpt>
      <trkpt lat="49.83109" lon="2.59105">
        <ele>66.4</ele>
        <time>2022-07-10T11:16:47Z</time>
      </trkpt>
      <trkpt lat="49.83109" lon="2.59103">
        <ele>66.4</ele>
        <time>2022-07-10T11:16:48Z</time>
      </trkpt>
      <trkpt lat="49.83109" lon="2.59102">
        <ele>66.5</ele>
        <time>2022-07-10T11:16:49Z</time>
      </trkpt>
      <trkpt lat="49.83109" lon="2.59099">
        <ele>66.6</ele>
        <time>2022-07-10T11:16:50Z</time>
      </trkpt>
      <trkpt lat="49.83109" lon="2.59098">
        <ele>66.6</ele>
        <time>2022-07-10T11:16:51Z</time>
      </trkpt>
      <trkpt lat="49.83109" lon="2.59094">
        <ele>66.7</ele>
        <time>2022-07-10T11:16:53Z</time>
      </trkpt>
      <trkpt lat="49.83109" lon="2.59092">
        <ele>66.8</ele>
        <time>2022-07-10T11:16:54Z</time>
      </trkpt>
      <trkpt lat="49.83109" lon="2.59091">
        <ele>66.8</ele>
        <time>2022-07-10T11:16:55Z</time>
      </trkpt>
      <trkpt lat="49.83109" lon="2.59089">
        <ele>66.9</ele>
        <time>2022-07-10T11:16:56Z</time>
      </trkpt>
      <trkpt lat="49.83109" lon="2.59087">
        <ele>66.9</ele>
        <time>2022-07-10T11:16:57Z</time>
      </trkpt>
      <trkpt lat="49.83109" lon="2.59086">
        <ele>67</ele>
        <time>2022-07-10T11:16:58Z</time>
      </trkpt>
      <trkpt lat="49.83109" lon="2.59083">
        <ele>67.1</ele>
        <time>2022-07-10T11:16:59Z</time>
      </trkpt>
      <trkpt lat="49.83109" lon="2.59081">
        <ele>67.2</ele>
        <time>2022-07-10T11:17:01Z</time>
      </trkpt>
      <trkpt lat="49.83109" lon="2.59079">
        <ele>67.2</ele>
        <time>2022-07-10T11:17:02Z</time>
      </trkpt>
      <trkpt lat="49.8311" lon="2.59077">
        <ele>67.3</ele>
        <time>2022-07-10T11:17:03Z</time>
      </trkpt>
      <trkpt lat="49.8311" lon="2.59075">
        <ele>67.4</ele>
        <time>2022-07-10T11:17:04Z</time>
      </trkpt>
      <trkpt lat="49.83111" lon="2.59072">
        <ele>67.5</ele>
        <time>2022-07-10T11:17:05Z</time>
      </trkpt>
      <trkpt lat="49.83111" lon="2.59071">
        <ele>67.5</ele>
        <time>2022-07-10T11:17:06Z</time>
      </trkpt>
      <trkpt lat="49.83111" lon="2.59067">
        <ele>67.7</ele>
        <time>2022-07-10T11:17:07Z</time>
      </trkpt>
      <trkpt lat="49.83112" lon="2.59065">
        <ele>67.7</ele>
        <time>2022-07-10T11:17:09Z</time>
      </trkpt>
      <trkpt lat="49.83112" lon="2.59064">
        <ele>67.8</ele>
        <time>2022-07-10T11:17:10Z</time>
      </trkpt>
      <trkpt lat="49.83112" lon="2.59061">
        <ele>67.9</ele>
        <time>2022-07-10T11:17:11Z</time>
      </trkpt>
      <trkpt lat="49.83113" lon="2.59059">
        <ele>67.9</ele>
        <time>2022-07-10T11:17:12Z</time>
      </trkpt>
      <trkpt lat="49.83113" lon="2.59058">
        <ele>68</ele>
        <time>2022-07-10T11:17:13Z</time>
      </trkpt>
      <trkpt lat="49.83113" lon="2.59056">
        <ele>68.1</ele>
        <time>2022-07-10T11:17:14Z</time>
      </trkpt>
      <trkpt lat="49.83114" lon="2.59053">
        <ele>68.2</ele>
        <time>2022-07-10T11:17:15Z</time>
      </trkpt>
      <trkpt lat="49.83114" lon="2.59049">
        <ele>68.3</ele>
        <time>2022-07-10T11:17:17Z</time>
      </trkpt>
      <trkpt lat="49.83114" lon="2.59048">
        <ele>68.3</ele>
        <time>2022-07-10T11:17:18Z</time>
      </trkpt>
      <trkpt lat="49.83114" lon="2.59047">
        <ele>68.4</ele>
        <time>2022-07-10T11:17:19Z</time>
      </trkpt>
      <trkpt lat="49.83115" lon="2.59044">
        <ele>68.5</ele>
        <time>2022-07-10T11:17:20Z</time>
      </trkpt>
      <trkpt lat="49.83115" lon="2.59043">
        <ele>68.5</ele>
        <time>2022-07-10T11:17:21Z</time>
      </trkpt>
      <trkpt lat="49.83116" lon="2.5904">
        <ele>68.7</ele>
        <time>2022-07-10T11:17:22Z</time>
      </trkpt>
      <trkpt lat="49.83116" lon="2.59038">
        <ele>68.7</ele>
        <time>2022-07-10T11:17:23Z</time>
      </trkpt>
      <trkpt lat="49.83117" lon="2.59037">
        <ele>68.7</ele>
        <time>2022-07-10T11:17:24Z</time>
      </trkpt>
      <trkpt lat="49.83117" lon="2.59034">
        <ele>68.8</ele>
        <time>2022-07-10T11:17:26Z</time>
      </trkpt>
      <trkpt lat="49.83117" lon="2.59033">
        <ele>68.9</ele>
        <time>2022-07-10T11:17:27Z</time>
      </trkpt>
      <trkpt lat="49.83118" lon="2.5903">
        <ele>69</ele>
        <time>2022-07-10T11:17:28Z</time>
      </trkpt>
      <trkpt lat="49.83118" lon="2.59028">
        <ele>69.1</ele>
        <time>2022-07-10T11:17:29Z</time>
      </trkpt>
      <trkpt lat="49.83119" lon="2.59027">
        <ele>69.1</ele>
        <time>2022-07-10T11:17:30Z</time>
      </trkpt>
      <trkpt lat="49.83119" lon="2.59025">
        <ele>69.2</ele>
        <time>2022-07-10T11:17:31Z</time>
      </trkpt>
      <trkpt lat="49.83119" lon="2.59024">
        <ele>69.2</ele>
        <time>2022-07-10T11:17:32Z</time>
      </trkpt>
      <trkpt lat="49.8312" lon="2.59022">
        <ele>69.3</ele>
        <time>2022-07-10T11:17:34Z</time>
      </trkpt>
      <trkpt lat="49.8312" lon="2.5902">
        <ele>69.4</ele>
        <time>2022-07-10T11:17:35Z</time>
      </trkpt>
      <trkpt lat="49.8312" lon="2.59018">
        <ele>69.4</ele>
        <time>2022-07-10T11:17:36Z</time>
      </trkpt>
      <trkpt lat="49.83121" lon="2.59017">
        <ele>69.5</ele>
        <time>2022-07-10T11:17:37Z</time>
      </trkpt>
      <trkpt lat="49.83121" lon="2.59015">
        <ele>69.5</ele>
        <time>2022-07-10T11:17:38Z</time>
      </trkpt>
      <trkpt lat="49.83121" lon="2.59014">
        <ele>69.6</ele>
        <time>2022-07-10T11:17:39Z</time>
      </trkpt>
      <trkpt lat="49.83121" lon="2.59012">
        <ele>69.6</ele>
        <time>2022-07-10T11:17:40Z</time>
      </trkpt>
      <trkpt lat="49.83121" lon="2.5901">
        <ele>69.7</ele>
        <time>2022-07-10T11:17:41Z</time>
      </trkpt>
      <trkpt lat="49.83122" lon="2.59009">
        <ele>69.7</ele>
        <time>2022-07-10T11:17:43Z</time>
      </trkpt>
      <trkpt lat="49.83122" lon="2.59008">
        <ele>69.8</ele>
        <time>2022-07-10T11:17:44Z</time>
      </trkpt>
      <trkpt lat="49.83122" lon="2.59006">
        <ele>69.8</ele>
        <time>2022-07-10T11:17:45Z</time>
      </trkpt>
      <trkpt lat="49.83122" lon="2.59004">
        <ele>69.9</ele>
        <time>2022-07-10T11:17:46Z</time>
      </trkpt>
      <trkpt lat="49.83122" lon="2.59003">
        <ele>69.9</ele>
        <time>2022-07-10T11:17:47Z</time>
      </trkpt>
      <trkpt lat="49.83123" lon="2.59001">
        <ele>70</ele>
        <time>2022-07-10T11:17:48Z</time>
      </trkpt>
      <trkpt lat="49.83123" lon="2.59">
        <ele>70</ele>
        <time>2022-07-10T11:17:50Z</time>
      </trkpt>
      <trkpt lat="49.83123" lon="2.58998">
        <ele>70.1</ele>
        <time>2022-07-10T11:17:51Z</time>
      </trkpt>
      <trkpt lat="49.83123" lon="2.58997">
        <ele>70.1</ele>
        <time>2022-07-10T11:17:52Z</time>
      </trkpt>
      <trkpt lat="49.83123" lon="2.58996">
        <ele>70.2</ele>
        <time>2022-07-10T11:17:53Z</time>
      </trkpt>
      <trkpt lat="49.83124" lon="2.58994">
        <ele>70.2</ele>
        <time>2022-07-10T11:17:54Z</time>
      </trkpt>
      <trkpt lat="49.83124" lon="2.58991">
        <ele>70.3</ele>
        <time>2022-07-10T11:17:55Z</time>
      </trkpt>
      <trkpt lat="49.83125" lon="2.58989">
        <ele>70.4</ele>
        <time>2022-07-10T11:17:56Z</time>
      </trkpt>
      <trkpt lat="49.83125" lon="2.58987">
        <ele>70.5</ele>
        <time>2022-07-10T11:17:58Z</time>
      </trkpt>
      <trkpt lat="49.83125" lon="2.58986">
        <ele>70.5</ele>
        <time>2022-07-10T11:17:59Z</time>
      </trkpt>
      <trkpt lat="49.83125" lon="2.58985">
        <ele>70.5</ele>
        <time>2022-07-10T11:18:00Z</time>
      </trkpt>
      <trkpt lat="49.83125" lon="2.58984">
        <ele>70.6</ele>
        <time>2022-07-10T11:18:01Z</time>
      </trkpt>
      <trkpt lat="49.83125" lon="2.58982">
        <ele>70.6</ele>
        <time>2022-07-10T11:18:02Z</time>
      </trkpt>
      <trkpt lat="49.83125" lon="2.58981">
        <ele>70.7</ele>
        <time>2022-07-10T11:18:03Z</time>
      </trkpt>
      <trkpt lat="49.83126" lon="2.58979">
        <ele>70.7</ele>
        <time>2022-07-10T11:18:05Z</time>
      </trkpt>
      <trkpt lat="49.83126" lon="2.58977">
        <ele>70.8</ele>
        <time>2022-07-10T11:18:06Z</time>
      </trkpt>
      <trkpt lat="49.83126" lon="2.58976">
        <ele>70.8</ele>
        <time>2022-07-10T11:18:07Z</time>
      </trkpt>
      <trkpt lat="49.83126" lon="2.58975">
        <ele>70.9</ele>
        <time>2022-07-10T11:18:08Z</time>
      </trkpt>
      <trkpt lat="49.83126" lon="2.58974">
        <ele>70.9</ele>
        <time>2022-07-10T11:18:09Z</time>
      </trkpt>
      <trkpt lat="49.83127" lon="2.58971">
        <ele>71</ele>
        <time>2022-07-10T11:18:10Z</time>
      </trkpt>
      <trkpt lat="49.83127" lon="2.5897">
        <ele>71</ele>
        <time>2022-07-10T11:18:12Z</time>
      </trkpt>
      <trkpt lat="49.83127" lon="2.58968">
        <ele>71.1</ele>
        <time>2022-07-10T11:18:13Z</time>
      </trkpt>
      <trkpt lat="49.83127" lon="2.58967">
        <ele>71.1</ele>
        <time>2022-07-10T11:18:14Z</time>
      </trkpt>
      <trkpt lat="49.83128" lon="2.58965">
        <ele>71.2</ele>
        <time>2022-07-10T11:18:15Z</time>
      </trkpt>
      <trkpt lat="49.83128" lon="2.58963">
        <ele>71.2</ele>
        <time>2022-07-10T11:18:16Z</time>
      </trkpt>
      <trkpt lat="49.83128" lon="2.58961">
        <ele>71.3</ele>
        <time>2022-07-10T11:18:17Z</time>
      </trkpt>
      <trkpt lat="49.83129" lon="2.5896">
        <ele>71.3</ele>
        <time>2022-07-10T11:18:19Z</time>
      </trkpt>
      <trkpt lat="49.83129" lon="2.58958">
        <ele>71.3</ele>
        <time>2022-07-10T11:18:20Z</time>
      </trkpt>
      <trkpt lat="49.83129" lon="2.58957">
        <ele>71.4</ele>
        <time>2022-07-10T11:18:21Z</time>
      </trkpt>
      <trkpt lat="49.8313" lon="2.58954">
        <ele>71.5</ele>
        <time>2022-07-10T11:18:22Z</time>
      </trkpt>
      <trkpt lat="49.8313" lon="2.58953">
        <ele>71.5</ele>
        <time>2022-07-10T11:18:23Z</time>
      </trkpt>
      <trkpt lat="49.8313" lon="2.58951">
        <ele>71.6</ele>
        <time>2022-07-10T11:18:24Z</time>
      </trkpt>
      <trkpt lat="49.8313" lon="2.58949">
        <ele>71.6</ele>
        <time>2022-07-10T11:18:25Z</time>
      </trkpt>
      <trkpt lat="49.8313" lon="2.58947">
        <ele>71.6</ele>
        <time>2022-07-10T11:18:27Z</time>
      </trkpt>
      <trkpt lat="49.83131" lon="2.58945">
        <ele>71.7</ele>
        <time>2022-07-10T11:18:28Z</time>
      </trkpt>
      <trkpt lat="49.83131" lon="2.58943">
        <ele>71.7</ele>
        <time>2022-07-10T11:18:29Z</time>
      </trkpt>
      <trkpt lat="49.83131" lon="2.58941">
        <ele>71.8</ele>
        <time>2022-07-10T11:18:30Z</time>
      </trkpt>
      <trkpt lat="49.83131" lon="2.58939">
        <ele>71.8</ele>
        <time>2022-07-10T11:18:31Z</time>
      </trkpt>
      <trkpt lat="49.83131" lon="2.58936">
        <ele>71.9</ele>
        <time>2022-07-10T11:18:32Z</time>
      </trkpt>
      <trkpt lat="49.83131" lon="2.58935">
        <ele>72</ele>
        <time>2022-07-10T11:18:34Z</time>
      </trkpt>
      <trkpt lat="49.83131" lon="2.58934">
        <ele>72</ele>
        <time>2022-07-10T11:18:35Z</time>
      </trkpt>
      <trkpt lat="49.83132" lon="2.58932">
        <ele>72</ele>
        <time>2022-07-10T11:18:36Z</time>
      </trkpt>
      <trkpt lat="49.83132" lon="2.58929">
        <ele>72.1</ele>
        <time>2022-07-10T11:18:37Z</time>
      </trkpt>
      <trkpt lat="49.83132" lon="2.58928">
        <ele>72.1</ele>
        <time>2022-07-10T11:18:38Z</time>
      </trkpt>
      <trkpt lat="49.83133" lon="2.58926">
        <ele>72.1</ele>
        <time>2022-07-10T11:18:39Z</time>
      </trkpt>
      <trkpt lat="49.83133" lon="2.58924">
        <ele>72.2</ele>
        <time>2022-07-10T11:18:40Z</time>
      </trkpt>
      <trkpt lat="49.83134" lon="2.58922">
        <ele>72.2</ele>
        <time>2022-07-10T11:18:41Z</time>
      </trkpt>
      <trkpt lat="49.83134" lon="2.5892">
        <ele>72.3</ele>
        <time>2022-07-10T11:18:43Z</time>
      </trkpt>
      <trkpt lat="49.83134" lon="2.58918">
        <ele>72.3</ele>
        <time>2022-07-10T11:18:44Z</time>
      </trkpt>
      <trkpt lat="49.83135" lon="2.58917">
        <ele>72.3</ele>
        <time>2022-07-10T11:18:45Z</time>
      </trkpt>
      <trkpt lat="49.83135" lon="2.58915">
        <ele>72.3</ele>
        <time>2022-07-10T11:18:46Z</time>
      </trkpt>
      <trkpt lat="49.83136" lon="2.58912">
        <ele>72.4</ele>
        <time>2022-07-10T11:18:47Z</time>
      </trkpt>
      <trkpt lat="49.83136" lon="2.58911">
        <ele>72.4</ele>
        <time>2022-07-10T11:18:48Z</time>
      </trkpt>
      <trkpt lat="49.83136" lon="2.5891">
        <ele>72.4</ele>
        <time>2022-07-10T11:18:49Z</time>
      </trkpt>
      <trkpt lat="49.83137" lon="2.58907">
        <ele>72.5</ele>
        <time>2022-07-10T11:18:50Z</time>
      </trkpt>
      <trkpt lat="49.83137" lon="2.58905">
        <ele>72.5</ele>
        <time>2022-07-10T11:18:52Z</time>
      </trkpt>
      <trkpt lat="49.83137" lon="2.58904">
        <ele>72.5</ele>
        <time>2022-07-10T11:18:53Z</time>
      </trkpt>
      <trkpt lat="49.83138" lon="2.58903">
        <ele>72.6</ele>
        <time>2022-07-10T11:18:54Z</time>
      </trkpt>
      <trkpt lat="49.83138" lon="2.58901">
        <ele>72.6</ele>
        <time>2022-07-10T11:18:55Z</time>
      </trkpt>
      <trkpt lat="49.83138" lon="2.58899">
        <ele>72.6</ele>
        <time>2022-07-10T11:18:56Z</time>
      </trkpt>
      <trkpt lat="49.83139" lon="2.58897">
        <ele>72.7</ele>
        <time>2022-07-10T11:18:57Z</time>
      </trkpt>
      <trkpt lat="49.83139" lon="2.58895">
        <ele>72.7</ele>
        <time>2022-07-10T11:18:58Z</time>
      </trkpt>
      <trkpt lat="49.8314" lon="2.58894">
        <ele>72.7</ele>
        <time>2022-07-10T11:19:00Z</time>
      </trkpt>
      <trkpt lat="49.8314" lon="2.58892">
        <ele>72.7</ele>
        <time>2022-07-10T11:19:01Z</time>
      </trkpt>
      <trkpt lat="49.8314" lon="2.5889">
        <ele>72.8</ele>
        <time>2022-07-10T11:19:02Z</time>
      </trkpt>
      <trkpt lat="49.83141" lon="2.58888">
        <ele>72.8</ele>
        <time>2022-07-10T11:19:03Z</time>
      </trkpt>
      <trkpt lat="49.83141" lon="2.58886">
        <ele>72.8</ele>
        <time>2022-07-10T11:19:04Z</time>
      </trkpt>
      <trkpt lat="49.83141" lon="2.58883">
        <ele>72.9</ele>
        <time>2022-07-10T11:19:05Z</time>
      </trkpt>
      <trkpt lat="49.83142" lon="2.58881">
        <ele>72.9</ele>
        <time>2022-07-10T11:19:06Z</time>
      </trkpt>
      <trkpt lat="49.83142" lon="2.58879">
        <ele>72.9</ele>
        <time>2022-07-10T11:19:07Z</time>
      </trkpt>
      <trkpt lat="49.83142" lon="2.58878">
        <ele>73</ele>
        <time>2022-07-10T11:19:09Z</time>
      </trkpt>
      <trkpt lat="49.83142" lon="2.58876">
        <ele>73</ele>
        <time>2022-07-10T11:19:10Z</time>
      </trkpt>
      <trkpt lat="49.83143" lon="2.58874">
        <ele>73</ele>
        <time>2022-07-10T11:19:11Z</time>
      </trkpt>
      <trkpt lat="49.83143" lon="2.5887">
        <ele>73.1</ele>
        <time>2022-07-10T11:19:13Z</time>
      </trkpt>
      <trkpt lat="49.83143" lon="2.58869">
        <ele>73.1</ele>
        <time>2022-07-10T11:19:14Z</time>
      </trkpt>
      <trkpt lat="49.83143" lon="2.58868">
        <ele>73.1</ele>
        <time>2022-07-10T11:19:15Z</time>
      </trkpt>
      <trkpt lat="49.83143" lon="2.58867">
        <ele>73.1</ele>
        <time>2022-07-10T11:19:16Z</time>
      </trkpt>
      <trkpt lat="49.83144" lon="2.58865">
        <ele>73.1</ele>
        <time>2022-07-10T11:19:17Z</time>
      </trkpt>
      <trkpt lat="49.83144" lon="2.58864">
        <ele>73.2</ele>
        <time>2022-07-10T11:19:18Z</time>
      </trkpt>
      <trkpt lat="49.83144" lon="2.58863">
        <ele>73.2</ele>
        <time>2022-07-10T11:19:19Z</time>
      </trkpt>
      <trkpt lat="49.83144" lon="2.58861">
        <ele>73.2</ele>
        <time>2022-07-10T11:19:20Z</time>
      </trkpt>
      <trkpt lat="49.83145" lon="2.5886">
        <ele>73.2</ele>
        <time>2022-07-10T11:19:22Z</time>
      </trkpt>
      <trkpt lat="49.83145" lon="2.58858">
        <ele>73.2</ele>
        <time>2022-07-10T11:19:23Z</time>
      </trkpt>
      <trkpt lat="49.83145" lon="2.58856">
        <ele>73.2</ele>
        <time>2022-07-10T11:19:24Z</time>
      </trkpt>
      <trkpt lat="49.83145" lon="2.58855">
        <ele>73.3</ele>
        <time>2022-07-10T11:19:25Z</time>
      </trkpt>
      <trkpt lat="49.83146" lon="2.58853">
        <ele>73.3</ele>
        <time>2022-07-10T11:19:26Z</time>
      </trkpt>
      <trkpt lat="49.83146" lon="2.58851">
        <ele>73.3</ele>
        <time>2022-07-10T11:19:27Z</time>
      </trkpt>
      <trkpt lat="49.83146" lon="2.58847">
        <ele>73.3</ele>
        <time>2022-07-10T11:19:28Z</time>
      </trkpt>
      <trkpt lat="49.83147" lon="2.58845">
        <ele>73.4</ele>
        <time>2022-07-10T11:19:29Z</time>
      </trkpt>
      <trkpt lat="49.83147" lon="2.58843">
        <ele>73.4</ele>
        <time>2022-07-10T11:19:31Z</time>
      </trkpt>
      <trkpt lat="49.83147" lon="2.58841">
        <ele>73.4</ele>
        <time>2022-07-10T11:19:32Z</time>
      </trkpt>
      <trkpt lat="49.83147" lon="2.58839">
        <ele>73.4</ele>
        <time>2022-07-10T11:19:33Z</time>
      </trkpt>
      <trkpt lat="49.83148" lon="2.58837">
        <ele>73.4</ele>
        <time>2022-07-10T11:19:34Z</time>
      </trkpt>
      <trkpt lat="49.83148" lon="2.58835">
        <ele>73.4</ele>
        <time>2022-07-10T11:19:35Z</time>
      </trkpt>
      <trkpt lat="49.83148" lon="2.58834">
        <ele>73.4</ele>
        <time>2022-07-10T11:19:36Z</time>
      </trkpt>
      <trkpt lat="49.83148" lon="2.58833">
        <ele>73.5</ele>
        <time>2022-07-10T11:19:37Z</time>
      </trkpt>
      <trkpt lat="49.83148" lon="2.58831">
        <ele>73.5</ele>
        <time>2022-07-10T11:19:38Z</time>
      </trkpt>
      <trkpt lat="49.83148" lon="2.58827">
        <ele>73.5</ele>
        <time>2022-07-10T11:19:39Z</time>
      </trkpt>
      <trkpt lat="49.83148" lon="2.58825">
        <ele>73.5</ele>
        <time>2022-07-10T11:19:41Z</time>
      </trkpt>
      <trkpt lat="49.83148" lon="2.58823">
        <ele>73.5</ele>
        <time>2022-07-10T11:19:42Z</time>
      </trkpt>
      <trkpt lat="49.83148" lon="2.58821">
        <ele>73.5</ele>
        <time>2022-07-10T11:19:43Z</time>
      </trkpt>
      <trkpt lat="49.83148" lon="2.58818">
        <ele>73.5</ele>
        <time>2022-07-10T11:19:45Z</time>
      </trkpt>
      <trkpt lat="49.83148" lon="2.58817">
        <ele>73.5</ele>
        <time>2022-07-10T11:19:46Z</time>
      </trkpt>
      <trkpt lat="49.83148" lon="2.58813">
        <ele>73.5</ele>
        <time>2022-07-10T11:19:47Z</time>
      </trkpt>
      <trkpt lat="49.83148" lon="2.58811">
        <ele>73.6</ele>
        <time>2022-07-10T11:19:48Z</time>
      </trkpt>
      <trkpt lat="49.83147" lon="2.58807">
        <ele>73.6</ele>
        <time>2022-07-10T11:19:49Z</time>
      </trkpt>
      <trkpt lat="49.83147" lon="2.58806">
        <ele>73.6</ele>
        <time>2022-07-10T11:19:50Z</time>
      </trkpt>
      <trkpt lat="49.83147" lon="2.58804">
        <ele>73.6</ele>
        <time>2022-07-10T11:19:51Z</time>
      </trkpt>
      <trkpt lat="49.83147" lon="2.588">
        <ele>73.6</ele>
        <time>2022-07-10T11:19:52Z</time>
      </trkpt>
      <trkpt lat="49.83147" lon="2.58799">
        <ele>73.6</ele>
        <time>2022-07-10T11:19:54Z</time>
      </trkpt>
      <trkpt lat="49.83146" lon="2.58797">
        <ele>73.6</ele>
        <time>2022-07-10T11:19:55Z</time>
      </trkpt>
      <trkpt lat="49.83146" lon="2.58795">
        <ele>73.6</ele>
        <time>2022-07-10T11:19:56Z</time>
      </trkpt>
      <trkpt lat="49.83146" lon="2.58793">
        <ele>73.6</ele>
        <time>2022-07-10T11:19:57Z</time>
      </trkpt>
      <trkpt lat="49.83146" lon="2.5879">
        <ele>73.7</ele>
        <time>2022-07-10T11:19:58Z</time>
      </trkpt>
      <trkpt lat="49.83146" lon="2.58788">
        <ele>73.7</ele>
        <time>2022-07-10T11:19:59Z</time>
      </trkpt>
      <trkpt lat="49.83146" lon="2.58787">
        <ele>73.7</ele>
        <time>2022-07-10T11:20:00Z</time>
      </trkpt>
      <trkpt lat="49.83146" lon="2.58784">
        <ele>73.7</ele>
        <time>2022-07-10T11:20:02Z</time>
      </trkpt>
      <trkpt lat="49.83146" lon="2.5878">
        <ele>73.7</ele>
        <time>2022-07-10T11:20:04Z</time>
      </trkpt>
      <trkpt lat="49.83147" lon="2.58779">
        <ele>73.7</ele>
        <time>2022-07-10T11:20:05Z</time>
      </trkpt>
      <trkpt lat="49.83147" lon="2.58777">
        <ele>73.7</ele>
        <time>2022-07-10T11:20:06Z</time>
      </trkpt>
      <trkpt lat="49.83147" lon="2.58775">
        <ele>73.7</ele>
        <time>2022-07-10T11:20:07Z</time>
      </trkpt>
      <trkpt lat="49.83147" lon="2.58772">
        <ele>73.7</ele>
        <time>2022-07-10T11:20:08Z</time>
      </trkpt>
      <trkpt lat="49.83147" lon="2.58771">
        <ele>73.7</ele>
        <time>2022-07-10T11:20:09Z</time>
      </trkpt>
      <trkpt lat="49.83146" lon="2.58769">
        <ele>73.7</ele>
        <time>2022-07-10T11:20:10Z</time>
      </trkpt>
      <trkpt lat="49.83146" lon="2.58767">
        <ele>73.7</ele>
        <time>2022-07-10T11:20:11Z</time>
      </trkpt>
      <trkpt lat="49.83146" lon="2.58765">
        <ele>73.7</ele>
        <time>2022-07-10T11:20:12Z</time>
      </trkpt>
      <trkpt lat="49.83146" lon="2.58762">
        <ele>73.8</ele>
        <time>2022-07-10T11:20:14Z</time>
      </trkpt>
      <trkpt lat="49.83146" lon="2.58761">
        <ele>73.8</ele>
        <time>2022-07-10T11:20:15Z</time>
      </trkpt>
      <trkpt lat="49.83146" lon="2.5876">
        <ele>73.8</ele>
        <time>2022-07-10T11:20:16Z</time>
      </trkpt>
      <trkpt lat="49.83145" lon="2.58758">
        <ele>73.8</ele>
        <time>2022-07-10T11:20:17Z</time>
      </trkpt>
      <trkpt lat="49.83145" lon="2.58756">
        <ele>73.8</ele>
        <time>2022-07-10T11:20:18Z</time>
      </trkpt>
      <trkpt lat="49.83145" lon="2.58753">
        <ele>73.8</ele>
        <time>2022-07-10T11:20:19Z</time>
      </trkpt>
      <trkpt lat="49.83145" lon="2.58752">
        <ele>73.8</ele>
        <time>2022-07-10T11:20:20Z</time>
      </trkpt>
      <trkpt lat="49.83144" lon="2.58748">
        <ele>73.8</ele>
        <time>2022-07-10T11:20:21Z</time>
      </trkpt>
      <trkpt lat="49.83144" lon="2.58747">
        <ele>73.8</ele>
        <time>2022-07-10T11:20:22Z</time>
      </trkpt>
      <trkpt lat="49.83144" lon="2.58745">
        <ele>73.8</ele>
        <time>2022-07-10T11:20:23Z</time>
      </trkpt>
      <trkpt lat="49.83144" lon="2.58744">
        <ele>73.8</ele>
        <time>2022-07-10T11:20:25Z</time>
      </trkpt>
      <trkpt lat="49.83143" lon="2.58743">
        <ele>73.8</ele>
        <time>2022-07-10T11:20:26Z</time>
      </trkpt>
      <trkpt lat="49.83143" lon="2.5874">
        <ele>73.8</ele>
        <time>2022-07-10T11:20:27Z</time>
      </trkpt>
      <trkpt lat="49.83142" lon="2.58738">
        <ele>73.8</ele>
        <time>2022-07-10T11:20:28Z</time>
      </trkpt>
      <trkpt lat="49.83142" lon="2.58736">
        <ele>73.8</ele>
        <time>2022-07-10T11:20:30Z</time>
      </trkpt>
      <trkpt lat="49.83142" lon="2.58735">
        <ele>73.9</ele>
        <time>2022-07-10T11:20:31Z</time>
      </trkpt>
      <trkpt lat="49.83141" lon="2.58733">
        <ele>73.9</ele>
        <time>2022-07-10T11:20:32Z</time>
      </trkpt>
      <trkpt lat="49.83141" lon="2.58731">
        <ele>73.9</ele>
        <time>2022-07-10T11:20:33Z</time>
      </trkpt>
      <trkpt lat="49.83141" lon="2.58728">
        <ele>73.9</ele>
        <time>2022-07-10T11:20:34Z</time>
      </trkpt>
      <trkpt lat="49.83141" lon="2.58727">
        <ele>73.9</ele>
        <time>2022-07-10T11:20:35Z</time>
      </trkpt>
      <trkpt lat="49.83141" lon="2.58725">
        <ele>73.9</ele>
        <time>2022-07-10T11:20:36Z</time>
      </trkpt>
      <trkpt lat="49.83141" lon="2.58723">
        <ele>73.9</ele>
        <time>2022-07-10T11:20:37Z</time>
      </trkpt>
      <trkpt lat="49.8314" lon="2.5872">
        <ele>73.9</ele>
        <time>2022-07-10T11:20:39Z</time>
      </trkpt>
      <trkpt lat="49.8314" lon="2.58718">
        <ele>74</ele>
        <time>2022-07-10T11:20:40Z</time>
      </trkpt>
      <trkpt lat="49.8314" lon="2.58717">
        <ele>74</ele>
        <time>2022-07-10T11:20:41Z</time>
      </trkpt>
      <trkpt lat="49.8314" lon="2.58715">
        <ele>74</ele>
        <time>2022-07-10T11:20:42Z</time>
      </trkpt>
      <trkpt lat="49.8314" lon="2.58713">
        <ele>74</ele>
        <time>2022-07-10T11:20:43Z</time>
      </trkpt>
      <trkpt lat="49.8314" lon="2.5871">
        <ele>74</ele>
        <time>2022-07-10T11:20:44Z</time>
      </trkpt>
      <trkpt lat="49.8314" lon="2.58708">
        <ele>74</ele>
        <time>2022-07-10T11:20:45Z</time>
      </trkpt>
      <trkpt lat="49.83139" lon="2.58706">
        <ele>74</ele>
        <time>2022-07-10T11:20:46Z</time>
      </trkpt>
      <trkpt lat="49.83139" lon="2.58704">
        <ele>74.1</ele>
        <time>2022-07-10T11:20:47Z</time>
      </trkpt>
      <trkpt lat="49.83139" lon="2.587">
        <ele>74.1</ele>
        <time>2022-07-10T11:20:48Z</time>
      </trkpt>
      <trkpt lat="49.83139" lon="2.58698">
        <ele>74.1</ele>
        <time>2022-07-10T11:20:50Z</time>
      </trkpt>
      <trkpt lat="49.83139" lon="2.58697">
        <ele>74.1</ele>
        <time>2022-07-10T11:20:51Z</time>
      </trkpt>
      <trkpt lat="49.83138" lon="2.58695">
        <ele>74.1</ele>
        <time>2022-07-10T11:20:52Z</time>
      </trkpt>
      <trkpt lat="49.83138" lon="2.58694">
        <ele>74.2</ele>
        <time>2022-07-10T11:20:53Z</time>
      </trkpt>
      <trkpt lat="49.83138" lon="2.58691">
        <ele>74.2</ele>
        <time>2022-07-10T11:20:54Z</time>
      </trkpt>
      <trkpt lat="49.83138" lon="2.58689">
        <ele>74.2</ele>
        <time>2022-07-10T11:20:55Z</time>
      </trkpt>
      <trkpt lat="49.83137" lon="2.58687">
        <ele>74.2</ele>
        <time>2022-07-10T11:20:56Z</time>
      </trkpt>
      <trkpt lat="49.83137" lon="2.58685">
        <ele>74.2</ele>
        <time>2022-07-10T11:20:57Z</time>
      </trkpt>
      <trkpt lat="49.83137" lon="2.58682">
        <ele>74.3</ele>
        <time>2022-07-10T11:20:59Z</time>
      </trkpt>
      <trkpt lat="49.83137" lon="2.5868">
        <ele>74.3</ele>
        <time>2022-07-10T11:21:00Z</time>
      </trkpt>
      <trkpt lat="49.83136" lon="2.58678">
        <ele>74.3</ele>
        <time>2022-07-10T11:21:01Z</time>
      </trkpt>
      <trkpt lat="49.83136" lon="2.58676">
        <ele>74.3</ele>
        <time>2022-07-10T11:21:02Z</time>
      </trkpt>
      <trkpt lat="49.83136" lon="2.58674">
        <ele>74.3</ele>
        <time>2022-07-10T11:21:03Z</time>
      </trkpt>
      <trkpt lat="49.83135" lon="2.58672">
        <ele>74.4</ele>
        <time>2022-07-10T11:21:04Z</time>
      </trkpt>
      <trkpt lat="49.83135" lon="2.58671">
        <ele>74.4</ele>
        <time>2022-07-10T11:21:05Z</time>
      </trkpt>
      <trkpt lat="49.83135" lon="2.58669">
        <ele>74.4</ele>
        <time>2022-07-10T11:21:06Z</time>
      </trkpt>
      <trkpt lat="49.83135" lon="2.58667">
        <ele>74.4</ele>
        <time>2022-07-10T11:21:07Z</time>
      </trkpt>
      <trkpt lat="49.83135" lon="2.58663">
        <ele>74.5</ele>
        <time>2022-07-10T11:21:09Z</time>
      </trkpt>
      <trkpt lat="49.83135" lon="2.58662">
        <ele>74.5</ele>
        <time>2022-07-10T11:21:10Z</time>
      </trkpt>
      <trkpt lat="49.83135" lon="2.58661">
        <ele>74.5</ele>
        <time>2022-07-10T11:21:11Z</time>
      </trkpt>
      <trkpt lat="49.83135" lon="2.58659">
        <ele>74.5</ele>
        <time>2022-07-10T11:21:12Z</time>
      </trkpt>
      <trkpt lat="49.83134" lon="2.58658">
        <ele>74.5</ele>
        <time>2022-07-10T11:21:13Z</time>
      </trkpt>
      <trkpt lat="49.83134" lon="2.58656">
        <ele>74.6</ele>
        <time>2022-07-10T11:21:14Z</time>
      </trkpt>
      <trkpt lat="49.83134" lon="2.58655">
        <ele>74.6</ele>
        <time>2022-07-10T11:21:15Z</time>
      </trkpt>
      <trkpt lat="49.83134" lon="2.58653">
        <ele>74.6</ele>
        <time>2022-07-10T11:21:17Z</time>
      </trkpt>
      <trkpt lat="49.83134" lon="2.58651">
        <ele>74.6</ele>
        <time>2022-07-10T11:21:18Z</time>
      </trkpt>
      <trkpt lat="49.83133" lon="2.58649">
        <ele>74.6</ele>
        <time>2022-07-10T11:21:19Z</time>
      </trkpt>
      <trkpt lat="49.83133" lon="2.58647">
        <ele>74.7</ele>
        <time>2022-07-10T11:21:20Z</time>
      </trkpt>
      <trkpt lat="49.83133" lon="2.58646">
        <ele>74.7</ele>
        <time>2022-07-10T11:21:21Z</time>
      </trkpt>
      <trkpt lat="49.83133" lon="2.58644">
        <ele>74.7</ele>
        <time>2022-07-10T11:21:22Z</time>
      </trkpt>
      <trkpt lat="49.83133" lon="2.58642">
        <ele>74.7</ele>
        <time>2022-07-10T11:21:23Z</time>
      </trkpt>
      <trkpt lat="49.83132" lon="2.5864">
        <ele>74.7</ele>
        <time>2022-07-10T11:21:24Z</time>
      </trkpt>
      <trkpt lat="49.83132" lon="2.58638">
        <ele>74.8</ele>
        <time>2022-07-10T11:21:26Z</time>
      </trkpt>
      <trkpt lat="49.83132" lon="2.58636">
        <ele>74.8</ele>
        <time>2022-07-10T11:21:27Z</time>
      </trkpt>
      <trkpt lat="49.83132" lon="2.58635">
        <ele>74.8</ele>
        <time>2022-07-10T11:21:28Z</time>
      </trkpt>
      <trkpt lat="49.83132" lon="2.58631">
        <ele>74.9</ele>
        <time>2022-07-10T11:21:29Z</time>
      </trkpt>
      <trkpt lat="49.83131" lon="2.5863">
        <ele>74.9</ele>
        <time>2022-07-10T11:21:31Z</time>
      </trkpt>
      <trkpt lat="49.83131" lon="2.58629">
        <ele>74.9</ele>
        <time>2022-07-10T11:21:32Z</time>
      </trkpt>
      <trkpt lat="49.83131" lon="2.58626">
        <ele>74.9</ele>
        <time>2022-07-10T11:21:34Z</time>
      </trkpt>
      <trkpt lat="49.83131" lon="2.58625">
        <ele>74.9</ele>
        <time>2022-07-10T11:21:36Z</time>
      </trkpt>
      <trkpt lat="49.83131" lon="2.58623">
        <ele>74.9</ele>
        <time>2022-07-10T11:21:37Z</time>
      </trkpt>
      <trkpt lat="49.83131" lon="2.58622">
        <ele>74.9</ele>
        <time>2022-07-10T11:21:38Z</time>
      </trkpt>
      <trkpt lat="49.83131" lon="2.5862">
        <ele>75</ele>
        <time>2022-07-10T11:21:39Z</time>
      </trkpt>
      <trkpt lat="49.83131" lon="2.58619">
        <ele>75</ele>
        <time>2022-07-10T11:21:40Z</time>
      </trkpt>
      <trkpt lat="49.83131" lon="2.58618">
        <ele>75</ele>
        <time>2022-07-10T11:21:41Z</time>
      </trkpt>
      <trkpt lat="49.8313" lon="2.58617">
        <ele>75</ele>
        <time>2022-07-10T11:21:42Z</time>
      </trkpt>
      <trkpt lat="49.8313" lon="2.58614">
        <ele>75</ele>
        <time>2022-07-10T11:21:44Z</time>
      </trkpt>
      <trkpt lat="49.8313" lon="2.58612">
        <ele>75</ele>
        <time>2022-07-10T11:21:45Z</time>
      </trkpt>
      <trkpt lat="49.8313" lon="2.58611">
        <ele>75</ele>
        <time>2022-07-10T11:21:46Z</time>
      </trkpt>
      <trkpt lat="49.83129" lon="2.58609">
        <ele>75.1</ele>
        <time>2022-07-10T11:21:48Z</time>
      </trkpt>
      <trkpt lat="49.83129" lon="2.58607">
        <ele>75.1</ele>
        <time>2022-07-10T11:21:49Z</time>
      </trkpt>
      <trkpt lat="49.83129" lon="2.58607">
        <ele>75.1</ele>
        <time>2022-07-10T11:21:50Z</time>
      </trkpt>
      <trkpt lat="49.83129" lon="2.58606">
        <ele>75.1</ele>
        <time>2022-07-10T11:21:51Z</time>
      </trkpt>
      <trkpt lat="49.83129" lon="2.58605">
        <ele>75.1</ele>
        <time>2022-07-10T11:21:52Z</time>
      </trkpt>
      <trkpt lat="49.83129" lon="2.58603">
        <ele>75.1</ele>
        <time>2022-07-10T11:21:53Z</time>
      </trkpt>
      <trkpt lat="49.83129" lon="2.58601">
        <ele>75.1</ele>
        <time>2022-07-10T11:21:54Z</time>
      </trkpt>
      <trkpt lat="49.83129" lon="2.586">
        <ele>75.1</ele>
        <time>2022-07-10T11:21:55Z</time>
      </trkpt>
      <trkpt lat="49.83129" lon="2.58598">
        <ele>75.1</ele>
        <time>2022-07-10T11:21:56Z</time>
      </trkpt>
      <trkpt lat="49.83129" lon="2.58597">
        <ele>75.1</ele>
        <time>2022-07-10T11:21:58Z</time>
      </trkpt>
      <trkpt lat="49.83128" lon="2.58595">
        <ele>75.2</ele>
        <time>2022-07-10T11:21:59Z</time>
      </trkpt>
      <trkpt lat="49.83128" lon="2.58592">
        <ele>75.2</ele>
        <time>2022-07-10T11:22:00Z</time>
      </trkpt>
      <trkpt lat="49.83128" lon="2.58591">
        <ele>75.2</ele>
        <time>2022-07-10T11:22:01Z</time>
      </trkpt>
      <trkpt lat="49.83128" lon="2.58589">
        <ele>75.2</ele>
        <time>2022-07-10T11:22:02Z</time>
      </trkpt>
      <trkpt lat="49.83128" lon="2.58587">
        <ele>75.2</ele>
        <time>2022-07-10T11:22:03Z</time>
      </trkpt>
      <trkpt lat="49.83128" lon="2.58584">
        <ele>75.2</ele>
        <time>2022-07-10T11:22:04Z</time>
      </trkpt>
      <trkpt lat="49.83128" lon="2.58582">
        <ele>75.2</ele>
        <time>2022-07-10T11:22:05Z</time>
      </trkpt>
      <trkpt lat="49.83128" lon="2.5858">
        <ele>75.2</ele>
        <time>2022-07-10T11:22:06Z</time>
      </trkpt>
      <trkpt lat="49.83128" lon="2.58578">
        <ele>75.3</ele>
        <time>2022-07-10T11:22:08Z</time>
      </trkpt>
      <trkpt lat="49.83128" lon="2.58576">
        <ele>75.3</ele>
        <time>2022-07-10T11:22:09Z</time>
      </trkpt>
      <trkpt lat="49.83128" lon="2.58573">
        <ele>75.3</ele>
        <time>2022-07-10T11:22:10Z</time>
      </trkpt>
      <trkpt lat="49.83128" lon="2.58571">
        <ele>75.3</ele>
        <time>2022-07-10T11:22:11Z</time>
      </trkpt>
      <trkpt lat="49.83128" lon="2.5857">
        <ele>75.3</ele>
        <time>2022-07-10T11:22:12Z</time>
      </trkpt>
      <trkpt lat="49.83128" lon="2.58566">
        <ele>75.3</ele>
        <time>2022-07-10T11:22:13Z</time>
      </trkpt>
      <trkpt lat="49.83128" lon="2.58564">
        <ele>75.3</ele>
        <time>2022-07-10T11:22:14Z</time>
      </trkpt>
      <trkpt lat="49.83127" lon="2.58562">
        <ele>75.3</ele>
        <time>2022-07-10T11:22:15Z</time>
      </trkpt>
      <trkpt lat="49.83127" lon="2.5856">
        <ele>75.2</ele>
        <time>2022-07-10T11:22:17Z</time>
      </trkpt>
      <trkpt lat="49.83127" lon="2.58559">
        <ele>75.2</ele>
        <time>2022-07-10T11:22:18Z</time>
      </trkpt>
      <trkpt lat="49.83127" lon="2.58557">
        <ele>75.2</ele>
        <time>2022-07-10T11:22:19Z</time>
      </trkpt>
      <trkpt lat="49.83127" lon="2.58554">
        <ele>75.2</ele>
        <time>2022-07-10T11:22:20Z</time>
      </trkpt>
      <trkpt lat="49.83126" lon="2.58552">
        <ele>75.2</ele>
        <time>2022-07-10T11:22:21Z</time>
      </trkpt>
      <trkpt lat="49.83126" lon="2.58549">
        <ele>75.2</ele>
        <time>2022-07-10T11:22:22Z</time>
      </trkpt>
      <trkpt lat="49.83126" lon="2.58547">
        <ele>75.2</ele>
        <time>2022-07-10T11:22:23Z</time>
      </trkpt>
      <trkpt lat="49.83125" lon="2.58542">
        <ele>75.2</ele>
        <time>2022-07-10T11:22:25Z</time>
      </trkpt>
      <trkpt lat="49.83124" lon="2.58539">
        <ele>75.1</ele>
        <time>2022-07-10T11:22:27Z</time>
      </trkpt>
      <trkpt lat="49.83124" lon="2.58538">
        <ele>75.1</ele>
        <time>2022-07-10T11:22:28Z</time>
      </trkpt>
      <trkpt lat="49.83124" lon="2.58533">
        <ele>75.1</ele>
        <time>2022-07-10T11:22:29Z</time>
      </trkpt>
      <trkpt lat="49.83124" lon="2.58532">
        <ele>75.1</ele>
        <time>2022-07-10T11:22:30Z</time>
      </trkpt>
      <trkpt lat="49.83124" lon="2.58528">
        <ele>75.1</ele>
        <time>2022-07-10T11:22:32Z</time>
      </trkpt>
      <trkpt lat="49.83123" lon="2.58526">
        <ele>75.1</ele>
        <time>2022-07-10T11:22:33Z</time>
      </trkpt>
      <trkpt lat="49.83123" lon="2.58524">
        <ele>75.1</ele>
        <time>2022-07-10T11:22:34Z</time>
      </trkpt>
      <trkpt lat="49.83123" lon="2.58522">
        <ele>75</ele>
        <time>2022-07-10T11:22:36Z</time>
      </trkpt>
      <trkpt lat="49.83123" lon="2.58521">
        <ele>75</ele>
        <time>2022-07-10T11:22:37Z</time>
      </trkpt>
      <trkpt lat="49.83123" lon="2.5852">
        <ele>75</ele>
        <time>2022-07-10T11:22:38Z</time>
      </trkpt>
      <trkpt lat="49.83123" lon="2.58518">
        <ele>75</ele>
        <time>2022-07-10T11:22:39Z</time>
      </trkpt>
      <trkpt lat="49.83123" lon="2.58516">
        <ele>75</ele>
        <time>2022-07-10T11:22:40Z</time>
      </trkpt>
      <trkpt lat="49.83123" lon="2.58514">
        <ele>75</ele>
        <time>2022-07-10T11:22:41Z</time>
      </trkpt>
      <trkpt lat="49.83123" lon="2.58511">
        <ele>75</ele>
        <time>2022-07-10T11:22:42Z</time>
      </trkpt>
      <trkpt lat="49.83123" lon="2.58509">
        <ele>74.9</ele>
        <time>2022-07-10T11:22:43Z</time>
      </trkpt>
      <trkpt lat="49.83122" lon="2.58505">
        <ele>74.9</ele>
        <time>2022-07-10T11:22:44Z</time>
      </trkpt>
      <trkpt lat="49.83122" lon="2.58504">
        <ele>74.9</ele>
        <time>2022-07-10T11:22:46Z</time>
      </trkpt>
      <trkpt lat="49.83122" lon="2.58502">
        <ele>74.9</ele>
        <time>2022-07-10T11:22:47Z</time>
      </trkpt>
      <trkpt lat="49.83122" lon="2.585">
        <ele>74.9</ele>
        <time>2022-07-10T11:22:48Z</time>
      </trkpt>
      <trkpt lat="49.83122" lon="2.58499">
        <ele>74.8</ele>
        <time>2022-07-10T11:22:49Z</time>
      </trkpt>
      <trkpt lat="49.83122" lon="2.58496">
        <ele>74.8</ele>
        <time>2022-07-10T11:22:50Z</time>
      </trkpt>
      <trkpt lat="49.83122" lon="2.58494">
        <ele>74.8</ele>
        <time>2022-07-10T11:22:51Z</time>
      </trkpt>
      <trkpt lat="49.83122" lon="2.58493">
        <ele>74.8</ele>
        <time>2022-07-10T11:22:52Z</time>
      </trkpt>
      <trkpt lat="49.83123" lon="2.58491">
        <ele>74.7</ele>
        <time>2022-07-10T11:22:53Z</time>
      </trkpt>
      <trkpt lat="49.83123" lon="2.58488">
        <ele>74.7</ele>
        <time>2022-07-10T11:22:54Z</time>
      </trkpt>
      <trkpt lat="49.83123" lon="2.58486">
        <ele>74.7</ele>
        <time>2022-07-10T11:22:56Z</time>
      </trkpt>
      <trkpt lat="49.83122" lon="2.58485">
        <ele>74.7</ele>
        <time>2022-07-10T11:22:57Z</time>
      </trkpt>
      <trkpt lat="49.83122" lon="2.58483">
        <ele>74.7</ele>
        <time>2022-07-10T11:22:58Z</time>
      </trkpt>
      <trkpt lat="49.83122" lon="2.58481">
        <ele>74.6</ele>
        <time>2022-07-10T11:22:59Z</time>
      </trkpt>
      <trkpt lat="49.83122" lon="2.58479">
        <ele>74.6</ele>
        <time>2022-07-10T11:23:00Z</time>
      </trkpt>
      <trkpt lat="49.83121" lon="2.58478">
        <ele>74.6</ele>
        <time>2022-07-10T11:23:01Z</time>
      </trkpt>
      <trkpt lat="49.83121" lon="2.58474">
        <ele>74.6</ele>
        <time>2022-07-10T11:23:02Z</time>
      </trkpt>
      <trkpt lat="49.83121" lon="2.58473">
        <ele>74.5</ele>
        <time>2022-07-10T11:23:03Z</time>
      </trkpt>
      <trkpt lat="49.83121" lon="2.58471">
        <ele>74.5</ele>
        <time>2022-07-10T11:23:04Z</time>
      </trkpt>
      <trkpt lat="49.83121" lon="2.5847">
        <ele>74.5</ele>
        <time>2022-07-10T11:23:05Z</time>
      </trkpt>
      <trkpt lat="49.83121" lon="2.58468">
        <ele>74.5</ele>
        <time>2022-07-10T11:23:06Z</time>
      </trkpt>
      <trkpt lat="49.83121" lon="2.58467">
        <ele>74.5</ele>
        <time>2022-07-10T11:23:08Z</time>
      </trkpt>
      <trkpt lat="49.8312" lon="2.58465">
        <ele>74.4</ele>
        <time>2022-07-10T11:23:09Z</time>
      </trkpt>
      <trkpt lat="49.8312" lon="2.58463">
        <ele>74.4</ele>
        <time>2022-07-10T11:23:10Z</time>
      </trkpt>
      <trkpt lat="49.8312" lon="2.58461">
        <ele>74.4</ele>
        <time>2022-07-10T11:23:11Z</time>
      </trkpt>
      <trkpt lat="49.83119" lon="2.58458">
        <ele>74.4</ele>
        <time>2022-07-10T11:23:12Z</time>
      </trkpt>
      <trkpt lat="49.83119" lon="2.58457">
        <ele>74.3</ele>
        <time>2022-07-10T11:23:14Z</time>
      </trkpt>
      <trkpt lat="49.83119" lon="2.58455">
        <ele>74.3</ele>
        <time>2022-07-10T11:23:15Z</time>
      </trkpt>
      <trkpt lat="49.83119" lon="2.58453">
        <ele>74.3</ele>
        <time>2022-07-10T11:23:16Z</time>
      </trkpt>
      <trkpt lat="49.83119" lon="2.58451">
        <ele>74.3</ele>
        <time>2022-07-10T11:23:17Z</time>
      </trkpt>
      <trkpt lat="49.83119" lon="2.5845">
        <ele>74.3</ele>
        <time>2022-07-10T11:23:18Z</time>
      </trkpt>
      <trkpt lat="49.83118" lon="2.58447">
        <ele>74.2</ele>
        <time>2022-07-10T11:23:19Z</time>
      </trkpt>
      <trkpt lat="49.83118" lon="2.58446">
        <ele>74.2</ele>
        <time>2022-07-10T11:23:20Z</time>
      </trkpt>
      <trkpt lat="49.83118" lon="2.58445">
        <ele>74.2</ele>
        <time>2022-07-10T11:23:21Z</time>
      </trkpt>
      <trkpt lat="49.83118" lon="2.58441">
        <ele>74.2</ele>
        <time>2022-07-10T11:23:22Z</time>
      </trkpt>
      <trkpt lat="49.83118" lon="2.5844">
        <ele>74.1</ele>
        <time>2022-07-10T11:23:24Z</time>
      </trkpt>
      <trkpt lat="49.83118" lon="2.58438">
        <ele>74.1</ele>
        <time>2022-07-10T11:23:25Z</time>
      </trkpt>
      <trkpt lat="49.83117" lon="2.58436">
        <ele>74.1</ele>
        <time>2022-07-10T11:23:26Z</time>
      </trkpt>
      <trkpt lat="49.83117" lon="2.58434">
        <ele>74.1</ele>
        <time>2022-07-10T11:23:27Z</time>
      </trkpt>
      <trkpt lat="49.83117" lon="2.58431">
        <ele>74</ele>
        <time>2022-07-10T11:23:29Z</time>
      </trkpt>
      <trkpt lat="49.83117" lon="2.58429">
        <ele>74</ele>
        <time>2022-07-10T11:23:30Z</time>
      </trkpt>
      <trkpt lat="49.83116" lon="2.58427">
        <ele>74</ele>
        <time>2022-07-10T11:23:31Z</time>
      </trkpt>
      <trkpt lat="49.83116" lon="2.58424">
        <ele>73.9</ele>
        <time>2022-07-10T11:23:32Z</time>
      </trkpt>
      <trkpt lat="49.83116" lon="2.58422">
        <ele>73.9</ele>
        <time>2022-07-10T11:23:33Z</time>
      </trkpt>
      <trkpt lat="49.83115" lon="2.58419">
        <ele>73.9</ele>
        <time>2022-07-10T11:23:34Z</time>
      </trkpt>
      <trkpt lat="49.83115" lon="2.58417">
        <ele>73.8</ele>
        <time>2022-07-10T11:23:35Z</time>
      </trkpt>
      <trkpt lat="49.83115" lon="2.58415">
        <ele>73.8</ele>
        <time>2022-07-10T11:23:36Z</time>
      </trkpt>
      <trkpt lat="49.83114" lon="2.58411">
        <ele>73.7</ele>
        <time>2022-07-10T11:23:38Z</time>
      </trkpt>
      <trkpt lat="49.83114" lon="2.5841">
        <ele>73.7</ele>
        <time>2022-07-10T11:23:39Z</time>
      </trkpt>
      <trkpt lat="49.83114" lon="2.58409">
        <ele>73.7</ele>
        <time>2022-07-10T11:23:40Z</time>
      </trkpt>
      <trkpt lat="49.83114" lon="2.58405">
        <ele>73.7</ele>
        <time>2022-07-10T11:23:41Z</time>
      </trkpt>
      <trkpt lat="49.83114" lon="2.58404">
        <ele>73.6</ele>
        <time>2022-07-10T11:23:42Z</time>
      </trkpt>
      <trkpt lat="49.83113" lon="2.58403">
        <ele>73.6</ele>
        <time>2022-07-10T11:23:43Z</time>
      </trkpt>
      <trkpt lat="49.83113" lon="2.58399">
        <ele>73.6</ele>
        <time>2022-07-10T11:23:45Z</time>
      </trkpt>
      <trkpt lat="49.83113" lon="2.58397">
        <ele>73.6</ele>
        <time>2022-07-10T11:23:46Z</time>
      </trkpt>
      <trkpt lat="49.83112" lon="2.58395">
        <ele>73.5</ele>
        <time>2022-07-10T11:23:47Z</time>
      </trkpt>
      <trkpt lat="49.83112" lon="2.58393">
        <ele>73.5</ele>
        <time>2022-07-10T11:23:48Z</time>
      </trkpt>
      <trkpt lat="49.83112" lon="2.5839">
        <ele>73.5</ele>
        <time>2022-07-10T11:23:49Z</time>
      </trkpt>
      <trkpt lat="49.83112" lon="2.58388">
        <ele>73.4</ele>
        <time>2022-07-10T11:23:50Z</time>
      </trkpt>
      <trkpt lat="49.83111" lon="2.58386">
        <ele>73.4</ele>
        <time>2022-07-10T11:23:51Z</time>
      </trkpt>
      <trkpt lat="49.83111" lon="2.58384">
        <ele>73.4</ele>
        <time>2022-07-10T11:23:53Z</time>
      </trkpt>
      <trkpt lat="49.8311" lon="2.58382">
        <ele>73.4</ele>
        <time>2022-07-10T11:23:54Z</time>
      </trkpt>
      <trkpt lat="49.8311" lon="2.58379">
        <ele>73.3</ele>
        <time>2022-07-10T11:23:55Z</time>
      </trkpt>
      <trkpt lat="49.8311" lon="2.58377">
        <ele>73.3</ele>
        <time>2022-07-10T11:23:56Z</time>
      </trkpt>
      <trkpt lat="49.83109" lon="2.58375">
        <ele>73.3</ele>
        <time>2022-07-10T11:23:58Z</time>
      </trkpt>
      <trkpt lat="49.83109" lon="2.58373">
        <ele>73.3</ele>
        <time>2022-07-10T11:23:59Z</time>
      </trkpt>
      <trkpt lat="49.83109" lon="2.58371">
        <ele>73.2</ele>
        <time>2022-07-10T11:24:00Z</time>
      </trkpt>
      <trkpt lat="49.83108" lon="2.5837">
        <ele>73.2</ele>
        <time>2022-07-10T11:24:01Z</time>
      </trkpt>
      <trkpt lat="49.83108" lon="2.58367">
        <ele>73.2</ele>
        <time>2022-07-10T11:24:02Z</time>
      </trkpt>
      <trkpt lat="49.83107" lon="2.58365">
        <ele>73.2</ele>
        <time>2022-07-10T11:24:04Z</time>
      </trkpt>
      <trkpt lat="49.83107" lon="2.58361">
        <ele>73.1</ele>
        <time>2022-07-10T11:24:05Z</time>
      </trkpt>
      <trkpt lat="49.83107" lon="2.5836">
        <ele>73.1</ele>
        <time>2022-07-10T11:24:06Z</time>
      </trkpt>
      <trkpt lat="49.83107" lon="2.58359">
        <ele>73.1</ele>
        <time>2022-07-10T11:24:07Z</time>
      </trkpt>
      <trkpt lat="49.83106" lon="2.58357">
        <ele>73.1</ele>
        <time>2022-07-10T11:24:09Z</time>
      </trkpt>
      <trkpt lat="49.83106" lon="2.58354">
        <ele>73</ele>
        <time>2022-07-10T11:24:10Z</time>
      </trkpt>
      <trkpt lat="49.83106" lon="2.58352">
        <ele>73</ele>
        <time>2022-07-10T11:24:11Z</time>
      </trkpt>
      <trkpt lat="49.83106" lon="2.5835">
        <ele>73</ele>
        <time>2022-07-10T11:24:12Z</time>
      </trkpt>
      <trkpt lat="49.83105" lon="2.58348">
        <ele>73</ele>
        <time>2022-07-10T11:24:14Z</time>
      </trkpt>
      <trkpt lat="49.83105" lon="2.58346">
        <ele>73</ele>
        <time>2022-07-10T11:24:15Z</time>
      </trkpt>
      <trkpt lat="49.83104" lon="2.58344">
        <ele>72.9</ele>
        <time>2022-07-10T11:24:16Z</time>
      </trkpt>
      <trkpt lat="49.83104" lon="2.58343">
        <ele>72.9</ele>
        <time>2022-07-10T11:24:17Z</time>
      </trkpt>
      <trkpt lat="49.83104" lon="2.58341">
        <ele>72.9</ele>
        <time>2022-07-10T11:24:18Z</time>
      </trkpt>
      <trkpt lat="49.83103" lon="2.5834">
        <ele>72.9</ele>
        <time>2022-07-10T11:24:19Z</time>
      </trkpt>
      <trkpt lat="49.83103" lon="2.58338">
        <ele>72.9</ele>
        <time>2022-07-10T11:24:20Z</time>
      </trkpt>
      <trkpt lat="49.83103" lon="2.58336">
        <ele>72.8</ele>
        <time>2022-07-10T11:24:21Z</time>
      </trkpt>
      <trkpt lat="49.83102" lon="2.58333">
        <ele>72.8</ele>
        <time>2022-07-10T11:24:23Z</time>
      </trkpt>
      <trkpt lat="49.83101" lon="2.58332">
        <ele>72.8</ele>
        <time>2022-07-10T11:24:24Z</time>
      </trkpt>
      <trkpt lat="49.831" lon="2.58329">
        <ele>72.8</ele>
        <time>2022-07-10T11:24:25Z</time>
      </trkpt>
      <trkpt lat="49.831" lon="2.58328">
        <ele>72.7</ele>
        <time>2022-07-10T11:24:26Z</time>
      </trkpt>
      <trkpt lat="49.83099" lon="2.58325">
        <ele>72.7</ele>
        <time>2022-07-10T11:24:28Z</time>
      </trkpt>
      <trkpt lat="49.83098" lon="2.58324">
        <ele>72.7</ele>
        <time>2022-07-10T11:24:29Z</time>
      </trkpt>
      <trkpt lat="49.83097" lon="2.58322">
        <ele>72.7</ele>
        <time>2022-07-10T11:24:30Z</time>
      </trkpt>
      <trkpt lat="49.83096" lon="2.5832">
        <ele>72.6</ele>
        <time>2022-07-10T11:24:31Z</time>
      </trkpt>
      <trkpt lat="49.83095" lon="2.58318">
        <ele>72.6</ele>
        <time>2022-07-10T11:24:32Z</time>
      </trkpt>
      <trkpt lat="49.83095" lon="2.58317">
        <ele>72.6</ele>
        <time>2022-07-10T11:24:33Z</time>
      </trkpt>
      <trkpt lat="49.83094" lon="2.58314">
        <ele>72.5</ele>
        <time>2022-07-10T11:24:35Z</time>
      </trkpt>
      <trkpt lat="49.83093" lon="2.58313">
        <ele>72.5</ele>
        <time>2022-07-10T11:24:36Z</time>
      </trkpt>
      <trkpt lat="49.83092" lon="2.58311">
        <ele>72.5</ele>
        <time>2022-07-10T11:24:37Z</time>
      </trkpt>
      <trkpt lat="49.83091" lon="2.58309">
        <ele>72.5</ele>
        <time>2022-07-10T11:24:38Z</time>
      </trkpt>
      <trkpt lat="49.83091" lon="2.58308">
        <ele>72.4</ele>
        <time>2022-07-10T11:24:40Z</time>
      </trkpt>
      <trkpt lat="49.8309" lon="2.58306">
        <ele>72.4</ele>
        <time>2022-07-10T11:24:41Z</time>
      </trkpt>
      <trkpt lat="49.83089" lon="2.58305">
        <ele>72.4</ele>
        <time>2022-07-10T11:24:42Z</time>
      </trkpt>
      <trkpt lat="49.83089" lon="2.58304">
        <ele>72.4</ele>
        <time>2022-07-10T11:24:43Z</time>
      </trkpt>
      <trkpt lat="49.83087" lon="2.58301">
        <ele>72.3</ele>
        <time>2022-07-10T11:24:44Z</time>
      </trkpt>
      <trkpt lat="49.83086" lon="2.583">
        <ele>72.3</ele>
        <time>2022-07-10T11:24:45Z</time>
      </trkpt>
      <trkpt lat="49.83085" lon="2.58299">
        <ele>72.2</ele>
        <time>2022-07-10T11:24:46Z</time>
      </trkpt>
      <trkpt lat="49.83084" lon="2.58298">
        <ele>72.2</ele>
        <time>2022-07-10T11:24:47Z</time>
      </trkpt>
      <trkpt lat="49.83083" lon="2.58296">
        <ele>72.2</ele>
        <time>2022-07-10T11:24:48Z</time>
      </trkpt>
      <trkpt lat="49.83083" lon="2.58295">
        <ele>72.1</ele>
        <time>2022-07-10T11:24:50Z</time>
      </trkpt>
      <trkpt lat="49.83082" lon="2.58293">
        <ele>72.1</ele>
        <time>2022-07-10T11:24:51Z</time>
      </trkpt>
      <trkpt lat="49.83082" lon="2.58292">
        <ele>72.1</ele>
        <time>2022-07-10T11:24:52Z</time>
      </trkpt>
      <trkpt lat="49.83081" lon="2.5829">
        <ele>72</ele>
        <time>2022-07-10T11:24:53Z</time>
      </trkpt>
      <trkpt lat="49.8308" lon="2.58288">
        <ele>72</ele>
        <time>2022-07-10T11:24:54Z</time>
      </trkpt>
      <trkpt lat="49.83079" lon="2.58287">
        <ele>71.9</ele>
        <time>2022-07-10T11:24:55Z</time>
      </trkpt>
      <trkpt lat="49.83078" lon="2.58285">
        <ele>71.9</ele>
        <time>2022-07-10T11:24:56Z</time>
      </trkpt>
      <trkpt lat="49.83077" lon="2.58284">
        <ele>71.9</ele>
        <time>2022-07-10T11:24:57Z</time>
      </trkpt>
      <trkpt lat="49.83077" lon="2.58283">
        <ele>71.8</ele>
        <time>2022-07-10T11:24:58Z</time>
      </trkpt>
      <trkpt lat="49.83076" lon="2.58282">
        <ele>71.8</ele>
        <time>2022-07-10T11:24:59Z</time>
      </trkpt>
      <trkpt lat="49.83075" lon="2.5828">
        <ele>71.7</ele>
        <time>2022-07-10T11:25:00Z</time>
      </trkpt>
      <trkpt lat="49.83074" lon="2.58279">
        <ele>71.7</ele>
        <time>2022-07-10T11:25:02Z</time>
      </trkpt>
      <trkpt lat="49.83073" lon="2.58278">
        <ele>71.7</ele>
        <time>2022-07-10T11:25:03Z</time>
      </trkpt>
      <trkpt lat="49.83073" lon="2.58277">
        <ele>71.6</ele>
        <time>2022-07-10T11:25:04Z</time>
      </trkpt>
      <trkpt lat="49.83072" lon="2.58276">
        <ele>71.6</ele>
        <time>2022-07-10T11:25:05Z</time>
      </trkpt>
      <trkpt lat="49.83071" lon="2.58274">
        <ele>71.5</ele>
        <time>2022-07-10T11:25:06Z</time>
      </trkpt>
      <trkpt lat="49.8307" lon="2.58272">
        <ele>71.5</ele>
        <time>2022-07-10T11:25:07Z</time>
      </trkpt>
      <trkpt lat="49.83069" lon="2.5827">
        <ele>71.4</ele>
        <time>2022-07-10T11:25:09Z</time>
      </trkpt>
      <trkpt lat="49.83069" lon="2.58269">
        <ele>71.4</ele>
        <time>2022-07-10T11:25:10Z</time>
      </trkpt>
      <trkpt lat="49.83067" lon="2.58266">
        <ele>71.3</ele>
        <time>2022-07-10T11:25:12Z</time>
      </trkpt>
      <trkpt lat="49.83066" lon="2.58264">
        <ele>71.2</ele>
        <time>2022-07-10T11:25:13Z</time>
      </trkpt>
      <trkpt lat="49.83065" lon="2.58262">
        <ele>71.2</ele>
        <time>2022-07-10T11:25:14Z</time>
      </trkpt>
      <trkpt lat="49.83064" lon="2.58261">
        <ele>71.1</ele>
        <time>2022-07-10T11:25:15Z</time>
      </trkpt>
      <trkpt lat="49.83064" lon="2.58261">
        <ele>71.1</ele>
        <time>2022-07-10T11:25:16Z</time>
      </trkpt>
      <trkpt lat="49.83063" lon="2.5826">
        <ele>71.1</ele>
        <time>2022-07-10T11:25:17Z</time>
      </trkpt>
      <trkpt lat="49.83062" lon="2.58258">
        <ele>71</ele>
        <time>2022-07-10T11:25:18Z</time>
      </trkpt>
      <trkpt lat="49.83062" lon="2.58257">
        <ele>71</ele>
        <time>2022-07-10T11:25:20Z</time>
      </trkpt>
      <trkpt lat="49.83061" lon="2.58255">
        <ele>70.9</ele>
        <time>2022-07-10T11:25:21Z</time>
      </trkpt>
      <trkpt lat="49.8306" lon="2.58254">
        <ele>70.9</ele>
        <time>2022-07-10T11:25:22Z</time>
      </trkpt>
      <trkpt lat="49.83059" lon="2.58251">
        <ele>70.8</ele>
        <time>2022-07-10T11:25:23Z</time>
      </trkpt>
      <trkpt lat="49.83058" lon="2.58249">
        <ele>70.8</ele>
        <time>2022-07-10T11:25:24Z</time>
      </trkpt>
      <trkpt lat="49.83058" lon="2.58248">
        <ele>70.7</ele>
        <time>2022-07-10T11:25:25Z</time>
      </trkpt>
      <trkpt lat="49.83057" lon="2.58246">
        <ele>70.7</ele>
        <time>2022-07-10T11:25:26Z</time>
      </trkpt>
      <trkpt lat="49.83057" lon="2.58245">
        <ele>70.7</ele>
        <time>2022-07-10T11:25:28Z</time>
      </trkpt>
      <trkpt lat="49.83056" lon="2.58244">
        <ele>70.6</ele>
        <time>2022-07-10T11:25:29Z</time>
      </trkpt>
      <trkpt lat="49.83056" lon="2.58243">
        <ele>70.6</ele>
        <time>2022-07-10T11:25:30Z</time>
      </trkpt>
      <trkpt lat="49.83055" lon="2.58241">
        <ele>70.5</ele>
        <time>2022-07-10T11:25:32Z</time>
      </trkpt>
      <trkpt lat="49.83055" lon="2.5824">
        <ele>70.5</ele>
        <time>2022-07-10T11:25:33Z</time>
      </trkpt>
      <trkpt lat="49.83055" lon="2.58239">
        <ele>70.5</ele>
        <time>2022-07-10T11:25:34Z</time>
      </trkpt>
      <trkpt lat="49.83054" lon="2.58236">
        <ele>70.4</ele>
        <time>2022-07-10T11:25:35Z</time>
      </trkpt>
      <trkpt lat="49.83054" lon="2.58236">
        <ele>70.4</ele>
        <time>2022-07-10T11:25:36Z</time>
      </trkpt>
      <trkpt lat="49.83054" lon="2.58235">
        <ele>70.4</ele>
        <time>2022-07-10T11:25:37Z</time>
      </trkpt>
      <trkpt lat="49.83053" lon="2.58235">
        <ele>70.4</ele>
        <time>2022-07-10T11:25:38Z</time>
      </trkpt>
      <trkpt lat="49.83052" lon="2.58233">
        <ele>70.3</ele>
        <time>2022-07-10T11:25:40Z</time>
      </trkpt>
      <trkpt lat="49.83052" lon="2.58231">
        <ele>70.3</ele>
        <time>2022-07-10T11:25:41Z</time>
      </trkpt>
      <trkpt lat="49.83052" lon="2.58229">
        <ele>70.2</ele>
        <time>2022-07-10T11:25:43Z</time>
      </trkpt>
      <trkpt lat="49.83051" lon="2.58227">
        <ele>70.2</ele>
        <time>2022-07-10T11:25:44Z</time>
      </trkpt>
      <trkpt lat="49.83051" lon="2.58226">
        <ele>70.2</ele>
        <time>2022-07-10T11:25:45Z</time>
      </trkpt>
      <trkpt lat="49.83051" lon="2.58225">
        <ele>70.2</ele>
        <time>2022-07-10T11:25:46Z</time>
      </trkpt>
      <trkpt lat="49.8305" lon="2.58223">
        <ele>70.1</ele>
        <time>2022-07-10T11:25:47Z</time>
      </trkpt>
      <trkpt lat="49.83049" lon="2.58221">
        <ele>70.1</ele>
        <time>2022-07-10T11:25:48Z</time>
      </trkpt>
      <trkpt lat="49.83049" lon="2.58219">
        <ele>70</ele>
        <time>2022-07-10T11:25:49Z</time>
      </trkpt>
      <trkpt lat="49.83048" lon="2.58217">
        <ele>70</ele>
        <time>2022-07-10T11:25:50Z</time>
      </trkpt>
      <trkpt lat="49.83047" lon="2.58215">
        <ele>69.9</ele>
        <time>2022-07-10T11:25:51Z</time>
      </trkpt>
      <trkpt lat="49.83047" lon="2.58213">
        <ele>69.9</ele>
        <time>2022-07-10T11:25:52Z</time>
      </trkpt>
      <trkpt lat="49.83045" lon="2.58209">
        <ele>69.8</ele>
        <time>2022-07-10T11:25:54Z</time>
      </trkpt>
      <trkpt lat="49.83045" lon="2.58208">
        <ele>69.8</ele>
        <time>2022-07-10T11:25:55Z</time>
      </trkpt>
      <trkpt lat="49.83044" lon="2.58206">
        <ele>69.7</ele>
        <time>2022-07-10T11:25:57Z</time>
      </trkpt>
      <trkpt lat="49.83044" lon="2.58205">
        <ele>69.7</ele>
        <time>2022-07-10T11:25:58Z</time>
      </trkpt>
      <trkpt lat="49.83043" lon="2.58203">
        <ele>69.7</ele>
        <time>2022-07-10T11:25:59Z</time>
      </trkpt>
      <trkpt lat="49.83043" lon="2.58201">
        <ele>69.6</ele>
        <time>2022-07-10T11:26:00Z</time>
      </trkpt>
      <trkpt lat="49.83043" lon="2.58199">
        <ele>69.6</ele>
        <time>2022-07-10T11:26:01Z</time>
      </trkpt>
      <trkpt lat="49.83042" lon="2.58196">
        <ele>69.5</ele>
        <time>2022-07-10T11:26:02Z</time>
      </trkpt>
      <trkpt lat="49.83041" lon="2.58194">
        <ele>69.5</ele>
        <time>2022-07-10T11:26:04Z</time>
      </trkpt>
      <trkpt lat="49.83041" lon="2.58192">
        <ele>69.4</ele>
        <time>2022-07-10T11:26:05Z</time>
      </trkpt>
      <trkpt lat="49.83041" lon="2.5819">
        <ele>69.4</ele>
        <time>2022-07-10T11:26:06Z</time>
      </trkpt>
      <trkpt lat="49.8304" lon="2.58188">
        <ele>69.3</ele>
        <time>2022-07-10T11:26:07Z</time>
      </trkpt>
      <trkpt lat="49.83039" lon="2.58186">
        <ele>69.3</ele>
        <time>2022-07-10T11:26:08Z</time>
      </trkpt>
      <trkpt lat="49.83039" lon="2.58184">
        <ele>69.2</ele>
        <time>2022-07-10T11:26:09Z</time>
      </trkpt>
      <trkpt lat="49.83038" lon="2.58182">
        <ele>69.2</ele>
        <time>2022-07-10T11:26:10Z</time>
      </trkpt>
      <trkpt lat="49.83037" lon="2.58177">
        <ele>69.1</ele>
        <time>2022-07-10T11:26:12Z</time>
      </trkpt>
      <trkpt lat="49.83037" lon="2.58175">
        <ele>69</ele>
        <time>2022-07-10T11:26:13Z</time>
      </trkpt>
      <trkpt lat="49.83035" lon="2.5817">
        <ele>68.9</ele>
        <time>2022-07-10T11:26:15Z</time>
      </trkpt>
      <trkpt lat="49.83035" lon="2.58169">
        <ele>68.9</ele>
        <time>2022-07-10T11:26:16Z</time>
      </trkpt>
      <trkpt lat="49.83035" lon="2.58167">
        <ele>68.8</ele>
        <time>2022-07-10T11:26:17Z</time>
      </trkpt>
      <trkpt lat="49.83034" lon="2.58165">
        <ele>68.8</ele>
        <time>2022-07-10T11:26:18Z</time>
      </trkpt>
      <trkpt lat="49.83034" lon="2.58164">
        <ele>68.8</ele>
        <time>2022-07-10T11:26:19Z</time>
      </trkpt>
      <trkpt lat="49.83034" lon="2.58163">
        <ele>68.7</ele>
        <time>2022-07-10T11:26:20Z</time>
      </trkpt>
      <trkpt lat="49.83034" lon="2.58161">
        <ele>68.7</ele>
        <time>2022-07-10T11:26:21Z</time>
      </trkpt>
      <trkpt lat="49.83033" lon="2.58159">
        <ele>68.6</ele>
        <time>2022-07-10T11:26:22Z</time>
      </trkpt>
      <trkpt lat="49.83033" lon="2.58156">
        <ele>68.6</ele>
        <time>2022-07-10T11:26:24Z</time>
      </trkpt>
      <trkpt lat="49.83032" lon="2.58154">
        <ele>68.5</ele>
        <time>2022-07-10T11:26:25Z</time>
      </trkpt>
      <trkpt lat="49.83032" lon="2.58153">
        <ele>68.5</ele>
        <time>2022-07-10T11:26:26Z</time>
      </trkpt>
      <trkpt lat="49.83032" lon="2.58152">
        <ele>68.5</ele>
        <time>2022-07-10T11:26:27Z</time>
      </trkpt>
      <trkpt lat="49.83031" lon="2.58149">
        <ele>68.4</ele>
        <time>2022-07-10T11:26:29Z</time>
      </trkpt>
      <trkpt lat="49.83031" lon="2.58148">
        <ele>68.4</ele>
        <time>2022-07-10T11:26:30Z</time>
      </trkpt>
      <trkpt lat="49.83031" lon="2.58146">
        <ele>68.3</ele>
        <time>2022-07-10T11:26:31Z</time>
      </trkpt>
      <trkpt lat="49.8303" lon="2.58144">
        <ele>68.3</ele>
        <time>2022-07-10T11:26:32Z</time>
      </trkpt>
      <trkpt lat="49.8303" lon="2.58138">
        <ele>68.1</ele>
        <time>2022-07-10T11:26:34Z</time>
      </trkpt>
      <trkpt lat="49.8303" lon="2.58135">
        <ele>68</ele>
        <time>2022-07-10T11:26:36Z</time>
      </trkpt>
      <trkpt lat="49.8303" lon="2.58134">
        <ele>67.9</ele>
        <time>2022-07-10T11:26:37Z</time>
      </trkpt>
      <trkpt lat="49.8303" lon="2.58133">
        <ele>67.9</ele>
        <time>2022-07-10T11:26:38Z</time>
      </trkpt>
      <trkpt lat="49.83029" lon="2.5813">
        <ele>67.8</ele>
        <time>2022-07-10T11:26:39Z</time>
      </trkpt>
      <trkpt lat="49.83029" lon="2.58128">
        <ele>67.7</ele>
        <time>2022-07-10T11:26:40Z</time>
      </trkpt>
      <trkpt lat="49.83029" lon="2.58126">
        <ele>67.7</ele>
        <time>2022-07-10T11:26:41Z</time>
      </trkpt>
      <trkpt lat="49.83029" lon="2.58124">
        <ele>67.6</ele>
        <time>2022-07-10T11:26:42Z</time>
      </trkpt>
      <trkpt lat="49.83029" lon="2.58123">
        <ele>67.6</ele>
        <time>2022-07-10T11:26:43Z</time>
      </trkpt>
      <trkpt lat="49.83029" lon="2.58121">
        <ele>67.5</ele>
        <time>2022-07-10T11:26:44Z</time>
      </trkpt>
      <trkpt lat="49.83029" lon="2.58119">
        <ele>67.4</ele>
        <time>2022-07-10T11:26:45Z</time>
      </trkpt>
      <trkpt lat="49.83028" lon="2.58117">
        <ele>67.3</ele>
        <time>2022-07-10T11:26:47Z</time>
      </trkpt>
      <trkpt lat="49.83028" lon="2.58115">
        <ele>67.3</ele>
        <time>2022-07-10T11:26:48Z</time>
      </trkpt>
      <trkpt lat="49.83027" lon="2.58113">
        <ele>67.2</ele>
        <time>2022-07-10T11:26:49Z</time>
      </trkpt>
      <trkpt lat="49.83026" lon="2.5811">
        <ele>67</ele>
        <time>2022-07-10T11:26:50Z</time>
      </trkpt>
      <trkpt lat="49.83026" lon="2.58109">
        <ele>67</ele>
        <time>2022-07-10T11:26:51Z</time>
      </trkpt>
      <trkpt lat="49.83026" lon="2.58108">
        <ele>66.9</ele>
        <time>2022-07-10T11:26:52Z</time>
      </trkpt>
      <trkpt lat="49.83025" lon="2.58105">
        <ele>66.8</ele>
        <time>2022-07-10T11:26:53Z</time>
      </trkpt>
      <trkpt lat="49.83025" lon="2.58104">
        <ele>66.7</ele>
        <time>2022-07-10T11:26:54Z</time>
      </trkpt>
      <trkpt lat="49.83025" lon="2.58102">
        <ele>66.7</ele>
        <time>2022-07-10T11:26:55Z</time>
      </trkpt>
      <trkpt lat="49.83024" lon="2.58099">
        <ele>66.5</ele>
        <time>2022-07-10T11:26:56Z</time>
      </trkpt>
      <trkpt lat="49.83024" lon="2.58096">
        <ele>66.4</ele>
        <time>2022-07-10T11:26:58Z</time>
      </trkpt>
      <trkpt lat="49.83024" lon="2.58094">
        <ele>66.3</ele>
        <time>2022-07-10T11:27:00Z</time>
      </trkpt>
      <trkpt lat="49.83023" lon="2.58092">
        <ele>66.2</ele>
        <time>2022-07-10T11:27:02Z</time>
      </trkpt>
      <trkpt lat="49.83023" lon="2.5809">
        <ele>66.1</ele>
        <time>2022-07-10T11:27:03Z</time>
      </trkpt>
      <trkpt lat="49.83023" lon="2.58087">
        <ele>66</ele>
        <time>2022-07-10T11:27:04Z</time>
      </trkpt>
      <trkpt lat="49.83023" lon="2.58084">
        <ele>65.8</ele>
        <time>2022-07-10T11:27:05Z</time>
      </trkpt>
      <trkpt lat="49.83023" lon="2.58082">
        <ele>65.7</ele>
        <time>2022-07-10T11:27:07Z</time>
      </trkpt>
      <trkpt lat="49.83022" lon="2.58079">
        <ele>65.6</ele>
        <time>2022-07-10T11:27:08Z</time>
      </trkpt>
      <trkpt lat="49.83022" lon="2.58077">
        <ele>65.4</ele>
        <time>2022-07-10T11:27:09Z</time>
      </trkpt>
      <trkpt lat="49.83022" lon="2.58072">
        <ele>65.2</ele>
        <time>2022-07-10T11:27:11Z</time>
      </trkpt>
      <trkpt lat="49.83021" lon="2.58071">
        <ele>65.1</ele>
        <time>2022-07-10T11:27:12Z</time>
      </trkpt>
      <trkpt lat="49.83021" lon="2.5807">
        <ele>65</ele>
        <time>2022-07-10T11:27:13Z</time>
      </trkpt>
      <trkpt lat="49.83021" lon="2.58067">
        <ele>64.9</ele>
        <time>2022-07-10T11:27:14Z</time>
      </trkpt>
      <trkpt lat="49.83021" lon="2.58066">
        <ele>64.8</ele>
        <time>2022-07-10T11:27:17Z</time>
      </trkpt>
      <trkpt lat="49.83021" lon="2.58064">
        <ele>64.7</ele>
        <time>2022-07-10T11:27:18Z</time>
      </trkpt>
      <trkpt lat="49.8302" lon="2.58062">
        <ele>64.6</ele>
        <time>2022-07-10T11:27:19Z</time>
      </trkpt>
      <trkpt lat="49.8302" lon="2.58061">
        <ele>64.5</ele>
        <time>2022-07-10T11:27:20Z</time>
      </trkpt>
      <trkpt lat="49.83019" lon="2.58058">
        <ele>64.3</ele>
        <time>2022-07-10T11:27:21Z</time>
      </trkpt>
      <trkpt lat="49.83019" lon="2.58057">
        <ele>64.2</ele>
        <time>2022-07-10T11:27:22Z</time>
      </trkpt>
      <trkpt lat="49.83018" lon="2.58056">
        <ele>64.2</ele>
        <time>2022-07-10T11:27:23Z</time>
      </trkpt>
      <trkpt lat="49.83018" lon="2.58053">
        <ele>64</ele>
        <time>2022-07-10T11:27:25Z</time>
      </trkpt>
      <trkpt lat="49.83017" lon="2.58051">
        <ele>63.9</ele>
        <time>2022-07-10T11:27:26Z</time>
      </trkpt>
      <trkpt lat="49.83017" lon="2.58049">
        <ele>63.8</ele>
        <time>2022-07-10T11:27:27Z</time>
      </trkpt>
      <trkpt lat="49.83016" lon="2.58047">
        <ele>63.6</ele>
        <time>2022-07-10T11:27:28Z</time>
      </trkpt>
      <trkpt lat="49.83016" lon="2.58046">
        <ele>63.6</ele>
        <time>2022-07-10T11:27:29Z</time>
      </trkpt>
      <trkpt lat="49.83016" lon="2.58044">
        <ele>63.5</ele>
        <time>2022-07-10T11:27:30Z</time>
      </trkpt>
      <trkpt lat="49.83015" lon="2.58043">
        <ele>63.3</ele>
        <time>2022-07-10T11:27:31Z</time>
      </trkpt>
      <trkpt lat="49.83015" lon="2.58041">
        <ele>63.2</ele>
        <time>2022-07-10T11:27:32Z</time>
      </trkpt>
      <trkpt lat="49.83015" lon="2.58039">
        <ele>63.1</ele>
        <time>2022-07-10T11:27:34Z</time>
      </trkpt>
      <trkpt lat="49.83015" lon="2.58038">
        <ele>63.1</ele>
        <time>2022-07-10T11:27:35Z</time>
      </trkpt>
      <trkpt lat="49.83014" lon="2.58036">
        <ele>63</ele>
        <time>2022-07-10T11:27:36Z</time>
      </trkpt>
      <trkpt lat="49.83014" lon="2.58034">
        <ele>62.8</ele>
        <time>2022-07-10T11:27:37Z</time>
      </trkpt>
      <trkpt lat="49.83014" lon="2.58032">
        <ele>62.7</ele>
        <time>2022-07-10T11:27:38Z</time>
      </trkpt>
      <trkpt lat="49.83013" lon="2.58031">
        <ele>62.6</ele>
        <time>2022-07-10T11:27:39Z</time>
      </trkpt>
      <trkpt lat="49.83013" lon="2.58029">
        <ele>62.5</ele>
        <time>2022-07-10T11:27:40Z</time>
      </trkpt>
      <trkpt lat="49.83012" lon="2.58026">
        <ele>62.3</ele>
        <time>2022-07-10T11:27:41Z</time>
      </trkpt>
      <trkpt lat="49.83011" lon="2.58025">
        <ele>62.2</ele>
        <time>2022-07-10T11:27:42Z</time>
      </trkpt>
      <trkpt lat="49.83011" lon="2.58024">
        <ele>62.2</ele>
        <time>2022-07-10T11:27:44Z</time>
      </trkpt>
      <trkpt lat="49.8301" lon="2.58022">
        <ele>62.1</ele>
        <time>2022-07-10T11:27:45Z</time>
      </trkpt>
      <trkpt lat="49.8301" lon="2.58021">
        <ele>62</ele>
        <time>2022-07-10T11:27:46Z</time>
      </trkpt>
      <trkpt lat="49.83009" lon="2.5802">
        <ele>61.9</ele>
        <time>2022-07-10T11:27:47Z</time>
      </trkpt>
      <trkpt lat="49.83009" lon="2.58019">
        <ele>61.8</ele>
        <time>2022-07-10T11:27:48Z</time>
      </trkpt>
      <trkpt lat="49.83008" lon="2.58017">
        <ele>61.7</ele>
        <time>2022-07-10T11:27:49Z</time>
      </trkpt>
      <trkpt lat="49.83008" lon="2.58015">
        <ele>61.6</ele>
        <time>2022-07-10T11:27:50Z</time>
      </trkpt>
      <trkpt lat="49.83007" lon="2.58014">
        <ele>61.5</ele>
        <time>2022-07-10T11:27:51Z</time>
      </trkpt>
      <trkpt lat="49.83006" lon="2.58012">
        <ele>61.4</ele>
        <time>2022-07-10T11:27:53Z</time>
      </trkpt>
      <trkpt lat="49.83005" lon="2.58011">
        <ele>61.3</ele>
        <time>2022-07-10T11:27:54Z</time>
      </trkpt>
      <trkpt lat="49.83005" lon="2.58009">
        <ele>61.2</ele>
        <time>2022-07-10T11:27:55Z</time>
      </trkpt>
      <trkpt lat="49.83004" lon="2.58008">
        <ele>61.1</ele>
        <time>2022-07-10T11:27:56Z</time>
      </trkpt>
      <trkpt lat="49.83003" lon="2.58005">
        <ele>60.9</ele>
        <time>2022-07-10T11:27:58Z</time>
      </trkpt>
      <trkpt lat="49.83002" lon="2.58003">
        <ele>60.8</ele>
        <time>2022-07-10T11:27:59Z</time>
      </trkpt>
      <trkpt lat="49.83001" lon="2.58001">
        <ele>60.7</ele>
        <time>2022-07-10T11:28:00Z</time>
      </trkpt>
      <trkpt lat="49.83001" lon="2.57999">
        <ele>60.6</ele>
        <time>2022-07-10T11:28:02Z</time>
      </trkpt>
      <trkpt lat="49.83" lon="2.57997">
        <ele>60.4</ele>
        <time>2022-07-10T11:28:03Z</time>
      </trkpt>
      <trkpt lat="49.83" lon="2.57996">
        <ele>60.4</ele>
        <time>2022-07-10T11:28:05Z</time>
      </trkpt>
      <trkpt lat="49.82999" lon="2.57995">
        <ele>60.3</ele>
        <time>2022-07-10T11:28:06Z</time>
      </trkpt>
      <trkpt lat="49.82999" lon="2.57996">
        <ele>60.2</ele>
        <time>2022-07-10T11:28:07Z</time>
      </trkpt>
      <trkpt lat="49.82999" lon="2.57995">
        <ele>60.2</ele>
        <time>2022-07-10T11:28:08Z</time>
      </trkpt>
      <trkpt lat="49.82998" lon="2.57993">
        <ele>60.1</ele>
        <time>2022-07-10T11:28:09Z</time>
      </trkpt>
      <trkpt lat="49.82998" lon="2.57992">
        <ele>60</ele>
        <time>2022-07-10T11:28:11Z</time>
      </trkpt>
      <trkpt lat="49.82997" lon="2.5799">
        <ele>59.9</ele>
        <time>2022-07-10T11:28:12Z</time>
      </trkpt>
      <trkpt lat="49.82997" lon="2.57989">
        <ele>59.9</ele>
        <time>2022-07-10T11:28:13Z</time>
      </trkpt>
      <trkpt lat="49.82996" lon="2.57987">
        <ele>59.7</ele>
        <time>2022-07-10T11:28:14Z</time>
      </trkpt>
      <trkpt lat="49.82996" lon="2.57986">
        <ele>59.7</ele>
        <time>2022-07-10T11:28:16Z</time>
      </trkpt>
      <trkpt lat="49.82996" lon="2.57984">
        <ele>59.6</ele>
        <time>2022-07-10T11:28:17Z</time>
      </trkpt>
      <trkpt lat="49.82995" lon="2.57983">
        <ele>59.6</ele>
        <time>2022-07-10T11:28:18Z</time>
      </trkpt>
      <trkpt lat="49.82995" lon="2.57982">
        <ele>59.5</ele>
        <time>2022-07-10T11:28:19Z</time>
      </trkpt>
      <trkpt lat="49.82994" lon="2.5798">
        <ele>59.4</ele>
        <time>2022-07-10T11:28:20Z</time>
      </trkpt>
      <trkpt lat="49.82993" lon="2.57979">
        <ele>59.3</ele>
        <time>2022-07-10T11:28:21Z</time>
      </trkpt>
      <trkpt lat="49.82993" lon="2.57978">
        <ele>59.3</ele>
        <time>2022-07-10T11:28:22Z</time>
      </trkpt>
      <trkpt lat="49.82992" lon="2.57976">
        <ele>59.2</ele>
        <time>2022-07-10T11:28:23Z</time>
      </trkpt>
      <trkpt lat="49.82992" lon="2.57975">
        <ele>59.1</ele>
        <time>2022-07-10T11:28:24Z</time>
      </trkpt>
      <trkpt lat="49.82991" lon="2.57973">
        <ele>59</ele>
        <time>2022-07-10T11:28:26Z</time>
      </trkpt>
      <trkpt lat="49.82991" lon="2.57972">
        <ele>59</ele>
        <time>2022-07-10T11:28:27Z</time>
      </trkpt>
      <trkpt lat="49.8299" lon="2.5797">
        <ele>58.9</ele>
        <time>2022-07-10T11:28:28Z</time>
      </trkpt>
      <trkpt lat="49.8299" lon="2.57969">
        <ele>58.9</ele>
        <time>2022-07-10T11:28:29Z</time>
      </trkpt>
      <trkpt lat="49.8299" lon="2.57968">
        <ele>58.8</ele>
        <time>2022-07-10T11:28:30Z</time>
      </trkpt>
      <trkpt lat="49.8299" lon="2.57967">
        <ele>58.8</ele>
        <time>2022-07-10T11:28:31Z</time>
      </trkpt>
      <trkpt lat="49.82989" lon="2.57965">
        <ele>58.7</ele>
        <time>2022-07-10T11:28:32Z</time>
      </trkpt>
      <trkpt lat="49.82989" lon="2.57963">
        <ele>58.6</ele>
        <time>2022-07-10T11:28:33Z</time>
      </trkpt>
      <trkpt lat="49.82988" lon="2.57962">
        <ele>58.5</ele>
        <time>2022-07-10T11:28:34Z</time>
      </trkpt>
      <trkpt lat="49.82988" lon="2.57959">
        <ele>58.4</ele>
        <time>2022-07-10T11:28:35Z</time>
      </trkpt>
      <trkpt lat="49.82988" lon="2.57957">
        <ele>58.3</ele>
        <time>2022-07-10T11:28:36Z</time>
      </trkpt>
      <trkpt lat="49.82988" lon="2.57956">
        <ele>58.3</ele>
        <time>2022-07-10T11:28:38Z</time>
      </trkpt>
      <trkpt lat="49.82987" lon="2.57955">
        <ele>58.2</ele>
        <time>2022-07-10T11:28:39Z</time>
      </trkpt>
      <trkpt lat="49.82987" lon="2.57953">
        <ele>58.2</ele>
        <time>2022-07-10T11:28:40Z</time>
      </trkpt>
      <trkpt lat="49.82987" lon="2.57952">
        <ele>58.1</ele>
        <time>2022-07-10T11:28:41Z</time>
      </trkpt>
      <trkpt lat="49.82987" lon="2.5795">
        <ele>58</ele>
        <time>2022-07-10T11:28:42Z</time>
      </trkpt>
      <trkpt lat="49.82987" lon="2.57947">
        <ele>57.9</ele>
        <time>2022-07-10T11:28:43Z</time>
      </trkpt>
      <trkpt lat="49.82986" lon="2.57945">
        <ele>57.8</ele>
        <time>2022-07-10T11:28:45Z</time>
      </trkpt>
      <trkpt lat="49.82986" lon="2.57944">
        <ele>57.7</ele>
        <time>2022-07-10T11:28:46Z</time>
      </trkpt>
      <trkpt lat="49.82986" lon="2.57941">
        <ele>57.6</ele>
        <time>2022-07-10T11:28:47Z</time>
      </trkpt>
      <trkpt lat="49.82986" lon="2.57939">
        <ele>57.5</ele>
        <time>2022-07-10T11:28:48Z</time>
      </trkpt>
      <trkpt lat="49.82986" lon="2.57936">
        <ele>57.3</ele>
        <time>2022-07-10T11:28:49Z</time>
      </trkpt>
      <trkpt lat="49.82986" lon="2.57935">
        <ele>57.3</ele>
        <time>2022-07-10T11:28:50Z</time>
      </trkpt>
      <trkpt lat="49.82987" lon="2.57933">
        <ele>57.2</ele>
        <time>2022-07-10T11:28:51Z</time>
      </trkpt>
      <trkpt lat="49.82987" lon="2.57931">
        <ele>57.1</ele>
        <time>2022-07-10T11:28:52Z</time>
      </trkpt>
      <trkpt lat="49.82987" lon="2.57928">
        <ele>57</ele>
        <time>2022-07-10T11:28:53Z</time>
      </trkpt>
      <trkpt lat="49.82987" lon="2.57926">
        <ele>56.9</ele>
        <time>2022-07-10T11:28:54Z</time>
      </trkpt>
      <trkpt lat="49.82988" lon="2.57924">
        <ele>56.8</ele>
        <time>2022-07-10T11:28:55Z</time>
      </trkpt>
      <trkpt lat="49.82988" lon="2.57922">
        <ele>56.7</ele>
        <time>2022-07-10T11:28:57Z</time>
      </trkpt>
      <trkpt lat="49.82989" lon="2.57919">
        <ele>56.5</ele>
        <time>2022-07-10T11:28:58Z</time>
      </trkpt>
      <trkpt lat="49.82989" lon="2.57918">
        <ele>56.4</ele>
        <time>2022-07-10T11:28:59Z</time>
      </trkpt>
      <trkpt lat="49.8299" lon="2.57917">
        <ele>56.4</ele>
        <time>2022-07-10T11:29:00Z</time>
      </trkpt>
      <trkpt lat="49.8299" lon="2.57915">
        <ele>56.3</ele>
        <time>2022-07-10T11:29:01Z</time>
      </trkpt>
      <trkpt lat="49.8299" lon="2.57913">
        <ele>56.2</ele>
        <time>2022-07-10T11:29:02Z</time>
      </trkpt>
      <trkpt lat="49.82991" lon="2.57911">
        <ele>56.1</ele>
        <time>2022-07-10T11:29:03Z</time>
      </trkpt>
      <trkpt lat="49.82991" lon="2.57909">
        <ele>56</ele>
        <time>2022-07-10T11:29:04Z</time>
      </trkpt>
      <trkpt lat="49.82992" lon="2.57907">
        <ele>55.8</ele>
        <time>2022-07-10T11:29:05Z</time>
      </trkpt>
      <trkpt lat="49.82993" lon="2.57905">
        <ele>55.8</ele>
        <time>2022-07-10T11:29:07Z</time>
      </trkpt>
      <trkpt lat="49.82993" lon="2.57904">
        <ele>55.7</ele>
        <time>2022-07-10T11:29:08Z</time>
      </trkpt>
      <trkpt lat="49.82994" lon="2.57903">
        <ele>55.6</ele>
        <time>2022-07-10T11:29:09Z</time>
      </trkpt>
      <trkpt lat="49.82995" lon="2.57903">
        <ele>55.5</ele>
        <time>2022-07-10T11:29:10Z</time>
      </trkpt>
      <trkpt lat="49.82997" lon="2.579">
        <ele>55.4</ele>
        <time>2022-07-10T11:29:11Z</time>
      </trkpt>
      <trkpt lat="49.82997" lon="2.57899">
        <ele>55.3</ele>
        <time>2022-07-10T11:29:12Z</time>
      </trkpt>
      <trkpt lat="49.82998" lon="2.57898">
        <ele>55.3</ele>
        <time>2022-07-10T11:29:13Z</time>
      </trkpt>
      <trkpt lat="49.82999" lon="2.57897">
        <ele>55.2</ele>
        <time>2022-07-10T11:29:14Z</time>
      </trkpt>
      <trkpt lat="49.83" lon="2.57895">
        <ele>55.1</ele>
        <time>2022-07-10T11:29:15Z</time>
      </trkpt>
      <trkpt lat="49.83001" lon="2.57894">
        <ele>55</ele>
        <time>2022-07-10T11:29:16Z</time>
      </trkpt>
      <trkpt lat="49.83003" lon="2.57892">
        <ele>54.9</ele>
        <time>2022-07-10T11:29:18Z</time>
      </trkpt>
      <trkpt lat="49.83004" lon="2.57891">
        <ele>54.8</ele>
        <time>2022-07-10T11:29:19Z</time>
      </trkpt>
      <trkpt lat="49.83005" lon="2.5789">
        <ele>54.7</ele>
        <time>2022-07-10T11:29:20Z</time>
      </trkpt>
      <trkpt lat="49.83006" lon="2.57889">
        <ele>54.7</ele>
        <time>2022-07-10T11:29:21Z</time>
      </trkpt>
      <trkpt lat="49.83008" lon="2.57888">
        <ele>54.6</ele>
        <time>2022-07-10T11:29:22Z</time>
      </trkpt>
      <trkpt lat="49.83009" lon="2.57887">
        <ele>54.5</ele>
        <time>2022-07-10T11:29:23Z</time>
      </trkpt>
      <trkpt lat="49.8301" lon="2.57886">
        <ele>54.5</ele>
        <time>2022-07-10T11:29:24Z</time>
      </trkpt>
      <trkpt lat="49.83011" lon="2.57885">
        <ele>54.4</ele>
        <time>2022-07-10T11:29:25Z</time>
      </trkpt>
      <trkpt lat="49.83012" lon="2.57885">
        <ele>54.4</ele>
        <time>2022-07-10T11:29:26Z</time>
      </trkpt>
      <trkpt lat="49.83013" lon="2.57885">
        <ele>54.3</ele>
        <time>2022-07-10T11:29:28Z</time>
      </trkpt>
      <trkpt lat="49.83014" lon="2.57885">
        <ele>54.3</ele>
        <time>2022-07-10T11:29:29Z</time>
      </trkpt>
      <trkpt lat="49.83014" lon="2.57885">
        <ele>54.3</ele>
        <time>2022-07-10T11:29:30Z</time>
      </trkpt>
      <trkpt lat="49.83016" lon="2.57884">
        <ele>54.2</ele>
        <time>2022-07-10T11:29:32Z</time>
      </trkpt>
      <trkpt lat="49.83016" lon="2.57883">
        <ele>54.2</ele>
        <time>2022-07-10T11:29:33Z</time>
      </trkpt>
      <trkpt lat="49.83017" lon="2.57883">
        <ele>54.1</ele>
        <time>2022-07-10T11:29:34Z</time>
      </trkpt>
      <trkpt lat="49.83018" lon="2.57882">
        <ele>54.1</ele>
        <time>2022-07-10T11:29:35Z</time>
      </trkpt>
      <trkpt lat="49.83018" lon="2.57882">
        <ele>54.1</ele>
        <time>2022-07-10T11:29:37Z</time>
      </trkpt>
      <trkpt lat="49.83018" lon="2.57882">
        <ele>54.1</ele>
        <time>2022-07-10T11:29:38Z</time>
      </trkpt>
      <trkpt lat="49.83019" lon="2.57882">
        <ele>54.1</ele>
        <time>2022-07-10T11:29:39Z</time>
      </trkpt>
      <trkpt lat="49.83019" lon="2.57883">
        <ele>54.1</ele>
        <time>2022-07-10T11:29:40Z</time>
      </trkpt>
      <trkpt lat="49.83019" lon="2.57883">
        <ele>54</ele>
        <time>2022-07-10T11:29:41Z</time>
      </trkpt>
      <trkpt lat="49.8302" lon="2.57883">
        <ele>54</ele>
        <time>2022-07-10T11:29:42Z</time>
      </trkpt>
      <trkpt lat="49.83021" lon="2.57882">
        <ele>54</ele>
        <time>2022-07-10T11:29:43Z</time>
      </trkpt>
      <trkpt lat="49.83022" lon="2.57882">
        <ele>53.9</ele>
        <time>2022-07-10T11:29:44Z</time>
      </trkpt>
      <trkpt lat="49.83023" lon="2.57881">
        <ele>53.9</ele>
        <time>2022-07-10T11:29:46Z</time>
      </trkpt>
      <trkpt lat="49.83024" lon="2.57881">
        <ele>53.9</ele>
        <time>2022-07-10T11:29:47Z</time>
      </trkpt>
      <trkpt lat="49.83025" lon="2.57879">
        <ele>53.8</ele>
        <time>2022-07-10T11:29:48Z</time>
      </trkpt>
      <trkpt lat="49.83025" lon="2.57878">
        <ele>53.8</ele>
        <time>2022-07-10T11:29:49Z</time>
      </trkpt>
      <trkpt lat="49.83026" lon="2.57878">
        <ele>53.8</ele>
        <time>2022-07-10T11:29:50Z</time>
      </trkpt>
      <trkpt lat="49.83026" lon="2.57877">
        <ele>53.7</ele>
        <time>2022-07-10T11:29:51Z</time>
      </trkpt>
      <trkpt lat="49.83027" lon="2.57875">
        <ele>53.7</ele>
        <time>2022-07-10T11:29:52Z</time>
      </trkpt>
      <trkpt lat="49.83028" lon="2.57873">
        <ele>53.6</ele>
        <time>2022-07-10T11:29:53Z</time>
      </trkpt>
      <trkpt lat="49.83029" lon="2.57872">
        <ele>53.6</ele>
        <time>2022-07-10T11:29:55Z</time>
      </trkpt>
      <trkpt lat="49.8303" lon="2.5787">
        <ele>53.6</ele>
        <time>2022-07-10T11:29:56Z</time>
      </trkpt>
      <trkpt lat="49.83031" lon="2.57868">
        <ele>53.5</ele>
        <time>2022-07-10T11:29:57Z</time>
      </trkpt>
      <trkpt lat="49.83032" lon="2.57865">
        <ele>53.5</ele>
        <time>2022-07-10T11:29:58Z</time>
      </trkpt>
      <trkpt lat="49.83033" lon="2.57863">
        <ele>53.4</ele>
        <time>2022-07-10T11:30:00Z</time>
      </trkpt>
      <trkpt lat="49.83033" lon="2.57861">
        <ele>53.4</ele>
        <time>2022-07-10T11:30:01Z</time>
      </trkpt>
      <trkpt lat="49.83033" lon="2.57858">
        <ele>53.4</ele>
        <time>2022-07-10T11:30:02Z</time>
      </trkpt>
      <trkpt lat="49.83034" lon="2.57856">
        <ele>53.3</ele>
        <time>2022-07-10T11:30:03Z</time>
      </trkpt>
      <trkpt lat="49.83034" lon="2.57853">
        <ele>53.3</ele>
        <time>2022-07-10T11:30:04Z</time>
      </trkpt>
      <trkpt lat="49.83035" lon="2.5785">
        <ele>53.3</ele>
        <time>2022-07-10T11:30:05Z</time>
      </trkpt>
      <trkpt lat="49.83035" lon="2.57847">
        <ele>53.3</ele>
        <time>2022-07-10T11:30:07Z</time>
      </trkpt>
      <trkpt lat="49.83035" lon="2.57845">
        <ele>53.2</ele>
        <time>2022-07-10T11:30:08Z</time>
      </trkpt>
      <trkpt lat="49.83036" lon="2.57842">
        <ele>53.2</ele>
        <time>2022-07-10T11:30:09Z</time>
      </trkpt>
      <trkpt lat="49.83037" lon="2.57838">
        <ele>53.2</ele>
        <time>2022-07-10T11:30:10Z</time>
      </trkpt>
      <trkpt lat="49.83038" lon="2.57836">
        <ele>53.2</ele>
        <time>2022-07-10T11:30:11Z</time>
      </trkpt>
      <trkpt lat="49.83039" lon="2.57833">
        <ele>53.2</ele>
        <time>2022-07-10T11:30:12Z</time>
      </trkpt>
      <trkpt lat="49.8304" lon="2.57832">
        <ele>53.2</ele>
        <time>2022-07-10T11:30:13Z</time>
      </trkpt>
      <trkpt lat="49.83041" lon="2.57828">
        <ele>53.1</ele>
        <time>2022-07-10T11:30:14Z</time>
      </trkpt>
      <trkpt lat="49.83041" lon="2.57826">
        <ele>53</ele>
        <time>2022-07-10T11:30:15Z</time>
      </trkpt>
      <trkpt lat="49.83042" lon="2.57822">
        <ele>53</ele>
        <time>2022-07-10T11:30:16Z</time>
      </trkpt>
      <trkpt lat="49.83042" lon="2.57821">
        <ele>53</ele>
        <time>2022-07-10T11:30:17Z</time>
      </trkpt>
      <trkpt lat="49.83043" lon="2.57816">
        <ele>53</ele>
        <time>2022-07-10T11:30:19Z</time>
      </trkpt>
      <trkpt lat="49.83043" lon="2.57815">
        <ele>53</ele>
        <time>2022-07-10T11:30:20Z</time>
      </trkpt>
      <trkpt lat="49.83044" lon="2.57812">
        <ele>52.9</ele>
        <time>2022-07-10T11:30:21Z</time>
      </trkpt>
      <trkpt lat="49.83044" lon="2.5781">
        <ele>52.9</ele>
        <time>2022-07-10T11:30:22Z</time>
      </trkpt>
      <trkpt lat="49.83044" lon="2.57808">
        <ele>52.9</ele>
        <time>2022-07-10T11:30:23Z</time>
      </trkpt>
      <trkpt lat="49.83045" lon="2.57806">
        <ele>52.9</ele>
        <time>2022-07-10T11:30:24Z</time>
      </trkpt>
      <trkpt lat="49.83046" lon="2.57804">
        <ele>52.9</ele>
        <time>2022-07-10T11:30:25Z</time>
      </trkpt>
      <trkpt lat="49.83046" lon="2.57804">
        <ele>52.9</ele>
        <time>2022-07-10T11:30:26Z</time>
      </trkpt>
      <trkpt lat="49.83047" lon="2.57803">
        <ele>52.9</ele>
        <time>2022-07-10T11:30:27Z</time>
      </trkpt>
      <trkpt lat="49.83047" lon="2.57802">
        <ele>52.9</ele>
        <time>2022-07-10T11:30:28Z</time>
      </trkpt>
      <trkpt lat="49.83047" lon="2.57802">
        <ele>52.9</ele>
        <time>2022-07-10T11:30:29Z</time>
      </trkpt>
      <trkpt lat="49.83047" lon="2.57802">
        <ele>52.9</ele>
        <time>2022-07-10T11:30:30Z</time>
      </trkpt>
      <trkpt lat="49.83047" lon="2.57802">
        <ele>52.9</ele>
        <time>2022-07-10T11:30:31Z</time>
      </trkpt>
      <trkpt lat="49.83047" lon="2.57801">
        <ele>52.9</ele>
        <time>2022-07-10T11:30:32Z</time>
      </trkpt>
      <trkpt lat="49.83047" lon="2.57801">
        <ele>52.9</ele>
        <time>2022-07-10T11:30:33Z</time>
      </trkpt>
      <trkpt lat="49.83047" lon="2.57801">
        <ele>52.9</ele>
        <time>2022-07-10T11:30:34Z</time>
      </trkpt>
      <trkpt lat="49.83047" lon="2.57801">
        <ele>52.9</ele>
        <time>2022-07-10T11:30:35Z</time>
      </trkpt>
      <trkpt lat="49.83047" lon="2.57801">
        <ele>52.9</ele>
        <time>2022-07-10T11:30:37Z</time>
      </trkpt>
      <trkpt lat="49.83047" lon="2.578">
        <ele>52.9</ele>
        <time>2022-07-10T11:30:38Z</time>
      </trkpt>
      <trkpt lat="49.83047" lon="2.578">
        <ele>52.9</ele>
        <time>2022-07-10T11:30:39Z</time>
      </trkpt>
      <trkpt lat="49.83047" lon="2.578">
        <ele>52.9</ele>
        <time>2022-07-10T11:30:40Z</time>
      </trkpt>
      <trkpt lat="49.83046" lon="2.578">
        <ele>52.9</ele>
        <time>2022-07-10T11:30:41Z</time>
      </trkpt>
      <trkpt lat="49.83046" lon="2.57801">
        <ele>52.9</ele>
        <time>2022-07-10T11:30:42Z</time>
      </trkpt>
      <trkpt lat="49.83046" lon="2.57801">
        <ele>52.9</ele>
        <time>2022-07-10T11:30:43Z</time>
      </trkpt>
      <trkpt lat="49.83046" lon="2.57801">
        <ele>52.9</ele>
        <time>2022-07-10T11:30:44Z</time>
      </trkpt>
      <trkpt lat="49.83046" lon="2.57801">
        <ele>52.9</ele>
        <time>2022-07-10T11:30:45Z</time>
      </trkpt>
      <trkpt lat="49.83046" lon="2.57801">
        <ele>52.9</ele>
        <time>2022-07-10T11:30:46Z</time>
      </trkpt>
      <trkpt lat="49.83046" lon="2.57801">
        <ele>52.9</ele>
        <time>2022-07-10T11:30:47Z</time>
      </trkpt>
      <trkpt lat="49.83046" lon="2.57801">
        <ele>52.9</ele>
        <time>2022-07-10T11:30:48Z</time>
      </trkpt>
      <trkpt lat="49.83046" lon="2.57801">
        <ele>52.9</ele>
        <time>2022-07-10T11:30:49Z</time>
      </trkpt>
      <trkpt lat="49.83046" lon="2.57801">
        <ele>52.9</ele>
        <time>2022-07-10T11:30:50Z</time>
      </trkpt>
      <trkpt lat="49.83046" lon="2.57801">
        <ele>52.8</ele>
        <time>2022-07-10T11:30:51Z</time>
      </trkpt>
      <trkpt lat="49.83046" lon="2.57801">
        <ele>52.8</ele>
        <time>2022-07-10T11:30:52Z</time>
      </trkpt>
      <trkpt lat="49.83046" lon="2.57801">
        <ele>52.8</ele>
        <time>2022-07-10T11:30:53Z</time>
      </trkpt>
      <trkpt lat="49.83046" lon="2.57801">
        <ele>52.8</ele>
        <time>2022-07-10T11:30:54Z</time>
      </trkpt>
      <trkpt lat="49.83046" lon="2.57801">
        <ele>52.8</ele>
        <time>2022-07-10T11:30:55Z</time>
      </trkpt>
      <trkpt lat="49.83046" lon="2.57801">
        <ele>52.8</ele>
        <time>2022-07-10T11:30:56Z</time>
      </trkpt>
      <trkpt lat="49.83046" lon="2.57801">
        <ele>52.8</ele>
        <time>2022-07-10T11:30:57Z</time>
      </trkpt>
      <trkpt lat="49.83046" lon="2.57801">
        <ele>52.8</ele>
        <time>2022-07-10T11:30:58Z</time>
      </trkpt>
      <trkpt lat="49.83046" lon="2.57801">
        <ele>52.8</ele>
        <time>2022-07-10T11:30:59Z</time>
      </trkpt>
      <trkpt lat="49.83046" lon="2.57801">
        <ele>52.8</ele>
        <time>2022-07-10T11:31:00Z</time>
      </trkpt>
      <trkpt lat="49.83046" lon="2.57801">
        <ele>52.8</ele>
        <time>2022-07-10T11:31:01Z</time>
      </trkpt>
      <trkpt lat="49.83046" lon="2.57801">
        <ele>52.8</ele>
        <time>2022-07-10T11:31:02Z</time>
      </trkpt>
      <trkpt lat="49.83046" lon="2.57801">
        <ele>52.8</ele>
        <time>2022-07-10T11:31:03Z</time>
      </trkpt>
      <trkpt lat="49.83046" lon="2.57801">
        <ele>52.8</ele>
        <time>2022-07-10T11:31:04Z</time>
      </trkpt>
      <trkpt lat="49.83046" lon="2.57802">
        <ele>52.8</ele>
        <time>2022-07-10T11:31:05Z</time>
      </trkpt>
      <trkpt lat="49.83046" lon="2.57803">
        <ele>52.8</ele>
        <time>2022-07-10T11:31:06Z</time>
      </trkpt>
      <trkpt lat="49.83046" lon="2.57804">
        <ele>52.8</ele>
        <time>2022-07-10T11:31:07Z</time>
      </trkpt>
      <trkpt lat="49.83046" lon="2.57803">
        <ele>52.8</ele>
        <time>2022-07-10T11:31:08Z</time>
      </trkpt>
      <trkpt lat="49.83046" lon="2.57803">
        <ele>52.8</ele>
        <time>2022-07-10T11:31:09Z</time>
      </trkpt>
      <trkpt lat="49.83046" lon="2.57802">
        <ele>52.8</ele>
        <time>2022-07-10T11:31:10Z</time>
      </trkpt>
      <trkpt lat="49.83046" lon="2.57802">
        <ele>52.8</ele>
        <time>2022-07-10T11:31:11Z</time>
      </trkpt>
      <trkpt lat="49.83047" lon="2.57802">
        <ele>52.8</ele>
        <time>2022-07-10T11:31:12Z</time>
      </trkpt>
      <trkpt lat="49.83047" lon="2.57801">
        <ele>52.8</ele>
        <time>2022-07-10T11:31:13Z</time>
      </trkpt>
      <trkpt lat="49.83048" lon="2.57799">
        <ele>52.8</ele>
        <time>2022-07-10T11:31:14Z</time>
      </trkpt>
      <trkpt lat="49.83048" lon="2.57797">
        <ele>52.9</ele>
        <time>2022-07-10T11:31:15Z</time>
      </trkpt>
      <trkpt lat="49.83048" lon="2.57795">
        <ele>52.9</ele>
        <time>2022-07-10T11:31:17Z</time>
      </trkpt>
      <trkpt lat="49.83048" lon="2.57793">
        <ele>52.9</ele>
        <time>2022-07-10T11:31:18Z</time>
      </trkpt>
      <trkpt lat="49.83048" lon="2.5779">
        <ele>52.9</ele>
        <time>2022-07-10T11:31:19Z</time>
      </trkpt>
      <trkpt lat="49.83048" lon="2.57787">
        <ele>52.9</ele>
        <time>2022-07-10T11:31:20Z</time>
      </trkpt>
      <trkpt lat="49.83048" lon="2.57784">
        <ele>52.9</ele>
        <time>2022-07-10T11:31:21Z</time>
      </trkpt>
      <trkpt lat="49.83048" lon="2.57782">
        <ele>52.9</ele>
        <time>2022-07-10T11:31:22Z</time>
      </trkpt>
      <trkpt lat="49.83048" lon="2.57781">
        <ele>52.9</ele>
        <time>2022-07-10T11:31:23Z</time>
      </trkpt>
      <trkpt lat="49.83048" lon="2.57779">
        <ele>52.9</ele>
        <time>2022-07-10T11:31:24Z</time>
      </trkpt>
      <trkpt lat="49.83047" lon="2.57776">
        <ele>53</ele>
        <time>2022-07-10T11:31:26Z</time>
      </trkpt>
      <trkpt lat="49.83047" lon="2.57774">
        <ele>53</ele>
        <time>2022-07-10T11:31:27Z</time>
      </trkpt>
      <trkpt lat="49.83046" lon="2.57772">
        <ele>53</ele>
        <time>2022-07-10T11:31:28Z</time>
      </trkpt>
      <trkpt lat="49.83045" lon="2.5777">
        <ele>53</ele>
        <time>2022-07-10T11:31:29Z</time>
      </trkpt>
      <trkpt lat="49.83044" lon="2.57767">
        <ele>53.1</ele>
        <time>2022-07-10T11:31:30Z</time>
      </trkpt>
      <trkpt lat="49.83044" lon="2.57765">
        <ele>53.1</ele>
        <time>2022-07-10T11:31:31Z</time>
      </trkpt>
      <trkpt lat="49.83043" lon="2.57763">
        <ele>53.1</ele>
        <time>2022-07-10T11:31:32Z</time>
      </trkpt>
      <trkpt lat="49.83043" lon="2.57761">
        <ele>53.2</ele>
        <time>2022-07-10T11:31:33Z</time>
      </trkpt>
      <trkpt lat="49.83043" lon="2.57759">
        <ele>53.2</ele>
        <time>2022-07-10T11:31:35Z</time>
      </trkpt>
      <trkpt lat="49.83042" lon="2.57758">
        <ele>53.2</ele>
        <time>2022-07-10T11:31:36Z</time>
      </trkpt>
      <trkpt lat="49.83041" lon="2.57758">
        <ele>53.3</ele>
        <time>2022-07-10T11:31:37Z</time>
      </trkpt>
      <trkpt lat="49.8304" lon="2.57758">
        <ele>53.3</ele>
        <time>2022-07-10T11:31:38Z</time>
      </trkpt>
      <trkpt lat="49.83038" lon="2.57758">
        <ele>53.3</ele>
        <time>2022-07-10T11:31:39Z</time>
      </trkpt>
      <trkpt lat="49.83036" lon="2.57757">
        <ele>53.4</ele>
        <time>2022-07-10T11:31:40Z</time>
      </trkpt>
      <trkpt lat="49.83036" lon="2.57756">
        <ele>53.4</ele>
        <time>2022-07-10T11:31:41Z</time>
      </trkpt>
      <trkpt lat="49.83035" lon="2.57755">
        <ele>53.4</ele>
        <time>2022-07-10T11:31:42Z</time>
      </trkpt>
      <trkpt lat="49.83034" lon="2.57754">
        <ele>53.5</ele>
        <time>2022-07-10T11:31:44Z</time>
      </trkpt>
      <trkpt lat="49.83032" lon="2.57756">
        <ele>53.6</ele>
        <time>2022-07-10T11:31:45Z</time>
      </trkpt>
      <trkpt lat="49.83029" lon="2.57757">
        <ele>53.7</ele>
        <time>2022-07-10T11:31:46Z</time>
      </trkpt>
      <trkpt lat="49.83026" lon="2.57755">
        <ele>53.8</ele>
        <time>2022-07-10T11:31:47Z</time>
      </trkpt>
      <trkpt lat="49.83025" lon="2.57755">
        <ele>53.8</ele>
        <time>2022-07-10T11:31:48Z</time>
      </trkpt>
      <trkpt lat="49.83024" lon="2.57753">
        <ele>53.9</ele>
        <time>2022-07-10T11:31:49Z</time>
      </trkpt>
      <trkpt lat="49.83024" lon="2.57751">
        <ele>54</ele>
        <time>2022-07-10T11:31:50Z</time>
      </trkpt>
      <trkpt lat="49.83023" lon="2.57747">
        <ele>54.1</ele>
        <time>2022-07-10T11:31:51Z</time>
      </trkpt>
      <trkpt lat="49.83023" lon="2.57745">
        <ele>54.1</ele>
        <time>2022-07-10T11:31:53Z</time>
      </trkpt>
      <trkpt lat="49.83022" lon="2.57744">
        <ele>54.2</ele>
        <time>2022-07-10T11:31:54Z</time>
      </trkpt>
      <trkpt lat="49.83022" lon="2.57742">
        <ele>54.2</ele>
        <time>2022-07-10T11:31:55Z</time>
      </trkpt>
      <trkpt lat="49.83022" lon="2.57741">
        <ele>54.3</ele>
        <time>2022-07-10T11:31:56Z</time>
      </trkpt>
      <trkpt lat="49.83022" lon="2.57738">
        <ele>54.4</ele>
        <time>2022-07-10T11:31:57Z</time>
      </trkpt>
      <trkpt lat="49.83022" lon="2.57736">
        <ele>54.4</ele>
        <time>2022-07-10T11:31:58Z</time>
      </trkpt>
      <trkpt lat="49.83022" lon="2.57733">
        <ele>54.6</ele>
        <time>2022-07-10T11:31:59Z</time>
      </trkpt>
      <trkpt lat="49.83022" lon="2.57731">
        <ele>54.6</ele>
        <time>2022-07-10T11:32:01Z</time>
      </trkpt>
      <trkpt lat="49.83022" lon="2.57729">
        <ele>54.7</ele>
        <time>2022-07-10T11:32:02Z</time>
      </trkpt>
      <trkpt lat="49.83022" lon="2.57728">
        <ele>54.7</ele>
        <time>2022-07-10T11:32:03Z</time>
      </trkpt>
      <trkpt lat="49.83022" lon="2.57726">
        <ele>54.8</ele>
        <time>2022-07-10T11:32:04Z</time>
      </trkpt>
      <trkpt lat="49.83022" lon="2.57723">
        <ele>54.9</ele>
        <time>2022-07-10T11:32:05Z</time>
      </trkpt>
      <trkpt lat="49.83022" lon="2.57721">
        <ele>54.9</ele>
        <time>2022-07-10T11:32:06Z</time>
      </trkpt>
      <trkpt lat="49.83022" lon="2.5772">
        <ele>55</ele>
        <time>2022-07-10T11:32:07Z</time>
      </trkpt>
      <trkpt lat="49.83022" lon="2.57717">
        <ele>55.1</ele>
        <time>2022-07-10T11:32:09Z</time>
      </trkpt>
      <trkpt lat="49.83021" lon="2.57715">
        <ele>55.1</ele>
        <time>2022-07-10T11:32:10Z</time>
      </trkpt>
      <trkpt lat="49.83021" lon="2.57714">
        <ele>55.2</ele>
        <time>2022-07-10T11:32:11Z</time>
      </trkpt>
      <trkpt lat="49.83021" lon="2.57711">
        <ele>55.3</ele>
        <time>2022-07-10T11:32:12Z</time>
      </trkpt>
      <trkpt lat="49.83021" lon="2.5771">
        <ele>55.4</ele>
        <time>2022-07-10T11:32:13Z</time>
      </trkpt>
      <trkpt lat="49.83021" lon="2.57708">
        <ele>55.4</ele>
        <time>2022-07-10T11:32:14Z</time>
      </trkpt>
      <trkpt lat="49.8302" lon="2.57707">
        <ele>55.5</ele>
        <time>2022-07-10T11:32:15Z</time>
      </trkpt>
      <trkpt lat="49.8302" lon="2.57705">
        <ele>55.5</ele>
        <time>2022-07-10T11:32:16Z</time>
      </trkpt>
      <trkpt lat="49.8302" lon="2.57703">
        <ele>55.6</ele>
        <time>2022-07-10T11:32:18Z</time>
      </trkpt>
      <trkpt lat="49.8302" lon="2.57702">
        <ele>55.7</ele>
        <time>2022-07-10T11:32:19Z</time>
      </trkpt>
      <trkpt lat="49.8302" lon="2.577">
        <ele>55.7</ele>
        <time>2022-07-10T11:32:20Z</time>
      </trkpt>
      <trkpt lat="49.8302" lon="2.57698">
        <ele>55.8</ele>
        <time>2022-07-10T11:32:21Z</time>
      </trkpt>
      <trkpt lat="49.8302" lon="2.57695">
        <ele>55.9</ele>
        <time>2022-07-10T11:32:22Z</time>
      </trkpt>
      <trkpt lat="49.8302" lon="2.57694">
        <ele>55.9</ele>
        <time>2022-07-10T11:32:23Z</time>
      </trkpt>
      <trkpt lat="49.83021" lon="2.57693">
        <ele>56</ele>
        <time>2022-07-10T11:32:24Z</time>
      </trkpt>
      <trkpt lat="49.83021" lon="2.57692">
        <ele>56</ele>
        <time>2022-07-10T11:32:26Z</time>
      </trkpt>
      <trkpt lat="49.8302" lon="2.57691">
        <ele>56.1</ele>
        <time>2022-07-10T11:32:27Z</time>
      </trkpt>
      <trkpt lat="49.8302" lon="2.57689">
        <ele>56.1</ele>
        <time>2022-07-10T11:32:28Z</time>
      </trkpt>
      <trkpt lat="49.8302" lon="2.57688">
        <ele>56.2</ele>
        <time>2022-07-10T11:32:29Z</time>
      </trkpt>
      <trkpt lat="49.8302" lon="2.57686">
        <ele>56.3</ele>
        <time>2022-07-10T11:32:30Z</time>
      </trkpt>
      <trkpt lat="49.8302" lon="2.57684">
        <ele>56.3</ele>
        <time>2022-07-10T11:32:31Z</time>
      </trkpt>
      <trkpt lat="49.83021" lon="2.57683">
        <ele>56.4</ele>
        <time>2022-07-10T11:32:33Z</time>
      </trkpt>
      <trkpt lat="49.83021" lon="2.57681">
        <ele>56.4</ele>
        <time>2022-07-10T11:32:34Z</time>
      </trkpt>
      <trkpt lat="49.83021" lon="2.57679">
        <ele>56.5</ele>
        <time>2022-07-10T11:32:35Z</time>
      </trkpt>
      <trkpt lat="49.83021" lon="2.57677">
        <ele>56.6</ele>
        <time>2022-07-10T11:32:36Z</time>
      </trkpt>
      <trkpt lat="49.83021" lon="2.57673">
        <ele>56.7</ele>
        <time>2022-07-10T11:32:37Z</time>
      </trkpt>
      <trkpt lat="49.83021" lon="2.57672">
        <ele>56.8</ele>
        <time>2022-07-10T11:32:38Z</time>
      </trkpt>
      <trkpt lat="49.83021" lon="2.57671">
        <ele>56.8</ele>
        <time>2022-07-10T11:32:39Z</time>
      </trkpt>
      <trkpt lat="49.83021" lon="2.57668">
        <ele>56.9</ele>
        <time>2022-07-10T11:32:41Z</time>
      </trkpt>
      <trkpt lat="49.83021" lon="2.57666">
        <ele>57</ele>
        <time>2022-07-10T11:32:42Z</time>
      </trkpt>
      <trkpt lat="49.83021" lon="2.57663">
        <ele>57.1</ele>
        <time>2022-07-10T11:32:43Z</time>
      </trkpt>
      <trkpt lat="49.83021" lon="2.57661">
        <ele>57.2</ele>
        <time>2022-07-10T11:32:44Z</time>
      </trkpt>
      <trkpt lat="49.83021" lon="2.57656">
        <ele>57.3</ele>
        <time>2022-07-10T11:32:45Z</time>
      </trkpt>
      <trkpt lat="49.83021" lon="2.57655">
        <ele>57.3</ele>
        <time>2022-07-10T11:32:46Z</time>
      </trkpt>
      <trkpt lat="49.83021" lon="2.57652">
        <ele>57.4</ele>
        <time>2022-07-10T11:32:47Z</time>
      </trkpt>
      <trkpt lat="49.83022" lon="2.57649">
        <ele>57.5</ele>
        <time>2022-07-10T11:32:49Z</time>
      </trkpt>
      <trkpt lat="49.83022" lon="2.57646">
        <ele>57.6</ele>
        <time>2022-07-10T11:32:50Z</time>
      </trkpt>
      <trkpt lat="49.83022" lon="2.57644">
        <ele>57.7</ele>
        <time>2022-07-10T11:32:51Z</time>
      </trkpt>
      <trkpt lat="49.83022" lon="2.57642">
        <ele>57.7</ele>
        <time>2022-07-10T11:32:52Z</time>
      </trkpt>
      <trkpt lat="49.83023" lon="2.57639">
        <ele>57.8</ele>
        <time>2022-07-10T11:32:53Z</time>
      </trkpt>
      <trkpt lat="49.83023" lon="2.57634">
        <ele>57.9</ele>
        <time>2022-07-10T11:32:54Z</time>
      </trkpt>
      <trkpt lat="49.83024" lon="2.57632">
        <ele>58</ele>
        <time>2022-07-10T11:32:56Z</time>
      </trkpt>
      <trkpt lat="49.83024" lon="2.5763">
        <ele>58</ele>
        <time>2022-07-10T11:32:57Z</time>
      </trkpt>
      <trkpt lat="49.83025" lon="2.57628">
        <ele>58.1</ele>
        <time>2022-07-10T11:32:58Z</time>
      </trkpt>
      <trkpt lat="49.83025" lon="2.57625">
        <ele>58.1</ele>
        <time>2022-07-10T11:33:00Z</time>
      </trkpt>
      <trkpt lat="49.83025" lon="2.57623">
        <ele>58.2</ele>
        <time>2022-07-10T11:33:01Z</time>
      </trkpt>
      <trkpt lat="49.83027" lon="2.57619">
        <ele>58.3</ele>
        <time>2022-07-10T11:33:02Z</time>
      </trkpt>
      <trkpt lat="49.83027" lon="2.57617">
        <ele>58.3</ele>
        <time>2022-07-10T11:33:03Z</time>
      </trkpt>
      <trkpt lat="49.83028" lon="2.57614">
        <ele>58.4</ele>
        <time>2022-07-10T11:33:05Z</time>
      </trkpt>
      <trkpt lat="49.83028" lon="2.57612">
        <ele>58.4</ele>
        <time>2022-07-10T11:33:06Z</time>
      </trkpt>
      <trkpt lat="49.83029" lon="2.5761">
        <ele>58.5</ele>
        <time>2022-07-10T11:33:07Z</time>
      </trkpt>
      <trkpt lat="49.83029" lon="2.57608">
        <ele>58.5</ele>
        <time>2022-07-10T11:33:08Z</time>
      </trkpt>
      <trkpt lat="49.83029" lon="2.57606">
        <ele>58.6</ele>
        <time>2022-07-10T11:33:09Z</time>
      </trkpt>
      <trkpt lat="49.8303" lon="2.57603">
        <ele>58.6</ele>
        <time>2022-07-10T11:33:10Z</time>
      </trkpt>
      <trkpt lat="49.83031" lon="2.57601">
        <ele>58.7</ele>
        <time>2022-07-10T11:33:12Z</time>
      </trkpt>
      <trkpt lat="49.83031" lon="2.57599">
        <ele>58.7</ele>
        <time>2022-07-10T11:33:13Z</time>
      </trkpt>
      <trkpt lat="49.83032" lon="2.57598">
        <ele>58.8</ele>
        <time>2022-07-10T11:33:14Z</time>
      </trkpt>
      <trkpt lat="49.83033" lon="2.57596">
        <ele>58.8</ele>
        <time>2022-07-10T11:33:15Z</time>
      </trkpt>
      <trkpt lat="49.83033" lon="2.57593">
        <ele>58.9</ele>
        <time>2022-07-10T11:33:16Z</time>
      </trkpt>
      <trkpt lat="49.83034" lon="2.57591">
        <ele>58.9</ele>
        <time>2022-07-10T11:33:17Z</time>
      </trkpt>
      <trkpt lat="49.83035" lon="2.57589">
        <ele>58.9</ele>
        <time>2022-07-10T11:33:18Z</time>
      </trkpt>
      <trkpt lat="49.83035" lon="2.57587">
        <ele>59</ele>
        <time>2022-07-10T11:33:19Z</time>
      </trkpt>
      <trkpt lat="49.83037" lon="2.57584">
        <ele>59.1</ele>
        <time>2022-07-10T11:33:21Z</time>
      </trkpt>
      <trkpt lat="49.83037" lon="2.57582">
        <ele>59.1</ele>
        <time>2022-07-10T11:33:22Z</time>
      </trkpt>
      <trkpt lat="49.83038" lon="2.5758">
        <ele>59.1</ele>
        <time>2022-07-10T11:33:23Z</time>
      </trkpt>
      <trkpt lat="49.83038" lon="2.57578">
        <ele>59.2</ele>
        <time>2022-07-10T11:33:24Z</time>
      </trkpt>
      <trkpt lat="49.83039" lon="2.57576">
        <ele>59.2</ele>
        <time>2022-07-10T11:33:25Z</time>
      </trkpt>
      <trkpt lat="49.8304" lon="2.57574">
        <ele>59.3</ele>
        <time>2022-07-10T11:33:26Z</time>
      </trkpt>
      <trkpt lat="49.8304" lon="2.57572">
        <ele>59.3</ele>
        <time>2022-07-10T11:33:27Z</time>
      </trkpt>
      <trkpt lat="49.83041" lon="2.5757">
        <ele>59.4</ele>
        <time>2022-07-10T11:33:28Z</time>
      </trkpt>
      <trkpt lat="49.83041" lon="2.57567">
        <ele>59.4</ele>
        <time>2022-07-10T11:33:30Z</time>
      </trkpt>
      <trkpt lat="49.83042" lon="2.57565">
        <ele>59.5</ele>
        <time>2022-07-10T11:33:31Z</time>
      </trkpt>
      <trkpt lat="49.83042" lon="2.57563">
        <ele>59.5</ele>
        <time>2022-07-10T11:33:32Z</time>
      </trkpt>
      <trkpt lat="49.83043" lon="2.57561">
        <ele>59.6</ele>
        <time>2022-07-10T11:33:33Z</time>
      </trkpt>
      <trkpt lat="49.83044" lon="2.57559">
        <ele>59.6</ele>
        <time>2022-07-10T11:33:34Z</time>
      </trkpt>
      <trkpt lat="49.83044" lon="2.57557">
        <ele>59.7</ele>
        <time>2022-07-10T11:33:35Z</time>
      </trkpt>
      <trkpt lat="49.83045" lon="2.57554">
        <ele>59.8</ele>
        <time>2022-07-10T11:33:36Z</time>
      </trkpt>
      <trkpt lat="49.83045" lon="2.57553">
        <ele>59.8</ele>
        <time>2022-07-10T11:33:38Z</time>
      </trkpt>
      <trkpt lat="49.83045" lon="2.57552">
        <ele>59.8</ele>
        <time>2022-07-10T11:33:39Z</time>
      </trkpt>
      <trkpt lat="49.83046" lon="2.57549">
        <ele>59.9</ele>
        <time>2022-07-10T11:33:40Z</time>
      </trkpt>
      <trkpt lat="49.83046" lon="2.57547">
        <ele>59.9</ele>
        <time>2022-07-10T11:33:41Z</time>
      </trkpt>
      <trkpt lat="49.83046" lon="2.57546">
        <ele>59.9</ele>
        <time>2022-07-10T11:33:42Z</time>
      </trkpt>
      <trkpt lat="49.83047" lon="2.57543">
        <ele>60</ele>
        <time>2022-07-10T11:33:43Z</time>
      </trkpt>
      <trkpt lat="49.83047" lon="2.57541">
        <ele>60</ele>
        <time>2022-07-10T11:33:44Z</time>
      </trkpt>
      <trkpt lat="49.83047" lon="2.5754">
        <ele>60.1</ele>
        <time>2022-07-10T11:33:45Z</time>
      </trkpt>
      <trkpt lat="49.83048" lon="2.57537">
        <ele>60.1</ele>
        <time>2022-07-10T11:33:47Z</time>
      </trkpt>
      <trkpt lat="49.83048" lon="2.57536">
        <ele>60.1</ele>
        <time>2022-07-10T11:33:48Z</time>
      </trkpt>
      <trkpt lat="49.83048" lon="2.57535">
        <ele>60.2</ele>
        <time>2022-07-10T11:33:49Z</time>
      </trkpt>
      <trkpt lat="49.83049" lon="2.57531">
        <ele>60.2</ele>
        <time>2022-07-10T11:33:50Z</time>
      </trkpt>
      <trkpt lat="49.83049" lon="2.57529">
        <ele>60.2</ele>
        <time>2022-07-10T11:33:51Z</time>
      </trkpt>
      <trkpt lat="49.83049" lon="2.57528">
        <ele>60.3</ele>
        <time>2022-07-10T11:33:52Z</time>
      </trkpt>
      <trkpt lat="49.8305" lon="2.57526">
        <ele>60.3</ele>
        <time>2022-07-10T11:33:53Z</time>
      </trkpt>
      <trkpt lat="49.8305" lon="2.57525">
        <ele>60.3</ele>
        <time>2022-07-10T11:33:55Z</time>
      </trkpt>
      <trkpt lat="49.8305" lon="2.57523">
        <ele>60.4</ele>
        <time>2022-07-10T11:33:56Z</time>
      </trkpt>
      <trkpt lat="49.83051" lon="2.5752">
        <ele>60.4</ele>
        <time>2022-07-10T11:33:57Z</time>
      </trkpt>
      <trkpt lat="49.83051" lon="2.57519">
        <ele>60.4</ele>
        <time>2022-07-10T11:33:58Z</time>
      </trkpt>
      <trkpt lat="49.83051" lon="2.57517">
        <ele>60.4</ele>
        <time>2022-07-10T11:33:59Z</time>
      </trkpt>
      <trkpt lat="49.83052" lon="2.57514">
        <ele>60.5</ele>
        <time>2022-07-10T11:34:00Z</time>
      </trkpt>
      <trkpt lat="49.83052" lon="2.57513">
        <ele>60.5</ele>
        <time>2022-07-10T11:34:02Z</time>
      </trkpt>
      <trkpt lat="49.83052" lon="2.57512">
        <ele>60.5</ele>
        <time>2022-07-10T11:34:03Z</time>
      </trkpt>
      <trkpt lat="49.83053" lon="2.57509">
        <ele>60.6</ele>
        <time>2022-07-10T11:34:04Z</time>
      </trkpt>
      <trkpt lat="49.83053" lon="2.57508">
        <ele>60.6</ele>
        <time>2022-07-10T11:34:05Z</time>
      </trkpt>
      <trkpt lat="49.83054" lon="2.57506">
        <ele>60.6</ele>
        <time>2022-07-10T11:34:06Z</time>
      </trkpt>
      <trkpt lat="49.83054" lon="2.57505">
        <ele>60.6</ele>
        <time>2022-07-10T11:34:07Z</time>
      </trkpt>
      <trkpt lat="49.83055" lon="2.57503">
        <ele>60.6</ele>
        <time>2022-07-10T11:34:08Z</time>
      </trkpt>
      <trkpt lat="49.83055" lon="2.57502">
        <ele>60.7</ele>
        <time>2022-07-10T11:34:10Z</time>
      </trkpt>
      <trkpt lat="49.83055" lon="2.575">
        <ele>60.7</ele>
        <time>2022-07-10T11:34:11Z</time>
      </trkpt>
      <trkpt lat="49.83055" lon="2.57499">
        <ele>60.7</ele>
        <time>2022-07-10T11:34:12Z</time>
      </trkpt>
      <trkpt lat="49.83056" lon="2.57498">
        <ele>60.7</ele>
        <time>2022-07-10T11:34:13Z</time>
      </trkpt>
      <trkpt lat="49.83056" lon="2.57496">
        <ele>60.7</ele>
        <time>2022-07-10T11:34:14Z</time>
      </trkpt>
      <trkpt lat="49.83056" lon="2.57495">
        <ele>60.7</ele>
        <time>2022-07-10T11:34:15Z</time>
      </trkpt>
      <trkpt lat="49.83056" lon="2.57493">
        <ele>60.7</ele>
        <time>2022-07-10T11:34:16Z</time>
      </trkpt>
      <trkpt lat="49.83056" lon="2.57492">
        <ele>60.8</ele>
        <time>2022-07-10T11:34:18Z</time>
      </trkpt>
      <trkpt lat="49.83056" lon="2.5749">
        <ele>60.8</ele>
        <time>2022-07-10T11:34:19Z</time>
      </trkpt>
      <trkpt lat="49.83057" lon="2.57488">
        <ele>60.8</ele>
        <time>2022-07-10T11:34:20Z</time>
      </trkpt>
      <trkpt lat="49.83057" lon="2.57486">
        <ele>60.8</ele>
        <time>2022-07-10T11:34:21Z</time>
      </trkpt>
      <trkpt lat="49.83058" lon="2.57484">
        <ele>60.8</ele>
        <time>2022-07-10T11:34:22Z</time>
      </trkpt>
      <trkpt lat="49.83058" lon="2.57482">
        <ele>60.8</ele>
        <time>2022-07-10T11:34:23Z</time>
      </trkpt>
      <trkpt lat="49.83059" lon="2.57479">
        <ele>60.9</ele>
        <time>2022-07-10T11:34:24Z</time>
      </trkpt>
      <trkpt lat="49.8306" lon="2.57478">
        <ele>60.9</ele>
        <time>2022-07-10T11:34:26Z</time>
      </trkpt>
      <trkpt lat="49.8306" lon="2.57476">
        <ele>60.9</ele>
        <time>2022-07-10T11:34:27Z</time>
      </trkpt>
      <trkpt lat="49.8306" lon="2.57475">
        <ele>60.9</ele>
        <time>2022-07-10T11:34:28Z</time>
      </trkpt>
      <trkpt lat="49.83061" lon="2.57473">
        <ele>60.9</ele>
        <time>2022-07-10T11:34:29Z</time>
      </trkpt>
      <trkpt lat="49.83061" lon="2.57471">
        <ele>60.9</ele>
        <time>2022-07-10T11:34:30Z</time>
      </trkpt>
      <trkpt lat="49.83062" lon="2.57469">
        <ele>60.9</ele>
        <time>2022-07-10T11:34:31Z</time>
      </trkpt>
      <trkpt lat="49.83063" lon="2.57467">
        <ele>60.9</ele>
        <time>2022-07-10T11:34:32Z</time>
      </trkpt>
      <trkpt lat="49.83063" lon="2.57466">
        <ele>60.9</ele>
        <time>2022-07-10T11:34:33Z</time>
      </trkpt>
      <trkpt lat="49.83064" lon="2.57464">
        <ele>60.9</ele>
        <time>2022-07-10T11:34:35Z</time>
      </trkpt>
      <trkpt lat="49.83064" lon="2.57461">
        <ele>60.9</ele>
        <time>2022-07-10T11:34:36Z</time>
      </trkpt>
      <trkpt lat="49.83064" lon="2.57459">
        <ele>60.9</ele>
        <time>2022-07-10T11:34:37Z</time>
      </trkpt>
      <trkpt lat="49.83064" lon="2.57458">
        <ele>60.9</ele>
        <time>2022-07-10T11:34:38Z</time>
      </trkpt>
      <trkpt lat="49.83065" lon="2.57456">
        <ele>60.9</ele>
        <time>2022-07-10T11:34:39Z</time>
      </trkpt>
      <trkpt lat="49.83065" lon="2.57454">
        <ele>60.9</ele>
        <time>2022-07-10T11:34:40Z</time>
      </trkpt>
      <trkpt lat="49.83065" lon="2.57452">
        <ele>60.9</ele>
        <time>2022-07-10T11:34:41Z</time>
      </trkpt>
      <trkpt lat="49.83066" lon="2.57449">
        <ele>60.9</ele>
        <time>2022-07-10T11:34:43Z</time>
      </trkpt>
      <trkpt lat="49.83066" lon="2.57446">
        <ele>60.9</ele>
        <time>2022-07-10T11:34:44Z</time>
      </trkpt>
      <trkpt lat="49.83067" lon="2.57444">
        <ele>60.9</ele>
        <time>2022-07-10T11:34:46Z</time>
      </trkpt>
      <trkpt lat="49.83067" lon="2.5744">
        <ele>60.9</ele>
        <time>2022-07-10T11:34:47Z</time>
      </trkpt>
      <trkpt lat="49.83067" lon="2.57438">
        <ele>60.8</ele>
        <time>2022-07-10T11:34:48Z</time>
      </trkpt>
      <trkpt lat="49.83068" lon="2.57436">
        <ele>60.8</ele>
        <time>2022-07-10T11:34:49Z</time>
      </trkpt>
      <trkpt lat="49.83068" lon="2.57434">
        <ele>60.8</ele>
        <time>2022-07-10T11:34:51Z</time>
      </trkpt>
      <trkpt lat="49.83068" lon="2.57431">
        <ele>60.8</ele>
        <time>2022-07-10T11:34:52Z</time>
      </trkpt>
      <trkpt lat="49.83068" lon="2.57428">
        <ele>60.7</ele>
        <time>2022-07-10T11:34:53Z</time>
      </trkpt>
      <trkpt lat="49.83069" lon="2.57426">
        <ele>60.7</ele>
        <time>2022-07-10T11:34:55Z</time>
      </trkpt>
      <trkpt lat="49.83069" lon="2.57423">
        <ele>60.7</ele>
        <time>2022-07-10T11:34:56Z</time>
      </trkpt>
      <trkpt lat="49.8307" lon="2.57421">
        <ele>60.7</ele>
        <time>2022-07-10T11:34:57Z</time>
      </trkpt>
      <trkpt lat="49.8307" lon="2.57417">
        <ele>60.7</ele>
        <time>2022-07-10T11:34:58Z</time>
      </trkpt>
      <trkpt lat="49.83071" lon="2.57415">
        <ele>60.6</ele>
        <time>2022-07-10T11:35:00Z</time>
      </trkpt>
      <trkpt lat="49.83071" lon="2.57413">
        <ele>60.6</ele>
        <time>2022-07-10T11:35:01Z</time>
      </trkpt>
      <trkpt lat="49.83072" lon="2.57411">
        <ele>60.6</ele>
        <time>2022-07-10T11:35:02Z</time>
      </trkpt>
      <trkpt lat="49.83073" lon="2.57407">
        <ele>60.5</ele>
        <time>2022-07-10T11:35:03Z</time>
      </trkpt>
      <trkpt lat="49.83073" lon="2.57405">
        <ele>60.5</ele>
        <time>2022-07-10T11:35:05Z</time>
      </trkpt>
      <trkpt lat="49.83073" lon="2.57404">
        <ele>60.5</ele>
        <time>2022-07-10T11:35:06Z</time>
      </trkpt>
      <trkpt lat="49.83074" lon="2.57402">
        <ele>60.5</ele>
        <time>2022-07-10T11:35:07Z</time>
      </trkpt>
      <trkpt lat="49.83074" lon="2.57401">
        <ele>60.5</ele>
        <time>2022-07-10T11:35:08Z</time>
      </trkpt>
      <trkpt lat="49.83075" lon="2.57398">
        <ele>60.4</ele>
        <time>2022-07-10T11:35:10Z</time>
      </trkpt>
      <trkpt lat="49.83075" lon="2.57396">
        <ele>60.4</ele>
        <time>2022-07-10T11:35:11Z</time>
      </trkpt>
      <trkpt lat="49.83076" lon="2.57394">
        <ele>60.4</ele>
        <time>2022-07-10T11:35:12Z</time>
      </trkpt>
      <trkpt lat="49.83076" lon="2.57392">
        <ele>60.4</ele>
        <time>2022-07-10T11:35:13Z</time>
      </trkpt>
      <trkpt lat="49.83077" lon="2.5739">
        <ele>60.3</ele>
        <time>2022-07-10T11:35:15Z</time>
      </trkpt>
      <trkpt lat="49.83078" lon="2.57387">
        <ele>60.3</ele>
        <time>2022-07-10T11:35:16Z</time>
      </trkpt>
      <trkpt lat="49.83078" lon="2.57385">
        <ele>60.3</ele>
        <time>2022-07-10T11:35:17Z</time>
      </trkpt>
      <trkpt lat="49.83078" lon="2.57384">
        <ele>60.3</ele>
        <time>2022-07-10T11:35:18Z</time>
      </trkpt>
      <trkpt lat="49.83079" lon="2.57383">
        <ele>60.2</ele>
        <time>2022-07-10T11:35:20Z</time>
      </trkpt>
      <trkpt lat="49.83079" lon="2.57381">
        <ele>60.2</ele>
        <time>2022-07-10T11:35:21Z</time>
      </trkpt>
      <trkpt lat="49.8308" lon="2.57379">
        <ele>60.2</ele>
        <time>2022-07-10T11:35:22Z</time>
      </trkpt>
      <trkpt lat="49.8308" lon="2.57377">
        <ele>60.2</ele>
        <time>2022-07-10T11:35:23Z</time>
      </trkpt>
      <trkpt lat="49.8308" lon="2.57375">
        <ele>60.2</ele>
        <time>2022-07-10T11:35:24Z</time>
      </trkpt>
      <trkpt lat="49.8308" lon="2.57373">
        <ele>60.1</ele>
        <time>2022-07-10T11:35:26Z</time>
      </trkpt>
      <trkpt lat="49.8308" lon="2.57369">
        <ele>60.1</ele>
        <time>2022-07-10T11:35:27Z</time>
      </trkpt>
      <trkpt lat="49.8308" lon="2.57368">
        <ele>60.1</ele>
        <time>2022-07-10T11:35:28Z</time>
      </trkpt>
      <trkpt lat="49.8308" lon="2.57365">
        <ele>60.1</ele>
        <time>2022-07-10T11:35:29Z</time>
      </trkpt>
      <trkpt lat="49.8308" lon="2.57363">
        <ele>60.1</ele>
        <time>2022-07-10T11:35:31Z</time>
      </trkpt>
      <trkpt lat="49.8308" lon="2.57362">
        <ele>60</ele>
        <time>2022-07-10T11:35:32Z</time>
      </trkpt>
      <trkpt lat="49.8308" lon="2.57359">
        <ele>60</ele>
        <time>2022-07-10T11:35:33Z</time>
      </trkpt>
      <trkpt lat="49.8308" lon="2.57357">
        <ele>60</ele>
        <time>2022-07-10T11:35:34Z</time>
      </trkpt>
      <trkpt lat="49.8308" lon="2.57356">
        <ele>60</ele>
        <time>2022-07-10T11:35:35Z</time>
      </trkpt>
      <trkpt lat="49.8308" lon="2.57354">
        <ele>60</ele>
        <time>2022-07-10T11:35:36Z</time>
      </trkpt>
      <trkpt lat="49.8308" lon="2.57353">
        <ele>60</ele>
        <time>2022-07-10T11:35:37Z</time>
      </trkpt>
      <trkpt lat="49.83081" lon="2.57351">
        <ele>59.9</ele>
        <time>2022-07-10T11:35:39Z</time>
      </trkpt>
      <trkpt lat="49.83081" lon="2.57348">
        <ele>59.9</ele>
        <time>2022-07-10T11:35:40Z</time>
      </trkpt>
      <trkpt lat="49.83081" lon="2.57345">
        <ele>59.9</ele>
        <time>2022-07-10T11:35:42Z</time>
      </trkpt>
      <trkpt lat="49.83082" lon="2.57342">
        <ele>59.9</ele>
        <time>2022-07-10T11:35:43Z</time>
      </trkpt>
      <trkpt lat="49.83082" lon="2.5734">
        <ele>59.9</ele>
        <time>2022-07-10T11:35:45Z</time>
      </trkpt>
      <trkpt lat="49.83083" lon="2.57338">
        <ele>59.9</ele>
        <time>2022-07-10T11:35:46Z</time>
      </trkpt>
      <trkpt lat="49.83083" lon="2.57337">
        <ele>59.8</ele>
        <time>2022-07-10T11:35:48Z</time>
      </trkpt>
      <trkpt lat="49.83084" lon="2.57335">
        <ele>59.8</ele>
        <time>2022-07-10T11:35:49Z</time>
      </trkpt>
      <trkpt lat="49.83084" lon="2.57332">
        <ele>59.8</ele>
        <time>2022-07-10T11:35:50Z</time>
      </trkpt>
      <trkpt lat="49.83085" lon="2.5733">
        <ele>59.8</ele>
        <time>2022-07-10T11:35:51Z</time>
      </trkpt>
      <trkpt lat="49.83085" lon="2.57329">
        <ele>59.8</ele>
        <time>2022-07-10T11:35:52Z</time>
      </trkpt>
      <trkpt lat="49.83086" lon="2.57326">
        <ele>59.8</ele>
        <time>2022-07-10T11:35:53Z</time>
      </trkpt>
      <trkpt lat="49.83086" lon="2.57325">
        <ele>59.8</ele>
        <time>2022-07-10T11:35:54Z</time>
      </trkpt>
      <trkpt lat="49.83087" lon="2.57324">
        <ele>59.7</ele>
        <time>2022-07-10T11:35:55Z</time>
      </trkpt>
      <trkpt lat="49.83087" lon="2.5732">
        <ele>59.7</ele>
        <time>2022-07-10T11:35:57Z</time>
      </trkpt>
      <trkpt lat="49.83088" lon="2.57319">
        <ele>59.7</ele>
        <time>2022-07-10T11:35:58Z</time>
      </trkpt>
      <trkpt lat="49.83088" lon="2.57318">
        <ele>59.7</ele>
        <time>2022-07-10T11:35:59Z</time>
      </trkpt>
      <trkpt lat="49.83088" lon="2.57316">
        <ele>59.7</ele>
        <time>2022-07-10T11:36:00Z</time>
      </trkpt>
      <trkpt lat="49.83089" lon="2.57313">
        <ele>59.7</ele>
        <time>2022-07-10T11:36:01Z</time>
      </trkpt>
      <trkpt lat="49.83089" lon="2.57311">
        <ele>59.7</ele>
        <time>2022-07-10T11:36:02Z</time>
      </trkpt>
      <trkpt lat="49.8309" lon="2.57309">
        <ele>59.6</ele>
        <time>2022-07-10T11:36:03Z</time>
      </trkpt>
      <trkpt lat="49.8309" lon="2.57307">
        <ele>59.6</ele>
        <time>2022-07-10T11:36:04Z</time>
      </trkpt>
      <trkpt lat="49.83091" lon="2.57304">
        <ele>59.6</ele>
        <time>2022-07-10T11:36:05Z</time>
      </trkpt>
      <trkpt lat="49.83091" lon="2.57302">
        <ele>59.6</ele>
        <time>2022-07-10T11:36:06Z</time>
      </trkpt>
      <trkpt lat="49.83091" lon="2.573">
        <ele>59.6</ele>
        <time>2022-07-10T11:36:08Z</time>
      </trkpt>
      <trkpt lat="49.83092" lon="2.57298">
        <ele>59.6</ele>
        <time>2022-07-10T11:36:09Z</time>
      </trkpt>
      <trkpt lat="49.83093" lon="2.57294">
        <ele>59.5</ele>
        <time>2022-07-10T11:36:10Z</time>
      </trkpt>
      <trkpt lat="49.83093" lon="2.57292">
        <ele>59.5</ele>
        <time>2022-07-10T11:36:11Z</time>
      </trkpt>
      <trkpt lat="49.83094" lon="2.5729">
        <ele>59.5</ele>
        <time>2022-07-10T11:36:13Z</time>
      </trkpt>
      <trkpt lat="49.83095" lon="2.57289">
        <ele>59.5</ele>
        <time>2022-07-10T11:36:14Z</time>
      </trkpt>
      <trkpt lat="49.83095" lon="2.57287">
        <ele>59.5</ele>
        <time>2022-07-10T11:36:15Z</time>
      </trkpt>
      <trkpt lat="49.83096" lon="2.57285">
        <ele>59.5</ele>
        <time>2022-07-10T11:36:16Z</time>
      </trkpt>
      <trkpt lat="49.83097" lon="2.57283">
        <ele>59.5</ele>
        <time>2022-07-10T11:36:17Z</time>
      </trkpt>
      <trkpt lat="49.83098" lon="2.5728">
        <ele>59.5</ele>
        <time>2022-07-10T11:36:18Z</time>
      </trkpt>
      <trkpt lat="49.83098" lon="2.57279">
        <ele>59.5</ele>
        <time>2022-07-10T11:36:19Z</time>
      </trkpt>
      <trkpt lat="49.83098" lon="2.57277">
        <ele>59.5</ele>
        <time>2022-07-10T11:36:20Z</time>
      </trkpt>
      <trkpt lat="49.83099" lon="2.57275">
        <ele>59.5</ele>
        <time>2022-07-10T11:36:21Z</time>
      </trkpt>
      <trkpt lat="49.831" lon="2.57273">
        <ele>59.5</ele>
        <time>2022-07-10T11:36:23Z</time>
      </trkpt>
      <trkpt lat="49.831" lon="2.57272">
        <ele>59.5</ele>
        <time>2022-07-10T11:36:24Z</time>
      </trkpt>
      <trkpt lat="49.83101" lon="2.5727">
        <ele>59.5</ele>
        <time>2022-07-10T11:36:25Z</time>
      </trkpt>
      <trkpt lat="49.83102" lon="2.57268">
        <ele>59.5</ele>
        <time>2022-07-10T11:36:26Z</time>
      </trkpt>
      <trkpt lat="49.83103" lon="2.57266">
        <ele>59.5</ele>
        <time>2022-07-10T11:36:27Z</time>
      </trkpt>
      <trkpt lat="49.83103" lon="2.57264">
        <ele>59.5</ele>
        <time>2022-07-10T11:36:28Z</time>
      </trkpt>
      <trkpt lat="49.83104" lon="2.57262">
        <ele>59.5</ele>
        <time>2022-07-10T11:36:29Z</time>
      </trkpt>
      <trkpt lat="49.83104" lon="2.5726">
        <ele>59.5</ele>
        <time>2022-07-10T11:36:30Z</time>
      </trkpt>
      <trkpt lat="49.83105" lon="2.57259">
        <ele>59.5</ele>
        <time>2022-07-10T11:36:31Z</time>
      </trkpt>
      <trkpt lat="49.83105" lon="2.57257">
        <ele>59.5</ele>
        <time>2022-07-10T11:36:33Z</time>
      </trkpt>
      <trkpt lat="49.83106" lon="2.57255">
        <ele>59.5</ele>
        <time>2022-07-10T11:36:34Z</time>
      </trkpt>
      <trkpt lat="49.83106" lon="2.57254">
        <ele>59.5</ele>
        <time>2022-07-10T11:36:35Z</time>
      </trkpt>
      <trkpt lat="49.83107" lon="2.57252">
        <ele>59.5</ele>
        <time>2022-07-10T11:36:36Z</time>
      </trkpt>
      <trkpt lat="49.83108" lon="2.57248">
        <ele>59.5</ele>
        <time>2022-07-10T11:36:38Z</time>
      </trkpt>
      <trkpt lat="49.83108" lon="2.57247">
        <ele>59.5</ele>
        <time>2022-07-10T11:36:39Z</time>
      </trkpt>
      <trkpt lat="49.83108" lon="2.57246">
        <ele>59.5</ele>
        <time>2022-07-10T11:36:40Z</time>
      </trkpt>
      <trkpt lat="49.83108" lon="2.57244">
        <ele>59.5</ele>
        <time>2022-07-10T11:36:41Z</time>
      </trkpt>
      <trkpt lat="49.83108" lon="2.57242">
        <ele>59.5</ele>
        <time>2022-07-10T11:36:42Z</time>
      </trkpt>
      <trkpt lat="49.83109" lon="2.57239">
        <ele>59.5</ele>
        <time>2022-07-10T11:36:44Z</time>
      </trkpt>
      <trkpt lat="49.83109" lon="2.57236">
        <ele>59.5</ele>
        <time>2022-07-10T11:36:45Z</time>
      </trkpt>
      <trkpt lat="49.83109" lon="2.57235">
        <ele>59.5</ele>
        <time>2022-07-10T11:36:46Z</time>
      </trkpt>
      <trkpt lat="49.8311" lon="2.57234">
        <ele>59.5</ele>
        <time>2022-07-10T11:36:47Z</time>
      </trkpt>
      <trkpt lat="49.8311" lon="2.57232">
        <ele>59.5</ele>
        <time>2022-07-10T11:36:48Z</time>
      </trkpt>
      <trkpt lat="49.8311" lon="2.5723">
        <ele>59.5</ele>
        <time>2022-07-10T11:36:49Z</time>
      </trkpt>
      <trkpt lat="49.8311" lon="2.57228">
        <ele>59.5</ele>
        <time>2022-07-10T11:36:51Z</time>
      </trkpt>
      <trkpt lat="49.8311" lon="2.57226">
        <ele>59.5</ele>
        <time>2022-07-10T11:36:52Z</time>
      </trkpt>
      <trkpt lat="49.8311" lon="2.57225">
        <ele>59.5</ele>
        <time>2022-07-10T11:36:53Z</time>
      </trkpt>
      <trkpt lat="49.8311" lon="2.57223">
        <ele>59.5</ele>
        <time>2022-07-10T11:36:54Z</time>
      </trkpt>
      <trkpt lat="49.8311" lon="2.57222">
        <ele>59.6</ele>
        <time>2022-07-10T11:36:55Z</time>
      </trkpt>
      <trkpt lat="49.8311" lon="2.5722">
        <ele>59.6</ele>
        <time>2022-07-10T11:36:56Z</time>
      </trkpt>
      <trkpt lat="49.8311" lon="2.57218">
        <ele>59.6</ele>
        <time>2022-07-10T11:36:57Z</time>
      </trkpt>
      <trkpt lat="49.83109" lon="2.57215">
        <ele>59.6</ele>
        <time>2022-07-10T11:36:58Z</time>
      </trkpt>
      <trkpt lat="49.83109" lon="2.57214">
        <ele>59.6</ele>
        <time>2022-07-10T11:36:59Z</time>
      </trkpt>
      <trkpt lat="49.83109" lon="2.57213">
        <ele>59.6</ele>
        <time>2022-07-10T11:37:00Z</time>
      </trkpt>
      <trkpt lat="49.83108" lon="2.5721">
        <ele>59.6</ele>
        <time>2022-07-10T11:37:01Z</time>
      </trkpt>
      <trkpt lat="49.83108" lon="2.57209">
        <ele>59.6</ele>
        <time>2022-07-10T11:37:03Z</time>
      </trkpt>
      <trkpt lat="49.83107" lon="2.57207">
        <ele>59.7</ele>
        <time>2022-07-10T11:37:04Z</time>
      </trkpt>
      <trkpt lat="49.83106" lon="2.57205">
        <ele>59.7</ele>
        <time>2022-07-10T11:37:05Z</time>
      </trkpt>
      <trkpt lat="49.83106" lon="2.57203">
        <ele>59.7</ele>
        <time>2022-07-10T11:37:06Z</time>
      </trkpt>
      <trkpt lat="49.83106" lon="2.57202">
        <ele>59.7</ele>
        <time>2022-07-10T11:37:07Z</time>
      </trkpt>
      <trkpt lat="49.83105" lon="2.57199">
        <ele>59.8</ele>
        <time>2022-07-10T11:37:08Z</time>
      </trkpt>
      <trkpt lat="49.83104" lon="2.57198">
        <ele>59.8</ele>
        <time>2022-07-10T11:37:09Z</time>
      </trkpt>
      <trkpt lat="49.83104" lon="2.57197">
        <ele>59.8</ele>
        <time>2022-07-10T11:37:10Z</time>
      </trkpt>
      <trkpt lat="49.83103" lon="2.57194">
        <ele>59.8</ele>
        <time>2022-07-10T11:37:11Z</time>
      </trkpt>
      <trkpt lat="49.83102" lon="2.57192">
        <ele>59.9</ele>
        <time>2022-07-10T11:37:13Z</time>
      </trkpt>
      <trkpt lat="49.83102" lon="2.57191">
        <ele>59.9</ele>
        <time>2022-07-10T11:37:14Z</time>
      </trkpt>
      <trkpt lat="49.83101" lon="2.57189">
        <ele>59.9</ele>
        <time>2022-07-10T11:37:15Z</time>
      </trkpt>
      <trkpt lat="49.83101" lon="2.57188">
        <ele>60</ele>
        <time>2022-07-10T11:37:16Z</time>
      </trkpt>
      <trkpt lat="49.831" lon="2.57186">
        <ele>60</ele>
        <time>2022-07-10T11:37:17Z</time>
      </trkpt>
      <trkpt lat="49.83099" lon="2.57186">
        <ele>60</ele>
        <time>2022-07-10T11:37:18Z</time>
      </trkpt>
      <trkpt lat="49.83099" lon="2.57185">
        <ele>60.1</ele>
        <time>2022-07-10T11:37:19Z</time>
      </trkpt>
      <trkpt lat="49.83098" lon="2.57183">
        <ele>60.1</ele>
        <time>2022-07-10T11:37:21Z</time>
      </trkpt>
      <trkpt lat="49.83097" lon="2.57182">
        <ele>60.1</ele>
        <time>2022-07-10T11:37:22Z</time>
      </trkpt>
      <trkpt lat="49.83096" lon="2.5718">
        <ele>60.2</ele>
        <time>2022-07-10T11:37:23Z</time>
      </trkpt>
      <trkpt lat="49.83096" lon="2.57179">
        <ele>60.2</ele>
        <time>2022-07-10T11:37:24Z</time>
      </trkpt>
      <trkpt lat="49.83095" lon="2.57176">
        <ele>60.3</ele>
        <time>2022-07-10T11:37:25Z</time>
      </trkpt>
      <trkpt lat="49.83094" lon="2.57175">
        <ele>60.3</ele>
        <time>2022-07-10T11:37:26Z</time>
      </trkpt>
      <trkpt lat="49.83094" lon="2.57174">
        <ele>60.4</ele>
        <time>2022-07-10T11:37:27Z</time>
      </trkpt>
      <trkpt lat="49.83093" lon="2.57171">
        <ele>60.5</ele>
        <time>2022-07-10T11:37:29Z</time>
      </trkpt>
      <trkpt lat="49.83092" lon="2.5717">
        <ele>60.5</ele>
        <time>2022-07-10T11:37:30Z</time>
      </trkpt>
      <trkpt lat="49.83092" lon="2.57169">
        <ele>60.5</ele>
        <time>2022-07-10T11:37:31Z</time>
      </trkpt>
      <trkpt lat="49.83091" lon="2.57166">
        <ele>60.6</ele>
        <time>2022-07-10T11:37:32Z</time>
      </trkpt>
      <trkpt lat="49.8309" lon="2.57165">
        <ele>60.7</ele>
        <time>2022-07-10T11:37:33Z</time>
      </trkpt>
      <trkpt lat="49.8309" lon="2.57164">
        <ele>60.7</ele>
        <time>2022-07-10T11:37:34Z</time>
      </trkpt>
      <trkpt lat="49.83089" lon="2.57161">
        <ele>60.8</ele>
        <time>2022-07-10T11:37:35Z</time>
      </trkpt>
      <trkpt lat="49.83089" lon="2.5716">
        <ele>60.9</ele>
        <time>2022-07-10T11:37:37Z</time>
      </trkpt>
      <trkpt lat="49.83088" lon="2.57158">
        <ele>60.9</ele>
        <time>2022-07-10T11:37:38Z</time>
      </trkpt>
      <trkpt lat="49.83087" lon="2.57157">
        <ele>61</ele>
        <time>2022-07-10T11:37:39Z</time>
      </trkpt>
      <trkpt lat="49.83087" lon="2.57155">
        <ele>61.1</ele>
        <time>2022-07-10T11:37:40Z</time>
      </trkpt>
      <trkpt lat="49.83086" lon="2.57153">
        <ele>61.2</ele>
        <time>2022-07-10T11:37:41Z</time>
      </trkpt>
      <trkpt lat="49.83085" lon="2.57151">
        <ele>61.2</ele>
        <time>2022-07-10T11:37:42Z</time>
      </trkpt>
      <trkpt lat="49.83084" lon="2.57149">
        <ele>61.3</ele>
        <time>2022-07-10T11:37:44Z</time>
      </trkpt>
      <trkpt lat="49.83083" lon="2.57148">
        <ele>61.4</ele>
        <time>2022-07-10T11:37:45Z</time>
      </trkpt>
      <trkpt lat="49.83083" lon="2.57147">
        <ele>61.4</ele>
        <time>2022-07-10T11:37:46Z</time>
      </trkpt>
      <trkpt lat="49.83081" lon="2.57145">
        <ele>61.6</ele>
        <time>2022-07-10T11:37:47Z</time>
      </trkpt>
      <trkpt lat="49.83081" lon="2.57144">
        <ele>61.6</ele>
        <time>2022-07-10T11:37:48Z</time>
      </trkpt>
      <trkpt lat="49.8308" lon="2.57143">
        <ele>61.7</ele>
        <time>2022-07-10T11:37:49Z</time>
      </trkpt>
      <trkpt lat="49.83079" lon="2.5714">
        <ele>61.8</ele>
        <time>2022-07-10T11:37:51Z</time>
      </trkpt>
      <trkpt lat="49.83078" lon="2.57139">
        <ele>61.9</ele>
        <time>2022-07-10T11:37:52Z</time>
      </trkpt>
      <trkpt lat="49.83077" lon="2.57138">
        <ele>61.9</ele>
        <time>2022-07-10T11:37:53Z</time>
      </trkpt>
      <trkpt lat="49.83076" lon="2.57137">
        <ele>62</ele>
        <time>2022-07-10T11:37:54Z</time>
      </trkpt>
      <trkpt lat="49.83075" lon="2.57135">
        <ele>62.1</ele>
        <time>2022-07-10T11:37:55Z</time>
      </trkpt>
      <trkpt lat="49.83074" lon="2.57133">
        <ele>62.2</ele>
        <time>2022-07-10T11:37:56Z</time>
      </trkpt>
      <trkpt lat="49.83074" lon="2.57131">
        <ele>62.3</ele>
        <time>2022-07-10T11:37:58Z</time>
      </trkpt>
      <trkpt lat="49.83073" lon="2.5713">
        <ele>62.3</ele>
        <time>2022-07-10T11:37:59Z</time>
      </trkpt>
      <trkpt lat="49.83072" lon="2.57129">
        <ele>62.4</ele>
        <time>2022-07-10T11:38:00Z</time>
      </trkpt>
      <trkpt lat="49.83073" lon="2.57128">
        <ele>62.4</ele>
        <time>2022-07-10T11:38:01Z</time>
      </trkpt>
      <trkpt lat="49.83072" lon="2.57126">
        <ele>62.5</ele>
        <time>2022-07-10T11:38:02Z</time>
      </trkpt>
      <trkpt lat="49.83072" lon="2.57125">
        <ele>62.6</ele>
        <time>2022-07-10T11:38:04Z</time>
      </trkpt>
      <trkpt lat="49.83071" lon="2.57122">
        <ele>62.7</ele>
        <time>2022-07-10T11:38:05Z</time>
      </trkpt>
      <trkpt lat="49.8307" lon="2.57121">
        <ele>62.8</ele>
        <time>2022-07-10T11:38:06Z</time>
      </trkpt>
      <trkpt lat="49.8307" lon="2.5712">
        <ele>62.8</ele>
        <time>2022-07-10T11:38:07Z</time>
      </trkpt>
      <trkpt lat="49.83068" lon="2.57117">
        <ele>63</ele>
        <time>2022-07-10T11:38:08Z</time>
      </trkpt>
      <trkpt lat="49.83067" lon="2.57115">
        <ele>63.1</ele>
        <time>2022-07-10T11:38:10Z</time>
      </trkpt>
      <trkpt lat="49.83067" lon="2.57114">
        <ele>63.1</ele>
        <time>2022-07-10T11:38:11Z</time>
      </trkpt>
      <trkpt lat="49.83066" lon="2.57113">
        <ele>63.2</ele>
        <time>2022-07-10T11:38:12Z</time>
      </trkpt>
      <trkpt lat="49.83065" lon="2.57112">
        <ele>63.3</ele>
        <time>2022-07-10T11:38:13Z</time>
      </trkpt>
      <trkpt lat="49.83065" lon="2.5711">
        <ele>63.4</ele>
        <time>2022-07-10T11:38:14Z</time>
      </trkpt>
      <trkpt lat="49.83064" lon="2.57108">
        <ele>63.5</ele>
        <time>2022-07-10T11:38:15Z</time>
      </trkpt>
      <trkpt lat="49.83064" lon="2.57106">
        <ele>63.6</ele>
        <time>2022-07-10T11:38:17Z</time>
      </trkpt>
      <trkpt lat="49.83063" lon="2.57105">
        <ele>63.6</ele>
        <time>2022-07-10T11:38:18Z</time>
      </trkpt>
      <trkpt lat="49.83063" lon="2.57103">
        <ele>63.7</ele>
        <time>2022-07-10T11:38:19Z</time>
      </trkpt>
      <trkpt lat="49.83063" lon="2.57102">
        <ele>63.8</ele>
        <time>2022-07-10T11:38:20Z</time>
      </trkpt>
      <trkpt lat="49.83062" lon="2.571">
        <ele>63.8</ele>
        <time>2022-07-10T11:38:21Z</time>
      </trkpt>
      <trkpt lat="49.83062" lon="2.57099">
        <ele>63.9</ele>
        <time>2022-07-10T11:38:22Z</time>
      </trkpt>
      <trkpt lat="49.83062" lon="2.57097">
        <ele>64</ele>
        <time>2022-07-10T11:38:24Z</time>
      </trkpt>
      <trkpt lat="49.83061" lon="2.57096">
        <ele>64</ele>
        <time>2022-07-10T11:38:25Z</time>
      </trkpt>
      <trkpt lat="49.83061" lon="2.57094">
        <ele>64.1</ele>
        <time>2022-07-10T11:38:26Z</time>
      </trkpt>
      <trkpt lat="49.83061" lon="2.57093">
        <ele>64.2</ele>
        <time>2022-07-10T11:38:27Z</time>
      </trkpt>
      <trkpt lat="49.8306" lon="2.5709">
        <ele>64.3</ele>
        <time>2022-07-10T11:38:28Z</time>
      </trkpt>
      <trkpt lat="49.8306" lon="2.57089">
        <ele>64.3</ele>
        <time>2022-07-10T11:38:29Z</time>
      </trkpt>
      <trkpt lat="49.8306" lon="2.57088">
        <ele>64.4</ele>
        <time>2022-07-10T11:38:30Z</time>
      </trkpt>
      <trkpt lat="49.83059" lon="2.57085">
        <ele>64.5</ele>
        <time>2022-07-10T11:38:31Z</time>
      </trkpt>
      <trkpt lat="49.83058" lon="2.57083">
        <ele>64.6</ele>
        <time>2022-07-10T11:38:32Z</time>
      </trkpt>
      <trkpt lat="49.83058" lon="2.57082">
        <ele>64.6</ele>
        <time>2022-07-10T11:38:33Z</time>
      </trkpt>
      <trkpt lat="49.83057" lon="2.5708">
        <ele>64.7</ele>
        <time>2022-07-10T11:38:34Z</time>
      </trkpt>
      <trkpt lat="49.83057" lon="2.57078">
        <ele>64.8</ele>
        <time>2022-07-10T11:38:35Z</time>
      </trkpt>
      <trkpt lat="49.83056" lon="2.57075">
        <ele>64.9</ele>
        <time>2022-07-10T11:38:37Z</time>
      </trkpt>
      <trkpt lat="49.83055" lon="2.57074">
        <ele>65</ele>
        <time>2022-07-10T11:38:38Z</time>
      </trkpt>
      <trkpt lat="49.83055" lon="2.57072">
        <ele>65</ele>
        <time>2022-07-10T11:38:39Z</time>
      </trkpt>
      <trkpt lat="49.83055" lon="2.57071">
        <ele>65.1</ele>
        <time>2022-07-10T11:38:40Z</time>
      </trkpt>
      <trkpt lat="49.83054" lon="2.57069">
        <ele>65.2</ele>
        <time>2022-07-10T11:38:41Z</time>
      </trkpt>
      <trkpt lat="49.83054" lon="2.57067">
        <ele>65.3</ele>
        <time>2022-07-10T11:38:43Z</time>
      </trkpt>
      <trkpt lat="49.83053" lon="2.57064">
        <ele>65.4</ele>
        <time>2022-07-10T11:38:44Z</time>
      </trkpt>
      <trkpt lat="49.83052" lon="2.57063">
        <ele>65.4</ele>
        <time>2022-07-10T11:38:45Z</time>
      </trkpt>
      <trkpt lat="49.83052" lon="2.57062">
        <ele>65.5</ele>
        <time>2022-07-10T11:38:46Z</time>
      </trkpt>
      <trkpt lat="49.83052" lon="2.5706">
        <ele>65.5</ele>
        <time>2022-07-10T11:38:47Z</time>
      </trkpt>
      <trkpt lat="49.83051" lon="2.57058">
        <ele>65.6</ele>
        <time>2022-07-10T11:38:48Z</time>
      </trkpt>
      <trkpt lat="49.83051" lon="2.57057">
        <ele>65.6</ele>
        <time>2022-07-10T11:38:50Z</time>
      </trkpt>
      <trkpt lat="49.8305" lon="2.57055">
        <ele>65.7</ele>
        <time>2022-07-10T11:38:51Z</time>
      </trkpt>
      <trkpt lat="49.8305" lon="2.57053">
        <ele>65.8</ele>
        <time>2022-07-10T11:38:52Z</time>
      </trkpt>
      <trkpt lat="49.83049" lon="2.57051">
        <ele>65.8</ele>
        <time>2022-07-10T11:38:53Z</time>
      </trkpt>
      <trkpt lat="49.83049" lon="2.57048">
        <ele>65.9</ele>
        <time>2022-07-10T11:38:54Z</time>
      </trkpt>
      <trkpt lat="49.83048" lon="2.57047">
        <ele>66</ele>
        <time>2022-07-10T11:38:55Z</time>
      </trkpt>
      <trkpt lat="49.83048" lon="2.57045">
        <ele>66</ele>
        <time>2022-07-10T11:38:57Z</time>
      </trkpt>
      <trkpt lat="49.83048" lon="2.57044">
        <ele>66.1</ele>
        <time>2022-07-10T11:38:58Z</time>
      </trkpt>
      <trkpt lat="49.83048" lon="2.57042">
        <ele>66.1</ele>
        <time>2022-07-10T11:38:59Z</time>
      </trkpt>
      <trkpt lat="49.83047" lon="2.57041">
        <ele>66.2</ele>
        <time>2022-07-10T11:39:00Z</time>
      </trkpt>
      <trkpt lat="49.83046" lon="2.57038">
        <ele>66.3</ele>
        <time>2022-07-10T11:39:01Z</time>
      </trkpt>
      <trkpt lat="49.83046" lon="2.57037">
        <ele>66.3</ele>
        <time>2022-07-10T11:39:03Z</time>
      </trkpt>
      <trkpt lat="49.83046" lon="2.57035">
        <ele>66.4</ele>
        <time>2022-07-10T11:39:04Z</time>
      </trkpt>
      <trkpt lat="49.83045" lon="2.57033">
        <ele>66.5</ele>
        <time>2022-07-10T11:39:05Z</time>
      </trkpt>
      <trkpt lat="49.83045" lon="2.57031">
        <ele>66.5</ele>
        <time>2022-07-10T11:39:06Z</time>
      </trkpt>
      <trkpt lat="49.83044" lon="2.57029">
        <ele>66.6</ele>
        <time>2022-07-10T11:39:07Z</time>
      </trkpt>
      <trkpt lat="49.83044" lon="2.57027">
        <ele>66.7</ele>
        <time>2022-07-10T11:39:08Z</time>
      </trkpt>
      <trkpt lat="49.83044" lon="2.57024">
        <ele>66.8</ele>
        <time>2022-07-10T11:39:10Z</time>
      </trkpt>
      <trkpt lat="49.83043" lon="2.57023">
        <ele>66.8</ele>
        <time>2022-07-10T11:39:11Z</time>
      </trkpt>
      <trkpt lat="49.83043" lon="2.57021">
        <ele>66.9</ele>
        <time>2022-07-10T11:39:12Z</time>
      </trkpt>
      <trkpt lat="49.83042" lon="2.57019">
        <ele>67</ele>
        <time>2022-07-10T11:39:13Z</time>
      </trkpt>
      <trkpt lat="49.83042" lon="2.57017">
        <ele>67</ele>
        <time>2022-07-10T11:39:14Z</time>
      </trkpt>
      <trkpt lat="49.83041" lon="2.57013">
        <ele>67.2</ele>
        <time>2022-07-10T11:39:15Z</time>
      </trkpt>
      <trkpt lat="49.8304" lon="2.57012">
        <ele>67.2</ele>
        <time>2022-07-10T11:39:17Z</time>
      </trkpt>
      <trkpt lat="49.8304" lon="2.5701">
        <ele>67.3</ele>
        <time>2022-07-10T11:39:18Z</time>
      </trkpt>
      <trkpt lat="49.8304" lon="2.57009">
        <ele>67.3</ele>
        <time>2022-07-10T11:39:19Z</time>
      </trkpt>
      <trkpt lat="49.83039" lon="2.57007">
        <ele>67.4</ele>
        <time>2022-07-10T11:39:20Z</time>
      </trkpt>
      <trkpt lat="49.83039" lon="2.57005">
        <ele>67.5</ele>
        <time>2022-07-10T11:39:21Z</time>
      </trkpt>
      <trkpt lat="49.83038" lon="2.57003">
        <ele>67.5</ele>
        <time>2022-07-10T11:39:22Z</time>
      </trkpt>
      <trkpt lat="49.83038" lon="2.57002">
        <ele>67.6</ele>
        <time>2022-07-10T11:39:24Z</time>
      </trkpt>
      <trkpt lat="49.83038" lon="2.57">
        <ele>67.6</ele>
        <time>2022-07-10T11:39:25Z</time>
      </trkpt>
      <trkpt lat="49.83037" lon="2.56999">
        <ele>67.7</ele>
        <time>2022-07-10T11:39:26Z</time>
      </trkpt>
      <trkpt lat="49.83037" lon="2.56997">
        <ele>67.7</ele>
        <time>2022-07-10T11:39:27Z</time>
      </trkpt>
      <trkpt lat="49.83037" lon="2.56996">
        <ele>67.8</ele>
        <time>2022-07-10T11:39:28Z</time>
      </trkpt>
      <trkpt lat="49.83036" lon="2.56994">
        <ele>67.8</ele>
        <time>2022-07-10T11:39:29Z</time>
      </trkpt>
      <trkpt lat="49.83036" lon="2.56992">
        <ele>67.9</ele>
        <time>2022-07-10T11:39:30Z</time>
      </trkpt>
      <trkpt lat="49.83036" lon="2.56991">
        <ele>67.9</ele>
        <time>2022-07-10T11:39:32Z</time>
      </trkpt>
      <trkpt lat="49.83035" lon="2.56989">
        <ele>68</ele>
        <time>2022-07-10T11:39:33Z</time>
      </trkpt>
      <trkpt lat="49.83035" lon="2.56987">
        <ele>68</ele>
        <time>2022-07-10T11:39:34Z</time>
      </trkpt>
      <trkpt lat="49.83035" lon="2.56985">
        <ele>68.1</ele>
        <time>2022-07-10T11:39:35Z</time>
      </trkpt>
      <trkpt lat="49.83034" lon="2.56984">
        <ele>68.1</ele>
        <time>2022-07-10T11:39:36Z</time>
      </trkpt>
      <trkpt lat="49.83034" lon="2.56982">
        <ele>68.2</ele>
        <time>2022-07-10T11:39:37Z</time>
      </trkpt>
      <trkpt lat="49.83033" lon="2.56979">
        <ele>68.2</ele>
        <time>2022-07-10T11:39:39Z</time>
      </trkpt>
      <trkpt lat="49.83033" lon="2.56978">
        <ele>68.3</ele>
        <time>2022-07-10T11:39:40Z</time>
      </trkpt>
      <trkpt lat="49.83033" lon="2.56977">
        <ele>68.3</ele>
        <time>2022-07-10T11:39:41Z</time>
      </trkpt>
      <trkpt lat="49.83033" lon="2.56975">
        <ele>68.3</ele>
        <time>2022-07-10T11:39:42Z</time>
      </trkpt>
      <trkpt lat="49.83032" lon="2.56974">
        <ele>68.4</ele>
        <time>2022-07-10T11:39:43Z</time>
      </trkpt>
      <trkpt lat="49.83032" lon="2.56972">
        <ele>68.4</ele>
        <time>2022-07-10T11:39:44Z</time>
      </trkpt>
      <trkpt lat="49.83031" lon="2.56969">
        <ele>68.5</ele>
        <time>2022-07-10T11:39:46Z</time>
      </trkpt>
      <trkpt lat="49.8303" lon="2.56968">
        <ele>68.5</ele>
        <time>2022-07-10T11:39:47Z</time>
      </trkpt>
      <trkpt lat="49.8303" lon="2.56967">
        <ele>68.6</ele>
        <time>2022-07-10T11:39:48Z</time>
      </trkpt>
      <trkpt lat="49.8303" lon="2.56965">
        <ele>68.6</ele>
        <time>2022-07-10T11:39:49Z</time>
      </trkpt>
      <trkpt lat="49.83029" lon="2.56963">
        <ele>68.6</ele>
        <time>2022-07-10T11:39:50Z</time>
      </trkpt>
      <trkpt lat="49.83029" lon="2.56962">
        <ele>68.7</ele>
        <time>2022-07-10T11:39:51Z</time>
      </trkpt>
      <trkpt lat="49.83029" lon="2.5696">
        <ele>68.7</ele>
        <time>2022-07-10T11:39:53Z</time>
      </trkpt>
      <trkpt lat="49.83028" lon="2.56958">
        <ele>68.7</ele>
        <time>2022-07-10T11:39:54Z</time>
      </trkpt>
      <trkpt lat="49.83028" lon="2.56956">
        <ele>68.7</ele>
        <time>2022-07-10T11:39:55Z</time>
      </trkpt>
      <trkpt lat="49.83028" lon="2.56955">
        <ele>68.8</ele>
        <time>2022-07-10T11:39:56Z</time>
      </trkpt>
      <trkpt lat="49.83029" lon="2.56953">
        <ele>68.8</ele>
        <time>2022-07-10T11:39:57Z</time>
      </trkpt>
      <trkpt lat="49.83029" lon="2.56951">
        <ele>68.8</ele>
        <time>2022-07-10T11:39:58Z</time>
      </trkpt>
      <trkpt lat="49.83029" lon="2.56949">
        <ele>68.8</ele>
        <time>2022-07-10T11:40:00Z</time>
      </trkpt>
      <trkpt lat="49.83029" lon="2.56947">
        <ele>68.8</ele>
        <time>2022-07-10T11:40:01Z</time>
      </trkpt>
      <trkpt lat="49.83029" lon="2.56946">
        <ele>68.9</ele>
        <time>2022-07-10T11:40:02Z</time>
      </trkpt>
      <trkpt lat="49.83029" lon="2.56944">
        <ele>68.9</ele>
        <time>2022-07-10T11:40:03Z</time>
      </trkpt>
      <trkpt lat="49.83029" lon="2.56942">
        <ele>68.9</ele>
        <time>2022-07-10T11:40:04Z</time>
      </trkpt>
      <trkpt lat="49.83029" lon="2.5694">
        <ele>68.9</ele>
        <time>2022-07-10T11:40:05Z</time>
      </trkpt>
      <trkpt lat="49.83029" lon="2.56939">
        <ele>68.9</ele>
        <time>2022-07-10T11:40:07Z</time>
      </trkpt>
      <trkpt lat="49.83029" lon="2.56937">
        <ele>68.9</ele>
        <time>2022-07-10T11:40:08Z</time>
      </trkpt>
      <trkpt lat="49.83029" lon="2.56935">
        <ele>68.9</ele>
        <time>2022-07-10T11:40:09Z</time>
      </trkpt>
      <trkpt lat="49.8303" lon="2.56934">
        <ele>68.9</ele>
        <time>2022-07-10T11:40:10Z</time>
      </trkpt>
      <trkpt lat="49.8303" lon="2.56932">
        <ele>68.9</ele>
        <time>2022-07-10T11:40:12Z</time>
      </trkpt>
      <trkpt lat="49.8303" lon="2.56931">
        <ele>68.9</ele>
        <time>2022-07-10T11:40:13Z</time>
      </trkpt>
      <trkpt lat="49.8303" lon="2.56929">
        <ele>68.9</ele>
        <time>2022-07-10T11:40:14Z</time>
      </trkpt>
      <trkpt lat="49.8303" lon="2.56927">
        <ele>68.9</ele>
        <time>2022-07-10T11:40:15Z</time>
      </trkpt>
      <trkpt lat="49.83029" lon="2.56926">
        <ele>68.8</ele>
        <time>2022-07-10T11:40:16Z</time>
      </trkpt>
      <trkpt lat="49.83029" lon="2.56924">
        <ele>68.8</ele>
        <time>2022-07-10T11:40:17Z</time>
      </trkpt>
      <trkpt lat="49.83029" lon="2.56921">
        <ele>68.8</ele>
        <time>2022-07-10T11:40:18Z</time>
      </trkpt>
      <trkpt lat="49.83029" lon="2.56919">
        <ele>68.8</ele>
        <time>2022-07-10T11:40:19Z</time>
      </trkpt>
      <trkpt lat="49.83029" lon="2.56917">
        <ele>68.8</ele>
        <time>2022-07-10T11:40:20Z</time>
      </trkpt>
      <trkpt lat="49.83029" lon="2.56915">
        <ele>68.8</ele>
        <time>2022-07-10T11:40:22Z</time>
      </trkpt>
      <trkpt lat="49.83029" lon="2.56912">
        <ele>68.9</ele>
        <time>2022-07-10T11:40:23Z</time>
      </trkpt>
      <trkpt lat="49.83029" lon="2.5691">
        <ele>68.9</ele>
        <time>2022-07-10T11:40:24Z</time>
      </trkpt>
      <trkpt lat="49.83029" lon="2.56909">
        <ele>68.9</ele>
        <time>2022-07-10T11:40:25Z</time>
      </trkpt>
      <trkpt lat="49.83029" lon="2.56907">
        <ele>68.9</ele>
        <time>2022-07-10T11:40:26Z</time>
      </trkpt>
      <trkpt lat="49.83029" lon="2.56905">
        <ele>68.9</ele>
        <time>2022-07-10T11:40:27Z</time>
      </trkpt>
      <trkpt lat="49.83029" lon="2.56903">
        <ele>68.9</ele>
        <time>2022-07-10T11:40:29Z</time>
      </trkpt>
      <trkpt lat="49.83029" lon="2.569">
        <ele>68.9</ele>
        <time>2022-07-10T11:40:30Z</time>
      </trkpt>
      <trkpt lat="49.83029" lon="2.56898">
        <ele>68.9</ele>
        <time>2022-07-10T11:40:31Z</time>
      </trkpt>
      <trkpt lat="49.83028" lon="2.56896">
        <ele>69</ele>
        <time>2022-07-10T11:40:32Z</time>
      </trkpt>
      <trkpt lat="49.83028" lon="2.56894">
        <ele>69</ele>
        <time>2022-07-10T11:40:34Z</time>
      </trkpt>
      <trkpt lat="49.83027" lon="2.56892">
        <ele>69</ele>
        <time>2022-07-10T11:40:35Z</time>
      </trkpt>
      <trkpt lat="49.83027" lon="2.56892">
        <ele>69</ele>
        <time>2022-07-10T11:40:36Z</time>
      </trkpt>
      <trkpt lat="49.83026" lon="2.56892">
        <ele>69.1</ele>
        <time>2022-07-10T11:40:37Z</time>
      </trkpt>
      <trkpt lat="49.83025" lon="2.56893">
        <ele>69.1</ele>
        <time>2022-07-10T11:40:38Z</time>
      </trkpt>
      <trkpt lat="49.83025" lon="2.56893">
        <ele>69.1</ele>
        <time>2022-07-10T11:40:39Z</time>
      </trkpt>
      <trkpt lat="49.83024" lon="2.56894">
        <ele>69.1</ele>
        <time>2022-07-10T11:40:40Z</time>
      </trkpt>
      <trkpt lat="49.83024" lon="2.56894">
        <ele>69.1</ele>
        <time>2022-07-10T11:40:41Z</time>
      </trkpt>
      <trkpt lat="49.83024" lon="2.56895">
        <ele>69.1</ele>
        <time>2022-07-10T11:40:42Z</time>
      </trkpt>
      <trkpt lat="49.83024" lon="2.56895">
        <ele>69.1</ele>
        <time>2022-07-10T11:40:43Z</time>
      </trkpt>
      <trkpt lat="49.83024" lon="2.56895">
        <ele>69.1</ele>
        <time>2022-07-10T11:40:44Z</time>
      </trkpt>
      <trkpt lat="49.83024" lon="2.56896">
        <ele>69.2</ele>
        <time>2022-07-10T11:40:45Z</time>
      </trkpt>
      <trkpt lat="49.83023" lon="2.56896">
        <ele>69.2</ele>
        <time>2022-07-10T11:40:46Z</time>
      </trkpt>
      <trkpt lat="49.83023" lon="2.56896">
        <ele>69.2</ele>
        <time>2022-07-10T11:40:47Z</time>
      </trkpt>
      <trkpt lat="49.83024" lon="2.56896">
        <ele>69.2</ele>
        <time>2022-07-10T11:40:48Z</time>
      </trkpt>
      <trkpt lat="49.83024" lon="2.56896">
        <ele>69.2</ele>
        <time>2022-07-10T11:40:49Z</time>
      </trkpt>
      <trkpt lat="49.83024" lon="2.56896">
        <ele>69.2</ele>
        <time>2022-07-10T11:40:50Z</time>
      </trkpt>
      <trkpt lat="49.83024" lon="2.56896">
        <ele>69.2</ele>
        <time>2022-07-10T11:40:51Z</time>
      </trkpt>
      <trkpt lat="49.83024" lon="2.56896">
        <ele>69.2</ele>
        <time>2022-07-10T11:40:52Z</time>
      </trkpt>
      <trkpt lat="49.83024" lon="2.56896">
        <ele>69.2</ele>
        <time>2022-07-10T11:40:53Z</time>
      </trkpt>
      <trkpt lat="49.83024" lon="2.56896">
        <ele>69.2</ele>
        <time>2022-07-10T11:40:54Z</time>
      </trkpt>
      <trkpt lat="49.83025" lon="2.56896">
        <ele>69.2</ele>
        <time>2022-07-10T11:40:55Z</time>
      </trkpt>
      <trkpt lat="49.83025" lon="2.56897">
        <ele>69.2</ele>
        <time>2022-07-10T11:40:56Z</time>
      </trkpt>
      <trkpt lat="49.83025" lon="2.56897">
        <ele>69.2</ele>
        <time>2022-07-10T11:40:57Z</time>
      </trkpt>
      <trkpt lat="49.83025" lon="2.56897">
        <ele>69.2</ele>
        <time>2022-07-10T11:40:58Z</time>
      </trkpt>
      <trkpt lat="49.83025" lon="2.56897">
        <ele>69.2</ele>
        <time>2022-07-10T11:40:59Z</time>
      </trkpt>
      <trkpt lat="49.83025" lon="2.56897">
        <ele>69.2</ele>
        <time>2022-07-10T11:41:00Z</time>
      </trkpt>
      <trkpt lat="49.83025" lon="2.56897">
        <ele>69.2</ele>
        <time>2022-07-10T11:41:01Z</time>
      </trkpt>
      <trkpt lat="49.83025" lon="2.56897">
        <ele>69.2</ele>
        <time>2022-07-10T11:41:02Z</time>
      </trkpt>
      <trkpt lat="49.83025" lon="2.56897">
        <ele>69.2</ele>
        <time>2022-07-10T11:41:03Z</time>
      </trkpt>
      <trkpt lat="49.83025" lon="2.56897">
        <ele>69.2</ele>
        <time>2022-07-10T11:41:04Z</time>
      </trkpt>
      <trkpt lat="49.83025" lon="2.56897">
        <ele>69.2</ele>
        <time>2022-07-10T11:41:05Z</time>
      </trkpt>
      <trkpt lat="49.83025" lon="2.56897">
        <ele>69.2</ele>
        <time>2022-07-10T11:41:06Z</time>
      </trkpt>
      <trkpt lat="49.83025" lon="2.56897">
        <ele>69.2</ele>
        <time>2022-07-10T11:41:07Z</time>
      </trkpt>
      <trkpt lat="49.83025" lon="2.56897">
        <ele>69.2</ele>
        <time>2022-07-10T11:41:08Z</time>
      </trkpt>
      <trkpt lat="49.83025" lon="2.56897">
        <ele>69.2</ele>
        <time>2022-07-10T11:41:09Z</time>
      </trkpt>
      <trkpt lat="49.83025" lon="2.56897">
        <ele>69.2</ele>
        <time>2022-07-10T11:41:10Z</time>
      </trkpt>
      <trkpt lat="49.83025" lon="2.56897">
        <ele>69.2</ele>
        <time>2022-07-10T11:41:11Z</time>
      </trkpt>
      <trkpt lat="49.83025" lon="2.56897">
        <ele>69.2</ele>
        <time>2022-07-10T11:41:12Z</time>
      </trkpt>
      <trkpt lat="49.83025" lon="2.56897">
        <ele>69.2</ele>
        <time>2022-07-10T11:41:13Z</time>
      </trkpt>
      <trkpt lat="49.83025" lon="2.56897">
        <ele>69.2</ele>
        <time>2022-07-10T11:41:14Z</time>
      </trkpt>
      <trkpt lat="49.83025" lon="2.56897">
        <ele>69.2</ele>
        <time>2022-07-10T11:41:15Z</time>
      </trkpt>
      <trkpt lat="49.83025" lon="2.56897">
        <ele>69.2</ele>
        <time>2022-07-10T11:41:16Z</time>
      </trkpt>
      <trkpt lat="49.83025" lon="2.56897">
        <ele>69.2</ele>
        <time>2022-07-10T11:41:17Z</time>
      </trkpt>
      <trkpt lat="49.83025" lon="2.56897">
        <ele>69.2</ele>
        <time>2022-07-10T11:41:18Z</time>
      </trkpt>
      <trkpt lat="49.83025" lon="2.56897">
        <ele>69.2</ele>
        <time>2022-07-10T11:41:19Z</time>
      </trkpt>
      <trkpt lat="49.83025" lon="2.56897">
        <ele>69.2</ele>
        <time>2022-07-10T11:41:20Z</time>
      </trkpt>
      <trkpt lat="49.83025" lon="2.56897">
        <ele>69.2</ele>
        <time>2022-07-10T11:41:21Z</time>
      </trkpt>
      <trkpt lat="49.83025" lon="2.56897">
        <ele>69.2</ele>
        <time>2022-07-10T11:41:22Z</time>
      </trkpt>
      <trkpt lat="49.83025" lon="2.56897">
        <ele>69.2</ele>
        <time>2022-07-10T11:41:23Z</time>
      </trkpt>
      <trkpt lat="49.83025" lon="2.56897">
        <ele>69.2</ele>
        <time>2022-07-10T11:41:24Z</time>
      </trkpt>
      <trkpt lat="49.83025" lon="2.56897">
        <ele>69.2</ele>
        <time>2022-07-10T11:41:25Z</time>
      </trkpt>
      <trkpt lat="49.83025" lon="2.56897">
        <ele>69.2</ele>
        <time>2022-07-10T11:41:26Z</time>
      </trkpt>
      <trkpt lat="49.83025" lon="2.56897">
        <ele>69.2</ele>
        <time>2022-07-10T11:41:27Z</time>
      </trkpt>
      <trkpt lat="49.83025" lon="2.56897">
        <ele>69.2</ele>
        <time>2022-07-10T11:41:28Z</time>
      </trkpt>
      <trkpt lat="49.83025" lon="2.56897">
        <ele>69.2</ele>
        <time>2022-07-10T11:41:29Z</time>
      </trkpt>
      <trkpt lat="49.83025" lon="2.56897">
        <ele>69.2</ele>
        <time>2022-07-10T11:41:30Z</time>
      </trkpt>
      <trkpt lat="49.83025" lon="2.56897">
        <ele>69.2</ele>
        <time>2022-07-10T11:41:31Z</time>
      </trkpt>
      <trkpt lat="49.83025" lon="2.56897">
        <ele>69.2</ele>
        <time>2022-07-10T11:41:32Z</time>
      </trkpt>
      <trkpt lat="49.83025" lon="2.56897">
        <ele>69.2</ele>
        <time>2022-07-10T11:41:33Z</time>
      </trkpt>
      <trkpt lat="49.83025" lon="2.56897">
        <ele>69.2</ele>
        <time>2022-07-10T11:41:34Z</time>
      </trkpt>
      <trkpt lat="49.83025" lon="2.56897">
        <ele>69.2</ele>
        <time>2022-07-10T11:41:35Z</time>
      </trkpt>
      <trkpt lat="49.83025" lon="2.56897">
        <ele>69.2</ele>
        <time>2022-07-10T11:41:36Z</time>
      </trkpt>
      <trkpt lat="49.83025" lon="2.56897">
        <ele>69.2</ele>
        <time>2022-07-10T11:41:37Z</time>
      </trkpt>
      <trkpt lat="49.83025" lon="2.56897">
        <ele>69.2</ele>
        <time>2022-07-10T11:41:38Z</time>
      </trkpt>
      <trkpt lat="49.83025" lon="2.56897">
        <ele>69.2</ele>
        <time>2022-07-10T11:41:39Z</time>
      </trkpt>
      <trkpt lat="49.83025" lon="2.56897">
        <ele>69.2</ele>
        <time>2022-07-10T11:41:40Z</time>
      </trkpt>
      <trkpt lat="49.83025" lon="2.56897">
        <ele>69.2</ele>
        <time>2022-07-10T11:41:41Z</time>
      </trkpt>
      <trkpt lat="49.83025" lon="2.56897">
        <ele>69.2</ele>
        <time>2022-07-10T11:41:42Z</time>
      </trkpt>
      <trkpt lat="49.83025" lon="2.56897">
        <ele>69.2</ele>
        <time>2022-07-10T11:41:43Z</time>
      </trkpt>
      <trkpt lat="49.83025" lon="2.56897">
        <ele>69.2</ele>
        <time>2022-07-10T11:41:44Z</time>
      </trkpt>
      <trkpt lat="49.83025" lon="2.56897">
        <ele>69.2</ele>
        <time>2022-07-10T11:41:45Z</time>
      </trkpt>
      <trkpt lat="49.83025" lon="2.56897">
        <ele>69.2</ele>
        <time>2022-07-10T11:41:46Z</time>
      </trkpt>
      <trkpt lat="49.83025" lon="2.56897">
        <ele>69.2</ele>
        <time>2022-07-10T11:41:47Z</time>
      </trkpt>
      <trkpt lat="49.83025" lon="2.56897">
        <ele>69.2</ele>
        <time>2022-07-10T11:41:48Z</time>
      </trkpt>
      <trkpt lat="49.83025" lon="2.56897">
        <ele>69.2</ele>
        <time>2022-07-10T11:41:49Z</time>
      </trkpt>
      <trkpt lat="49.83025" lon="2.56897">
        <ele>69.2</ele>
        <time>2022-07-10T11:41:50Z</time>
      </trkpt>
      <trkpt lat="49.83025" lon="2.56897">
        <ele>69.2</ele>
        <time>2022-07-10T11:41:51Z</time>
      </trkpt>
      <trkpt lat="49.83025" lon="2.56897">
        <ele>69.2</ele>
        <time>2022-07-10T11:41:52Z</time>
      </trkpt>
      <trkpt lat="49.83025" lon="2.56897">
        <ele>69.2</ele>
        <time>2022-07-10T11:41:53Z</time>
      </trkpt>
      <trkpt lat="49.83025" lon="2.56897">
        <ele>69.2</ele>
        <time>2022-07-10T11:41:54Z</time>
      </trkpt>
      <trkpt lat="49.83025" lon="2.56897">
        <ele>69.2</ele>
        <time>2022-07-10T11:41:55Z</time>
      </trkpt>
      <trkpt lat="49.83025" lon="2.56897">
        <ele>69.2</ele>
        <time>2022-07-10T11:41:56Z</time>
      </trkpt>
      <trkpt lat="49.83025" lon="2.56897">
        <ele>69.2</ele>
        <time>2022-07-10T11:41:57Z</time>
      </trkpt>
      <trkpt lat="49.83025" lon="2.56897">
        <ele>69.2</ele>
        <time>2022-07-10T11:41:58Z</time>
      </trkpt>
      <trkpt lat="49.83025" lon="2.56897">
        <ele>69.2</ele>
        <time>2022-07-10T11:41:59Z</time>
      </trkpt>
      <trkpt lat="49.83025" lon="2.56897">
        <ele>69.2</ele>
        <time>2022-07-10T11:42:00Z</time>
      </trkpt>
      <trkpt lat="49.83025" lon="2.56897">
        <ele>69.2</ele>
        <time>2022-07-10T11:42:01Z</time>
      </trkpt>
      <trkpt lat="49.83025" lon="2.56897">
        <ele>69.2</ele>
        <time>2022-07-10T11:42:02Z</time>
      </trkpt>
      <trkpt lat="49.83025" lon="2.56897">
        <ele>69.2</ele>
        <time>2022-07-10T11:42:03Z</time>
      </trkpt>
      <trkpt lat="49.83025" lon="2.56897">
        <ele>69.2</ele>
        <time>2022-07-10T11:42:04Z</time>
      </trkpt>
      <trkpt lat="49.83025" lon="2.56897">
        <ele>69.2</ele>
        <time>2022-07-10T11:42:05Z</time>
      </trkpt>
      <trkpt lat="49.83025" lon="2.56897">
        <ele>69.2</ele>
        <time>2022-07-10T11:42:06Z</time>
      </trkpt>
      <trkpt lat="49.83025" lon="2.56897">
        <ele>69.2</ele>
        <time>2022-07-10T11:42:07Z</time>
      </trkpt>
      <trkpt lat="49.83025" lon="2.56897">
        <ele>69.2</ele>
        <time>2022-07-10T11:42:08Z</time>
      </trkpt>
      <trkpt lat="49.83026" lon="2.56896">
        <ele>69.3</ele>
        <time>2022-07-10T11:42:09Z</time>
      </trkpt>
      <trkpt lat="49.83027" lon="2.56896">
        <ele>69.3</ele>
        <time>2022-07-10T11:42:10Z</time>
      </trkpt>
      <trkpt lat="49.83028" lon="2.56896">
        <ele>69.3</ele>
        <time>2022-07-10T11:42:11Z</time>
      </trkpt>
      <trkpt lat="49.83028" lon="2.56896">
        <ele>69.3</ele>
        <time>2022-07-10T11:42:12Z</time>
      </trkpt>
      <trkpt lat="49.83028" lon="2.56896">
        <ele>69.3</ele>
        <time>2022-07-10T11:42:13Z</time>
      </trkpt>
      <trkpt lat="49.83028" lon="2.56896">
        <ele>69.3</ele>
        <time>2022-07-10T11:42:14Z</time>
      </trkpt>
      <trkpt lat="49.83028" lon="2.56896">
        <ele>69.3</ele>
        <time>2022-07-10T11:42:15Z</time>
      </trkpt>
      <trkpt lat="49.83028" lon="2.56896">
        <ele>69.3</ele>
        <time>2022-07-10T11:42:16Z</time>
      </trkpt>
      <trkpt lat="49.83028" lon="2.56896">
        <ele>69.3</ele>
        <time>2022-07-10T11:42:17Z</time>
      </trkpt>
      <trkpt lat="49.83028" lon="2.56896">
        <ele>69.3</ele>
        <time>2022-07-10T11:42:18Z</time>
      </trkpt>
      <trkpt lat="49.83028" lon="2.56897">
        <ele>69.3</ele>
        <time>2022-07-10T11:42:19Z</time>
      </trkpt>
      <trkpt lat="49.83028" lon="2.56897">
        <ele>69.3</ele>
        <time>2022-07-10T11:42:20Z</time>
      </trkpt>
      <trkpt lat="49.83028" lon="2.56897">
        <ele>69.3</ele>
        <time>2022-07-10T11:42:21Z</time>
      </trkpt>
      <trkpt lat="49.83028" lon="2.56897">
        <ele>69.3</ele>
        <time>2022-07-10T11:42:22Z</time>
      </trkpt>
      <trkpt lat="49.83028" lon="2.56897">
        <ele>69.3</ele>
        <time>2022-07-10T11:42:23Z</time>
      </trkpt>
      <trkpt lat="49.83028" lon="2.56897">
        <ele>69.3</ele>
        <time>2022-07-10T11:42:24Z</time>
      </trkpt>
      <trkpt lat="49.83028" lon="2.56897">
        <ele>69.3</ele>
        <time>2022-07-10T11:42:25Z</time>
      </trkpt>
      <trkpt lat="49.83028" lon="2.56897">
        <ele>69.3</ele>
        <time>2022-07-10T11:42:26Z</time>
      </trkpt>
      <trkpt lat="49.83028" lon="2.56897">
        <ele>69.3</ele>
        <time>2022-07-10T11:42:27Z</time>
      </trkpt>
      <trkpt lat="49.83028" lon="2.56897">
        <ele>69.3</ele>
        <time>2022-07-10T11:42:28Z</time>
      </trkpt>
      <trkpt lat="49.83028" lon="2.56896">
        <ele>69.3</ele>
        <time>2022-07-10T11:42:29Z</time>
      </trkpt>
      <trkpt lat="49.83028" lon="2.56896">
        <ele>69.3</ele>
        <time>2022-07-10T11:42:30Z</time>
      </trkpt>
      <trkpt lat="49.83028" lon="2.56896">
        <ele>69.3</ele>
        <time>2022-07-10T11:42:31Z</time>
      </trkpt>
      <trkpt lat="49.83028" lon="2.56896">
        <ele>69.3</ele>
        <time>2022-07-10T11:42:32Z</time>
      </trkpt>
      <trkpt lat="49.83028" lon="2.56896">
        <ele>69.3</ele>
        <time>2022-07-10T11:42:33Z</time>
      </trkpt>
      <trkpt lat="49.83028" lon="2.56896">
        <ele>69.3</ele>
        <time>2022-07-10T11:42:34Z</time>
      </trkpt>
      <trkpt lat="49.83028" lon="2.56896">
        <ele>69.3</ele>
        <time>2022-07-10T11:42:35Z</time>
      </trkpt>
      <trkpt lat="49.83028" lon="2.56896">
        <ele>69.3</ele>
        <time>2022-07-10T11:42:36Z</time>
      </trkpt>
      <trkpt lat="49.83028" lon="2.56896">
        <ele>69.3</ele>
        <time>2022-07-10T11:42:37Z</time>
      </trkpt>
      <trkpt lat="49.83028" lon="2.56896">
        <ele>69.3</ele>
        <time>2022-07-10T11:42:38Z</time>
      </trkpt>
      <trkpt lat="49.83028" lon="2.56896">
        <ele>69.3</ele>
        <time>2022-07-10T11:42:39Z</time>
      </trkpt>
      <trkpt lat="49.83028" lon="2.56896">
        <ele>69.3</ele>
        <time>2022-07-10T11:42:40Z</time>
      </trkpt>
      <trkpt lat="49.83028" lon="2.56896">
        <ele>69.3</ele>
        <time>2022-07-10T11:42:41Z</time>
      </trkpt>
      <trkpt lat="49.83028" lon="2.56896">
        <ele>69.3</ele>
        <time>2022-07-10T11:42:42Z</time>
      </trkpt>
      <trkpt lat="49.83028" lon="2.56896">
        <ele>69.3</ele>
        <time>2022-07-10T11:42:43Z</time>
      </trkpt>
      <trkpt lat="49.83028" lon="2.56896">
        <ele>69.3</ele>
        <time>2022-07-10T11:42:44Z</time>
      </trkpt>
      <trkpt lat="49.83028" lon="2.56896">
        <ele>69.3</ele>
        <time>2022-07-10T11:42:45Z</time>
      </trkpt>
      <trkpt lat="49.83028" lon="2.56896">
        <ele>69.3</ele>
        <time>2022-07-10T11:42:46Z</time>
      </trkpt>
      <trkpt lat="49.83028" lon="2.56896">
        <ele>69.3</ele>
        <time>2022-07-10T11:42:47Z</time>
      </trkpt>
      <trkpt lat="49.83028" lon="2.56896">
        <ele>69.3</ele>
        <time>2022-07-10T11:42:48Z</time>
      </trkpt>
      <trkpt lat="49.83028" lon="2.56896">
        <ele>69.3</ele>
        <time>2022-07-10T11:42:49Z</time>
      </trkpt>
      <trkpt lat="49.83028" lon="2.56896">
        <ele>69.3</ele>
        <time>2022-07-10T11:42:50Z</time>
      </trkpt>
      <trkpt lat="49.83028" lon="2.56896">
        <ele>69.3</ele>
        <time>2022-07-10T11:42:51Z</time>
      </trkpt>
      <trkpt lat="49.83028" lon="2.56896">
        <ele>69.3</ele>
        <time>2022-07-10T11:42:52Z</time>
      </trkpt>
      <trkpt lat="49.83028" lon="2.56896">
        <ele>69.3</ele>
        <time>2022-07-10T11:42:53Z</time>
      </trkpt>
      <trkpt lat="49.83028" lon="2.56896">
        <ele>69.3</ele>
        <time>2022-07-10T11:42:54Z</time>
      </trkpt>
      <trkpt lat="49.83028" lon="2.56896">
        <ele>69.3</ele>
        <time>2022-07-10T11:42:55Z</time>
      </trkpt>
      <trkpt lat="49.83028" lon="2.56896">
        <ele>69.3</ele>
        <time>2022-07-10T11:42:56Z</time>
      </trkpt>
      <trkpt lat="49.83028" lon="2.56896">
        <ele>69.3</ele>
        <time>2022-07-10T11:42:57Z</time>
      </trkpt>
      <trkpt lat="49.83028" lon="2.56896">
        <ele>69.3</ele>
        <time>2022-07-10T11:42:58Z</time>
      </trkpt>
      <trkpt lat="49.83028" lon="2.56896">
        <ele>69.3</ele>
        <time>2022-07-10T11:42:59Z</time>
      </trkpt>
      <trkpt lat="49.83028" lon="2.56896">
        <ele>69.3</ele>
        <time>2022-07-10T11:43:00Z</time>
      </trkpt>
      <trkpt lat="49.83028" lon="2.56896">
        <ele>69.3</ele>
        <time>2022-07-10T11:43:01Z</time>
      </trkpt>
      <trkpt lat="49.83028" lon="2.56896">
        <ele>69.3</ele>
        <time>2022-07-10T11:43:02Z</time>
      </trkpt>
      <trkpt lat="49.83028" lon="2.56896">
        <ele>69.3</ele>
        <time>2022-07-10T11:43:03Z</time>
      </trkpt>
      <trkpt lat="49.83028" lon="2.56896">
        <ele>69.3</ele>
        <time>2022-07-10T11:43:04Z</time>
      </trkpt>
      <trkpt lat="49.83028" lon="2.56896">
        <ele>69.3</ele>
        <time>2022-07-10T11:43:05Z</time>
      </trkpt>
      <trkpt lat="49.83028" lon="2.56896">
        <ele>69.3</ele>
        <time>2022-07-10T11:43:06Z</time>
      </trkpt>
      <trkpt lat="49.83028" lon="2.56896">
        <ele>69.3</ele>
        <time>2022-07-10T11:43:07Z</time>
      </trkpt>
      <trkpt lat="49.83028" lon="2.56896">
        <ele>69.3</ele>
        <time>2022-07-10T11:43:08Z</time>
      </trkpt>
      <trkpt lat="49.83028" lon="2.56896">
        <ele>69.3</ele>
        <time>2022-07-10T11:43:09Z</time>
      </trkpt>
      <trkpt lat="49.83028" lon="2.56896">
        <ele>69.3</ele>
        <time>2022-07-10T11:43:10Z</time>
      </trkpt>
      <trkpt lat="49.83028" lon="2.56896">
        <ele>69.3</ele>
        <time>2022-07-10T11:43:11Z</time>
      </trkpt>
      <trkpt lat="49.83028" lon="2.56896">
        <ele>69.3</ele>
        <time>2022-07-10T11:43:12Z</time>
      </trkpt>
      <trkpt lat="49.83028" lon="2.56896">
        <ele>69.3</ele>
        <time>2022-07-10T11:43:13Z</time>
      </trkpt>
      <trkpt lat="49.83028" lon="2.56896">
        <ele>69.3</ele>
        <time>2022-07-10T11:43:14Z</time>
      </trkpt>
      <trkpt lat="49.83028" lon="2.56896">
        <ele>69.3</ele>
        <time>2022-07-10T11:43:15Z</time>
      </trkpt>
      <trkpt lat="49.83028" lon="2.56896">
        <ele>69.3</ele>
        <time>2022-07-10T11:43:16Z</time>
      </trkpt>
      <trkpt lat="49.83028" lon="2.56896">
        <ele>69.3</ele>
        <time>2022-07-10T11:43:17Z</time>
      </trkpt>
      <trkpt lat="49.83028" lon="2.56896">
        <ele>69.3</ele>
        <time>2022-07-10T11:43:18Z</time>
      </trkpt>
      <trkpt lat="49.83028" lon="2.56896">
        <ele>69.3</ele>
        <time>2022-07-10T11:43:19Z</time>
      </trkpt>
      <trkpt lat="49.83028" lon="2.56896">
        <ele>69.3</ele>
        <time>2022-07-10T11:43:20Z</time>
      </trkpt>
      <trkpt lat="49.83028" lon="2.56896">
        <ele>69.3</ele>
        <time>2022-07-10T11:43:21Z</time>
      </trkpt>
      <trkpt lat="49.83028" lon="2.56896">
        <ele>69.3</ele>
        <time>2022-07-10T11:43:22Z</time>
      </trkpt>
      <trkpt lat="49.83028" lon="2.56896">
        <ele>69.3</ele>
        <time>2022-07-10T11:43:23Z</time>
      </trkpt>
      <trkpt lat="49.83028" lon="2.56896">
        <ele>69.3</ele>
        <time>2022-07-10T11:43:24Z</time>
      </trkpt>
      <trkpt lat="49.83028" lon="2.56896">
        <ele>69.3</ele>
        <time>2022-07-10T11:43:25Z</time>
      </trkpt>
      <trkpt lat="49.83028" lon="2.56896">
        <ele>69.3</ele>
        <time>2022-07-10T11:43:26Z</time>
      </trkpt>
      <trkpt lat="49.83028" lon="2.56896">
        <ele>69.3</ele>
        <time>2022-07-10T11:43:27Z</time>
      </trkpt>
      <trkpt lat="49.83028" lon="2.56896">
        <ele>69.3</ele>
        <time>2022-07-10T11:43:28Z</time>
      </trkpt>
      <trkpt lat="49.83028" lon="2.56896">
        <ele>69.3</ele>
        <time>2022-07-10T11:43:29Z</time>
      </trkpt>
      <trkpt lat="49.83028" lon="2.56896">
        <ele>69.3</ele>
        <time>2022-07-10T11:43:30Z</time>
      </trkpt>
      <trkpt lat="49.83028" lon="2.56896">
        <ele>69.3</ele>
        <time>2022-07-10T11:43:31Z</time>
      </trkpt>
      <trkpt lat="49.83028" lon="2.56896">
        <ele>69.3</ele>
        <time>2022-07-10T11:43:32Z</time>
      </trkpt>
      <trkpt lat="49.83028" lon="2.56896">
        <ele>69.3</ele>
        <time>2022-07-10T11:43:33Z</time>
      </trkpt>
      <trkpt lat="49.83028" lon="2.56896">
        <ele>69.3</ele>
        <time>2022-07-10T11:43:34Z</time>
      </trkpt>
      <trkpt lat="49.83028" lon="2.56896">
        <ele>69.3</ele>
        <time>2022-07-10T11:43:35Z</time>
      </trkpt>
      <trkpt lat="49.83028" lon="2.56896">
        <ele>69.3</ele>
        <time>2022-07-10T11:43:36Z</time>
      </trkpt>
      <trkpt lat="49.83028" lon="2.56896">
        <ele>69.3</ele>
        <time>2022-07-10T11:43:37Z</time>
      </trkpt>
      <trkpt lat="49.83028" lon="2.56896">
        <ele>69.3</ele>
        <time>2022-07-10T11:43:38Z</time>
      </trkpt>
      <trkpt lat="49.83028" lon="2.56896">
        <ele>69.3</ele>
        <time>2022-07-10T11:43:39Z</time>
      </trkpt>
      <trkpt lat="49.83028" lon="2.56896">
        <ele>69.3</ele>
        <time>2022-07-10T11:43:40Z</time>
      </trkpt>
      <trkpt lat="49.83028" lon="2.56896">
        <ele>69.3</ele>
        <time>2022-07-10T11:43:41Z</time>
      </trkpt>
      <trkpt lat="49.83028" lon="2.56896">
        <ele>69.3</ele>
        <time>2022-07-10T11:43:42Z</time>
      </trkpt>
      <trkpt lat="49.83028" lon="2.56896">
        <ele>69.3</ele>
        <time>2022-07-10T11:43:43Z</time>
      </trkpt>
      <trkpt lat="49.83028" lon="2.56896">
        <ele>69.3</ele>
        <time>2022-07-10T11:43:44Z</time>
      </trkpt>
      <trkpt lat="49.83028" lon="2.56896">
        <ele>69.3</ele>
        <time>2022-07-10T11:43:45Z</time>
      </trkpt>
      <trkpt lat="49.83028" lon="2.56896">
        <ele>69.3</ele>
        <time>2022-07-10T11:43:46Z</time>
      </trkpt>
      <trkpt lat="49.83028" lon="2.56896">
        <ele>69.3</ele>
        <time>2022-07-10T11:43:47Z</time>
      </trkpt>
      <trkpt lat="49.83028" lon="2.56896">
        <ele>69.3</ele>
        <time>2022-07-10T11:43:48Z</time>
      </trkpt>
      <trkpt lat="49.83028" lon="2.56896">
        <ele>69.3</ele>
        <time>2022-07-10T11:43:49Z</time>
      </trkpt>
      <trkpt lat="49.83028" lon="2.56896">
        <ele>69.3</ele>
        <time>2022-07-10T11:43:50Z</time>
      </trkpt>
      <trkpt lat="49.83028" lon="2.56896">
        <ele>69.3</ele>
        <time>2022-07-10T11:43:51Z</time>
      </trkpt>
      <trkpt lat="49.83028" lon="2.56896">
        <ele>69.3</ele>
        <time>2022-07-10T11:43:52Z</time>
      </trkpt>
      <trkpt lat="49.83028" lon="2.56896">
        <ele>69.3</ele>
        <time>2022-07-10T11:43:53Z</time>
      </trkpt>
      <trkpt lat="49.83028" lon="2.56896">
        <ele>69.3</ele>
        <time>2022-07-10T11:43:54Z</time>
      </trkpt>
      <trkpt lat="49.83028" lon="2.56896">
        <ele>69.3</ele>
        <time>2022-07-10T11:43:55Z</time>
      </trkpt>
      <trkpt lat="49.83028" lon="2.56896">
        <ele>69.3</ele>
        <time>2022-07-10T11:43:56Z</time>
      </trkpt>
      <trkpt lat="49.83028" lon="2.56896">
        <ele>69.3</ele>
        <time>2022-07-10T11:43:57Z</time>
      </trkpt>
      <trkpt lat="49.83028" lon="2.56896">
        <ele>69.3</ele>
        <time>2022-07-10T11:43:58Z</time>
      </trkpt>
      <trkpt lat="49.83028" lon="2.56896">
        <ele>69.3</ele>
        <time>2022-07-10T11:43:59Z</time>
      </trkpt>
      <trkpt lat="49.83028" lon="2.56896">
        <ele>69.3</ele>
        <time>2022-07-10T11:44:00Z</time>
      </trkpt>
      <trkpt lat="49.83028" lon="2.56896">
        <ele>69.3</ele>
        <time>2022-07-10T11:44:01Z</time>
      </trkpt>
      <trkpt lat="49.83028" lon="2.56896">
        <ele>69.3</ele>
        <time>2022-07-10T11:44:02Z</time>
      </trkpt>
      <trkpt lat="49.83028" lon="2.56896">
        <ele>69.3</ele>
        <time>2022-07-10T11:44:03Z</time>
      </trkpt>
      <trkpt lat="49.83028" lon="2.56896">
        <ele>69.3</ele>
        <time>2022-07-10T11:44:04Z</time>
      </trkpt>
      <trkpt lat="49.83028" lon="2.56896">
        <ele>69.3</ele>
        <time>2022-07-10T11:44:05Z</time>
      </trkpt>
      <trkpt lat="49.83028" lon="2.56896">
        <ele>69.3</ele>
        <time>2022-07-10T11:44:06Z</time>
      </trkpt>
      <trkpt lat="49.83028" lon="2.56896">
        <ele>69.3</ele>
        <time>2022-07-10T11:44:07Z</time>
      </trkpt>
      <trkpt lat="49.83028" lon="2.56896">
        <ele>69.3</ele>
        <time>2022-07-10T11:44:08Z</time>
      </trkpt>
      <trkpt lat="49.83028" lon="2.56896">
        <ele>69.3</ele>
        <time>2022-07-10T11:44:09Z</time>
      </trkpt>
      <trkpt lat="49.83028" lon="2.56896">
        <ele>69.3</ele>
        <time>2022-07-10T11:44:10Z</time>
      </trkpt>
      <trkpt lat="49.83028" lon="2.56896">
        <ele>69.3</ele>
        <time>2022-07-10T11:44:11Z</time>
      </trkpt>
      <trkpt lat="49.83028" lon="2.56896">
        <ele>69.3</ele>
        <time>2022-07-10T11:44:12Z</time>
      </trkpt>
      <trkpt lat="49.83028" lon="2.56896">
        <ele>69.3</ele>
        <time>2022-07-10T11:44:13Z</time>
      </trkpt>
      <trkpt lat="49.83028" lon="2.56896">
        <ele>69.3</ele>
        <time>2022-07-10T11:44:14Z</time>
      </trkpt>
      <trkpt lat="49.83028" lon="2.56896">
        <ele>69.3</ele>
        <time>2022-07-10T11:44:15Z</time>
      </trkpt>
      <trkpt lat="49.83028" lon="2.56896">
        <ele>69.3</ele>
        <time>2022-07-10T11:44:16Z</time>
      </trkpt>
      <trkpt lat="49.83028" lon="2.56896">
        <ele>69.3</ele>
        <time>2022-07-10T11:44:17Z</time>
      </trkpt>
      <trkpt lat="49.83028" lon="2.56896">
        <ele>69.3</ele>
        <time>2022-07-10T11:44:18Z</time>
      </trkpt>
      <trkpt lat="49.83028" lon="2.56896">
        <ele>69.3</ele>
        <time>2022-07-10T11:44:19Z</time>
      </trkpt>
      <trkpt lat="49.83028" lon="2.56896">
        <ele>69.3</ele>
        <time>2022-07-10T11:44:20Z</time>
      </trkpt>
      <trkpt lat="49.83028" lon="2.56896">
        <ele>69.3</ele>
        <time>2022-07-10T11:44:21Z</time>
      </trkpt>
      <trkpt lat="49.83028" lon="2.56896">
        <ele>69.4</ele>
        <time>2022-07-10T11:44:22Z</time>
      </trkpt>
      <trkpt lat="49.83027" lon="2.56895">
        <ele>69.4</ele>
        <time>2022-07-10T11:44:23Z</time>
      </trkpt>
      <trkpt lat="49.83027" lon="2.56894">
        <ele>69.4</ele>
        <time>2022-07-10T11:44:24Z</time>
      </trkpt>
      <trkpt lat="49.83027" lon="2.56893">
        <ele>69.4</ele>
        <time>2022-07-10T11:44:25Z</time>
      </trkpt>
      <trkpt lat="49.83027" lon="2.56892">
        <ele>69.4</ele>
        <time>2022-07-10T11:44:26Z</time>
      </trkpt>
      <trkpt lat="49.83027" lon="2.56892">
        <ele>69.4</ele>
        <time>2022-07-10T11:44:27Z</time>
      </trkpt>
      <trkpt lat="49.83027" lon="2.56891">
        <ele>69.5</ele>
        <time>2022-07-10T11:44:28Z</time>
      </trkpt>
      <trkpt lat="49.83027" lon="2.5689">
        <ele>69.5</ele>
        <time>2022-07-10T11:44:29Z</time>
      </trkpt>
      <trkpt lat="49.83027" lon="2.56889">
        <ele>69.5</ele>
        <time>2022-07-10T11:44:30Z</time>
      </trkpt>
      <trkpt lat="49.83026" lon="2.56887">
        <ele>69.6</ele>
        <time>2022-07-10T11:44:31Z</time>
      </trkpt>
      <trkpt lat="49.83025" lon="2.56884">
        <ele>69.7</ele>
        <time>2022-07-10T11:44:32Z</time>
      </trkpt>
      <trkpt lat="49.83024" lon="2.56883">
        <ele>69.7</ele>
        <time>2022-07-10T11:44:34Z</time>
      </trkpt>
      <trkpt lat="49.83024" lon="2.56881">
        <ele>69.7</ele>
        <time>2022-07-10T11:44:35Z</time>
      </trkpt>
      <trkpt lat="49.83023" lon="2.5688">
        <ele>69.8</ele>
        <time>2022-07-10T11:44:36Z</time>
      </trkpt>
      <trkpt lat="49.83023" lon="2.56879">
        <ele>69.8</ele>
        <time>2022-07-10T11:44:37Z</time>
      </trkpt>
      <trkpt lat="49.83022" lon="2.56875">
        <ele>69.9</ele>
        <time>2022-07-10T11:44:38Z</time>
      </trkpt>
      <trkpt lat="49.83022" lon="2.56874">
        <ele>69.9</ele>
        <time>2022-07-10T11:44:39Z</time>
      </trkpt>
      <trkpt lat="49.83021" lon="2.56873">
        <ele>70</ele>
        <time>2022-07-10T11:44:40Z</time>
      </trkpt>
      <trkpt lat="49.83021" lon="2.56872">
        <ele>70</ele>
        <time>2022-07-10T11:44:42Z</time>
      </trkpt>
      <trkpt lat="49.83021" lon="2.5687">
        <ele>70.1</ele>
        <time>2022-07-10T11:44:43Z</time>
      </trkpt>
      <trkpt lat="49.8302" lon="2.56868">
        <ele>70.1</ele>
        <time>2022-07-10T11:44:44Z</time>
      </trkpt>
      <trkpt lat="49.8302" lon="2.56865">
        <ele>70.2</ele>
        <time>2022-07-10T11:44:45Z</time>
      </trkpt>
      <trkpt lat="49.8302" lon="2.56864">
        <ele>70.3</ele>
        <time>2022-07-10T11:44:46Z</time>
      </trkpt>
      <trkpt lat="49.83019" lon="2.56862">
        <ele>70.3</ele>
        <time>2022-07-10T11:44:47Z</time>
      </trkpt>
      <trkpt lat="49.83019" lon="2.56859">
        <ele>70.5</ele>
        <time>2022-07-10T11:44:48Z</time>
      </trkpt>
      <trkpt lat="49.83019" lon="2.56858">
        <ele>70.5</ele>
        <time>2022-07-10T11:44:49Z</time>
      </trkpt>
      <trkpt lat="49.83019" lon="2.56856">
        <ele>70.6</ele>
        <time>2022-07-10T11:44:50Z</time>
      </trkpt>
      <trkpt lat="49.83018" lon="2.56854">
        <ele>70.6</ele>
        <time>2022-07-10T11:44:51Z</time>
      </trkpt>
      <trkpt lat="49.83018" lon="2.56852">
        <ele>70.7</ele>
        <time>2022-07-10T11:44:53Z</time>
      </trkpt>
      <trkpt lat="49.83018" lon="2.56849">
        <ele>70.8</ele>
        <time>2022-07-10T11:44:54Z</time>
      </trkpt>
      <trkpt lat="49.83018" lon="2.56848">
        <ele>70.9</ele>
        <time>2022-07-10T11:44:55Z</time>
      </trkpt>
      <trkpt lat="49.83018" lon="2.56844">
        <ele>71</ele>
        <time>2022-07-10T11:44:56Z</time>
      </trkpt>
      <trkpt lat="49.83017" lon="2.56843">
        <ele>71.1</ele>
        <time>2022-07-10T11:44:57Z</time>
      </trkpt>
      <trkpt lat="49.83017" lon="2.56841">
        <ele>71.1</ele>
        <time>2022-07-10T11:44:58Z</time>
      </trkpt>
      <trkpt lat="49.83017" lon="2.5684">
        <ele>71.2</ele>
        <time>2022-07-10T11:45:00Z</time>
      </trkpt>
      <trkpt lat="49.83017" lon="2.56838">
        <ele>71.2</ele>
        <time>2022-07-10T11:45:01Z</time>
      </trkpt>
      <trkpt lat="49.83017" lon="2.56836">
        <ele>71.3</ele>
        <time>2022-07-10T11:45:02Z</time>
      </trkpt>
      <trkpt lat="49.83017" lon="2.56833">
        <ele>71.4</ele>
        <time>2022-07-10T11:45:03Z</time>
      </trkpt>
      <trkpt lat="49.83017" lon="2.56832">
        <ele>71.5</ele>
        <time>2022-07-10T11:45:04Z</time>
      </trkpt>
      <trkpt lat="49.83017" lon="2.5683">
        <ele>71.5</ele>
        <time>2022-07-10T11:45:05Z</time>
      </trkpt>
      <trkpt lat="49.83017" lon="2.56828">
        <ele>71.6</ele>
        <time>2022-07-10T11:45:07Z</time>
      </trkpt>
      <trkpt lat="49.83017" lon="2.56825">
        <ele>71.7</ele>
        <time>2022-07-10T11:45:08Z</time>
      </trkpt>
      <trkpt lat="49.83017" lon="2.56824">
        <ele>71.8</ele>
        <time>2022-07-10T11:45:09Z</time>
      </trkpt>
      <trkpt lat="49.83017" lon="2.56822">
        <ele>71.8</ele>
        <time>2022-07-10T11:45:10Z</time>
      </trkpt>
      <trkpt lat="49.83017" lon="2.5682">
        <ele>71.9</ele>
        <time>2022-07-10T11:45:11Z</time>
      </trkpt>
      <trkpt lat="49.83016" lon="2.56817">
        <ele>72</ele>
        <time>2022-07-10T11:45:13Z</time>
      </trkpt>
      <trkpt lat="49.83016" lon="2.56816">
        <ele>72.1</ele>
        <time>2022-07-10T11:45:14Z</time>
      </trkpt>
      <trkpt lat="49.83016" lon="2.56815">
        <ele>72.1</ele>
        <time>2022-07-10T11:45:15Z</time>
      </trkpt>
      <trkpt lat="49.83016" lon="2.56813">
        <ele>72.2</ele>
        <time>2022-07-10T11:45:16Z</time>
      </trkpt>
      <trkpt lat="49.83016" lon="2.5681">
        <ele>72.2</ele>
        <time>2022-07-10T11:45:17Z</time>
      </trkpt>
      <trkpt lat="49.83015" lon="2.56807">
        <ele>72.4</ele>
        <time>2022-07-10T11:45:18Z</time>
      </trkpt>
      <trkpt lat="49.83015" lon="2.56806">
        <ele>72.4</ele>
        <time>2022-07-10T11:45:19Z</time>
      </trkpt>
      <trkpt lat="49.83015" lon="2.56805">
        <ele>72.4</ele>
        <time>2022-07-10T11:45:20Z</time>
      </trkpt>
      <trkpt lat="49.83015" lon="2.56801">
        <ele>72.5</ele>
        <time>2022-07-10T11:45:22Z</time>
      </trkpt>
      <trkpt lat="49.83015" lon="2.568">
        <ele>72.6</ele>
        <time>2022-07-10T11:45:23Z</time>
      </trkpt>
      <trkpt lat="49.83015" lon="2.56798">
        <ele>72.6</ele>
        <time>2022-07-10T11:45:24Z</time>
      </trkpt>
      <trkpt lat="49.83015" lon="2.56796">
        <ele>72.7</ele>
        <time>2022-07-10T11:45:26Z</time>
      </trkpt>
      <trkpt lat="49.83015" lon="2.56794">
        <ele>72.8</ele>
        <time>2022-07-10T11:45:27Z</time>
      </trkpt>
      <trkpt lat="49.83015" lon="2.56791">
        <ele>72.9</ele>
        <time>2022-07-10T11:45:28Z</time>
      </trkpt>
      <trkpt lat="49.83015" lon="2.5679">
        <ele>72.9</ele>
        <time>2022-07-10T11:45:30Z</time>
      </trkpt>
      <trkpt lat="49.83015" lon="2.56789">
        <ele>72.9</ele>
        <time>2022-07-10T11:45:31Z</time>
      </trkpt>
      <trkpt lat="49.83015" lon="2.56786">
        <ele>73</ele>
        <time>2022-07-10T11:45:32Z</time>
      </trkpt>
      <trkpt lat="49.83015" lon="2.56784">
        <ele>73</ele>
        <time>2022-07-10T11:45:33Z</time>
      </trkpt>
      <trkpt lat="49.83015" lon="2.56783">
        <ele>73.1</ele>
        <time>2022-07-10T11:45:34Z</time>
      </trkpt>
      <trkpt lat="49.83014" lon="2.5678">
        <ele>73.2</ele>
        <time>2022-07-10T11:45:35Z</time>
      </trkpt>
      <trkpt lat="49.83014" lon="2.56778">
        <ele>73.2</ele>
        <time>2022-07-10T11:45:36Z</time>
      </trkpt>
      <trkpt lat="49.83014" lon="2.56777">
        <ele>73.2</ele>
        <time>2022-07-10T11:45:37Z</time>
      </trkpt>
      <trkpt lat="49.83014" lon="2.56774">
        <ele>73.3</ele>
        <time>2022-07-10T11:45:39Z</time>
      </trkpt>
      <trkpt lat="49.83014" lon="2.56772">
        <ele>73.4</ele>
        <time>2022-07-10T11:45:40Z</time>
      </trkpt>
      <trkpt lat="49.83014" lon="2.56771">
        <ele>73.4</ele>
        <time>2022-07-10T11:45:41Z</time>
      </trkpt>
      <trkpt lat="49.83013" lon="2.56768">
        <ele>73.5</ele>
        <time>2022-07-10T11:45:43Z</time>
      </trkpt>
      <trkpt lat="49.83013" lon="2.56766">
        <ele>73.5</ele>
        <time>2022-07-10T11:45:44Z</time>
      </trkpt>
      <trkpt lat="49.83013" lon="2.56763">
        <ele>73.6</ele>
        <time>2022-07-10T11:45:45Z</time>
      </trkpt>
      <trkpt lat="49.83013" lon="2.56762">
        <ele>73.6</ele>
        <time>2022-07-10T11:45:46Z</time>
      </trkpt>
      <trkpt lat="49.83013" lon="2.56761">
        <ele>73.6</ele>
        <time>2022-07-10T11:45:47Z</time>
      </trkpt>
      <trkpt lat="49.83013" lon="2.56757">
        <ele>73.7</ele>
        <time>2022-07-10T11:45:49Z</time>
      </trkpt>
      <trkpt lat="49.83012" lon="2.56756">
        <ele>73.7</ele>
        <time>2022-07-10T11:45:50Z</time>
      </trkpt>
      <trkpt lat="49.83012" lon="2.56752">
        <ele>73.8</ele>
        <time>2022-07-10T11:45:51Z</time>
      </trkpt>
      <trkpt lat="49.83012" lon="2.56751">
        <ele>73.8</ele>
        <time>2022-07-10T11:45:52Z</time>
      </trkpt>
      <trkpt lat="49.83012" lon="2.56749">
        <ele>73.8</ele>
        <time>2022-07-10T11:45:53Z</time>
      </trkpt>
      <trkpt lat="49.83012" lon="2.56747">
        <ele>73.8</ele>
        <time>2022-07-10T11:45:54Z</time>
      </trkpt>
      <trkpt lat="49.83012" lon="2.56746">
        <ele>73.9</ele>
        <time>2022-07-10T11:45:55Z</time>
      </trkpt>
      <trkpt lat="49.83012" lon="2.56744">
        <ele>73.9</ele>
        <time>2022-07-10T11:45:56Z</time>
      </trkpt>
      <trkpt lat="49.83012" lon="2.56742">
        <ele>73.9</ele>
        <time>2022-07-10T11:45:58Z</time>
      </trkpt>
      <trkpt lat="49.83012" lon="2.5674">
        <ele>74</ele>
        <time>2022-07-10T11:45:59Z</time>
      </trkpt>
      <trkpt lat="49.83012" lon="2.56738">
        <ele>74</ele>
        <time>2022-07-10T11:46:00Z</time>
      </trkpt>
      <trkpt lat="49.83011" lon="2.56737">
        <ele>74</ele>
        <time>2022-07-10T11:46:01Z</time>
      </trkpt>
      <trkpt lat="49.83011" lon="2.56735">
        <ele>74</ele>
        <time>2022-07-10T11:46:02Z</time>
      </trkpt>
      <trkpt lat="49.83011" lon="2.56733">
        <ele>74.1</ele>
        <time>2022-07-10T11:46:03Z</time>
      </trkpt>
      <trkpt lat="49.83011" lon="2.56731">
        <ele>74.1</ele>
        <time>2022-07-10T11:46:04Z</time>
      </trkpt>
      <trkpt lat="49.8301" lon="2.56728">
        <ele>74.1</ele>
        <time>2022-07-10T11:46:06Z</time>
      </trkpt>
      <trkpt lat="49.8301" lon="2.56727">
        <ele>74.1</ele>
        <time>2022-07-10T11:46:07Z</time>
      </trkpt>
      <trkpt lat="49.8301" lon="2.56725">
        <ele>74.2</ele>
        <time>2022-07-10T11:46:08Z</time>
      </trkpt>
      <trkpt lat="49.8301" lon="2.56723">
        <ele>74.2</ele>
        <time>2022-07-10T11:46:09Z</time>
      </trkpt>
      <trkpt lat="49.8301" lon="2.56722">
        <ele>74.2</ele>
        <time>2022-07-10T11:46:10Z</time>
      </trkpt>
      <trkpt lat="49.8301" lon="2.5672">
        <ele>74.2</ele>
        <time>2022-07-10T11:46:11Z</time>
      </trkpt>
      <trkpt lat="49.83009" lon="2.56719">
        <ele>74.2</ele>
        <time>2022-07-10T11:46:12Z</time>
      </trkpt>
      <trkpt lat="49.83009" lon="2.56717">
        <ele>74.3</ele>
        <time>2022-07-10T11:46:14Z</time>
      </trkpt>
      <trkpt lat="49.83009" lon="2.56716">
        <ele>74.3</ele>
        <time>2022-07-10T11:46:15Z</time>
      </trkpt>
      <trkpt lat="49.83009" lon="2.56713">
        <ele>74.3</ele>
        <time>2022-07-10T11:46:16Z</time>
      </trkpt>
      <trkpt lat="49.83009" lon="2.56712">
        <ele>74.3</ele>
        <time>2022-07-10T11:46:17Z</time>
      </trkpt>
      <trkpt lat="49.83009" lon="2.56709">
        <ele>74.3</ele>
        <time>2022-07-10T11:46:19Z</time>
      </trkpt>
      <trkpt lat="49.83009" lon="2.56708">
        <ele>74.4</ele>
        <time>2022-07-10T11:46:20Z</time>
      </trkpt>
      <trkpt lat="49.83009" lon="2.56706">
        <ele>74.4</ele>
        <time>2022-07-10T11:46:21Z</time>
      </trkpt>
      <trkpt lat="49.83009" lon="2.56704">
        <ele>74.4</ele>
        <time>2022-07-10T11:46:22Z</time>
      </trkpt>
      <trkpt lat="49.83009" lon="2.56701">
        <ele>74.4</ele>
        <time>2022-07-10T11:46:23Z</time>
      </trkpt>
      <trkpt lat="49.83009" lon="2.567">
        <ele>74.5</ele>
        <time>2022-07-10T11:46:25Z</time>
      </trkpt>
      <trkpt lat="49.83008" lon="2.56698">
        <ele>74.5</ele>
        <time>2022-07-10T11:46:26Z</time>
      </trkpt>
      <trkpt lat="49.83008" lon="2.56695">
        <ele>74.5</ele>
        <time>2022-07-10T11:46:27Z</time>
      </trkpt>
      <trkpt lat="49.83008" lon="2.56691">
        <ele>74.5</ele>
        <time>2022-07-10T11:46:29Z</time>
      </trkpt>
      <trkpt lat="49.83008" lon="2.5669">
        <ele>74.5</ele>
        <time>2022-07-10T11:46:30Z</time>
      </trkpt>
      <trkpt lat="49.83009" lon="2.56688">
        <ele>74.6</ele>
        <time>2022-07-10T11:46:31Z</time>
      </trkpt>
      <trkpt lat="49.83009" lon="2.56685">
        <ele>74.6</ele>
        <time>2022-07-10T11:46:32Z</time>
      </trkpt>
      <trkpt lat="49.83009" lon="2.56683">
        <ele>74.6</ele>
        <time>2022-07-10T11:46:33Z</time>
      </trkpt>
      <trkpt lat="49.83009" lon="2.56679">
        <ele>74.6</ele>
        <time>2022-07-10T11:46:35Z</time>
      </trkpt>
      <trkpt lat="49.83009" lon="2.56677">
        <ele>74.6</ele>
        <time>2022-07-10T11:46:36Z</time>
      </trkpt>
      <trkpt lat="49.83009" lon="2.56675">
        <ele>74.7</ele>
        <time>2022-07-10T11:46:37Z</time>
      </trkpt>
      <trkpt lat="49.83009" lon="2.56673">
        <ele>74.7</ele>
        <time>2022-07-10T11:46:38Z</time>
      </trkpt>
      <trkpt lat="49.83009" lon="2.5667">
        <ele>74.7</ele>
        <time>2022-07-10T11:46:39Z</time>
      </trkpt>
      <trkpt lat="49.83009" lon="2.56667">
        <ele>74.7</ele>
        <time>2022-07-10T11:46:40Z</time>
      </trkpt>
      <trkpt lat="49.83009" lon="2.56666">
        <ele>74.7</ele>
        <time>2022-07-10T11:46:41Z</time>
      </trkpt>
      <trkpt lat="49.83009" lon="2.56664">
        <ele>74.7</ele>
        <time>2022-07-10T11:46:42Z</time>
      </trkpt>
      <trkpt lat="49.8301" lon="2.56661">
        <ele>74.7</ele>
        <time>2022-07-10T11:46:44Z</time>
      </trkpt>
      <trkpt lat="49.83009" lon="2.56659">
        <ele>74.7</ele>
        <time>2022-07-10T11:46:45Z</time>
      </trkpt>
      <trkpt lat="49.83009" lon="2.56657">
        <ele>74.8</ele>
        <time>2022-07-10T11:46:46Z</time>
      </trkpt>
      <trkpt lat="49.83009" lon="2.56655">
        <ele>74.8</ele>
        <time>2022-07-10T11:46:47Z</time>
      </trkpt>
      <trkpt lat="49.83009" lon="2.56653">
        <ele>74.8</ele>
        <time>2022-07-10T11:46:49Z</time>
      </trkpt>
      <trkpt lat="49.83009" lon="2.56652">
        <ele>74.8</ele>
        <time>2022-07-10T11:46:50Z</time>
      </trkpt>
      <trkpt lat="49.83009" lon="2.5665">
        <ele>74.8</ele>
        <time>2022-07-10T11:46:51Z</time>
      </trkpt>
      <trkpt lat="49.83009" lon="2.56648">
        <ele>74.8</ele>
        <time>2022-07-10T11:46:52Z</time>
      </trkpt>
      <trkpt lat="49.83009" lon="2.56645">
        <ele>74.8</ele>
        <time>2022-07-10T11:46:54Z</time>
      </trkpt>
      <trkpt lat="49.83009" lon="2.56643">
        <ele>74.8</ele>
        <time>2022-07-10T11:46:55Z</time>
      </trkpt>
      <trkpt lat="49.83009" lon="2.56642">
        <ele>74.8</ele>
        <time>2022-07-10T11:46:56Z</time>
      </trkpt>
      <trkpt lat="49.83009" lon="2.56639">
        <ele>74.8</ele>
        <time>2022-07-10T11:46:58Z</time>
      </trkpt>
      <trkpt lat="49.83009" lon="2.56637">
        <ele>74.8</ele>
        <time>2022-07-10T11:46:59Z</time>
      </trkpt>
      <trkpt lat="49.83009" lon="2.56636">
        <ele>74.8</ele>
        <time>2022-07-10T11:47:00Z</time>
      </trkpt>
      <trkpt lat="49.83009" lon="2.56634">
        <ele>74.8</ele>
        <time>2022-07-10T11:47:01Z</time>
      </trkpt>
      <trkpt lat="49.83008" lon="2.56632">
        <ele>74.8</ele>
        <time>2022-07-10T11:47:02Z</time>
      </trkpt>
      <trkpt lat="49.83008" lon="2.5663">
        <ele>74.8</ele>
        <time>2022-07-10T11:47:03Z</time>
      </trkpt>
      <trkpt lat="49.83008" lon="2.56626">
        <ele>74.8</ele>
        <time>2022-07-10T11:47:04Z</time>
      </trkpt>
      <trkpt lat="49.83008" lon="2.56625">
        <ele>74.8</ele>
        <time>2022-07-10T11:47:05Z</time>
      </trkpt>
      <trkpt lat="49.83008" lon="2.56624">
        <ele>74.8</ele>
        <time>2022-07-10T11:47:06Z</time>
      </trkpt>
      <trkpt lat="49.83008" lon="2.56622">
        <ele>74.8</ele>
        <time>2022-07-10T11:47:07Z</time>
      </trkpt>
      <trkpt lat="49.83008" lon="2.56618">
        <ele>74.8</ele>
        <time>2022-07-10T11:47:09Z</time>
      </trkpt>
      <trkpt lat="49.83008" lon="2.56617">
        <ele>74.8</ele>
        <time>2022-07-10T11:47:10Z</time>
      </trkpt>
      <trkpt lat="49.83008" lon="2.56615">
        <ele>74.8</ele>
        <time>2022-07-10T11:47:11Z</time>
      </trkpt>
      <trkpt lat="49.83008" lon="2.56612">
        <ele>74.8</ele>
        <time>2022-07-10T11:47:13Z</time>
      </trkpt>
      <trkpt lat="49.83008" lon="2.56609">
        <ele>74.8</ele>
        <time>2022-07-10T11:47:14Z</time>
      </trkpt>
      <trkpt lat="49.83008" lon="2.56607">
        <ele>74.7</ele>
        <time>2022-07-10T11:47:15Z</time>
      </trkpt>
      <trkpt lat="49.83008" lon="2.56605">
        <ele>74.7</ele>
        <time>2022-07-10T11:47:16Z</time>
      </trkpt>
      <trkpt lat="49.83008" lon="2.56603">
        <ele>74.7</ele>
        <time>2022-07-10T11:47:18Z</time>
      </trkpt>
      <trkpt lat="49.83008" lon="2.56599">
        <ele>74.7</ele>
        <time>2022-07-10T11:47:19Z</time>
      </trkpt>
      <trkpt lat="49.83008" lon="2.56598">
        <ele>74.7</ele>
        <time>2022-07-10T11:47:20Z</time>
      </trkpt>
      <trkpt lat="49.83008" lon="2.56596">
        <ele>74.7</ele>
        <time>2022-07-10T11:47:21Z</time>
      </trkpt>
      <trkpt lat="49.83008" lon="2.56595">
        <ele>74.6</ele>
        <time>2022-07-10T11:47:22Z</time>
      </trkpt>
      <trkpt lat="49.83008" lon="2.56593">
        <ele>74.6</ele>
        <time>2022-07-10T11:47:23Z</time>
      </trkpt>
      <trkpt lat="49.83008" lon="2.5659">
        <ele>74.6</ele>
        <time>2022-07-10T11:47:24Z</time>
      </trkpt>
      <trkpt lat="49.83008" lon="2.56589">
        <ele>74.6</ele>
        <time>2022-07-10T11:47:26Z</time>
      </trkpt>
      <trkpt lat="49.83008" lon="2.56587">
        <ele>74.6</ele>
        <time>2022-07-10T11:47:27Z</time>
      </trkpt>
      <trkpt lat="49.83008" lon="2.56586">
        <ele>74.6</ele>
        <time>2022-07-10T11:47:28Z</time>
      </trkpt>
      <trkpt lat="49.83008" lon="2.56583">
        <ele>74.5</ele>
        <time>2022-07-10T11:47:29Z</time>
      </trkpt>
      <trkpt lat="49.83008" lon="2.56582">
        <ele>74.5</ele>
        <time>2022-07-10T11:47:30Z</time>
      </trkpt>
      <trkpt lat="49.83008" lon="2.56579">
        <ele>74.5</ele>
        <time>2022-07-10T11:47:32Z</time>
      </trkpt>
      <trkpt lat="49.83008" lon="2.56578">
        <ele>74.5</ele>
        <time>2022-07-10T11:47:33Z</time>
      </trkpt>
      <trkpt lat="49.83008" lon="2.56574">
        <ele>74.5</ele>
        <time>2022-07-10T11:47:34Z</time>
      </trkpt>
      <trkpt lat="49.83008" lon="2.56573">
        <ele>74.5</ele>
        <time>2022-07-10T11:47:35Z</time>
      </trkpt>
      <trkpt lat="49.83008" lon="2.56571">
        <ele>74.4</ele>
        <time>2022-07-10T11:47:36Z</time>
      </trkpt>
      <trkpt lat="49.83008" lon="2.56569">
        <ele>74.4</ele>
        <time>2022-07-10T11:47:38Z</time>
      </trkpt>
      <trkpt lat="49.83008" lon="2.56568">
        <ele>74.4</ele>
        <time>2022-07-10T11:47:39Z</time>
      </trkpt>
      <trkpt lat="49.83008" lon="2.56566">
        <ele>74.4</ele>
        <time>2022-07-10T11:47:40Z</time>
      </trkpt>
      <trkpt lat="49.83008" lon="2.56564">
        <ele>74.4</ele>
        <time>2022-07-10T11:47:41Z</time>
      </trkpt>
      <trkpt lat="49.83008" lon="2.56562">
        <ele>74.4</ele>
        <time>2022-07-10T11:47:42Z</time>
      </trkpt>
      <trkpt lat="49.83008" lon="2.56559">
        <ele>74.4</ele>
        <time>2022-07-10T11:47:43Z</time>
      </trkpt>
      <trkpt lat="49.83008" lon="2.56557">
        <ele>74.3</ele>
        <time>2022-07-10T11:47:44Z</time>
      </trkpt>
      <trkpt lat="49.83008" lon="2.56556">
        <ele>74.3</ele>
        <time>2022-07-10T11:47:45Z</time>
      </trkpt>
      <trkpt lat="49.83008" lon="2.56554">
        <ele>74.3</ele>
        <time>2022-07-10T11:47:46Z</time>
      </trkpt>
      <trkpt lat="49.83008" lon="2.56551">
        <ele>74.3</ele>
        <time>2022-07-10T11:47:47Z</time>
      </trkpt>
      <trkpt lat="49.83008" lon="2.56549">
        <ele>74.3</ele>
        <time>2022-07-10T11:47:49Z</time>
      </trkpt>
      <trkpt lat="49.83008" lon="2.56547">
        <ele>74.3</ele>
        <time>2022-07-10T11:47:50Z</time>
      </trkpt>
      <trkpt lat="49.83008" lon="2.56544">
        <ele>74.3</ele>
        <time>2022-07-10T11:47:51Z</time>
      </trkpt>
      <trkpt lat="49.83008" lon="2.56542">
        <ele>74.3</ele>
        <time>2022-07-10T11:47:52Z</time>
      </trkpt>
      <trkpt lat="49.83008" lon="2.56541">
        <ele>74.3</ele>
        <time>2022-07-10T11:47:54Z</time>
      </trkpt>
      <trkpt lat="49.83008" lon="2.56538">
        <ele>74.2</ele>
        <time>2022-07-10T11:47:55Z</time>
      </trkpt>
      <trkpt lat="49.83008" lon="2.56537">
        <ele>74.2</ele>
        <time>2022-07-10T11:47:56Z</time>
      </trkpt>
      <trkpt lat="49.83008" lon="2.56533">
        <ele>74.2</ele>
        <time>2022-07-10T11:47:57Z</time>
      </trkpt>
      <trkpt lat="49.83007" lon="2.56531">
        <ele>74.2</ele>
        <time>2022-07-10T11:47:58Z</time>
      </trkpt>
      <trkpt lat="49.83007" lon="2.56529">
        <ele>74.2</ele>
        <time>2022-07-10T11:47:59Z</time>
      </trkpt>
      <trkpt lat="49.83007" lon="2.56526">
        <ele>74.2</ele>
        <time>2022-07-10T11:48:01Z</time>
      </trkpt>
      <trkpt lat="49.83007" lon="2.56525">
        <ele>74.2</ele>
        <time>2022-07-10T11:48:02Z</time>
      </trkpt>
      <trkpt lat="49.83008" lon="2.56523">
        <ele>74.2</ele>
        <time>2022-07-10T11:48:03Z</time>
      </trkpt>
      <trkpt lat="49.83008" lon="2.56521">
        <ele>74.2</ele>
        <time>2022-07-10T11:48:04Z</time>
      </trkpt>
      <trkpt lat="49.83008" lon="2.56518">
        <ele>74.2</ele>
        <time>2022-07-10T11:48:05Z</time>
      </trkpt>
      <trkpt lat="49.83008" lon="2.56516">
        <ele>74.2</ele>
        <time>2022-07-10T11:48:06Z</time>
      </trkpt>
      <trkpt lat="49.83008" lon="2.56512">
        <ele>74.2</ele>
        <time>2022-07-10T11:48:08Z</time>
      </trkpt>
      <trkpt lat="49.83008" lon="2.56511">
        <ele>74.2</ele>
        <time>2022-07-10T11:48:09Z</time>
      </trkpt>
      <trkpt lat="49.83008" lon="2.56509">
        <ele>74.2</ele>
        <time>2022-07-10T11:48:10Z</time>
      </trkpt>
      <trkpt lat="49.83008" lon="2.56507">
        <ele>74.2</ele>
        <time>2022-07-10T11:48:11Z</time>
      </trkpt>
      <trkpt lat="49.83008" lon="2.56505">
        <ele>74.2</ele>
        <time>2022-07-10T11:48:13Z</time>
      </trkpt>
      <trkpt lat="49.83008" lon="2.56503">
        <ele>74.2</ele>
        <time>2022-07-10T11:48:14Z</time>
      </trkpt>
      <trkpt lat="49.83008" lon="2.565">
        <ele>74.2</ele>
        <time>2022-07-10T11:48:15Z</time>
      </trkpt>
      <trkpt lat="49.83009" lon="2.56498">
        <ele>74.2</ele>
        <time>2022-07-10T11:48:16Z</time>
      </trkpt>
      <trkpt lat="49.83009" lon="2.56496">
        <ele>74.2</ele>
        <time>2022-07-10T11:48:17Z</time>
      </trkpt>
      <trkpt lat="49.83008" lon="2.56493">
        <ele>74.2</ele>
        <time>2022-07-10T11:48:19Z</time>
      </trkpt>
      <trkpt lat="49.83009" lon="2.5649">
        <ele>74.2</ele>
        <time>2022-07-10T11:48:20Z</time>
      </trkpt>
      <trkpt lat="49.83009" lon="2.56487">
        <ele>74.2</ele>
        <time>2022-07-10T11:48:21Z</time>
      </trkpt>
      <trkpt lat="49.83009" lon="2.56485">
        <ele>74.2</ele>
        <time>2022-07-10T11:48:22Z</time>
      </trkpt>
      <trkpt lat="49.83009" lon="2.56483">
        <ele>74.2</ele>
        <time>2022-07-10T11:48:23Z</time>
      </trkpt>
      <trkpt lat="49.83009" lon="2.5648">
        <ele>74.2</ele>
        <time>2022-07-10T11:48:25Z</time>
      </trkpt>
      <trkpt lat="49.83009" lon="2.56479">
        <ele>74.2</ele>
        <time>2022-07-10T11:48:26Z</time>
      </trkpt>
      <trkpt lat="49.83009" lon="2.56477">
        <ele>74.2</ele>
        <time>2022-07-10T11:48:27Z</time>
      </trkpt>
      <trkpt lat="49.83009" lon="2.56474">
        <ele>74.2</ele>
        <time>2022-07-10T11:48:28Z</time>
      </trkpt>
      <trkpt lat="49.83009" lon="2.56471">
        <ele>74.2</ele>
        <time>2022-07-10T11:48:30Z</time>
      </trkpt>
      <trkpt lat="49.83009" lon="2.5647">
        <ele>74.2</ele>
        <time>2022-07-10T11:48:31Z</time>
      </trkpt>
      <trkpt lat="49.83009" lon="2.56468">
        <ele>74.2</ele>
        <time>2022-07-10T11:48:32Z</time>
      </trkpt>
      <trkpt lat="49.8301" lon="2.56467">
        <ele>74.2</ele>
        <time>2022-07-10T11:48:33Z</time>
      </trkpt>
      <trkpt lat="49.8301" lon="2.56464">
        <ele>74.2</ele>
        <time>2022-07-10T11:48:34Z</time>
      </trkpt>
      <trkpt lat="49.8301" lon="2.56463">
        <ele>74.2</ele>
        <time>2022-07-10T11:48:36Z</time>
      </trkpt>
      <trkpt lat="49.8301" lon="2.56461">
        <ele>74.2</ele>
        <time>2022-07-10T11:48:37Z</time>
      </trkpt>
      <trkpt lat="49.8301" lon="2.56459">
        <ele>74.2</ele>
        <time>2022-07-10T11:48:38Z</time>
      </trkpt>
      <trkpt lat="49.83011" lon="2.56456">
        <ele>74.2</ele>
        <time>2022-07-10T11:48:40Z</time>
      </trkpt>
      <trkpt lat="49.83011" lon="2.56455">
        <ele>74.2</ele>
        <time>2022-07-10T11:48:41Z</time>
      </trkpt>
      <trkpt lat="49.83011" lon="2.56454">
        <ele>74.2</ele>
        <time>2022-07-10T11:48:42Z</time>
      </trkpt>
      <trkpt lat="49.83011" lon="2.56452">
        <ele>74.2</ele>
        <time>2022-07-10T11:48:43Z</time>
      </trkpt>
      <trkpt lat="49.83011" lon="2.56451">
        <ele>74.2</ele>
        <time>2022-07-10T11:48:44Z</time>
      </trkpt>
      <trkpt lat="49.83012" lon="2.56448">
        <ele>74.2</ele>
        <time>2022-07-10T11:48:45Z</time>
      </trkpt>
      <trkpt lat="49.83012" lon="2.56447">
        <ele>74.2</ele>
        <time>2022-07-10T11:48:46Z</time>
      </trkpt>
      <trkpt lat="49.83012" lon="2.56445">
        <ele>74.2</ele>
        <time>2022-07-10T11:48:47Z</time>
      </trkpt>
      <trkpt lat="49.83012" lon="2.56443">
        <ele>74.3</ele>
        <time>2022-07-10T11:48:48Z</time>
      </trkpt>
      <trkpt lat="49.83012" lon="2.56441">
        <ele>74.3</ele>
        <time>2022-07-10T11:48:50Z</time>
      </trkpt>
      <trkpt lat="49.83012" lon="2.5644">
        <ele>74.3</ele>
        <time>2022-07-10T11:48:51Z</time>
      </trkpt>
      <trkpt lat="49.83012" lon="2.56438">
        <ele>74.3</ele>
        <time>2022-07-10T11:48:52Z</time>
      </trkpt>
      <trkpt lat="49.83012" lon="2.56436">
        <ele>74.3</ele>
        <time>2022-07-10T11:48:53Z</time>
      </trkpt>
      <trkpt lat="49.83012" lon="2.56434">
        <ele>74.3</ele>
        <time>2022-07-10T11:48:54Z</time>
      </trkpt>
      <trkpt lat="49.83012" lon="2.56431">
        <ele>74.3</ele>
        <time>2022-07-10T11:48:55Z</time>
      </trkpt>
      <trkpt lat="49.83012" lon="2.56428">
        <ele>74.3</ele>
        <time>2022-07-10T11:48:56Z</time>
      </trkpt>
      <trkpt lat="49.83012" lon="2.56426">
        <ele>74.3</ele>
        <time>2022-07-10T11:48:58Z</time>
      </trkpt>
      <trkpt lat="49.83012" lon="2.56424">
        <ele>74.3</ele>
        <time>2022-07-10T11:48:59Z</time>
      </trkpt>
      <trkpt lat="49.83012" lon="2.56422">
        <ele>74.4</ele>
        <time>2022-07-10T11:49:00Z</time>
      </trkpt>
      <trkpt lat="49.83013" lon="2.56421">
        <ele>74.4</ele>
        <time>2022-07-10T11:49:01Z</time>
      </trkpt>
      <trkpt lat="49.83013" lon="2.56417">
        <ele>74.4</ele>
        <time>2022-07-10T11:49:02Z</time>
      </trkpt>
      <trkpt lat="49.83013" lon="2.56416">
        <ele>74.4</ele>
        <time>2022-07-10T11:49:03Z</time>
      </trkpt>
      <trkpt lat="49.83013" lon="2.56414">
        <ele>74.4</ele>
        <time>2022-07-10T11:49:04Z</time>
      </trkpt>
      <trkpt lat="49.83013" lon="2.56412">
        <ele>74.4</ele>
        <time>2022-07-10T11:49:05Z</time>
      </trkpt>
      <trkpt lat="49.83013" lon="2.5641">
        <ele>74.4</ele>
        <time>2022-07-10T11:49:07Z</time>
      </trkpt>
      <trkpt lat="49.83013" lon="2.56408">
        <ele>74.4</ele>
        <time>2022-07-10T11:49:09Z</time>
      </trkpt>
      <trkpt lat="49.83013" lon="2.56405">
        <ele>74.5</ele>
        <time>2022-07-10T11:49:10Z</time>
      </trkpt>
      <trkpt lat="49.83013" lon="2.56404">
        <ele>74.5</ele>
        <time>2022-07-10T11:49:11Z</time>
      </trkpt>
      <trkpt lat="49.83013" lon="2.56402">
        <ele>74.5</ele>
        <time>2022-07-10T11:49:12Z</time>
      </trkpt>
      <trkpt lat="49.83013" lon="2.56401">
        <ele>74.5</ele>
        <time>2022-07-10T11:49:13Z</time>
      </trkpt>
      <trkpt lat="49.83013" lon="2.56397">
        <ele>74.5</ele>
        <time>2022-07-10T11:49:14Z</time>
      </trkpt>
      <trkpt lat="49.83013" lon="2.56395">
        <ele>74.6</ele>
        <time>2022-07-10T11:49:15Z</time>
      </trkpt>
      <trkpt lat="49.83013" lon="2.56392">
        <ele>74.6</ele>
        <time>2022-07-10T11:49:17Z</time>
      </trkpt>
      <trkpt lat="49.83013" lon="2.56391">
        <ele>74.6</ele>
        <time>2022-07-10T11:49:18Z</time>
      </trkpt>
      <trkpt lat="49.83013" lon="2.56389">
        <ele>74.6</ele>
        <time>2022-07-10T11:49:19Z</time>
      </trkpt>
      <trkpt lat="49.83014" lon="2.56388">
        <ele>74.6</ele>
        <time>2022-07-10T11:49:20Z</time>
      </trkpt>
      <trkpt lat="49.83014" lon="2.56386">
        <ele>74.7</ele>
        <time>2022-07-10T11:49:21Z</time>
      </trkpt>
      <trkpt lat="49.83014" lon="2.56385">
        <ele>74.7</ele>
        <time>2022-07-10T11:49:23Z</time>
      </trkpt>
      <trkpt lat="49.83014" lon="2.56383">
        <ele>74.7</ele>
        <time>2022-07-10T11:49:24Z</time>
      </trkpt>
      <trkpt lat="49.83014" lon="2.56381">
        <ele>74.7</ele>
        <time>2022-07-10T11:49:25Z</time>
      </trkpt>
      <trkpt lat="49.83014" lon="2.56378">
        <ele>74.8</ele>
        <time>2022-07-10T11:49:26Z</time>
      </trkpt>
      <trkpt lat="49.83014" lon="2.56375">
        <ele>74.8</ele>
        <time>2022-07-10T11:49:27Z</time>
      </trkpt>
      <trkpt lat="49.83014" lon="2.56374">
        <ele>74.8</ele>
        <time>2022-07-10T11:49:29Z</time>
      </trkpt>
      <trkpt lat="49.83014" lon="2.56372">
        <ele>74.8</ele>
        <time>2022-07-10T11:49:30Z</time>
      </trkpt>
      <trkpt lat="49.83014" lon="2.56371">
        <ele>74.9</ele>
        <time>2022-07-10T11:49:31Z</time>
      </trkpt>
      <trkpt lat="49.83014" lon="2.5637">
        <ele>74.9</ele>
        <time>2022-07-10T11:49:32Z</time>
      </trkpt>
      <trkpt lat="49.83014" lon="2.56368">
        <ele>74.9</ele>
        <time>2022-07-10T11:49:33Z</time>
      </trkpt>
      <trkpt lat="49.83014" lon="2.56366">
        <ele>74.9</ele>
        <time>2022-07-10T11:49:34Z</time>
      </trkpt>
      <trkpt lat="49.83014" lon="2.56365">
        <ele>74.9</ele>
        <time>2022-07-10T11:49:35Z</time>
      </trkpt>
      <trkpt lat="49.83014" lon="2.56363">
        <ele>75</ele>
        <time>2022-07-10T11:49:36Z</time>
      </trkpt>
      <trkpt lat="49.83014" lon="2.5636">
        <ele>75</ele>
        <time>2022-07-10T11:49:38Z</time>
      </trkpt>
      <trkpt lat="49.83014" lon="2.56358">
        <ele>75</ele>
        <time>2022-07-10T11:49:39Z</time>
      </trkpt>
      <trkpt lat="49.83014" lon="2.56357">
        <ele>75</ele>
        <time>2022-07-10T11:49:40Z</time>
      </trkpt>
      <trkpt lat="49.83014" lon="2.56354">
        <ele>75.1</ele>
        <time>2022-07-10T11:49:41Z</time>
      </trkpt>
      <trkpt lat="49.83014" lon="2.56353">
        <ele>75.1</ele>
        <time>2022-07-10T11:49:42Z</time>
      </trkpt>
      <trkpt lat="49.83015" lon="2.56351">
        <ele>75.1</ele>
        <time>2022-07-10T11:49:44Z</time>
      </trkpt>
      <trkpt lat="49.83015" lon="2.56349">
        <ele>75.2</ele>
        <time>2022-07-10T11:49:45Z</time>
      </trkpt>
      <trkpt lat="49.83014" lon="2.56347">
        <ele>75.2</ele>
        <time>2022-07-10T11:49:46Z</time>
      </trkpt>
      <trkpt lat="49.83014" lon="2.56345">
        <ele>75.2</ele>
        <time>2022-07-10T11:49:47Z</time>
      </trkpt>
      <trkpt lat="49.83014" lon="2.56344">
        <ele>75.2</ele>
        <time>2022-07-10T11:49:48Z</time>
      </trkpt>
      <trkpt lat="49.83014" lon="2.56342">
        <ele>75.2</ele>
        <time>2022-07-10T11:49:49Z</time>
      </trkpt>
      <trkpt lat="49.83014" lon="2.5634">
        <ele>75.3</ele>
        <time>2022-07-10T11:49:50Z</time>
      </trkpt>
      <trkpt lat="49.83014" lon="2.56338">
        <ele>75.3</ele>
        <time>2022-07-10T11:49:52Z</time>
      </trkpt>
      <trkpt lat="49.83014" lon="2.56337">
        <ele>75.3</ele>
        <time>2022-07-10T11:49:53Z</time>
      </trkpt>
      <trkpt lat="49.83015" lon="2.56333">
        <ele>75.4</ele>
        <time>2022-07-10T11:49:54Z</time>
      </trkpt>
      <trkpt lat="49.83015" lon="2.56332">
        <ele>75.4</ele>
        <time>2022-07-10T11:49:55Z</time>
      </trkpt>
      <trkpt lat="49.83015" lon="2.56331">
        <ele>75.4</ele>
        <time>2022-07-10T11:49:56Z</time>
      </trkpt>
      <trkpt lat="49.83015" lon="2.56329">
        <ele>75.4</ele>
        <time>2022-07-10T11:49:57Z</time>
      </trkpt>
      <trkpt lat="49.83015" lon="2.56327">
        <ele>75.4</ele>
        <time>2022-07-10T11:49:58Z</time>
      </trkpt>
      <trkpt lat="49.83015" lon="2.56325">
        <ele>75.5</ele>
        <time>2022-07-10T11:49:59Z</time>
      </trkpt>
      <trkpt lat="49.83015" lon="2.56323">
        <ele>75.5</ele>
        <time>2022-07-10T11:50:01Z</time>
      </trkpt>
      <trkpt lat="49.83016" lon="2.56323">
        <ele>75.5</ele>
        <time>2022-07-10T11:50:02Z</time>
      </trkpt>
      <trkpt lat="49.83016" lon="2.56322">
        <ele>75.5</ele>
        <time>2022-07-10T11:50:03Z</time>
      </trkpt>
      <trkpt lat="49.83017" lon="2.5632">
        <ele>75.5</ele>
        <time>2022-07-10T11:50:04Z</time>
      </trkpt>
      <trkpt lat="49.83017" lon="2.5632">
        <ele>75.6</ele>
        <time>2022-07-10T11:50:05Z</time>
      </trkpt>
      <trkpt lat="49.83017" lon="2.56318">
        <ele>75.6</ele>
        <time>2022-07-10T11:50:06Z</time>
      </trkpt>
      <trkpt lat="49.83017" lon="2.56318">
        <ele>75.6</ele>
        <time>2022-07-10T11:50:07Z</time>
      </trkpt>
      <trkpt lat="49.83017" lon="2.56318">
        <ele>75.6</ele>
        <time>2022-07-10T11:50:08Z</time>
      </trkpt>
      <trkpt lat="49.83017" lon="2.56317">
        <ele>75.6</ele>
        <time>2022-07-10T11:50:09Z</time>
      </trkpt>
      <trkpt lat="49.83017" lon="2.56316">
        <ele>75.6</ele>
        <time>2022-07-10T11:50:10Z</time>
      </trkpt>
      <trkpt lat="49.83017" lon="2.56315">
        <ele>75.6</ele>
        <time>2022-07-10T11:50:11Z</time>
      </trkpt>
      <trkpt lat="49.83017" lon="2.56314">
        <ele>75.6</ele>
        <time>2022-07-10T11:50:12Z</time>
      </trkpt>
      <trkpt lat="49.83016" lon="2.56313">
        <ele>75.7</ele>
        <time>2022-07-10T11:50:13Z</time>
      </trkpt>
      <trkpt lat="49.83016" lon="2.56311">
        <ele>75.7</ele>
        <time>2022-07-10T11:50:14Z</time>
      </trkpt>
      <trkpt lat="49.83016" lon="2.56308">
        <ele>75.7</ele>
        <time>2022-07-10T11:50:16Z</time>
      </trkpt>
      <trkpt lat="49.83016" lon="2.56307">
        <ele>75.7</ele>
        <time>2022-07-10T11:50:17Z</time>
      </trkpt>
      <trkpt lat="49.83016" lon="2.56306">
        <ele>75.8</ele>
        <time>2022-07-10T11:50:18Z</time>
      </trkpt>
      <trkpt lat="49.83016" lon="2.56304">
        <ele>75.8</ele>
        <time>2022-07-10T11:50:19Z</time>
      </trkpt>
      <trkpt lat="49.83016" lon="2.56301">
        <ele>75.8</ele>
        <time>2022-07-10T11:50:20Z</time>
      </trkpt>
      <trkpt lat="49.83016" lon="2.563">
        <ele>75.8</ele>
        <time>2022-07-10T11:50:21Z</time>
      </trkpt>
      <trkpt lat="49.83016" lon="2.56298">
        <ele>75.8</ele>
        <time>2022-07-10T11:50:22Z</time>
      </trkpt>
      <trkpt lat="49.83016" lon="2.56296">
        <ele>75.9</ele>
        <time>2022-07-10T11:50:24Z</time>
      </trkpt>
      <trkpt lat="49.83016" lon="2.56294">
        <ele>75.9</ele>
        <time>2022-07-10T11:50:25Z</time>
      </trkpt>
      <trkpt lat="49.83016" lon="2.56292">
        <ele>75.9</ele>
        <time>2022-07-10T11:50:26Z</time>
      </trkpt>
      <trkpt lat="49.83016" lon="2.5629">
        <ele>75.9</ele>
        <time>2022-07-10T11:50:27Z</time>
      </trkpt>
      <trkpt lat="49.83016" lon="2.56288">
        <ele>76</ele>
        <time>2022-07-10T11:50:28Z</time>
      </trkpt>
      <trkpt lat="49.83016" lon="2.56286">
        <ele>76</ele>
        <time>2022-07-10T11:50:29Z</time>
      </trkpt>
      <trkpt lat="49.83016" lon="2.56284">
        <ele>76</ele>
        <time>2022-07-10T11:50:31Z</time>
      </trkpt>
      <trkpt lat="49.83016" lon="2.56283">
        <ele>76</ele>
        <time>2022-07-10T11:50:32Z</time>
      </trkpt>
      <trkpt lat="49.83017" lon="2.56281">
        <ele>76</ele>
        <time>2022-07-10T11:50:33Z</time>
      </trkpt>
      <trkpt lat="49.83017" lon="2.5628">
        <ele>76</ele>
        <time>2022-07-10T11:50:35Z</time>
      </trkpt>
      <trkpt lat="49.83017" lon="2.56279">
        <ele>76</ele>
        <time>2022-07-10T11:50:36Z</time>
      </trkpt>
      <trkpt lat="49.83017" lon="2.56277">
        <ele>76.1</ele>
        <time>2022-07-10T11:50:37Z</time>
      </trkpt>
      <trkpt lat="49.83017" lon="2.56277">
        <ele>76.1</ele>
        <time>2022-07-10T11:50:38Z</time>
      </trkpt>
      <trkpt lat="49.83017" lon="2.56277">
        <ele>76.1</ele>
        <time>2022-07-10T11:50:39Z</time>
      </trkpt>
      <trkpt lat="49.83017" lon="2.56276">
        <ele>76.1</ele>
        <time>2022-07-10T11:50:40Z</time>
      </trkpt>
      <trkpt lat="49.83017" lon="2.56277">
        <ele>76.2</ele>
        <time>2022-07-10T11:50:41Z</time>
      </trkpt>
      <trkpt lat="49.83017" lon="2.56277">
        <ele>76.2</ele>
        <time>2022-07-10T11:50:42Z</time>
      </trkpt>
      <trkpt lat="49.83017" lon="2.56277">
        <ele>76.2</ele>
        <time>2022-07-10T11:50:43Z</time>
      </trkpt>
      <trkpt lat="49.83017" lon="2.56277">
        <ele>76.2</ele>
        <time>2022-07-10T11:50:44Z</time>
      </trkpt>
      <trkpt lat="49.83017" lon="2.56277">
        <ele>76.2</ele>
        <time>2022-07-10T11:50:45Z</time>
      </trkpt>
      <trkpt lat="49.83017" lon="2.56277">
        <ele>76.2</ele>
        <time>2022-07-10T11:50:46Z</time>
      </trkpt>
      <trkpt lat="49.83017" lon="2.56277">
        <ele>76.2</ele>
        <time>2022-07-10T11:50:47Z</time>
      </trkpt>
      <trkpt lat="49.83017" lon="2.56277">
        <ele>76.2</ele>
        <time>2022-07-10T11:50:48Z</time>
      </trkpt>
      <trkpt lat="49.83017" lon="2.56277">
        <ele>76.2</ele>
        <time>2022-07-10T11:50:49Z</time>
      </trkpt>
      <trkpt lat="49.83017" lon="2.56277">
        <ele>76.2</ele>
        <time>2022-07-10T11:50:50Z</time>
      </trkpt>
      <trkpt lat="49.83017" lon="2.56277">
        <ele>76.2</ele>
        <time>2022-07-10T11:50:51Z</time>
      </trkpt>
      <trkpt lat="49.83018" lon="2.56278">
        <ele>76.2</ele>
        <time>2022-07-10T11:50:52Z</time>
      </trkpt>
      <trkpt lat="49.83018" lon="2.56278">
        <ele>76.2</ele>
        <time>2022-07-10T11:50:53Z</time>
      </trkpt>
      <trkpt lat="49.83018" lon="2.56278">
        <ele>76.2</ele>
        <time>2022-07-10T11:50:54Z</time>
      </trkpt>
      <trkpt lat="49.83018" lon="2.56278">
        <ele>76.2</ele>
        <time>2022-07-10T11:50:55Z</time>
      </trkpt>
      <trkpt lat="49.83018" lon="2.56278">
        <ele>76.2</ele>
        <time>2022-07-10T11:50:56Z</time>
      </trkpt>
      <trkpt lat="49.83018" lon="2.56278">
        <ele>76.2</ele>
        <time>2022-07-10T11:50:57Z</time>
      </trkpt>
      <trkpt lat="49.83018" lon="2.56278">
        <ele>76.2</ele>
        <time>2022-07-10T11:50:58Z</time>
      </trkpt>
      <trkpt lat="49.83018" lon="2.56278">
        <ele>76.2</ele>
        <time>2022-07-10T11:50:59Z</time>
      </trkpt>
      <trkpt lat="49.83018" lon="2.56278">
        <ele>76.2</ele>
        <time>2022-07-10T11:51:00Z</time>
      </trkpt>
      <trkpt lat="49.83018" lon="2.56278">
        <ele>76.2</ele>
        <time>2022-07-10T11:51:01Z</time>
      </trkpt>
      <trkpt lat="49.83018" lon="2.56278">
        <ele>76.2</ele>
        <time>2022-07-10T11:51:02Z</time>
      </trkpt>
      <trkpt lat="49.83018" lon="2.56278">
        <ele>76.2</ele>
        <time>2022-07-10T11:51:03Z</time>
      </trkpt>
      <trkpt lat="49.83018" lon="2.56278">
        <ele>76.2</ele>
        <time>2022-07-10T11:51:04Z</time>
      </trkpt>
      <trkpt lat="49.83018" lon="2.56278">
        <ele>76.2</ele>
        <time>2022-07-10T11:51:05Z</time>
      </trkpt>
      <trkpt lat="49.83018" lon="2.56278">
        <ele>76.2</ele>
        <time>2022-07-10T11:51:06Z</time>
      </trkpt>
      <trkpt lat="49.83018" lon="2.56278">
        <ele>76.2</ele>
        <time>2022-07-10T11:51:07Z</time>
      </trkpt>
      <trkpt lat="49.83018" lon="2.56278">
        <ele>76.2</ele>
        <time>2022-07-10T11:51:08Z</time>
      </trkpt>
      <trkpt lat="49.83018" lon="2.56278">
        <ele>76.2</ele>
        <time>2022-07-10T11:51:09Z</time>
      </trkpt>
      <trkpt lat="49.83018" lon="2.56278">
        <ele>76.2</ele>
        <time>2022-07-10T11:51:10Z</time>
      </trkpt>
      <trkpt lat="49.83017" lon="2.56279">
        <ele>76.2</ele>
        <time>2022-07-10T11:51:11Z</time>
      </trkpt>
      <trkpt lat="49.83017" lon="2.56279">
        <ele>76.2</ele>
        <time>2022-07-10T11:51:12Z</time>
      </trkpt>
      <trkpt lat="49.83016" lon="2.5628">
        <ele>76.2</ele>
        <time>2022-07-10T11:51:13Z</time>
      </trkpt>
      <trkpt lat="49.83016" lon="2.5628">
        <ele>76.2</ele>
        <time>2022-07-10T11:51:14Z</time>
      </trkpt>
      <trkpt lat="49.83016" lon="2.5628">
        <ele>76.2</ele>
        <time>2022-07-10T11:51:15Z</time>
      </trkpt>
      <trkpt lat="49.83016" lon="2.5628">
        <ele>76.2</ele>
        <time>2022-07-10T11:51:16Z</time>
      </trkpt>
      <trkpt lat="49.83016" lon="2.5628">
        <ele>76.2</ele>
        <time>2022-07-10T11:51:17Z</time>
      </trkpt>
      <trkpt lat="49.83016" lon="2.5628">
        <ele>76.3</ele>
        <time>2022-07-10T11:51:18Z</time>
      </trkpt>
      <trkpt lat="49.83016" lon="2.5628">
        <ele>76.3</ele>
        <time>2022-07-10T11:51:19Z</time>
      </trkpt>
      <trkpt lat="49.83016" lon="2.5628">
        <ele>76.3</ele>
        <time>2022-07-10T11:51:20Z</time>
      </trkpt>
      <trkpt lat="49.83017" lon="2.5628">
        <ele>76.3</ele>
        <time>2022-07-10T11:51:21Z</time>
      </trkpt>
      <trkpt lat="49.83017" lon="2.5628">
        <ele>76.3</ele>
        <time>2022-07-10T11:51:22Z</time>
      </trkpt>
      <trkpt lat="49.83017" lon="2.5628">
        <ele>76.3</ele>
        <time>2022-07-10T11:51:24Z</time>
      </trkpt>
      <trkpt lat="49.83017" lon="2.56279">
        <ele>76.3</ele>
        <time>2022-07-10T11:51:25Z</time>
      </trkpt>
      <trkpt lat="49.83018" lon="2.56279">
        <ele>76.3</ele>
        <time>2022-07-10T11:51:26Z</time>
      </trkpt>
      <trkpt lat="49.83019" lon="2.56278">
        <ele>76.3</ele>
        <time>2022-07-10T11:51:27Z</time>
      </trkpt>
      <trkpt lat="49.83021" lon="2.56278">
        <ele>76.4</ele>
        <time>2022-07-10T11:51:29Z</time>
      </trkpt>
      <trkpt lat="49.83023" lon="2.56277">
        <ele>76.4</ele>
        <time>2022-07-10T11:51:30Z</time>
      </trkpt>
      <trkpt lat="49.83024" lon="2.56277">
        <ele>76.5</ele>
        <time>2022-07-10T11:51:31Z</time>
      </trkpt>
      <trkpt lat="49.83024" lon="2.56276">
        <ele>76.5</ele>
        <time>2022-07-10T11:51:32Z</time>
      </trkpt>
      <trkpt lat="49.83025" lon="2.56276">
        <ele>76.5</ele>
        <time>2022-07-10T11:51:34Z</time>
      </trkpt>
      <trkpt lat="49.83026" lon="2.56276">
        <ele>76.5</ele>
        <time>2022-07-10T11:51:35Z</time>
      </trkpt>
      <trkpt lat="49.83028" lon="2.56275">
        <ele>76.6</ele>
        <time>2022-07-10T11:51:36Z</time>
      </trkpt>
      <trkpt lat="49.83029" lon="2.56275">
        <ele>76.6</ele>
        <time>2022-07-10T11:51:37Z</time>
      </trkpt>
      <trkpt lat="49.83029" lon="2.56275">
        <ele>76.6</ele>
        <time>2022-07-10T11:51:38Z</time>
      </trkpt>
      <trkpt lat="49.8303" lon="2.56275">
        <ele>76.7</ele>
        <time>2022-07-10T11:51:39Z</time>
      </trkpt>
      <trkpt lat="49.8303" lon="2.56275">
        <ele>76.7</ele>
        <time>2022-07-10T11:51:40Z</time>
      </trkpt>
      <trkpt lat="49.83031" lon="2.56275">
        <ele>76.7</ele>
        <time>2022-07-10T11:51:41Z</time>
      </trkpt>
      <trkpt lat="49.83032" lon="2.56274">
        <ele>76.7</ele>
        <time>2022-07-10T11:51:42Z</time>
      </trkpt>
      <trkpt lat="49.83033" lon="2.56274">
        <ele>76.8</ele>
        <time>2022-07-10T11:51:43Z</time>
      </trkpt>
      <trkpt lat="49.83033" lon="2.56273">
        <ele>76.8</ele>
        <time>2022-07-10T11:51:45Z</time>
      </trkpt>
      <trkpt lat="49.83034" lon="2.56273">
        <ele>76.8</ele>
        <time>2022-07-10T11:51:46Z</time>
      </trkpt>
      <trkpt lat="49.83037" lon="2.56272">
        <ele>76.9</ele>
        <time>2022-07-10T11:51:47Z</time>
      </trkpt>
      <trkpt lat="49.83038" lon="2.56271">
        <ele>77</ele>
        <time>2022-07-10T11:51:48Z</time>
      </trkpt>
      <trkpt lat="49.8304" lon="2.5627">
        <ele>77</ele>
        <time>2022-07-10T11:51:49Z</time>
      </trkpt>
      <trkpt lat="49.8304" lon="2.56269">
        <ele>77.1</ele>
        <time>2022-07-10T11:51:51Z</time>
      </trkpt>
      <trkpt lat="49.83041" lon="2.56269">
        <ele>77.1</ele>
        <time>2022-07-10T11:51:52Z</time>
      </trkpt>
      <trkpt lat="49.83044" lon="2.56267">
        <ele>77.2</ele>
        <time>2022-07-10T11:51:54Z</time>
      </trkpt>
      <trkpt lat="49.83045" lon="2.56266">
        <ele>77.3</ele>
        <time>2022-07-10T11:51:55Z</time>
      </trkpt>
      <trkpt lat="49.83046" lon="2.56265">
        <ele>77.4</ele>
        <time>2022-07-10T11:51:56Z</time>
      </trkpt>
      <trkpt lat="49.83047" lon="2.56265">
        <ele>77.4</ele>
        <time>2022-07-10T11:51:57Z</time>
      </trkpt>
      <trkpt lat="49.83048" lon="2.56264">
        <ele>77.5</ele>
        <time>2022-07-10T11:51:58Z</time>
      </trkpt>
      <trkpt lat="49.83051" lon="2.56262">
        <ele>77.6</ele>
        <time>2022-07-10T11:51:59Z</time>
      </trkpt>
      <trkpt lat="49.83052" lon="2.56261">
        <ele>77.6</ele>
        <time>2022-07-10T11:52:01Z</time>
      </trkpt>
      <trkpt lat="49.83054" lon="2.5626">
        <ele>77.7</ele>
        <time>2022-07-10T11:52:02Z</time>
      </trkpt>
      <trkpt lat="49.83055" lon="2.56259">
        <ele>77.8</ele>
        <time>2022-07-10T11:52:03Z</time>
      </trkpt>
      <trkpt lat="49.83056" lon="2.56259">
        <ele>77.8</ele>
        <time>2022-07-10T11:52:04Z</time>
      </trkpt>
      <trkpt lat="49.83057" lon="2.56258">
        <ele>77.9</ele>
        <time>2022-07-10T11:52:05Z</time>
      </trkpt>
      <trkpt lat="49.83058" lon="2.56256">
        <ele>77.9</ele>
        <time>2022-07-10T11:52:06Z</time>
      </trkpt>
      <trkpt lat="49.83059" lon="2.56255">
        <ele>78</ele>
        <time>2022-07-10T11:52:08Z</time>
      </trkpt>
      <trkpt lat="49.83059" lon="2.56253">
        <ele>78</ele>
        <time>2022-07-10T11:52:09Z</time>
      </trkpt>
      <trkpt lat="49.8306" lon="2.56252">
        <ele>78.1</ele>
        <time>2022-07-10T11:52:11Z</time>
      </trkpt>
      <trkpt lat="49.83061" lon="2.5625">
        <ele>78.2</ele>
        <time>2022-07-10T11:52:13Z</time>
      </trkpt>
      <trkpt lat="49.83062" lon="2.56249">
        <ele>78.2</ele>
        <time>2022-07-10T11:52:14Z</time>
      </trkpt>
      <trkpt lat="49.83063" lon="2.56249">
        <ele>78.2</ele>
        <time>2022-07-10T11:52:15Z</time>
      </trkpt>
      <trkpt lat="49.83064" lon="2.56249">
        <ele>78.3</ele>
        <time>2022-07-10T11:52:16Z</time>
      </trkpt>
      <trkpt lat="49.83065" lon="2.56249">
        <ele>78.3</ele>
        <time>2022-07-10T11:52:17Z</time>
      </trkpt>
      <trkpt lat="49.83066" lon="2.56249">
        <ele>78.4</ele>
        <time>2022-07-10T11:52:19Z</time>
      </trkpt>
      <trkpt lat="49.83066" lon="2.56249">
        <ele>78.4</ele>
        <time>2022-07-10T11:52:20Z</time>
      </trkpt>
      <trkpt lat="49.83067" lon="2.56249">
        <ele>78.5</ele>
        <time>2022-07-10T11:52:21Z</time>
      </trkpt>
      <trkpt lat="49.83068" lon="2.56249">
        <ele>78.5</ele>
        <time>2022-07-10T11:52:22Z</time>
      </trkpt>
      <trkpt lat="49.8307" lon="2.56249">
        <ele>78.6</ele>
        <time>2022-07-10T11:52:23Z</time>
      </trkpt>
      <trkpt lat="49.83071" lon="2.56249">
        <ele>78.6</ele>
        <time>2022-07-10T11:52:25Z</time>
      </trkpt>
      <trkpt lat="49.83072" lon="2.56249">
        <ele>78.7</ele>
        <time>2022-07-10T11:52:26Z</time>
      </trkpt>
      <trkpt lat="49.83074" lon="2.56248">
        <ele>78.8</ele>
        <time>2022-07-10T11:52:27Z</time>
      </trkpt>
      <trkpt lat="49.83075" lon="2.56248">
        <ele>78.8</ele>
        <time>2022-07-10T11:52:28Z</time>
      </trkpt>
      <trkpt lat="49.83076" lon="2.56247">
        <ele>78.9</ele>
        <time>2022-07-10T11:52:30Z</time>
      </trkpt>
      <trkpt lat="49.83077" lon="2.56246">
        <ele>78.9</ele>
        <time>2022-07-10T11:52:31Z</time>
      </trkpt>
      <trkpt lat="49.83078" lon="2.56246">
        <ele>79</ele>
        <time>2022-07-10T11:52:32Z</time>
      </trkpt>
      <trkpt lat="49.83079" lon="2.56245">
        <ele>79</ele>
        <time>2022-07-10T11:52:33Z</time>
      </trkpt>
      <trkpt lat="49.83079" lon="2.56245">
        <ele>79.1</ele>
        <time>2022-07-10T11:52:34Z</time>
      </trkpt>
      <trkpt lat="49.8308" lon="2.56244">
        <ele>79.1</ele>
        <time>2022-07-10T11:52:36Z</time>
      </trkpt>
      <trkpt lat="49.83081" lon="2.56243">
        <ele>79.1</ele>
        <time>2022-07-10T11:52:37Z</time>
      </trkpt>
      <trkpt lat="49.83082" lon="2.56243">
        <ele>79.2</ele>
        <time>2022-07-10T11:52:38Z</time>
      </trkpt>
      <trkpt lat="49.83084" lon="2.56242">
        <ele>79.3</ele>
        <time>2022-07-10T11:52:39Z</time>
      </trkpt>
      <trkpt lat="49.83084" lon="2.56242">
        <ele>79.3</ele>
        <time>2022-07-10T11:52:40Z</time>
      </trkpt>
      <trkpt lat="49.83085" lon="2.56242">
        <ele>79.4</ele>
        <time>2022-07-10T11:52:41Z</time>
      </trkpt>
      <trkpt lat="49.83086" lon="2.56243">
        <ele>79.4</ele>
        <time>2022-07-10T11:52:43Z</time>
      </trkpt>
      <trkpt lat="49.83087" lon="2.56243">
        <ele>79.4</ele>
        <time>2022-07-10T11:52:44Z</time>
      </trkpt>
      <trkpt lat="49.83088" lon="2.56244">
        <ele>79.5</ele>
        <time>2022-07-10T11:52:45Z</time>
      </trkpt>
      <trkpt lat="49.83089" lon="2.56244">
        <ele>79.5</ele>
        <time>2022-07-10T11:52:46Z</time>
      </trkpt>
      <trkpt lat="49.83088" lon="2.56245">
        <ele>79.6</ele>
        <time>2022-07-10T11:52:47Z</time>
      </trkpt>
      <trkpt lat="49.83089" lon="2.56245">
        <ele>79.6</ele>
        <time>2022-07-10T11:52:48Z</time>
      </trkpt>
      <trkpt lat="49.8309" lon="2.56245">
        <ele>79.6</ele>
        <time>2022-07-10T11:52:49Z</time>
      </trkpt>
      <trkpt lat="49.83091" lon="2.56245">
        <ele>79.7</ele>
        <time>2022-07-10T11:52:50Z</time>
      </trkpt>
      <trkpt lat="49.83093" lon="2.56245">
        <ele>79.8</ele>
        <time>2022-07-10T11:52:51Z</time>
      </trkpt>
      <trkpt lat="49.83095" lon="2.56244">
        <ele>79.9</ele>
        <time>2022-07-10T11:52:53Z</time>
      </trkpt>
      <trkpt lat="49.83096" lon="2.56244">
        <ele>79.9</ele>
        <time>2022-07-10T11:52:54Z</time>
      </trkpt>
      <trkpt lat="49.83096" lon="2.56243">
        <ele>79.9</ele>
        <time>2022-07-10T11:52:55Z</time>
      </trkpt>
      <trkpt lat="49.83097" lon="2.56242">
        <ele>80</ele>
        <time>2022-07-10T11:52:56Z</time>
      </trkpt>
      <trkpt lat="49.83098" lon="2.56242">
        <ele>80</ele>
        <time>2022-07-10T11:52:57Z</time>
      </trkpt>
      <trkpt lat="49.831" lon="2.56241">
        <ele>80.1</ele>
        <time>2022-07-10T11:52:58Z</time>
      </trkpt>
      <trkpt lat="49.83101" lon="2.56241">
        <ele>80.2</ele>
        <time>2022-07-10T11:53:00Z</time>
      </trkpt>
      <trkpt lat="49.83102" lon="2.5624">
        <ele>80.2</ele>
        <time>2022-07-10T11:53:01Z</time>
      </trkpt>
      <trkpt lat="49.83102" lon="2.5624">
        <ele>80.2</ele>
        <time>2022-07-10T11:53:02Z</time>
      </trkpt>
      <trkpt lat="49.83103" lon="2.56239">
        <ele>80.3</ele>
        <time>2022-07-10T11:53:03Z</time>
      </trkpt>
      <trkpt lat="49.83104" lon="2.56239">
        <ele>80.3</ele>
        <time>2022-07-10T11:53:04Z</time>
      </trkpt>
      <trkpt lat="49.83105" lon="2.56238">
        <ele>80.4</ele>
        <time>2022-07-10T11:53:05Z</time>
      </trkpt>
      <trkpt lat="49.83107" lon="2.56238">
        <ele>80.4</ele>
        <time>2022-07-10T11:53:06Z</time>
      </trkpt>
      <trkpt lat="49.83108" lon="2.56237">
        <ele>80.5</ele>
        <time>2022-07-10T11:53:07Z</time>
      </trkpt>
      <trkpt lat="49.8311" lon="2.56236">
        <ele>80.5</ele>
        <time>2022-07-10T11:53:08Z</time>
      </trkpt>
      <trkpt lat="49.83111" lon="2.56236">
        <ele>80.6</ele>
        <time>2022-07-10T11:53:09Z</time>
      </trkpt>
      <trkpt lat="49.83112" lon="2.56235">
        <ele>80.6</ele>
        <time>2022-07-10T11:53:10Z</time>
      </trkpt>
      <trkpt lat="49.83113" lon="2.56234">
        <ele>80.7</ele>
        <time>2022-07-10T11:53:12Z</time>
      </trkpt>
      <trkpt lat="49.83113" lon="2.56234">
        <ele>80.7</ele>
        <time>2022-07-10T11:53:13Z</time>
      </trkpt>
      <trkpt lat="49.83115" lon="2.56233">
        <ele>80.7</ele>
        <time>2022-07-10T11:53:14Z</time>
      </trkpt>
      <trkpt lat="49.83116" lon="2.56232">
        <ele>80.8</ele>
        <time>2022-07-10T11:53:15Z</time>
      </trkpt>
      <trkpt lat="49.83117" lon="2.56232">
        <ele>80.9</ele>
        <time>2022-07-10T11:53:16Z</time>
      </trkpt>
      <trkpt lat="49.83118" lon="2.56231">
        <ele>80.9</ele>
        <time>2022-07-10T11:53:17Z</time>
      </trkpt>
      <trkpt lat="49.83119" lon="2.56231">
        <ele>80.9</ele>
        <time>2022-07-10T11:53:19Z</time>
      </trkpt>
      <trkpt lat="49.8312" lon="2.5623">
        <ele>81</ele>
        <time>2022-07-10T11:53:20Z</time>
      </trkpt>
      <trkpt lat="49.83121" lon="2.5623">
        <ele>81</ele>
        <time>2022-07-10T11:53:21Z</time>
      </trkpt>
      <trkpt lat="49.83122" lon="2.56229">
        <ele>81.1</ele>
        <time>2022-07-10T11:53:22Z</time>
      </trkpt>
      <trkpt lat="49.83123" lon="2.56229">
        <ele>81.1</ele>
        <time>2022-07-10T11:53:23Z</time>
      </trkpt>
      <trkpt lat="49.83124" lon="2.56228">
        <ele>81.2</ele>
        <time>2022-07-10T11:53:24Z</time>
      </trkpt>
      <trkpt lat="49.83125" lon="2.56228">
        <ele>81.2</ele>
        <time>2022-07-10T11:53:25Z</time>
      </trkpt>
      <trkpt lat="49.83126" lon="2.56228">
        <ele>81.3</ele>
        <time>2022-07-10T11:53:26Z</time>
      </trkpt>
      <trkpt lat="49.83127" lon="2.56227">
        <ele>81.3</ele>
        <time>2022-07-10T11:53:28Z</time>
      </trkpt>
      <trkpt lat="49.83129" lon="2.56226">
        <ele>81.4</ele>
        <time>2022-07-10T11:53:29Z</time>
      </trkpt>
      <trkpt lat="49.8313" lon="2.56225">
        <ele>81.4</ele>
        <time>2022-07-10T11:53:31Z</time>
      </trkpt>
      <trkpt lat="49.83132" lon="2.56224">
        <ele>81.5</ele>
        <time>2022-07-10T11:53:32Z</time>
      </trkpt>
      <trkpt lat="49.83134" lon="2.56221">
        <ele>81.6</ele>
        <time>2022-07-10T11:53:35Z</time>
      </trkpt>
      <trkpt lat="49.83134" lon="2.5622">
        <ele>81.6</ele>
        <time>2022-07-10T11:53:36Z</time>
      </trkpt>
      <trkpt lat="49.83135" lon="2.56218">
        <ele>81.7</ele>
        <time>2022-07-10T11:53:37Z</time>
      </trkpt>
      <trkpt lat="49.83137" lon="2.56216">
        <ele>81.7</ele>
        <time>2022-07-10T11:53:39Z</time>
      </trkpt>
      <trkpt lat="49.83137" lon="2.56216">
        <ele>81.8</ele>
        <time>2022-07-10T11:53:40Z</time>
      </trkpt>
      <trkpt lat="49.83138" lon="2.56215">
        <ele>81.8</ele>
        <time>2022-07-10T11:53:41Z</time>
      </trkpt>
      <trkpt lat="49.83139" lon="2.56215">
        <ele>81.8</ele>
        <time>2022-07-10T11:53:42Z</time>
      </trkpt>
      <trkpt lat="49.8314" lon="2.56215">
        <ele>81.8</ele>
        <time>2022-07-10T11:53:43Z</time>
      </trkpt>
      <trkpt lat="49.83141" lon="2.56214">
        <ele>81.9</ele>
        <time>2022-07-10T11:53:44Z</time>
      </trkpt>
      <trkpt lat="49.83142" lon="2.56213">
        <ele>81.9</ele>
        <time>2022-07-10T11:53:45Z</time>
      </trkpt>
      <trkpt lat="49.83143" lon="2.56213">
        <ele>81.9</ele>
        <time>2022-07-10T11:53:46Z</time>
      </trkpt>
      <trkpt lat="49.83144" lon="2.56212">
        <ele>82</ele>
        <time>2022-07-10T11:53:47Z</time>
      </trkpt>
      <trkpt lat="49.83146" lon="2.56211">
        <ele>82</ele>
        <time>2022-07-10T11:53:49Z</time>
      </trkpt>
      <trkpt lat="49.83146" lon="2.56211">
        <ele>82</ele>
        <time>2022-07-10T11:53:50Z</time>
      </trkpt>
      <trkpt lat="49.83149" lon="2.5621">
        <ele>82.1</ele>
        <time>2022-07-10T11:53:51Z</time>
      </trkpt>
      <trkpt lat="49.8315" lon="2.5621">
        <ele>82.1</ele>
        <time>2022-07-10T11:53:53Z</time>
      </trkpt>
      <trkpt lat="49.83151" lon="2.56209">
        <ele>82.1</ele>
        <time>2022-07-10T11:53:54Z</time>
      </trkpt>
      <trkpt lat="49.83152" lon="2.56209">
        <ele>82.2</ele>
        <time>2022-07-10T11:53:55Z</time>
      </trkpt>
      <trkpt lat="49.83153" lon="2.56209">
        <ele>82.2</ele>
        <time>2022-07-10T11:53:56Z</time>
      </trkpt>
      <trkpt lat="49.83155" lon="2.56208">
        <ele>82.2</ele>
        <time>2022-07-10T11:53:57Z</time>
      </trkpt>
      <trkpt lat="49.83155" lon="2.56208">
        <ele>82.3</ele>
        <time>2022-07-10T11:53:59Z</time>
      </trkpt>
      <trkpt lat="49.83156" lon="2.56208">
        <ele>82.3</ele>
        <time>2022-07-10T11:54:00Z</time>
      </trkpt>
      <trkpt lat="49.83157" lon="2.56208">
        <ele>82.3</ele>
        <time>2022-07-10T11:54:01Z</time>
      </trkpt>
      <trkpt lat="49.83158" lon="2.56207">
        <ele>82.3</ele>
        <time>2022-07-10T11:54:02Z</time>
      </trkpt>
      <trkpt lat="49.8316" lon="2.56207">
        <ele>82.4</ele>
        <time>2022-07-10T11:54:03Z</time>
      </trkpt>
      <trkpt lat="49.83161" lon="2.56206">
        <ele>82.4</ele>
        <time>2022-07-10T11:54:05Z</time>
      </trkpt>
      <trkpt lat="49.83163" lon="2.56205">
        <ele>82.5</ele>
        <time>2022-07-10T11:54:07Z</time>
      </trkpt>
      <trkpt lat="49.83164" lon="2.56205">
        <ele>82.5</ele>
        <time>2022-07-10T11:54:08Z</time>
      </trkpt>
      <trkpt lat="49.83165" lon="2.56204">
        <ele>82.5</ele>
        <time>2022-07-10T11:54:09Z</time>
      </trkpt>
      <trkpt lat="49.83166" lon="2.56204">
        <ele>82.5</ele>
        <time>2022-07-10T11:54:11Z</time>
      </trkpt>
      <trkpt lat="49.83167" lon="2.56203">
        <ele>82.6</ele>
        <time>2022-07-10T11:54:12Z</time>
      </trkpt>
      <trkpt lat="49.83168" lon="2.56203">
        <ele>82.6</ele>
        <time>2022-07-10T11:54:13Z</time>
      </trkpt>
      <trkpt lat="49.8317" lon="2.56202">
        <ele>82.6</ele>
        <time>2022-07-10T11:54:14Z</time>
      </trkpt>
      <trkpt lat="49.83171" lon="2.56201">
        <ele>82.7</ele>
        <time>2022-07-10T11:54:15Z</time>
      </trkpt>
      <trkpt lat="49.83172" lon="2.562">
        <ele>82.7</ele>
        <time>2022-07-10T11:54:16Z</time>
      </trkpt>
      <trkpt lat="49.83173" lon="2.562">
        <ele>82.7</ele>
        <time>2022-07-10T11:54:18Z</time>
      </trkpt>
      <trkpt lat="49.83174" lon="2.56199">
        <ele>82.8</ele>
        <time>2022-07-10T11:54:19Z</time>
      </trkpt>
      <trkpt lat="49.83175" lon="2.56198">
        <ele>82.8</ele>
        <time>2022-07-10T11:54:20Z</time>
      </trkpt>
      <trkpt lat="49.83177" lon="2.56197">
        <ele>82.8</ele>
        <time>2022-07-10T11:54:21Z</time>
      </trkpt>
      <trkpt lat="49.83178" lon="2.56197">
        <ele>82.9</ele>
        <time>2022-07-10T11:54:22Z</time>
      </trkpt>
      <trkpt lat="49.83179" lon="2.56196">
        <ele>82.9</ele>
        <time>2022-07-10T11:54:23Z</time>
      </trkpt>
      <trkpt lat="49.83181" lon="2.56195">
        <ele>82.9</ele>
        <time>2022-07-10T11:54:24Z</time>
      </trkpt>
      <trkpt lat="49.83182" lon="2.56194">
        <ele>83</ele>
        <time>2022-07-10T11:54:26Z</time>
      </trkpt>
      <trkpt lat="49.83184" lon="2.56194">
        <ele>83</ele>
        <time>2022-07-10T11:54:27Z</time>
      </trkpt>
      <trkpt lat="49.83185" lon="2.56193">
        <ele>83</ele>
        <time>2022-07-10T11:54:28Z</time>
      </trkpt>
      <trkpt lat="49.83185" lon="2.56193">
        <ele>83</ele>
        <time>2022-07-10T11:54:29Z</time>
      </trkpt>
      <trkpt lat="49.83186" lon="2.56193">
        <ele>83</ele>
        <time>2022-07-10T11:54:30Z</time>
      </trkpt>
      <trkpt lat="49.83188" lon="2.56192">
        <ele>83.1</ele>
        <time>2022-07-10T11:54:31Z</time>
      </trkpt>
      <trkpt lat="49.83189" lon="2.56191">
        <ele>83.1</ele>
        <time>2022-07-10T11:54:32Z</time>
      </trkpt>
      <trkpt lat="49.83191" lon="2.56191">
        <ele>83.1</ele>
        <time>2022-07-10T11:54:34Z</time>
      </trkpt>
      <trkpt lat="49.83192" lon="2.5619">
        <ele>83.2</ele>
        <time>2022-07-10T11:54:35Z</time>
      </trkpt>
      <trkpt lat="49.83192" lon="2.5619">
        <ele>83.2</ele>
        <time>2022-07-10T11:54:36Z</time>
      </trkpt>
      <trkpt lat="49.83193" lon="2.5619">
        <ele>83.2</ele>
        <time>2022-07-10T11:54:37Z</time>
      </trkpt>
      <trkpt lat="49.83194" lon="2.5619">
        <ele>83.2</ele>
        <time>2022-07-10T11:54:38Z</time>
      </trkpt>
      <trkpt lat="49.83195" lon="2.56189">
        <ele>83.2</ele>
        <time>2022-07-10T11:54:39Z</time>
      </trkpt>
      <trkpt lat="49.83197" lon="2.56189">
        <ele>83.3</ele>
        <time>2022-07-10T11:54:41Z</time>
      </trkpt>
      <trkpt lat="49.83198" lon="2.56188">
        <ele>83.3</ele>
        <time>2022-07-10T11:54:42Z</time>
      </trkpt>
      <trkpt lat="49.83198" lon="2.56186">
        <ele>83.3</ele>
        <time>2022-07-10T11:54:43Z</time>
      </trkpt>
      <trkpt lat="49.83198" lon="2.56185">
        <ele>83.3</ele>
        <time>2022-07-10T11:54:44Z</time>
      </trkpt>
      <trkpt lat="49.83198" lon="2.56184">
        <ele>83.4</ele>
        <time>2022-07-10T11:54:46Z</time>
      </trkpt>
      <trkpt lat="49.83199" lon="2.56184">
        <ele>83.4</ele>
        <time>2022-07-10T11:54:48Z</time>
      </trkpt>
      <trkpt lat="49.832" lon="2.56184">
        <ele>83.4</ele>
        <time>2022-07-10T11:54:49Z</time>
      </trkpt>
      <trkpt lat="49.832" lon="2.56184">
        <ele>83.4</ele>
        <time>2022-07-10T11:54:50Z</time>
      </trkpt>
      <trkpt lat="49.83202" lon="2.56184">
        <ele>83.5</ele>
        <time>2022-07-10T11:54:52Z</time>
      </trkpt>
      <trkpt lat="49.83202" lon="2.56184">
        <ele>83.5</ele>
        <time>2022-07-10T11:54:53Z</time>
      </trkpt>
      <trkpt lat="49.83203" lon="2.56184">
        <ele>83.5</ele>
        <time>2022-07-10T11:54:54Z</time>
      </trkpt>
      <trkpt lat="49.83204" lon="2.56184">
        <ele>83.5</ele>
        <time>2022-07-10T11:54:55Z</time>
      </trkpt>
      <trkpt lat="49.83204" lon="2.56184">
        <ele>83.5</ele>
        <time>2022-07-10T11:54:56Z</time>
      </trkpt>
      <trkpt lat="49.83206" lon="2.56183">
        <ele>83.6</ele>
        <time>2022-07-10T11:54:57Z</time>
      </trkpt>
      <trkpt lat="49.83207" lon="2.56183">
        <ele>83.6</ele>
        <time>2022-07-10T11:54:58Z</time>
      </trkpt>
      <trkpt lat="49.83208" lon="2.56182">
        <ele>83.6</ele>
        <time>2022-07-10T11:55:00Z</time>
      </trkpt>
      <trkpt lat="49.83208" lon="2.56182">
        <ele>83.6</ele>
        <time>2022-07-10T11:55:01Z</time>
      </trkpt>
      <trkpt lat="49.8321" lon="2.5618">
        <ele>83.7</ele>
        <time>2022-07-10T11:55:02Z</time>
      </trkpt>
      <trkpt lat="49.8321" lon="2.56179">
        <ele>83.7</ele>
        <time>2022-07-10T11:55:03Z</time>
      </trkpt>
      <trkpt lat="49.83211" lon="2.56178">
        <ele>83.7</ele>
        <time>2022-07-10T11:55:04Z</time>
      </trkpt>
      <trkpt lat="49.83212" lon="2.56177">
        <ele>83.8</ele>
        <time>2022-07-10T11:55:05Z</time>
      </trkpt>
      <trkpt lat="49.83213" lon="2.56176">
        <ele>83.8</ele>
        <time>2022-07-10T11:55:06Z</time>
      </trkpt>
      <trkpt lat="49.83215" lon="2.56175">
        <ele>83.9</ele>
        <time>2022-07-10T11:55:07Z</time>
      </trkpt>
      <trkpt lat="49.83216" lon="2.56174">
        <ele>83.9</ele>
        <time>2022-07-10T11:55:09Z</time>
      </trkpt>
      <trkpt lat="49.83218" lon="2.56172">
        <ele>84</ele>
        <time>2022-07-10T11:55:10Z</time>
      </trkpt>
      <trkpt lat="49.83219" lon="2.56171">
        <ele>84</ele>
        <time>2022-07-10T11:55:11Z</time>
      </trkpt>
      <trkpt lat="49.8322" lon="2.5617">
        <ele>84.1</ele>
        <time>2022-07-10T11:55:12Z</time>
      </trkpt>
      <trkpt lat="49.83222" lon="2.56169">
        <ele>84.1</ele>
        <time>2022-07-10T11:55:13Z</time>
      </trkpt>
      <trkpt lat="49.83224" lon="2.56168">
        <ele>84.2</ele>
        <time>2022-07-10T11:55:14Z</time>
      </trkpt>
      <trkpt lat="49.83225" lon="2.56167">
        <ele>84.2</ele>
        <time>2022-07-10T11:55:16Z</time>
      </trkpt>
      <trkpt lat="49.83226" lon="2.56166">
        <ele>84.2</ele>
        <time>2022-07-10T11:55:17Z</time>
      </trkpt>
      <trkpt lat="49.83227" lon="2.56165">
        <ele>84.3</ele>
        <time>2022-07-10T11:55:18Z</time>
      </trkpt>
      <trkpt lat="49.83228" lon="2.56164">
        <ele>84.3</ele>
        <time>2022-07-10T11:55:19Z</time>
      </trkpt>
      <trkpt lat="49.8323" lon="2.56163">
        <ele>84.4</ele>
        <time>2022-07-10T11:55:20Z</time>
      </trkpt>
      <trkpt lat="49.8323" lon="2.56162">
        <ele>84.4</ele>
        <time>2022-07-10T11:55:21Z</time>
      </trkpt>
      <trkpt lat="49.83233" lon="2.56161">
        <ele>84.4</ele>
        <time>2022-07-10T11:55:22Z</time>
      </trkpt>
      <trkpt lat="49.83234" lon="2.5616">
        <ele>84.5</ele>
        <time>2022-07-10T11:55:23Z</time>
      </trkpt>
      <trkpt lat="49.83235" lon="2.56159">
        <ele>84.5</ele>
        <time>2022-07-10T11:55:24Z</time>
      </trkpt>
      <trkpt lat="49.83236" lon="2.56159">
        <ele>84.5</ele>
        <time>2022-07-10T11:55:26Z</time>
      </trkpt>
      <trkpt lat="49.83237" lon="2.56158">
        <ele>84.5</ele>
        <time>2022-07-10T11:55:27Z</time>
      </trkpt>
      <trkpt lat="49.83238" lon="2.56157">
        <ele>84.6</ele>
        <time>2022-07-10T11:55:28Z</time>
      </trkpt>
      <trkpt lat="49.83239" lon="2.56156">
        <ele>84.6</ele>
        <time>2022-07-10T11:55:29Z</time>
      </trkpt>
      <trkpt lat="49.8324" lon="2.56155">
        <ele>84.6</ele>
        <time>2022-07-10T11:55:30Z</time>
      </trkpt>
      <trkpt lat="49.83241" lon="2.56154">
        <ele>84.7</ele>
        <time>2022-07-10T11:55:31Z</time>
      </trkpt>
      <trkpt lat="49.83243" lon="2.56152">
        <ele>84.7</ele>
        <time>2022-07-10T11:55:33Z</time>
      </trkpt>
      <trkpt lat="49.83243" lon="2.56152">
        <ele>84.7</ele>
        <time>2022-07-10T11:55:34Z</time>
      </trkpt>
      <trkpt lat="49.83244" lon="2.56151">
        <ele>84.8</ele>
        <time>2022-07-10T11:55:35Z</time>
      </trkpt>
      <trkpt lat="49.83245" lon="2.5615">
        <ele>84.8</ele>
        <time>2022-07-10T11:55:36Z</time>
      </trkpt>
      <trkpt lat="49.83246" lon="2.56149">
        <ele>84.8</ele>
        <time>2022-07-10T11:55:37Z</time>
      </trkpt>
      <trkpt lat="49.83246" lon="2.56148">
        <ele>84.8</ele>
        <time>2022-07-10T11:55:38Z</time>
      </trkpt>
      <trkpt lat="49.83249" lon="2.56146">
        <ele>84.9</ele>
        <time>2022-07-10T11:55:39Z</time>
      </trkpt>
      <trkpt lat="49.83249" lon="2.56146">
        <ele>84.9</ele>
        <time>2022-07-10T11:55:41Z</time>
      </trkpt>
      <trkpt lat="49.8325" lon="2.56145">
        <ele>84.9</ele>
        <time>2022-07-10T11:55:42Z</time>
      </trkpt>
      <trkpt lat="49.83251" lon="2.56144">
        <ele>84.9</ele>
        <time>2022-07-10T11:55:43Z</time>
      </trkpt>
      <trkpt lat="49.83252" lon="2.56143">
        <ele>85</ele>
        <time>2022-07-10T11:55:44Z</time>
      </trkpt>
      <trkpt lat="49.83253" lon="2.56142">
        <ele>85</ele>
        <time>2022-07-10T11:55:45Z</time>
      </trkpt>
      <trkpt lat="49.83254" lon="2.56141">
        <ele>85.1</ele>
        <time>2022-07-10T11:55:46Z</time>
      </trkpt>
      <trkpt lat="49.83256" lon="2.5614">
        <ele>85.1</ele>
        <time>2022-07-10T11:55:48Z</time>
      </trkpt>
      <trkpt lat="49.83257" lon="2.56139">
        <ele>85.1</ele>
        <time>2022-07-10T11:55:49Z</time>
      </trkpt>
      <trkpt lat="49.83258" lon="2.56139">
        <ele>85.2</ele>
        <time>2022-07-10T11:55:50Z</time>
      </trkpt>
      <trkpt lat="49.83258" lon="2.56138">
        <ele>85.2</ele>
        <time>2022-07-10T11:55:51Z</time>
      </trkpt>
      <trkpt lat="49.83259" lon="2.56137">
        <ele>85.2</ele>
        <time>2022-07-10T11:55:52Z</time>
      </trkpt>
      <trkpt lat="49.8326" lon="2.56136">
        <ele>85.2</ele>
        <time>2022-07-10T11:55:53Z</time>
      </trkpt>
      <trkpt lat="49.83262" lon="2.56135">
        <ele>85.3</ele>
        <time>2022-07-10T11:55:54Z</time>
      </trkpt>
      <trkpt lat="49.83262" lon="2.56135">
        <ele>85.3</ele>
        <time>2022-07-10T11:55:56Z</time>
      </trkpt>
      <trkpt lat="49.83263" lon="2.56134">
        <ele>85.3</ele>
        <time>2022-07-10T11:55:57Z</time>
      </trkpt>
      <trkpt lat="49.83265" lon="2.56133">
        <ele>85.4</ele>
        <time>2022-07-10T11:55:58Z</time>
      </trkpt>
      <trkpt lat="49.83266" lon="2.56132">
        <ele>85.4</ele>
        <time>2022-07-10T11:55:59Z</time>
      </trkpt>
      <trkpt lat="49.83266" lon="2.56131">
        <ele>85.4</ele>
        <time>2022-07-10T11:56:00Z</time>
      </trkpt>
      <trkpt lat="49.83268" lon="2.5613">
        <ele>85.5</ele>
        <time>2022-07-10T11:56:01Z</time>
      </trkpt>
      <trkpt lat="49.83269" lon="2.56129">
        <ele>85.5</ele>
        <time>2022-07-10T11:56:02Z</time>
      </trkpt>
      <trkpt lat="49.8327" lon="2.56128">
        <ele>85.6</ele>
        <time>2022-07-10T11:56:04Z</time>
      </trkpt>
      <trkpt lat="49.8327" lon="2.56127">
        <ele>85.6</ele>
        <time>2022-07-10T11:56:05Z</time>
      </trkpt>
      <trkpt lat="49.83271" lon="2.56126">
        <ele>85.6</ele>
        <time>2022-07-10T11:56:06Z</time>
      </trkpt>
      <trkpt lat="49.83272" lon="2.56125">
        <ele>85.6</ele>
        <time>2022-07-10T11:56:07Z</time>
      </trkpt>
      <trkpt lat="49.83274" lon="2.56123">
        <ele>85.7</ele>
        <time>2022-07-10T11:56:08Z</time>
      </trkpt>
      <trkpt lat="49.83275" lon="2.56122">
        <ele>85.8</ele>
        <time>2022-07-10T11:56:10Z</time>
      </trkpt>
      <trkpt lat="49.83276" lon="2.56121">
        <ele>85.8</ele>
        <time>2022-07-10T11:56:11Z</time>
      </trkpt>
      <trkpt lat="49.83276" lon="2.5612">
        <ele>85.8</ele>
        <time>2022-07-10T11:56:12Z</time>
      </trkpt>
      <trkpt lat="49.83277" lon="2.5612">
        <ele>85.8</ele>
        <time>2022-07-10T11:56:13Z</time>
      </trkpt>
      <trkpt lat="49.8328" lon="2.56117">
        <ele>85.9</ele>
        <time>2022-07-10T11:56:15Z</time>
      </trkpt>
      <trkpt lat="49.8328" lon="2.56116">
        <ele>86</ele>
        <time>2022-07-10T11:56:17Z</time>
      </trkpt>
      <trkpt lat="49.83281" lon="2.56115">
        <ele>86</ele>
        <time>2022-07-10T11:56:18Z</time>
      </trkpt>
      <trkpt lat="49.83282" lon="2.56114">
        <ele>86</ele>
        <time>2022-07-10T11:56:19Z</time>
      </trkpt>
      <trkpt lat="49.83284" lon="2.56112">
        <ele>86.1</ele>
        <time>2022-07-10T11:56:20Z</time>
      </trkpt>
      <trkpt lat="49.83284" lon="2.56111">
        <ele>86.1</ele>
        <time>2022-07-10T11:56:21Z</time>
      </trkpt>
      <trkpt lat="49.83285" lon="2.5611">
        <ele>86.1</ele>
        <time>2022-07-10T11:56:22Z</time>
      </trkpt>
      <trkpt lat="49.83286" lon="2.56109">
        <ele>86.2</ele>
        <time>2022-07-10T11:56:24Z</time>
      </trkpt>
      <trkpt lat="49.83287" lon="2.56108">
        <ele>86.2</ele>
        <time>2022-07-10T11:56:25Z</time>
      </trkpt>
      <trkpt lat="49.83288" lon="2.56106">
        <ele>86.3</ele>
        <time>2022-07-10T11:56:26Z</time>
      </trkpt>
      <trkpt lat="49.83289" lon="2.56106">
        <ele>86.3</ele>
        <time>2022-07-10T11:56:27Z</time>
      </trkpt>
      <trkpt lat="49.8329" lon="2.56105">
        <ele>86.3</ele>
        <time>2022-07-10T11:56:28Z</time>
      </trkpt>
      <trkpt lat="49.8329" lon="2.56104">
        <ele>86.3</ele>
        <time>2022-07-10T11:56:29Z</time>
      </trkpt>
      <trkpt lat="49.83291" lon="2.56103">
        <ele>86.4</ele>
        <time>2022-07-10T11:56:30Z</time>
      </trkpt>
      <trkpt lat="49.83292" lon="2.56102">
        <ele>86.4</ele>
        <time>2022-07-10T11:56:32Z</time>
      </trkpt>
      <trkpt lat="49.83293" lon="2.56101">
        <ele>86.4</ele>
        <time>2022-07-10T11:56:33Z</time>
      </trkpt>
      <trkpt lat="49.83293" lon="2.561">
        <ele>86.4</ele>
        <time>2022-07-10T11:56:34Z</time>
      </trkpt>
      <trkpt lat="49.83294" lon="2.56099">
        <ele>86.5</ele>
        <time>2022-07-10T11:56:35Z</time>
      </trkpt>
      <trkpt lat="49.83295" lon="2.56097">
        <ele>86.5</ele>
        <time>2022-07-10T11:56:36Z</time>
      </trkpt>
      <trkpt lat="49.83296" lon="2.56096">
        <ele>86.5</ele>
        <time>2022-07-10T11:56:37Z</time>
      </trkpt>
      <trkpt lat="49.83297" lon="2.56095">
        <ele>86.6</ele>
        <time>2022-07-10T11:56:38Z</time>
      </trkpt>
      <trkpt lat="49.83298" lon="2.56094">
        <ele>86.6</ele>
        <time>2022-07-10T11:56:40Z</time>
      </trkpt>
      <trkpt lat="49.83298" lon="2.56093">
        <ele>86.6</ele>
        <time>2022-07-10T11:56:41Z</time>
      </trkpt>
      <trkpt lat="49.83299" lon="2.56091">
        <ele>86.7</ele>
        <time>2022-07-10T11:56:42Z</time>
      </trkpt>
      <trkpt lat="49.833" lon="2.5609">
        <ele>86.7</ele>
        <time>2022-07-10T11:56:43Z</time>
      </trkpt>
      <trkpt lat="49.83302" lon="2.56089">
        <ele>86.7</ele>
        <time>2022-07-10T11:56:45Z</time>
      </trkpt>
      <trkpt lat="49.83302" lon="2.56088">
        <ele>86.8</ele>
        <time>2022-07-10T11:56:46Z</time>
      </trkpt>
      <trkpt lat="49.83304" lon="2.56086">
        <ele>86.8</ele>
        <time>2022-07-10T11:56:47Z</time>
      </trkpt>
      <trkpt lat="49.83305" lon="2.56085">
        <ele>86.9</ele>
        <time>2022-07-10T11:56:49Z</time>
      </trkpt>
      <trkpt lat="49.83306" lon="2.56085">
        <ele>86.9</ele>
        <time>2022-07-10T11:56:50Z</time>
      </trkpt>
      <trkpt lat="49.83307" lon="2.56084">
        <ele>86.9</ele>
        <time>2022-07-10T11:56:51Z</time>
      </trkpt>
      <trkpt lat="49.83308" lon="2.56083">
        <ele>86.9</ele>
        <time>2022-07-10T11:56:52Z</time>
      </trkpt>
      <trkpt lat="49.83308" lon="2.56082">
        <ele>87</ele>
        <time>2022-07-10T11:56:53Z</time>
      </trkpt>
      <trkpt lat="49.8331" lon="2.5608">
        <ele>87</ele>
        <time>2022-07-10T11:56:55Z</time>
      </trkpt>
      <trkpt lat="49.8331" lon="2.5608">
        <ele>87</ele>
        <time>2022-07-10T11:56:56Z</time>
      </trkpt>
      <trkpt lat="49.83311" lon="2.56079">
        <ele>87.1</ele>
        <time>2022-07-10T11:56:57Z</time>
      </trkpt>
      <trkpt lat="49.83312" lon="2.56078">
        <ele>87.1</ele>
        <time>2022-07-10T11:56:59Z</time>
      </trkpt>
      <trkpt lat="49.83314" lon="2.56078">
        <ele>87.2</ele>
        <time>2022-07-10T11:57:00Z</time>
      </trkpt>
      <trkpt lat="49.83314" lon="2.56078">
        <ele>87.2</ele>
        <time>2022-07-10T11:57:01Z</time>
      </trkpt>
      <trkpt lat="49.83314" lon="2.56077">
        <ele>87.2</ele>
        <time>2022-07-10T11:57:02Z</time>
      </trkpt>
      <trkpt lat="49.83315" lon="2.56076">
        <ele>87.2</ele>
        <time>2022-07-10T11:57:03Z</time>
      </trkpt>
      <trkpt lat="49.83316" lon="2.56076">
        <ele>87.2</ele>
        <time>2022-07-10T11:57:04Z</time>
      </trkpt>
      <trkpt lat="49.83318" lon="2.56074">
        <ele>87.3</ele>
        <time>2022-07-10T11:57:05Z</time>
      </trkpt>
      <trkpt lat="49.83318" lon="2.56073">
        <ele>87.3</ele>
        <time>2022-07-10T11:57:06Z</time>
      </trkpt>
      <trkpt lat="49.83319" lon="2.56072">
        <ele>87.4</ele>
        <time>2022-07-10T11:57:07Z</time>
      </trkpt>
      <trkpt lat="49.8332" lon="2.56071">
        <ele>87.4</ele>
        <time>2022-07-10T11:57:08Z</time>
      </trkpt>
      <trkpt lat="49.83322" lon="2.56068">
        <ele>87.5</ele>
        <time>2022-07-10T11:57:11Z</time>
      </trkpt>
      <trkpt lat="49.83323" lon="2.56067">
        <ele>87.5</ele>
        <time>2022-07-10T11:57:12Z</time>
      </trkpt>
      <trkpt lat="49.83324" lon="2.56066">
        <ele>87.6</ele>
        <time>2022-07-10T11:57:13Z</time>
      </trkpt>
      <trkpt lat="49.83324" lon="2.56065">
        <ele>87.6</ele>
        <time>2022-07-10T11:57:14Z</time>
      </trkpt>
      <trkpt lat="49.83326" lon="2.56063">
        <ele>87.7</ele>
        <time>2022-07-10T11:57:15Z</time>
      </trkpt>
      <trkpt lat="49.83327" lon="2.56062">
        <ele>87.7</ele>
        <time>2022-07-10T11:57:17Z</time>
      </trkpt>
      <trkpt lat="49.83328" lon="2.56059">
        <ele>87.8</ele>
        <time>2022-07-10T11:57:18Z</time>
      </trkpt>
      <trkpt lat="49.8333" lon="2.56058">
        <ele>87.8</ele>
        <time>2022-07-10T11:57:20Z</time>
      </trkpt>
      <trkpt lat="49.83331" lon="2.56057">
        <ele>87.9</ele>
        <time>2022-07-10T11:57:21Z</time>
      </trkpt>
      <trkpt lat="49.83332" lon="2.56055">
        <ele>87.9</ele>
        <time>2022-07-10T11:57:22Z</time>
      </trkpt>
      <trkpt lat="49.83333" lon="2.56054">
        <ele>88</ele>
        <time>2022-07-10T11:57:24Z</time>
      </trkpt>
      <trkpt lat="49.83335" lon="2.56052">
        <ele>88.1</ele>
        <time>2022-07-10T11:57:25Z</time>
      </trkpt>
      <trkpt lat="49.83335" lon="2.56051">
        <ele>88.1</ele>
        <time>2022-07-10T11:57:26Z</time>
      </trkpt>
      <trkpt lat="49.83337" lon="2.56049">
        <ele>88.2</ele>
        <time>2022-07-10T11:57:28Z</time>
      </trkpt>
      <trkpt lat="49.83338" lon="2.56049">
        <ele>88.2</ele>
        <time>2022-07-10T11:57:29Z</time>
      </trkpt>
      <trkpt lat="49.83339" lon="2.56048">
        <ele>88.2</ele>
        <time>2022-07-10T11:57:30Z</time>
      </trkpt>
      <trkpt lat="49.8334" lon="2.56047">
        <ele>88.3</ele>
        <time>2022-07-10T11:57:31Z</time>
      </trkpt>
      <trkpt lat="49.83341" lon="2.56046">
        <ele>88.3</ele>
        <time>2022-07-10T11:57:32Z</time>
      </trkpt>
      <trkpt lat="49.83341" lon="2.56045">
        <ele>88.4</ele>
        <time>2022-07-10T11:57:33Z</time>
      </trkpt>
      <trkpt lat="49.83343" lon="2.56044">
        <ele>88.4</ele>
        <time>2022-07-10T11:57:35Z</time>
      </trkpt>
      <trkpt lat="49.83344" lon="2.56044">
        <ele>88.5</ele>
        <time>2022-07-10T11:57:37Z</time>
      </trkpt>
      <trkpt lat="49.83345" lon="2.56043">
        <ele>88.5</ele>
        <time>2022-07-10T11:57:38Z</time>
      </trkpt>
      <trkpt lat="49.83346" lon="2.56042">
        <ele>88.6</ele>
        <time>2022-07-10T11:57:39Z</time>
      </trkpt>
      <trkpt lat="49.83347" lon="2.56041">
        <ele>88.6</ele>
        <time>2022-07-10T11:57:41Z</time>
      </trkpt>
      <trkpt lat="49.83348" lon="2.5604">
        <ele>88.6</ele>
        <time>2022-07-10T11:57:42Z</time>
      </trkpt>
      <trkpt lat="49.83349" lon="2.56039">
        <ele>88.7</ele>
        <time>2022-07-10T11:57:43Z</time>
      </trkpt>
      <trkpt lat="49.8335" lon="2.56038">
        <ele>88.7</ele>
        <time>2022-07-10T11:57:44Z</time>
      </trkpt>
      <trkpt lat="49.83351" lon="2.56037">
        <ele>88.8</ele>
        <time>2022-07-10T11:57:46Z</time>
      </trkpt>
      <trkpt lat="49.83352" lon="2.56036">
        <ele>88.8</ele>
        <time>2022-07-10T11:57:47Z</time>
      </trkpt>
      <trkpt lat="49.83353" lon="2.56035">
        <ele>88.8</ele>
        <time>2022-07-10T11:57:48Z</time>
      </trkpt>
      <trkpt lat="49.83353" lon="2.56035">
        <ele>88.9</ele>
        <time>2022-07-10T11:57:49Z</time>
      </trkpt>
      <trkpt lat="49.83355" lon="2.56033">
        <ele>88.9</ele>
        <time>2022-07-10T11:57:50Z</time>
      </trkpt>
      <trkpt lat="49.83356" lon="2.56033">
        <ele>89</ele>
        <time>2022-07-10T11:57:52Z</time>
      </trkpt>
      <trkpt lat="49.83356" lon="2.56033">
        <ele>89</ele>
        <time>2022-07-10T11:57:53Z</time>
      </trkpt>
      <trkpt lat="49.83357" lon="2.56032">
        <ele>89</ele>
        <time>2022-07-10T11:57:54Z</time>
      </trkpt>
      <trkpt lat="49.83359" lon="2.56029">
        <ele>89.1</ele>
        <time>2022-07-10T11:57:55Z</time>
      </trkpt>
      <trkpt lat="49.8336" lon="2.56028">
        <ele>89.2</ele>
        <time>2022-07-10T11:57:57Z</time>
      </trkpt>
      <trkpt lat="49.83361" lon="2.56028">
        <ele>89.2</ele>
        <time>2022-07-10T11:57:58Z</time>
      </trkpt>
      <trkpt lat="49.83361" lon="2.56027">
        <ele>89.2</ele>
        <time>2022-07-10T11:57:59Z</time>
      </trkpt>
      <trkpt lat="49.83362" lon="2.56026">
        <ele>89.3</ele>
        <time>2022-07-10T11:58:00Z</time>
      </trkpt>
      <trkpt lat="49.83363" lon="2.56026">
        <ele>89.3</ele>
        <time>2022-07-10T11:58:01Z</time>
      </trkpt>
      <trkpt lat="49.83363" lon="2.56025">
        <ele>89.3</ele>
        <time>2022-07-10T11:58:03Z</time>
      </trkpt>
      <trkpt lat="49.83364" lon="2.56024">
        <ele>89.4</ele>
        <time>2022-07-10T11:58:04Z</time>
      </trkpt>
      <trkpt lat="49.83365" lon="2.56023">
        <ele>89.4</ele>
        <time>2022-07-10T11:58:05Z</time>
      </trkpt>
      <trkpt lat="49.83366" lon="2.56022">
        <ele>89.5</ele>
        <time>2022-07-10T11:58:06Z</time>
      </trkpt>
      <trkpt lat="49.83367" lon="2.56021">
        <ele>89.5</ele>
        <time>2022-07-10T11:58:07Z</time>
      </trkpt>
      <trkpt lat="49.83367" lon="2.56021">
        <ele>89.5</ele>
        <time>2022-07-10T11:58:08Z</time>
      </trkpt>
      <trkpt lat="49.83368" lon="2.5602">
        <ele>89.6</ele>
        <time>2022-07-10T11:58:09Z</time>
      </trkpt>
      <trkpt lat="49.8337" lon="2.56019">
        <ele>89.7</ele>
        <time>2022-07-10T11:58:10Z</time>
      </trkpt>
      <trkpt lat="49.83371" lon="2.56018">
        <ele>89.7</ele>
        <time>2022-07-10T11:58:12Z</time>
      </trkpt>
      <trkpt lat="49.83372" lon="2.56017">
        <ele>89.8</ele>
        <time>2022-07-10T11:58:13Z</time>
      </trkpt>
      <trkpt lat="49.83373" lon="2.56016">
        <ele>89.9</ele>
        <time>2022-07-10T11:58:14Z</time>
      </trkpt>
      <trkpt lat="49.83373" lon="2.56014">
        <ele>89.9</ele>
        <time>2022-07-10T11:58:15Z</time>
      </trkpt>
      <trkpt lat="49.83373" lon="2.56013">
        <ele>90</ele>
        <time>2022-07-10T11:58:17Z</time>
      </trkpt>
      <trkpt lat="49.83374" lon="2.56012">
        <ele>90</ele>
        <time>2022-07-10T11:58:18Z</time>
      </trkpt>
      <trkpt lat="49.83375" lon="2.56011">
        <ele>90.1</ele>
        <time>2022-07-10T11:58:19Z</time>
      </trkpt>
      <trkpt lat="49.83376" lon="2.5601">
        <ele>90.1</ele>
        <time>2022-07-10T11:58:20Z</time>
      </trkpt>
      <trkpt lat="49.83377" lon="2.56009">
        <ele>90.2</ele>
        <time>2022-07-10T11:58:22Z</time>
      </trkpt>
      <trkpt lat="49.83379" lon="2.56008">
        <ele>90.3</ele>
        <time>2022-07-10T11:58:24Z</time>
      </trkpt>
      <trkpt lat="49.8338" lon="2.56007">
        <ele>90.4</ele>
        <time>2022-07-10T11:58:25Z</time>
      </trkpt>
      <trkpt lat="49.83382" lon="2.56006">
        <ele>90.5</ele>
        <time>2022-07-10T11:58:26Z</time>
      </trkpt>
      <trkpt lat="49.83383" lon="2.56005">
        <ele>90.5</ele>
        <time>2022-07-10T11:58:28Z</time>
      </trkpt>
      <trkpt lat="49.83384" lon="2.56005">
        <ele>90.6</ele>
        <time>2022-07-10T11:58:30Z</time>
      </trkpt>
      <trkpt lat="49.83385" lon="2.56005">
        <ele>90.6</ele>
        <time>2022-07-10T11:58:31Z</time>
      </trkpt>
      <trkpt lat="49.83386" lon="2.56004">
        <ele>90.7</ele>
        <time>2022-07-10T11:58:32Z</time>
      </trkpt>
      <trkpt lat="49.83387" lon="2.56004">
        <ele>90.7</ele>
        <time>2022-07-10T11:58:33Z</time>
      </trkpt>
      <trkpt lat="49.83389" lon="2.56002">
        <ele>90.8</ele>
        <time>2022-07-10T11:58:34Z</time>
      </trkpt>
      <trkpt lat="49.83389" lon="2.56002">
        <ele>90.8</ele>
        <time>2022-07-10T11:58:35Z</time>
      </trkpt>
      <trkpt lat="49.8339" lon="2.56001">
        <ele>90.8</ele>
        <time>2022-07-10T11:58:36Z</time>
      </trkpt>
      <trkpt lat="49.83392" lon="2.56">
        <ele>90.9</ele>
        <time>2022-07-10T11:58:37Z</time>
      </trkpt>
      <trkpt lat="49.83392" lon="2.55999">
        <ele>90.9</ele>
        <time>2022-07-10T11:58:39Z</time>
      </trkpt>
      <trkpt lat="49.83393" lon="2.55999">
        <ele>91</ele>
        <time>2022-07-10T11:58:40Z</time>
      </trkpt>
      <trkpt lat="49.83394" lon="2.55998">
        <ele>91</ele>
        <time>2022-07-10T11:58:41Z</time>
      </trkpt>
      <trkpt lat="49.83394" lon="2.55998">
        <ele>91</ele>
        <time>2022-07-10T11:58:42Z</time>
      </trkpt>
      <trkpt lat="49.83395" lon="2.55997">
        <ele>91.1</ele>
        <time>2022-07-10T11:58:43Z</time>
      </trkpt>
      <trkpt lat="49.83396" lon="2.55996">
        <ele>91.1</ele>
        <time>2022-07-10T11:58:44Z</time>
      </trkpt>
      <trkpt lat="49.83397" lon="2.55995">
        <ele>91.2</ele>
        <time>2022-07-10T11:58:45Z</time>
      </trkpt>
      <trkpt lat="49.83398" lon="2.55994">
        <ele>91.2</ele>
        <time>2022-07-10T11:58:46Z</time>
      </trkpt>
      <trkpt lat="49.83399" lon="2.55993">
        <ele>91.3</ele>
        <time>2022-07-10T11:58:47Z</time>
      </trkpt>
      <trkpt lat="49.834" lon="2.55993">
        <ele>91.4</ele>
        <time>2022-07-10T11:58:48Z</time>
      </trkpt>
      <trkpt lat="49.83401" lon="2.55992">
        <ele>91.4</ele>
        <time>2022-07-10T11:58:50Z</time>
      </trkpt>
      <trkpt lat="49.83402" lon="2.55991">
        <ele>91.5</ele>
        <time>2022-07-10T11:58:51Z</time>
      </trkpt>
      <trkpt lat="49.83402" lon="2.55991">
        <ele>91.5</ele>
        <time>2022-07-10T11:58:52Z</time>
      </trkpt>
      <trkpt lat="49.83403" lon="2.5599">
        <ele>91.6</ele>
        <time>2022-07-10T11:58:53Z</time>
      </trkpt>
      <trkpt lat="49.83405" lon="2.5599">
        <ele>91.7</ele>
        <time>2022-07-10T11:58:54Z</time>
      </trkpt>
      <trkpt lat="49.83406" lon="2.55989">
        <ele>91.7</ele>
        <time>2022-07-10T11:58:56Z</time>
      </trkpt>
      <trkpt lat="49.83406" lon="2.55989">
        <ele>91.8</ele>
        <time>2022-07-10T11:58:57Z</time>
      </trkpt>
      <trkpt lat="49.83407" lon="2.55989">
        <ele>91.8</ele>
        <time>2022-07-10T11:58:58Z</time>
      </trkpt>
      <trkpt lat="49.83408" lon="2.55989">
        <ele>91.9</ele>
        <time>2022-07-10T11:58:59Z</time>
      </trkpt>
      <trkpt lat="49.83409" lon="2.55988">
        <ele>92</ele>
        <time>2022-07-10T11:59:00Z</time>
      </trkpt>
      <trkpt lat="49.8341" lon="2.55988">
        <ele>92.1</ele>
        <time>2022-07-10T11:59:02Z</time>
      </trkpt>
      <trkpt lat="49.83411" lon="2.55987">
        <ele>92.1</ele>
        <time>2022-07-10T11:59:04Z</time>
      </trkpt>
      <trkpt lat="49.83411" lon="2.55987">
        <ele>92.1</ele>
        <time>2022-07-10T11:59:05Z</time>
      </trkpt>
      <trkpt lat="49.83411" lon="2.55988">
        <ele>92.2</ele>
        <time>2022-07-10T11:59:07Z</time>
      </trkpt>
      <trkpt lat="49.83412" lon="2.55989">
        <ele>92.2</ele>
        <time>2022-07-10T11:59:08Z</time>
      </trkpt>
      <trkpt lat="49.83412" lon="2.55989">
        <ele>92.2</ele>
        <time>2022-07-10T11:59:10Z</time>
      </trkpt>
      <trkpt lat="49.83413" lon="2.55991">
        <ele>92.2</ele>
        <time>2022-07-10T11:59:12Z</time>
      </trkpt>
      <trkpt lat="49.83413" lon="2.55991">
        <ele>92.3</ele>
        <time>2022-07-10T11:59:13Z</time>
      </trkpt>
      <trkpt lat="49.83414" lon="2.55992">
        <ele>92.3</ele>
        <time>2022-07-10T11:59:14Z</time>
      </trkpt>
      <trkpt lat="49.83414" lon="2.55992">
        <ele>92.3</ele>
        <time>2022-07-10T11:59:15Z</time>
      </trkpt>
      <trkpt lat="49.83415" lon="2.55992">
        <ele>92.3</ele>
        <time>2022-07-10T11:59:16Z</time>
      </trkpt>
      <trkpt lat="49.83416" lon="2.55991">
        <ele>92.4</ele>
        <time>2022-07-10T11:59:18Z</time>
      </trkpt>
      <trkpt lat="49.83417" lon="2.55991">
        <ele>92.4</ele>
        <time>2022-07-10T11:59:19Z</time>
      </trkpt>
      <trkpt lat="49.83418" lon="2.5599">
        <ele>92.4</ele>
        <time>2022-07-10T11:59:20Z</time>
      </trkpt>
      <trkpt lat="49.83419" lon="2.55989">
        <ele>92.5</ele>
        <time>2022-07-10T11:59:21Z</time>
      </trkpt>
      <trkpt lat="49.83421" lon="2.55988">
        <ele>92.6</ele>
        <time>2022-07-10T11:59:23Z</time>
      </trkpt>
      <trkpt lat="49.83423" lon="2.55987">
        <ele>92.6</ele>
        <time>2022-07-10T11:59:25Z</time>
      </trkpt>
      <trkpt lat="49.83425" lon="2.55986">
        <ele>92.7</ele>
        <time>2022-07-10T11:59:26Z</time>
      </trkpt>
      <trkpt lat="49.83425" lon="2.55985">
        <ele>92.7</ele>
        <time>2022-07-10T11:59:27Z</time>
      </trkpt>
      <trkpt lat="49.83426" lon="2.55985">
        <ele>92.8</ele>
        <time>2022-07-10T11:59:28Z</time>
      </trkpt>
      <trkpt lat="49.83428" lon="2.55984">
        <ele>92.8</ele>
        <time>2022-07-10T11:59:29Z</time>
      </trkpt>
      <trkpt lat="49.83429" lon="2.55983">
        <ele>92.9</ele>
        <time>2022-07-10T11:59:31Z</time>
      </trkpt>
      <trkpt lat="49.83431" lon="2.55982">
        <ele>93</ele>
        <time>2022-07-10T11:59:32Z</time>
      </trkpt>
      <trkpt lat="49.83433" lon="2.55982">
        <ele>93</ele>
        <time>2022-07-10T11:59:34Z</time>
      </trkpt>
      <trkpt lat="49.83434" lon="2.55981">
        <ele>93.1</ele>
        <time>2022-07-10T11:59:35Z</time>
      </trkpt>
      <trkpt lat="49.83435" lon="2.5598">
        <ele>93.1</ele>
        <time>2022-07-10T11:59:36Z</time>
      </trkpt>
      <trkpt lat="49.83436" lon="2.5598">
        <ele>93.1</ele>
        <time>2022-07-10T11:59:37Z</time>
      </trkpt>
      <trkpt lat="49.83437" lon="2.55979">
        <ele>93.2</ele>
        <time>2022-07-10T11:59:38Z</time>
      </trkpt>
      <trkpt lat="49.83438" lon="2.55979">
        <ele>93.2</ele>
        <time>2022-07-10T11:59:39Z</time>
      </trkpt>
      <trkpt lat="49.8344" lon="2.55978">
        <ele>93.3</ele>
        <time>2022-07-10T11:59:41Z</time>
      </trkpt>
      <trkpt lat="49.83441" lon="2.55977">
        <ele>93.3</ele>
        <time>2022-07-10T11:59:42Z</time>
      </trkpt>
      <trkpt lat="49.83442" lon="2.55976">
        <ele>93.4</ele>
        <time>2022-07-10T11:59:43Z</time>
      </trkpt>
      <trkpt lat="49.83444" lon="2.55975">
        <ele>93.5</ele>
        <time>2022-07-10T11:59:44Z</time>
      </trkpt>
      <trkpt lat="49.83445" lon="2.55975">
        <ele>93.5</ele>
        <time>2022-07-10T11:59:45Z</time>
      </trkpt>
      <trkpt lat="49.83446" lon="2.55974">
        <ele>93.6</ele>
        <time>2022-07-10T11:59:46Z</time>
      </trkpt>
      <trkpt lat="49.83447" lon="2.55973">
        <ele>93.6</ele>
        <time>2022-07-10T11:59:47Z</time>
      </trkpt>
      <trkpt lat="49.83448" lon="2.55973">
        <ele>93.7</ele>
        <time>2022-07-10T11:59:49Z</time>
      </trkpt>
      <trkpt lat="49.8345" lon="2.55972">
        <ele>93.7</ele>
        <time>2022-07-10T11:59:50Z</time>
      </trkpt>
      <trkpt lat="49.83451" lon="2.55972">
        <ele>93.8</ele>
        <time>2022-07-10T11:59:52Z</time>
      </trkpt>
      <trkpt lat="49.83453" lon="2.55971">
        <ele>93.8</ele>
        <time>2022-07-10T11:59:53Z</time>
      </trkpt>
      <trkpt lat="49.83454" lon="2.5597">
        <ele>93.9</ele>
        <time>2022-07-10T11:59:55Z</time>
      </trkpt>
      <trkpt lat="49.83455" lon="2.5597">
        <ele>93.9</ele>
        <time>2022-07-10T11:59:56Z</time>
      </trkpt>
      <trkpt lat="49.83457" lon="2.55969">
        <ele>94</ele>
        <time>2022-07-10T11:59:58Z</time>
      </trkpt>
      <trkpt lat="49.83458" lon="2.55969">
        <ele>94</ele>
        <time>2022-07-10T11:59:59Z</time>
      </trkpt>
      <trkpt lat="49.83459" lon="2.55968">
        <ele>94.1</ele>
        <time>2022-07-10T12:00:00Z</time>
      </trkpt>
      <trkpt lat="49.8346" lon="2.55967">
        <ele>94.1</ele>
        <time>2022-07-10T12:00:01Z</time>
      </trkpt>
      <trkpt lat="49.83461" lon="2.55967">
        <ele>94.2</ele>
        <time>2022-07-10T12:00:02Z</time>
      </trkpt>
      <trkpt lat="49.83462" lon="2.55966">
        <ele>94.2</ele>
        <time>2022-07-10T12:00:03Z</time>
      </trkpt>
      <trkpt lat="49.83464" lon="2.55965">
        <ele>94.3</ele>
        <time>2022-07-10T12:00:05Z</time>
      </trkpt>
      <trkpt lat="49.83465" lon="2.55964">
        <ele>94.3</ele>
        <time>2022-07-10T12:00:06Z</time>
      </trkpt>
      <trkpt lat="49.83466" lon="2.55964">
        <ele>94.4</ele>
        <time>2022-07-10T12:00:07Z</time>
      </trkpt>
      <trkpt lat="49.83468" lon="2.55962">
        <ele>94.4</ele>
        <time>2022-07-10T12:00:09Z</time>
      </trkpt>
      <trkpt lat="49.83468" lon="2.55962">
        <ele>94.4</ele>
        <time>2022-07-10T12:00:10Z</time>
      </trkpt>
      <trkpt lat="49.83469" lon="2.55961">
        <ele>94.5</ele>
        <time>2022-07-10T12:00:11Z</time>
      </trkpt>
      <trkpt lat="49.8347" lon="2.5596">
        <ele>94.5</ele>
        <time>2022-07-10T12:00:12Z</time>
      </trkpt>
      <trkpt lat="49.8347" lon="2.5596">
        <ele>94.5</ele>
        <time>2022-07-10T12:00:13Z</time>
      </trkpt>
      <trkpt lat="49.83471" lon="2.55959">
        <ele>94.5</ele>
        <time>2022-07-10T12:00:14Z</time>
      </trkpt>
      <trkpt lat="49.83472" lon="2.55958">
        <ele>94.6</ele>
        <time>2022-07-10T12:00:15Z</time>
      </trkpt>
      <trkpt lat="49.83473" lon="2.55957">
        <ele>94.6</ele>
        <time>2022-07-10T12:00:17Z</time>
      </trkpt>
      <trkpt lat="49.83475" lon="2.55956">
        <ele>94.7</ele>
        <time>2022-07-10T12:00:18Z</time>
      </trkpt>
      <trkpt lat="49.83476" lon="2.55955">
        <ele>94.7</ele>
        <time>2022-07-10T12:00:20Z</time>
      </trkpt>
      <trkpt lat="49.83477" lon="2.55955">
        <ele>94.8</ele>
        <time>2022-07-10T12:00:21Z</time>
      </trkpt>
      <trkpt lat="49.83479" lon="2.55953">
        <ele>94.8</ele>
        <time>2022-07-10T12:00:23Z</time>
      </trkpt>
      <trkpt lat="49.8348" lon="2.55953">
        <ele>94.9</ele>
        <time>2022-07-10T12:00:24Z</time>
      </trkpt>
      <trkpt lat="49.83481" lon="2.55952">
        <ele>94.9</ele>
        <time>2022-07-10T12:00:25Z</time>
      </trkpt>
      <trkpt lat="49.83482" lon="2.55951">
        <ele>94.9</ele>
        <time>2022-07-10T12:00:26Z</time>
      </trkpt>
      <trkpt lat="49.83482" lon="2.55951">
        <ele>95</ele>
        <time>2022-07-10T12:00:27Z</time>
      </trkpt>
      <trkpt lat="49.83484" lon="2.55949">
        <ele>95.1</ele>
        <time>2022-07-10T12:00:29Z</time>
      </trkpt>
      <trkpt lat="49.83485" lon="2.55948">
        <ele>95.1</ele>
        <time>2022-07-10T12:00:30Z</time>
      </trkpt>
      <trkpt lat="49.83486" lon="2.55947">
        <ele>95.1</ele>
        <time>2022-07-10T12:00:31Z</time>
      </trkpt>
      <trkpt lat="49.83487" lon="2.55945">
        <ele>95.2</ele>
        <time>2022-07-10T12:00:32Z</time>
      </trkpt>
      <trkpt lat="49.83488" lon="2.55944">
        <ele>95.2</ele>
        <time>2022-07-10T12:00:33Z</time>
      </trkpt>
      <trkpt lat="49.83489" lon="2.55943">
        <ele>95.3</ele>
        <time>2022-07-10T12:00:34Z</time>
      </trkpt>
      <trkpt lat="49.8349" lon="2.55942">
        <ele>95.3</ele>
        <time>2022-07-10T12:00:36Z</time>
      </trkpt>
      <trkpt lat="49.83491" lon="2.55941">
        <ele>95.4</ele>
        <time>2022-07-10T12:00:37Z</time>
      </trkpt>
      <trkpt lat="49.83492" lon="2.55939">
        <ele>95.5</ele>
        <time>2022-07-10T12:00:38Z</time>
      </trkpt>
      <trkpt lat="49.83493" lon="2.55938">
        <ele>95.5</ele>
        <time>2022-07-10T12:00:39Z</time>
      </trkpt>
      <trkpt lat="49.83494" lon="2.55937">
        <ele>95.6</ele>
        <time>2022-07-10T12:00:40Z</time>
      </trkpt>
      <trkpt lat="49.83495" lon="2.55937">
        <ele>95.6</ele>
        <time>2022-07-10T12:00:42Z</time>
      </trkpt>
      <trkpt lat="49.83496" lon="2.55936">
        <ele>95.7</ele>
        <time>2022-07-10T12:00:43Z</time>
      </trkpt>
      <trkpt lat="49.83497" lon="2.55935">
        <ele>95.7</ele>
        <time>2022-07-10T12:00:44Z</time>
      </trkpt>
      <trkpt lat="49.83498" lon="2.55934">
        <ele>95.8</ele>
        <time>2022-07-10T12:00:45Z</time>
      </trkpt>
      <trkpt lat="49.835" lon="2.55933">
        <ele>95.8</ele>
        <time>2022-07-10T12:00:46Z</time>
      </trkpt>
      <trkpt lat="49.83501" lon="2.55932">
        <ele>95.9</ele>
        <time>2022-07-10T12:00:47Z</time>
      </trkpt>
      <trkpt lat="49.83502" lon="2.55932">
        <ele>96</ele>
        <time>2022-07-10T12:00:49Z</time>
      </trkpt>
      <trkpt lat="49.83504" lon="2.5593">
        <ele>96</ele>
        <time>2022-07-10T12:00:50Z</time>
      </trkpt>
      <trkpt lat="49.83505" lon="2.5593">
        <ele>96.1</ele>
        <time>2022-07-10T12:00:51Z</time>
      </trkpt>
      <trkpt lat="49.83506" lon="2.55929">
        <ele>96.1</ele>
        <time>2022-07-10T12:00:52Z</time>
      </trkpt>
      <trkpt lat="49.83507" lon="2.55928">
        <ele>96.2</ele>
        <time>2022-07-10T12:00:53Z</time>
      </trkpt>
      <trkpt lat="49.83509" lon="2.55927">
        <ele>96.3</ele>
        <time>2022-07-10T12:00:55Z</time>
      </trkpt>
      <trkpt lat="49.8351" lon="2.55926">
        <ele>96.3</ele>
        <time>2022-07-10T12:00:56Z</time>
      </trkpt>
      <trkpt lat="49.8351" lon="2.55926">
        <ele>96.4</ele>
        <time>2022-07-10T12:00:57Z</time>
      </trkpt>
      <trkpt lat="49.83511" lon="2.55925">
        <ele>96.4</ele>
        <time>2022-07-10T12:00:58Z</time>
      </trkpt>
      <trkpt lat="49.83512" lon="2.55925">
        <ele>96.5</ele>
        <time>2022-07-10T12:00:59Z</time>
      </trkpt>
      <trkpt lat="49.83514" lon="2.55924">
        <ele>96.5</ele>
        <time>2022-07-10T12:01:01Z</time>
      </trkpt>
      <trkpt lat="49.83515" lon="2.55923">
        <ele>96.6</ele>
        <time>2022-07-10T12:01:02Z</time>
      </trkpt>
      <trkpt lat="49.83516" lon="2.55923">
        <ele>96.6</ele>
        <time>2022-07-10T12:01:03Z</time>
      </trkpt>
      <trkpt lat="49.83517" lon="2.55923">
        <ele>96.7</ele>
        <time>2022-07-10T12:01:04Z</time>
      </trkpt>
      <trkpt lat="49.83517" lon="2.55922">
        <ele>96.7</ele>
        <time>2022-07-10T12:01:05Z</time>
      </trkpt>
      <trkpt lat="49.83518" lon="2.55922">
        <ele>96.7</ele>
        <time>2022-07-10T12:01:06Z</time>
      </trkpt>
      <trkpt lat="49.83519" lon="2.55921">
        <ele>96.8</ele>
        <time>2022-07-10T12:01:07Z</time>
      </trkpt>
      <trkpt lat="49.83522" lon="2.5592">
        <ele>96.9</ele>
        <time>2022-07-10T12:01:08Z</time>
      </trkpt>
      <trkpt lat="49.83522" lon="2.55919">
        <ele>96.9</ele>
        <time>2022-07-10T12:01:09Z</time>
      </trkpt>
      <trkpt lat="49.83523" lon="2.55919">
        <ele>97</ele>
        <time>2022-07-10T12:01:10Z</time>
      </trkpt>
      <trkpt lat="49.83525" lon="2.55918">
        <ele>97.1</ele>
        <time>2022-07-10T12:01:11Z</time>
      </trkpt>
      <trkpt lat="49.83526" lon="2.55917">
        <ele>97.1</ele>
        <time>2022-07-10T12:01:13Z</time>
      </trkpt>
      <trkpt lat="49.83526" lon="2.55917">
        <ele>97.1</ele>
        <time>2022-07-10T12:01:14Z</time>
      </trkpt>
      <trkpt lat="49.83527" lon="2.55916">
        <ele>97.2</ele>
        <time>2022-07-10T12:01:15Z</time>
      </trkpt>
      <trkpt lat="49.83528" lon="2.55915">
        <ele>97.2</ele>
        <time>2022-07-10T12:01:16Z</time>
      </trkpt>
      <trkpt lat="49.83531" lon="2.55914">
        <ele>97.4</ele>
        <time>2022-07-10T12:01:17Z</time>
      </trkpt>
      <trkpt lat="49.83531" lon="2.55913">
        <ele>97.4</ele>
        <time>2022-07-10T12:01:19Z</time>
      </trkpt>
      <trkpt lat="49.83532" lon="2.55912">
        <ele>97.4</ele>
        <time>2022-07-10T12:01:20Z</time>
      </trkpt>
      <trkpt lat="49.83533" lon="2.55911">
        <ele>97.5</ele>
        <time>2022-07-10T12:01:22Z</time>
      </trkpt>
      <trkpt lat="49.83534" lon="2.5591">
        <ele>97.5</ele>
        <time>2022-07-10T12:01:23Z</time>
      </trkpt>
      <trkpt lat="49.83535" lon="2.5591">
        <ele>97.6</ele>
        <time>2022-07-10T12:01:24Z</time>
      </trkpt>
      <trkpt lat="49.83536" lon="2.55908">
        <ele>97.7</ele>
        <time>2022-07-10T12:01:25Z</time>
      </trkpt>
      <trkpt lat="49.83537" lon="2.55907">
        <ele>97.7</ele>
        <time>2022-07-10T12:01:26Z</time>
      </trkpt>
      <trkpt lat="49.83538" lon="2.55907">
        <ele>97.7</ele>
        <time>2022-07-10T12:01:27Z</time>
      </trkpt>
      <trkpt lat="49.83539" lon="2.55906">
        <ele>97.8</ele>
        <time>2022-07-10T12:01:28Z</time>
      </trkpt>
      <trkpt lat="49.8354" lon="2.55904">
        <ele>97.9</ele>
        <time>2022-07-10T12:01:29Z</time>
      </trkpt>
      <trkpt lat="49.83541" lon="2.55904">
        <ele>97.9</ele>
        <time>2022-07-10T12:01:31Z</time>
      </trkpt>
      <trkpt lat="49.83542" lon="2.55903">
        <ele>98</ele>
        <time>2022-07-10T12:01:32Z</time>
      </trkpt>
      <trkpt lat="49.83543" lon="2.55902">
        <ele>98</ele>
        <time>2022-07-10T12:01:33Z</time>
      </trkpt>
      <trkpt lat="49.83544" lon="2.55901">
        <ele>98.1</ele>
        <time>2022-07-10T12:01:34Z</time>
      </trkpt>
      <trkpt lat="49.83546" lon="2.559">
        <ele>98.2</ele>
        <time>2022-07-10T12:01:35Z</time>
      </trkpt>
      <trkpt lat="49.83548" lon="2.55898">
        <ele>98.2</ele>
        <time>2022-07-10T12:01:36Z</time>
      </trkpt>
      <trkpt lat="49.83548" lon="2.55898">
        <ele>98.3</ele>
        <time>2022-07-10T12:01:38Z</time>
      </trkpt>
      <trkpt lat="49.83549" lon="2.55897">
        <ele>98.3</ele>
        <time>2022-07-10T12:01:39Z</time>
      </trkpt>
      <trkpt lat="49.8355" lon="2.55895">
        <ele>98.4</ele>
        <time>2022-07-10T12:01:40Z</time>
      </trkpt>
      <trkpt lat="49.83551" lon="2.55895">
        <ele>98.4</ele>
        <time>2022-07-10T12:01:41Z</time>
      </trkpt>
      <trkpt lat="49.83551" lon="2.55894">
        <ele>98.4</ele>
        <time>2022-07-10T12:01:42Z</time>
      </trkpt>
      <trkpt lat="49.83552" lon="2.55893">
        <ele>98.5</ele>
        <time>2022-07-10T12:01:43Z</time>
      </trkpt>
      <trkpt lat="49.83553" lon="2.55892">
        <ele>98.5</ele>
        <time>2022-07-10T12:01:44Z</time>
      </trkpt>
      <trkpt lat="49.83554" lon="2.55891">
        <ele>98.6</ele>
        <time>2022-07-10T12:01:45Z</time>
      </trkpt>
      <trkpt lat="49.83556" lon="2.55891">
        <ele>98.6</ele>
        <time>2022-07-10T12:01:47Z</time>
      </trkpt>
      <trkpt lat="49.83557" lon="2.5589">
        <ele>98.7</ele>
        <time>2022-07-10T12:01:48Z</time>
      </trkpt>
      <trkpt lat="49.83559" lon="2.5589">
        <ele>98.7</ele>
        <time>2022-07-10T12:01:49Z</time>
      </trkpt>
      <trkpt lat="49.8356" lon="2.5589">
        <ele>98.8</ele>
        <time>2022-07-10T12:01:51Z</time>
      </trkpt>
      <trkpt lat="49.83561" lon="2.55889">
        <ele>98.8</ele>
        <time>2022-07-10T12:01:52Z</time>
      </trkpt>
      <trkpt lat="49.83561" lon="2.55889">
        <ele>98.8</ele>
        <time>2022-07-10T12:01:53Z</time>
      </trkpt>
      <trkpt lat="49.83562" lon="2.55888">
        <ele>98.9</ele>
        <time>2022-07-10T12:01:54Z</time>
      </trkpt>
      <trkpt lat="49.83563" lon="2.55887">
        <ele>98.9</ele>
        <time>2022-07-10T12:01:55Z</time>
      </trkpt>
      <trkpt lat="49.83565" lon="2.55886">
        <ele>99</ele>
        <time>2022-07-10T12:01:56Z</time>
      </trkpt>
      <trkpt lat="49.83566" lon="2.55886">
        <ele>99</ele>
        <time>2022-07-10T12:01:57Z</time>
      </trkpt>
      <trkpt lat="49.83568" lon="2.55884">
        <ele>99.1</ele>
        <time>2022-07-10T12:01:58Z</time>
      </trkpt>
      <trkpt lat="49.83569" lon="2.55884">
        <ele>99.1</ele>
        <time>2022-07-10T12:02:00Z</time>
      </trkpt>
      <trkpt lat="49.8357" lon="2.55883">
        <ele>99.2</ele>
        <time>2022-07-10T12:02:01Z</time>
      </trkpt>
      <trkpt lat="49.83571" lon="2.55883">
        <ele>99.2</ele>
        <time>2022-07-10T12:02:02Z</time>
      </trkpt>
      <trkpt lat="49.83572" lon="2.55882">
        <ele>99.3</ele>
        <time>2022-07-10T12:02:03Z</time>
      </trkpt>
      <trkpt lat="49.83574" lon="2.55882">
        <ele>99.3</ele>
        <time>2022-07-10T12:02:05Z</time>
      </trkpt>
      <trkpt lat="49.83575" lon="2.55881">
        <ele>99.3</ele>
        <time>2022-07-10T12:02:06Z</time>
      </trkpt>
      <trkpt lat="49.83577" lon="2.55882">
        <ele>99.4</ele>
        <time>2022-07-10T12:02:08Z</time>
      </trkpt>
      <trkpt lat="49.83577" lon="2.55884">
        <ele>99.4</ele>
        <time>2022-07-10T12:02:09Z</time>
      </trkpt>
      <trkpt lat="49.83577" lon="2.55885">
        <ele>99.4</ele>
        <time>2022-07-10T12:02:10Z</time>
      </trkpt>
      <trkpt lat="49.83577" lon="2.55885">
        <ele>99.4</ele>
        <time>2022-07-10T12:02:11Z</time>
      </trkpt>
      <trkpt lat="49.83577" lon="2.55885">
        <ele>99.5</ele>
        <time>2022-07-10T12:02:12Z</time>
      </trkpt>
      <trkpt lat="49.83577" lon="2.55885">
        <ele>99.5</ele>
        <time>2022-07-10T12:02:13Z</time>
      </trkpt>
      <trkpt lat="49.83577" lon="2.55885">
        <ele>99.5</ele>
        <time>2022-07-10T12:02:14Z</time>
      </trkpt>
      <trkpt lat="49.83577" lon="2.55885">
        <ele>99.5</ele>
        <time>2022-07-10T12:02:15Z</time>
      </trkpt>
      <trkpt lat="49.83576" lon="2.55885">
        <ele>99.5</ele>
        <time>2022-07-10T12:02:16Z</time>
      </trkpt>
      <trkpt lat="49.83576" lon="2.55885">
        <ele>99.5</ele>
        <time>2022-07-10T12:02:17Z</time>
      </trkpt>
      <trkpt lat="49.83576" lon="2.55885">
        <ele>99.5</ele>
        <time>2022-07-10T12:02:18Z</time>
      </trkpt>
      <trkpt lat="49.83576" lon="2.55885">
        <ele>99.5</ele>
        <time>2022-07-10T12:02:19Z</time>
      </trkpt>
      <trkpt lat="49.83576" lon="2.55885">
        <ele>99.5</ele>
        <time>2022-07-10T12:02:20Z</time>
      </trkpt>
      <trkpt lat="49.83575" lon="2.55885">
        <ele>99.5</ele>
        <time>2022-07-10T12:02:21Z</time>
      </trkpt>
      <trkpt lat="49.83575" lon="2.55885">
        <ele>99.5</ele>
        <time>2022-07-10T12:02:22Z</time>
      </trkpt>
      <trkpt lat="49.83575" lon="2.55884">
        <ele>99.5</ele>
        <time>2022-07-10T12:02:23Z</time>
      </trkpt>
      <trkpt lat="49.83575" lon="2.55884">
        <ele>99.5</ele>
        <time>2022-07-10T12:02:24Z</time>
      </trkpt>
      <trkpt lat="49.83575" lon="2.55884">
        <ele>99.5</ele>
        <time>2022-07-10T12:02:25Z</time>
      </trkpt>
      <trkpt lat="49.83574" lon="2.55884">
        <ele>99.5</ele>
        <time>2022-07-10T12:02:26Z</time>
      </trkpt>
      <trkpt lat="49.83574" lon="2.55884">
        <ele>99.5</ele>
        <time>2022-07-10T12:02:27Z</time>
      </trkpt>
      <trkpt lat="49.83574" lon="2.55884">
        <ele>99.5</ele>
        <time>2022-07-10T12:02:28Z</time>
      </trkpt>
      <trkpt lat="49.83574" lon="2.55884">
        <ele>99.5</ele>
        <time>2022-07-10T12:02:29Z</time>
      </trkpt>
      <trkpt lat="49.83574" lon="2.55884">
        <ele>99.5</ele>
        <time>2022-07-10T12:02:30Z</time>
      </trkpt>
      <trkpt lat="49.83573" lon="2.55884">
        <ele>99.5</ele>
        <time>2022-07-10T12:02:31Z</time>
      </trkpt>
      <trkpt lat="49.83572" lon="2.55883">
        <ele>99.6</ele>
        <time>2022-07-10T12:02:32Z</time>
      </trkpt>
      <trkpt lat="49.83572" lon="2.55883">
        <ele>99.6</ele>
        <time>2022-07-10T12:02:33Z</time>
      </trkpt>
      <trkpt lat="49.83571" lon="2.55882">
        <ele>99.6</ele>
        <time>2022-07-10T12:02:34Z</time>
      </trkpt>
      <trkpt lat="49.83571" lon="2.55882">
        <ele>99.6</ele>
        <time>2022-07-10T12:02:35Z</time>
      </trkpt>
      <trkpt lat="49.83571" lon="2.55882">
        <ele>99.6</ele>
        <time>2022-07-10T12:02:36Z</time>
      </trkpt>
      <trkpt lat="49.83571" lon="2.55882">
        <ele>99.6</ele>
        <time>2022-07-10T12:02:37Z</time>
      </trkpt>
      <trkpt lat="49.83571" lon="2.55882">
        <ele>99.6</ele>
        <time>2022-07-10T12:02:38Z</time>
      </trkpt>
      <trkpt lat="49.83571" lon="2.55882">
        <ele>99.6</ele>
        <time>2022-07-10T12:02:39Z</time>
      </trkpt>
      <trkpt lat="49.83571" lon="2.55882">
        <ele>99.6</ele>
        <time>2022-07-10T12:02:40Z</time>
      </trkpt>
      <trkpt lat="49.83571" lon="2.55882">
        <ele>99.6</ele>
        <time>2022-07-10T12:02:41Z</time>
      </trkpt>
      <trkpt lat="49.83571" lon="2.55882">
        <ele>99.6</ele>
        <time>2022-07-10T12:02:42Z</time>
      </trkpt>
      <trkpt lat="49.83571" lon="2.55882">
        <ele>99.6</ele>
        <time>2022-07-10T12:02:43Z</time>
      </trkpt>
      <trkpt lat="49.83571" lon="2.55882">
        <ele>99.6</ele>
        <time>2022-07-10T12:02:44Z</time>
      </trkpt>
      <trkpt lat="49.83571" lon="2.55882">
        <ele>99.6</ele>
        <time>2022-07-10T12:02:45Z</time>
      </trkpt>
      <trkpt lat="49.83571" lon="2.55882">
        <ele>99.6</ele>
        <time>2022-07-10T12:02:46Z</time>
      </trkpt>
      <trkpt lat="49.83571" lon="2.55882">
        <ele>99.6</ele>
        <time>2022-07-10T12:02:47Z</time>
      </trkpt>
      <trkpt lat="49.83571" lon="2.55882">
        <ele>99.6</ele>
        <time>2022-07-10T12:02:48Z</time>
      </trkpt>
      <trkpt lat="49.83571" lon="2.55883">
        <ele>99.6</ele>
        <time>2022-07-10T12:02:49Z</time>
      </trkpt>
      <trkpt lat="49.83572" lon="2.55884">
        <ele>99.6</ele>
        <time>2022-07-10T12:02:51Z</time>
      </trkpt>
      <trkpt lat="49.83572" lon="2.55884">
        <ele>99.6</ele>
        <time>2022-07-10T12:02:52Z</time>
      </trkpt>
      <trkpt lat="49.83572" lon="2.55884">
        <ele>99.6</ele>
        <time>2022-07-10T12:02:53Z</time>
      </trkpt>
      <trkpt lat="49.83571" lon="2.55884">
        <ele>99.6</ele>
        <time>2022-07-10T12:02:54Z</time>
      </trkpt>
      <trkpt lat="49.83571" lon="2.55884">
        <ele>99.6</ele>
        <time>2022-07-10T12:02:55Z</time>
      </trkpt>
      <trkpt lat="49.83571" lon="2.55884">
        <ele>99.6</ele>
        <time>2022-07-10T12:02:56Z</time>
      </trkpt>
      <trkpt lat="49.83571" lon="2.55884">
        <ele>99.6</ele>
        <time>2022-07-10T12:02:57Z</time>
      </trkpt>
      <trkpt lat="49.83571" lon="2.55884">
        <ele>99.6</ele>
        <time>2022-07-10T12:02:58Z</time>
      </trkpt>
      <trkpt lat="49.83571" lon="2.55884">
        <ele>99.6</ele>
        <time>2022-07-10T12:02:59Z</time>
      </trkpt>
      <trkpt lat="49.83571" lon="2.55884">
        <ele>99.6</ele>
        <time>2022-07-10T12:03:01Z</time>
      </trkpt>
      <trkpt lat="49.83571" lon="2.55884">
        <ele>99.6</ele>
        <time>2022-07-10T12:03:02Z</time>
      </trkpt>
      <trkpt lat="49.83571" lon="2.55884">
        <ele>99.6</ele>
        <time>2022-07-10T12:03:03Z</time>
      </trkpt>
      <trkpt lat="49.83571" lon="2.55883">
        <ele>99.6</ele>
        <time>2022-07-10T12:03:04Z</time>
      </trkpt>
      <trkpt lat="49.8357" lon="2.55883">
        <ele>99.6</ele>
        <time>2022-07-10T12:03:05Z</time>
      </trkpt>
      <trkpt lat="49.8357" lon="2.55883">
        <ele>99.6</ele>
        <time>2022-07-10T12:03:06Z</time>
      </trkpt>
      <trkpt lat="49.8357" lon="2.55883">
        <ele>99.6</ele>
        <time>2022-07-10T12:03:07Z</time>
      </trkpt>
      <trkpt lat="49.8357" lon="2.55883">
        <ele>99.6</ele>
        <time>2022-07-10T12:03:08Z</time>
      </trkpt>
      <trkpt lat="49.83571" lon="2.55883">
        <ele>99.6</ele>
        <time>2022-07-10T12:03:09Z</time>
      </trkpt>
      <trkpt lat="49.8357" lon="2.55883">
        <ele>99.6</ele>
        <time>2022-07-10T12:03:10Z</time>
      </trkpt>
      <trkpt lat="49.8357" lon="2.55883">
        <ele>99.6</ele>
        <time>2022-07-10T12:03:11Z</time>
      </trkpt>
      <trkpt lat="49.8357" lon="2.55882">
        <ele>99.6</ele>
        <time>2022-07-10T12:03:12Z</time>
      </trkpt>
      <trkpt lat="49.8357" lon="2.55882">
        <ele>99.6</ele>
        <time>2022-07-10T12:03:13Z</time>
      </trkpt>
      <trkpt lat="49.8357" lon="2.55882">
        <ele>99.6</ele>
        <time>2022-07-10T12:03:14Z</time>
      </trkpt>
      <trkpt lat="49.8357" lon="2.55882">
        <ele>99.6</ele>
        <time>2022-07-10T12:03:15Z</time>
      </trkpt>
      <trkpt lat="49.8357" lon="2.55882">
        <ele>99.6</ele>
        <time>2022-07-10T12:03:16Z</time>
      </trkpt>
      <trkpt lat="49.8357" lon="2.55882">
        <ele>99.6</ele>
        <time>2022-07-10T12:03:17Z</time>
      </trkpt>
      <trkpt lat="49.8357" lon="2.55882">
        <ele>99.6</ele>
        <time>2022-07-10T12:03:18Z</time>
      </trkpt>
      <trkpt lat="49.8357" lon="2.55882">
        <ele>99.6</ele>
        <time>2022-07-10T12:03:19Z</time>
      </trkpt>
      <trkpt lat="49.8357" lon="2.55882">
        <ele>99.6</ele>
        <time>2022-07-10T12:03:20Z</time>
      </trkpt>
      <trkpt lat="49.8357" lon="2.55882">
        <ele>99.6</ele>
        <time>2022-07-10T12:03:21Z</time>
      </trkpt>
      <trkpt lat="49.8357" lon="2.55882">
        <ele>99.6</ele>
        <time>2022-07-10T12:03:22Z</time>
      </trkpt>
      <trkpt lat="49.8357" lon="2.55882">
        <ele>99.7</ele>
        <time>2022-07-10T12:03:23Z</time>
      </trkpt>
      <trkpt lat="49.8357" lon="2.55882">
        <ele>99.7</ele>
        <time>2022-07-10T12:03:24Z</time>
      </trkpt>
      <trkpt lat="49.83571" lon="2.55883">
        <ele>99.7</ele>
        <time>2022-07-10T12:03:25Z</time>
      </trkpt>
      <trkpt lat="49.83571" lon="2.55883">
        <ele>99.7</ele>
        <time>2022-07-10T12:03:26Z</time>
      </trkpt>
      <trkpt lat="49.8357" lon="2.55884">
        <ele>99.7</ele>
        <time>2022-07-10T12:03:27Z</time>
      </trkpt>
      <trkpt lat="49.8357" lon="2.55884">
        <ele>99.7</ele>
        <time>2022-07-10T12:03:28Z</time>
      </trkpt>
      <trkpt lat="49.8357" lon="2.55884">
        <ele>99.7</ele>
        <time>2022-07-10T12:03:29Z</time>
      </trkpt>
      <trkpt lat="49.8357" lon="2.55884">
        <ele>99.7</ele>
        <time>2022-07-10T12:03:31Z</time>
      </trkpt>
      <trkpt lat="49.8357" lon="2.55884">
        <ele>99.7</ele>
        <time>2022-07-10T12:03:32Z</time>
      </trkpt>
      <trkpt lat="49.83571" lon="2.55884">
        <ele>99.7</ele>
        <time>2022-07-10T12:03:33Z</time>
      </trkpt>
      <trkpt lat="49.83571" lon="2.55884">
        <ele>99.7</ele>
        <time>2022-07-10T12:03:34Z</time>
      </trkpt>
      <trkpt lat="49.8357" lon="2.55883">
        <ele>99.7</ele>
        <time>2022-07-10T12:03:35Z</time>
      </trkpt>
      <trkpt lat="49.8357" lon="2.55883">
        <ele>99.7</ele>
        <time>2022-07-10T12:03:36Z</time>
      </trkpt>
      <trkpt lat="49.8357" lon="2.55883">
        <ele>99.7</ele>
        <time>2022-07-10T12:03:37Z</time>
      </trkpt>
      <trkpt lat="49.8357" lon="2.55883">
        <ele>99.7</ele>
        <time>2022-07-10T12:03:38Z</time>
      </trkpt>
      <trkpt lat="49.8357" lon="2.55883">
        <ele>99.7</ele>
        <time>2022-07-10T12:03:39Z</time>
      </trkpt>
      <trkpt lat="49.8357" lon="2.55883">
        <ele>99.7</ele>
        <time>2022-07-10T12:03:40Z</time>
      </trkpt>
      <trkpt lat="49.8357" lon="2.55883">
        <ele>99.7</ele>
        <time>2022-07-10T12:03:41Z</time>
      </trkpt>
      <trkpt lat="49.8357" lon="2.55883">
        <ele>99.7</ele>
        <time>2022-07-10T12:03:42Z</time>
      </trkpt>
      <trkpt lat="49.8357" lon="2.55883">
        <ele>99.7</ele>
        <time>2022-07-10T12:03:43Z</time>
      </trkpt>
      <trkpt lat="49.8357" lon="2.55882">
        <ele>99.7</ele>
        <time>2022-07-10T12:03:44Z</time>
      </trkpt>
      <trkpt lat="49.8357" lon="2.55882">
        <ele>99.7</ele>
        <time>2022-07-10T12:03:45Z</time>
      </trkpt>
      <trkpt lat="49.8357" lon="2.55882">
        <ele>99.7</ele>
        <time>2022-07-10T12:03:46Z</time>
      </trkpt>
      <trkpt lat="49.8357" lon="2.55881">
        <ele>99.7</ele>
        <time>2022-07-10T12:03:47Z</time>
      </trkpt>
      <trkpt lat="49.8357" lon="2.55881">
        <ele>99.7</ele>
        <time>2022-07-10T12:03:48Z</time>
      </trkpt>
      <trkpt lat="49.83571" lon="2.55881">
        <ele>99.7</ele>
        <time>2022-07-10T12:03:49Z</time>
      </trkpt>
      <trkpt lat="49.83573" lon="2.5588">
        <ele>99.7</ele>
        <time>2022-07-10T12:03:51Z</time>
      </trkpt>
      <trkpt lat="49.83574" lon="2.55879">
        <ele>99.7</ele>
        <time>2022-07-10T12:03:53Z</time>
      </trkpt>
      <trkpt lat="49.83576" lon="2.55878">
        <ele>99.7</ele>
        <time>2022-07-10T12:03:55Z</time>
      </trkpt>
      <trkpt lat="49.83576" lon="2.55878">
        <ele>99.7</ele>
        <time>2022-07-10T12:03:56Z</time>
      </trkpt>
      <trkpt lat="49.83578" lon="2.55878">
        <ele>99.7</ele>
        <time>2022-07-10T12:03:58Z</time>
      </trkpt>
      <trkpt lat="49.83578" lon="2.55878">
        <ele>99.7</ele>
        <time>2022-07-10T12:03:59Z</time>
      </trkpt>
      <trkpt lat="49.83578" lon="2.55878">
        <ele>99.7</ele>
        <time>2022-07-10T12:04:01Z</time>
      </trkpt>
      <trkpt lat="49.83579" lon="2.55878">
        <ele>99.7</ele>
        <time>2022-07-10T12:04:02Z</time>
      </trkpt>
      <trkpt lat="49.83579" lon="2.55878">
        <ele>99.7</ele>
        <time>2022-07-10T12:04:03Z</time>
      </trkpt>
      <trkpt lat="49.83579" lon="2.55877">
        <ele>99.7</ele>
        <time>2022-07-10T12:04:04Z</time>
      </trkpt>
      <trkpt lat="49.83579" lon="2.55877">
        <ele>99.7</ele>
        <time>2022-07-10T12:04:05Z</time>
      </trkpt>
      <trkpt lat="49.83579" lon="2.55877">
        <ele>99.7</ele>
        <time>2022-07-10T12:04:06Z</time>
      </trkpt>
      <trkpt lat="49.83579" lon="2.55877">
        <ele>99.7</ele>
        <time>2022-07-10T12:04:07Z</time>
      </trkpt>
      <trkpt lat="49.8358" lon="2.55876">
        <ele>99.7</ele>
        <time>2022-07-10T12:04:08Z</time>
      </trkpt>
      <trkpt lat="49.8358" lon="2.55876">
        <ele>99.7</ele>
        <time>2022-07-10T12:04:09Z</time>
      </trkpt>
      <trkpt lat="49.8358" lon="2.55876">
        <ele>99.7</ele>
        <time>2022-07-10T12:04:10Z</time>
      </trkpt>
      <trkpt lat="49.8358" lon="2.55876">
        <ele>99.7</ele>
        <time>2022-07-10T12:04:11Z</time>
      </trkpt>
      <trkpt lat="49.8358" lon="2.55875">
        <ele>99.7</ele>
        <time>2022-07-10T12:04:12Z</time>
      </trkpt>
      <trkpt lat="49.8358" lon="2.55875">
        <ele>99.7</ele>
        <time>2022-07-10T12:04:13Z</time>
      </trkpt>
      <trkpt lat="49.83581" lon="2.55875">
        <ele>99.7</ele>
        <time>2022-07-10T12:04:15Z</time>
      </trkpt>
      <trkpt lat="49.83581" lon="2.55875">
        <ele>99.7</ele>
        <time>2022-07-10T12:04:16Z</time>
      </trkpt>
      <trkpt lat="49.83583" lon="2.55873">
        <ele>99.8</ele>
        <time>2022-07-10T12:04:17Z</time>
      </trkpt>
      <trkpt lat="49.83584" lon="2.55872">
        <ele>99.8</ele>
        <time>2022-07-10T12:04:19Z</time>
      </trkpt>
      <trkpt lat="49.83586" lon="2.55871">
        <ele>99.8</ele>
        <time>2022-07-10T12:04:20Z</time>
      </trkpt>
      <trkpt lat="49.83587" lon="2.55871">
        <ele>99.8</ele>
        <time>2022-07-10T12:04:21Z</time>
      </trkpt>
      <trkpt lat="49.83588" lon="2.5587">
        <ele>99.8</ele>
        <time>2022-07-10T12:04:22Z</time>
      </trkpt>
      <trkpt lat="49.8359" lon="2.55869">
        <ele>99.8</ele>
        <time>2022-07-10T12:04:23Z</time>
      </trkpt>
      <trkpt lat="49.83591" lon="2.55868">
        <ele>99.8</ele>
        <time>2022-07-10T12:04:25Z</time>
      </trkpt>
      <trkpt lat="49.83593" lon="2.55868">
        <ele>99.8</ele>
        <time>2022-07-10T12:04:26Z</time>
      </trkpt>
      <trkpt lat="49.83593" lon="2.55867">
        <ele>99.8</ele>
        <time>2022-07-10T12:04:27Z</time>
      </trkpt>
      <trkpt lat="49.83595" lon="2.55866">
        <ele>99.8</ele>
        <time>2022-07-10T12:04:28Z</time>
      </trkpt>
      <trkpt lat="49.83596" lon="2.55866">
        <ele>99.8</ele>
        <time>2022-07-10T12:04:29Z</time>
      </trkpt>
      <trkpt lat="49.83597" lon="2.55865">
        <ele>99.8</ele>
        <time>2022-07-10T12:04:30Z</time>
      </trkpt>
      <trkpt lat="49.83599" lon="2.55864">
        <ele>99.8</ele>
        <time>2022-07-10T12:04:32Z</time>
      </trkpt>
      <trkpt lat="49.836" lon="2.55863">
        <ele>99.8</ele>
        <time>2022-07-10T12:04:33Z</time>
      </trkpt>
      <trkpt lat="49.83602" lon="2.55862">
        <ele>99.8</ele>
        <time>2022-07-10T12:04:34Z</time>
      </trkpt>
      <trkpt lat="49.83603" lon="2.55861">
        <ele>99.8</ele>
        <time>2022-07-10T12:04:35Z</time>
      </trkpt>
      <trkpt lat="49.83605" lon="2.5586">
        <ele>99.8</ele>
        <time>2022-07-10T12:04:36Z</time>
      </trkpt>
      <trkpt lat="49.83607" lon="2.55858">
        <ele>99.8</ele>
        <time>2022-07-10T12:04:37Z</time>
      </trkpt>
      <trkpt lat="49.83608" lon="2.55857">
        <ele>99.8</ele>
        <time>2022-07-10T12:04:38Z</time>
      </trkpt>
      <trkpt lat="49.83609" lon="2.55856">
        <ele>99.8</ele>
        <time>2022-07-10T12:04:39Z</time>
      </trkpt>
      <trkpt lat="49.8361" lon="2.55855">
        <ele>99.8</ele>
        <time>2022-07-10T12:04:41Z</time>
      </trkpt>
      <trkpt lat="49.83611" lon="2.55853">
        <ele>99.7</ele>
        <time>2022-07-10T12:04:43Z</time>
      </trkpt>
      <trkpt lat="49.83612" lon="2.55852">
        <ele>99.7</ele>
        <time>2022-07-10T12:04:44Z</time>
      </trkpt>
      <trkpt lat="49.83614" lon="2.5585">
        <ele>99.7</ele>
        <time>2022-07-10T12:04:45Z</time>
      </trkpt>
      <trkpt lat="49.83616" lon="2.55848">
        <ele>99.7</ele>
        <time>2022-07-10T12:04:46Z</time>
      </trkpt>
      <trkpt lat="49.83617" lon="2.55847">
        <ele>99.7</ele>
        <time>2022-07-10T12:04:48Z</time>
      </trkpt>
      <trkpt lat="49.83618" lon="2.55846">
        <ele>99.8</ele>
        <time>2022-07-10T12:04:49Z</time>
      </trkpt>
      <trkpt lat="49.83619" lon="2.55845">
        <ele>99.8</ele>
        <time>2022-07-10T12:04:50Z</time>
      </trkpt>
      <trkpt lat="49.8362" lon="2.55844">
        <ele>99.8</ele>
        <time>2022-07-10T12:04:51Z</time>
      </trkpt>
      <trkpt lat="49.83621" lon="2.55843">
        <ele>99.8</ele>
        <time>2022-07-10T12:04:52Z</time>
      </trkpt>
      <trkpt lat="49.83622" lon="2.55842">
        <ele>99.8</ele>
        <time>2022-07-10T12:04:53Z</time>
      </trkpt>
      <trkpt lat="49.83623" lon="2.55841">
        <ele>99.8</ele>
        <time>2022-07-10T12:04:54Z</time>
      </trkpt>
      <trkpt lat="49.83625" lon="2.5584">
        <ele>99.8</ele>
        <time>2022-07-10T12:04:56Z</time>
      </trkpt>
      <trkpt lat="49.83625" lon="2.55839">
        <ele>99.8</ele>
        <time>2022-07-10T12:04:57Z</time>
      </trkpt>
      <trkpt lat="49.83626" lon="2.55838">
        <ele>99.8</ele>
        <time>2022-07-10T12:04:58Z</time>
      </trkpt>
      <trkpt lat="49.83627" lon="2.55837">
        <ele>99.8</ele>
        <time>2022-07-10T12:04:59Z</time>
      </trkpt>
      <trkpt lat="49.83628" lon="2.55836">
        <ele>99.8</ele>
        <time>2022-07-10T12:05:00Z</time>
      </trkpt>
      <trkpt lat="49.83629" lon="2.55835">
        <ele>99.8</ele>
        <time>2022-07-10T12:05:01Z</time>
      </trkpt>
      <trkpt lat="49.83631" lon="2.55834">
        <ele>99.9</ele>
        <time>2022-07-10T12:05:02Z</time>
      </trkpt>
      <trkpt lat="49.83632" lon="2.55833">
        <ele>99.9</ele>
        <time>2022-07-10T12:05:04Z</time>
      </trkpt>
      <trkpt lat="49.83633" lon="2.55833">
        <ele>99.9</ele>
        <time>2022-07-10T12:05:05Z</time>
      </trkpt>
      <trkpt lat="49.83634" lon="2.55832">
        <ele>99.9</ele>
        <time>2022-07-10T12:05:06Z</time>
      </trkpt>
      <trkpt lat="49.83636" lon="2.55832">
        <ele>100</ele>
        <time>2022-07-10T12:05:07Z</time>
      </trkpt>
      <trkpt lat="49.83637" lon="2.55832">
        <ele>100</ele>
        <time>2022-07-10T12:05:09Z</time>
      </trkpt>
      <trkpt lat="49.83638" lon="2.55832">
        <ele>100</ele>
        <time>2022-07-10T12:05:10Z</time>
      </trkpt>
      <trkpt lat="49.83639" lon="2.55833">
        <ele>100</ele>
        <time>2022-07-10T12:05:11Z</time>
      </trkpt>
      <trkpt lat="49.83639" lon="2.55836">
        <ele>100.1</ele>
        <time>2022-07-10T12:05:12Z</time>
      </trkpt>
      <trkpt lat="49.83639" lon="2.55837">
        <ele>100.1</ele>
        <time>2022-07-10T12:05:13Z</time>
      </trkpt>
      <trkpt lat="49.8364" lon="2.55838">
        <ele>100.1</ele>
        <time>2022-07-10T12:05:15Z</time>
      </trkpt>
      <trkpt lat="49.8364" lon="2.55839">
        <ele>100.1</ele>
        <time>2022-07-10T12:05:16Z</time>
      </trkpt>
      <trkpt lat="49.83639" lon="2.5584">
        <ele>100.1</ele>
        <time>2022-07-10T12:05:17Z</time>
      </trkpt>
      <trkpt lat="49.83639" lon="2.5584">
        <ele>100.1</ele>
        <time>2022-07-10T12:05:18Z</time>
      </trkpt>
      <trkpt lat="49.83638" lon="2.5584">
        <ele>100.1</ele>
        <time>2022-07-10T12:05:19Z</time>
      </trkpt>
      <trkpt lat="49.83638" lon="2.5584">
        <ele>100.1</ele>
        <time>2022-07-10T12:05:20Z</time>
      </trkpt>
      <trkpt lat="49.83637" lon="2.5584">
        <ele>100.1</ele>
        <time>2022-07-10T12:05:21Z</time>
      </trkpt>
      <trkpt lat="49.83636" lon="2.5584">
        <ele>100.1</ele>
        <time>2022-07-10T12:05:22Z</time>
      </trkpt>
      <trkpt lat="49.83636" lon="2.5584">
        <ele>100.1</ele>
        <time>2022-07-10T12:05:23Z</time>
      </trkpt>
      <trkpt lat="49.83636" lon="2.5584">
        <ele>100.1</ele>
        <time>2022-07-10T12:05:24Z</time>
      </trkpt>
      <trkpt lat="49.83636" lon="2.5584">
        <ele>100.1</ele>
        <time>2022-07-10T12:05:25Z</time>
      </trkpt>
      <trkpt lat="49.83636" lon="2.5584">
        <ele>100.1</ele>
        <time>2022-07-10T12:05:26Z</time>
      </trkpt>
      <trkpt lat="49.83636" lon="2.5584">
        <ele>100.1</ele>
        <time>2022-07-10T12:05:27Z</time>
      </trkpt>
      <trkpt lat="49.83636" lon="2.5584">
        <ele>100.1</ele>
        <time>2022-07-10T12:05:28Z</time>
      </trkpt>
      <trkpt lat="49.83636" lon="2.5584">
        <ele>100.1</ele>
        <time>2022-07-10T12:05:29Z</time>
      </trkpt>
      <trkpt lat="49.83636" lon="2.55841">
        <ele>100.1</ele>
        <time>2022-07-10T12:05:30Z</time>
      </trkpt>
      <trkpt lat="49.83636" lon="2.55841">
        <ele>100.1</ele>
        <time>2022-07-10T12:05:31Z</time>
      </trkpt>
      <trkpt lat="49.83636" lon="2.55841">
        <ele>100.1</ele>
        <time>2022-07-10T12:05:32Z</time>
      </trkpt>
      <trkpt lat="49.83636" lon="2.55842">
        <ele>100.1</ele>
        <time>2022-07-10T12:05:33Z</time>
      </trkpt>
      <trkpt lat="49.83637" lon="2.55843">
        <ele>100.1</ele>
        <time>2022-07-10T12:05:35Z</time>
      </trkpt>
      <trkpt lat="49.83637" lon="2.55844">
        <ele>100.2</ele>
        <time>2022-07-10T12:05:36Z</time>
      </trkpt>
      <trkpt lat="49.83638" lon="2.55845">
        <ele>100.2</ele>
        <time>2022-07-10T12:05:37Z</time>
      </trkpt>
      <trkpt lat="49.83639" lon="2.55848">
        <ele>100.2</ele>
        <time>2022-07-10T12:05:38Z</time>
      </trkpt>
      <trkpt lat="49.83638" lon="2.55849">
        <ele>100.2</ele>
        <time>2022-07-10T12:05:39Z</time>
      </trkpt>
      <trkpt lat="49.83638" lon="2.55852">
        <ele>100.2</ele>
        <time>2022-07-10T12:05:40Z</time>
      </trkpt>
      <trkpt lat="49.83638" lon="2.55854">
        <ele>100.2</ele>
        <time>2022-07-10T12:05:41Z</time>
      </trkpt>
      <trkpt lat="49.83638" lon="2.55855">
        <ele>100.2</ele>
        <time>2022-07-10T12:05:43Z</time>
      </trkpt>
      <trkpt lat="49.83638" lon="2.55856">
        <ele>100.2</ele>
        <time>2022-07-10T12:05:44Z</time>
      </trkpt>
      <trkpt lat="49.83638" lon="2.55857">
        <ele>100.2</ele>
        <time>2022-07-10T12:05:45Z</time>
      </trkpt>
      <trkpt lat="49.83638" lon="2.55859">
        <ele>100.3</ele>
        <time>2022-07-10T12:05:47Z</time>
      </trkpt>
      <trkpt lat="49.83638" lon="2.5586">
        <ele>100.3</ele>
        <time>2022-07-10T12:05:48Z</time>
      </trkpt>
      <trkpt lat="49.83638" lon="2.55861">
        <ele>100.3</ele>
        <time>2022-07-10T12:05:49Z</time>
      </trkpt>
      <trkpt lat="49.83638" lon="2.55863">
        <ele>100.3</ele>
        <time>2022-07-10T12:05:50Z</time>
      </trkpt>
      <trkpt lat="49.83638" lon="2.55864">
        <ele>100.3</ele>
        <time>2022-07-10T12:05:51Z</time>
      </trkpt>
      <trkpt lat="49.83638" lon="2.55865">
        <ele>100.3</ele>
        <time>2022-07-10T12:05:52Z</time>
      </trkpt>
      <trkpt lat="49.83638" lon="2.55868">
        <ele>100.3</ele>
        <time>2022-07-10T12:05:54Z</time>
      </trkpt>
      <trkpt lat="49.83638" lon="2.55869">
        <ele>100.3</ele>
        <time>2022-07-10T12:05:55Z</time>
      </trkpt>
      <trkpt lat="49.83638" lon="2.5587">
        <ele>100.3</ele>
        <time>2022-07-10T12:05:56Z</time>
      </trkpt>
      <trkpt lat="49.83638" lon="2.55871">
        <ele>100.3</ele>
        <time>2022-07-10T12:05:57Z</time>
      </trkpt>
      <trkpt lat="49.83638" lon="2.55875">
        <ele>100.3</ele>
        <time>2022-07-10T12:05:58Z</time>
      </trkpt>
      <trkpt lat="49.83638" lon="2.55876">
        <ele>100.3</ele>
        <time>2022-07-10T12:05:59Z</time>
      </trkpt>
      <trkpt lat="49.83638" lon="2.55877">
        <ele>100.3</ele>
        <time>2022-07-10T12:06:00Z</time>
      </trkpt>
      <trkpt lat="49.83638" lon="2.55879">
        <ele>100.4</ele>
        <time>2022-07-10T12:06:01Z</time>
      </trkpt>
      <trkpt lat="49.83638" lon="2.55881">
        <ele>100.4</ele>
        <time>2022-07-10T12:06:02Z</time>
      </trkpt>
      <trkpt lat="49.83638" lon="2.55884">
        <ele>100.4</ele>
        <time>2022-07-10T12:06:04Z</time>
      </trkpt>
      <trkpt lat="49.83638" lon="2.55886">
        <ele>100.4</ele>
        <time>2022-07-10T12:06:05Z</time>
      </trkpt>
      <trkpt lat="49.83638" lon="2.55888">
        <ele>100.4</ele>
        <time>2022-07-10T12:06:06Z</time>
      </trkpt>
      <trkpt lat="49.83638" lon="2.55889">
        <ele>100.4</ele>
        <time>2022-07-10T12:06:07Z</time>
      </trkpt>
      <trkpt lat="49.83638" lon="2.55892">
        <ele>100.4</ele>
        <time>2022-07-10T12:06:08Z</time>
      </trkpt>
      <trkpt lat="49.83638" lon="2.55893">
        <ele>100.4</ele>
        <time>2022-07-10T12:06:09Z</time>
      </trkpt>
      <trkpt lat="49.83638" lon="2.55895">
        <ele>100.4</ele>
        <time>2022-07-10T12:06:10Z</time>
      </trkpt>
      <trkpt lat="49.83638" lon="2.55897">
        <ele>100.4</ele>
        <time>2022-07-10T12:06:12Z</time>
      </trkpt>
      <trkpt lat="49.83638" lon="2.559">
        <ele>100.5</ele>
        <time>2022-07-10T12:06:13Z</time>
      </trkpt>
      <trkpt lat="49.83638" lon="2.55901">
        <ele>100.5</ele>
        <time>2022-07-10T12:06:14Z</time>
      </trkpt>
      <trkpt lat="49.83638" lon="2.55903">
        <ele>100.5</ele>
        <time>2022-07-10T12:06:15Z</time>
      </trkpt>
      <trkpt lat="49.83638" lon="2.55905">
        <ele>100.5</ele>
        <time>2022-07-10T12:06:16Z</time>
      </trkpt>
      <trkpt lat="49.83638" lon="2.55907">
        <ele>100.5</ele>
        <time>2022-07-10T12:06:17Z</time>
      </trkpt>
      <trkpt lat="49.83638" lon="2.55909">
        <ele>100.5</ele>
        <time>2022-07-10T12:06:18Z</time>
      </trkpt>
      <trkpt lat="49.83637" lon="2.55911">
        <ele>100.5</ele>
        <time>2022-07-10T12:06:19Z</time>
      </trkpt>
      <trkpt lat="49.83637" lon="2.55913">
        <ele>100.5</ele>
        <time>2022-07-10T12:06:21Z</time>
      </trkpt>
      <trkpt lat="49.83637" lon="2.55914">
        <ele>100.5</ele>
        <time>2022-07-10T12:06:22Z</time>
      </trkpt>
      <trkpt lat="49.83636" lon="2.55918">
        <ele>100.6</ele>
        <time>2022-07-10T12:06:23Z</time>
      </trkpt>
      <trkpt lat="49.83636" lon="2.55919">
        <ele>100.6</ele>
        <time>2022-07-10T12:06:24Z</time>
      </trkpt>
      <trkpt lat="49.83636" lon="2.55921">
        <ele>100.6</ele>
        <time>2022-07-10T12:06:25Z</time>
      </trkpt>
      <trkpt lat="49.83636" lon="2.55922">
        <ele>100.6</ele>
        <time>2022-07-10T12:06:26Z</time>
      </trkpt>
      <trkpt lat="49.83636" lon="2.55924">
        <ele>100.6</ele>
        <time>2022-07-10T12:06:27Z</time>
      </trkpt>
      <trkpt lat="49.83636" lon="2.55928">
        <ele>100.6</ele>
        <time>2022-07-10T12:06:29Z</time>
      </trkpt>
      <trkpt lat="49.83636" lon="2.55929">
        <ele>100.6</ele>
        <time>2022-07-10T12:06:30Z</time>
      </trkpt>
      <trkpt lat="49.83636" lon="2.5593">
        <ele>100.6</ele>
        <time>2022-07-10T12:06:31Z</time>
      </trkpt>
      <trkpt lat="49.83636" lon="2.55933">
        <ele>100.6</ele>
        <time>2022-07-10T12:06:32Z</time>
      </trkpt>
      <trkpt lat="49.83636" lon="2.55936">
        <ele>100.6</ele>
        <time>2022-07-10T12:06:33Z</time>
      </trkpt>
      <trkpt lat="49.83636" lon="2.55937">
        <ele>100.6</ele>
        <time>2022-07-10T12:06:34Z</time>
      </trkpt>
      <trkpt lat="49.83636" lon="2.55939">
        <ele>100.7</ele>
        <time>2022-07-10T12:06:35Z</time>
      </trkpt>
      <trkpt lat="49.83636" lon="2.55941">
        <ele>100.7</ele>
        <time>2022-07-10T12:06:37Z</time>
      </trkpt>
      <trkpt lat="49.83636" lon="2.55943">
        <ele>100.7</ele>
        <time>2022-07-10T12:06:38Z</time>
      </trkpt>
      <trkpt lat="49.83635" lon="2.55945">
        <ele>100.7</ele>
        <time>2022-07-10T12:06:39Z</time>
      </trkpt>
      <trkpt lat="49.83635" lon="2.55948">
        <ele>100.7</ele>
        <time>2022-07-10T12:06:40Z</time>
      </trkpt>
      <trkpt lat="49.83635" lon="2.55949">
        <ele>100.7</ele>
        <time>2022-07-10T12:06:41Z</time>
      </trkpt>
      <trkpt lat="49.83635" lon="2.55951">
        <ele>100.7</ele>
        <time>2022-07-10T12:06:42Z</time>
      </trkpt>
      <trkpt lat="49.83634" lon="2.55954">
        <ele>100.7</ele>
        <time>2022-07-10T12:06:43Z</time>
      </trkpt>
      <trkpt lat="49.83634" lon="2.55955">
        <ele>100.7</ele>
        <time>2022-07-10T12:06:45Z</time>
      </trkpt>
      <trkpt lat="49.83634" lon="2.55957">
        <ele>100.7</ele>
        <time>2022-07-10T12:06:46Z</time>
      </trkpt>
      <trkpt lat="49.83634" lon="2.55959">
        <ele>100.7</ele>
        <time>2022-07-10T12:06:47Z</time>
      </trkpt>
      <trkpt lat="49.83634" lon="2.55962">
        <ele>100.8</ele>
        <time>2022-07-10T12:06:48Z</time>
      </trkpt>
      <trkpt lat="49.83634" lon="2.55964">
        <ele>100.8</ele>
        <time>2022-07-10T12:06:49Z</time>
      </trkpt>
      <trkpt lat="49.83634" lon="2.55965">
        <ele>100.8</ele>
        <time>2022-07-10T12:06:50Z</time>
      </trkpt>
      <trkpt lat="49.83634" lon="2.55967">
        <ele>100.8</ele>
        <time>2022-07-10T12:06:51Z</time>
      </trkpt>
      <trkpt lat="49.83634" lon="2.55969">
        <ele>100.8</ele>
        <time>2022-07-10T12:06:53Z</time>
      </trkpt>
      <trkpt lat="49.83634" lon="2.55971">
        <ele>100.8</ele>
        <time>2022-07-10T12:06:54Z</time>
      </trkpt>
      <trkpt lat="49.83634" lon="2.55972">
        <ele>100.8</ele>
        <time>2022-07-10T12:06:55Z</time>
      </trkpt>
      <trkpt lat="49.83634" lon="2.55974">
        <ele>100.8</ele>
        <time>2022-07-10T12:06:56Z</time>
      </trkpt>
      <trkpt lat="49.83634" lon="2.55975">
        <ele>100.8</ele>
        <time>2022-07-10T12:06:57Z</time>
      </trkpt>
      <trkpt lat="49.83634" lon="2.55976">
        <ele>100.8</ele>
        <time>2022-07-10T12:06:58Z</time>
      </trkpt>
      <trkpt lat="49.83634" lon="2.55978">
        <ele>100.8</ele>
        <time>2022-07-10T12:06:59Z</time>
      </trkpt>
      <trkpt lat="49.83634" lon="2.55981">
        <ele>100.9</ele>
        <time>2022-07-10T12:07:01Z</time>
      </trkpt>
      <trkpt lat="49.83634" lon="2.55983">
        <ele>100.9</ele>
        <time>2022-07-10T12:07:02Z</time>
      </trkpt>
      <trkpt lat="49.83635" lon="2.55986">
        <ele>100.9</ele>
        <time>2022-07-10T12:07:04Z</time>
      </trkpt>
      <trkpt lat="49.83635" lon="2.55987">
        <ele>100.9</ele>
        <time>2022-07-10T12:07:05Z</time>
      </trkpt>
      <trkpt lat="49.83635" lon="2.5599">
        <ele>100.9</ele>
        <time>2022-07-10T12:07:06Z</time>
      </trkpt>
      <trkpt lat="49.83636" lon="2.55992">
        <ele>100.9</ele>
        <time>2022-07-10T12:07:07Z</time>
      </trkpt>
      <trkpt lat="49.83636" lon="2.55993">
        <ele>100.9</ele>
        <time>2022-07-10T12:07:08Z</time>
      </trkpt>
      <trkpt lat="49.83636" lon="2.55995">
        <ele>100.9</ele>
        <time>2022-07-10T12:07:09Z</time>
      </trkpt>
      <trkpt lat="49.83636" lon="2.55997">
        <ele>100.9</ele>
        <time>2022-07-10T12:07:10Z</time>
      </trkpt>
      <trkpt lat="49.83636" lon="2.55999">
        <ele>100.9</ele>
        <time>2022-07-10T12:07:12Z</time>
      </trkpt>
      <trkpt lat="49.83636" lon="2.56">
        <ele>100.9</ele>
        <time>2022-07-10T12:07:13Z</time>
      </trkpt>
      <trkpt lat="49.83636" lon="2.56004">
        <ele>100.9</ele>
        <time>2022-07-10T12:07:14Z</time>
      </trkpt>
      <trkpt lat="49.83637" lon="2.56006">
        <ele>100.9</ele>
        <time>2022-07-10T12:07:16Z</time>
      </trkpt>
      <trkpt lat="49.83637" lon="2.56008">
        <ele>100.9</ele>
        <time>2022-07-10T12:07:17Z</time>
      </trkpt>
      <trkpt lat="49.83637" lon="2.5601">
        <ele>100.9</ele>
        <time>2022-07-10T12:07:18Z</time>
      </trkpt>
      <trkpt lat="49.83637" lon="2.56013">
        <ele>100.9</ele>
        <time>2022-07-10T12:07:19Z</time>
      </trkpt>
      <trkpt lat="49.83637" lon="2.56016">
        <ele>100.9</ele>
        <time>2022-07-10T12:07:20Z</time>
      </trkpt>
      <trkpt lat="49.83637" lon="2.56018">
        <ele>100.9</ele>
        <time>2022-07-10T12:07:21Z</time>
      </trkpt>
      <trkpt lat="49.83637" lon="2.56019">
        <ele>100.9</ele>
        <time>2022-07-10T12:07:22Z</time>
      </trkpt>
      <trkpt lat="49.83637" lon="2.56023">
        <ele>100.9</ele>
        <time>2022-07-10T12:07:23Z</time>
      </trkpt>
      <trkpt lat="49.83637" lon="2.56025">
        <ele>100.9</ele>
        <time>2022-07-10T12:07:25Z</time>
      </trkpt>
      <trkpt lat="49.83637" lon="2.56026">
        <ele>100.9</ele>
        <time>2022-07-10T12:07:26Z</time>
      </trkpt>
      <trkpt lat="49.83637" lon="2.56028">
        <ele>100.9</ele>
        <time>2022-07-10T12:07:27Z</time>
      </trkpt>
      <trkpt lat="49.83637" lon="2.5603">
        <ele>100.9</ele>
        <time>2022-07-10T12:07:28Z</time>
      </trkpt>
      <trkpt lat="49.83637" lon="2.56032">
        <ele>100.9</ele>
        <time>2022-07-10T12:07:29Z</time>
      </trkpt>
      <trkpt lat="49.83637" lon="2.56033">
        <ele>100.9</ele>
        <time>2022-07-10T12:07:30Z</time>
      </trkpt>
      <trkpt lat="49.83637" lon="2.56035">
        <ele>100.9</ele>
        <time>2022-07-10T12:07:31Z</time>
      </trkpt>
      <trkpt lat="49.83637" lon="2.56037">
        <ele>100.9</ele>
        <time>2022-07-10T12:07:33Z</time>
      </trkpt>
      <trkpt lat="49.83637" lon="2.56039">
        <ele>100.9</ele>
        <time>2022-07-10T12:07:34Z</time>
      </trkpt>
      <trkpt lat="49.83637" lon="2.56043">
        <ele>100.9</ele>
        <time>2022-07-10T12:07:35Z</time>
      </trkpt>
      <trkpt lat="49.83638" lon="2.56045">
        <ele>100.9</ele>
        <time>2022-07-10T12:07:37Z</time>
      </trkpt>
      <trkpt lat="49.83638" lon="2.56048">
        <ele>100.8</ele>
        <time>2022-07-10T12:07:38Z</time>
      </trkpt>
      <trkpt lat="49.83637" lon="2.56049">
        <ele>100.8</ele>
        <time>2022-07-10T12:07:39Z</time>
      </trkpt>
      <trkpt lat="49.83637" lon="2.56051">
        <ele>100.8</ele>
        <time>2022-07-10T12:07:40Z</time>
      </trkpt>
      <trkpt lat="49.83637" lon="2.56053">
        <ele>100.8</ele>
        <time>2022-07-10T12:07:42Z</time>
      </trkpt>
      <trkpt lat="49.83637" lon="2.56055">
        <ele>100.8</ele>
        <time>2022-07-10T12:07:43Z</time>
      </trkpt>
      <trkpt lat="49.83637" lon="2.56057">
        <ele>100.8</ele>
        <time>2022-07-10T12:07:44Z</time>
      </trkpt>
      <trkpt lat="49.83637" lon="2.56058">
        <ele>100.8</ele>
        <time>2022-07-10T12:07:45Z</time>
      </trkpt>
      <trkpt lat="49.83637" lon="2.5606">
        <ele>100.8</ele>
        <time>2022-07-10T12:07:46Z</time>
      </trkpt>
      <trkpt lat="49.83637" lon="2.56061">
        <ele>100.8</ele>
        <time>2022-07-10T12:07:47Z</time>
      </trkpt>
      <trkpt lat="49.83637" lon="2.56064">
        <ele>100.8</ele>
        <time>2022-07-10T12:07:48Z</time>
      </trkpt>
      <trkpt lat="49.83637" lon="2.56066">
        <ele>100.8</ele>
        <time>2022-07-10T12:07:49Z</time>
      </trkpt>
      <trkpt lat="49.83636" lon="2.56068">
        <ele>100.8</ele>
        <time>2022-07-10T12:07:51Z</time>
      </trkpt>
      <trkpt lat="49.83636" lon="2.5607">
        <ele>100.8</ele>
        <time>2022-07-10T12:07:52Z</time>
      </trkpt>
      <trkpt lat="49.83636" lon="2.56071">
        <ele>100.8</ele>
        <time>2022-07-10T12:07:53Z</time>
      </trkpt>
      <trkpt lat="49.83636" lon="2.56073">
        <ele>100.8</ele>
        <time>2022-07-10T12:07:54Z</time>
      </trkpt>
      <trkpt lat="49.83636" lon="2.56075">
        <ele>100.8</ele>
        <time>2022-07-10T12:07:55Z</time>
      </trkpt>
      <trkpt lat="49.83636" lon="2.56076">
        <ele>100.8</ele>
        <time>2022-07-10T12:07:56Z</time>
      </trkpt>
      <trkpt lat="49.83636" lon="2.56078">
        <ele>100.8</ele>
        <time>2022-07-10T12:07:57Z</time>
      </trkpt>
      <trkpt lat="49.83636" lon="2.56081">
        <ele>100.8</ele>
        <time>2022-07-10T12:07:59Z</time>
      </trkpt>
      <trkpt lat="49.83636" lon="2.56082">
        <ele>100.8</ele>
        <time>2022-07-10T12:08:00Z</time>
      </trkpt>
      <trkpt lat="49.83636" lon="2.56083">
        <ele>100.8</ele>
        <time>2022-07-10T12:08:01Z</time>
      </trkpt>
      <trkpt lat="49.83636" lon="2.56085">
        <ele>100.9</ele>
        <time>2022-07-10T12:08:02Z</time>
      </trkpt>
      <trkpt lat="49.83637" lon="2.56087">
        <ele>100.9</ele>
        <time>2022-07-10T12:08:03Z</time>
      </trkpt>
      <trkpt lat="49.83637" lon="2.56089">
        <ele>100.9</ele>
        <time>2022-07-10T12:08:04Z</time>
      </trkpt>
      <trkpt lat="49.83638" lon="2.5609">
        <ele>100.9</ele>
        <time>2022-07-10T12:08:05Z</time>
      </trkpt>
      <trkpt lat="49.83638" lon="2.56092">
        <ele>100.9</ele>
        <time>2022-07-10T12:08:06Z</time>
      </trkpt>
      <trkpt lat="49.83639" lon="2.56093">
        <ele>100.9</ele>
        <time>2022-07-10T12:08:08Z</time>
      </trkpt>
      <trkpt lat="49.8364" lon="2.56094">
        <ele>100.9</ele>
        <time>2022-07-10T12:08:09Z</time>
      </trkpt>
      <trkpt lat="49.83642" lon="2.56095">
        <ele>101</ele>
        <time>2022-07-10T12:08:10Z</time>
      </trkpt>
      <trkpt lat="49.83643" lon="2.56096">
        <ele>101</ele>
        <time>2022-07-10T12:08:11Z</time>
      </trkpt>
      <trkpt lat="49.83644" lon="2.56097">
        <ele>101</ele>
        <time>2022-07-10T12:08:12Z</time>
      </trkpt>
      <trkpt lat="49.83645" lon="2.56097">
        <ele>101</ele>
        <time>2022-07-10T12:08:13Z</time>
      </trkpt>
      <trkpt lat="49.83646" lon="2.56099">
        <ele>101</ele>
        <time>2022-07-10T12:08:14Z</time>
      </trkpt>
      <trkpt lat="49.83648" lon="2.561">
        <ele>101</ele>
        <time>2022-07-10T12:08:16Z</time>
      </trkpt>
      <trkpt lat="49.83649" lon="2.56101">
        <ele>101</ele>
        <time>2022-07-10T12:08:17Z</time>
      </trkpt>
      <trkpt lat="49.8365" lon="2.56102">
        <ele>101</ele>
        <time>2022-07-10T12:08:18Z</time>
      </trkpt>
      <trkpt lat="49.83651" lon="2.56103">
        <ele>101</ele>
        <time>2022-07-10T12:08:19Z</time>
      </trkpt>
      <trkpt lat="49.83652" lon="2.56104">
        <ele>101</ele>
        <time>2022-07-10T12:08:20Z</time>
      </trkpt>
      <trkpt lat="49.83654" lon="2.56105">
        <ele>101.1</ele>
        <time>2022-07-10T12:08:21Z</time>
      </trkpt>
      <trkpt lat="49.83655" lon="2.56105">
        <ele>101.1</ele>
        <time>2022-07-10T12:08:23Z</time>
      </trkpt>
      <trkpt lat="49.83656" lon="2.56105">
        <ele>101.1</ele>
        <time>2022-07-10T12:08:24Z</time>
      </trkpt>
      <trkpt lat="49.83657" lon="2.56104">
        <ele>101.1</ele>
        <time>2022-07-10T12:08:25Z</time>
      </trkpt>
      <trkpt lat="49.83657" lon="2.56103">
        <ele>101.1</ele>
        <time>2022-07-10T12:08:27Z</time>
      </trkpt>
      <trkpt lat="49.83657" lon="2.56102">
        <ele>101.1</ele>
        <time>2022-07-10T12:08:28Z</time>
      </trkpt>
      <trkpt lat="49.83656" lon="2.561">
        <ele>101.1</ele>
        <time>2022-07-10T12:08:30Z</time>
      </trkpt>
      <trkpt lat="49.83656" lon="2.56099">
        <ele>101.1</ele>
        <time>2022-07-10T12:08:31Z</time>
      </trkpt>
      <trkpt lat="49.83655" lon="2.56098">
        <ele>101.1</ele>
        <time>2022-07-10T12:08:32Z</time>
      </trkpt>
      <trkpt lat="49.83655" lon="2.56097">
        <ele>101.1</ele>
        <time>2022-07-10T12:08:33Z</time>
      </trkpt>
      <trkpt lat="49.83655" lon="2.56097">
        <ele>101.1</ele>
        <time>2022-07-10T12:08:34Z</time>
      </trkpt>
      <trkpt lat="49.83655" lon="2.56097">
        <ele>101.1</ele>
        <time>2022-07-10T12:08:35Z</time>
      </trkpt>
      <trkpt lat="49.83655" lon="2.56097">
        <ele>101.1</ele>
        <time>2022-07-10T12:08:36Z</time>
      </trkpt>
      <trkpt lat="49.83655" lon="2.56097">
        <ele>101.1</ele>
        <time>2022-07-10T12:08:37Z</time>
      </trkpt>
      <trkpt lat="49.83655" lon="2.56097">
        <ele>101.1</ele>
        <time>2022-07-10T12:08:38Z</time>
      </trkpt>
      <trkpt lat="49.83655" lon="2.56097">
        <ele>101.1</ele>
        <time>2022-07-10T12:08:40Z</time>
      </trkpt>
      <trkpt lat="49.83655" lon="2.56097">
        <ele>101.1</ele>
        <time>2022-07-10T12:08:41Z</time>
      </trkpt>
      <trkpt lat="49.83655" lon="2.56097">
        <ele>101.1</ele>
        <time>2022-07-10T12:08:42Z</time>
      </trkpt>
      <trkpt lat="49.83655" lon="2.56097">
        <ele>101.1</ele>
        <time>2022-07-10T12:08:43Z</time>
      </trkpt>
      <trkpt lat="49.83655" lon="2.56097">
        <ele>101.1</ele>
        <time>2022-07-10T12:08:44Z</time>
      </trkpt>
      <trkpt lat="49.83655" lon="2.56097">
        <ele>101.1</ele>
        <time>2022-07-10T12:08:45Z</time>
      </trkpt>
      <trkpt lat="49.83655" lon="2.56097">
        <ele>101.1</ele>
        <time>2022-07-10T12:08:46Z</time>
      </trkpt>
      <trkpt lat="49.83655" lon="2.56097">
        <ele>101.1</ele>
        <time>2022-07-10T12:08:47Z</time>
      </trkpt>
      <trkpt lat="49.83655" lon="2.56098">
        <ele>101.1</ele>
        <time>2022-07-10T12:08:48Z</time>
      </trkpt>
      <trkpt lat="49.83655" lon="2.56098">
        <ele>101.1</ele>
        <time>2022-07-10T12:08:49Z</time>
      </trkpt>
      <trkpt lat="49.83655" lon="2.56098">
        <ele>101.1</ele>
        <time>2022-07-10T12:08:50Z</time>
      </trkpt>
      <trkpt lat="49.83655" lon="2.56099">
        <ele>101.1</ele>
        <time>2022-07-10T12:08:51Z</time>
      </trkpt>
      <trkpt lat="49.83655" lon="2.56102">
        <ele>101.2</ele>
        <time>2022-07-10T12:08:52Z</time>
      </trkpt>
      <trkpt lat="49.83655" lon="2.56103">
        <ele>101.2</ele>
        <time>2022-07-10T12:08:53Z</time>
      </trkpt>
      <trkpt lat="49.83655" lon="2.56104">
        <ele>101.2</ele>
        <time>2022-07-10T12:08:54Z</time>
      </trkpt>
      <trkpt lat="49.83656" lon="2.56105">
        <ele>101.2</ele>
        <time>2022-07-10T12:08:55Z</time>
      </trkpt>
      <trkpt lat="49.83656" lon="2.56106">
        <ele>101.2</ele>
        <time>2022-07-10T12:08:56Z</time>
      </trkpt>
      <trkpt lat="49.83656" lon="2.56104">
        <ele>101.2</ele>
        <time>2022-07-10T12:08:57Z</time>
      </trkpt>
      <trkpt lat="49.83656" lon="2.56103">
        <ele>101.2</ele>
        <time>2022-07-10T12:08:59Z</time>
      </trkpt>
      <trkpt lat="49.83656" lon="2.56104">
        <ele>101.2</ele>
        <time>2022-07-10T12:09:00Z</time>
      </trkpt>
      <trkpt lat="49.83656" lon="2.56104">
        <ele>101.2</ele>
        <time>2022-07-10T12:09:01Z</time>
      </trkpt>
      <trkpt lat="49.83656" lon="2.56104">
        <ele>101.2</ele>
        <time>2022-07-10T12:09:02Z</time>
      </trkpt>
      <trkpt lat="49.83656" lon="2.56105">
        <ele>101.2</ele>
        <time>2022-07-10T12:09:03Z</time>
      </trkpt>
      <trkpt lat="49.83656" lon="2.56105">
        <ele>101.2</ele>
        <time>2022-07-10T12:09:04Z</time>
      </trkpt>
      <trkpt lat="49.83656" lon="2.56105">
        <ele>101.2</ele>
        <time>2022-07-10T12:09:05Z</time>
      </trkpt>
      <trkpt lat="49.83656" lon="2.56106">
        <ele>101.2</ele>
        <time>2022-07-10T12:09:06Z</time>
      </trkpt>
      <trkpt lat="49.83656" lon="2.56106">
        <ele>101.2</ele>
        <time>2022-07-10T12:09:07Z</time>
      </trkpt>
      <trkpt lat="49.83656" lon="2.56106">
        <ele>101.2</ele>
        <time>2022-07-10T12:09:08Z</time>
      </trkpt>
      <trkpt lat="49.83656" lon="2.56106">
        <ele>101.2</ele>
        <time>2022-07-10T12:09:09Z</time>
      </trkpt>
      <trkpt lat="49.83656" lon="2.56107">
        <ele>101.2</ele>
        <time>2022-07-10T12:09:10Z</time>
      </trkpt>
      <trkpt lat="49.83656" lon="2.56107">
        <ele>101.2</ele>
        <time>2022-07-10T12:09:11Z</time>
      </trkpt>
      <trkpt lat="49.83656" lon="2.56108">
        <ele>101.2</ele>
        <time>2022-07-10T12:09:12Z</time>
      </trkpt>
      <trkpt lat="49.83656" lon="2.56109">
        <ele>101.2</ele>
        <time>2022-07-10T12:09:13Z</time>
      </trkpt>
      <trkpt lat="49.83656" lon="2.56109">
        <ele>101.2</ele>
        <time>2022-07-10T12:09:14Z</time>
      </trkpt>
      <trkpt lat="49.83657" lon="2.56109">
        <ele>101.2</ele>
        <time>2022-07-10T12:09:15Z</time>
      </trkpt>
      <trkpt lat="49.83657" lon="2.56109">
        <ele>101.2</ele>
        <time>2022-07-10T12:09:16Z</time>
      </trkpt>
      <trkpt lat="49.83656" lon="2.56109">
        <ele>101.2</ele>
        <time>2022-07-10T12:09:17Z</time>
      </trkpt>
      <trkpt lat="49.83656" lon="2.56109">
        <ele>101.2</ele>
        <time>2022-07-10T12:09:18Z</time>
      </trkpt>
      <trkpt lat="49.83656" lon="2.56109">
        <ele>101.2</ele>
        <time>2022-07-10T12:09:19Z</time>
      </trkpt>
      <trkpt lat="49.83657" lon="2.56108">
        <ele>101.2</ele>
        <time>2022-07-10T12:09:20Z</time>
      </trkpt>
      <trkpt lat="49.83657" lon="2.56108">
        <ele>101.2</ele>
        <time>2022-07-10T12:09:21Z</time>
      </trkpt>
      <trkpt lat="49.83657" lon="2.56108">
        <ele>101.2</ele>
        <time>2022-07-10T12:09:22Z</time>
      </trkpt>
      <trkpt lat="49.83657" lon="2.56108">
        <ele>101.2</ele>
        <time>2022-07-10T12:09:23Z</time>
      </trkpt>
      <trkpt lat="49.83657" lon="2.56108">
        <ele>101.2</ele>
        <time>2022-07-10T12:09:24Z</time>
      </trkpt>
      <trkpt lat="49.83657" lon="2.56108">
        <ele>101.2</ele>
        <time>2022-07-10T12:09:25Z</time>
      </trkpt>
      <trkpt lat="49.83657" lon="2.56108">
        <ele>101.2</ele>
        <time>2022-07-10T12:09:26Z</time>
      </trkpt>
      <trkpt lat="49.83657" lon="2.56108">
        <ele>101.2</ele>
        <time>2022-07-10T12:09:27Z</time>
      </trkpt>
      <trkpt lat="49.83657" lon="2.56108">
        <ele>101.2</ele>
        <time>2022-07-10T12:09:28Z</time>
      </trkpt>
      <trkpt lat="49.83657" lon="2.56109">
        <ele>101.2</ele>
        <time>2022-07-10T12:09:29Z</time>
      </trkpt>
      <trkpt lat="49.83657" lon="2.56109">
        <ele>101.2</ele>
        <time>2022-07-10T12:09:30Z</time>
      </trkpt>
      <trkpt lat="49.83658" lon="2.5611">
        <ele>101.2</ele>
        <time>2022-07-10T12:09:32Z</time>
      </trkpt>
      <trkpt lat="49.83658" lon="2.5611">
        <ele>101.2</ele>
        <time>2022-07-10T12:09:33Z</time>
      </trkpt>
      <trkpt lat="49.83659" lon="2.5611">
        <ele>101.2</ele>
        <time>2022-07-10T12:09:34Z</time>
      </trkpt>
      <trkpt lat="49.83659" lon="2.5611">
        <ele>101.3</ele>
        <time>2022-07-10T12:09:35Z</time>
      </trkpt>
      <trkpt lat="49.83659" lon="2.5611">
        <ele>101.3</ele>
        <time>2022-07-10T12:09:36Z</time>
      </trkpt>
      <trkpt lat="49.83659" lon="2.56109">
        <ele>101.3</ele>
        <time>2022-07-10T12:09:37Z</time>
      </trkpt>
      <trkpt lat="49.83659" lon="2.56109">
        <ele>101.3</ele>
        <time>2022-07-10T12:09:38Z</time>
      </trkpt>
      <trkpt lat="49.83659" lon="2.56109">
        <ele>101.3</ele>
        <time>2022-07-10T12:09:39Z</time>
      </trkpt>
      <trkpt lat="49.83659" lon="2.56109">
        <ele>101.3</ele>
        <time>2022-07-10T12:09:40Z</time>
      </trkpt>
      <trkpt lat="49.83659" lon="2.56109">
        <ele>101.3</ele>
        <time>2022-07-10T12:09:41Z</time>
      </trkpt>
      <trkpt lat="49.83659" lon="2.56109">
        <ele>101.3</ele>
        <time>2022-07-10T12:09:42Z</time>
      </trkpt>
      <trkpt lat="49.83659" lon="2.56109">
        <ele>101.3</ele>
        <time>2022-07-10T12:09:43Z</time>
      </trkpt>
      <trkpt lat="49.83659" lon="2.56109">
        <ele>101.3</ele>
        <time>2022-07-10T12:09:45Z</time>
      </trkpt>
      <trkpt lat="49.83659" lon="2.56109">
        <ele>101.3</ele>
        <time>2022-07-10T12:09:46Z</time>
      </trkpt>
      <trkpt lat="49.83659" lon="2.5611">
        <ele>101.3</ele>
        <time>2022-07-10T12:09:47Z</time>
      </trkpt>
      <trkpt lat="49.83659" lon="2.5611">
        <ele>101.3</ele>
        <time>2022-07-10T12:09:48Z</time>
      </trkpt>
      <trkpt lat="49.83659" lon="2.56111">
        <ele>101.3</ele>
        <time>2022-07-10T12:09:49Z</time>
      </trkpt>
      <trkpt lat="49.8366" lon="2.56112">
        <ele>101.3</ele>
        <time>2022-07-10T12:09:50Z</time>
      </trkpt>
      <trkpt lat="49.83661" lon="2.56112">
        <ele>101.3</ele>
        <time>2022-07-10T12:09:51Z</time>
      </trkpt>
      <trkpt lat="49.83661" lon="2.56112">
        <ele>101.3</ele>
        <time>2022-07-10T12:09:52Z</time>
      </trkpt>
      <trkpt lat="49.83662" lon="2.56112">
        <ele>101.3</ele>
        <time>2022-07-10T12:09:53Z</time>
      </trkpt>
      <trkpt lat="49.83662" lon="2.56112">
        <ele>101.3</ele>
        <time>2022-07-10T12:09:54Z</time>
      </trkpt>
      <trkpt lat="49.83662" lon="2.56112">
        <ele>101.3</ele>
        <time>2022-07-10T12:09:55Z</time>
      </trkpt>
      <trkpt lat="49.83662" lon="2.56112">
        <ele>101.3</ele>
        <time>2022-07-10T12:09:56Z</time>
      </trkpt>
      <trkpt lat="49.83661" lon="2.56112">
        <ele>101.3</ele>
        <time>2022-07-10T12:09:58Z</time>
      </trkpt>
      <trkpt lat="49.83661" lon="2.56112">
        <ele>101.3</ele>
        <time>2022-07-10T12:09:59Z</time>
      </trkpt>
      <trkpt lat="49.83661" lon="2.56112">
        <ele>101.3</ele>
        <time>2022-07-10T12:10:00Z</time>
      </trkpt>
      <trkpt lat="49.83661" lon="2.56112">
        <ele>101.3</ele>
        <time>2022-07-10T12:10:01Z</time>
      </trkpt>
      <trkpt lat="49.83661" lon="2.56112">
        <ele>101.3</ele>
        <time>2022-07-10T12:10:02Z</time>
      </trkpt>
      <trkpt lat="49.83661" lon="2.56112">
        <ele>101.3</ele>
        <time>2022-07-10T12:10:03Z</time>
      </trkpt>
      <trkpt lat="49.83661" lon="2.56112">
        <ele>101.3</ele>
        <time>2022-07-10T12:10:04Z</time>
      </trkpt>
      <trkpt lat="49.83661" lon="2.56112">
        <ele>101.3</ele>
        <time>2022-07-10T12:10:05Z</time>
      </trkpt>
      <trkpt lat="49.83662" lon="2.56113">
        <ele>101.3</ele>
        <time>2022-07-10T12:10:06Z</time>
      </trkpt>
      <trkpt lat="49.83662" lon="2.56113">
        <ele>101.3</ele>
        <time>2022-07-10T12:10:07Z</time>
      </trkpt>
      <trkpt lat="49.83662" lon="2.56114">
        <ele>101.3</ele>
        <time>2022-07-10T12:10:08Z</time>
      </trkpt>
      <trkpt lat="49.83662" lon="2.56114">
        <ele>101.3</ele>
        <time>2022-07-10T12:10:09Z</time>
      </trkpt>
      <trkpt lat="49.83662" lon="2.56115">
        <ele>101.3</ele>
        <time>2022-07-10T12:10:10Z</time>
      </trkpt>
      <trkpt lat="49.83662" lon="2.56116">
        <ele>101.4</ele>
        <time>2022-07-10T12:10:12Z</time>
      </trkpt>
      <trkpt lat="49.83662" lon="2.56116">
        <ele>101.4</ele>
        <time>2022-07-10T12:10:13Z</time>
      </trkpt>
      <trkpt lat="49.83664" lon="2.56116">
        <ele>101.4</ele>
        <time>2022-07-10T12:10:15Z</time>
      </trkpt>
      <trkpt lat="49.83664" lon="2.56116">
        <ele>101.4</ele>
        <time>2022-07-10T12:10:16Z</time>
      </trkpt>
      <trkpt lat="49.83664" lon="2.56115">
        <ele>101.4</ele>
        <time>2022-07-10T12:10:17Z</time>
      </trkpt>
      <trkpt lat="49.83664" lon="2.56115">
        <ele>101.4</ele>
        <time>2022-07-10T12:10:18Z</time>
      </trkpt>
      <trkpt lat="49.83664" lon="2.56115">
        <ele>101.4</ele>
        <time>2022-07-10T12:10:19Z</time>
      </trkpt>
      <trkpt lat="49.83664" lon="2.56115">
        <ele>101.4</ele>
        <time>2022-07-10T12:10:20Z</time>
      </trkpt>
      <trkpt lat="49.83664" lon="2.56115">
        <ele>101.4</ele>
        <time>2022-07-10T12:10:21Z</time>
      </trkpt>
      <trkpt lat="49.83664" lon="2.56115">
        <ele>101.4</ele>
        <time>2022-07-10T12:10:22Z</time>
      </trkpt>
      <trkpt lat="49.83664" lon="2.56115">
        <ele>101.4</ele>
        <time>2022-07-10T12:10:23Z</time>
      </trkpt>
      <trkpt lat="49.83664" lon="2.56115">
        <ele>101.4</ele>
        <time>2022-07-10T12:10:24Z</time>
      </trkpt>
      <trkpt lat="49.83663" lon="2.56116">
        <ele>101.4</ele>
        <time>2022-07-10T12:10:25Z</time>
      </trkpt>
      <trkpt lat="49.83663" lon="2.56116">
        <ele>101.4</ele>
        <time>2022-07-10T12:10:26Z</time>
      </trkpt>
      <trkpt lat="49.83663" lon="2.56116">
        <ele>101.4</ele>
        <time>2022-07-10T12:10:28Z</time>
      </trkpt>
      <trkpt lat="49.83664" lon="2.56117">
        <ele>101.4</ele>
        <time>2022-07-10T12:10:29Z</time>
      </trkpt>
      <trkpt lat="49.83664" lon="2.56118">
        <ele>101.4</ele>
        <time>2022-07-10T12:10:30Z</time>
      </trkpt>
      <trkpt lat="49.83664" lon="2.56118">
        <ele>101.4</ele>
        <time>2022-07-10T12:10:32Z</time>
      </trkpt>
      <trkpt lat="49.83665" lon="2.56119">
        <ele>101.4</ele>
        <time>2022-07-10T12:10:33Z</time>
      </trkpt>
      <trkpt lat="49.83666" lon="2.5612">
        <ele>101.4</ele>
        <time>2022-07-10T12:10:34Z</time>
      </trkpt>
      <trkpt lat="49.83667" lon="2.56121">
        <ele>101.4</ele>
        <time>2022-07-10T12:10:36Z</time>
      </trkpt>
      <trkpt lat="49.83667" lon="2.56121">
        <ele>101.4</ele>
        <time>2022-07-10T12:10:38Z</time>
      </trkpt>
      <trkpt lat="49.83668" lon="2.56122">
        <ele>101.5</ele>
        <time>2022-07-10T12:10:39Z</time>
      </trkpt>
      <trkpt lat="49.83669" lon="2.56122">
        <ele>101.5</ele>
        <time>2022-07-10T12:10:40Z</time>
      </trkpt>
      <trkpt lat="49.8367" lon="2.56122">
        <ele>101.5</ele>
        <time>2022-07-10T12:10:41Z</time>
      </trkpt>
      <trkpt lat="49.83671" lon="2.56122">
        <ele>101.5</ele>
        <time>2022-07-10T12:10:43Z</time>
      </trkpt>
      <trkpt lat="49.83672" lon="2.56123">
        <ele>101.5</ele>
        <time>2022-07-10T12:10:44Z</time>
      </trkpt>
      <trkpt lat="49.83672" lon="2.56123">
        <ele>101.5</ele>
        <time>2022-07-10T12:10:45Z</time>
      </trkpt>
      <trkpt lat="49.83673" lon="2.56124">
        <ele>101.5</ele>
        <time>2022-07-10T12:10:47Z</time>
      </trkpt>
      <trkpt lat="49.83674" lon="2.56125">
        <ele>101.5</ele>
        <time>2022-07-10T12:10:48Z</time>
      </trkpt>
      <trkpt lat="49.83676" lon="2.56126">
        <ele>101.5</ele>
        <time>2022-07-10T12:10:49Z</time>
      </trkpt>
      <trkpt lat="49.83677" lon="2.56127">
        <ele>101.6</ele>
        <time>2022-07-10T12:10:50Z</time>
      </trkpt>
      <trkpt lat="49.83677" lon="2.56127">
        <ele>101.6</ele>
        <time>2022-07-10T12:10:51Z</time>
      </trkpt>
      <trkpt lat="49.83678" lon="2.56128">
        <ele>101.6</ele>
        <time>2022-07-10T12:10:52Z</time>
      </trkpt>
      <trkpt lat="49.8368" lon="2.5613">
        <ele>101.6</ele>
        <time>2022-07-10T12:10:53Z</time>
      </trkpt>
      <trkpt lat="49.83681" lon="2.56131">
        <ele>101.6</ele>
        <time>2022-07-10T12:10:54Z</time>
      </trkpt>
      <trkpt lat="49.83683" lon="2.56132">
        <ele>101.6</ele>
        <time>2022-07-10T12:10:55Z</time>
      </trkpt>
      <trkpt lat="49.83684" lon="2.56133">
        <ele>101.6</ele>
        <time>2022-07-10T12:10:56Z</time>
      </trkpt>
      <trkpt lat="49.83685" lon="2.56135">
        <ele>101.7</ele>
        <time>2022-07-10T12:10:58Z</time>
      </trkpt>
      <trkpt lat="49.83686" lon="2.56136">
        <ele>101.7</ele>
        <time>2022-07-10T12:10:59Z</time>
      </trkpt>
      <trkpt lat="49.83687" lon="2.56137">
        <ele>101.7</ele>
        <time>2022-07-10T12:11:00Z</time>
      </trkpt>
      <trkpt lat="49.83689" lon="2.56139">
        <ele>101.7</ele>
        <time>2022-07-10T12:11:01Z</time>
      </trkpt>
      <trkpt lat="49.8369" lon="2.56139">
        <ele>101.7</ele>
        <time>2022-07-10T12:11:02Z</time>
      </trkpt>
      <trkpt lat="49.83691" lon="2.5614">
        <ele>101.7</ele>
        <time>2022-07-10T12:11:03Z</time>
      </trkpt>
      <trkpt lat="49.83692" lon="2.56141">
        <ele>101.8</ele>
        <time>2022-07-10T12:11:04Z</time>
      </trkpt>
      <trkpt lat="49.83694" lon="2.56142">
        <ele>101.8</ele>
        <time>2022-07-10T12:11:05Z</time>
      </trkpt>
      <trkpt lat="49.83694" lon="2.56143">
        <ele>101.8</ele>
        <time>2022-07-10T12:11:07Z</time>
      </trkpt>
      <trkpt lat="49.83695" lon="2.56144">
        <ele>101.8</ele>
        <time>2022-07-10T12:11:08Z</time>
      </trkpt>
      <trkpt lat="49.83696" lon="2.56145">
        <ele>101.8</ele>
        <time>2022-07-10T12:11:09Z</time>
      </trkpt>
      <trkpt lat="49.83697" lon="2.56146">
        <ele>101.8</ele>
        <time>2022-07-10T12:11:10Z</time>
      </trkpt>
      <trkpt lat="49.83698" lon="2.56147">
        <ele>101.8</ele>
        <time>2022-07-10T12:11:11Z</time>
      </trkpt>
      <trkpt lat="49.837" lon="2.56149">
        <ele>101.9</ele>
        <time>2022-07-10T12:11:12Z</time>
      </trkpt>
      <trkpt lat="49.83701" lon="2.5615">
        <ele>101.9</ele>
        <time>2022-07-10T12:11:13Z</time>
      </trkpt>
      <trkpt lat="49.83702" lon="2.56151">
        <ele>101.9</ele>
        <time>2022-07-10T12:11:15Z</time>
      </trkpt>
      <trkpt lat="49.83703" lon="2.56152">
        <ele>101.9</ele>
        <time>2022-07-10T12:11:16Z</time>
      </trkpt>
      <trkpt lat="49.83704" lon="2.56153">
        <ele>101.9</ele>
        <time>2022-07-10T12:11:17Z</time>
      </trkpt>
      <trkpt lat="49.83705" lon="2.56154">
        <ele>101.9</ele>
        <time>2022-07-10T12:11:19Z</time>
      </trkpt>
      <trkpt lat="49.83707" lon="2.56156">
        <ele>101.9</ele>
        <time>2022-07-10T12:11:20Z</time>
      </trkpt>
      <trkpt lat="49.83708" lon="2.56157">
        <ele>101.9</ele>
        <time>2022-07-10T12:11:21Z</time>
      </trkpt>
      <trkpt lat="49.83709" lon="2.56158">
        <ele>101.9</ele>
        <time>2022-07-10T12:11:22Z</time>
      </trkpt>
      <trkpt lat="49.8371" lon="2.56159">
        <ele>101.9</ele>
        <time>2022-07-10T12:11:24Z</time>
      </trkpt>
      <trkpt lat="49.83711" lon="2.56159">
        <ele>102</ele>
        <time>2022-07-10T12:11:25Z</time>
      </trkpt>
      <trkpt lat="49.83712" lon="2.56161">
        <ele>102</ele>
        <time>2022-07-10T12:11:26Z</time>
      </trkpt>
      <trkpt lat="49.83713" lon="2.56162">
        <ele>102</ele>
        <time>2022-07-10T12:11:27Z</time>
      </trkpt>
      <trkpt lat="49.83714" lon="2.56163">
        <ele>102</ele>
        <time>2022-07-10T12:11:28Z</time>
      </trkpt>
      <trkpt lat="49.83715" lon="2.56163">
        <ele>102</ele>
        <time>2022-07-10T12:11:29Z</time>
      </trkpt>
      <trkpt lat="49.83716" lon="2.56164">
        <ele>102</ele>
        <time>2022-07-10T12:11:30Z</time>
      </trkpt>
      <trkpt lat="49.83717" lon="2.56166">
        <ele>102</ele>
        <time>2022-07-10T12:11:32Z</time>
      </trkpt>
      <trkpt lat="49.83719" lon="2.56167">
        <ele>102</ele>
        <time>2022-07-10T12:11:33Z</time>
      </trkpt>
      <trkpt lat="49.8372" lon="2.56167">
        <ele>102</ele>
        <time>2022-07-10T12:11:34Z</time>
      </trkpt>
      <trkpt lat="49.83721" lon="2.56168">
        <ele>102</ele>
        <time>2022-07-10T12:11:35Z</time>
      </trkpt>
      <trkpt lat="49.83722" lon="2.56169">
        <ele>102</ele>
        <time>2022-07-10T12:11:36Z</time>
      </trkpt>
      <trkpt lat="49.83723" lon="2.5617">
        <ele>102.1</ele>
        <time>2022-07-10T12:11:37Z</time>
      </trkpt>
      <trkpt lat="49.83724" lon="2.5617">
        <ele>102.1</ele>
        <time>2022-07-10T12:11:38Z</time>
      </trkpt>
      <trkpt lat="49.83726" lon="2.56172">
        <ele>102.1</ele>
        <time>2022-07-10T12:11:39Z</time>
      </trkpt>
      <trkpt lat="49.83727" lon="2.56173">
        <ele>102.1</ele>
        <time>2022-07-10T12:11:41Z</time>
      </trkpt>
      <trkpt lat="49.83728" lon="2.56174">
        <ele>102.1</ele>
        <time>2022-07-10T12:11:42Z</time>
      </trkpt>
      <trkpt lat="49.8373" lon="2.56175">
        <ele>102.1</ele>
        <time>2022-07-10T12:11:43Z</time>
      </trkpt>
      <trkpt lat="49.83731" lon="2.56176">
        <ele>102.1</ele>
        <time>2022-07-10T12:11:44Z</time>
      </trkpt>
      <trkpt lat="49.83732" lon="2.56177">
        <ele>102.1</ele>
        <time>2022-07-10T12:11:45Z</time>
      </trkpt>
      <trkpt lat="49.83734" lon="2.56178">
        <ele>102.1</ele>
        <time>2022-07-10T12:11:46Z</time>
      </trkpt>
      <trkpt lat="49.83735" lon="2.56178">
        <ele>102.1</ele>
        <time>2022-07-10T12:11:47Z</time>
      </trkpt>
      <trkpt lat="49.83737" lon="2.5618">
        <ele>102.1</ele>
        <time>2022-07-10T12:11:48Z</time>
      </trkpt>
      <trkpt lat="49.83738" lon="2.56181">
        <ele>102.2</ele>
        <time>2022-07-10T12:11:49Z</time>
      </trkpt>
      <trkpt lat="49.83738" lon="2.56182">
        <ele>102.2</ele>
        <time>2022-07-10T12:11:51Z</time>
      </trkpt>
      <trkpt lat="49.83739" lon="2.56182">
        <ele>102.2</ele>
        <time>2022-07-10T12:11:52Z</time>
      </trkpt>
      <trkpt lat="49.8374" lon="2.56183">
        <ele>102.2</ele>
        <time>2022-07-10T12:11:53Z</time>
      </trkpt>
      <trkpt lat="49.83741" lon="2.56184">
        <ele>102.2</ele>
        <time>2022-07-10T12:11:54Z</time>
      </trkpt>
      <trkpt lat="49.83742" lon="2.56185">
        <ele>102.2</ele>
        <time>2022-07-10T12:11:55Z</time>
      </trkpt>
      <trkpt lat="49.83744" lon="2.56186">
        <ele>102.2</ele>
        <time>2022-07-10T12:11:56Z</time>
      </trkpt>
      <trkpt lat="49.83744" lon="2.56187">
        <ele>102.2</ele>
        <time>2022-07-10T12:11:58Z</time>
      </trkpt>
      <trkpt lat="49.83745" lon="2.56188">
        <ele>102.2</ele>
        <time>2022-07-10T12:11:59Z</time>
      </trkpt>
      <trkpt lat="49.83746" lon="2.56189">
        <ele>102.2</ele>
        <time>2022-07-10T12:12:00Z</time>
      </trkpt>
      <trkpt lat="49.83748" lon="2.5619">
        <ele>102.2</ele>
        <time>2022-07-10T12:12:01Z</time>
      </trkpt>
      <trkpt lat="49.83748" lon="2.56191">
        <ele>102.2</ele>
        <time>2022-07-10T12:12:02Z</time>
      </trkpt>
      <trkpt lat="49.83749" lon="2.56191">
        <ele>102.2</ele>
        <time>2022-07-10T12:12:03Z</time>
      </trkpt>
      <trkpt lat="49.8375" lon="2.56192">
        <ele>102.2</ele>
        <time>2022-07-10T12:12:04Z</time>
      </trkpt>
      <trkpt lat="49.83751" lon="2.56193">
        <ele>102.2</ele>
        <time>2022-07-10T12:12:05Z</time>
      </trkpt>
      <trkpt lat="49.83753" lon="2.56194">
        <ele>102.2</ele>
        <time>2022-07-10T12:12:07Z</time>
      </trkpt>
      <trkpt lat="49.83753" lon="2.56194">
        <ele>102.2</ele>
        <time>2022-07-10T12:12:08Z</time>
      </trkpt>
      <trkpt lat="49.83754" lon="2.56195">
        <ele>102.2</ele>
        <time>2022-07-10T12:12:09Z</time>
      </trkpt>
      <trkpt lat="49.83756" lon="2.56197">
        <ele>102.2</ele>
        <time>2022-07-10T12:12:10Z</time>
      </trkpt>
      <trkpt lat="49.83757" lon="2.56198">
        <ele>102.2</ele>
        <time>2022-07-10T12:12:12Z</time>
      </trkpt>
      <trkpt lat="49.83758" lon="2.56199">
        <ele>102.2</ele>
        <time>2022-07-10T12:12:13Z</time>
      </trkpt>
      <trkpt lat="49.83759" lon="2.562">
        <ele>102.2</ele>
        <time>2022-07-10T12:12:14Z</time>
      </trkpt>
      <trkpt lat="49.8376" lon="2.56201">
        <ele>102.2</ele>
        <time>2022-07-10T12:12:15Z</time>
      </trkpt>
      <trkpt lat="49.83761" lon="2.56202">
        <ele>102.2</ele>
        <time>2022-07-10T12:12:16Z</time>
      </trkpt>
      <trkpt lat="49.83762" lon="2.56203">
        <ele>102.2</ele>
        <time>2022-07-10T12:12:18Z</time>
      </trkpt>
      <trkpt lat="49.83762" lon="2.56204">
        <ele>102.2</ele>
        <time>2022-07-10T12:12:19Z</time>
      </trkpt>
      <trkpt lat="49.83763" lon="2.56206">
        <ele>102.2</ele>
        <time>2022-07-10T12:12:20Z</time>
      </trkpt>
      <trkpt lat="49.83764" lon="2.56207">
        <ele>102.2</ele>
        <time>2022-07-10T12:12:21Z</time>
      </trkpt>
      <trkpt lat="49.83766" lon="2.56208">
        <ele>102.2</ele>
        <time>2022-07-10T12:12:22Z</time>
      </trkpt>
      <trkpt lat="49.83766" lon="2.56209">
        <ele>102.2</ele>
        <time>2022-07-10T12:12:23Z</time>
      </trkpt>
      <trkpt lat="49.83767" lon="2.5621">
        <ele>102.2</ele>
        <time>2022-07-10T12:12:24Z</time>
      </trkpt>
      <trkpt lat="49.83768" lon="2.56211">
        <ele>102.2</ele>
        <time>2022-07-10T12:12:25Z</time>
      </trkpt>
      <trkpt lat="49.83771" lon="2.56213">
        <ele>102.2</ele>
        <time>2022-07-10T12:12:26Z</time>
      </trkpt>
      <trkpt lat="49.83772" lon="2.56214">
        <ele>102.2</ele>
        <time>2022-07-10T12:12:28Z</time>
      </trkpt>
      <trkpt lat="49.83772" lon="2.56215">
        <ele>102.2</ele>
        <time>2022-07-10T12:12:29Z</time>
      </trkpt>
      <trkpt lat="49.83773" lon="2.56215">
        <ele>102.2</ele>
        <time>2022-07-10T12:12:30Z</time>
      </trkpt>
      <trkpt lat="49.83774" lon="2.56216">
        <ele>102.2</ele>
        <time>2022-07-10T12:12:31Z</time>
      </trkpt>
      <trkpt lat="49.83776" lon="2.56217">
        <ele>102.2</ele>
        <time>2022-07-10T12:12:32Z</time>
      </trkpt>
      <trkpt lat="49.83777" lon="2.56218">
        <ele>102.2</ele>
        <time>2022-07-10T12:12:33Z</time>
      </trkpt>
      <trkpt lat="49.83778" lon="2.56218">
        <ele>102.2</ele>
        <time>2022-07-10T12:12:34Z</time>
      </trkpt>
      <trkpt lat="49.83779" lon="2.56219">
        <ele>102.2</ele>
        <time>2022-07-10T12:12:35Z</time>
      </trkpt>
      <trkpt lat="49.8378" lon="2.5622">
        <ele>102.2</ele>
        <time>2022-07-10T12:12:37Z</time>
      </trkpt>
      <trkpt lat="49.83781" lon="2.56221">
        <ele>102.2</ele>
        <time>2022-07-10T12:12:38Z</time>
      </trkpt>
      <trkpt lat="49.83782" lon="2.56222">
        <ele>102.2</ele>
        <time>2022-07-10T12:12:39Z</time>
      </trkpt>
      <trkpt lat="49.83783" lon="2.56223">
        <ele>102.2</ele>
        <time>2022-07-10T12:12:40Z</time>
      </trkpt>
      <trkpt lat="49.83784" lon="2.56224">
        <ele>102.2</ele>
        <time>2022-07-10T12:12:41Z</time>
      </trkpt>
      <trkpt lat="49.83785" lon="2.56225">
        <ele>102.2</ele>
        <time>2022-07-10T12:12:42Z</time>
      </trkpt>
      <trkpt lat="49.83786" lon="2.56226">
        <ele>102.2</ele>
        <time>2022-07-10T12:12:43Z</time>
      </trkpt>
      <trkpt lat="49.83787" lon="2.56227">
        <ele>102.2</ele>
        <time>2022-07-10T12:12:44Z</time>
      </trkpt>
      <trkpt lat="49.83788" lon="2.56228">
        <ele>102.2</ele>
        <time>2022-07-10T12:12:45Z</time>
      </trkpt>
      <trkpt lat="49.83789" lon="2.56229">
        <ele>102.2</ele>
        <time>2022-07-10T12:12:47Z</time>
      </trkpt>
      <trkpt lat="49.8379" lon="2.5623">
        <ele>102.2</ele>
        <time>2022-07-10T12:12:48Z</time>
      </trkpt>
      <trkpt lat="49.83792" lon="2.56231">
        <ele>102.2</ele>
        <time>2022-07-10T12:12:49Z</time>
      </trkpt>
      <trkpt lat="49.83793" lon="2.56232">
        <ele>102.2</ele>
        <time>2022-07-10T12:12:50Z</time>
      </trkpt>
      <trkpt lat="49.83794" lon="2.56232">
        <ele>102.2</ele>
        <time>2022-07-10T12:12:51Z</time>
      </trkpt>
      <trkpt lat="49.83796" lon="2.56234">
        <ele>102.2</ele>
        <time>2022-07-10T12:12:52Z</time>
      </trkpt>
      <trkpt lat="49.83796" lon="2.56235">
        <ele>102.2</ele>
        <time>2022-07-10T12:12:53Z</time>
      </trkpt>
      <trkpt lat="49.83797" lon="2.56235">
        <ele>102.2</ele>
        <time>2022-07-10T12:12:54Z</time>
      </trkpt>
      <trkpt lat="49.83798" lon="2.56236">
        <ele>102.2</ele>
        <time>2022-07-10T12:12:55Z</time>
      </trkpt>
      <trkpt lat="49.83799" lon="2.56238">
        <ele>102.2</ele>
        <time>2022-07-10T12:12:57Z</time>
      </trkpt>
      <trkpt lat="49.838" lon="2.56238">
        <ele>102.2</ele>
        <time>2022-07-10T12:12:58Z</time>
      </trkpt>
      <trkpt lat="49.83801" lon="2.56239">
        <ele>102.2</ele>
        <time>2022-07-10T12:12:59Z</time>
      </trkpt>
      <trkpt lat="49.83802" lon="2.5624">
        <ele>102.2</ele>
        <time>2022-07-10T12:13:01Z</time>
      </trkpt>
      <trkpt lat="49.83803" lon="2.56241">
        <ele>102.2</ele>
        <time>2022-07-10T12:13:02Z</time>
      </trkpt>
      <trkpt lat="49.83803" lon="2.56242">
        <ele>102.2</ele>
        <time>2022-07-10T12:13:03Z</time>
      </trkpt>
      <trkpt lat="49.83804" lon="2.56243">
        <ele>102.2</ele>
        <time>2022-07-10T12:13:04Z</time>
      </trkpt>
      <trkpt lat="49.83805" lon="2.56244">
        <ele>102.2</ele>
        <time>2022-07-10T12:13:05Z</time>
      </trkpt>
      <trkpt lat="49.83807" lon="2.56245">
        <ele>102.2</ele>
        <time>2022-07-10T12:13:07Z</time>
      </trkpt>
      <trkpt lat="49.83808" lon="2.56246">
        <ele>102.2</ele>
        <time>2022-07-10T12:13:08Z</time>
      </trkpt>
      <trkpt lat="49.83809" lon="2.56247">
        <ele>102.1</ele>
        <time>2022-07-10T12:13:09Z</time>
      </trkpt>
      <trkpt lat="49.8381" lon="2.56247">
        <ele>102.1</ele>
        <time>2022-07-10T12:13:10Z</time>
      </trkpt>
      <trkpt lat="49.83812" lon="2.56249">
        <ele>102.1</ele>
        <time>2022-07-10T12:13:11Z</time>
      </trkpt>
      <trkpt lat="49.83813" lon="2.5625">
        <ele>102.1</ele>
        <time>2022-07-10T12:13:12Z</time>
      </trkpt>
      <trkpt lat="49.83813" lon="2.56251">
        <ele>102.1</ele>
        <time>2022-07-10T12:13:13Z</time>
      </trkpt>
      <trkpt lat="49.83815" lon="2.56253">
        <ele>102.1</ele>
        <time>2022-07-10T12:13:14Z</time>
      </trkpt>
      <trkpt lat="49.83815" lon="2.56253">
        <ele>102.1</ele>
        <time>2022-07-10T12:13:16Z</time>
      </trkpt>
      <trkpt lat="49.83816" lon="2.56254">
        <ele>102.1</ele>
        <time>2022-07-10T12:13:17Z</time>
      </trkpt>
      <trkpt lat="49.83817" lon="2.56255">
        <ele>102.1</ele>
        <time>2022-07-10T12:13:18Z</time>
      </trkpt>
      <trkpt lat="49.83818" lon="2.56256">
        <ele>102.1</ele>
        <time>2022-07-10T12:13:19Z</time>
      </trkpt>
      <trkpt lat="49.83818" lon="2.56257">
        <ele>102.1</ele>
        <time>2022-07-10T12:13:20Z</time>
      </trkpt>
      <trkpt lat="49.83819" lon="2.56258">
        <ele>102.1</ele>
        <time>2022-07-10T12:13:21Z</time>
      </trkpt>
      <trkpt lat="49.8382" lon="2.56259">
        <ele>102.1</ele>
        <time>2022-07-10T12:13:23Z</time>
      </trkpt>
      <trkpt lat="49.83821" lon="2.5626">
        <ele>102</ele>
        <time>2022-07-10T12:13:24Z</time>
      </trkpt>
      <trkpt lat="49.83823" lon="2.56262">
        <ele>102</ele>
        <time>2022-07-10T12:13:25Z</time>
      </trkpt>
      <trkpt lat="49.83824" lon="2.56264">
        <ele>102</ele>
        <time>2022-07-10T12:13:27Z</time>
      </trkpt>
      <trkpt lat="49.83825" lon="2.56265">
        <ele>102</ele>
        <time>2022-07-10T12:13:28Z</time>
      </trkpt>
      <trkpt lat="49.83826" lon="2.56266">
        <ele>102</ele>
        <time>2022-07-10T12:13:29Z</time>
      </trkpt>
      <trkpt lat="49.83827" lon="2.56266">
        <ele>102</ele>
        <time>2022-07-10T12:13:30Z</time>
      </trkpt>
      <trkpt lat="49.83827" lon="2.56267">
        <ele>102</ele>
        <time>2022-07-10T12:13:31Z</time>
      </trkpt>
      <trkpt lat="49.8383" lon="2.5627">
        <ele>102</ele>
        <time>2022-07-10T12:13:32Z</time>
      </trkpt>
      <trkpt lat="49.83831" lon="2.56271">
        <ele>102</ele>
        <time>2022-07-10T12:13:34Z</time>
      </trkpt>
      <trkpt lat="49.83832" lon="2.56272">
        <ele>102</ele>
        <time>2022-07-10T12:13:35Z</time>
      </trkpt>
      <trkpt lat="49.83833" lon="2.56273">
        <ele>102</ele>
        <time>2022-07-10T12:13:37Z</time>
      </trkpt>
      <trkpt lat="49.83833" lon="2.56274">
        <ele>102</ele>
        <time>2022-07-10T12:13:38Z</time>
      </trkpt>
      <trkpt lat="49.83834" lon="2.56275">
        <ele>102</ele>
        <time>2022-07-10T12:13:39Z</time>
      </trkpt>
      <trkpt lat="49.83835" lon="2.56276">
        <ele>102</ele>
        <time>2022-07-10T12:13:40Z</time>
      </trkpt>
      <trkpt lat="49.83836" lon="2.56277">
        <ele>102</ele>
        <time>2022-07-10T12:13:41Z</time>
      </trkpt>
      <trkpt lat="49.83838" lon="2.56279">
        <ele>101.9</ele>
        <time>2022-07-10T12:13:42Z</time>
      </trkpt>
      <trkpt lat="49.83839" lon="2.5628">
        <ele>101.9</ele>
        <time>2022-07-10T12:13:44Z</time>
      </trkpt>
      <trkpt lat="49.8384" lon="2.5628">
        <ele>101.9</ele>
        <time>2022-07-10T12:13:45Z</time>
      </trkpt>
      <trkpt lat="49.83841" lon="2.56281">
        <ele>101.9</ele>
        <time>2022-07-10T12:13:46Z</time>
      </trkpt>
      <trkpt lat="49.83842" lon="2.56282">
        <ele>101.9</ele>
        <time>2022-07-10T12:13:47Z</time>
      </trkpt>
      <trkpt lat="49.83844" lon="2.56284">
        <ele>101.9</ele>
        <time>2022-07-10T12:13:48Z</time>
      </trkpt>
      <trkpt lat="49.83844" lon="2.56285">
        <ele>101.9</ele>
        <time>2022-07-10T12:13:49Z</time>
      </trkpt>
      <trkpt lat="49.83845" lon="2.56286">
        <ele>101.9</ele>
        <time>2022-07-10T12:13:50Z</time>
      </trkpt>
      <trkpt lat="49.83846" lon="2.56287">
        <ele>101.9</ele>
        <time>2022-07-10T12:13:52Z</time>
      </trkpt>
      <trkpt lat="49.83847" lon="2.56288">
        <ele>101.8</ele>
        <time>2022-07-10T12:13:53Z</time>
      </trkpt>
      <trkpt lat="49.83848" lon="2.56289">
        <ele>101.8</ele>
        <time>2022-07-10T12:13:54Z</time>
      </trkpt>
      <trkpt lat="49.83849" lon="2.5629">
        <ele>101.8</ele>
        <time>2022-07-10T12:13:55Z</time>
      </trkpt>
      <trkpt lat="49.8385" lon="2.56291">
        <ele>101.8</ele>
        <time>2022-07-10T12:13:56Z</time>
      </trkpt>
      <trkpt lat="49.83852" lon="2.56293">
        <ele>101.8</ele>
        <time>2022-07-10T12:13:57Z</time>
      </trkpt>
      <trkpt lat="49.83853" lon="2.56294">
        <ele>101.8</ele>
        <time>2022-07-10T12:13:58Z</time>
      </trkpt>
      <trkpt lat="49.83853" lon="2.56295">
        <ele>101.8</ele>
        <time>2022-07-10T12:13:59Z</time>
      </trkpt>
      <trkpt lat="49.83855" lon="2.56297">
        <ele>101.7</ele>
        <time>2022-07-10T12:14:00Z</time>
      </trkpt>
      <trkpt lat="49.83856" lon="2.56298">
        <ele>101.7</ele>
        <time>2022-07-10T12:14:01Z</time>
      </trkpt>
      <trkpt lat="49.83857" lon="2.563">
        <ele>101.7</ele>
        <time>2022-07-10T12:14:03Z</time>
      </trkpt>
      <trkpt lat="49.83858" lon="2.56301">
        <ele>101.7</ele>
        <time>2022-07-10T12:14:04Z</time>
      </trkpt>
      <trkpt lat="49.83858" lon="2.56302">
        <ele>101.7</ele>
        <time>2022-07-10T12:14:05Z</time>
      </trkpt>
      <trkpt lat="49.83859" lon="2.56303">
        <ele>101.7</ele>
        <time>2022-07-10T12:14:06Z</time>
      </trkpt>
      <trkpt lat="49.8386" lon="2.56304">
        <ele>101.6</ele>
        <time>2022-07-10T12:14:07Z</time>
      </trkpt>
      <trkpt lat="49.83861" lon="2.56305">
        <ele>101.6</ele>
        <time>2022-07-10T12:14:08Z</time>
      </trkpt>
      <trkpt lat="49.83863" lon="2.56307">
        <ele>101.6</ele>
        <time>2022-07-10T12:14:09Z</time>
      </trkpt>
      <trkpt lat="49.83864" lon="2.56307">
        <ele>101.6</ele>
        <time>2022-07-10T12:14:11Z</time>
      </trkpt>
      <trkpt lat="49.83864" lon="2.56308">
        <ele>101.6</ele>
        <time>2022-07-10T12:14:12Z</time>
      </trkpt>
      <trkpt lat="49.83866" lon="2.56309">
        <ele>101.6</ele>
        <time>2022-07-10T12:14:13Z</time>
      </trkpt>
      <trkpt lat="49.83867" lon="2.5631">
        <ele>101.6</ele>
        <time>2022-07-10T12:14:14Z</time>
      </trkpt>
      <trkpt lat="49.83867" lon="2.56311">
        <ele>101.5</ele>
        <time>2022-07-10T12:14:15Z</time>
      </trkpt>
      <trkpt lat="49.83869" lon="2.56312">
        <ele>101.5</ele>
        <time>2022-07-10T12:14:16Z</time>
      </trkpt>
      <trkpt lat="49.8387" lon="2.56313">
        <ele>101.5</ele>
        <time>2022-07-10T12:14:17Z</time>
      </trkpt>
      <trkpt lat="49.83871" lon="2.56314">
        <ele>101.5</ele>
        <time>2022-07-10T12:14:18Z</time>
      </trkpt>
      <trkpt lat="49.83873" lon="2.56315">
        <ele>101.5</ele>
        <time>2022-07-10T12:14:19Z</time>
      </trkpt>
      <trkpt lat="49.83873" lon="2.56316">
        <ele>101.5</ele>
        <time>2022-07-10T12:14:20Z</time>
      </trkpt>
      <trkpt lat="49.83875" lon="2.56318">
        <ele>101.4</ele>
        <time>2022-07-10T12:14:22Z</time>
      </trkpt>
      <trkpt lat="49.83876" lon="2.56319">
        <ele>101.4</ele>
        <time>2022-07-10T12:14:23Z</time>
      </trkpt>
      <trkpt lat="49.83876" lon="2.5632">
        <ele>101.4</ele>
        <time>2022-07-10T12:14:24Z</time>
      </trkpt>
      <trkpt lat="49.83878" lon="2.56322">
        <ele>101.4</ele>
        <time>2022-07-10T12:14:25Z</time>
      </trkpt>
      <trkpt lat="49.83879" lon="2.56323">
        <ele>101.4</ele>
        <time>2022-07-10T12:14:26Z</time>
      </trkpt>
      <trkpt lat="49.83879" lon="2.56323">
        <ele>101.4</ele>
        <time>2022-07-10T12:14:27Z</time>
      </trkpt>
      <trkpt lat="49.8388" lon="2.56325">
        <ele>101.3</ele>
        <time>2022-07-10T12:14:28Z</time>
      </trkpt>
      <trkpt lat="49.83882" lon="2.56326">
        <ele>101.3</ele>
        <time>2022-07-10T12:14:29Z</time>
      </trkpt>
      <trkpt lat="49.83883" lon="2.56327">
        <ele>101.3</ele>
        <time>2022-07-10T12:14:30Z</time>
      </trkpt>
      <trkpt lat="49.83884" lon="2.56328">
        <ele>101.3</ele>
        <time>2022-07-10T12:14:31Z</time>
      </trkpt>
      <trkpt lat="49.83885" lon="2.56329">
        <ele>101.3</ele>
        <time>2022-07-10T12:14:32Z</time>
      </trkpt>
      <trkpt lat="49.83886" lon="2.5633">
        <ele>101.3</ele>
        <time>2022-07-10T12:14:34Z</time>
      </trkpt>
      <trkpt lat="49.83887" lon="2.56332">
        <ele>101.2</ele>
        <time>2022-07-10T12:14:35Z</time>
      </trkpt>
      <trkpt lat="49.83888" lon="2.56332">
        <ele>101.2</ele>
        <time>2022-07-10T12:14:36Z</time>
      </trkpt>
      <trkpt lat="49.83889" lon="2.56333">
        <ele>101.2</ele>
        <time>2022-07-10T12:14:37Z</time>
      </trkpt>
      <trkpt lat="49.83891" lon="2.56335">
        <ele>101.2</ele>
        <time>2022-07-10T12:14:39Z</time>
      </trkpt>
      <trkpt lat="49.83892" lon="2.56336">
        <ele>101.1</ele>
        <time>2022-07-10T12:14:40Z</time>
      </trkpt>
      <trkpt lat="49.83892" lon="2.56338">
        <ele>101.1</ele>
        <time>2022-07-10T12:14:41Z</time>
      </trkpt>
      <trkpt lat="49.83893" lon="2.56339">
        <ele>101.1</ele>
        <time>2022-07-10T12:14:42Z</time>
      </trkpt>
      <trkpt lat="49.83894" lon="2.5634">
        <ele>101.1</ele>
        <time>2022-07-10T12:14:43Z</time>
      </trkpt>
      <trkpt lat="49.83896" lon="2.56343">
        <ele>101</ele>
        <time>2022-07-10T12:14:44Z</time>
      </trkpt>
      <trkpt lat="49.83898" lon="2.56345">
        <ele>101</ele>
        <time>2022-07-10T12:14:46Z</time>
      </trkpt>
      <trkpt lat="49.83898" lon="2.56345">
        <ele>101</ele>
        <time>2022-07-10T12:14:47Z</time>
      </trkpt>
      <trkpt lat="49.83899" lon="2.56346">
        <ele>101</ele>
        <time>2022-07-10T12:14:48Z</time>
      </trkpt>
      <trkpt lat="49.83901" lon="2.56349">
        <ele>101</ele>
        <time>2022-07-10T12:14:50Z</time>
      </trkpt>
      <trkpt lat="49.83902" lon="2.5635">
        <ele>100.9</ele>
        <time>2022-07-10T12:14:51Z</time>
      </trkpt>
      <trkpt lat="49.83903" lon="2.56351">
        <ele>100.9</ele>
        <time>2022-07-10T12:14:52Z</time>
      </trkpt>
      <trkpt lat="49.83904" lon="2.56352">
        <ele>100.9</ele>
        <time>2022-07-10T12:14:53Z</time>
      </trkpt>
      <trkpt lat="49.83906" lon="2.56354">
        <ele>100.9</ele>
        <time>2022-07-10T12:14:54Z</time>
      </trkpt>
      <trkpt lat="49.83907" lon="2.56355">
        <ele>100.9</ele>
        <time>2022-07-10T12:14:56Z</time>
      </trkpt>
      <trkpt lat="49.83907" lon="2.56356">
        <ele>100.9</ele>
        <time>2022-07-10T12:14:57Z</time>
      </trkpt>
      <trkpt lat="49.83909" lon="2.56358">
        <ele>100.8</ele>
        <time>2022-07-10T12:14:59Z</time>
      </trkpt>
      <trkpt lat="49.8391" lon="2.56359">
        <ele>100.8</ele>
        <time>2022-07-10T12:15:00Z</time>
      </trkpt>
      <trkpt lat="49.83911" lon="2.5636">
        <ele>100.8</ele>
        <time>2022-07-10T12:15:01Z</time>
      </trkpt>
      <trkpt lat="49.83912" lon="2.56361">
        <ele>100.8</ele>
        <time>2022-07-10T12:15:02Z</time>
      </trkpt>
      <trkpt lat="49.83914" lon="2.56362">
        <ele>100.8</ele>
        <time>2022-07-10T12:15:03Z</time>
      </trkpt>
      <trkpt lat="49.83916" lon="2.56364">
        <ele>100.7</ele>
        <time>2022-07-10T12:15:05Z</time>
      </trkpt>
      <trkpt lat="49.83916" lon="2.56365">
        <ele>100.7</ele>
        <time>2022-07-10T12:15:06Z</time>
      </trkpt>
      <trkpt lat="49.83917" lon="2.56366">
        <ele>100.7</ele>
        <time>2022-07-10T12:15:07Z</time>
      </trkpt>
      <trkpt lat="49.83918" lon="2.56366">
        <ele>100.7</ele>
        <time>2022-07-10T12:15:08Z</time>
      </trkpt>
      <trkpt lat="49.83919" lon="2.56367">
        <ele>100.7</ele>
        <time>2022-07-10T12:15:09Z</time>
      </trkpt>
      <trkpt lat="49.8392" lon="2.56368">
        <ele>100.7</ele>
        <time>2022-07-10T12:15:10Z</time>
      </trkpt>
      <trkpt lat="49.83922" lon="2.5637">
        <ele>100.7</ele>
        <time>2022-07-10T12:15:11Z</time>
      </trkpt>
      <trkpt lat="49.83923" lon="2.56371">
        <ele>100.7</ele>
        <time>2022-07-10T12:15:13Z</time>
      </trkpt>
      <trkpt lat="49.83924" lon="2.56372">
        <ele>100.6</ele>
        <time>2022-07-10T12:15:14Z</time>
      </trkpt>
      <trkpt lat="49.83925" lon="2.56373">
        <ele>100.6</ele>
        <time>2022-07-10T12:15:15Z</time>
      </trkpt>
      <trkpt lat="49.83926" lon="2.56374">
        <ele>100.6</ele>
        <time>2022-07-10T12:15:16Z</time>
      </trkpt>
      <trkpt lat="49.83927" lon="2.56375">
        <ele>100.6</ele>
        <time>2022-07-10T12:15:17Z</time>
      </trkpt>
      <trkpt lat="49.83928" lon="2.56376">
        <ele>100.6</ele>
        <time>2022-07-10T12:15:18Z</time>
      </trkpt>
      <trkpt lat="49.8393" lon="2.56378">
        <ele>100.6</ele>
        <time>2022-07-10T12:15:19Z</time>
      </trkpt>
      <trkpt lat="49.83931" lon="2.56379">
        <ele>100.6</ele>
        <time>2022-07-10T12:15:20Z</time>
      </trkpt>
      <trkpt lat="49.83932" lon="2.56381">
        <ele>100.5</ele>
        <time>2022-07-10T12:15:22Z</time>
      </trkpt>
      <trkpt lat="49.83933" lon="2.56382">
        <ele>100.5</ele>
        <time>2022-07-10T12:15:23Z</time>
      </trkpt>
      <trkpt lat="49.83934" lon="2.56382">
        <ele>100.5</ele>
        <time>2022-07-10T12:15:24Z</time>
      </trkpt>
      <trkpt lat="49.83935" lon="2.56384">
        <ele>100.5</ele>
        <time>2022-07-10T12:15:25Z</time>
      </trkpt>
      <trkpt lat="49.83936" lon="2.56385">
        <ele>100.5</ele>
        <time>2022-07-10T12:15:26Z</time>
      </trkpt>
      <trkpt lat="49.83937" lon="2.56386">
        <ele>100.5</ele>
        <time>2022-07-10T12:15:27Z</time>
      </trkpt>
      <trkpt lat="49.83938" lon="2.56387">
        <ele>100.5</ele>
        <time>2022-07-10T12:15:28Z</time>
      </trkpt>
      <trkpt lat="49.8394" lon="2.56389">
        <ele>100.4</ele>
        <time>2022-07-10T12:15:30Z</time>
      </trkpt>
      <trkpt lat="49.83941" lon="2.5639">
        <ele>100.4</ele>
        <time>2022-07-10T12:15:31Z</time>
      </trkpt>
      <trkpt lat="49.83941" lon="2.56391">
        <ele>100.4</ele>
        <time>2022-07-10T12:15:32Z</time>
      </trkpt>
      <trkpt lat="49.83942" lon="2.56392">
        <ele>100.4</ele>
        <time>2022-07-10T12:15:33Z</time>
      </trkpt>
      <trkpt lat="49.83943" lon="2.56393">
        <ele>100.4</ele>
        <time>2022-07-10T12:15:34Z</time>
      </trkpt>
      <trkpt lat="49.83945" lon="2.56395">
        <ele>100.4</ele>
        <time>2022-07-10T12:15:35Z</time>
      </trkpt>
      <trkpt lat="49.83945" lon="2.56395">
        <ele>100.4</ele>
        <time>2022-07-10T12:15:36Z</time>
      </trkpt>
      <trkpt lat="49.83946" lon="2.56396">
        <ele>100.4</ele>
        <time>2022-07-10T12:15:37Z</time>
      </trkpt>
      <trkpt lat="49.83947" lon="2.56397">
        <ele>100.4</ele>
        <time>2022-07-10T12:15:39Z</time>
      </trkpt>
      <trkpt lat="49.83948" lon="2.56398">
        <ele>100.3</ele>
        <time>2022-07-10T12:15:40Z</time>
      </trkpt>
      <trkpt lat="49.83949" lon="2.56399">
        <ele>100.3</ele>
        <time>2022-07-10T12:15:41Z</time>
      </trkpt>
      <trkpt lat="49.8395" lon="2.564">
        <ele>100.3</ele>
        <time>2022-07-10T12:15:42Z</time>
      </trkpt>
      <trkpt lat="49.83951" lon="2.56401">
        <ele>100.3</ele>
        <time>2022-07-10T12:15:43Z</time>
      </trkpt>
      <trkpt lat="49.83953" lon="2.56404">
        <ele>100.3</ele>
        <time>2022-07-10T12:15:45Z</time>
      </trkpt>
      <trkpt lat="49.83954" lon="2.56405">
        <ele>100.3</ele>
        <time>2022-07-10T12:15:46Z</time>
      </trkpt>
      <trkpt lat="49.83955" lon="2.56406">
        <ele>100.3</ele>
        <time>2022-07-10T12:15:47Z</time>
      </trkpt>
      <trkpt lat="49.83956" lon="2.56407">
        <ele>100.3</ele>
        <time>2022-07-10T12:15:49Z</time>
      </trkpt>
      <trkpt lat="49.83957" lon="2.56409">
        <ele>100.2</ele>
        <time>2022-07-10T12:15:50Z</time>
      </trkpt>
      <trkpt lat="49.83958" lon="2.5641">
        <ele>100.2</ele>
        <time>2022-07-10T12:15:51Z</time>
      </trkpt>
      <trkpt lat="49.83959" lon="2.5641">
        <ele>100.2</ele>
        <time>2022-07-10T12:15:52Z</time>
      </trkpt>
      <trkpt lat="49.83961" lon="2.56412">
        <ele>100.2</ele>
        <time>2022-07-10T12:15:53Z</time>
      </trkpt>
      <trkpt lat="49.83962" lon="2.56413">
        <ele>100.2</ele>
        <time>2022-07-10T12:15:54Z</time>
      </trkpt>
      <trkpt lat="49.83962" lon="2.56414">
        <ele>100.2</ele>
        <time>2022-07-10T12:15:55Z</time>
      </trkpt>
      <trkpt lat="49.83963" lon="2.56415">
        <ele>100.2</ele>
        <time>2022-07-10T12:15:56Z</time>
      </trkpt>
      <trkpt lat="49.83964" lon="2.56415">
        <ele>100.2</ele>
        <time>2022-07-10T12:15:57Z</time>
      </trkpt>
      <trkpt lat="49.83965" lon="2.56416">
        <ele>100.2</ele>
        <time>2022-07-10T12:15:58Z</time>
      </trkpt>
      <trkpt lat="49.83967" lon="2.56417">
        <ele>100.2</ele>
        <time>2022-07-10T12:16:00Z</time>
      </trkpt>
      <trkpt lat="49.83967" lon="2.56418">
        <ele>100.2</ele>
        <time>2022-07-10T12:16:01Z</time>
      </trkpt>
      <trkpt lat="49.83968" lon="2.56419">
        <ele>100.2</ele>
        <time>2022-07-10T12:16:02Z</time>
      </trkpt>
      <trkpt lat="49.8397" lon="2.56421">
        <ele>100.2</ele>
        <time>2022-07-10T12:16:03Z</time>
      </trkpt>
      <trkpt lat="49.83971" lon="2.56422">
        <ele>100.2</ele>
        <time>2022-07-10T12:16:05Z</time>
      </trkpt>
      <trkpt lat="49.83972" lon="2.56423">
        <ele>100.2</ele>
        <time>2022-07-10T12:16:06Z</time>
      </trkpt>
      <trkpt lat="49.83973" lon="2.56424">
        <ele>100.1</ele>
        <time>2022-07-10T12:16:07Z</time>
      </trkpt>
      <trkpt lat="49.83974" lon="2.56425">
        <ele>100.1</ele>
        <time>2022-07-10T12:16:08Z</time>
      </trkpt>
      <trkpt lat="49.83976" lon="2.56427">
        <ele>100.1</ele>
        <time>2022-07-10T12:16:09Z</time>
      </trkpt>
      <trkpt lat="49.83977" lon="2.56428">
        <ele>100.1</ele>
        <time>2022-07-10T12:16:10Z</time>
      </trkpt>
      <trkpt lat="49.83977" lon="2.56429">
        <ele>100.1</ele>
        <time>2022-07-10T12:16:11Z</time>
      </trkpt>
      <trkpt lat="49.83978" lon="2.5643">
        <ele>100.1</ele>
        <time>2022-07-10T12:16:12Z</time>
      </trkpt>
      <trkpt lat="49.83979" lon="2.56431">
        <ele>100.1</ele>
        <time>2022-07-10T12:16:14Z</time>
      </trkpt>
      <trkpt lat="49.83979" lon="2.56433">
        <ele>100.1</ele>
        <time>2022-07-10T12:16:15Z</time>
      </trkpt>
      <trkpt lat="49.83981" lon="2.56435">
        <ele>100.1</ele>
        <time>2022-07-10T12:16:16Z</time>
      </trkpt>
      <trkpt lat="49.83981" lon="2.56436">
        <ele>100.1</ele>
        <time>2022-07-10T12:16:17Z</time>
      </trkpt>
      <trkpt lat="49.83982" lon="2.56437">
        <ele>100.1</ele>
        <time>2022-07-10T12:16:18Z</time>
      </trkpt>
      <trkpt lat="49.83983" lon="2.56439">
        <ele>100.1</ele>
        <time>2022-07-10T12:16:19Z</time>
      </trkpt>
      <trkpt lat="49.83984" lon="2.5644">
        <ele>100.1</ele>
        <time>2022-07-10T12:16:20Z</time>
      </trkpt>
      <trkpt lat="49.83986" lon="2.56442">
        <ele>100.1</ele>
        <time>2022-07-10T12:16:22Z</time>
      </trkpt>
      <trkpt lat="49.83987" lon="2.56442">
        <ele>100.1</ele>
        <time>2022-07-10T12:16:23Z</time>
      </trkpt>
      <trkpt lat="49.83987" lon="2.56443">
        <ele>100.1</ele>
        <time>2022-07-10T12:16:24Z</time>
      </trkpt>
      <trkpt lat="49.83988" lon="2.56444">
        <ele>100.1</ele>
        <time>2022-07-10T12:16:25Z</time>
      </trkpt>
      <trkpt lat="49.83989" lon="2.56445">
        <ele>100.1</ele>
        <time>2022-07-10T12:16:26Z</time>
      </trkpt>
      <trkpt lat="49.8399" lon="2.56446">
        <ele>100.1</ele>
        <time>2022-07-10T12:16:27Z</time>
      </trkpt>
      <trkpt lat="49.83991" lon="2.56448">
        <ele>100.1</ele>
        <time>2022-07-10T12:16:28Z</time>
      </trkpt>
      <trkpt lat="49.83993" lon="2.56449">
        <ele>100.1</ele>
        <time>2022-07-10T12:16:29Z</time>
      </trkpt>
      <trkpt lat="49.83993" lon="2.5645">
        <ele>100.1</ele>
        <time>2022-07-10T12:16:31Z</time>
      </trkpt>
      <trkpt lat="49.83994" lon="2.56451">
        <ele>100.1</ele>
        <time>2022-07-10T12:16:32Z</time>
      </trkpt>
      <trkpt lat="49.83996" lon="2.56453">
        <ele>100.1</ele>
        <time>2022-07-10T12:16:33Z</time>
      </trkpt>
      <trkpt lat="49.83996" lon="2.56454">
        <ele>100.1</ele>
        <time>2022-07-10T12:16:34Z</time>
      </trkpt>
      <trkpt lat="49.83997" lon="2.56455">
        <ele>100.1</ele>
        <time>2022-07-10T12:16:35Z</time>
      </trkpt>
      <trkpt lat="49.83998" lon="2.56455">
        <ele>100.1</ele>
        <time>2022-07-10T12:16:37Z</time>
      </trkpt>
      <trkpt lat="49.83999" lon="2.56456">
        <ele>100.1</ele>
        <time>2022-07-10T12:16:38Z</time>
      </trkpt>
      <trkpt lat="49.84" lon="2.56457">
        <ele>100.1</ele>
        <time>2022-07-10T12:16:39Z</time>
      </trkpt>
      <trkpt lat="49.84003" lon="2.56459">
        <ele>100.1</ele>
        <time>2022-07-10T12:16:41Z</time>
      </trkpt>
      <trkpt lat="49.84003" lon="2.5646">
        <ele>100.1</ele>
        <time>2022-07-10T12:16:42Z</time>
      </trkpt>
      <trkpt lat="49.84005" lon="2.56461">
        <ele>100.1</ele>
        <time>2022-07-10T12:16:44Z</time>
      </trkpt>
      <trkpt lat="49.84006" lon="2.56462">
        <ele>100.1</ele>
        <time>2022-07-10T12:16:45Z</time>
      </trkpt>
      <trkpt lat="49.84007" lon="2.56463">
        <ele>100.1</ele>
        <time>2022-07-10T12:16:46Z</time>
      </trkpt>
      <trkpt lat="49.84009" lon="2.56465">
        <ele>100.1</ele>
        <time>2022-07-10T12:16:47Z</time>
      </trkpt>
      <trkpt lat="49.8401" lon="2.56466">
        <ele>100.1</ele>
        <time>2022-07-10T12:16:49Z</time>
      </trkpt>
      <trkpt lat="49.84011" lon="2.56467">
        <ele>100.1</ele>
        <time>2022-07-10T12:16:50Z</time>
      </trkpt>
      <trkpt lat="49.84012" lon="2.56469">
        <ele>100.1</ele>
        <time>2022-07-10T12:16:51Z</time>
      </trkpt>
      <trkpt lat="49.84014" lon="2.56471">
        <ele>100.1</ele>
        <time>2022-07-10T12:16:52Z</time>
      </trkpt>
      <trkpt lat="49.84015" lon="2.56472">
        <ele>100.1</ele>
        <time>2022-07-10T12:16:53Z</time>
      </trkpt>
      <trkpt lat="49.84016" lon="2.56473">
        <ele>100.1</ele>
        <time>2022-07-10T12:16:54Z</time>
      </trkpt>
      <trkpt lat="49.84017" lon="2.56474">
        <ele>100.1</ele>
        <time>2022-07-10T12:16:55Z</time>
      </trkpt>
      <trkpt lat="49.84018" lon="2.56475">
        <ele>100.1</ele>
        <time>2022-07-10T12:16:56Z</time>
      </trkpt>
      <trkpt lat="49.84019" lon="2.56477">
        <ele>100</ele>
        <time>2022-07-10T12:16:57Z</time>
      </trkpt>
      <trkpt lat="49.8402" lon="2.56478">
        <ele>100</ele>
        <time>2022-07-10T12:16:58Z</time>
      </trkpt>
      <trkpt lat="49.84021" lon="2.56479">
        <ele>100</ele>
        <time>2022-07-10T12:16:59Z</time>
      </trkpt>
      <trkpt lat="49.84022" lon="2.5648">
        <ele>100</ele>
        <time>2022-07-10T12:17:01Z</time>
      </trkpt>
      <trkpt lat="49.84023" lon="2.56481">
        <ele>100</ele>
        <time>2022-07-10T12:17:02Z</time>
      </trkpt>
      <trkpt lat="49.84024" lon="2.56482">
        <ele>100</ele>
        <time>2022-07-10T12:17:03Z</time>
      </trkpt>
      <trkpt lat="49.84025" lon="2.56484">
        <ele>100</ele>
        <time>2022-07-10T12:17:04Z</time>
      </trkpt>
      <trkpt lat="49.84027" lon="2.56485">
        <ele>100</ele>
        <time>2022-07-10T12:17:06Z</time>
      </trkpt>
      <trkpt lat="49.84028" lon="2.56487">
        <ele>100</ele>
        <time>2022-07-10T12:17:07Z</time>
      </trkpt>
      <trkpt lat="49.84029" lon="2.56488">
        <ele>100</ele>
        <time>2022-07-10T12:17:08Z</time>
      </trkpt>
      <trkpt lat="49.8403" lon="2.56489">
        <ele>100</ele>
        <time>2022-07-10T12:17:09Z</time>
      </trkpt>
      <trkpt lat="49.84032" lon="2.56491">
        <ele>100</ele>
        <time>2022-07-10T12:17:11Z</time>
      </trkpt>
      <trkpt lat="49.84032" lon="2.56492">
        <ele>100</ele>
        <time>2022-07-10T12:17:12Z</time>
      </trkpt>
      <trkpt lat="49.84033" lon="2.56493">
        <ele>100</ele>
        <time>2022-07-10T12:17:13Z</time>
      </trkpt>
      <trkpt lat="49.84034" lon="2.56494">
        <ele>100</ele>
        <time>2022-07-10T12:17:14Z</time>
      </trkpt>
      <trkpt lat="49.84035" lon="2.56495">
        <ele>99.9</ele>
        <time>2022-07-10T12:17:15Z</time>
      </trkpt>
      <trkpt lat="49.84035" lon="2.56496">
        <ele>99.9</ele>
        <time>2022-07-10T12:17:16Z</time>
      </trkpt>
      <trkpt lat="49.84036" lon="2.56497">
        <ele>99.9</ele>
        <time>2022-07-10T12:17:17Z</time>
      </trkpt>
      <trkpt lat="49.84037" lon="2.56498">
        <ele>99.9</ele>
        <time>2022-07-10T12:17:18Z</time>
      </trkpt>
      <trkpt lat="49.84038" lon="2.56499">
        <ele>99.9</ele>
        <time>2022-07-10T12:17:19Z</time>
      </trkpt>
      <trkpt lat="49.84039" lon="2.56501">
        <ele>99.9</ele>
        <time>2022-07-10T12:17:21Z</time>
      </trkpt>
      <trkpt lat="49.84039" lon="2.56501">
        <ele>99.9</ele>
        <time>2022-07-10T12:17:22Z</time>
      </trkpt>
      <trkpt lat="49.8404" lon="2.56502">
        <ele>99.9</ele>
        <time>2022-07-10T12:17:23Z</time>
      </trkpt>
      <trkpt lat="49.84042" lon="2.56504">
        <ele>99.8</ele>
        <time>2022-07-10T12:17:24Z</time>
      </trkpt>
      <trkpt lat="49.84043" lon="2.56506">
        <ele>99.8</ele>
        <time>2022-07-10T12:17:26Z</time>
      </trkpt>
      <trkpt lat="49.84044" lon="2.56507">
        <ele>99.8</ele>
        <time>2022-07-10T12:17:27Z</time>
      </trkpt>
      <trkpt lat="49.84045" lon="2.56508">
        <ele>99.8</ele>
        <time>2022-07-10T12:17:28Z</time>
      </trkpt>
      <trkpt lat="49.84046" lon="2.56509">
        <ele>99.8</ele>
        <time>2022-07-10T12:17:29Z</time>
      </trkpt>
      <trkpt lat="49.84048" lon="2.56511">
        <ele>99.8</ele>
        <time>2022-07-10T12:17:31Z</time>
      </trkpt>
      <trkpt lat="49.84049" lon="2.56511">
        <ele>99.8</ele>
        <time>2022-07-10T12:17:32Z</time>
      </trkpt>
      <trkpt lat="49.8405" lon="2.56512">
        <ele>99.8</ele>
        <time>2022-07-10T12:17:33Z</time>
      </trkpt>
      <trkpt lat="49.84051" lon="2.56514">
        <ele>99.8</ele>
        <time>2022-07-10T12:17:34Z</time>
      </trkpt>
      <trkpt lat="49.84052" lon="2.56514">
        <ele>99.8</ele>
        <time>2022-07-10T12:17:35Z</time>
      </trkpt>
      <trkpt lat="49.84053" lon="2.56515">
        <ele>99.8</ele>
        <time>2022-07-10T12:17:36Z</time>
      </trkpt>
      <trkpt lat="49.84055" lon="2.56517">
        <ele>99.8</ele>
        <time>2022-07-10T12:17:37Z</time>
      </trkpt>
      <trkpt lat="49.84056" lon="2.56518">
        <ele>99.8</ele>
        <time>2022-07-10T12:17:38Z</time>
      </trkpt>
      <trkpt lat="49.84057" lon="2.56519">
        <ele>99.8</ele>
        <time>2022-07-10T12:17:39Z</time>
      </trkpt>
      <trkpt lat="49.84058" lon="2.5652">
        <ele>99.8</ele>
        <time>2022-07-10T12:17:41Z</time>
      </trkpt>
      <trkpt lat="49.84059" lon="2.56521">
        <ele>99.8</ele>
        <time>2022-07-10T12:17:42Z</time>
      </trkpt>
      <trkpt lat="49.8406" lon="2.56522">
        <ele>99.8</ele>
        <time>2022-07-10T12:17:43Z</time>
      </trkpt>
      <trkpt lat="49.8406" lon="2.56523">
        <ele>99.8</ele>
        <time>2022-07-10T12:17:44Z</time>
      </trkpt>
      <trkpt lat="49.84062" lon="2.56525">
        <ele>99.8</ele>
        <time>2022-07-10T12:17:46Z</time>
      </trkpt>
      <trkpt lat="49.84063" lon="2.56525">
        <ele>99.8</ele>
        <time>2022-07-10T12:17:47Z</time>
      </trkpt>
      <trkpt lat="49.84063" lon="2.56526">
        <ele>99.8</ele>
        <time>2022-07-10T12:17:48Z</time>
      </trkpt>
      <trkpt lat="49.84064" lon="2.56528">
        <ele>99.8</ele>
        <time>2022-07-10T12:17:49Z</time>
      </trkpt>
      <trkpt lat="49.84065" lon="2.56529">
        <ele>99.8</ele>
        <time>2022-07-10T12:17:50Z</time>
      </trkpt>
      <trkpt lat="49.84067" lon="2.56531">
        <ele>99.7</ele>
        <time>2022-07-10T12:17:51Z</time>
      </trkpt>
      <trkpt lat="49.84068" lon="2.56532">
        <ele>99.7</ele>
        <time>2022-07-10T12:17:52Z</time>
      </trkpt>
      <trkpt lat="49.84069" lon="2.56533">
        <ele>99.7</ele>
        <time>2022-07-10T12:17:53Z</time>
      </trkpt>
      <trkpt lat="49.8407" lon="2.56534">
        <ele>99.7</ele>
        <time>2022-07-10T12:17:54Z</time>
      </trkpt>
      <trkpt lat="49.84071" lon="2.56536">
        <ele>99.7</ele>
        <time>2022-07-10T12:17:56Z</time>
      </trkpt>
      <trkpt lat="49.84072" lon="2.56537">
        <ele>99.7</ele>
        <time>2022-07-10T12:17:57Z</time>
      </trkpt>
      <trkpt lat="49.84073" lon="2.56538">
        <ele>99.7</ele>
        <time>2022-07-10T12:17:58Z</time>
      </trkpt>
      <trkpt lat="49.84074" lon="2.56539">
        <ele>99.7</ele>
        <time>2022-07-10T12:17:59Z</time>
      </trkpt>
      <trkpt lat="49.84076" lon="2.56541">
        <ele>99.7</ele>
        <time>2022-07-10T12:18:01Z</time>
      </trkpt>
      <trkpt lat="49.84077" lon="2.56542">
        <ele>99.7</ele>
        <time>2022-07-10T12:18:02Z</time>
      </trkpt>
      <trkpt lat="49.84077" lon="2.56543">
        <ele>99.6</ele>
        <time>2022-07-10T12:18:03Z</time>
      </trkpt>
      <trkpt lat="49.84078" lon="2.56544">
        <ele>99.6</ele>
        <time>2022-07-10T12:18:04Z</time>
      </trkpt>
      <trkpt lat="49.84079" lon="2.56544">
        <ele>99.6</ele>
        <time>2022-07-10T12:18:05Z</time>
      </trkpt>
      <trkpt lat="49.84081" lon="2.56547">
        <ele>99.6</ele>
        <time>2022-07-10T12:18:06Z</time>
      </trkpt>
      <trkpt lat="49.84082" lon="2.56548">
        <ele>99.6</ele>
        <time>2022-07-10T12:18:07Z</time>
      </trkpt>
      <trkpt lat="49.84082" lon="2.56548">
        <ele>99.6</ele>
        <time>2022-07-10T12:18:08Z</time>
      </trkpt>
      <trkpt lat="49.84083" lon="2.56549">
        <ele>99.6</ele>
        <time>2022-07-10T12:18:10Z</time>
      </trkpt>
      <trkpt lat="49.84084" lon="2.56551">
        <ele>99.6</ele>
        <time>2022-07-10T12:18:11Z</time>
      </trkpt>
      <trkpt lat="49.84085" lon="2.56552">
        <ele>99.6</ele>
        <time>2022-07-10T12:18:12Z</time>
      </trkpt>
      <trkpt lat="49.84086" lon="2.56552">
        <ele>99.5</ele>
        <time>2022-07-10T12:18:13Z</time>
      </trkpt>
      <trkpt lat="49.84087" lon="2.56553">
        <ele>99.5</ele>
        <time>2022-07-10T12:18:14Z</time>
      </trkpt>
      <trkpt lat="49.84089" lon="2.56556">
        <ele>99.5</ele>
        <time>2022-07-10T12:18:15Z</time>
      </trkpt>
      <trkpt lat="49.84089" lon="2.56557">
        <ele>99.5</ele>
        <time>2022-07-10T12:18:16Z</time>
      </trkpt>
      <trkpt lat="49.8409" lon="2.56558">
        <ele>99.5</ele>
        <time>2022-07-10T12:18:17Z</time>
      </trkpt>
      <trkpt lat="49.84091" lon="2.56559">
        <ele>99.5</ele>
        <time>2022-07-10T12:18:18Z</time>
      </trkpt>
      <trkpt lat="49.84092" lon="2.5656">
        <ele>99.5</ele>
        <time>2022-07-10T12:18:19Z</time>
      </trkpt>
      <trkpt lat="49.84093" lon="2.5656">
        <ele>99.5</ele>
        <time>2022-07-10T12:18:21Z</time>
      </trkpt>
      <trkpt lat="49.84095" lon="2.56562">
        <ele>99.4</ele>
        <time>2022-07-10T12:18:22Z</time>
      </trkpt>
      <trkpt lat="49.84096" lon="2.56563">
        <ele>99.4</ele>
        <time>2022-07-10T12:18:23Z</time>
      </trkpt>
      <trkpt lat="49.84098" lon="2.56565">
        <ele>99.4</ele>
        <time>2022-07-10T12:18:25Z</time>
      </trkpt>
      <trkpt lat="49.84099" lon="2.56566">
        <ele>99.4</ele>
        <time>2022-07-10T12:18:26Z</time>
      </trkpt>
      <trkpt lat="49.84099" lon="2.56566">
        <ele>99.4</ele>
        <time>2022-07-10T12:18:27Z</time>
      </trkpt>
      <trkpt lat="49.841" lon="2.56567">
        <ele>99.4</ele>
        <time>2022-07-10T12:18:28Z</time>
      </trkpt>
      <trkpt lat="49.84102" lon="2.56568">
        <ele>99.4</ele>
        <time>2022-07-10T12:18:29Z</time>
      </trkpt>
      <trkpt lat="49.84103" lon="2.5657">
        <ele>99.3</ele>
        <time>2022-07-10T12:18:31Z</time>
      </trkpt>
      <trkpt lat="49.84105" lon="2.56571">
        <ele>99.3</ele>
        <time>2022-07-10T12:18:32Z</time>
      </trkpt>
      <trkpt lat="49.84106" lon="2.56572">
        <ele>99.3</ele>
        <time>2022-07-10T12:18:33Z</time>
      </trkpt>
      <trkpt lat="49.84108" lon="2.56573">
        <ele>99.3</ele>
        <time>2022-07-10T12:18:34Z</time>
      </trkpt>
      <trkpt lat="49.84108" lon="2.56574">
        <ele>99.3</ele>
        <time>2022-07-10T12:18:35Z</time>
      </trkpt>
      <trkpt lat="49.84109" lon="2.56575">
        <ele>99.3</ele>
        <time>2022-07-10T12:18:36Z</time>
      </trkpt>
      <trkpt lat="49.84111" lon="2.56576">
        <ele>99.2</ele>
        <time>2022-07-10T12:18:37Z</time>
      </trkpt>
      <trkpt lat="49.84112" lon="2.56577">
        <ele>99.2</ele>
        <time>2022-07-10T12:18:38Z</time>
      </trkpt>
      <trkpt lat="49.84113" lon="2.56578">
        <ele>99.2</ele>
        <time>2022-07-10T12:18:39Z</time>
      </trkpt>
      <trkpt lat="49.84114" lon="2.56579">
        <ele>99.2</ele>
        <time>2022-07-10T12:18:40Z</time>
      </trkpt>
      <trkpt lat="49.84115" lon="2.5658">
        <ele>99.2</ele>
        <time>2022-07-10T12:18:42Z</time>
      </trkpt>
      <trkpt lat="49.84116" lon="2.56581">
        <ele>99.1</ele>
        <time>2022-07-10T12:18:43Z</time>
      </trkpt>
      <trkpt lat="49.84117" lon="2.56582">
        <ele>99.1</ele>
        <time>2022-07-10T12:18:44Z</time>
      </trkpt>
      <trkpt lat="49.84118" lon="2.56584">
        <ele>99.1</ele>
        <time>2022-07-10T12:18:45Z</time>
      </trkpt>
      <trkpt lat="49.84119" lon="2.56586">
        <ele>99.1</ele>
        <time>2022-07-10T12:18:46Z</time>
      </trkpt>
      <trkpt lat="49.8412" lon="2.56587">
        <ele>99.1</ele>
        <time>2022-07-10T12:18:48Z</time>
      </trkpt>
      <trkpt lat="49.84121" lon="2.56588">
        <ele>99</ele>
        <time>2022-07-10T12:18:49Z</time>
      </trkpt>
      <trkpt lat="49.84122" lon="2.56589">
        <ele>99</ele>
        <time>2022-07-10T12:18:50Z</time>
      </trkpt>
      <trkpt lat="49.84123" lon="2.5659">
        <ele>99</ele>
        <time>2022-07-10T12:18:51Z</time>
      </trkpt>
      <trkpt lat="49.84125" lon="2.56592">
        <ele>99</ele>
        <time>2022-07-10T12:18:53Z</time>
      </trkpt>
      <trkpt lat="49.84126" lon="2.56593">
        <ele>99</ele>
        <time>2022-07-10T12:18:54Z</time>
      </trkpt>
      <trkpt lat="49.84128" lon="2.56595">
        <ele>98.9</ele>
        <time>2022-07-10T12:18:55Z</time>
      </trkpt>
      <trkpt lat="49.84128" lon="2.56596">
        <ele>98.9</ele>
        <time>2022-07-10T12:18:56Z</time>
      </trkpt>
      <trkpt lat="49.84129" lon="2.56597">
        <ele>98.9</ele>
        <time>2022-07-10T12:18:57Z</time>
      </trkpt>
      <trkpt lat="49.8413" lon="2.56598">
        <ele>98.9</ele>
        <time>2022-07-10T12:18:58Z</time>
      </trkpt>
      <trkpt lat="49.84131" lon="2.566">
        <ele>98.9</ele>
        <time>2022-07-10T12:18:59Z</time>
      </trkpt>
      <trkpt lat="49.84132" lon="2.56601">
        <ele>98.8</ele>
        <time>2022-07-10T12:19:00Z</time>
      </trkpt>
      <trkpt lat="49.84134" lon="2.56604">
        <ele>98.8</ele>
        <time>2022-07-10T12:19:01Z</time>
      </trkpt>
      <trkpt lat="49.84135" lon="2.56605">
        <ele>98.8</ele>
        <time>2022-07-10T12:19:03Z</time>
      </trkpt>
      <trkpt lat="49.84135" lon="2.56606">
        <ele>98.8</ele>
        <time>2022-07-10T12:19:04Z</time>
      </trkpt>
      <trkpt lat="49.84136" lon="2.56607">
        <ele>98.8</ele>
        <time>2022-07-10T12:19:05Z</time>
      </trkpt>
      <trkpt lat="49.84137" lon="2.56608">
        <ele>98.8</ele>
        <time>2022-07-10T12:19:06Z</time>
      </trkpt>
      <trkpt lat="49.84138" lon="2.56609">
        <ele>98.8</ele>
        <time>2022-07-10T12:19:08Z</time>
      </trkpt>
      <trkpt lat="49.84139" lon="2.5661">
        <ele>98.7</ele>
        <time>2022-07-10T12:19:09Z</time>
      </trkpt>
      <trkpt lat="49.84141" lon="2.56613">
        <ele>98.7</ele>
        <time>2022-07-10T12:19:10Z</time>
      </trkpt>
      <trkpt lat="49.84142" lon="2.56614">
        <ele>98.7</ele>
        <time>2022-07-10T12:19:11Z</time>
      </trkpt>
      <trkpt lat="49.84143" lon="2.56615">
        <ele>98.7</ele>
        <time>2022-07-10T12:19:12Z</time>
      </trkpt>
      <trkpt lat="49.84144" lon="2.56616">
        <ele>98.7</ele>
        <time>2022-07-10T12:19:14Z</time>
      </trkpt>
      <trkpt lat="49.84145" lon="2.56617">
        <ele>98.7</ele>
        <time>2022-07-10T12:19:15Z</time>
      </trkpt>
      <trkpt lat="49.84146" lon="2.56618">
        <ele>98.7</ele>
        <time>2022-07-10T12:19:16Z</time>
      </trkpt>
      <trkpt lat="49.84147" lon="2.56619">
        <ele>98.6</ele>
        <time>2022-07-10T12:19:17Z</time>
      </trkpt>
      <trkpt lat="49.84148" lon="2.56621">
        <ele>98.6</ele>
        <time>2022-07-10T12:19:18Z</time>
      </trkpt>
      <trkpt lat="49.84149" lon="2.56622">
        <ele>98.6</ele>
        <time>2022-07-10T12:19:19Z</time>
      </trkpt>
      <trkpt lat="49.84151" lon="2.56624">
        <ele>98.6</ele>
        <time>2022-07-10T12:19:21Z</time>
      </trkpt>
      <trkpt lat="49.84151" lon="2.56625">
        <ele>98.6</ele>
        <time>2022-07-10T12:19:22Z</time>
      </trkpt>
      <trkpt lat="49.84153" lon="2.56627">
        <ele>98.5</ele>
        <time>2022-07-10T12:19:24Z</time>
      </trkpt>
      <trkpt lat="49.84153" lon="2.56629">
        <ele>98.5</ele>
        <time>2022-07-10T12:19:25Z</time>
      </trkpt>
      <trkpt lat="49.84155" lon="2.56631">
        <ele>98.5</ele>
        <time>2022-07-10T12:19:26Z</time>
      </trkpt>
      <trkpt lat="49.84155" lon="2.56632">
        <ele>98.5</ele>
        <time>2022-07-10T12:19:27Z</time>
      </trkpt>
      <trkpt lat="49.84156" lon="2.56632">
        <ele>98.5</ele>
        <time>2022-07-10T12:19:28Z</time>
      </trkpt>
      <trkpt lat="49.84158" lon="2.56634">
        <ele>98.4</ele>
        <time>2022-07-10T12:19:29Z</time>
      </trkpt>
      <trkpt lat="49.84158" lon="2.56635">
        <ele>98.4</ele>
        <time>2022-07-10T12:19:30Z</time>
      </trkpt>
      <trkpt lat="49.8416" lon="2.56636">
        <ele>98.4</ele>
        <time>2022-07-10T12:19:31Z</time>
      </trkpt>
      <trkpt lat="49.84161" lon="2.56637">
        <ele>98.4</ele>
        <time>2022-07-10T12:19:32Z</time>
      </trkpt>
      <trkpt lat="49.84162" lon="2.56638">
        <ele>98.4</ele>
        <time>2022-07-10T12:19:34Z</time>
      </trkpt>
      <trkpt lat="49.84162" lon="2.56639">
        <ele>98.4</ele>
        <time>2022-07-10T12:19:35Z</time>
      </trkpt>
      <trkpt lat="49.84163" lon="2.5664">
        <ele>98.4</ele>
        <time>2022-07-10T12:19:36Z</time>
      </trkpt>
      <trkpt lat="49.84164" lon="2.5664">
        <ele>98.3</ele>
        <time>2022-07-10T12:19:37Z</time>
      </trkpt>
      <trkpt lat="49.84165" lon="2.56641">
        <ele>98.3</ele>
        <time>2022-07-10T12:19:38Z</time>
      </trkpt>
      <trkpt lat="49.84167" lon="2.56643">
        <ele>98.3</ele>
        <time>2022-07-10T12:19:39Z</time>
      </trkpt>
      <trkpt lat="49.84167" lon="2.56643">
        <ele>98.3</ele>
        <time>2022-07-10T12:19:40Z</time>
      </trkpt>
      <trkpt lat="49.84168" lon="2.56644">
        <ele>98.3</ele>
        <time>2022-07-10T12:19:41Z</time>
      </trkpt>
      <trkpt lat="49.84169" lon="2.56645">
        <ele>98.3</ele>
        <time>2022-07-10T12:19:42Z</time>
      </trkpt>
      <trkpt lat="49.8417" lon="2.56646">
        <ele>98.3</ele>
        <time>2022-07-10T12:19:44Z</time>
      </trkpt>
      <trkpt lat="49.84171" lon="2.56648">
        <ele>98.2</ele>
        <time>2022-07-10T12:19:45Z</time>
      </trkpt>
      <trkpt lat="49.84172" lon="2.56648">
        <ele>98.2</ele>
        <time>2022-07-10T12:19:46Z</time>
      </trkpt>
      <trkpt lat="49.84173" lon="2.5665">
        <ele>98.2</ele>
        <time>2022-07-10T12:19:47Z</time>
      </trkpt>
      <trkpt lat="49.84174" lon="2.56651">
        <ele>98.2</ele>
        <time>2022-07-10T12:19:48Z</time>
      </trkpt>
      <trkpt lat="49.84175" lon="2.56652">
        <ele>98.1</ele>
        <time>2022-07-10T12:19:49Z</time>
      </trkpt>
      <trkpt lat="49.84175" lon="2.56653">
        <ele>98.1</ele>
        <time>2022-07-10T12:19:50Z</time>
      </trkpt>
      <trkpt lat="49.84176" lon="2.56654">
        <ele>98.1</ele>
        <time>2022-07-10T12:19:51Z</time>
      </trkpt>
      <trkpt lat="49.84177" lon="2.56655">
        <ele>98.1</ele>
        <time>2022-07-10T12:19:52Z</time>
      </trkpt>
      <trkpt lat="49.84178" lon="2.56655">
        <ele>98.1</ele>
        <time>2022-07-10T12:19:54Z</time>
      </trkpt>
      <trkpt lat="49.84179" lon="2.56657">
        <ele>98.1</ele>
        <time>2022-07-10T12:19:56Z</time>
      </trkpt>
      <trkpt lat="49.84181" lon="2.56659">
        <ele>98</ele>
        <time>2022-07-10T12:19:57Z</time>
      </trkpt>
      <trkpt lat="49.84182" lon="2.5666">
        <ele>98</ele>
        <time>2022-07-10T12:19:58Z</time>
      </trkpt>
      <trkpt lat="49.84183" lon="2.56661">
        <ele>98</ele>
        <time>2022-07-10T12:19:59Z</time>
      </trkpt>
      <trkpt lat="49.84184" lon="2.56662">
        <ele>98</ele>
        <time>2022-07-10T12:20:00Z</time>
      </trkpt>
      <trkpt lat="49.84185" lon="2.56663">
        <ele>98</ele>
        <time>2022-07-10T12:20:01Z</time>
      </trkpt>
      <trkpt lat="49.84186" lon="2.56664">
        <ele>97.9</ele>
        <time>2022-07-10T12:20:02Z</time>
      </trkpt>
      <trkpt lat="49.84187" lon="2.56665">
        <ele>97.9</ele>
        <time>2022-07-10T12:20:04Z</time>
      </trkpt>
      <trkpt lat="49.84189" lon="2.56666">
        <ele>97.9</ele>
        <time>2022-07-10T12:20:05Z</time>
      </trkpt>
      <trkpt lat="49.8419" lon="2.56667">
        <ele>97.9</ele>
        <time>2022-07-10T12:20:06Z</time>
      </trkpt>
      <trkpt lat="49.84192" lon="2.56668">
        <ele>97.8</ele>
        <time>2022-07-10T12:20:07Z</time>
      </trkpt>
      <trkpt lat="49.84193" lon="2.56669">
        <ele>97.8</ele>
        <time>2022-07-10T12:20:09Z</time>
      </trkpt>
      <trkpt lat="49.84194" lon="2.5667">
        <ele>97.8</ele>
        <time>2022-07-10T12:20:10Z</time>
      </trkpt>
      <trkpt lat="49.84195" lon="2.56671">
        <ele>97.8</ele>
        <time>2022-07-10T12:20:11Z</time>
      </trkpt>
      <trkpt lat="49.84195" lon="2.56672">
        <ele>97.7</ele>
        <time>2022-07-10T12:20:12Z</time>
      </trkpt>
      <trkpt lat="49.84196" lon="2.56673">
        <ele>97.7</ele>
        <time>2022-07-10T12:20:13Z</time>
      </trkpt>
      <trkpt lat="49.84199" lon="2.56676">
        <ele>97.7</ele>
        <time>2022-07-10T12:20:15Z</time>
      </trkpt>
      <trkpt lat="49.842" lon="2.56677">
        <ele>97.7</ele>
        <time>2022-07-10T12:20:16Z</time>
      </trkpt>
      <trkpt lat="49.842" lon="2.56678">
        <ele>97.6</ele>
        <time>2022-07-10T12:20:17Z</time>
      </trkpt>
      <trkpt lat="49.84201" lon="2.56679">
        <ele>97.6</ele>
        <time>2022-07-10T12:20:18Z</time>
      </trkpt>
      <trkpt lat="49.84202" lon="2.5668">
        <ele>97.6</ele>
        <time>2022-07-10T12:20:19Z</time>
      </trkpt>
      <trkpt lat="49.84204" lon="2.56682">
        <ele>97.6</ele>
        <time>2022-07-10T12:20:20Z</time>
      </trkpt>
      <trkpt lat="49.84204" lon="2.56682">
        <ele>97.6</ele>
        <time>2022-07-10T12:20:21Z</time>
      </trkpt>
      <trkpt lat="49.84205" lon="2.56683">
        <ele>97.5</ele>
        <time>2022-07-10T12:20:22Z</time>
      </trkpt>
      <trkpt lat="49.84206" lon="2.56684">
        <ele>97.5</ele>
        <time>2022-07-10T12:20:23Z</time>
      </trkpt>
      <trkpt lat="49.84207" lon="2.56686">
        <ele>97.5</ele>
        <time>2022-07-10T12:20:24Z</time>
      </trkpt>
      <trkpt lat="49.84208" lon="2.56687">
        <ele>97.5</ele>
        <time>2022-07-10T12:20:25Z</time>
      </trkpt>
      <trkpt lat="49.8421" lon="2.56689">
        <ele>97.4</ele>
        <time>2022-07-10T12:20:26Z</time>
      </trkpt>
      <trkpt lat="49.84211" lon="2.5669">
        <ele>97.4</ele>
        <time>2022-07-10T12:20:27Z</time>
      </trkpt>
      <trkpt lat="49.84211" lon="2.56691">
        <ele>97.4</ele>
        <time>2022-07-10T12:20:28Z</time>
      </trkpt>
      <trkpt lat="49.84214" lon="2.56694">
        <ele>97.3</ele>
        <time>2022-07-10T12:20:29Z</time>
      </trkpt>
      <trkpt lat="49.84214" lon="2.56695">
        <ele>97.3</ele>
        <time>2022-07-10T12:20:31Z</time>
      </trkpt>
      <trkpt lat="49.84215" lon="2.56696">
        <ele>97.3</ele>
        <time>2022-07-10T12:20:32Z</time>
      </trkpt>
      <trkpt lat="49.84216" lon="2.56697">
        <ele>97.3</ele>
        <time>2022-07-10T12:20:33Z</time>
      </trkpt>
      <trkpt lat="49.84217" lon="2.56698">
        <ele>97.3</ele>
        <time>2022-07-10T12:20:34Z</time>
      </trkpt>
      <trkpt lat="49.84218" lon="2.567">
        <ele>97.3</ele>
        <time>2022-07-10T12:20:35Z</time>
      </trkpt>
      <trkpt lat="49.84219" lon="2.56701">
        <ele>97.2</ele>
        <time>2022-07-10T12:20:37Z</time>
      </trkpt>
      <trkpt lat="49.84219" lon="2.56702">
        <ele>97.2</ele>
        <time>2022-07-10T12:20:38Z</time>
      </trkpt>
      <trkpt lat="49.8422" lon="2.56703">
        <ele>97.2</ele>
        <time>2022-07-10T12:20:39Z</time>
      </trkpt>
      <trkpt lat="49.84222" lon="2.56705">
        <ele>97.2</ele>
        <time>2022-07-10T12:20:40Z</time>
      </trkpt>
      <trkpt lat="49.84223" lon="2.56706">
        <ele>97.2</ele>
        <time>2022-07-10T12:20:42Z</time>
      </trkpt>
      <trkpt lat="49.84224" lon="2.56707">
        <ele>97.1</ele>
        <time>2022-07-10T12:20:43Z</time>
      </trkpt>
      <trkpt lat="49.84224" lon="2.56708">
        <ele>97.1</ele>
        <time>2022-07-10T12:20:44Z</time>
      </trkpt>
      <trkpt lat="49.84226" lon="2.56711">
        <ele>97.1</ele>
        <time>2022-07-10T12:20:45Z</time>
      </trkpt>
      <trkpt lat="49.84227" lon="2.56711">
        <ele>97.1</ele>
        <time>2022-07-10T12:20:46Z</time>
      </trkpt>
      <trkpt lat="49.84228" lon="2.56712">
        <ele>97.1</ele>
        <time>2022-07-10T12:20:47Z</time>
      </trkpt>
      <trkpt lat="49.8423" lon="2.56715">
        <ele>97</ele>
        <time>2022-07-10T12:20:48Z</time>
      </trkpt>
      <trkpt lat="49.84231" lon="2.56716">
        <ele>97</ele>
        <time>2022-07-10T12:20:50Z</time>
      </trkpt>
      <trkpt lat="49.84232" lon="2.56717">
        <ele>97</ele>
        <time>2022-07-10T12:20:51Z</time>
      </trkpt>
      <trkpt lat="49.84233" lon="2.56718">
        <ele>97</ele>
        <time>2022-07-10T12:20:52Z</time>
      </trkpt>
      <trkpt lat="49.84234" lon="2.5672">
        <ele>96.9</ele>
        <time>2022-07-10T12:20:53Z</time>
      </trkpt>
      <trkpt lat="49.84235" lon="2.56721">
        <ele>96.9</ele>
        <time>2022-07-10T12:20:54Z</time>
      </trkpt>
      <trkpt lat="49.84236" lon="2.56723">
        <ele>96.9</ele>
        <time>2022-07-10T12:20:55Z</time>
      </trkpt>
      <trkpt lat="49.84237" lon="2.56724">
        <ele>96.9</ele>
        <time>2022-07-10T12:20:56Z</time>
      </trkpt>
      <trkpt lat="49.84238" lon="2.56725">
        <ele>96.8</ele>
        <time>2022-07-10T12:20:58Z</time>
      </trkpt>
      <trkpt lat="49.84239" lon="2.56726">
        <ele>96.8</ele>
        <time>2022-07-10T12:20:59Z</time>
      </trkpt>
      <trkpt lat="49.8424" lon="2.56727">
        <ele>96.8</ele>
        <time>2022-07-10T12:21:00Z</time>
      </trkpt>
      <trkpt lat="49.84241" lon="2.56728">
        <ele>96.8</ele>
        <time>2022-07-10T12:21:01Z</time>
      </trkpt>
      <trkpt lat="49.84243" lon="2.5673">
        <ele>96.7</ele>
        <time>2022-07-10T12:21:02Z</time>
      </trkpt>
      <trkpt lat="49.84244" lon="2.56731">
        <ele>96.7</ele>
        <time>2022-07-10T12:21:03Z</time>
      </trkpt>
      <trkpt lat="49.84245" lon="2.56732">
        <ele>96.7</ele>
        <time>2022-07-10T12:21:04Z</time>
      </trkpt>
      <trkpt lat="49.84246" lon="2.56733">
        <ele>96.7</ele>
        <time>2022-07-10T12:21:05Z</time>
      </trkpt>
      <trkpt lat="49.84247" lon="2.56733">
        <ele>96.7</ele>
        <time>2022-07-10T12:21:06Z</time>
      </trkpt>
      <trkpt lat="49.84248" lon="2.56734">
        <ele>96.7</ele>
        <time>2022-07-10T12:21:08Z</time>
      </trkpt>
      <trkpt lat="49.8425" lon="2.56736">
        <ele>96.6</ele>
        <time>2022-07-10T12:21:10Z</time>
      </trkpt>
      <trkpt lat="49.84251" lon="2.56737">
        <ele>96.6</ele>
        <time>2022-07-10T12:21:11Z</time>
      </trkpt>
      <trkpt lat="49.84252" lon="2.56737">
        <ele>96.6</ele>
        <time>2022-07-10T12:21:12Z</time>
      </trkpt>
      <trkpt lat="49.84254" lon="2.56739">
        <ele>96.6</ele>
        <time>2022-07-10T12:21:14Z</time>
      </trkpt>
      <trkpt lat="49.84256" lon="2.5674">
        <ele>96.6</ele>
        <time>2022-07-10T12:21:15Z</time>
      </trkpt>
      <trkpt lat="49.84256" lon="2.5674">
        <ele>96.6</ele>
        <time>2022-07-10T12:21:16Z</time>
      </trkpt>
      <trkpt lat="49.84257" lon="2.56741">
        <ele>96.5</ele>
        <time>2022-07-10T12:21:17Z</time>
      </trkpt>
      <trkpt lat="49.84259" lon="2.56742">
        <ele>96.5</ele>
        <time>2022-07-10T12:21:18Z</time>
      </trkpt>
      <trkpt lat="49.8426" lon="2.56743">
        <ele>96.5</ele>
        <time>2022-07-10T12:21:19Z</time>
      </trkpt>
      <trkpt lat="49.84261" lon="2.56744">
        <ele>96.5</ele>
        <time>2022-07-10T12:21:20Z</time>
      </trkpt>
      <trkpt lat="49.84262" lon="2.56745">
        <ele>96.5</ele>
        <time>2022-07-10T12:21:21Z</time>
      </trkpt>
      <trkpt lat="49.84263" lon="2.56746">
        <ele>96.5</ele>
        <time>2022-07-10T12:21:22Z</time>
      </trkpt>
      <trkpt lat="49.84264" lon="2.56747">
        <ele>96.5</ele>
        <time>2022-07-10T12:21:23Z</time>
      </trkpt>
      <trkpt lat="49.84265" lon="2.56748">
        <ele>96.5</ele>
        <time>2022-07-10T12:21:25Z</time>
      </trkpt>
      <trkpt lat="49.84266" lon="2.56749">
        <ele>96.5</ele>
        <time>2022-07-10T12:21:26Z</time>
      </trkpt>
      <trkpt lat="49.84267" lon="2.5675">
        <ele>96.4</ele>
        <time>2022-07-10T12:21:27Z</time>
      </trkpt>
      <trkpt lat="49.84268" lon="2.56751">
        <ele>96.4</ele>
        <time>2022-07-10T12:21:28Z</time>
      </trkpt>
      <trkpt lat="49.84269" lon="2.56753">
        <ele>96.4</ele>
        <time>2022-07-10T12:21:30Z</time>
      </trkpt>
      <trkpt lat="49.8427" lon="2.56755">
        <ele>96.4</ele>
        <time>2022-07-10T12:21:32Z</time>
      </trkpt>
      <trkpt lat="49.84271" lon="2.56757">
        <ele>96.4</ele>
        <time>2022-07-10T12:21:33Z</time>
      </trkpt>
      <trkpt lat="49.84272" lon="2.56758">
        <ele>96.4</ele>
        <time>2022-07-10T12:21:34Z</time>
      </trkpt>
      <trkpt lat="49.84273" lon="2.5676">
        <ele>96.4</ele>
        <time>2022-07-10T12:21:35Z</time>
      </trkpt>
      <trkpt lat="49.84274" lon="2.56761">
        <ele>96.4</ele>
        <time>2022-07-10T12:21:36Z</time>
      </trkpt>
      <trkpt lat="49.84275" lon="2.56762">
        <ele>96.4</ele>
        <time>2022-07-10T12:21:37Z</time>
      </trkpt>
      <trkpt lat="49.84276" lon="2.56763">
        <ele>96.3</ele>
        <time>2022-07-10T12:21:39Z</time>
      </trkpt>
      <trkpt lat="49.84277" lon="2.56765">
        <ele>96.3</ele>
        <time>2022-07-10T12:21:40Z</time>
      </trkpt>
      <trkpt lat="49.84279" lon="2.56766">
        <ele>96.3</ele>
        <time>2022-07-10T12:21:42Z</time>
      </trkpt>
      <trkpt lat="49.8428" lon="2.56768">
        <ele>96.3</ele>
        <time>2022-07-10T12:21:43Z</time>
      </trkpt>
      <trkpt lat="49.84281" lon="2.56769">
        <ele>96.3</ele>
        <time>2022-07-10T12:21:44Z</time>
      </trkpt>
      <trkpt lat="49.84283" lon="2.56771">
        <ele>96.3</ele>
        <time>2022-07-10T12:21:45Z</time>
      </trkpt>
      <trkpt lat="49.84283" lon="2.56772">
        <ele>96.3</ele>
        <time>2022-07-10T12:21:46Z</time>
      </trkpt>
      <trkpt lat="49.84284" lon="2.56772">
        <ele>96.3</ele>
        <time>2022-07-10T12:21:47Z</time>
      </trkpt>
      <trkpt lat="49.84285" lon="2.56773">
        <ele>96.3</ele>
        <time>2022-07-10T12:21:48Z</time>
      </trkpt>
      <trkpt lat="49.84286" lon="2.56774">
        <ele>96.3</ele>
        <time>2022-07-10T12:21:50Z</time>
      </trkpt>
      <trkpt lat="49.84287" lon="2.56775">
        <ele>96.3</ele>
        <time>2022-07-10T12:21:51Z</time>
      </trkpt>
      <trkpt lat="49.84289" lon="2.56776">
        <ele>96.3</ele>
        <time>2022-07-10T12:21:52Z</time>
      </trkpt>
      <trkpt lat="49.8429" lon="2.56777">
        <ele>96.3</ele>
        <time>2022-07-10T12:21:53Z</time>
      </trkpt>
      <trkpt lat="49.84291" lon="2.56778">
        <ele>96.3</ele>
        <time>2022-07-10T12:21:55Z</time>
      </trkpt>
      <trkpt lat="49.84292" lon="2.56779">
        <ele>96.3</ele>
        <time>2022-07-10T12:21:56Z</time>
      </trkpt>
      <trkpt lat="49.84293" lon="2.56779">
        <ele>96.3</ele>
        <time>2022-07-10T12:21:57Z</time>
      </trkpt>
      <trkpt lat="49.84294" lon="2.5678">
        <ele>96.3</ele>
        <time>2022-07-10T12:21:58Z</time>
      </trkpt>
      <trkpt lat="49.84294" lon="2.56781">
        <ele>96.3</ele>
        <time>2022-07-10T12:21:59Z</time>
      </trkpt>
      <trkpt lat="49.84296" lon="2.56783">
        <ele>96.3</ele>
        <time>2022-07-10T12:22:01Z</time>
      </trkpt>
      <trkpt lat="49.84297" lon="2.56784">
        <ele>96.3</ele>
        <time>2022-07-10T12:22:02Z</time>
      </trkpt>
      <trkpt lat="49.84299" lon="2.56786">
        <ele>96.3</ele>
        <time>2022-07-10T12:22:03Z</time>
      </trkpt>
      <trkpt lat="49.84299" lon="2.56787">
        <ele>96.3</ele>
        <time>2022-07-10T12:22:04Z</time>
      </trkpt>
      <trkpt lat="49.843" lon="2.56788">
        <ele>96.3</ele>
        <time>2022-07-10T12:22:05Z</time>
      </trkpt>
      <trkpt lat="49.84301" lon="2.56789">
        <ele>96.3</ele>
        <time>2022-07-10T12:22:07Z</time>
      </trkpt>
      <trkpt lat="49.84302" lon="2.5679">
        <ele>96.3</ele>
        <time>2022-07-10T12:22:08Z</time>
      </trkpt>
      <trkpt lat="49.84303" lon="2.56791">
        <ele>96.3</ele>
        <time>2022-07-10T12:22:09Z</time>
      </trkpt>
      <trkpt lat="49.84305" lon="2.56793">
        <ele>96.3</ele>
        <time>2022-07-10T12:22:11Z</time>
      </trkpt>
      <trkpt lat="49.84306" lon="2.56794">
        <ele>96.3</ele>
        <time>2022-07-10T12:22:12Z</time>
      </trkpt>
      <trkpt lat="49.84308" lon="2.56796">
        <ele>96.3</ele>
        <time>2022-07-10T12:22:13Z</time>
      </trkpt>
      <trkpt lat="49.84308" lon="2.56797">
        <ele>96.3</ele>
        <time>2022-07-10T12:22:14Z</time>
      </trkpt>
      <trkpt lat="49.84309" lon="2.56798">
        <ele>96.4</ele>
        <time>2022-07-10T12:22:15Z</time>
      </trkpt>
      <trkpt lat="49.8431" lon="2.56799">
        <ele>96.4</ele>
        <time>2022-07-10T12:22:16Z</time>
      </trkpt>
      <trkpt lat="49.84312" lon="2.56801">
        <ele>96.4</ele>
        <time>2022-07-10T12:22:18Z</time>
      </trkpt>
      <trkpt lat="49.84313" lon="2.56802">
        <ele>96.4</ele>
        <time>2022-07-10T12:22:20Z</time>
      </trkpt>
      <trkpt lat="49.84314" lon="2.56803">
        <ele>96.4</ele>
        <time>2022-07-10T12:22:21Z</time>
      </trkpt>
      <trkpt lat="49.84314" lon="2.56803">
        <ele>96.4</ele>
        <time>2022-07-10T12:22:22Z</time>
      </trkpt>
      <trkpt lat="49.84315" lon="2.56804">
        <ele>96.4</ele>
        <time>2022-07-10T12:22:23Z</time>
      </trkpt>
      <trkpt lat="49.84316" lon="2.56805">
        <ele>96.4</ele>
        <time>2022-07-10T12:22:24Z</time>
      </trkpt>
      <trkpt lat="49.84317" lon="2.56807">
        <ele>96.4</ele>
        <time>2022-07-10T12:22:25Z</time>
      </trkpt>
      <trkpt lat="49.84319" lon="2.56808">
        <ele>96.5</ele>
        <time>2022-07-10T12:22:26Z</time>
      </trkpt>
      <trkpt lat="49.84319" lon="2.56809">
        <ele>96.5</ele>
        <time>2022-07-10T12:22:27Z</time>
      </trkpt>
      <trkpt lat="49.8432" lon="2.5681">
        <ele>96.5</ele>
        <time>2022-07-10T12:22:28Z</time>
      </trkpt>
      <trkpt lat="49.84321" lon="2.56812">
        <ele>96.5</ele>
        <time>2022-07-10T12:22:30Z</time>
      </trkpt>
      <trkpt lat="49.84322" lon="2.56813">
        <ele>96.5</ele>
        <time>2022-07-10T12:22:31Z</time>
      </trkpt>
      <trkpt lat="49.84322" lon="2.56814">
        <ele>96.5</ele>
        <time>2022-07-10T12:22:32Z</time>
      </trkpt>
      <trkpt lat="49.84323" lon="2.56815">
        <ele>96.5</ele>
        <time>2022-07-10T12:22:33Z</time>
      </trkpt>
      <trkpt lat="49.84323" lon="2.56816">
        <ele>96.5</ele>
        <time>2022-07-10T12:22:34Z</time>
      </trkpt>
      <trkpt lat="49.84323" lon="2.56818">
        <ele>96.5</ele>
        <time>2022-07-10T12:22:36Z</time>
      </trkpt>
      <trkpt lat="49.84323" lon="2.56818">
        <ele>96.5</ele>
        <time>2022-07-10T12:22:37Z</time>
      </trkpt>
      <trkpt lat="49.84322" lon="2.56818">
        <ele>96.5</ele>
        <time>2022-07-10T12:22:38Z</time>
      </trkpt>
      <trkpt lat="49.84322" lon="2.56818">
        <ele>96.5</ele>
        <time>2022-07-10T12:22:39Z</time>
      </trkpt>
      <trkpt lat="49.84322" lon="2.56818">
        <ele>96.5</ele>
        <time>2022-07-10T12:22:40Z</time>
      </trkpt>
      <trkpt lat="49.84322" lon="2.56818">
        <ele>96.5</ele>
        <time>2022-07-10T12:22:41Z</time>
      </trkpt>
      <trkpt lat="49.84322" lon="2.56818">
        <ele>96.5</ele>
        <time>2022-07-10T12:22:42Z</time>
      </trkpt>
      <trkpt lat="49.84322" lon="2.56818">
        <ele>96.5</ele>
        <time>2022-07-10T12:22:43Z</time>
      </trkpt>
      <trkpt lat="49.84322" lon="2.56819">
        <ele>96.5</ele>
        <time>2022-07-10T12:22:44Z</time>
      </trkpt>
      <trkpt lat="49.84322" lon="2.56819">
        <ele>96.5</ele>
        <time>2022-07-10T12:22:46Z</time>
      </trkpt>
      <trkpt lat="49.84322" lon="2.56819">
        <ele>96.5</ele>
        <time>2022-07-10T12:22:47Z</time>
      </trkpt>
      <trkpt lat="49.84322" lon="2.56819">
        <ele>96.5</ele>
        <time>2022-07-10T12:22:48Z</time>
      </trkpt>
      <trkpt lat="49.84322" lon="2.56819">
        <ele>96.5</ele>
        <time>2022-07-10T12:22:49Z</time>
      </trkpt>
      <trkpt lat="49.84322" lon="2.56819">
        <ele>96.5</ele>
        <time>2022-07-10T12:22:50Z</time>
      </trkpt>
      <trkpt lat="49.84322" lon="2.56819">
        <ele>96.5</ele>
        <time>2022-07-10T12:22:51Z</time>
      </trkpt>
      <trkpt lat="49.84322" lon="2.56819">
        <ele>96.5</ele>
        <time>2022-07-10T12:22:52Z</time>
      </trkpt>
      <trkpt lat="49.84322" lon="2.56819">
        <ele>96.5</ele>
        <time>2022-07-10T12:22:53Z</time>
      </trkpt>
      <trkpt lat="49.84322" lon="2.56819">
        <ele>96.5</ele>
        <time>2022-07-10T12:22:54Z</time>
      </trkpt>
      <trkpt lat="49.84322" lon="2.56819">
        <ele>96.5</ele>
        <time>2022-07-10T12:22:55Z</time>
      </trkpt>
      <trkpt lat="49.84323" lon="2.56819">
        <ele>96.5</ele>
        <time>2022-07-10T12:22:56Z</time>
      </trkpt>
      <trkpt lat="49.84323" lon="2.56819">
        <ele>96.5</ele>
        <time>2022-07-10T12:22:57Z</time>
      </trkpt>
      <trkpt lat="49.84324" lon="2.56819">
        <ele>96.5</ele>
        <time>2022-07-10T12:22:59Z</time>
      </trkpt>
      <trkpt lat="49.84326" lon="2.56819">
        <ele>96.5</ele>
        <time>2022-07-10T12:23:01Z</time>
      </trkpt>
      <trkpt lat="49.84326" lon="2.56819">
        <ele>96.5</ele>
        <time>2022-07-10T12:23:02Z</time>
      </trkpt>
      <trkpt lat="49.84328" lon="2.5682">
        <ele>96.5</ele>
        <time>2022-07-10T12:23:03Z</time>
      </trkpt>
      <trkpt lat="49.84329" lon="2.5682">
        <ele>96.5</ele>
        <time>2022-07-10T12:23:05Z</time>
      </trkpt>
      <trkpt lat="49.84329" lon="2.5682">
        <ele>96.5</ele>
        <time>2022-07-10T12:23:06Z</time>
      </trkpt>
      <trkpt lat="49.8433" lon="2.56821">
        <ele>96.5</ele>
        <time>2022-07-10T12:23:07Z</time>
      </trkpt>
      <trkpt lat="49.84331" lon="2.56822">
        <ele>96.5</ele>
        <time>2022-07-10T12:23:08Z</time>
      </trkpt>
      <trkpt lat="49.84333" lon="2.56825">
        <ele>96.6</ele>
        <time>2022-07-10T12:23:09Z</time>
      </trkpt>
      <trkpt lat="49.84333" lon="2.56826">
        <ele>96.6</ele>
        <time>2022-07-10T12:23:10Z</time>
      </trkpt>
      <trkpt lat="49.84334" lon="2.56826">
        <ele>96.6</ele>
        <time>2022-07-10T12:23:11Z</time>
      </trkpt>
      <trkpt lat="49.84335" lon="2.56828">
        <ele>96.6</ele>
        <time>2022-07-10T12:23:12Z</time>
      </trkpt>
      <trkpt lat="49.84336" lon="2.56829">
        <ele>96.6</ele>
        <time>2022-07-10T12:23:13Z</time>
      </trkpt>
      <trkpt lat="49.84338" lon="2.56831">
        <ele>96.7</ele>
        <time>2022-07-10T12:23:15Z</time>
      </trkpt>
      <trkpt lat="49.84339" lon="2.56832">
        <ele>96.7</ele>
        <time>2022-07-10T12:23:16Z</time>
      </trkpt>
      <trkpt lat="49.8434" lon="2.56833">
        <ele>96.7</ele>
        <time>2022-07-10T12:23:17Z</time>
      </trkpt>
      <trkpt lat="49.84342" lon="2.56834">
        <ele>96.8</ele>
        <time>2022-07-10T12:23:18Z</time>
      </trkpt>
      <trkpt lat="49.84343" lon="2.56834">
        <ele>96.8</ele>
        <time>2022-07-10T12:23:19Z</time>
      </trkpt>
      <trkpt lat="49.84343" lon="2.56834">
        <ele>96.8</ele>
        <time>2022-07-10T12:23:20Z</time>
      </trkpt>
      <trkpt lat="49.84345" lon="2.56835">
        <ele>96.8</ele>
        <time>2022-07-10T12:23:22Z</time>
      </trkpt>
      <trkpt lat="49.84346" lon="2.56836">
        <ele>96.8</ele>
        <time>2022-07-10T12:23:23Z</time>
      </trkpt>
      <trkpt lat="49.84348" lon="2.56837">
        <ele>96.8</ele>
        <time>2022-07-10T12:23:24Z</time>
      </trkpt>
      <trkpt lat="49.84351" lon="2.56838">
        <ele>96.9</ele>
        <time>2022-07-10T12:23:26Z</time>
      </trkpt>
      <trkpt lat="49.84353" lon="2.56839">
        <ele>96.9</ele>
        <time>2022-07-10T12:23:27Z</time>
      </trkpt>
      <trkpt lat="49.84354" lon="2.56839">
        <ele>96.9</ele>
        <time>2022-07-10T12:23:28Z</time>
      </trkpt>
      <trkpt lat="49.84355" lon="2.56839">
        <ele>96.9</ele>
        <time>2022-07-10T12:23:29Z</time>
      </trkpt>
      <trkpt lat="49.84356" lon="2.56839">
        <ele>96.9</ele>
        <time>2022-07-10T12:23:30Z</time>
      </trkpt>
      <trkpt lat="49.84358" lon="2.56839">
        <ele>97</ele>
        <time>2022-07-10T12:23:31Z</time>
      </trkpt>
      <trkpt lat="49.84359" lon="2.56839">
        <ele>97</ele>
        <time>2022-07-10T12:23:32Z</time>
      </trkpt>
      <trkpt lat="49.84361" lon="2.56839">
        <ele>97</ele>
        <time>2022-07-10T12:23:33Z</time>
      </trkpt>
      <trkpt lat="49.84362" lon="2.56839">
        <ele>97</ele>
        <time>2022-07-10T12:23:34Z</time>
      </trkpt>
      <trkpt lat="49.84364" lon="2.56839">
        <ele>97.1</ele>
        <time>2022-07-10T12:23:36Z</time>
      </trkpt>
      <trkpt lat="49.84365" lon="2.56839">
        <ele>97.1</ele>
        <time>2022-07-10T12:23:37Z</time>
      </trkpt>
      <trkpt lat="49.84366" lon="2.56839">
        <ele>97.1</ele>
        <time>2022-07-10T12:23:38Z</time>
      </trkpt>
      <trkpt lat="49.84368" lon="2.56839">
        <ele>97.1</ele>
        <time>2022-07-10T12:23:39Z</time>
      </trkpt>
      <trkpt lat="49.8437" lon="2.5684">
        <ele>97.2</ele>
        <time>2022-07-10T12:23:41Z</time>
      </trkpt>
      <trkpt lat="49.84371" lon="2.5684">
        <ele>97.2</ele>
        <time>2022-07-10T12:23:42Z</time>
      </trkpt>
      <trkpt lat="49.84374" lon="2.5684">
        <ele>97.2</ele>
        <time>2022-07-10T12:23:43Z</time>
      </trkpt>
      <trkpt lat="49.84375" lon="2.5684">
        <ele>97.2</ele>
        <time>2022-07-10T12:23:45Z</time>
      </trkpt>
      <trkpt lat="49.84377" lon="2.56841">
        <ele>97.3</ele>
        <time>2022-07-10T12:23:46Z</time>
      </trkpt>
      <trkpt lat="49.84378" lon="2.56841">
        <ele>97.3</ele>
        <time>2022-07-10T12:23:47Z</time>
      </trkpt>
      <trkpt lat="49.84379" lon="2.56841">
        <ele>97.3</ele>
        <time>2022-07-10T12:23:49Z</time>
      </trkpt>
      <trkpt lat="49.84381" lon="2.56842">
        <ele>97.3</ele>
        <time>2022-07-10T12:23:50Z</time>
      </trkpt>
      <trkpt lat="49.84383" lon="2.56842">
        <ele>97.3</ele>
        <time>2022-07-10T12:23:51Z</time>
      </trkpt>
      <trkpt lat="49.84383" lon="2.56843">
        <ele>97.3</ele>
        <time>2022-07-10T12:23:52Z</time>
      </trkpt>
      <trkpt lat="49.84385" lon="2.56843">
        <ele>97.4</ele>
        <time>2022-07-10T12:23:53Z</time>
      </trkpt>
      <trkpt lat="49.84386" lon="2.56843">
        <ele>97.4</ele>
        <time>2022-07-10T12:23:54Z</time>
      </trkpt>
      <trkpt lat="49.84387" lon="2.56844">
        <ele>97.4</ele>
        <time>2022-07-10T12:23:55Z</time>
      </trkpt>
      <trkpt lat="49.8439" lon="2.56844">
        <ele>97.4</ele>
        <time>2022-07-10T12:23:56Z</time>
      </trkpt>
      <trkpt lat="49.8439" lon="2.56844">
        <ele>97.4</ele>
        <time>2022-07-10T12:23:57Z</time>
      </trkpt>
      <trkpt lat="49.84391" lon="2.56845">
        <ele>97.4</ele>
        <time>2022-07-10T12:23:58Z</time>
      </trkpt>
      <trkpt lat="49.84392" lon="2.56845">
        <ele>97.4</ele>
        <time>2022-07-10T12:24:00Z</time>
      </trkpt>
      <trkpt lat="49.84394" lon="2.56845">
        <ele>97.5</ele>
        <time>2022-07-10T12:24:01Z</time>
      </trkpt>
      <trkpt lat="49.84396" lon="2.56845">
        <ele>97.5</ele>
        <time>2022-07-10T12:24:02Z</time>
      </trkpt>
      <trkpt lat="49.84397" lon="2.56845">
        <ele>97.5</ele>
        <time>2022-07-10T12:24:03Z</time>
      </trkpt>
      <trkpt lat="49.84398" lon="2.56845">
        <ele>97.5</ele>
        <time>2022-07-10T12:24:04Z</time>
      </trkpt>
      <trkpt lat="49.844" lon="2.56845">
        <ele>97.5</ele>
        <time>2022-07-10T12:24:06Z</time>
      </trkpt>
      <trkpt lat="49.84401" lon="2.56845">
        <ele>97.5</ele>
        <time>2022-07-10T12:24:07Z</time>
      </trkpt>
      <trkpt lat="49.84402" lon="2.56845">
        <ele>97.5</ele>
        <time>2022-07-10T12:24:08Z</time>
      </trkpt>
      <trkpt lat="49.84403" lon="2.56844">
        <ele>97.5</ele>
        <time>2022-07-10T12:24:09Z</time>
      </trkpt>
      <trkpt lat="49.84404" lon="2.56844">
        <ele>97.5</ele>
        <time>2022-07-10T12:24:10Z</time>
      </trkpt>
      <trkpt lat="49.84405" lon="2.56843">
        <ele>97.6</ele>
        <time>2022-07-10T12:24:11Z</time>
      </trkpt>
      <trkpt lat="49.84406" lon="2.56843">
        <ele>97.6</ele>
        <time>2022-07-10T12:24:12Z</time>
      </trkpt>
      <trkpt lat="49.84408" lon="2.56842">
        <ele>97.6</ele>
        <time>2022-07-10T12:24:13Z</time>
      </trkpt>
      <trkpt lat="49.84409" lon="2.56842">
        <ele>97.6</ele>
        <time>2022-07-10T12:24:15Z</time>
      </trkpt>
      <trkpt lat="49.8441" lon="2.56841">
        <ele>97.6</ele>
        <time>2022-07-10T12:24:16Z</time>
      </trkpt>
      <trkpt lat="49.8441" lon="2.56841">
        <ele>97.6</ele>
        <time>2022-07-10T12:24:17Z</time>
      </trkpt>
      <trkpt lat="49.84411" lon="2.56841">
        <ele>97.6</ele>
        <time>2022-07-10T12:24:18Z</time>
      </trkpt>
      <trkpt lat="49.84413" lon="2.56841">
        <ele>97.6</ele>
        <time>2022-07-10T12:24:20Z</time>
      </trkpt>
      <trkpt lat="49.84413" lon="2.56842">
        <ele>97.6</ele>
        <time>2022-07-10T12:24:22Z</time>
      </trkpt>
      <trkpt lat="49.84413" lon="2.56842">
        <ele>97.6</ele>
        <time>2022-07-10T12:24:23Z</time>
      </trkpt>
      <trkpt lat="49.84413" lon="2.56842">
        <ele>97.6</ele>
        <time>2022-07-10T12:24:25Z</time>
      </trkpt>
      <trkpt lat="49.84413" lon="2.56842">
        <ele>97.6</ele>
        <time>2022-07-10T12:24:26Z</time>
      </trkpt>
      <trkpt lat="49.84413" lon="2.56842">
        <ele>97.6</ele>
        <time>2022-07-10T12:24:27Z</time>
      </trkpt>
      <trkpt lat="49.84413" lon="2.56841">
        <ele>97.6</ele>
        <time>2022-07-10T12:24:28Z</time>
      </trkpt>
      <trkpt lat="49.84414" lon="2.56841">
        <ele>97.6</ele>
        <time>2022-07-10T12:24:29Z</time>
      </trkpt>
      <trkpt lat="49.84415" lon="2.56839">
        <ele>97.7</ele>
        <time>2022-07-10T12:24:30Z</time>
      </trkpt>
      <trkpt lat="49.84416" lon="2.56838">
        <ele>97.7</ele>
        <time>2022-07-10T12:24:32Z</time>
      </trkpt>
      <trkpt lat="49.84417" lon="2.56837">
        <ele>97.7</ele>
        <time>2022-07-10T12:24:33Z</time>
      </trkpt>
      <trkpt lat="49.84418" lon="2.56836">
        <ele>97.7</ele>
        <time>2022-07-10T12:24:34Z</time>
      </trkpt>
      <trkpt lat="49.84419" lon="2.56835">
        <ele>97.7</ele>
        <time>2022-07-10T12:24:35Z</time>
      </trkpt>
      <trkpt lat="49.84421" lon="2.56832">
        <ele>97.7</ele>
        <time>2022-07-10T12:24:36Z</time>
      </trkpt>
      <trkpt lat="49.84422" lon="2.56831">
        <ele>97.7</ele>
        <time>2022-07-10T12:24:37Z</time>
      </trkpt>
      <trkpt lat="49.84423" lon="2.5683">
        <ele>97.7</ele>
        <time>2022-07-10T12:24:38Z</time>
      </trkpt>
      <trkpt lat="49.84424" lon="2.56829">
        <ele>97.7</ele>
        <time>2022-07-10T12:24:40Z</time>
      </trkpt>
      <trkpt lat="49.84425" lon="2.56828">
        <ele>97.7</ele>
        <time>2022-07-10T12:24:41Z</time>
      </trkpt>
      <trkpt lat="49.84426" lon="2.56827">
        <ele>97.8</ele>
        <time>2022-07-10T12:24:42Z</time>
      </trkpt>
      <trkpt lat="49.84427" lon="2.56826">
        <ele>97.8</ele>
        <time>2022-07-10T12:24:43Z</time>
      </trkpt>
      <trkpt lat="49.84428" lon="2.56826">
        <ele>97.8</ele>
        <time>2022-07-10T12:24:44Z</time>
      </trkpt>
      <trkpt lat="49.84429" lon="2.56825">
        <ele>97.8</ele>
        <time>2022-07-10T12:24:45Z</time>
      </trkpt>
      <trkpt lat="49.8443" lon="2.56825">
        <ele>97.8</ele>
        <time>2022-07-10T12:24:46Z</time>
      </trkpt>
      <trkpt lat="49.84433" lon="2.56822">
        <ele>97.8</ele>
        <time>2022-07-10T12:24:47Z</time>
      </trkpt>
      <trkpt lat="49.84434" lon="2.56821">
        <ele>97.8</ele>
        <time>2022-07-10T12:24:49Z</time>
      </trkpt>
      <trkpt lat="49.84435" lon="2.56821">
        <ele>97.8</ele>
        <time>2022-07-10T12:24:50Z</time>
      </trkpt>
      <trkpt lat="49.84436" lon="2.5682">
        <ele>97.8</ele>
        <time>2022-07-10T12:24:51Z</time>
      </trkpt>
      <trkpt lat="49.84438" lon="2.56819">
        <ele>97.8</ele>
        <time>2022-07-10T12:24:53Z</time>
      </trkpt>
      <trkpt lat="49.84439" lon="2.56818">
        <ele>97.8</ele>
        <time>2022-07-10T12:24:54Z</time>
      </trkpt>
      <trkpt lat="49.84439" lon="2.56817">
        <ele>97.8</ele>
        <time>2022-07-10T12:24:55Z</time>
      </trkpt>
      <trkpt lat="49.84441" lon="2.56816">
        <ele>97.8</ele>
        <time>2022-07-10T12:24:56Z</time>
      </trkpt>
      <trkpt lat="49.84442" lon="2.56816">
        <ele>97.8</ele>
        <time>2022-07-10T12:24:58Z</time>
      </trkpt>
      <trkpt lat="49.84444" lon="2.56815">
        <ele>97.8</ele>
        <time>2022-07-10T12:25:00Z</time>
      </trkpt>
      <trkpt lat="49.84445" lon="2.56814">
        <ele>97.8</ele>
        <time>2022-07-10T12:25:01Z</time>
      </trkpt>
      <trkpt lat="49.84446" lon="2.56813">
        <ele>97.8</ele>
        <time>2022-07-10T12:25:02Z</time>
      </trkpt>
      <trkpt lat="49.84447" lon="2.56813">
        <ele>97.8</ele>
        <time>2022-07-10T12:25:03Z</time>
      </trkpt>
      <trkpt lat="49.84448" lon="2.56812">
        <ele>97.8</ele>
        <time>2022-07-10T12:25:04Z</time>
      </trkpt>
      <trkpt lat="49.84449" lon="2.56812">
        <ele>97.8</ele>
        <time>2022-07-10T12:25:05Z</time>
      </trkpt>
      <trkpt lat="49.84451" lon="2.56812">
        <ele>97.8</ele>
        <time>2022-07-10T12:25:06Z</time>
      </trkpt>
      <trkpt lat="49.84453" lon="2.56812">
        <ele>97.8</ele>
        <time>2022-07-10T12:25:07Z</time>
      </trkpt>
      <trkpt lat="49.84454" lon="2.56813">
        <ele>97.8</ele>
        <time>2022-07-10T12:25:09Z</time>
      </trkpt>
      <trkpt lat="49.84456" lon="2.56813">
        <ele>97.8</ele>
        <time>2022-07-10T12:25:10Z</time>
      </trkpt>
      <trkpt lat="49.84457" lon="2.56814">
        <ele>97.8</ele>
        <time>2022-07-10T12:25:11Z</time>
      </trkpt>
      <trkpt lat="49.84459" lon="2.56815">
        <ele>97.7</ele>
        <time>2022-07-10T12:25:13Z</time>
      </trkpt>
      <trkpt lat="49.84459" lon="2.56816">
        <ele>97.7</ele>
        <time>2022-07-10T12:25:14Z</time>
      </trkpt>
      <trkpt lat="49.8446" lon="2.56817">
        <ele>97.7</ele>
        <time>2022-07-10T12:25:15Z</time>
      </trkpt>
      <trkpt lat="49.84461" lon="2.56818">
        <ele>97.7</ele>
        <time>2022-07-10T12:25:16Z</time>
      </trkpt>
      <trkpt lat="49.84462" lon="2.56818">
        <ele>97.6</ele>
        <time>2022-07-10T12:25:17Z</time>
      </trkpt>
      <trkpt lat="49.84463" lon="2.56819">
        <ele>97.6</ele>
        <time>2022-07-10T12:25:18Z</time>
      </trkpt>
      <trkpt lat="49.84465" lon="2.5682">
        <ele>97.6</ele>
        <time>2022-07-10T12:25:20Z</time>
      </trkpt>
      <trkpt lat="49.84466" lon="2.56821">
        <ele>97.6</ele>
        <time>2022-07-10T12:25:21Z</time>
      </trkpt>
      <trkpt lat="49.84467" lon="2.56822">
        <ele>97.6</ele>
        <time>2022-07-10T12:25:22Z</time>
      </trkpt>
      <trkpt lat="49.84468" lon="2.56822">
        <ele>97.6</ele>
        <time>2022-07-10T12:25:23Z</time>
      </trkpt>
      <trkpt lat="49.84469" lon="2.56822">
        <ele>97.6</ele>
        <time>2022-07-10T12:25:25Z</time>
      </trkpt>
      <trkpt lat="49.8447" lon="2.56822">
        <ele>97.6</ele>
        <time>2022-07-10T12:25:26Z</time>
      </trkpt>
      <trkpt lat="49.84472" lon="2.56823">
        <ele>97.5</ele>
        <time>2022-07-10T12:25:27Z</time>
      </trkpt>
      <trkpt lat="49.84474" lon="2.56824">
        <ele>97.5</ele>
        <time>2022-07-10T12:25:29Z</time>
      </trkpt>
      <trkpt lat="49.84475" lon="2.56824">
        <ele>97.5</ele>
        <time>2022-07-10T12:25:30Z</time>
      </trkpt>
      <trkpt lat="49.84476" lon="2.56825">
        <ele>97.5</ele>
        <time>2022-07-10T12:25:31Z</time>
      </trkpt>
      <trkpt lat="49.84477" lon="2.56825">
        <ele>97.5</ele>
        <time>2022-07-10T12:25:32Z</time>
      </trkpt>
      <trkpt lat="49.84478" lon="2.56826">
        <ele>97.5</ele>
        <time>2022-07-10T12:25:33Z</time>
      </trkpt>
      <trkpt lat="49.84479" lon="2.56826">
        <ele>97.5</ele>
        <time>2022-07-10T12:25:34Z</time>
      </trkpt>
      <trkpt lat="49.8448" lon="2.56827">
        <ele>97.5</ele>
        <time>2022-07-10T12:25:35Z</time>
      </trkpt>
      <trkpt lat="49.84481" lon="2.56828">
        <ele>97.4</ele>
        <time>2022-07-10T12:25:37Z</time>
      </trkpt>
      <trkpt lat="49.84483" lon="2.56829">
        <ele>97.5</ele>
        <time>2022-07-10T12:25:39Z</time>
      </trkpt>
      <trkpt lat="49.84484" lon="2.5683">
        <ele>97.4</ele>
        <time>2022-07-10T12:25:40Z</time>
      </trkpt>
      <trkpt lat="49.84484" lon="2.56831">
        <ele>97.4</ele>
        <time>2022-07-10T12:25:41Z</time>
      </trkpt>
      <trkpt lat="49.84485" lon="2.56832">
        <ele>97.4</ele>
        <time>2022-07-10T12:25:42Z</time>
      </trkpt>
      <trkpt lat="49.84485" lon="2.56833">
        <ele>97.4</ele>
        <time>2022-07-10T12:25:43Z</time>
      </trkpt>
      <trkpt lat="49.84487" lon="2.56835">
        <ele>97.4</ele>
        <time>2022-07-10T12:25:45Z</time>
      </trkpt>
      <trkpt lat="49.84487" lon="2.56836">
        <ele>97.3</ele>
        <time>2022-07-10T12:25:46Z</time>
      </trkpt>
      <trkpt lat="49.84488" lon="2.56836">
        <ele>97.3</ele>
        <time>2022-07-10T12:25:47Z</time>
      </trkpt>
      <trkpt lat="49.84489" lon="2.56836">
        <ele>97.3</ele>
        <time>2022-07-10T12:25:48Z</time>
      </trkpt>
      <trkpt lat="49.8449" lon="2.56837">
        <ele>97.3</ele>
        <time>2022-07-10T12:25:49Z</time>
      </trkpt>
      <trkpt lat="49.84492" lon="2.56837">
        <ele>97.3</ele>
        <time>2022-07-10T12:25:51Z</time>
      </trkpt>
      <trkpt lat="49.84494" lon="2.56837">
        <ele>97.3</ele>
        <time>2022-07-10T12:25:52Z</time>
      </trkpt>
      <trkpt lat="49.84495" lon="2.56837">
        <ele>97.3</ele>
        <time>2022-07-10T12:25:53Z</time>
      </trkpt>
      <trkpt lat="49.84496" lon="2.56835">
        <ele>97.4</ele>
        <time>2022-07-10T12:25:54Z</time>
      </trkpt>
      <trkpt lat="49.84496" lon="2.56836">
        <ele>97.4</ele>
        <time>2022-07-10T12:25:55Z</time>
      </trkpt>
      <trkpt lat="49.84498" lon="2.56837">
        <ele>97.4</ele>
        <time>2022-07-10T12:25:56Z</time>
      </trkpt>
      <trkpt lat="49.84498" lon="2.56838">
        <ele>97.4</ele>
        <time>2022-07-10T12:25:58Z</time>
      </trkpt>
      <trkpt lat="49.84499" lon="2.56839">
        <ele>97.4</ele>
        <time>2022-07-10T12:25:59Z</time>
      </trkpt>
      <trkpt lat="49.84499" lon="2.5684">
        <ele>97.4</ele>
        <time>2022-07-10T12:26:00Z</time>
      </trkpt>
      <trkpt lat="49.845" lon="2.56842">
        <ele>97.4</ele>
        <time>2022-07-10T12:26:01Z</time>
      </trkpt>
      <trkpt lat="49.845" lon="2.56843">
        <ele>97.4</ele>
        <time>2022-07-10T12:26:03Z</time>
      </trkpt>
      <trkpt lat="49.845" lon="2.56844">
        <ele>97.4</ele>
        <time>2022-07-10T12:26:04Z</time>
      </trkpt>
      <trkpt lat="49.845" lon="2.56845">
        <ele>97.4</ele>
        <time>2022-07-10T12:26:05Z</time>
      </trkpt>
      <trkpt lat="49.84499" lon="2.56847">
        <ele>97.4</ele>
        <time>2022-07-10T12:26:06Z</time>
      </trkpt>
      <trkpt lat="49.84499" lon="2.56849">
        <ele>97.4</ele>
        <time>2022-07-10T12:26:07Z</time>
      </trkpt>
      <trkpt lat="49.84499" lon="2.56851">
        <ele>97.4</ele>
        <time>2022-07-10T12:26:08Z</time>
      </trkpt>
      <trkpt lat="49.84499" lon="2.56852">
        <ele>97.4</ele>
        <time>2022-07-10T12:26:10Z</time>
      </trkpt>
      <trkpt lat="49.84498" lon="2.56853">
        <ele>97.4</ele>
        <time>2022-07-10T12:26:11Z</time>
      </trkpt>
      <trkpt lat="49.84498" lon="2.56855">
        <ele>97.4</ele>
        <time>2022-07-10T12:26:12Z</time>
      </trkpt>
      <trkpt lat="49.84498" lon="2.56856">
        <ele>97.4</ele>
        <time>2022-07-10T12:26:13Z</time>
      </trkpt>
      <trkpt lat="49.84497" lon="2.56858">
        <ele>97.4</ele>
        <time>2022-07-10T12:26:14Z</time>
      </trkpt>
      <trkpt lat="49.84497" lon="2.56859">
        <ele>97.4</ele>
        <time>2022-07-10T12:26:15Z</time>
      </trkpt>
      <trkpt lat="49.84497" lon="2.5686">
        <ele>97.4</ele>
        <time>2022-07-10T12:26:16Z</time>
      </trkpt>
      <trkpt lat="49.84497" lon="2.56862">
        <ele>97.4</ele>
        <time>2022-07-10T12:26:17Z</time>
      </trkpt>
      <trkpt lat="49.84496" lon="2.56864">
        <ele>97.4</ele>
        <time>2022-07-10T12:26:18Z</time>
      </trkpt>
      <trkpt lat="49.84496" lon="2.56865">
        <ele>97.4</ele>
        <time>2022-07-10T12:26:20Z</time>
      </trkpt>
      <trkpt lat="49.84496" lon="2.56866">
        <ele>97.4</ele>
        <time>2022-07-10T12:26:21Z</time>
      </trkpt>
      <trkpt lat="49.84496" lon="2.56868">
        <ele>97.3</ele>
        <time>2022-07-10T12:26:22Z</time>
      </trkpt>
      <trkpt lat="49.84495" lon="2.56869">
        <ele>97.3</ele>
        <time>2022-07-10T12:26:23Z</time>
      </trkpt>
      <trkpt lat="49.84495" lon="2.56872">
        <ele>97.3</ele>
        <time>2022-07-10T12:26:24Z</time>
      </trkpt>
      <trkpt lat="49.84495" lon="2.56872">
        <ele>97.3</ele>
        <time>2022-07-10T12:26:25Z</time>
      </trkpt>
      <trkpt lat="49.84495" lon="2.56874">
        <ele>97.3</ele>
        <time>2022-07-10T12:26:26Z</time>
      </trkpt>
      <trkpt lat="49.84495" lon="2.56876">
        <ele>97.3</ele>
        <time>2022-07-10T12:26:27Z</time>
      </trkpt>
      <trkpt lat="49.84494" lon="2.56877">
        <ele>97.3</ele>
        <time>2022-07-10T12:26:29Z</time>
      </trkpt>
      <trkpt lat="49.84494" lon="2.56879">
        <ele>97.3</ele>
        <time>2022-07-10T12:26:30Z</time>
      </trkpt>
      <trkpt lat="49.84494" lon="2.5688">
        <ele>97.3</ele>
        <time>2022-07-10T12:26:31Z</time>
      </trkpt>
      <trkpt lat="49.84493" lon="2.56881">
        <ele>97.3</ele>
        <time>2022-07-10T12:26:32Z</time>
      </trkpt>
      <trkpt lat="49.84493" lon="2.56883">
        <ele>97.3</ele>
        <time>2022-07-10T12:26:33Z</time>
      </trkpt>
      <trkpt lat="49.84493" lon="2.56886">
        <ele>97.3</ele>
        <time>2022-07-10T12:26:34Z</time>
      </trkpt>
      <trkpt lat="49.84493" lon="2.56888">
        <ele>97.2</ele>
        <time>2022-07-10T12:26:35Z</time>
      </trkpt>
      <trkpt lat="49.84492" lon="2.5689">
        <ele>97.2</ele>
        <time>2022-07-10T12:26:36Z</time>
      </trkpt>
      <trkpt lat="49.84492" lon="2.56892">
        <ele>97.2</ele>
        <time>2022-07-10T12:26:38Z</time>
      </trkpt>
      <trkpt lat="49.84492" lon="2.56893">
        <ele>97.2</ele>
        <time>2022-07-10T12:26:39Z</time>
      </trkpt>
      <trkpt lat="49.84492" lon="2.56895">
        <ele>97.2</ele>
        <time>2022-07-10T12:26:40Z</time>
      </trkpt>
      <trkpt lat="49.84492" lon="2.56896">
        <ele>97.2</ele>
        <time>2022-07-10T12:26:41Z</time>
      </trkpt>
      <trkpt lat="49.84491" lon="2.569">
        <ele>97.2</ele>
        <time>2022-07-10T12:26:43Z</time>
      </trkpt>
      <trkpt lat="49.84491" lon="2.56901">
        <ele>97.2</ele>
        <time>2022-07-10T12:26:44Z</time>
      </trkpt>
      <trkpt lat="49.84491" lon="2.56903">
        <ele>97.2</ele>
        <time>2022-07-10T12:26:45Z</time>
      </trkpt>
      <trkpt lat="49.84491" lon="2.56904">
        <ele>97.2</ele>
        <time>2022-07-10T12:26:46Z</time>
      </trkpt>
      <trkpt lat="49.8449" lon="2.56905">
        <ele>97.1</ele>
        <time>2022-07-10T12:26:48Z</time>
      </trkpt>
      <trkpt lat="49.8449" lon="2.56907">
        <ele>97.1</ele>
        <time>2022-07-10T12:26:49Z</time>
      </trkpt>
      <trkpt lat="49.8449" lon="2.56909">
        <ele>97.1</ele>
        <time>2022-07-10T12:26:50Z</time>
      </trkpt>
      <trkpt lat="49.84489" lon="2.5691">
        <ele>97.1</ele>
        <time>2022-07-10T12:26:51Z</time>
      </trkpt>
      <trkpt lat="49.84489" lon="2.56911">
        <ele>97.1</ele>
        <time>2022-07-10T12:26:52Z</time>
      </trkpt>
      <trkpt lat="49.84488" lon="2.56913">
        <ele>97.1</ele>
        <time>2022-07-10T12:26:53Z</time>
      </trkpt>
      <trkpt lat="49.84488" lon="2.56915">
        <ele>97.1</ele>
        <time>2022-07-10T12:26:55Z</time>
      </trkpt>
      <trkpt lat="49.84487" lon="2.56917">
        <ele>97.1</ele>
        <time>2022-07-10T12:26:56Z</time>
      </trkpt>
      <trkpt lat="49.84487" lon="2.56918">
        <ele>97.1</ele>
        <time>2022-07-10T12:26:57Z</time>
      </trkpt>
      <trkpt lat="49.84486" lon="2.5692">
        <ele>97.1</ele>
        <time>2022-07-10T12:26:59Z</time>
      </trkpt>
      <trkpt lat="49.84486" lon="2.56923">
        <ele>97</ele>
        <time>2022-07-10T12:27:00Z</time>
      </trkpt>
      <trkpt lat="49.84486" lon="2.56924">
        <ele>97</ele>
        <time>2022-07-10T12:27:01Z</time>
      </trkpt>
      <trkpt lat="49.84485" lon="2.56927">
        <ele>97</ele>
        <time>2022-07-10T12:27:03Z</time>
      </trkpt>
      <trkpt lat="49.84485" lon="2.56928">
        <ele>97</ele>
        <time>2022-07-10T12:27:04Z</time>
      </trkpt>
      <trkpt lat="49.84485" lon="2.5693">
        <ele>97</ele>
        <time>2022-07-10T12:27:05Z</time>
      </trkpt>
      <trkpt lat="49.84484" lon="2.56932">
        <ele>97</ele>
        <time>2022-07-10T12:27:06Z</time>
      </trkpt>
      <trkpt lat="49.84484" lon="2.56935">
        <ele>97</ele>
        <time>2022-07-10T12:27:07Z</time>
      </trkpt>
      <trkpt lat="49.84483" lon="2.56937">
        <ele>97</ele>
        <time>2022-07-10T12:27:09Z</time>
      </trkpt>
      <trkpt lat="49.84483" lon="2.56938">
        <ele>97</ele>
        <time>2022-07-10T12:27:10Z</time>
      </trkpt>
      <trkpt lat="49.84483" lon="2.56941">
        <ele>97</ele>
        <time>2022-07-10T12:27:11Z</time>
      </trkpt>
      <trkpt lat="49.84483" lon="2.56944">
        <ele>97</ele>
        <time>2022-07-10T12:27:12Z</time>
      </trkpt>
      <trkpt lat="49.84483" lon="2.56946">
        <ele>97</ele>
        <time>2022-07-10T12:27:13Z</time>
      </trkpt>
      <trkpt lat="49.84482" lon="2.56947">
        <ele>97</ele>
        <time>2022-07-10T12:27:14Z</time>
      </trkpt>
      <trkpt lat="49.84482" lon="2.56951">
        <ele>96.9</ele>
        <time>2022-07-10T12:27:16Z</time>
      </trkpt>
      <trkpt lat="49.84482" lon="2.56952">
        <ele>96.9</ele>
        <time>2022-07-10T12:27:17Z</time>
      </trkpt>
      <trkpt lat="49.84482" lon="2.56954">
        <ele>96.9</ele>
        <time>2022-07-10T12:27:18Z</time>
      </trkpt>
      <trkpt lat="49.84482" lon="2.56956">
        <ele>96.9</ele>
        <time>2022-07-10T12:27:19Z</time>
      </trkpt>
      <trkpt lat="49.84482" lon="2.5696">
        <ele>96.9</ele>
        <time>2022-07-10T12:27:21Z</time>
      </trkpt>
      <trkpt lat="49.84482" lon="2.56962">
        <ele>96.9</ele>
        <time>2022-07-10T12:27:22Z</time>
      </trkpt>
      <trkpt lat="49.84482" lon="2.56966">
        <ele>96.9</ele>
        <time>2022-07-10T12:27:23Z</time>
      </trkpt>
      <trkpt lat="49.84482" lon="2.56967">
        <ele>96.9</ele>
        <time>2022-07-10T12:27:24Z</time>
      </trkpt>
      <trkpt lat="49.84482" lon="2.56969">
        <ele>96.9</ele>
        <time>2022-07-10T12:27:25Z</time>
      </trkpt>
      <trkpt lat="49.84482" lon="2.56971">
        <ele>96.9</ele>
        <time>2022-07-10T12:27:26Z</time>
      </trkpt>
      <trkpt lat="49.84482" lon="2.56972">
        <ele>96.9</ele>
        <time>2022-07-10T12:27:27Z</time>
      </trkpt>
      <trkpt lat="49.84482" lon="2.56974">
        <ele>96.9</ele>
        <time>2022-07-10T12:27:28Z</time>
      </trkpt>
      <trkpt lat="49.84482" lon="2.56976">
        <ele>96.9</ele>
        <time>2022-07-10T12:27:30Z</time>
      </trkpt>
      <trkpt lat="49.84482" lon="2.56979">
        <ele>96.9</ele>
        <time>2022-07-10T12:27:31Z</time>
      </trkpt>
      <trkpt lat="49.84482" lon="2.5698">
        <ele>96.9</ele>
        <time>2022-07-10T12:27:32Z</time>
      </trkpt>
      <trkpt lat="49.84482" lon="2.56985">
        <ele>96.9</ele>
        <time>2022-07-10T12:27:34Z</time>
      </trkpt>
      <trkpt lat="49.84481" lon="2.56988">
        <ele>96.9</ele>
        <time>2022-07-10T12:27:36Z</time>
      </trkpt>
      <trkpt lat="49.84481" lon="2.56989">
        <ele>96.9</ele>
        <time>2022-07-10T12:27:37Z</time>
      </trkpt>
      <trkpt lat="49.84481" lon="2.56993">
        <ele>96.9</ele>
        <time>2022-07-10T12:27:38Z</time>
      </trkpt>
      <trkpt lat="49.84481" lon="2.56995">
        <ele>96.9</ele>
        <time>2022-07-10T12:27:39Z</time>
      </trkpt>
      <trkpt lat="49.84481" lon="2.56997">
        <ele>96.9</ele>
        <time>2022-07-10T12:27:40Z</time>
      </trkpt>
      <trkpt lat="49.84481" lon="2.56998">
        <ele>96.9</ele>
        <time>2022-07-10T12:27:41Z</time>
      </trkpt>
      <trkpt lat="49.84481" lon="2.57">
        <ele>96.9</ele>
        <time>2022-07-10T12:27:42Z</time>
      </trkpt>
      <trkpt lat="49.84481" lon="2.57002">
        <ele>96.9</ele>
        <time>2022-07-10T12:27:44Z</time>
      </trkpt>
      <trkpt lat="49.84481" lon="2.57006">
        <ele>96.9</ele>
        <time>2022-07-10T12:27:45Z</time>
      </trkpt>
      <trkpt lat="49.84481" lon="2.57007">
        <ele>96.9</ele>
        <time>2022-07-10T12:27:46Z</time>
      </trkpt>
      <trkpt lat="49.8448" lon="2.5701">
        <ele>96.9</ele>
        <time>2022-07-10T12:27:47Z</time>
      </trkpt>
      <trkpt lat="49.8448" lon="2.57011">
        <ele>96.9</ele>
        <time>2022-07-10T12:27:48Z</time>
      </trkpt>
      <trkpt lat="49.8448" lon="2.57013">
        <ele>96.9</ele>
        <time>2022-07-10T12:27:49Z</time>
      </trkpt>
      <trkpt lat="49.8448" lon="2.57016">
        <ele>96.8</ele>
        <time>2022-07-10T12:27:51Z</time>
      </trkpt>
      <trkpt lat="49.8448" lon="2.57019">
        <ele>96.8</ele>
        <time>2022-07-10T12:27:53Z</time>
      </trkpt>
      <trkpt lat="49.84479" lon="2.57022">
        <ele>96.8</ele>
        <time>2022-07-10T12:27:54Z</time>
      </trkpt>
      <trkpt lat="49.84479" lon="2.57024">
        <ele>96.8</ele>
        <time>2022-07-10T12:27:55Z</time>
      </trkpt>
      <trkpt lat="49.84479" lon="2.57025">
        <ele>96.8</ele>
        <time>2022-07-10T12:27:56Z</time>
      </trkpt>
      <trkpt lat="49.84479" lon="2.57027">
        <ele>96.8</ele>
        <time>2022-07-10T12:27:57Z</time>
      </trkpt>
      <trkpt lat="49.84479" lon="2.57029">
        <ele>96.8</ele>
        <time>2022-07-10T12:27:58Z</time>
      </trkpt>
      <trkpt lat="49.84478" lon="2.57031">
        <ele>96.8</ele>
        <time>2022-07-10T12:27:59Z</time>
      </trkpt>
      <trkpt lat="49.84478" lon="2.57033">
        <ele>96.8</ele>
        <time>2022-07-10T12:28:00Z</time>
      </trkpt>
      <trkpt lat="49.84478" lon="2.57035">
        <ele>96.8</ele>
        <time>2022-07-10T12:28:01Z</time>
      </trkpt>
      <trkpt lat="49.84477" lon="2.57037">
        <ele>96.8</ele>
        <time>2022-07-10T12:28:02Z</time>
      </trkpt>
      <trkpt lat="49.84477" lon="2.57039">
        <ele>96.8</ele>
        <time>2022-07-10T12:28:04Z</time>
      </trkpt>
      <trkpt lat="49.84476" lon="2.57042">
        <ele>96.8</ele>
        <time>2022-07-10T12:28:05Z</time>
      </trkpt>
      <trkpt lat="49.84476" lon="2.57045">
        <ele>96.7</ele>
        <time>2022-07-10T12:28:06Z</time>
      </trkpt>
      <trkpt lat="49.84475" lon="2.57046">
        <ele>96.7</ele>
        <time>2022-07-10T12:28:07Z</time>
      </trkpt>
      <trkpt lat="49.84475" lon="2.57048">
        <ele>96.7</ele>
        <time>2022-07-10T12:28:09Z</time>
      </trkpt>
      <trkpt lat="49.84475" lon="2.57049">
        <ele>96.7</ele>
        <time>2022-07-10T12:28:10Z</time>
      </trkpt>
      <trkpt lat="49.84474" lon="2.57051">
        <ele>96.7</ele>
        <time>2022-07-10T12:28:11Z</time>
      </trkpt>
      <trkpt lat="49.84474" lon="2.57053">
        <ele>96.7</ele>
        <time>2022-07-10T12:28:12Z</time>
      </trkpt>
      <trkpt lat="49.84474" lon="2.57056">
        <ele>96.7</ele>
        <time>2022-07-10T12:28:14Z</time>
      </trkpt>
      <trkpt lat="49.84474" lon="2.5706">
        <ele>96.7</ele>
        <time>2022-07-10T12:28:15Z</time>
      </trkpt>
      <trkpt lat="49.84473" lon="2.57061">
        <ele>96.7</ele>
        <time>2022-07-10T12:28:16Z</time>
      </trkpt>
      <trkpt lat="49.84473" lon="2.57063">
        <ele>96.7</ele>
        <time>2022-07-10T12:28:17Z</time>
      </trkpt>
      <trkpt lat="49.84473" lon="2.57064">
        <ele>96.7</ele>
        <time>2022-07-10T12:28:18Z</time>
      </trkpt>
      <trkpt lat="49.84473" lon="2.57066">
        <ele>96.7</ele>
        <time>2022-07-10T12:28:19Z</time>
      </trkpt>
      <trkpt lat="49.84473" lon="2.57069">
        <ele>96.7</ele>
        <time>2022-07-10T12:28:21Z</time>
      </trkpt>
      <trkpt lat="49.84472" lon="2.57072">
        <ele>96.7</ele>
        <time>2022-07-10T12:28:22Z</time>
      </trkpt>
      <trkpt lat="49.84472" lon="2.57073">
        <ele>96.7</ele>
        <time>2022-07-10T12:28:23Z</time>
      </trkpt>
      <trkpt lat="49.84472" lon="2.57075">
        <ele>96.7</ele>
        <time>2022-07-10T12:28:24Z</time>
      </trkpt>
      <trkpt lat="49.84472" lon="2.57079">
        <ele>96.7</ele>
        <time>2022-07-10T12:28:25Z</time>
      </trkpt>
      <trkpt lat="49.84472" lon="2.5708">
        <ele>96.7</ele>
        <time>2022-07-10T12:28:26Z</time>
      </trkpt>
      <trkpt lat="49.84472" lon="2.57082">
        <ele>96.6</ele>
        <time>2022-07-10T12:28:27Z</time>
      </trkpt>
      <trkpt lat="49.84472" lon="2.57083">
        <ele>96.6</ele>
        <time>2022-07-10T12:28:28Z</time>
      </trkpt>
      <trkpt lat="49.84472" lon="2.57085">
        <ele>96.6</ele>
        <time>2022-07-10T12:28:30Z</time>
      </trkpt>
      <trkpt lat="49.84472" lon="2.57087">
        <ele>96.6</ele>
        <time>2022-07-10T12:28:31Z</time>
      </trkpt>
      <trkpt lat="49.84472" lon="2.5709">
        <ele>96.6</ele>
        <time>2022-07-10T12:28:32Z</time>
      </trkpt>
      <trkpt lat="49.84472" lon="2.57092">
        <ele>96.6</ele>
        <time>2022-07-10T12:28:33Z</time>
      </trkpt>
      <trkpt lat="49.84472" lon="2.57094">
        <ele>96.6</ele>
        <time>2022-07-10T12:28:35Z</time>
      </trkpt>
      <trkpt lat="49.84472" lon="2.57096">
        <ele>96.6</ele>
        <time>2022-07-10T12:28:36Z</time>
      </trkpt>
      <trkpt lat="49.84472" lon="2.57098">
        <ele>96.6</ele>
        <time>2022-07-10T12:28:37Z</time>
      </trkpt>
      <trkpt lat="49.84472" lon="2.571">
        <ele>96.6</ele>
        <time>2022-07-10T12:28:38Z</time>
      </trkpt>
      <trkpt lat="49.84471" lon="2.57102">
        <ele>96.6</ele>
        <time>2022-07-10T12:28:40Z</time>
      </trkpt>
      <trkpt lat="49.84471" lon="2.57103">
        <ele>96.6</ele>
        <time>2022-07-10T12:28:41Z</time>
      </trkpt>
      <trkpt lat="49.84471" lon="2.57105">
        <ele>96.6</ele>
        <time>2022-07-10T12:28:42Z</time>
      </trkpt>
      <trkpt lat="49.84471" lon="2.57107">
        <ele>96.6</ele>
        <time>2022-07-10T12:28:43Z</time>
      </trkpt>
      <trkpt lat="49.84471" lon="2.57109">
        <ele>96.6</ele>
        <time>2022-07-10T12:28:44Z</time>
      </trkpt>
      <trkpt lat="49.84471" lon="2.57111">
        <ele>96.6</ele>
        <time>2022-07-10T12:28:46Z</time>
      </trkpt>
      <trkpt lat="49.8447" lon="2.57114">
        <ele>96.5</ele>
        <time>2022-07-10T12:28:47Z</time>
      </trkpt>
      <trkpt lat="49.8447" lon="2.57116">
        <ele>96.5</ele>
        <time>2022-07-10T12:28:48Z</time>
      </trkpt>
      <trkpt lat="49.8447" lon="2.57119">
        <ele>96.5</ele>
        <time>2022-07-10T12:28:50Z</time>
      </trkpt>
      <trkpt lat="49.84469" lon="2.5712">
        <ele>96.5</ele>
        <time>2022-07-10T12:28:51Z</time>
      </trkpt>
      <trkpt lat="49.84469" lon="2.57122">
        <ele>96.5</ele>
        <time>2022-07-10T12:28:52Z</time>
      </trkpt>
      <trkpt lat="49.84469" lon="2.57124">
        <ele>96.5</ele>
        <time>2022-07-10T12:28:53Z</time>
      </trkpt>
      <trkpt lat="49.84469" lon="2.57126">
        <ele>96.5</ele>
        <time>2022-07-10T12:28:54Z</time>
      </trkpt>
      <trkpt lat="49.84469" lon="2.57127">
        <ele>96.5</ele>
        <time>2022-07-10T12:28:56Z</time>
      </trkpt>
      <trkpt lat="49.84468" lon="2.57129">
        <ele>96.5</ele>
        <time>2022-07-10T12:28:57Z</time>
      </trkpt>
      <trkpt lat="49.84468" lon="2.57131">
        <ele>96.5</ele>
        <time>2022-07-10T12:28:58Z</time>
      </trkpt>
      <trkpt lat="49.84468" lon="2.57133">
        <ele>96.4</ele>
        <time>2022-07-10T12:28:59Z</time>
      </trkpt>
      <trkpt lat="49.84467" lon="2.57136">
        <ele>96.4</ele>
        <time>2022-07-10T12:29:00Z</time>
      </trkpt>
      <trkpt lat="49.84467" lon="2.57138">
        <ele>96.4</ele>
        <time>2022-07-10T12:29:02Z</time>
      </trkpt>
      <trkpt lat="49.84467" lon="2.5714">
        <ele>96.4</ele>
        <time>2022-07-10T12:29:03Z</time>
      </trkpt>
      <trkpt lat="49.84466" lon="2.57142">
        <ele>96.4</ele>
        <time>2022-07-10T12:29:04Z</time>
      </trkpt>
      <trkpt lat="49.84466" lon="2.57144">
        <ele>96.4</ele>
        <time>2022-07-10T12:29:05Z</time>
      </trkpt>
      <trkpt lat="49.84466" lon="2.57146">
        <ele>96.3</ele>
        <time>2022-07-10T12:29:07Z</time>
      </trkpt>
      <trkpt lat="49.84465" lon="2.57148">
        <ele>96.3</ele>
        <time>2022-07-10T12:29:08Z</time>
      </trkpt>
      <trkpt lat="49.84465" lon="2.57151">
        <ele>96.3</ele>
        <time>2022-07-10T12:29:09Z</time>
      </trkpt>
      <trkpt lat="49.84465" lon="2.57153">
        <ele>96.3</ele>
        <time>2022-07-10T12:29:10Z</time>
      </trkpt>
      <trkpt lat="49.84465" lon="2.57154">
        <ele>96.3</ele>
        <time>2022-07-10T12:29:11Z</time>
      </trkpt>
      <trkpt lat="49.84465" lon="2.57157">
        <ele>96.2</ele>
        <time>2022-07-10T12:29:12Z</time>
      </trkpt>
      <trkpt lat="49.84464" lon="2.57159">
        <ele>96.2</ele>
        <time>2022-07-10T12:29:13Z</time>
      </trkpt>
      <trkpt lat="49.84464" lon="2.57162">
        <ele>96.2</ele>
        <time>2022-07-10T12:29:14Z</time>
      </trkpt>
      <trkpt lat="49.84464" lon="2.57164">
        <ele>96.2</ele>
        <time>2022-07-10T12:29:15Z</time>
      </trkpt>
      <trkpt lat="49.84464" lon="2.57166">
        <ele>96.2</ele>
        <time>2022-07-10T12:29:16Z</time>
      </trkpt>
      <trkpt lat="49.84463" lon="2.57169">
        <ele>96.2</ele>
        <time>2022-07-10T12:29:18Z</time>
      </trkpt>
      <trkpt lat="49.84463" lon="2.57171">
        <ele>96.1</ele>
        <time>2022-07-10T12:29:19Z</time>
      </trkpt>
      <trkpt lat="49.84463" lon="2.57173">
        <ele>96.1</ele>
        <time>2022-07-10T12:29:20Z</time>
      </trkpt>
      <trkpt lat="49.84463" lon="2.57175">
        <ele>96.1</ele>
        <time>2022-07-10T12:29:21Z</time>
      </trkpt>
      <trkpt lat="49.84463" lon="2.57178">
        <ele>96.1</ele>
        <time>2022-07-10T12:29:22Z</time>
      </trkpt>
      <trkpt lat="49.84463" lon="2.57181">
        <ele>96.1</ele>
        <time>2022-07-10T12:29:23Z</time>
      </trkpt>
      <trkpt lat="49.84463" lon="2.57183">
        <ele>96</ele>
        <time>2022-07-10T12:29:24Z</time>
      </trkpt>
      <trkpt lat="49.84463" lon="2.57184">
        <ele>96</ele>
        <time>2022-07-10T12:29:25Z</time>
      </trkpt>
      <trkpt lat="49.84463" lon="2.57187">
        <ele>96</ele>
        <time>2022-07-10T12:29:27Z</time>
      </trkpt>
      <trkpt lat="49.84462" lon="2.57189">
        <ele>96</ele>
        <time>2022-07-10T12:29:28Z</time>
      </trkpt>
      <trkpt lat="49.84462" lon="2.5719">
        <ele>96</ele>
        <time>2022-07-10T12:29:29Z</time>
      </trkpt>
      <trkpt lat="49.84462" lon="2.57192">
        <ele>96</ele>
        <time>2022-07-10T12:29:30Z</time>
      </trkpt>
      <trkpt lat="49.84462" lon="2.57195">
        <ele>95.9</ele>
        <time>2022-07-10T12:29:32Z</time>
      </trkpt>
      <trkpt lat="49.84461" lon="2.57197">
        <ele>95.9</ele>
        <time>2022-07-10T12:29:33Z</time>
      </trkpt>
      <trkpt lat="49.84461" lon="2.57199">
        <ele>95.9</ele>
        <time>2022-07-10T12:29:34Z</time>
      </trkpt>
      <trkpt lat="49.8446" lon="2.57201">
        <ele>95.9</ele>
        <time>2022-07-10T12:29:35Z</time>
      </trkpt>
      <trkpt lat="49.8446" lon="2.57204">
        <ele>95.9</ele>
        <time>2022-07-10T12:29:37Z</time>
      </trkpt>
      <trkpt lat="49.8446" lon="2.57205">
        <ele>95.9</ele>
        <time>2022-07-10T12:29:38Z</time>
      </trkpt>
      <trkpt lat="49.84459" lon="2.57206">
        <ele>95.9</ele>
        <time>2022-07-10T12:29:39Z</time>
      </trkpt>
      <trkpt lat="49.84459" lon="2.57208">
        <ele>95.9</ele>
        <time>2022-07-10T12:29:40Z</time>
      </trkpt>
      <trkpt lat="49.84458" lon="2.5721">
        <ele>95.9</ele>
        <time>2022-07-10T12:29:41Z</time>
      </trkpt>
      <trkpt lat="49.84458" lon="2.57213">
        <ele>95.9</ele>
        <time>2022-07-10T12:29:42Z</time>
      </trkpt>
      <trkpt lat="49.84458" lon="2.57214">
        <ele>95.8</ele>
        <time>2022-07-10T12:29:43Z</time>
      </trkpt>
      <trkpt lat="49.84457" lon="2.57216">
        <ele>95.8</ele>
        <time>2022-07-10T12:29:44Z</time>
      </trkpt>
      <trkpt lat="49.84457" lon="2.57218">
        <ele>95.8</ele>
        <time>2022-07-10T12:29:45Z</time>
      </trkpt>
      <trkpt lat="49.84457" lon="2.5722">
        <ele>95.8</ele>
        <time>2022-07-10T12:29:47Z</time>
      </trkpt>
      <trkpt lat="49.84457" lon="2.57221">
        <ele>95.8</ele>
        <time>2022-07-10T12:29:48Z</time>
      </trkpt>
      <trkpt lat="49.84457" lon="2.57223">
        <ele>95.8</ele>
        <time>2022-07-10T12:29:49Z</time>
      </trkpt>
      <trkpt lat="49.84457" lon="2.57225">
        <ele>95.8</ele>
        <time>2022-07-10T12:29:50Z</time>
      </trkpt>
      <trkpt lat="49.84457" lon="2.57229">
        <ele>95.8</ele>
        <time>2022-07-10T12:29:52Z</time>
      </trkpt>
      <trkpt lat="49.84457" lon="2.57229">
        <ele>95.8</ele>
        <time>2022-07-10T12:29:53Z</time>
      </trkpt>
      <trkpt lat="49.84457" lon="2.5723">
        <ele>95.8</ele>
        <time>2022-07-10T12:29:54Z</time>
      </trkpt>
      <trkpt lat="49.84457" lon="2.57232">
        <ele>95.8</ele>
        <time>2022-07-10T12:29:55Z</time>
      </trkpt>
      <trkpt lat="49.84457" lon="2.57234">
        <ele>95.8</ele>
        <time>2022-07-10T12:29:56Z</time>
      </trkpt>
      <trkpt lat="49.84457" lon="2.57236">
        <ele>95.8</ele>
        <time>2022-07-10T12:29:57Z</time>
      </trkpt>
      <trkpt lat="49.84457" lon="2.57239">
        <ele>95.7</ele>
        <time>2022-07-10T12:29:59Z</time>
      </trkpt>
      <trkpt lat="49.84456" lon="2.57241">
        <ele>95.7</ele>
        <time>2022-07-10T12:30:00Z</time>
      </trkpt>
      <trkpt lat="49.84456" lon="2.57243">
        <ele>95.7</ele>
        <time>2022-07-10T12:30:01Z</time>
      </trkpt>
      <trkpt lat="49.84456" lon="2.57246">
        <ele>95.7</ele>
        <time>2022-07-10T12:30:03Z</time>
      </trkpt>
      <trkpt lat="49.84456" lon="2.57247">
        <ele>95.7</ele>
        <time>2022-07-10T12:30:04Z</time>
      </trkpt>
      <trkpt lat="49.84456" lon="2.57248">
        <ele>95.6</ele>
        <time>2022-07-10T12:30:05Z</time>
      </trkpt>
      <trkpt lat="49.84456" lon="2.5725">
        <ele>95.6</ele>
        <time>2022-07-10T12:30:06Z</time>
      </trkpt>
      <trkpt lat="49.84455" lon="2.57254">
        <ele>95.6</ele>
        <time>2022-07-10T12:30:07Z</time>
      </trkpt>
      <trkpt lat="49.84455" lon="2.57256">
        <ele>95.6</ele>
        <time>2022-07-10T12:30:09Z</time>
      </trkpt>
      <trkpt lat="49.84455" lon="2.57257">
        <ele>95.5</ele>
        <time>2022-07-10T12:30:10Z</time>
      </trkpt>
      <trkpt lat="49.84455" lon="2.57259">
        <ele>95.5</ele>
        <time>2022-07-10T12:30:11Z</time>
      </trkpt>
      <trkpt lat="49.84454" lon="2.5726">
        <ele>95.5</ele>
        <time>2022-07-10T12:30:12Z</time>
      </trkpt>
      <trkpt lat="49.84454" lon="2.57262">
        <ele>95.5</ele>
        <time>2022-07-10T12:30:13Z</time>
      </trkpt>
      <trkpt lat="49.84454" lon="2.57263">
        <ele>95.5</ele>
        <time>2022-07-10T12:30:14Z</time>
      </trkpt>
      <trkpt lat="49.84453" lon="2.57265">
        <ele>95.5</ele>
        <time>2022-07-10T12:30:15Z</time>
      </trkpt>
      <trkpt lat="49.84453" lon="2.57267">
        <ele>95.5</ele>
        <time>2022-07-10T12:30:16Z</time>
      </trkpt>
      <trkpt lat="49.84453" lon="2.57269">
        <ele>95.5</ele>
        <time>2022-07-10T12:30:17Z</time>
      </trkpt>
      <trkpt lat="49.84453" lon="2.57272">
        <ele>95.5</ele>
        <time>2022-07-10T12:30:19Z</time>
      </trkpt>
      <trkpt lat="49.84453" lon="2.57274">
        <ele>95.5</ele>
        <time>2022-07-10T12:30:21Z</time>
      </trkpt>
      <trkpt lat="49.84453" lon="2.57276">
        <ele>95.4</ele>
        <time>2022-07-10T12:30:22Z</time>
      </trkpt>
      <trkpt lat="49.84453" lon="2.57278">
        <ele>95.4</ele>
        <time>2022-07-10T12:30:23Z</time>
      </trkpt>
      <trkpt lat="49.84453" lon="2.57279">
        <ele>95.4</ele>
        <time>2022-07-10T12:30:24Z</time>
      </trkpt>
      <trkpt lat="49.84453" lon="2.57282">
        <ele>95.4</ele>
        <time>2022-07-10T12:30:25Z</time>
      </trkpt>
      <trkpt lat="49.84452" lon="2.57284">
        <ele>95.4</ele>
        <time>2022-07-10T12:30:26Z</time>
      </trkpt>
      <trkpt lat="49.84452" lon="2.57285">
        <ele>95.4</ele>
        <time>2022-07-10T12:30:27Z</time>
      </trkpt>
      <trkpt lat="49.84452" lon="2.57287">
        <ele>95.4</ele>
        <time>2022-07-10T12:30:29Z</time>
      </trkpt>
      <trkpt lat="49.84452" lon="2.57288">
        <ele>95.4</ele>
        <time>2022-07-10T12:30:30Z</time>
      </trkpt>
      <trkpt lat="49.84452" lon="2.5729">
        <ele>95.4</ele>
        <time>2022-07-10T12:30:31Z</time>
      </trkpt>
      <trkpt lat="49.84453" lon="2.57293">
        <ele>95.4</ele>
        <time>2022-07-10T12:30:33Z</time>
      </trkpt>
      <trkpt lat="49.84453" lon="2.57295">
        <ele>95.3</ele>
        <time>2022-07-10T12:30:34Z</time>
      </trkpt>
      <trkpt lat="49.84453" lon="2.57297">
        <ele>95.3</ele>
        <time>2022-07-10T12:30:35Z</time>
      </trkpt>
      <trkpt lat="49.84453" lon="2.57299">
        <ele>95.3</ele>
        <time>2022-07-10T12:30:36Z</time>
      </trkpt>
      <trkpt lat="49.84453" lon="2.57303">
        <ele>95.3</ele>
        <time>2022-07-10T12:30:38Z</time>
      </trkpt>
      <trkpt lat="49.84453" lon="2.57304">
        <ele>95.3</ele>
        <time>2022-07-10T12:30:39Z</time>
      </trkpt>
      <trkpt lat="49.84453" lon="2.57306">
        <ele>95.3</ele>
        <time>2022-07-10T12:30:40Z</time>
      </trkpt>
      <trkpt lat="49.84453" lon="2.57308">
        <ele>95.3</ele>
        <time>2022-07-10T12:30:41Z</time>
      </trkpt>
      <trkpt lat="49.84453" lon="2.5731">
        <ele>95.2</ele>
        <time>2022-07-10T12:30:43Z</time>
      </trkpt>
      <trkpt lat="49.84452" lon="2.57313">
        <ele>95.2</ele>
        <time>2022-07-10T12:30:44Z</time>
      </trkpt>
      <trkpt lat="49.84452" lon="2.57315">
        <ele>95.2</ele>
        <time>2022-07-10T12:30:45Z</time>
      </trkpt>
      <trkpt lat="49.84452" lon="2.57317">
        <ele>95.2</ele>
        <time>2022-07-10T12:30:46Z</time>
      </trkpt>
      <trkpt lat="49.84451" lon="2.5732">
        <ele>95.2</ele>
        <time>2022-07-10T12:30:47Z</time>
      </trkpt>
      <trkpt lat="49.8445" lon="2.57323">
        <ele>95.2</ele>
        <time>2022-07-10T12:30:49Z</time>
      </trkpt>
      <trkpt lat="49.8445" lon="2.57325">
        <ele>95.1</ele>
        <time>2022-07-10T12:30:51Z</time>
      </trkpt>
      <trkpt lat="49.84449" lon="2.57328">
        <ele>95.1</ele>
        <time>2022-07-10T12:30:52Z</time>
      </trkpt>
      <trkpt lat="49.84449" lon="2.57329">
        <ele>95.1</ele>
        <time>2022-07-10T12:30:53Z</time>
      </trkpt>
      <trkpt lat="49.84448" lon="2.57331">
        <ele>95.1</ele>
        <time>2022-07-10T12:30:54Z</time>
      </trkpt>
      <trkpt lat="49.84448" lon="2.57333">
        <ele>95.1</ele>
        <time>2022-07-10T12:30:56Z</time>
      </trkpt>
      <trkpt lat="49.84448" lon="2.57335">
        <ele>95.1</ele>
        <time>2022-07-10T12:30:57Z</time>
      </trkpt>
      <trkpt lat="49.84447" lon="2.57338">
        <ele>95.1</ele>
        <time>2022-07-10T12:30:58Z</time>
      </trkpt>
      <trkpt lat="49.84447" lon="2.57339">
        <ele>95.1</ele>
        <time>2022-07-10T12:31:00Z</time>
      </trkpt>
      <trkpt lat="49.84446" lon="2.5734">
        <ele>95</ele>
        <time>2022-07-10T12:31:01Z</time>
      </trkpt>
      <trkpt lat="49.84446" lon="2.57342">
        <ele>95</ele>
        <time>2022-07-10T12:31:02Z</time>
      </trkpt>
      <trkpt lat="49.84446" lon="2.57344">
        <ele>95</ele>
        <time>2022-07-10T12:31:03Z</time>
      </trkpt>
      <trkpt lat="49.84446" lon="2.57346">
        <ele>95</ele>
        <time>2022-07-10T12:31:04Z</time>
      </trkpt>
      <trkpt lat="49.84445" lon="2.57349">
        <ele>95</ele>
        <time>2022-07-10T12:31:06Z</time>
      </trkpt>
      <trkpt lat="49.84445" lon="2.5735">
        <ele>95</ele>
        <time>2022-07-10T12:31:07Z</time>
      </trkpt>
      <trkpt lat="49.84445" lon="2.57352">
        <ele>95</ele>
        <time>2022-07-10T12:31:08Z</time>
      </trkpt>
      <trkpt lat="49.84446" lon="2.57354">
        <ele>95</ele>
        <time>2022-07-10T12:31:09Z</time>
      </trkpt>
      <trkpt lat="49.84446" lon="2.57356">
        <ele>95</ele>
        <time>2022-07-10T12:31:10Z</time>
      </trkpt>
      <trkpt lat="49.84446" lon="2.57357">
        <ele>95</ele>
        <time>2022-07-10T12:31:11Z</time>
      </trkpt>
      <trkpt lat="49.84446" lon="2.57359">
        <ele>95</ele>
        <time>2022-07-10T12:31:12Z</time>
      </trkpt>
      <trkpt lat="49.84446" lon="2.5736">
        <ele>94.9</ele>
        <time>2022-07-10T12:31:13Z</time>
      </trkpt>
      <trkpt lat="49.84446" lon="2.57362">
        <ele>94.9</ele>
        <time>2022-07-10T12:31:14Z</time>
      </trkpt>
      <trkpt lat="49.84445" lon="2.57364">
        <ele>94.9</ele>
        <time>2022-07-10T12:31:15Z</time>
      </trkpt>
      <trkpt lat="49.84445" lon="2.57366">
        <ele>94.9</ele>
        <time>2022-07-10T12:31:17Z</time>
      </trkpt>
      <trkpt lat="49.84444" lon="2.57368">
        <ele>94.9</ele>
        <time>2022-07-10T12:31:18Z</time>
      </trkpt>
      <trkpt lat="49.84444" lon="2.5737">
        <ele>94.9</ele>
        <time>2022-07-10T12:31:19Z</time>
      </trkpt>
      <trkpt lat="49.84444" lon="2.57372">
        <ele>94.9</ele>
        <time>2022-07-10T12:31:20Z</time>
      </trkpt>
      <trkpt lat="49.84445" lon="2.57374">
        <ele>94.9</ele>
        <time>2022-07-10T12:31:21Z</time>
      </trkpt>
      <trkpt lat="49.84445" lon="2.57376">
        <ele>94.9</ele>
        <time>2022-07-10T12:31:22Z</time>
      </trkpt>
      <trkpt lat="49.84445" lon="2.57378">
        <ele>94.9</ele>
        <time>2022-07-10T12:31:23Z</time>
      </trkpt>
      <trkpt lat="49.84445" lon="2.57379">
        <ele>94.8</ele>
        <time>2022-07-10T12:31:24Z</time>
      </trkpt>
      <trkpt lat="49.84445" lon="2.57382">
        <ele>94.8</ele>
        <time>2022-07-10T12:31:26Z</time>
      </trkpt>
      <trkpt lat="49.84445" lon="2.57386">
        <ele>94.8</ele>
        <time>2022-07-10T12:31:28Z</time>
      </trkpt>
      <trkpt lat="49.84445" lon="2.57387">
        <ele>94.8</ele>
        <time>2022-07-10T12:31:29Z</time>
      </trkpt>
      <trkpt lat="49.84445" lon="2.57389">
        <ele>94.8</ele>
        <time>2022-07-10T12:31:30Z</time>
      </trkpt>
      <trkpt lat="49.84445" lon="2.57391">
        <ele>94.8</ele>
        <time>2022-07-10T12:31:31Z</time>
      </trkpt>
      <trkpt lat="49.84445" lon="2.57394">
        <ele>94.8</ele>
        <time>2022-07-10T12:31:32Z</time>
      </trkpt>
      <trkpt lat="49.84445" lon="2.57395">
        <ele>94.8</ele>
        <time>2022-07-10T12:31:33Z</time>
      </trkpt>
      <trkpt lat="49.84445" lon="2.57397">
        <ele>94.7</ele>
        <time>2022-07-10T12:31:34Z</time>
      </trkpt>
      <trkpt lat="49.84445" lon="2.57399">
        <ele>94.7</ele>
        <time>2022-07-10T12:31:35Z</time>
      </trkpt>
      <trkpt lat="49.84445" lon="2.57402">
        <ele>94.7</ele>
        <time>2022-07-10T12:31:37Z</time>
      </trkpt>
      <trkpt lat="49.84444" lon="2.57409">
        <ele>94.7</ele>
        <time>2022-07-10T12:31:39Z</time>
      </trkpt>
      <trkpt lat="49.84444" lon="2.5741">
        <ele>94.7</ele>
        <time>2022-07-10T12:31:41Z</time>
      </trkpt>
      <trkpt lat="49.84444" lon="2.57412">
        <ele>94.7</ele>
        <time>2022-07-10T12:31:42Z</time>
      </trkpt>
      <trkpt lat="49.84444" lon="2.57414">
        <ele>94.7</ele>
        <time>2022-07-10T12:31:43Z</time>
      </trkpt>
      <trkpt lat="49.84444" lon="2.57416">
        <ele>94.7</ele>
        <time>2022-07-10T12:31:44Z</time>
      </trkpt>
      <trkpt lat="49.84443" lon="2.57418">
        <ele>94.7</ele>
        <time>2022-07-10T12:31:46Z</time>
      </trkpt>
      <trkpt lat="49.84443" lon="2.5742">
        <ele>94.7</ele>
        <time>2022-07-10T12:31:47Z</time>
      </trkpt>
      <trkpt lat="49.84443" lon="2.57422">
        <ele>94.7</ele>
        <time>2022-07-10T12:31:48Z</time>
      </trkpt>
      <trkpt lat="49.84442" lon="2.57425">
        <ele>94.7</ele>
        <time>2022-07-10T12:31:50Z</time>
      </trkpt>
      <trkpt lat="49.84442" lon="2.57427">
        <ele>94.7</ele>
        <time>2022-07-10T12:31:51Z</time>
      </trkpt>
      <trkpt lat="49.84442" lon="2.57428">
        <ele>94.7</ele>
        <time>2022-07-10T12:31:52Z</time>
      </trkpt>
      <trkpt lat="49.84442" lon="2.5743">
        <ele>94.7</ele>
        <time>2022-07-10T12:31:53Z</time>
      </trkpt>
      <trkpt lat="49.84442" lon="2.57432">
        <ele>94.6</ele>
        <time>2022-07-10T12:31:54Z</time>
      </trkpt>
      <trkpt lat="49.84442" lon="2.57434">
        <ele>94.6</ele>
        <time>2022-07-10T12:31:55Z</time>
      </trkpt>
      <trkpt lat="49.84442" lon="2.57436">
        <ele>94.6</ele>
        <time>2022-07-10T12:31:56Z</time>
      </trkpt>
      <trkpt lat="49.84442" lon="2.57438">
        <ele>94.6</ele>
        <time>2022-07-10T12:31:57Z</time>
      </trkpt>
      <trkpt lat="49.84442" lon="2.57439">
        <ele>94.6</ele>
        <time>2022-07-10T12:31:58Z</time>
      </trkpt>
      <trkpt lat="49.84443" lon="2.57441">
        <ele>94.6</ele>
        <time>2022-07-10T12:31:59Z</time>
      </trkpt>
      <trkpt lat="49.84443" lon="2.57442">
        <ele>94.6</ele>
        <time>2022-07-10T12:32:01Z</time>
      </trkpt>
      <trkpt lat="49.84443" lon="2.57444">
        <ele>94.6</ele>
        <time>2022-07-10T12:32:02Z</time>
      </trkpt>
      <trkpt lat="49.84444" lon="2.57446">
        <ele>94.6</ele>
        <time>2022-07-10T12:32:03Z</time>
      </trkpt>
      <trkpt lat="49.84445" lon="2.57448">
        <ele>94.6</ele>
        <time>2022-07-10T12:32:04Z</time>
      </trkpt>
      <trkpt lat="49.84445" lon="2.5745">
        <ele>94.6</ele>
        <time>2022-07-10T12:32:05Z</time>
      </trkpt>
      <trkpt lat="49.84445" lon="2.57452">
        <ele>94.6</ele>
        <time>2022-07-10T12:32:06Z</time>
      </trkpt>
      <trkpt lat="49.84445" lon="2.57455">
        <ele>94.6</ele>
        <time>2022-07-10T12:32:08Z</time>
      </trkpt>
      <trkpt lat="49.84444" lon="2.57456">
        <ele>94.6</ele>
        <time>2022-07-10T12:32:09Z</time>
      </trkpt>
      <trkpt lat="49.84444" lon="2.57458">
        <ele>94.6</ele>
        <time>2022-07-10T12:32:10Z</time>
      </trkpt>
      <trkpt lat="49.84444" lon="2.57461">
        <ele>94.6</ele>
        <time>2022-07-10T12:32:12Z</time>
      </trkpt>
      <trkpt lat="49.84443" lon="2.57463">
        <ele>94.6</ele>
        <time>2022-07-10T12:32:13Z</time>
      </trkpt>
      <trkpt lat="49.84442" lon="2.57464">
        <ele>94.5</ele>
        <time>2022-07-10T12:32:14Z</time>
      </trkpt>
      <trkpt lat="49.84441" lon="2.57466">
        <ele>94.5</ele>
        <time>2022-07-10T12:32:15Z</time>
      </trkpt>
      <trkpt lat="49.84441" lon="2.57467">
        <ele>94.5</ele>
        <time>2022-07-10T12:32:16Z</time>
      </trkpt>
      <trkpt lat="49.84441" lon="2.57469">
        <ele>94.5</ele>
        <time>2022-07-10T12:32:17Z</time>
      </trkpt>
      <trkpt lat="49.8444" lon="2.57471">
        <ele>94.5</ele>
        <time>2022-07-10T12:32:19Z</time>
      </trkpt>
      <trkpt lat="49.8444" lon="2.57473">
        <ele>94.5</ele>
        <time>2022-07-10T12:32:20Z</time>
      </trkpt>
      <trkpt lat="49.8444" lon="2.57474">
        <ele>94.5</ele>
        <time>2022-07-10T12:32:21Z</time>
      </trkpt>
      <trkpt lat="49.8444" lon="2.57476">
        <ele>94.5</ele>
        <time>2022-07-10T12:32:22Z</time>
      </trkpt>
      <trkpt lat="49.84439" lon="2.57478">
        <ele>94.4</ele>
        <time>2022-07-10T12:32:23Z</time>
      </trkpt>
      <trkpt lat="49.84439" lon="2.57479">
        <ele>94.4</ele>
        <time>2022-07-10T12:32:24Z</time>
      </trkpt>
      <trkpt lat="49.84439" lon="2.57481">
        <ele>94.4</ele>
        <time>2022-07-10T12:32:25Z</time>
      </trkpt>
      <trkpt lat="49.84439" lon="2.57484">
        <ele>94.4</ele>
        <time>2022-07-10T12:32:26Z</time>
      </trkpt>
      <trkpt lat="49.84439" lon="2.57488">
        <ele>94.4</ele>
        <time>2022-07-10T12:32:28Z</time>
      </trkpt>
      <trkpt lat="49.84439" lon="2.57489">
        <ele>94.4</ele>
        <time>2022-07-10T12:32:29Z</time>
      </trkpt>
      <trkpt lat="49.84438" lon="2.5749">
        <ele>94.4</ele>
        <time>2022-07-10T12:32:30Z</time>
      </trkpt>
      <trkpt lat="49.84438" lon="2.57492">
        <ele>94.4</ele>
        <time>2022-07-10T12:32:31Z</time>
      </trkpt>
      <trkpt lat="49.84438" lon="2.57493">
        <ele>94.4</ele>
        <time>2022-07-10T12:32:32Z</time>
      </trkpt>
      <trkpt lat="49.84438" lon="2.57497">
        <ele>94.3</ele>
        <time>2022-07-10T12:32:33Z</time>
      </trkpt>
      <trkpt lat="49.84438" lon="2.57499">
        <ele>94.3</ele>
        <time>2022-07-10T12:32:34Z</time>
      </trkpt>
      <trkpt lat="49.84438" lon="2.575">
        <ele>94.3</ele>
        <time>2022-07-10T12:32:35Z</time>
      </trkpt>
      <trkpt lat="49.84438" lon="2.57504">
        <ele>94.3</ele>
        <time>2022-07-10T12:32:36Z</time>
      </trkpt>
      <trkpt lat="49.84438" lon="2.57506">
        <ele>94.3</ele>
        <time>2022-07-10T12:32:38Z</time>
      </trkpt>
      <trkpt lat="49.84437" lon="2.57507">
        <ele>94.3</ele>
        <time>2022-07-10T12:32:39Z</time>
      </trkpt>
      <trkpt lat="49.84437" lon="2.57509">
        <ele>94.3</ele>
        <time>2022-07-10T12:32:40Z</time>
      </trkpt>
      <trkpt lat="49.84437" lon="2.57511">
        <ele>94.3</ele>
        <time>2022-07-10T12:32:41Z</time>
      </trkpt>
      <trkpt lat="49.84437" lon="2.57513">
        <ele>94.3</ele>
        <time>2022-07-10T12:32:42Z</time>
      </trkpt>
      <trkpt lat="49.84438" lon="2.57515">
        <ele>94.3</ele>
        <time>2022-07-10T12:32:43Z</time>
      </trkpt>
      <trkpt lat="49.84438" lon="2.57518">
        <ele>94.3</ele>
        <time>2022-07-10T12:32:44Z</time>
      </trkpt>
      <trkpt lat="49.84438" lon="2.57519">
        <ele>94.3</ele>
        <time>2022-07-10T12:32:45Z</time>
      </trkpt>
      <trkpt lat="49.84438" lon="2.57521">
        <ele>94.3</ele>
        <time>2022-07-10T12:32:46Z</time>
      </trkpt>
      <trkpt lat="49.84439" lon="2.57524">
        <ele>94.3</ele>
        <time>2022-07-10T12:32:48Z</time>
      </trkpt>
      <trkpt lat="49.8444" lon="2.57525">
        <ele>94.3</ele>
        <time>2022-07-10T12:32:49Z</time>
      </trkpt>
      <trkpt lat="49.8444" lon="2.57528">
        <ele>94.2</ele>
        <time>2022-07-10T12:32:50Z</time>
      </trkpt>
      <trkpt lat="49.8444" lon="2.5753">
        <ele>94.2</ele>
        <time>2022-07-10T12:32:51Z</time>
      </trkpt>
      <trkpt lat="49.84442" lon="2.57533">
        <ele>94.2</ele>
        <time>2022-07-10T12:32:53Z</time>
      </trkpt>
      <trkpt lat="49.84443" lon="2.57533">
        <ele>94.2</ele>
        <time>2022-07-10T12:32:54Z</time>
      </trkpt>
      <trkpt lat="49.84443" lon="2.57534">
        <ele>94.2</ele>
        <time>2022-07-10T12:32:55Z</time>
      </trkpt>
      <trkpt lat="49.84443" lon="2.57536">
        <ele>94.2</ele>
        <time>2022-07-10T12:32:56Z</time>
      </trkpt>
      <trkpt lat="49.84442" lon="2.57538">
        <ele>94.2</ele>
        <time>2022-07-10T12:32:57Z</time>
      </trkpt>
      <trkpt lat="49.8444" lon="2.57544">
        <ele>94.2</ele>
        <time>2022-07-10T12:32:59Z</time>
      </trkpt>
      <trkpt lat="49.8444" lon="2.57546">
        <ele>94.2</ele>
        <time>2022-07-10T12:33:00Z</time>
      </trkpt>
      <trkpt lat="49.84439" lon="2.57547">
        <ele>94.2</ele>
        <time>2022-07-10T12:33:01Z</time>
      </trkpt>
      <trkpt lat="49.84438" lon="2.57549">
        <ele>94.2</ele>
        <time>2022-07-10T12:33:02Z</time>
      </trkpt>
      <trkpt lat="49.84436" lon="2.57553">
        <ele>94.2</ele>
        <time>2022-07-10T12:33:03Z</time>
      </trkpt>
      <trkpt lat="49.84436" lon="2.57554">
        <ele>94.1</ele>
        <time>2022-07-10T12:33:04Z</time>
      </trkpt>
      <trkpt lat="49.84435" lon="2.57556">
        <ele>94.1</ele>
        <time>2022-07-10T12:33:05Z</time>
      </trkpt>
      <trkpt lat="49.84435" lon="2.57558">
        <ele>94.1</ele>
        <time>2022-07-10T12:33:06Z</time>
      </trkpt>
      <trkpt lat="49.84435" lon="2.5756">
        <ele>94.1</ele>
        <time>2022-07-10T12:33:07Z</time>
      </trkpt>
      <trkpt lat="49.84432" lon="2.57563">
        <ele>94.1</ele>
        <time>2022-07-10T12:33:09Z</time>
      </trkpt>
      <trkpt lat="49.84431" lon="2.57564">
        <ele>94.1</ele>
        <time>2022-07-10T12:33:10Z</time>
      </trkpt>
      <trkpt lat="49.8443" lon="2.57565">
        <ele>94.1</ele>
        <time>2022-07-10T12:33:11Z</time>
      </trkpt>
      <trkpt lat="49.84429" lon="2.57567">
        <ele>94.1</ele>
        <time>2022-07-10T12:33:12Z</time>
      </trkpt>
      <trkpt lat="49.84429" lon="2.5757">
        <ele>94.1</ele>
        <time>2022-07-10T12:33:13Z</time>
      </trkpt>
      <trkpt lat="49.84428" lon="2.57571">
        <ele>94.1</ele>
        <time>2022-07-10T12:33:14Z</time>
      </trkpt>
      <trkpt lat="49.84428" lon="2.57572">
        <ele>94.1</ele>
        <time>2022-07-10T12:33:16Z</time>
      </trkpt>
      <trkpt lat="49.84427" lon="2.57574">
        <ele>94.1</ele>
        <time>2022-07-10T12:33:17Z</time>
      </trkpt>
      <trkpt lat="49.84426" lon="2.57574">
        <ele>94.1</ele>
        <time>2022-07-10T12:33:18Z</time>
      </trkpt>
      <trkpt lat="49.84425" lon="2.57576">
        <ele>94.1</ele>
        <time>2022-07-10T12:33:20Z</time>
      </trkpt>
      <trkpt lat="49.84424" lon="2.57577">
        <ele>94.1</ele>
        <time>2022-07-10T12:33:21Z</time>
      </trkpt>
      <trkpt lat="49.84423" lon="2.57578">
        <ele>94.1</ele>
        <time>2022-07-10T12:33:22Z</time>
      </trkpt>
      <trkpt lat="49.84423" lon="2.57578">
        <ele>94.1</ele>
        <time>2022-07-10T12:33:23Z</time>
      </trkpt>
      <trkpt lat="49.84422" lon="2.57578">
        <ele>94.1</ele>
        <time>2022-07-10T12:33:24Z</time>
      </trkpt>
      <trkpt lat="49.8442" lon="2.57578">
        <ele>94.1</ele>
        <time>2022-07-10T12:33:25Z</time>
      </trkpt>
      <trkpt lat="49.84419" lon="2.57578">
        <ele>94.1</ele>
        <time>2022-07-10T12:33:26Z</time>
      </trkpt>
      <trkpt lat="49.84417" lon="2.57577">
        <ele>94.1</ele>
        <time>2022-07-10T12:33:27Z</time>
      </trkpt>
      <trkpt lat="49.84416" lon="2.57577">
        <ele>94.1</ele>
        <time>2022-07-10T12:33:28Z</time>
      </trkpt>
      <trkpt lat="49.84415" lon="2.57577">
        <ele>94.1</ele>
        <time>2022-07-10T12:33:29Z</time>
      </trkpt>
      <trkpt lat="49.84414" lon="2.57576">
        <ele>94.1</ele>
        <time>2022-07-10T12:33:30Z</time>
      </trkpt>
      <trkpt lat="49.84413" lon="2.57576">
        <ele>94.1</ele>
        <time>2022-07-10T12:33:32Z</time>
      </trkpt>
      <trkpt lat="49.84412" lon="2.57575">
        <ele>94.1</ele>
        <time>2022-07-10T12:33:33Z</time>
      </trkpt>
      <trkpt lat="49.8441" lon="2.57574">
        <ele>94.1</ele>
        <time>2022-07-10T12:33:35Z</time>
      </trkpt>
      <trkpt lat="49.84409" lon="2.57574">
        <ele>94.1</ele>
        <time>2022-07-10T12:33:36Z</time>
      </trkpt>
      <trkpt lat="49.84408" lon="2.57574">
        <ele>94.1</ele>
        <time>2022-07-10T12:33:37Z</time>
      </trkpt>
      <trkpt lat="49.84408" lon="2.57574">
        <ele>94.1</ele>
        <time>2022-07-10T12:33:38Z</time>
      </trkpt>
      <trkpt lat="49.84407" lon="2.57574">
        <ele>94.1</ele>
        <time>2022-07-10T12:33:39Z</time>
      </trkpt>
      <trkpt lat="49.84407" lon="2.57575">
        <ele>94.1</ele>
        <time>2022-07-10T12:33:40Z</time>
      </trkpt>
      <trkpt lat="49.84407" lon="2.57575">
        <ele>94.1</ele>
        <time>2022-07-10T12:33:41Z</time>
      </trkpt>
      <trkpt lat="49.84407" lon="2.57575">
        <ele>94.1</ele>
        <time>2022-07-10T12:33:43Z</time>
      </trkpt>
      <trkpt lat="49.84407" lon="2.57576">
        <ele>94.1</ele>
        <time>2022-07-10T12:33:44Z</time>
      </trkpt>
      <trkpt lat="49.84407" lon="2.57576">
        <ele>94.1</ele>
        <time>2022-07-10T12:33:45Z</time>
      </trkpt>
      <trkpt lat="49.84407" lon="2.57576">
        <ele>94.1</ele>
        <time>2022-07-10T12:33:46Z</time>
      </trkpt>
      <trkpt lat="49.84407" lon="2.57577">
        <ele>94.1</ele>
        <time>2022-07-10T12:33:47Z</time>
      </trkpt>
      <trkpt lat="49.84408" lon="2.57577">
        <ele>94.1</ele>
        <time>2022-07-10T12:33:48Z</time>
      </trkpt>
      <trkpt lat="49.84408" lon="2.57577">
        <ele>94.1</ele>
        <time>2022-07-10T12:33:49Z</time>
      </trkpt>
      <trkpt lat="49.84409" lon="2.57578">
        <ele>94.1</ele>
        <time>2022-07-10T12:33:50Z</time>
      </trkpt>
      <trkpt lat="49.84409" lon="2.57578">
        <ele>94.1</ele>
        <time>2022-07-10T12:33:51Z</time>
      </trkpt>
      <trkpt lat="49.84411" lon="2.57579">
        <ele>94.1</ele>
        <time>2022-07-10T12:33:52Z</time>
      </trkpt>
      <trkpt lat="49.84411" lon="2.57579">
        <ele>94.1</ele>
        <time>2022-07-10T12:33:53Z</time>
      </trkpt>
      <trkpt lat="49.84411" lon="2.57579">
        <ele>94.1</ele>
        <time>2022-07-10T12:33:54Z</time>
      </trkpt>
      <trkpt lat="49.84412" lon="2.57579">
        <ele>94.1</ele>
        <time>2022-07-10T12:33:55Z</time>
      </trkpt>
      <trkpt lat="49.84412" lon="2.57579">
        <ele>94.1</ele>
        <time>2022-07-10T12:33:56Z</time>
      </trkpt>
      <trkpt lat="49.84412" lon="2.57579">
        <ele>94.1</ele>
        <time>2022-07-10T12:33:57Z</time>
      </trkpt>
      <trkpt lat="49.84412" lon="2.57579">
        <ele>94.1</ele>
        <time>2022-07-10T12:33:58Z</time>
      </trkpt>
      <trkpt lat="49.84413" lon="2.57579">
        <ele>94.1</ele>
        <time>2022-07-10T12:33:59Z</time>
      </trkpt>
      <trkpt lat="49.84413" lon="2.57579">
        <ele>94.1</ele>
        <time>2022-07-10T12:34:00Z</time>
      </trkpt>
      <trkpt lat="49.84413" lon="2.57579">
        <ele>94.1</ele>
        <time>2022-07-10T12:34:01Z</time>
      </trkpt>
      <trkpt lat="49.84414" lon="2.57579">
        <ele>94.1</ele>
        <time>2022-07-10T12:34:02Z</time>
      </trkpt>
      <trkpt lat="49.84414" lon="2.57579">
        <ele>94.1</ele>
        <time>2022-07-10T12:34:03Z</time>
      </trkpt>
      <trkpt lat="49.84415" lon="2.57579">
        <ele>94.1</ele>
        <time>2022-07-10T12:34:04Z</time>
      </trkpt>
      <trkpt lat="49.84416" lon="2.57579">
        <ele>94.1</ele>
        <time>2022-07-10T12:34:05Z</time>
      </trkpt>
      <trkpt lat="49.84416" lon="2.57579">
        <ele>94.1</ele>
        <time>2022-07-10T12:34:06Z</time>
      </trkpt>
      <trkpt lat="49.84416" lon="2.57579">
        <ele>94.1</ele>
        <time>2022-07-10T12:34:07Z</time>
      </trkpt>
      <trkpt lat="49.84417" lon="2.57579">
        <ele>94.1</ele>
        <time>2022-07-10T12:34:08Z</time>
      </trkpt>
      <trkpt lat="49.84417" lon="2.57578">
        <ele>94.1</ele>
        <time>2022-07-10T12:34:09Z</time>
      </trkpt>
      <trkpt lat="49.84417" lon="2.57578">
        <ele>94.1</ele>
        <time>2022-07-10T12:34:10Z</time>
      </trkpt>
      <trkpt lat="49.84417" lon="2.57578">
        <ele>94.1</ele>
        <time>2022-07-10T12:34:11Z</time>
      </trkpt>
      <trkpt lat="49.84417" lon="2.57578">
        <ele>94.1</ele>
        <time>2022-07-10T12:34:12Z</time>
      </trkpt>
      <trkpt lat="49.84417" lon="2.57578">
        <ele>94.1</ele>
        <time>2022-07-10T12:34:13Z</time>
      </trkpt>
      <trkpt lat="49.84417" lon="2.57578">
        <ele>94.1</ele>
        <time>2022-07-10T12:34:14Z</time>
      </trkpt>
      <trkpt lat="49.84417" lon="2.57578">
        <ele>94.1</ele>
        <time>2022-07-10T12:34:15Z</time>
      </trkpt>
      <trkpt lat="49.84417" lon="2.57578">
        <ele>94.1</ele>
        <time>2022-07-10T12:34:16Z</time>
      </trkpt>
      <trkpt lat="49.84417" lon="2.57578">
        <ele>94.1</ele>
        <time>2022-07-10T12:34:17Z</time>
      </trkpt>
      <trkpt lat="49.84417" lon="2.57578">
        <ele>94.1</ele>
        <time>2022-07-10T12:34:18Z</time>
      </trkpt>
      <trkpt lat="49.84417" lon="2.57578">
        <ele>94.1</ele>
        <time>2022-07-10T12:34:19Z</time>
      </trkpt>
      <trkpt lat="49.84418" lon="2.57578">
        <ele>94.1</ele>
        <time>2022-07-10T12:34:20Z</time>
      </trkpt>
      <trkpt lat="49.84418" lon="2.57578">
        <ele>94.1</ele>
        <time>2022-07-10T12:34:21Z</time>
      </trkpt>
      <trkpt lat="49.84418" lon="2.57578">
        <ele>94.1</ele>
        <time>2022-07-10T12:34:22Z</time>
      </trkpt>
      <trkpt lat="49.84418" lon="2.57577">
        <ele>94.1</ele>
        <time>2022-07-10T12:34:23Z</time>
      </trkpt>
      <trkpt lat="49.84418" lon="2.57577">
        <ele>94.1</ele>
        <time>2022-07-10T12:34:24Z</time>
      </trkpt>
      <trkpt lat="49.84418" lon="2.57577">
        <ele>94.1</ele>
        <time>2022-07-10T12:34:25Z</time>
      </trkpt>
      <trkpt lat="49.84418" lon="2.57577">
        <ele>94.1</ele>
        <time>2022-07-10T12:34:26Z</time>
      </trkpt>
      <trkpt lat="49.84418" lon="2.57577">
        <ele>94.1</ele>
        <time>2022-07-10T12:34:27Z</time>
      </trkpt>
      <trkpt lat="49.84418" lon="2.57577">
        <ele>94.1</ele>
        <time>2022-07-10T12:34:28Z</time>
      </trkpt>
      <trkpt lat="49.84418" lon="2.57577">
        <ele>94.1</ele>
        <time>2022-07-10T12:34:29Z</time>
      </trkpt>
    </trkseg>
  </trk>
</gpx>